<?xml version="1.0" encoding="UTF-8" standalone="no" ?>
<gpx xmlns="http://www.topografix.com/GPX/1/1" xmlns:xsi="http://www.w3.org/2001/XMLSchema-instance" xsi:schemaLocation="http://www.topografix.com/GPX/1/1 http://www.topografix.com/GPX/1/1/gpx.xsd" version="1.1" creator="VisuGPX - https://www.visugpx.com">
  <metadata>
    <name>traces-juin-sept</name>
  </metadata>
  <trk>
    <name><![CDATA[Tracé actuel: 16 JUIN 2019 16:34]]></name>
    <trkseg>
      <trkpt lat="48.54299" lon="2.53495">
        <ele>40</ele>
        <time>2019-06-16T14:34:03Z</time>
      </trkpt>
      <trkpt lat="48.54352" lon="2.53433">
        <ele>42</ele>
        <time>2019-06-16T14:34:20Z</time>
      </trkpt>
      <trkpt lat="48.54405" lon="2.53382">
        <ele>40</ele>
        <time>2019-06-16T14:34:36Z</time>
      </trkpt>
      <trkpt lat="48.54422" lon="2.53363">
        <ele>41</ele>
        <time>2019-06-16T14:34:41Z</time>
      </trkpt>
      <trkpt lat="48.54445" lon="2.53346">
        <ele>41</ele>
        <time>2019-06-16T14:34:47Z</time>
      </trkpt>
      <trkpt lat="48.54473" lon="2.53325">
        <ele>40</ele>
        <time>2019-06-16T14:34:55Z</time>
      </trkpt>
      <trkpt lat="48.54525" lon="2.53308">
        <ele>41</ele>
        <time>2019-06-16T14:35:08Z</time>
      </trkpt>
      <trkpt lat="48.54546" lon="2.53299">
        <ele>42</ele>
        <time>2019-06-16T14:35:15Z</time>
      </trkpt>
      <trkpt lat="48.54544" lon="2.5326">
        <ele>41</ele>
        <time>2019-06-16T14:35:25Z</time>
      </trkpt>
      <trkpt lat="48.54541" lon="2.53248">
        <ele>41</ele>
        <time>2019-06-16T14:35:28Z</time>
      </trkpt>
      <trkpt lat="48.54547" lon="2.53238">
        <ele>41</ele>
        <time>2019-06-16T14:35:36Z</time>
      </trkpt>
      <trkpt lat="48.54553" lon="2.53222">
        <ele>42</ele>
        <time>2019-06-16T14:35:45Z</time>
      </trkpt>
      <trkpt lat="48.54554" lon="2.53215">
        <ele>42</ele>
        <time>2019-06-16T14:35:48Z</time>
      </trkpt>
      <trkpt lat="48.54552" lon="2.53212">
        <ele>42</ele>
        <time>2019-06-16T14:35:52Z</time>
      </trkpt>
      <trkpt lat="48.54548" lon="2.53205">
        <ele>42</ele>
        <time>2019-06-16T14:35:55Z</time>
      </trkpt>
      <trkpt lat="48.54543" lon="2.53175">
        <ele>42</ele>
        <time>2019-06-16T14:36:01Z</time>
      </trkpt>
      <trkpt lat="48.54542" lon="2.5316">
        <ele>42</ele>
        <time>2019-06-16T14:36:10Z</time>
      </trkpt>
      <trkpt lat="48.54541" lon="2.53157">
        <ele>42</ele>
        <time>2019-06-16T14:36:12Z</time>
      </trkpt>
      <trkpt lat="48.54536" lon="2.53153">
        <ele>42</ele>
        <time>2019-06-16T14:36:15Z</time>
      </trkpt>
      <trkpt lat="48.5452" lon="2.53146">
        <ele>42</ele>
        <time>2019-06-16T14:36:24Z</time>
      </trkpt>
      <trkpt lat="48.54495" lon="2.5314">
        <ele>41</ele>
        <time>2019-06-16T14:36:33Z</time>
      </trkpt>
      <trkpt lat="48.54483" lon="2.53138">
        <ele>41</ele>
        <time>2019-06-16T14:36:37Z</time>
      </trkpt>
      <trkpt lat="48.5446" lon="2.53136">
        <ele>40</ele>
        <time>2019-06-16T14:36:45Z</time>
      </trkpt>
      <trkpt lat="48.54454" lon="2.53142">
        <ele>40</ele>
        <time>2019-06-16T14:36:48Z</time>
      </trkpt>
      <trkpt lat="48.54414" lon="2.53147">
        <ele>40</ele>
        <time>2019-06-16T14:37:01Z</time>
      </trkpt>
      <trkpt lat="48.54401" lon="2.53145">
        <ele>40</ele>
        <time>2019-06-16T14:37:05Z</time>
      </trkpt>
      <trkpt lat="48.54379" lon="2.53161">
        <ele>40</ele>
        <time>2019-06-16T14:37:11Z</time>
      </trkpt>
      <trkpt lat="48.54342" lon="2.53174">
        <ele>41</ele>
        <time>2019-06-16T14:37:22Z</time>
      </trkpt>
      <trkpt lat="48.54315" lon="2.53189">
        <ele>41</ele>
        <time>2019-06-16T14:37:30Z</time>
      </trkpt>
      <trkpt lat="48.54283" lon="2.53195">
        <ele>40</ele>
        <time>2019-06-16T14:37:39Z</time>
      </trkpt>
      <trkpt lat="48.54278" lon="2.53205">
        <ele>40</ele>
        <time>2019-06-16T14:37:41Z</time>
      </trkpt>
      <trkpt lat="48.54261" lon="2.53237">
        <ele>39</ele>
        <time>2019-06-16T14:37:47Z</time>
      </trkpt>
      <trkpt lat="48.54246" lon="2.53259">
        <ele>39</ele>
        <time>2019-06-16T14:37:52Z</time>
      </trkpt>
      <trkpt lat="48.54222" lon="2.53311">
        <ele>40</ele>
        <time>2019-06-16T14:38:01Z</time>
      </trkpt>
      <trkpt lat="48.54199" lon="2.5334">
        <ele>40</ele>
        <time>2019-06-16T14:38:08Z</time>
      </trkpt>
      <trkpt lat="48.54182" lon="2.53357">
        <ele>40</ele>
        <time>2019-06-16T14:38:13Z</time>
      </trkpt>
      <trkpt lat="48.54158" lon="2.53395">
        <ele>40</ele>
        <time>2019-06-16T14:38:23Z</time>
      </trkpt>
      <trkpt lat="48.54143" lon="2.53426">
        <ele>39</ele>
        <time>2019-06-16T14:38:33Z</time>
      </trkpt>
      <trkpt lat="48.54122" lon="2.53434">
        <ele>39</ele>
        <time>2019-06-16T14:38:43Z</time>
      </trkpt>
      <trkpt lat="48.54106" lon="2.53455">
        <ele>39</ele>
        <time>2019-06-16T14:38:50Z</time>
      </trkpt>
      <trkpt lat="48.54099" lon="2.5348">
        <ele>39</ele>
        <time>2019-06-16T14:38:53Z</time>
      </trkpt>
      <trkpt lat="48.54086" lon="2.53494">
        <ele>39</ele>
        <time>2019-06-16T14:38:58Z</time>
      </trkpt>
      <trkpt lat="48.54076" lon="2.53498">
        <ele>39</ele>
        <time>2019-06-16T14:39:02Z</time>
      </trkpt>
      <trkpt lat="48.5406" lon="2.53538">
        <ele>40</ele>
        <time>2019-06-16T14:39:11Z</time>
      </trkpt>
      <trkpt lat="48.54057" lon="2.53564">
        <ele>41</ele>
        <time>2019-06-16T14:39:16Z</time>
      </trkpt>
      <trkpt lat="48.5404" lon="2.53634">
        <ele>40</ele>
        <time>2019-06-16T14:39:28Z</time>
      </trkpt>
      <trkpt lat="48.54033" lon="2.53674">
        <ele>40</ele>
        <time>2019-06-16T14:39:35Z</time>
      </trkpt>
      <trkpt lat="48.54016" lon="2.53736">
        <ele>40</ele>
        <time>2019-06-16T14:39:47Z</time>
      </trkpt>
      <trkpt lat="48.54012" lon="2.53782">
        <ele>41</ele>
        <time>2019-06-16T14:39:55Z</time>
      </trkpt>
      <trkpt lat="48.54019" lon="2.538">
        <ele>41</ele>
        <time>2019-06-16T14:40:00Z</time>
      </trkpt>
      <trkpt lat="48.54038" lon="2.53827">
        <ele>41</ele>
        <time>2019-06-16T14:40:08Z</time>
      </trkpt>
      <trkpt lat="48.54062" lon="2.53851">
        <ele>42</ele>
        <time>2019-06-16T14:40:19Z</time>
      </trkpt>
      <trkpt lat="48.54075" lon="2.53857">
        <ele>42</ele>
        <time>2019-06-16T14:40:24Z</time>
      </trkpt>
      <trkpt lat="48.5412" lon="2.53894">
        <ele>46</ele>
        <time>2019-06-16T14:40:33Z</time>
      </trkpt>
      <trkpt lat="48.54122" lon="2.53917">
        <ele>50</ele>
        <time>2019-06-16T14:40:40Z</time>
      </trkpt>
      <trkpt lat="48.54121" lon="2.53923">
        <ele>50</ele>
        <time>2019-06-16T14:40:42Z</time>
      </trkpt>
      <trkpt lat="48.54121" lon="2.53977">
        <ele>51</ele>
        <time>2019-06-16T14:40:55Z</time>
      </trkpt>
      <trkpt lat="48.54121" lon="2.54004">
        <ele>54</ele>
        <time>2019-06-16T14:41:04Z</time>
      </trkpt>
      <trkpt lat="48.54121" lon="2.5401">
        <ele>54</ele>
        <time>2019-06-16T14:41:07Z</time>
      </trkpt>
      <trkpt lat="48.54118" lon="2.54028">
        <ele>54</ele>
        <time>2019-06-16T14:41:17Z</time>
      </trkpt>
      <trkpt lat="48.54118" lon="2.54059">
        <ele>54</ele>
        <time>2019-06-16T14:41:29Z</time>
      </trkpt>
      <trkpt lat="48.54115" lon="2.54078">
        <ele>54</ele>
        <time>2019-06-16T14:41:39Z</time>
      </trkpt>
      <trkpt lat="48.54114" lon="2.54086">
        <ele>55</ele>
        <time>2019-06-16T14:41:46Z</time>
      </trkpt>
      <trkpt lat="48.54112" lon="2.54102">
        <ele>55</ele>
        <time>2019-06-16T14:41:55Z</time>
      </trkpt>
      <trkpt lat="48.5411" lon="2.54123">
        <ele>55</ele>
        <time>2019-06-16T14:42:07Z</time>
      </trkpt>
      <trkpt lat="48.54115" lon="2.54146">
        <ele>56</ele>
        <time>2019-06-16T14:42:16Z</time>
      </trkpt>
      <trkpt lat="48.54118" lon="2.54149">
        <ele>56</ele>
        <time>2019-06-16T14:42:18Z</time>
      </trkpt>
      <trkpt lat="48.5412" lon="2.54152">
        <ele>56</ele>
        <time>2019-06-16T14:42:20Z</time>
      </trkpt>
      <trkpt lat="48.54129" lon="2.54171">
        <ele>58</ele>
        <time>2019-06-16T14:42:29Z</time>
      </trkpt>
      <trkpt lat="48.54148" lon="2.54176">
        <ele>59</ele>
        <time>2019-06-16T14:42:39Z</time>
      </trkpt>
      <trkpt lat="48.54162" lon="2.54184">
        <ele>59</ele>
        <time>2019-06-16T14:42:44Z</time>
      </trkpt>
      <trkpt lat="48.54179" lon="2.54193">
        <ele>61</ele>
        <time>2019-06-16T14:42:50Z</time>
      </trkpt>
      <trkpt lat="48.542" lon="2.54202">
        <ele>61</ele>
        <time>2019-06-16T14:42:56Z</time>
      </trkpt>
      <trkpt lat="48.54242" lon="2.54232">
        <ele>61</ele>
        <time>2019-06-16T14:43:07Z</time>
      </trkpt>
      <trkpt lat="48.54254" lon="2.5427">
        <ele>61</ele>
        <time>2019-06-16T14:43:14Z</time>
      </trkpt>
      <trkpt lat="48.54238" lon="2.5435">
        <ele>60</ele>
        <time>2019-06-16T14:43:29Z</time>
      </trkpt>
      <trkpt lat="48.54228" lon="2.54415">
        <ele>61</ele>
        <time>2019-06-16T14:43:39Z</time>
      </trkpt>
      <trkpt lat="48.54218" lon="2.54466">
        <ele>62</ele>
        <time>2019-06-16T14:43:47Z</time>
      </trkpt>
      <trkpt lat="48.54214" lon="2.54491">
        <ele>62</ele>
        <time>2019-06-16T14:43:51Z</time>
      </trkpt>
      <trkpt lat="48.54211" lon="2.5451">
        <ele>63</ele>
        <time>2019-06-16T14:43:54Z</time>
      </trkpt>
      <trkpt lat="48.54194" lon="2.54574">
        <ele>63</ele>
        <time>2019-06-16T14:44:05Z</time>
      </trkpt>
      <trkpt lat="48.5419" lon="2.54592">
        <ele>64</ele>
        <time>2019-06-16T14:44:08Z</time>
      </trkpt>
      <trkpt lat="48.54178" lon="2.5464">
        <ele>64</ele>
        <time>2019-06-16T14:44:18Z</time>
      </trkpt>
      <trkpt lat="48.54162" lon="2.54715">
        <ele>64</ele>
        <time>2019-06-16T14:44:30Z</time>
      </trkpt>
      <trkpt lat="48.5415" lon="2.54783">
        <ele>64</ele>
        <time>2019-06-16T14:44:41Z</time>
      </trkpt>
      <trkpt lat="48.54138" lon="2.54842">
        <ele>65</ele>
        <time>2019-06-16T14:44:49Z</time>
      </trkpt>
      <trkpt lat="48.5413" lon="2.54873">
        <ele>65</ele>
        <time>2019-06-16T14:44:53Z</time>
      </trkpt>
      <trkpt lat="48.54127" lon="2.54886">
        <ele>65</ele>
        <time>2019-06-16T14:44:55Z</time>
      </trkpt>
      <trkpt lat="48.54123" lon="2.54913">
        <ele>65</ele>
        <time>2019-06-16T14:45:00Z</time>
      </trkpt>
      <trkpt lat="48.54114" lon="2.54952">
        <ele>67</ele>
        <time>2019-06-16T14:45:08Z</time>
      </trkpt>
      <trkpt lat="48.541" lon="2.54971">
        <ele>67</ele>
        <time>2019-06-16T14:45:16Z</time>
      </trkpt>
      <trkpt lat="48.54116" lon="2.54986">
        <ele>67</ele>
        <time>2019-06-16T14:45:23Z</time>
      </trkpt>
      <trkpt lat="48.54152" lon="2.55014">
        <ele>70</ele>
        <time>2019-06-16T14:45:36Z</time>
      </trkpt>
      <trkpt lat="48.54179" lon="2.55046">
        <ele>71</ele>
        <time>2019-06-16T14:45:45Z</time>
      </trkpt>
      <trkpt lat="48.5422" lon="2.55079">
        <ele>71</ele>
        <time>2019-06-16T14:45:57Z</time>
      </trkpt>
      <trkpt lat="48.5426" lon="2.55113">
        <ele>72</ele>
        <time>2019-06-16T14:46:10Z</time>
      </trkpt>
      <trkpt lat="48.54287" lon="2.55131">
        <ele>73</ele>
        <time>2019-06-16T14:46:18Z</time>
      </trkpt>
      <trkpt lat="48.54329" lon="2.55127">
        <ele>73</ele>
        <time>2019-06-16T14:46:28Z</time>
      </trkpt>
      <trkpt lat="48.54338" lon="2.55124">
        <ele>74</ele>
        <time>2019-06-16T14:46:30Z</time>
      </trkpt>
      <trkpt lat="48.54363" lon="2.55112">
        <ele>74</ele>
        <time>2019-06-16T14:46:36Z</time>
      </trkpt>
      <trkpt lat="48.54375" lon="2.55109">
        <ele>74</ele>
        <time>2019-06-16T14:46:38Z</time>
      </trkpt>
      <trkpt lat="48.54399" lon="2.55102">
        <ele>74</ele>
        <time>2019-06-16T14:46:43Z</time>
      </trkpt>
      <trkpt lat="48.54408" lon="2.551">
        <ele>74</ele>
        <time>2019-06-16T14:46:45Z</time>
      </trkpt>
      <trkpt lat="48.5443" lon="2.5509">
        <ele>74</ele>
        <time>2019-06-16T14:46:50Z</time>
      </trkpt>
      <trkpt lat="48.54452" lon="2.55083">
        <ele>73</ele>
        <time>2019-06-16T14:46:54Z</time>
      </trkpt>
      <trkpt lat="48.54461" lon="2.5508">
        <ele>73</ele>
        <time>2019-06-16T14:46:56Z</time>
      </trkpt>
      <trkpt lat="48.5451" lon="2.55063">
        <ele>74</ele>
        <time>2019-06-16T14:47:06Z</time>
      </trkpt>
      <trkpt lat="48.54529" lon="2.55059">
        <ele>74</ele>
        <time>2019-06-16T14:47:10Z</time>
      </trkpt>
      <trkpt lat="48.54546" lon="2.55051">
        <ele>74</ele>
        <time>2019-06-16T14:47:14Z</time>
      </trkpt>
      <trkpt lat="48.54584" lon="2.55032">
        <ele>74</ele>
        <time>2019-06-16T14:47:23Z</time>
      </trkpt>
      <trkpt lat="48.54611" lon="2.55023">
        <ele>73</ele>
        <time>2019-06-16T14:47:29Z</time>
      </trkpt>
      <trkpt lat="48.54629" lon="2.55019">
        <ele>73</ele>
        <time>2019-06-16T14:47:35Z</time>
      </trkpt>
      <trkpt lat="48.54654" lon="2.55007">
        <ele>73</ele>
        <time>2019-06-16T14:47:39Z</time>
      </trkpt>
      <trkpt lat="48.54705" lon="2.54988">
        <ele>71</ele>
        <time>2019-06-16T14:47:48Z</time>
      </trkpt>
      <trkpt lat="48.54762" lon="2.54963">
        <ele>71</ele>
        <time>2019-06-16T14:48:00Z</time>
      </trkpt>
      <trkpt lat="48.54775" lon="2.54959">
        <ele>71</ele>
        <time>2019-06-16T14:48:02Z</time>
      </trkpt>
      <trkpt lat="48.54795" lon="2.5495">
        <ele>71</ele>
        <time>2019-06-16T14:48:06Z</time>
      </trkpt>
      <trkpt lat="48.5481" lon="2.54944">
        <ele>71</ele>
        <time>2019-06-16T14:48:09Z</time>
      </trkpt>
      <trkpt lat="48.5483" lon="2.54938">
        <ele>70</ele>
        <time>2019-06-16T14:48:13Z</time>
      </trkpt>
      <trkpt lat="48.54889" lon="2.54913">
        <ele>68</ele>
        <time>2019-06-16T14:48:23Z</time>
      </trkpt>
      <trkpt lat="48.54908" lon="2.54905">
        <ele>68</ele>
        <time>2019-06-16T14:48:26Z</time>
      </trkpt>
      <trkpt lat="48.5492" lon="2.54901">
        <ele>68</ele>
        <time>2019-06-16T14:48:28Z</time>
      </trkpt>
      <trkpt lat="48.54957" lon="2.54886">
        <ele>66</ele>
        <time>2019-06-16T14:48:34Z</time>
      </trkpt>
      <trkpt lat="48.54985" lon="2.54877">
        <ele>66</ele>
        <time>2019-06-16T14:48:38Z</time>
      </trkpt>
      <trkpt lat="48.55062" lon="2.5485">
        <ele>63</ele>
        <time>2019-06-16T14:48:49Z</time>
      </trkpt>
      <trkpt lat="48.55156" lon="2.54814">
        <ele>58</ele>
        <time>2019-06-16T14:49:03Z</time>
      </trkpt>
      <trkpt lat="48.55198" lon="2.54801">
        <ele>56</ele>
        <time>2019-06-16T14:49:10Z</time>
      </trkpt>
      <trkpt lat="48.55237" lon="2.54824">
        <ele>56</ele>
        <time>2019-06-16T14:49:18Z</time>
      </trkpt>
      <trkpt lat="48.55239" lon="2.5483">
        <ele>56</ele>
        <time>2019-06-16T14:49:19Z</time>
      </trkpt>
      <trkpt lat="48.55249" lon="2.54879">
        <ele>59</ele>
        <time>2019-06-16T14:49:31Z</time>
      </trkpt>
      <trkpt lat="48.55248" lon="2.54907">
        <ele>60</ele>
        <time>2019-06-16T14:49:44Z</time>
      </trkpt>
      <trkpt lat="48.5525" lon="2.54911">
        <ele>59</ele>
        <time>2019-06-16T14:50:08Z</time>
      </trkpt>
      <trkpt lat="48.5525" lon="2.54909">
        <ele>60</ele>
        <time>2019-06-16T14:50:35Z</time>
      </trkpt>
      <trkpt lat="48.55249" lon="2.54907">
        <ele>60</ele>
        <time>2019-06-16T14:51:08Z</time>
      </trkpt>
      <trkpt lat="48.5525" lon="2.54908">
        <ele>60</ele>
        <time>2019-06-16T14:51:41Z</time>
      </trkpt>
      <trkpt lat="48.55248" lon="2.54908">
        <ele>60</ele>
        <time>2019-06-16T14:52:09Z</time>
      </trkpt>
      <trkpt lat="48.55248" lon="2.54908">
        <ele>60</ele>
        <time>2019-06-16T14:52:32Z</time>
      </trkpt>
      <trkpt lat="48.55249" lon="2.54909">
        <ele>60</ele>
        <time>2019-06-16T14:53:02Z</time>
      </trkpt>
      <trkpt lat="48.5525" lon="2.5491">
        <ele>60</ele>
        <time>2019-06-16T14:53:19Z</time>
      </trkpt>
      <trkpt lat="48.55249" lon="2.54909">
        <ele>60</ele>
        <time>2019-06-16T14:53:45Z</time>
      </trkpt>
      <trkpt lat="48.55249" lon="2.5491">
        <ele>60</ele>
        <time>2019-06-16T14:54:12Z</time>
      </trkpt>
      <trkpt lat="48.5525" lon="2.54908">
        <ele>59</ele>
        <time>2019-06-16T14:54:37Z</time>
      </trkpt>
      <trkpt lat="48.5525" lon="2.54913">
        <ele>60</ele>
        <time>2019-06-16T14:54:51Z</time>
      </trkpt>
      <trkpt lat="48.55245" lon="2.54953">
        <ele>62</ele>
        <time>2019-06-16T14:55:03Z</time>
      </trkpt>
      <trkpt lat="48.55242" lon="2.54996">
        <ele>62</ele>
        <time>2019-06-16T14:55:15Z</time>
      </trkpt>
      <trkpt lat="48.55234" lon="2.5505">
        <ele>66</ele>
        <time>2019-06-16T14:55:30Z</time>
      </trkpt>
      <trkpt lat="48.55228" lon="2.55106">
        <ele>68</ele>
        <time>2019-06-16T14:55:43Z</time>
      </trkpt>
      <trkpt lat="48.55224" lon="2.55171">
        <ele>71</ele>
        <time>2019-06-16T14:55:57Z</time>
      </trkpt>
      <trkpt lat="48.55219" lon="2.55226">
        <ele>73</ele>
        <time>2019-06-16T14:56:09Z</time>
      </trkpt>
      <trkpt lat="48.55213" lon="2.55302">
        <ele>77</ele>
        <time>2019-06-16T14:56:25Z</time>
      </trkpt>
      <trkpt lat="48.55206" lon="2.55384">
        <ele>80</ele>
        <time>2019-06-16T14:56:41Z</time>
      </trkpt>
      <trkpt lat="48.552" lon="2.55472">
        <ele>82</ele>
        <time>2019-06-16T14:56:57Z</time>
      </trkpt>
      <trkpt lat="48.55203" lon="2.55553">
        <ele>83</ele>
        <time>2019-06-16T14:57:11Z</time>
      </trkpt>
      <trkpt lat="48.55203" lon="2.55578">
        <ele>83</ele>
        <time>2019-06-16T14:57:15Z</time>
      </trkpt>
      <trkpt lat="48.55219" lon="2.55699">
        <ele>84</ele>
        <time>2019-06-16T14:57:32Z</time>
      </trkpt>
      <trkpt lat="48.55235" lon="2.55818">
        <ele>84</ele>
        <time>2019-06-16T14:57:48Z</time>
      </trkpt>
      <trkpt lat="48.55257" lon="2.55863">
        <ele>83</ele>
        <time>2019-06-16T14:57:56Z</time>
      </trkpt>
      <trkpt lat="48.55261" lon="2.55876">
        <ele>83</ele>
        <time>2019-06-16T14:57:58Z</time>
      </trkpt>
      <trkpt lat="48.55286" lon="2.56003">
        <ele>83</ele>
        <time>2019-06-16T14:58:13Z</time>
      </trkpt>
      <trkpt lat="48.55297" lon="2.56056">
        <ele>83</ele>
        <time>2019-06-16T14:58:19Z</time>
      </trkpt>
      <trkpt lat="48.55325" lon="2.562">
        <ele>82</ele>
        <time>2019-06-16T14:58:34Z</time>
      </trkpt>
      <trkpt lat="48.55326" lon="2.5621">
        <ele>82</ele>
        <time>2019-06-16T14:58:35Z</time>
      </trkpt>
      <trkpt lat="48.55335" lon="2.56249">
        <ele>82</ele>
        <time>2019-06-16T14:58:39Z</time>
      </trkpt>
      <trkpt lat="48.55353" lon="2.56338">
        <ele>81</ele>
        <time>2019-06-16T14:58:48Z</time>
      </trkpt>
      <trkpt lat="48.55357" lon="2.5638">
        <ele>81</ele>
        <time>2019-06-16T14:58:52Z</time>
      </trkpt>
      <trkpt lat="48.55367" lon="2.56416">
        <ele>81</ele>
        <time>2019-06-16T14:58:56Z</time>
      </trkpt>
      <trkpt lat="48.55377" lon="2.5646">
        <ele>79</ele>
        <time>2019-06-16T14:59:01Z</time>
      </trkpt>
      <trkpt lat="48.55382" lon="2.56477">
        <ele>79</ele>
        <time>2019-06-16T14:59:03Z</time>
      </trkpt>
      <trkpt lat="48.55391" lon="2.56509">
        <ele>77</ele>
        <time>2019-06-16T14:59:07Z</time>
      </trkpt>
      <trkpt lat="48.55396" lon="2.56525">
        <ele>77</ele>
        <time>2019-06-16T14:59:09Z</time>
      </trkpt>
      <trkpt lat="48.5542" lon="2.56653">
        <ele>78</ele>
        <time>2019-06-16T14:59:24Z</time>
      </trkpt>
      <trkpt lat="48.5543" lon="2.56688">
        <ele>79</ele>
        <time>2019-06-16T14:59:30Z</time>
      </trkpt>
      <trkpt lat="48.55425" lon="2.56703">
        <ele>79</ele>
        <time>2019-06-16T14:59:36Z</time>
      </trkpt>
      <trkpt lat="48.55417" lon="2.56703">
        <ele>79</ele>
        <time>2019-06-16T14:59:38Z</time>
      </trkpt>
      <trkpt lat="48.55378" lon="2.56707">
        <ele>79</ele>
        <time>2019-06-16T14:59:48Z</time>
      </trkpt>
      <trkpt lat="48.55356" lon="2.56719">
        <ele>79</ele>
        <time>2019-06-16T14:59:53Z</time>
      </trkpt>
      <trkpt lat="48.55316" lon="2.56739">
        <ele>79</ele>
        <time>2019-06-16T15:00:02Z</time>
      </trkpt>
      <trkpt lat="48.55284" lon="2.56749">
        <ele>78</ele>
        <time>2019-06-16T15:00:09Z</time>
      </trkpt>
      <trkpt lat="48.55257" lon="2.56757">
        <ele>78</ele>
        <time>2019-06-16T15:00:15Z</time>
      </trkpt>
      <trkpt lat="48.55234" lon="2.56763">
        <ele>78</ele>
        <time>2019-06-16T15:00:23Z</time>
      </trkpt>
      <trkpt lat="48.5524" lon="2.56762">
        <ele>78</ele>
        <time>2019-06-16T15:00:29Z</time>
      </trkpt>
      <trkpt lat="48.5524" lon="2.56766">
        <ele>78</ele>
        <time>2019-06-16T15:00:31Z</time>
      </trkpt>
      <trkpt lat="48.55239" lon="2.56782">
        <ele>79</ele>
        <time>2019-06-16T15:00:37Z</time>
      </trkpt>
      <trkpt lat="48.55237" lon="2.56801">
        <ele>79</ele>
        <time>2019-06-16T15:00:43Z</time>
      </trkpt>
      <trkpt lat="48.55233" lon="2.56822">
        <ele>80</ele>
        <time>2019-06-16T15:00:51Z</time>
      </trkpt>
      <trkpt lat="48.5523" lon="2.56824">
        <ele>80</ele>
        <time>2019-06-16T15:00:52Z</time>
      </trkpt>
      <trkpt lat="48.55217" lon="2.56835">
        <ele>82</ele>
        <time>2019-06-16T15:00:57Z</time>
      </trkpt>
      <trkpt lat="48.55191" lon="2.56843">
        <ele>82</ele>
        <time>2019-06-16T15:01:06Z</time>
      </trkpt>
      <trkpt lat="48.55174" lon="2.56848">
        <ele>82</ele>
        <time>2019-06-16T15:01:12Z</time>
      </trkpt>
      <trkpt lat="48.5516" lon="2.56851">
        <ele>82</ele>
        <time>2019-06-16T15:01:17Z</time>
      </trkpt>
      <trkpt lat="48.55145" lon="2.56859">
        <ele>82</ele>
        <time>2019-06-16T15:01:23Z</time>
      </trkpt>
      <trkpt lat="48.55132" lon="2.56873">
        <ele>82</ele>
        <time>2019-06-16T15:01:33Z</time>
      </trkpt>
      <trkpt lat="48.5513" lon="2.56872">
        <ele>82</ele>
        <time>2019-06-16T15:01:51Z</time>
      </trkpt>
      <trkpt lat="48.55118" lon="2.56883">
        <ele>82</ele>
        <time>2019-06-16T15:02:02Z</time>
      </trkpt>
      <trkpt lat="48.5511" lon="2.56895">
        <ele>82</ele>
        <time>2019-06-16T15:02:06Z</time>
      </trkpt>
      <trkpt lat="48.55116" lon="2.56924">
        <ele>83</ele>
        <time>2019-06-16T15:02:15Z</time>
      </trkpt>
      <trkpt lat="48.55136" lon="2.56937">
        <ele>83</ele>
        <time>2019-06-16T15:02:22Z</time>
      </trkpt>
      <trkpt lat="48.55146" lon="2.56969">
        <ele>83</ele>
        <time>2019-06-16T15:02:30Z</time>
      </trkpt>
      <trkpt lat="48.55178" lon="2.57007">
        <ele>83</ele>
        <time>2019-06-16T15:02:41Z</time>
      </trkpt>
      <trkpt lat="48.55203" lon="2.57006">
        <ele>82</ele>
        <time>2019-06-16T15:02:49Z</time>
      </trkpt>
      <trkpt lat="48.55238" lon="2.56976">
        <ele>83</ele>
        <time>2019-06-16T15:02:59Z</time>
      </trkpt>
      <trkpt lat="48.55243" lon="2.56969">
        <ele>83</ele>
        <time>2019-06-16T15:03:01Z</time>
      </trkpt>
      <trkpt lat="48.55258" lon="2.56954">
        <ele>83</ele>
        <time>2019-06-16T15:03:07Z</time>
      </trkpt>
      <trkpt lat="48.5527" lon="2.56972">
        <ele>82</ele>
        <time>2019-06-16T15:03:15Z</time>
      </trkpt>
      <trkpt lat="48.55272" lon="2.56977">
        <ele>82</ele>
        <time>2019-06-16T15:03:16Z</time>
      </trkpt>
      <trkpt lat="48.55287" lon="2.57009">
        <ele>82</ele>
        <time>2019-06-16T15:03:23Z</time>
      </trkpt>
      <trkpt lat="48.55293" lon="2.57028">
        <ele>82</ele>
        <time>2019-06-16T15:03:27Z</time>
      </trkpt>
      <trkpt lat="48.55303" lon="2.57069">
        <ele>82</ele>
        <time>2019-06-16T15:03:36Z</time>
      </trkpt>
      <trkpt lat="48.55322" lon="2.57118">
        <ele>83</ele>
        <time>2019-06-16T15:03:46Z</time>
      </trkpt>
      <trkpt lat="48.55339" lon="2.57179">
        <ele>84</ele>
        <time>2019-06-16T15:03:56Z</time>
      </trkpt>
      <trkpt lat="48.55349" lon="2.57227">
        <ele>84</ele>
        <time>2019-06-16T15:04:04Z</time>
      </trkpt>
      <trkpt lat="48.55356" lon="2.57256">
        <ele>84</ele>
        <time>2019-06-16T15:04:13Z</time>
      </trkpt>
      <trkpt lat="48.55358" lon="2.5726">
        <ele>84</ele>
        <time>2019-06-16T15:04:14Z</time>
      </trkpt>
      <trkpt lat="48.55362" lon="2.57267">
        <ele>84</ele>
        <time>2019-06-16T15:04:16Z</time>
      </trkpt>
      <trkpt lat="48.55373" lon="2.57313">
        <ele>84</ele>
        <time>2019-06-16T15:04:26Z</time>
      </trkpt>
      <trkpt lat="48.5537" lon="2.57339">
        <ele>83</ele>
        <time>2019-06-16T15:04:31Z</time>
      </trkpt>
      <trkpt lat="48.55365" lon="2.57363">
        <ele>83</ele>
        <time>2019-06-16T15:04:37Z</time>
      </trkpt>
      <trkpt lat="48.55353" lon="2.57404">
        <ele>82</ele>
        <time>2019-06-16T15:04:46Z</time>
      </trkpt>
      <trkpt lat="48.5535" lon="2.57411">
        <ele>82</ele>
        <time>2019-06-16T15:04:48Z</time>
      </trkpt>
      <trkpt lat="48.55343" lon="2.57436">
        <ele>81</ele>
        <time>2019-06-16T15:04:53Z</time>
      </trkpt>
      <trkpt lat="48.55354" lon="2.5748">
        <ele>81</ele>
        <time>2019-06-16T15:05:00Z</time>
      </trkpt>
      <trkpt lat="48.55367" lon="2.5751">
        <ele>80</ele>
        <time>2019-06-16T15:05:05Z</time>
      </trkpt>
      <trkpt lat="48.55378" lon="2.57533">
        <ele>80</ele>
        <time>2019-06-16T15:05:09Z</time>
      </trkpt>
      <trkpt lat="48.55388" lon="2.57555">
        <ele>80</ele>
        <time>2019-06-16T15:05:13Z</time>
      </trkpt>
      <trkpt lat="48.5539" lon="2.57587">
        <ele>80</ele>
        <time>2019-06-16T15:05:19Z</time>
      </trkpt>
      <trkpt lat="48.55387" lon="2.5759">
        <ele>80</ele>
        <time>2019-06-16T15:05:20Z</time>
      </trkpt>
      <trkpt lat="48.55381" lon="2.57598">
        <ele>80</ele>
        <time>2019-06-16T15:05:23Z</time>
      </trkpt>
      <trkpt lat="48.5538" lon="2.57632">
        <ele>81</ele>
        <time>2019-06-16T15:05:29Z</time>
      </trkpt>
      <trkpt lat="48.55386" lon="2.57683">
        <ele>82</ele>
        <time>2019-06-16T15:05:39Z</time>
      </trkpt>
      <trkpt lat="48.55393" lon="2.57702">
        <ele>82</ele>
        <time>2019-06-16T15:05:43Z</time>
      </trkpt>
      <trkpt lat="48.55399" lon="2.5772">
        <ele>82</ele>
        <time>2019-06-16T15:05:46Z</time>
      </trkpt>
      <trkpt lat="48.55399" lon="2.5776">
        <ele>82</ele>
        <time>2019-06-16T15:05:54Z</time>
      </trkpt>
      <trkpt lat="48.55405" lon="2.57792">
        <ele>82</ele>
        <time>2019-06-16T15:05:59Z</time>
      </trkpt>
      <trkpt lat="48.55404" lon="2.57816">
        <ele>81</ele>
        <time>2019-06-16T15:06:03Z</time>
      </trkpt>
      <trkpt lat="48.55413" lon="2.57864">
        <ele>81</ele>
        <time>2019-06-16T15:06:12Z</time>
      </trkpt>
      <trkpt lat="48.55424" lon="2.57893">
        <ele>77</ele>
        <time>2019-06-16T15:06:18Z</time>
      </trkpt>
      <trkpt lat="48.55427" lon="2.579">
        <ele>77</ele>
        <time>2019-06-16T15:06:25Z</time>
      </trkpt>
      <trkpt lat="48.55434" lon="2.57921">
        <ele>76</ele>
        <time>2019-06-16T15:06:31Z</time>
      </trkpt>
      <trkpt lat="48.55433" lon="2.57934">
        <ele>76</ele>
        <time>2019-06-16T15:06:33Z</time>
      </trkpt>
      <trkpt lat="48.55426" lon="2.58038">
        <ele>74</ele>
        <time>2019-06-16T15:06:49Z</time>
      </trkpt>
      <trkpt lat="48.55426" lon="2.58052">
        <ele>74</ele>
        <time>2019-06-16T15:06:51Z</time>
      </trkpt>
      <trkpt lat="48.55425" lon="2.58142">
        <ele>73</ele>
        <time>2019-06-16T15:07:04Z</time>
      </trkpt>
      <trkpt lat="48.55426" lon="2.58241">
        <ele>74</ele>
        <time>2019-06-16T15:07:17Z</time>
      </trkpt>
      <trkpt lat="48.55431" lon="2.58288">
        <ele>73</ele>
        <time>2019-06-16T15:07:23Z</time>
      </trkpt>
      <trkpt lat="48.55435" lon="2.58349">
        <ele>73</ele>
        <time>2019-06-16T15:07:31Z</time>
      </trkpt>
      <trkpt lat="48.55436" lon="2.58362">
        <ele>72</ele>
        <time>2019-06-16T15:07:33Z</time>
      </trkpt>
      <trkpt lat="48.55439" lon="2.58415">
        <ele>71</ele>
        <time>2019-06-16T15:07:43Z</time>
      </trkpt>
      <trkpt lat="48.55421" lon="2.58427">
        <ele>72</ele>
        <time>2019-06-16T15:07:53Z</time>
      </trkpt>
      <trkpt lat="48.55387" lon="2.58424">
        <ele>73</ele>
        <time>2019-06-16T15:08:01Z</time>
      </trkpt>
      <trkpt lat="48.55366" lon="2.58421">
        <ele>74</ele>
        <time>2019-06-16T15:08:06Z</time>
      </trkpt>
      <trkpt lat="48.55344" lon="2.58418">
        <ele>75</ele>
        <time>2019-06-16T15:08:11Z</time>
      </trkpt>
      <trkpt lat="48.55326" lon="2.58414">
        <ele>75</ele>
        <time>2019-06-16T15:08:15Z</time>
      </trkpt>
      <trkpt lat="48.55269" lon="2.58407">
        <ele>77</ele>
        <time>2019-06-16T15:08:28Z</time>
      </trkpt>
      <trkpt lat="48.55252" lon="2.58401">
        <ele>77</ele>
        <time>2019-06-16T15:08:32Z</time>
      </trkpt>
      <trkpt lat="48.55196" lon="2.58384">
        <ele>77</ele>
        <time>2019-06-16T15:08:46Z</time>
      </trkpt>
      <trkpt lat="48.5514" lon="2.58365">
        <ele>78</ele>
        <time>2019-06-16T15:09:00Z</time>
      </trkpt>
      <trkpt lat="48.55089" lon="2.58349">
        <ele>78</ele>
        <time>2019-06-16T15:09:13Z</time>
      </trkpt>
      <trkpt lat="48.55047" lon="2.58335">
        <ele>79</ele>
        <time>2019-06-16T15:09:24Z</time>
      </trkpt>
      <trkpt lat="48.54983" lon="2.5831">
        <ele>78</ele>
        <time>2019-06-16T15:09:40Z</time>
      </trkpt>
      <trkpt lat="48.54946" lon="2.58297">
        <ele>78</ele>
        <time>2019-06-16T15:09:49Z</time>
      </trkpt>
      <trkpt lat="48.54929" lon="2.58291">
        <ele>78</ele>
        <time>2019-06-16T15:09:54Z</time>
      </trkpt>
      <trkpt lat="48.54926" lon="2.583">
        <ele>77</ele>
        <time>2019-06-16T15:09:57Z</time>
      </trkpt>
      <trkpt lat="48.5493" lon="2.58311">
        <ele>77</ele>
        <time>2019-06-16T15:10:01Z</time>
      </trkpt>
      <trkpt lat="48.5494" lon="2.58333">
        <ele>78</ele>
        <time>2019-06-16T15:10:07Z</time>
      </trkpt>
      <trkpt lat="48.54963" lon="2.58376">
        <ele>79</ele>
        <time>2019-06-16T15:10:17Z</time>
      </trkpt>
      <trkpt lat="48.5498" lon="2.58402">
        <ele>80</ele>
        <time>2019-06-16T15:10:23Z</time>
      </trkpt>
      <trkpt lat="48.54984" lon="2.58418">
        <ele>80</ele>
        <time>2019-06-16T15:10:28Z</time>
      </trkpt>
      <trkpt lat="48.54984" lon="2.58423">
        <ele>80</ele>
        <time>2019-06-16T15:10:30Z</time>
      </trkpt>
      <trkpt lat="48.54986" lon="2.58446">
        <ele>80</ele>
        <time>2019-06-16T15:10:40Z</time>
      </trkpt>
      <trkpt lat="48.5501" lon="2.58486">
        <ele>81</ele>
        <time>2019-06-16T15:10:49Z</time>
      </trkpt>
      <trkpt lat="48.55021" lon="2.58502">
        <ele>81</ele>
        <time>2019-06-16T15:10:52Z</time>
      </trkpt>
      <trkpt lat="48.55034" lon="2.58533">
        <ele>82</ele>
        <time>2019-06-16T15:10:58Z</time>
      </trkpt>
      <trkpt lat="48.55053" lon="2.5856">
        <ele>82</ele>
        <time>2019-06-16T15:11:03Z</time>
      </trkpt>
      <trkpt lat="48.55067" lon="2.58578">
        <ele>82</ele>
        <time>2019-06-16T15:11:06Z</time>
      </trkpt>
      <trkpt lat="48.55081" lon="2.58602">
        <ele>82</ele>
        <time>2019-06-16T15:11:10Z</time>
      </trkpt>
      <trkpt lat="48.55118" lon="2.58651">
        <ele>81</ele>
        <time>2019-06-16T15:11:20Z</time>
      </trkpt>
      <trkpt lat="48.55124" lon="2.58661">
        <ele>81</ele>
        <time>2019-06-16T15:11:22Z</time>
      </trkpt>
      <trkpt lat="48.55145" lon="2.58691">
        <ele>81</ele>
        <time>2019-06-16T15:11:31Z</time>
      </trkpt>
      <trkpt lat="48.55147" lon="2.58694">
        <ele>81</ele>
        <time>2019-06-16T15:11:33Z</time>
      </trkpt>
      <trkpt lat="48.55144" lon="2.58699">
        <ele>81</ele>
        <time>2019-06-16T15:11:36Z</time>
      </trkpt>
      <trkpt lat="48.55116" lon="2.5872">
        <ele>81</ele>
        <time>2019-06-16T15:11:45Z</time>
      </trkpt>
      <trkpt lat="48.55092" lon="2.58738">
        <ele>81</ele>
        <time>2019-06-16T15:11:53Z</time>
      </trkpt>
      <trkpt lat="48.55082" lon="2.58749">
        <ele>81</ele>
        <time>2019-06-16T15:11:56Z</time>
      </trkpt>
      <trkpt lat="48.55058" lon="2.58767">
        <ele>80</ele>
        <time>2019-06-16T15:12:05Z</time>
      </trkpt>
      <trkpt lat="48.55028" lon="2.58783">
        <ele>80</ele>
        <time>2019-06-16T15:12:13Z</time>
      </trkpt>
      <trkpt lat="48.54987" lon="2.58812">
        <ele>79</ele>
        <time>2019-06-16T15:12:23Z</time>
      </trkpt>
      <trkpt lat="48.54979" lon="2.58817">
        <ele>79</ele>
        <time>2019-06-16T15:12:25Z</time>
      </trkpt>
      <trkpt lat="48.54966" lon="2.58831">
        <ele>79</ele>
        <time>2019-06-16T15:12:30Z</time>
      </trkpt>
      <trkpt lat="48.54935" lon="2.58857">
        <ele>78</ele>
        <time>2019-06-16T15:12:38Z</time>
      </trkpt>
      <trkpt lat="48.54899" lon="2.58882">
        <ele>78</ele>
        <time>2019-06-16T15:12:47Z</time>
      </trkpt>
      <trkpt lat="48.54866" lon="2.58909">
        <ele>78</ele>
        <time>2019-06-16T15:12:56Z</time>
      </trkpt>
      <trkpt lat="48.54853" lon="2.58916">
        <ele>78</ele>
        <time>2019-06-16T15:12:59Z</time>
      </trkpt>
      <trkpt lat="48.54842" lon="2.58916">
        <ele>77</ele>
        <time>2019-06-16T15:13:03Z</time>
      </trkpt>
      <trkpt lat="48.5483" lon="2.58921">
        <ele>77</ele>
        <time>2019-06-16T15:13:07Z</time>
      </trkpt>
      <trkpt lat="48.54815" lon="2.58942">
        <ele>78</ele>
        <time>2019-06-16T15:13:13Z</time>
      </trkpt>
      <trkpt lat="48.54819" lon="2.59">
        <ele>77</ele>
        <time>2019-06-16T15:13:23Z</time>
      </trkpt>
      <trkpt lat="48.5482" lon="2.59015">
        <ele>77</ele>
        <time>2019-06-16T15:13:26Z</time>
      </trkpt>
      <trkpt lat="48.5483" lon="2.59044">
        <ele>77</ele>
        <time>2019-06-16T15:13:32Z</time>
      </trkpt>
      <trkpt lat="48.54834" lon="2.5906">
        <ele>78</ele>
        <time>2019-06-16T15:13:35Z</time>
      </trkpt>
      <trkpt lat="48.54844" lon="2.59107">
        <ele>79</ele>
        <time>2019-06-16T15:13:44Z</time>
      </trkpt>
      <trkpt lat="48.54847" lon="2.59117">
        <ele>79</ele>
        <time>2019-06-16T15:13:46Z</time>
      </trkpt>
      <trkpt lat="48.54861" lon="2.59152">
        <ele>79</ele>
        <time>2019-06-16T15:13:53Z</time>
      </trkpt>
      <trkpt lat="48.54875" lon="2.59178">
        <ele>78</ele>
        <time>2019-06-16T15:14:01Z</time>
      </trkpt>
      <trkpt lat="48.54885" lon="2.59206">
        <ele>78</ele>
        <time>2019-06-16T15:14:09Z</time>
      </trkpt>
      <trkpt lat="48.54891" lon="2.59235">
        <ele>78</ele>
        <time>2019-06-16T15:14:16Z</time>
      </trkpt>
      <trkpt lat="48.54888" lon="2.59282">
        <ele>76</ele>
        <time>2019-06-16T15:14:29Z</time>
      </trkpt>
      <trkpt lat="48.54872" lon="2.59269">
        <ele>76</ele>
        <time>2019-06-16T15:14:38Z</time>
      </trkpt>
      <trkpt lat="48.54856" lon="2.5926">
        <ele>76</ele>
        <time>2019-06-16T15:14:43Z</time>
      </trkpt>
      <trkpt lat="48.54802" lon="2.59256">
        <ele>75</ele>
        <time>2019-06-16T15:14:57Z</time>
      </trkpt>
      <trkpt lat="48.54785" lon="2.59258">
        <ele>75</ele>
        <time>2019-06-16T15:15:01Z</time>
      </trkpt>
      <trkpt lat="48.54724" lon="2.5925">
        <ele>76</ele>
        <time>2019-06-16T15:15:15Z</time>
      </trkpt>
      <trkpt lat="48.54704" lon="2.59256">
        <ele>76</ele>
        <time>2019-06-16T15:15:21Z</time>
      </trkpt>
      <trkpt lat="48.547" lon="2.5926">
        <ele>77</ele>
        <time>2019-06-16T15:15:23Z</time>
      </trkpt>
      <trkpt lat="48.54689" lon="2.59258">
        <ele>77</ele>
        <time>2019-06-16T15:15:28Z</time>
      </trkpt>
      <trkpt lat="48.5468" lon="2.59261">
        <ele>77</ele>
        <time>2019-06-16T15:15:31Z</time>
      </trkpt>
      <trkpt lat="48.5467" lon="2.59268">
        <ele>77</ele>
        <time>2019-06-16T15:15:36Z</time>
      </trkpt>
      <trkpt lat="48.54644" lon="2.59247">
        <ele>79</ele>
        <time>2019-06-16T15:15:46Z</time>
      </trkpt>
      <trkpt lat="48.54627" lon="2.59244">
        <ele>79</ele>
        <time>2019-06-16T15:15:51Z</time>
      </trkpt>
      <trkpt lat="48.54622" lon="2.59247">
        <ele>79</ele>
        <time>2019-06-16T15:15:53Z</time>
      </trkpt>
      <trkpt lat="48.54615" lon="2.59248">
        <ele>79</ele>
        <time>2019-06-16T15:15:56Z</time>
      </trkpt>
      <trkpt lat="48.5459" lon="2.5926">
        <ele>80</ele>
        <time>2019-06-16T15:16:06Z</time>
      </trkpt>
      <trkpt lat="48.54556" lon="2.59263">
        <ele>81</ele>
        <time>2019-06-16T15:16:18Z</time>
      </trkpt>
      <trkpt lat="48.54553" lon="2.59263">
        <ele>81</ele>
        <time>2019-06-16T15:16:19Z</time>
      </trkpt>
      <trkpt lat="48.54543" lon="2.59252">
        <ele>81</ele>
        <time>2019-06-16T15:16:25Z</time>
      </trkpt>
      <trkpt lat="48.54532" lon="2.59248">
        <ele>81</ele>
        <time>2019-06-16T15:16:29Z</time>
      </trkpt>
      <trkpt lat="48.54526" lon="2.59253">
        <ele>81</ele>
        <time>2019-06-16T15:16:32Z</time>
      </trkpt>
      <trkpt lat="48.54511" lon="2.59259">
        <ele>82</ele>
        <time>2019-06-16T15:16:39Z</time>
      </trkpt>
      <trkpt lat="48.5451" lon="2.59258">
        <ele>82</ele>
        <time>2019-06-16T15:16:40Z</time>
      </trkpt>
      <trkpt lat="48.54504" lon="2.59267">
        <ele>82</ele>
        <time>2019-06-16T15:16:44Z</time>
      </trkpt>
      <trkpt lat="48.545" lon="2.59295">
        <ele>82</ele>
        <time>2019-06-16T15:16:54Z</time>
      </trkpt>
      <trkpt lat="48.54497" lon="2.5931">
        <ele>83</ele>
        <time>2019-06-16T15:16:58Z</time>
      </trkpt>
      <trkpt lat="48.54492" lon="2.5933">
        <ele>82</ele>
        <time>2019-06-16T15:17:03Z</time>
      </trkpt>
      <trkpt lat="48.54494" lon="2.59349">
        <ele>83</ele>
        <time>2019-06-16T15:17:08Z</time>
      </trkpt>
      <trkpt lat="48.54486" lon="2.59391">
        <ele>85</ele>
        <time>2019-06-16T15:17:16Z</time>
      </trkpt>
      <trkpt lat="48.54495" lon="2.59423">
        <ele>87</ele>
        <time>2019-06-16T15:17:24Z</time>
      </trkpt>
      <trkpt lat="48.54499" lon="2.5943">
        <ele>86</ele>
        <time>2019-06-16T15:17:26Z</time>
      </trkpt>
      <trkpt lat="48.54502" lon="2.59447">
        <ele>86</ele>
        <time>2019-06-16T15:17:30Z</time>
      </trkpt>
      <trkpt lat="48.54503" lon="2.5948">
        <ele>86</ele>
        <time>2019-06-16T15:17:36Z</time>
      </trkpt>
      <trkpt lat="48.54513" lon="2.59507">
        <ele>85</ele>
        <time>2019-06-16T15:17:41Z</time>
      </trkpt>
      <trkpt lat="48.54519" lon="2.59543">
        <ele>83</ele>
        <time>2019-06-16T15:17:46Z</time>
      </trkpt>
      <trkpt lat="48.54535" lon="2.59582">
        <ele>83</ele>
        <time>2019-06-16T15:17:54Z</time>
      </trkpt>
      <trkpt lat="48.54539" lon="2.59593">
        <ele>83</ele>
        <time>2019-06-16T15:17:58Z</time>
      </trkpt>
      <trkpt lat="48.54541" lon="2.59606">
        <ele>83</ele>
        <time>2019-06-16T15:18:03Z</time>
      </trkpt>
      <trkpt lat="48.54541" lon="2.59619">
        <ele>83</ele>
        <time>2019-06-16T15:18:08Z</time>
      </trkpt>
      <trkpt lat="48.54539" lon="2.59643">
        <ele>83</ele>
        <time>2019-06-16T15:18:17Z</time>
      </trkpt>
      <trkpt lat="48.5455" lon="2.59662">
        <ele>83</ele>
        <time>2019-06-16T15:18:27Z</time>
      </trkpt>
      <trkpt lat="48.54547" lon="2.59669">
        <ele>84</ele>
        <time>2019-06-16T15:18:30Z</time>
      </trkpt>
      <trkpt lat="48.5455" lon="2.59684">
        <ele>84</ele>
        <time>2019-06-16T15:18:45Z</time>
      </trkpt>
      <trkpt lat="48.54541" lon="2.59695">
        <ele>84</ele>
        <time>2019-06-16T15:18:51Z</time>
      </trkpt>
      <trkpt lat="48.54532" lon="2.59694">
        <ele>84</ele>
        <time>2019-06-16T15:18:55Z</time>
      </trkpt>
      <trkpt lat="48.54521" lon="2.59694">
        <ele>84</ele>
        <time>2019-06-16T15:18:59Z</time>
      </trkpt>
      <trkpt lat="48.54509" lon="2.59713">
        <ele>84</ele>
        <time>2019-06-16T15:19:04Z</time>
      </trkpt>
      <trkpt lat="48.54503" lon="2.59748">
        <ele>85</ele>
        <time>2019-06-16T15:19:14Z</time>
      </trkpt>
      <trkpt lat="48.54503" lon="2.59753">
        <ele>85</ele>
        <time>2019-06-16T15:19:33Z</time>
      </trkpt>
      <trkpt lat="48.54504" lon="2.59758">
        <ele>85</ele>
        <time>2019-06-16T15:19:57Z</time>
      </trkpt>
      <trkpt lat="48.54502" lon="2.59763">
        <ele>85</ele>
        <time>2019-06-16T15:20:20Z</time>
      </trkpt>
      <trkpt lat="48.54501" lon="2.59766">
        <ele>84</ele>
        <time>2019-06-16T15:20:43Z</time>
      </trkpt>
      <trkpt lat="48.54502" lon="2.59767">
        <ele>84</ele>
        <time>2019-06-16T15:21:09Z</time>
      </trkpt>
      <trkpt lat="48.54502" lon="2.59771">
        <ele>84</ele>
        <time>2019-06-16T15:21:37Z</time>
      </trkpt>
      <trkpt lat="48.54504" lon="2.5977">
        <ele>84</ele>
        <time>2019-06-16T15:22:05Z</time>
      </trkpt>
      <trkpt lat="48.54504" lon="2.59769">
        <ele>84</ele>
        <time>2019-06-16T15:22:39Z</time>
      </trkpt>
      <trkpt lat="48.54503" lon="2.59769">
        <ele>84</ele>
        <time>2019-06-16T15:23:10Z</time>
      </trkpt>
      <trkpt lat="48.54503" lon="2.5977">
        <ele>84</ele>
        <time>2019-06-16T15:23:37Z</time>
      </trkpt>
      <trkpt lat="48.54503" lon="2.5977">
        <ele>84</ele>
        <time>2019-06-16T15:24:03Z</time>
      </trkpt>
      <trkpt lat="48.54503" lon="2.5977">
        <ele>84</ele>
        <time>2019-06-16T15:24:27Z</time>
      </trkpt>
      <trkpt lat="48.54499" lon="2.59771">
        <ele>85</ele>
        <time>2019-06-16T15:24:38Z</time>
      </trkpt>
      <trkpt lat="48.54497" lon="2.59773">
        <ele>85</ele>
        <time>2019-06-16T15:25:02Z</time>
      </trkpt>
      <trkpt lat="48.54498" lon="2.59771">
        <ele>85</ele>
        <time>2019-06-16T15:25:21Z</time>
      </trkpt>
      <trkpt lat="48.54498" lon="2.59769">
        <ele>85</ele>
        <time>2019-06-16T15:25:53Z</time>
      </trkpt>
      <trkpt lat="48.54502" lon="2.59762">
        <ele>85</ele>
        <time>2019-06-16T15:26:15Z</time>
      </trkpt>
      <trkpt lat="48.545" lon="2.59762">
        <ele>85</ele>
        <time>2019-06-16T15:26:39Z</time>
      </trkpt>
      <trkpt lat="48.54499" lon="2.59762">
        <ele>85</ele>
        <time>2019-06-16T15:27:04Z</time>
      </trkpt>
      <trkpt lat="48.54499" lon="2.59764">
        <ele>85</ele>
        <time>2019-06-16T15:27:12Z</time>
      </trkpt>
      <trkpt lat="48.54493" lon="2.59775">
        <ele>85</ele>
        <time>2019-06-16T15:27:19Z</time>
      </trkpt>
      <trkpt lat="48.5449" lon="2.59792">
        <ele>84</ele>
        <time>2019-06-16T15:27:25Z</time>
      </trkpt>
      <trkpt lat="48.54489" lon="2.59801">
        <ele>84</ele>
        <time>2019-06-16T15:27:28Z</time>
      </trkpt>
      <trkpt lat="48.54482" lon="2.59834">
        <ele>84</ele>
        <time>2019-06-16T15:27:38Z</time>
      </trkpt>
      <trkpt lat="48.54479" lon="2.59854">
        <ele>84</ele>
        <time>2019-06-16T15:27:43Z</time>
      </trkpt>
      <trkpt lat="48.54475" lon="2.59883">
        <ele>84</ele>
        <time>2019-06-16T15:27:50Z</time>
      </trkpt>
      <trkpt lat="48.5447" lon="2.59899">
        <ele>84</ele>
        <time>2019-06-16T15:27:56Z</time>
      </trkpt>
      <trkpt lat="48.54464" lon="2.59932">
        <ele>85</ele>
        <time>2019-06-16T15:28:06Z</time>
      </trkpt>
      <trkpt lat="48.54456" lon="2.59973">
        <ele>85</ele>
        <time>2019-06-16T15:28:16Z</time>
      </trkpt>
      <trkpt lat="48.54454" lon="2.59982">
        <ele>85</ele>
        <time>2019-06-16T15:28:18Z</time>
      </trkpt>
      <trkpt lat="48.54445" lon="2.6001">
        <ele>84</ele>
        <time>2019-06-16T15:28:25Z</time>
      </trkpt>
      <trkpt lat="48.54443" lon="2.60017">
        <ele>84</ele>
        <time>2019-06-16T15:28:27Z</time>
      </trkpt>
      <trkpt lat="48.54444" lon="2.6004">
        <ele>83</ele>
        <time>2019-06-16T15:28:33Z</time>
      </trkpt>
      <trkpt lat="48.5446" lon="2.60055">
        <ele>83</ele>
        <time>2019-06-16T15:28:38Z</time>
      </trkpt>
      <trkpt lat="48.54474" lon="2.60069">
        <ele>82</ele>
        <time>2019-06-16T15:28:42Z</time>
      </trkpt>
      <trkpt lat="48.54493" lon="2.60084">
        <ele>81</ele>
        <time>2019-06-16T15:28:47Z</time>
      </trkpt>
      <trkpt lat="48.54539" lon="2.60124">
        <ele>81</ele>
        <time>2019-06-16T15:28:58Z</time>
      </trkpt>
      <trkpt lat="48.54577" lon="2.6016">
        <ele>81</ele>
        <time>2019-06-16T15:29:07Z</time>
      </trkpt>
      <trkpt lat="48.54585" lon="2.60167">
        <ele>81</ele>
        <time>2019-06-16T15:29:09Z</time>
      </trkpt>
      <trkpt lat="48.54617" lon="2.60192">
        <ele>81</ele>
        <time>2019-06-16T15:29:16Z</time>
      </trkpt>
      <trkpt lat="48.54663" lon="2.60234">
        <ele>81</ele>
        <time>2019-06-16T15:29:26Z</time>
      </trkpt>
      <trkpt lat="48.54696" lon="2.60266">
        <ele>82</ele>
        <time>2019-06-16T15:29:35Z</time>
      </trkpt>
      <trkpt lat="48.54701" lon="2.6027">
        <ele>82</ele>
        <time>2019-06-16T15:29:36Z</time>
      </trkpt>
      <trkpt lat="48.54709" lon="2.60277">
        <ele>82</ele>
        <time>2019-06-16T15:29:38Z</time>
      </trkpt>
      <trkpt lat="48.54729" lon="2.60291">
        <ele>82</ele>
        <time>2019-06-16T15:29:43Z</time>
      </trkpt>
      <trkpt lat="48.54761" lon="2.60324">
        <ele>80</ele>
        <time>2019-06-16T15:29:51Z</time>
      </trkpt>
      <trkpt lat="48.5483" lon="2.60374">
        <ele>77</ele>
        <time>2019-06-16T15:30:06Z</time>
      </trkpt>
      <trkpt lat="48.54905" lon="2.60437">
        <ele>75</ele>
        <time>2019-06-16T15:30:22Z</time>
      </trkpt>
      <trkpt lat="48.5499" lon="2.60508">
        <ele>74</ele>
        <time>2019-06-16T15:30:39Z</time>
      </trkpt>
      <trkpt lat="48.55096" lon="2.606">
        <ele>74</ele>
        <time>2019-06-16T15:30:59Z</time>
      </trkpt>
      <trkpt lat="48.55151" lon="2.60671">
        <ele>76</ele>
        <time>2019-06-16T15:31:12Z</time>
      </trkpt>
      <trkpt lat="48.55169" lon="2.60698">
        <ele>77</ele>
        <time>2019-06-16T15:31:18Z</time>
      </trkpt>
      <trkpt lat="48.55201" lon="2.60754">
        <ele>78</ele>
        <time>2019-06-16T15:31:31Z</time>
      </trkpt>
      <trkpt lat="48.55215" lon="2.60771">
        <ele>78</ele>
        <time>2019-06-16T15:31:35Z</time>
      </trkpt>
      <trkpt lat="48.55236" lon="2.60783">
        <ele>78</ele>
        <time>2019-06-16T15:31:39Z</time>
      </trkpt>
      <trkpt lat="48.55252" lon="2.60812">
        <ele>79</ele>
        <time>2019-06-16T15:31:45Z</time>
      </trkpt>
      <trkpt lat="48.55275" lon="2.60825">
        <ele>79</ele>
        <time>2019-06-16T15:31:51Z</time>
      </trkpt>
      <trkpt lat="48.5531" lon="2.60842">
        <ele>80</ele>
        <time>2019-06-16T15:31:59Z</time>
      </trkpt>
      <trkpt lat="48.55346" lon="2.6086">
        <ele>80</ele>
        <time>2019-06-16T15:32:07Z</time>
      </trkpt>
      <trkpt lat="48.55354" lon="2.60877">
        <ele>80</ele>
        <time>2019-06-16T15:32:11Z</time>
      </trkpt>
      <trkpt lat="48.55346" lon="2.60929">
        <ele>81</ele>
        <time>2019-06-16T15:32:20Z</time>
      </trkpt>
      <trkpt lat="48.55341" lon="2.60961">
        <ele>82</ele>
        <time>2019-06-16T15:32:25Z</time>
      </trkpt>
      <trkpt lat="48.55337" lon="2.60986">
        <ele>82</ele>
        <time>2019-06-16T15:32:29Z</time>
      </trkpt>
      <trkpt lat="48.55333" lon="2.61012">
        <ele>82</ele>
        <time>2019-06-16T15:32:33Z</time>
      </trkpt>
      <trkpt lat="48.55332" lon="2.6103">
        <ele>83</ele>
        <time>2019-06-16T15:32:36Z</time>
      </trkpt>
      <trkpt lat="48.55331" lon="2.61054">
        <ele>83</ele>
        <time>2019-06-16T15:32:41Z</time>
      </trkpt>
      <trkpt lat="48.55341" lon="2.61064">
        <ele>82</ele>
        <time>2019-06-16T15:32:45Z</time>
      </trkpt>
      <trkpt lat="48.55367" lon="2.6109">
        <ele>83</ele>
        <time>2019-06-16T15:32:52Z</time>
      </trkpt>
      <trkpt lat="48.55382" lon="2.61104">
        <ele>83</ele>
        <time>2019-06-16T15:32:56Z</time>
      </trkpt>
      <trkpt lat="48.55407" lon="2.61125">
        <ele>83</ele>
        <time>2019-06-16T15:33:03Z</time>
      </trkpt>
      <trkpt lat="48.55428" lon="2.61134">
        <ele>84</ele>
        <time>2019-06-16T15:33:08Z</time>
      </trkpt>
      <trkpt lat="48.55468" lon="2.61147">
        <ele>85</ele>
        <time>2019-06-16T15:33:17Z</time>
      </trkpt>
      <trkpt lat="48.55479" lon="2.61148">
        <ele>85</ele>
        <time>2019-06-16T15:33:19Z</time>
      </trkpt>
      <trkpt lat="48.5549" lon="2.61146">
        <ele>85</ele>
        <time>2019-06-16T15:33:21Z</time>
      </trkpt>
      <trkpt lat="48.55513" lon="2.61146">
        <ele>85</ele>
        <time>2019-06-16T15:33:26Z</time>
      </trkpt>
      <trkpt lat="48.55525" lon="2.61146">
        <ele>85</ele>
        <time>2019-06-16T15:33:29Z</time>
      </trkpt>
      <trkpt lat="48.55555" lon="2.61153">
        <ele>85</ele>
        <time>2019-06-16T15:33:37Z</time>
      </trkpt>
      <trkpt lat="48.55559" lon="2.61156">
        <ele>85</ele>
        <time>2019-06-16T15:33:38Z</time>
      </trkpt>
      <trkpt lat="48.55575" lon="2.61164">
        <ele>86</ele>
        <time>2019-06-16T15:33:42Z</time>
      </trkpt>
      <trkpt lat="48.55583" lon="2.61197">
        <ele>86</ele>
        <time>2019-06-16T15:33:49Z</time>
      </trkpt>
      <trkpt lat="48.55583" lon="2.61203">
        <ele>86</ele>
        <time>2019-06-16T15:33:50Z</time>
      </trkpt>
      <trkpt lat="48.55582" lon="2.61214">
        <ele>86</ele>
        <time>2019-06-16T15:33:52Z</time>
      </trkpt>
      <trkpt lat="48.55578" lon="2.61239">
        <ele>86</ele>
        <time>2019-06-16T15:33:56Z</time>
      </trkpt>
      <trkpt lat="48.55574" lon="2.61282">
        <ele>85</ele>
        <time>2019-06-16T15:34:03Z</time>
      </trkpt>
      <trkpt lat="48.55561" lon="2.6129">
        <ele>85</ele>
        <time>2019-06-16T15:34:10Z</time>
      </trkpt>
      <trkpt lat="48.55558" lon="2.61301">
        <ele>85</ele>
        <time>2019-06-16T15:34:13Z</time>
      </trkpt>
      <trkpt lat="48.55534" lon="2.61314">
        <ele>85</ele>
        <time>2019-06-16T15:34:21Z</time>
      </trkpt>
      <trkpt lat="48.55516" lon="2.61314">
        <ele>84</ele>
        <time>2019-06-16T15:34:25Z</time>
      </trkpt>
      <trkpt lat="48.55499" lon="2.6131">
        <ele>84</ele>
        <time>2019-06-16T15:34:29Z</time>
      </trkpt>
      <trkpt lat="48.55445" lon="2.61307">
        <ele>84</ele>
        <time>2019-06-16T15:34:40Z</time>
      </trkpt>
      <trkpt lat="48.55427" lon="2.61304">
        <ele>84</ele>
        <time>2019-06-16T15:34:44Z</time>
      </trkpt>
      <trkpt lat="48.55418" lon="2.61302">
        <ele>84</ele>
        <time>2019-06-16T15:34:46Z</time>
      </trkpt>
      <trkpt lat="48.55398" lon="2.613">
        <ele>83</ele>
        <time>2019-06-16T15:34:50Z</time>
      </trkpt>
      <trkpt lat="48.55352" lon="2.61297">
        <ele>83</ele>
        <time>2019-06-16T15:34:59Z</time>
      </trkpt>
      <trkpt lat="48.55332" lon="2.61296">
        <ele>84</ele>
        <time>2019-06-16T15:35:03Z</time>
      </trkpt>
      <trkpt lat="48.55311" lon="2.61295">
        <ele>85</ele>
        <time>2019-06-16T15:35:08Z</time>
      </trkpt>
      <trkpt lat="48.55302" lon="2.61316">
        <ele>85</ele>
        <time>2019-06-16T15:35:14Z</time>
      </trkpt>
      <trkpt lat="48.55301" lon="2.61329">
        <ele>85</ele>
        <time>2019-06-16T15:35:16Z</time>
      </trkpt>
      <trkpt lat="48.55298" lon="2.6139">
        <ele>83</ele>
        <time>2019-06-16T15:35:25Z</time>
      </trkpt>
      <trkpt lat="48.55296" lon="2.61424">
        <ele>82</ele>
        <time>2019-06-16T15:35:30Z</time>
      </trkpt>
      <trkpt lat="48.55291" lon="2.61448">
        <ele>82</ele>
        <time>2019-06-16T15:35:34Z</time>
      </trkpt>
      <trkpt lat="48.55282" lon="2.61459">
        <ele>82</ele>
        <time>2019-06-16T15:35:37Z</time>
      </trkpt>
      <trkpt lat="48.55257" lon="2.61478">
        <ele>83</ele>
        <time>2019-06-16T15:35:46Z</time>
      </trkpt>
      <trkpt lat="48.55245" lon="2.61486">
        <ele>84</ele>
        <time>2019-06-16T15:35:49Z</time>
      </trkpt>
      <trkpt lat="48.55231" lon="2.61519">
        <ele>85</ele>
        <time>2019-06-16T15:35:55Z</time>
      </trkpt>
      <trkpt lat="48.55227" lon="2.61555">
        <ele>86</ele>
        <time>2019-06-16T15:36:02Z</time>
      </trkpt>
      <trkpt lat="48.55225" lon="2.61602">
        <ele>87</ele>
        <time>2019-06-16T15:36:12Z</time>
      </trkpt>
      <trkpt lat="48.55222" lon="2.61616">
        <ele>87</ele>
        <time>2019-06-16T15:36:15Z</time>
      </trkpt>
      <trkpt lat="48.55219" lon="2.61668">
        <ele>89</ele>
        <time>2019-06-16T15:36:25Z</time>
      </trkpt>
      <trkpt lat="48.55197" lon="2.61703">
        <ele>90</ele>
        <time>2019-06-16T15:36:36Z</time>
      </trkpt>
      <trkpt lat="48.55178" lon="2.61729">
        <ele>91</ele>
        <time>2019-06-16T15:36:45Z</time>
      </trkpt>
      <trkpt lat="48.55176" lon="2.61733">
        <ele>91</ele>
        <time>2019-06-16T15:36:46Z</time>
      </trkpt>
      <trkpt lat="48.55155" lon="2.61764">
        <ele>93</ele>
        <time>2019-06-16T15:36:56Z</time>
      </trkpt>
      <trkpt lat="48.55146" lon="2.61781">
        <ele>94</ele>
        <time>2019-06-16T15:37:02Z</time>
      </trkpt>
      <trkpt lat="48.5514" lon="2.6177">
        <ele>94</ele>
        <time>2019-06-16T15:37:06Z</time>
      </trkpt>
      <trkpt lat="48.55142" lon="2.61734">
        <ele>92</ele>
        <time>2019-06-16T15:37:13Z</time>
      </trkpt>
      <trkpt lat="48.55144" lon="2.61695">
        <ele>92</ele>
        <time>2019-06-16T15:37:21Z</time>
      </trkpt>
      <trkpt lat="48.55143" lon="2.61666">
        <ele>90</ele>
        <time>2019-06-16T15:37:26Z</time>
      </trkpt>
      <trkpt lat="48.55138" lon="2.61638">
        <ele>89</ele>
        <time>2019-06-16T15:37:30Z</time>
      </trkpt>
      <trkpt lat="48.55135" lon="2.61605">
        <ele>89</ele>
        <time>2019-06-16T15:37:34Z</time>
      </trkpt>
      <trkpt lat="48.55138" lon="2.61588">
        <ele>89</ele>
        <time>2019-06-16T15:37:36Z</time>
      </trkpt>
      <trkpt lat="48.55156" lon="2.61549">
        <ele>88</ele>
        <time>2019-06-16T15:37:41Z</time>
      </trkpt>
      <trkpt lat="48.5516" lon="2.61523">
        <ele>87</ele>
        <time>2019-06-16T15:37:44Z</time>
      </trkpt>
      <trkpt lat="48.55166" lon="2.61498">
        <ele>87</ele>
        <time>2019-06-16T15:37:47Z</time>
      </trkpt>
      <trkpt lat="48.55161" lon="2.61442">
        <ele>84</ele>
        <time>2019-06-16T15:37:54Z</time>
      </trkpt>
      <trkpt lat="48.5516" lon="2.61426">
        <ele>84</ele>
        <time>2019-06-16T15:37:56Z</time>
      </trkpt>
      <trkpt lat="48.55143" lon="2.6139">
        <ele>84</ele>
        <time>2019-06-16T15:38:02Z</time>
      </trkpt>
      <trkpt lat="48.55132" lon="2.61369">
        <ele>84</ele>
        <time>2019-06-16T15:38:06Z</time>
      </trkpt>
      <trkpt lat="48.55118" lon="2.61349">
        <ele>84</ele>
        <time>2019-06-16T15:38:10Z</time>
      </trkpt>
      <trkpt lat="48.55104" lon="2.61337">
        <ele>84</ele>
        <time>2019-06-16T15:38:14Z</time>
      </trkpt>
      <trkpt lat="48.55094" lon="2.61323">
        <ele>84</ele>
        <time>2019-06-16T15:38:18Z</time>
      </trkpt>
      <trkpt lat="48.55061" lon="2.61288">
        <ele>80</ele>
        <time>2019-06-16T15:38:27Z</time>
      </trkpt>
      <trkpt lat="48.55047" lon="2.61306">
        <ele>80</ele>
        <time>2019-06-16T15:38:33Z</time>
      </trkpt>
      <trkpt lat="48.55038" lon="2.61343">
        <ele>80</ele>
        <time>2019-06-16T15:38:41Z</time>
      </trkpt>
      <trkpt lat="48.55035" lon="2.6137">
        <ele>80</ele>
        <time>2019-06-16T15:38:46Z</time>
      </trkpt>
      <trkpt lat="48.5504" lon="2.61425">
        <ele>81</ele>
        <time>2019-06-16T15:38:56Z</time>
      </trkpt>
      <trkpt lat="48.55034" lon="2.61442">
        <ele>81</ele>
        <time>2019-06-16T15:39:00Z</time>
      </trkpt>
      <trkpt lat="48.5503" lon="2.61451">
        <ele>81</ele>
        <time>2019-06-16T15:39:02Z</time>
      </trkpt>
      <trkpt lat="48.5503" lon="2.61472">
        <ele>81</ele>
        <time>2019-06-16T15:39:07Z</time>
      </trkpt>
      <trkpt lat="48.55028" lon="2.61501">
        <ele>82</ele>
        <time>2019-06-16T15:39:13Z</time>
      </trkpt>
      <trkpt lat="48.55028" lon="2.61516">
        <ele>82</ele>
        <time>2019-06-16T15:39:16Z</time>
      </trkpt>
      <trkpt lat="48.55029" lon="2.61533">
        <ele>82</ele>
        <time>2019-06-16T15:39:20Z</time>
      </trkpt>
      <trkpt lat="48.55026" lon="2.61566">
        <ele>81</ele>
        <time>2019-06-16T15:39:27Z</time>
      </trkpt>
      <trkpt lat="48.55024" lon="2.61611">
        <ele>82</ele>
        <time>2019-06-16T15:39:36Z</time>
      </trkpt>
      <trkpt lat="48.55025" lon="2.61616">
        <ele>82</ele>
        <time>2019-06-16T15:39:37Z</time>
      </trkpt>
      <trkpt lat="48.55031" lon="2.61639">
        <ele>83</ele>
        <time>2019-06-16T15:39:46Z</time>
      </trkpt>
      <trkpt lat="48.55024" lon="2.61668">
        <ele>84</ele>
        <time>2019-06-16T15:39:54Z</time>
      </trkpt>
      <trkpt lat="48.5502" lon="2.61708">
        <ele>85</ele>
        <time>2019-06-16T15:40:01Z</time>
      </trkpt>
      <trkpt lat="48.55021" lon="2.61738">
        <ele>86</ele>
        <time>2019-06-16T15:40:06Z</time>
      </trkpt>
      <trkpt lat="48.55029" lon="2.61788">
        <ele>89</ele>
        <time>2019-06-16T15:40:16Z</time>
      </trkpt>
      <trkpt lat="48.55026" lon="2.61799">
        <ele>89</ele>
        <time>2019-06-16T15:40:20Z</time>
      </trkpt>
      <trkpt lat="48.55022" lon="2.61809">
        <ele>88</ele>
        <time>2019-06-16T15:40:22Z</time>
      </trkpt>
      <trkpt lat="48.55015" lon="2.61828">
        <ele>88</ele>
        <time>2019-06-16T15:40:26Z</time>
      </trkpt>
      <trkpt lat="48.55014" lon="2.61888">
        <ele>88</ele>
        <time>2019-06-16T15:40:36Z</time>
      </trkpt>
      <trkpt lat="48.55015" lon="2.61917">
        <ele>86</ele>
        <time>2019-06-16T15:40:41Z</time>
      </trkpt>
      <trkpt lat="48.55018" lon="2.61964">
        <ele>86</ele>
        <time>2019-06-16T15:40:48Z</time>
      </trkpt>
      <trkpt lat="48.55019" lon="2.61992">
        <ele>85</ele>
        <time>2019-06-16T15:40:52Z</time>
      </trkpt>
      <trkpt lat="48.55035" lon="2.62002">
        <ele>85</ele>
        <time>2019-06-16T15:40:58Z</time>
      </trkpt>
      <trkpt lat="48.5506" lon="2.62004">
        <ele>87</ele>
        <time>2019-06-16T15:41:04Z</time>
      </trkpt>
      <trkpt lat="48.55096" lon="2.62009">
        <ele>90</ele>
        <time>2019-06-16T15:41:14Z</time>
      </trkpt>
      <trkpt lat="48.55123" lon="2.62012">
        <ele>90</ele>
        <time>2019-06-16T15:41:23Z</time>
      </trkpt>
      <trkpt lat="48.55151" lon="2.62016">
        <ele>91</ele>
        <time>2019-06-16T15:41:30Z</time>
      </trkpt>
      <trkpt lat="48.55185" lon="2.62016">
        <ele>91</ele>
        <time>2019-06-16T15:41:37Z</time>
      </trkpt>
      <trkpt lat="48.55201" lon="2.62013">
        <ele>91</ele>
        <time>2019-06-16T15:41:41Z</time>
      </trkpt>
      <trkpt lat="48.55218" lon="2.61996">
        <ele>91</ele>
        <time>2019-06-16T15:41:45Z</time>
      </trkpt>
      <trkpt lat="48.55229" lon="2.61963">
        <ele>91</ele>
        <time>2019-06-16T15:41:50Z</time>
      </trkpt>
      <trkpt lat="48.55234" lon="2.61948">
        <ele>91</ele>
        <time>2019-06-16T15:41:52Z</time>
      </trkpt>
      <trkpt lat="48.55247" lon="2.61919">
        <ele>90</ele>
        <time>2019-06-16T15:41:56Z</time>
      </trkpt>
      <trkpt lat="48.55263" lon="2.6187">
        <ele>88</ele>
        <time>2019-06-16T15:42:02Z</time>
      </trkpt>
      <trkpt lat="48.55278" lon="2.61834">
        <ele>88</ele>
        <time>2019-06-16T15:42:07Z</time>
      </trkpt>
      <trkpt lat="48.553" lon="2.61758">
        <ele>85</ele>
        <time>2019-06-16T15:42:19Z</time>
      </trkpt>
      <trkpt lat="48.55314" lon="2.6174">
        <ele>84</ele>
        <time>2019-06-16T15:42:25Z</time>
      </trkpt>
      <trkpt lat="48.55321" lon="2.6173">
        <ele>84</ele>
        <time>2019-06-16T15:42:30Z</time>
      </trkpt>
      <trkpt lat="48.5536" lon="2.61743">
        <ele>83</ele>
        <time>2019-06-16T15:42:41Z</time>
      </trkpt>
      <trkpt lat="48.55395" lon="2.61739">
        <ele>83</ele>
        <time>2019-06-16T15:42:50Z</time>
      </trkpt>
      <trkpt lat="48.55427" lon="2.61738">
        <ele>84</ele>
        <time>2019-06-16T15:42:58Z</time>
      </trkpt>
      <trkpt lat="48.55436" lon="2.6173">
        <ele>84</ele>
        <time>2019-06-16T15:43:00Z</time>
      </trkpt>
      <trkpt lat="48.5545" lon="2.61708">
        <ele>84</ele>
        <time>2019-06-16T15:43:04Z</time>
      </trkpt>
      <trkpt lat="48.55457" lon="2.61699">
        <ele>84</ele>
        <time>2019-06-16T15:43:06Z</time>
      </trkpt>
      <trkpt lat="48.55471" lon="2.61654">
        <ele>83</ele>
        <time>2019-06-16T15:43:15Z</time>
      </trkpt>
      <trkpt lat="48.55473" lon="2.6165">
        <ele>83</ele>
        <time>2019-06-16T15:43:16Z</time>
      </trkpt>
      <trkpt lat="48.55484" lon="2.61641">
        <ele>83</ele>
        <time>2019-06-16T15:43:19Z</time>
      </trkpt>
      <trkpt lat="48.55504" lon="2.61634">
        <ele>85</ele>
        <time>2019-06-16T15:43:24Z</time>
      </trkpt>
      <trkpt lat="48.5552" lon="2.61637">
        <ele>85</ele>
        <time>2019-06-16T15:43:28Z</time>
      </trkpt>
      <trkpt lat="48.55531" lon="2.61642">
        <ele>85</ele>
        <time>2019-06-16T15:43:31Z</time>
      </trkpt>
      <trkpt lat="48.55538" lon="2.61659">
        <ele>85</ele>
        <time>2019-06-16T15:43:35Z</time>
      </trkpt>
      <trkpt lat="48.55542" lon="2.6167">
        <ele>86</ele>
        <time>2019-06-16T15:43:37Z</time>
      </trkpt>
      <trkpt lat="48.55554" lon="2.61724">
        <ele>86</ele>
        <time>2019-06-16T15:43:47Z</time>
      </trkpt>
      <trkpt lat="48.55567" lon="2.6174">
        <ele>87</ele>
        <time>2019-06-16T15:43:51Z</time>
      </trkpt>
      <trkpt lat="48.55603" lon="2.61748">
        <ele>86</ele>
        <time>2019-06-16T15:44:00Z</time>
      </trkpt>
      <trkpt lat="48.55611" lon="2.61752">
        <ele>87</ele>
        <time>2019-06-16T15:44:02Z</time>
      </trkpt>
      <trkpt lat="48.55631" lon="2.61716">
        <ele>86</ele>
        <time>2019-06-16T15:44:11Z</time>
      </trkpt>
      <trkpt lat="48.55633" lon="2.61702">
        <ele>86</ele>
        <time>2019-06-16T15:44:13Z</time>
      </trkpt>
      <trkpt lat="48.55641" lon="2.61663">
        <ele>85</ele>
        <time>2019-06-16T15:44:19Z</time>
      </trkpt>
      <trkpt lat="48.55646" lon="2.61619">
        <ele>85</ele>
        <time>2019-06-16T15:44:25Z</time>
      </trkpt>
      <trkpt lat="48.55652" lon="2.61591">
        <ele>85</ele>
        <time>2019-06-16T15:44:29Z</time>
      </trkpt>
      <trkpt lat="48.55654" lon="2.61577">
        <ele>84</ele>
        <time>2019-06-16T15:44:31Z</time>
      </trkpt>
      <trkpt lat="48.55655" lon="2.61562">
        <ele>84</ele>
        <time>2019-06-16T15:44:33Z</time>
      </trkpt>
      <trkpt lat="48.55665" lon="2.61547">
        <ele>84</ele>
        <time>2019-06-16T15:44:37Z</time>
      </trkpt>
      <trkpt lat="48.55673" lon="2.6155">
        <ele>83</ele>
        <time>2019-06-16T15:44:39Z</time>
      </trkpt>
      <trkpt lat="48.55689" lon="2.61553">
        <ele>83</ele>
        <time>2019-06-16T15:44:43Z</time>
      </trkpt>
      <trkpt lat="48.55702" lon="2.61558">
        <ele>83</ele>
        <time>2019-06-16T15:44:46Z</time>
      </trkpt>
      <trkpt lat="48.55716" lon="2.61562">
        <ele>84</ele>
        <time>2019-06-16T15:44:49Z</time>
      </trkpt>
      <trkpt lat="48.55741" lon="2.61563">
        <ele>84</ele>
        <time>2019-06-16T15:44:54Z</time>
      </trkpt>
      <trkpt lat="48.55772" lon="2.6156">
        <ele>84</ele>
        <time>2019-06-16T15:45:00Z</time>
      </trkpt>
      <trkpt lat="48.5579" lon="2.61535">
        <ele>84</ele>
        <time>2019-06-16T15:45:05Z</time>
      </trkpt>
      <trkpt lat="48.55797" lon="2.61506">
        <ele>83</ele>
        <time>2019-06-16T15:45:09Z</time>
      </trkpt>
      <trkpt lat="48.55801" lon="2.61436">
        <ele>82</ele>
        <time>2019-06-16T15:45:18Z</time>
      </trkpt>
      <trkpt lat="48.55803" lon="2.61384">
        <ele>83</ele>
        <time>2019-06-16T15:45:25Z</time>
      </trkpt>
      <trkpt lat="48.55802" lon="2.61355">
        <ele>84</ele>
        <time>2019-06-16T15:45:29Z</time>
      </trkpt>
      <trkpt lat="48.55802" lon="2.61331">
        <ele>85</ele>
        <time>2019-06-16T15:45:33Z</time>
      </trkpt>
      <trkpt lat="48.55817" lon="2.61313">
        <ele>85</ele>
        <time>2019-06-16T15:45:40Z</time>
      </trkpt>
      <trkpt lat="48.55836" lon="2.61318">
        <ele>86</ele>
        <time>2019-06-16T15:45:46Z</time>
      </trkpt>
      <trkpt lat="48.55867" lon="2.61359">
        <ele>86</ele>
        <time>2019-06-16T15:45:54Z</time>
      </trkpt>
      <trkpt lat="48.55877" lon="2.61374">
        <ele>86</ele>
        <time>2019-06-16T15:45:59Z</time>
      </trkpt>
      <trkpt lat="48.55903" lon="2.6143">
        <ele>86</ele>
        <time>2019-06-16T15:46:13Z</time>
      </trkpt>
      <trkpt lat="48.55921" lon="2.61486">
        <ele>88</ele>
        <time>2019-06-16T15:46:24Z</time>
      </trkpt>
      <trkpt lat="48.55934" lon="2.61546">
        <ele>87</ele>
        <time>2019-06-16T15:46:36Z</time>
      </trkpt>
      <trkpt lat="48.55944" lon="2.61553">
        <ele>87</ele>
        <time>2019-06-16T15:46:40Z</time>
      </trkpt>
      <trkpt lat="48.55963" lon="2.61543">
        <ele>88</ele>
        <time>2019-06-16T15:46:46Z</time>
      </trkpt>
      <trkpt lat="48.55979" lon="2.6157">
        <ele>88</ele>
        <time>2019-06-16T15:46:55Z</time>
      </trkpt>
      <trkpt lat="48.55978" lon="2.61589">
        <ele>87</ele>
        <time>2019-06-16T15:46:58Z</time>
      </trkpt>
      <trkpt lat="48.55982" lon="2.61632">
        <ele>87</ele>
        <time>2019-06-16T15:47:05Z</time>
      </trkpt>
      <trkpt lat="48.55991" lon="2.61653">
        <ele>87</ele>
        <time>2019-06-16T15:47:09Z</time>
      </trkpt>
      <trkpt lat="48.56007" lon="2.61719">
        <ele>87</ele>
        <time>2019-06-16T15:47:22Z</time>
      </trkpt>
      <trkpt lat="48.56007" lon="2.6172">
        <ele>87</ele>
        <time>2019-06-16T15:47:24Z</time>
      </trkpt>
      <trkpt lat="48.56017" lon="2.61759">
        <ele>87</ele>
        <time>2019-06-16T15:47:35Z</time>
      </trkpt>
      <trkpt lat="48.56027" lon="2.61782">
        <ele>87</ele>
        <time>2019-06-16T15:47:41Z</time>
      </trkpt>
      <trkpt lat="48.56038" lon="2.61827">
        <ele>88</ele>
        <time>2019-06-16T15:47:51Z</time>
      </trkpt>
      <trkpt lat="48.56038" lon="2.61831">
        <ele>88</ele>
        <time>2019-06-16T15:47:52Z</time>
      </trkpt>
      <trkpt lat="48.56053" lon="2.61865">
        <ele>87</ele>
        <time>2019-06-16T15:48:00Z</time>
      </trkpt>
      <trkpt lat="48.56054" lon="2.61881">
        <ele>87</ele>
        <time>2019-06-16T15:48:03Z</time>
      </trkpt>
      <trkpt lat="48.56042" lon="2.61921">
        <ele>86</ele>
        <time>2019-06-16T15:48:12Z</time>
      </trkpt>
      <trkpt lat="48.56042" lon="2.61934">
        <ele>86</ele>
        <time>2019-06-16T15:48:21Z</time>
      </trkpt>
      <trkpt lat="48.56044" lon="2.61935">
        <ele>86</ele>
        <time>2019-06-16T15:48:49Z</time>
      </trkpt>
      <trkpt lat="48.56045" lon="2.61934">
        <ele>86</ele>
        <time>2019-06-16T15:49:23Z</time>
      </trkpt>
      <trkpt lat="48.56045" lon="2.61934">
        <ele>86</ele>
        <time>2019-06-16T15:49:48Z</time>
      </trkpt>
      <trkpt lat="48.56045" lon="2.61936">
        <ele>86</ele>
        <time>2019-06-16T15:50:16Z</time>
      </trkpt>
      <trkpt lat="48.56046" lon="2.61936">
        <ele>86</ele>
        <time>2019-06-16T15:50:44Z</time>
      </trkpt>
      <trkpt lat="48.56045" lon="2.61938">
        <ele>86</ele>
        <time>2019-06-16T15:51:10Z</time>
      </trkpt>
      <trkpt lat="48.56044" lon="2.61938">
        <ele>86</ele>
        <time>2019-06-16T15:51:38Z</time>
      </trkpt>
      <trkpt lat="48.56045" lon="2.61939">
        <ele>86</ele>
        <time>2019-06-16T15:52:08Z</time>
      </trkpt>
      <trkpt lat="48.56045" lon="2.6194">
        <ele>86</ele>
        <time>2019-06-16T15:52:43Z</time>
      </trkpt>
      <trkpt lat="48.56047" lon="2.61942">
        <ele>86</ele>
        <time>2019-06-16T15:53:08Z</time>
      </trkpt>
      <trkpt lat="48.56047" lon="2.61942">
        <ele>86</ele>
        <time>2019-06-16T15:53:33Z</time>
      </trkpt>
      <trkpt lat="48.56047" lon="2.61942">
        <ele>86</ele>
        <time>2019-06-16T15:54:02Z</time>
      </trkpt>
      <trkpt lat="48.56047" lon="2.61943">
        <ele>86</ele>
        <time>2019-06-16T15:54:26Z</time>
      </trkpt>
      <trkpt lat="48.56046" lon="2.61943">
        <ele>86</ele>
        <time>2019-06-16T15:54:50Z</time>
      </trkpt>
      <trkpt lat="48.56046" lon="2.6194">
        <ele>86</ele>
        <time>2019-06-16T15:55:19Z</time>
      </trkpt>
      <trkpt lat="48.56046" lon="2.6194">
        <ele>86</ele>
        <time>2019-06-16T15:55:45Z</time>
      </trkpt>
      <trkpt lat="48.56046" lon="2.6194">
        <ele>86</ele>
        <time>2019-06-16T15:55:46Z</time>
      </trkpt>
      <trkpt lat="48.56045" lon="2.61942">
        <ele>86</ele>
        <time>2019-06-16T15:55:48Z</time>
      </trkpt>
      <trkpt lat="48.56041" lon="2.61953">
        <ele>86</ele>
        <time>2019-06-16T15:55:52Z</time>
      </trkpt>
      <trkpt lat="48.56027" lon="2.62005">
        <ele>87</ele>
        <time>2019-06-16T15:56:03Z</time>
      </trkpt>
      <trkpt lat="48.56013" lon="2.62045">
        <ele>88</ele>
        <time>2019-06-16T15:56:13Z</time>
      </trkpt>
      <trkpt lat="48.56005" lon="2.62052">
        <ele>88</ele>
        <time>2019-06-16T15:56:22Z</time>
      </trkpt>
      <trkpt lat="48.56003" lon="2.62056">
        <ele>88</ele>
        <time>2019-06-16T15:56:24Z</time>
      </trkpt>
      <trkpt lat="48.56" lon="2.62059">
        <ele>89</ele>
        <time>2019-06-16T15:56:27Z</time>
      </trkpt>
      <trkpt lat="48.55998" lon="2.62066">
        <ele>90</ele>
        <time>2019-06-16T15:56:35Z</time>
      </trkpt>
      <trkpt lat="48.55994" lon="2.6208">
        <ele>90</ele>
        <time>2019-06-16T15:56:46Z</time>
      </trkpt>
      <trkpt lat="48.55994" lon="2.6208">
        <ele>90</ele>
        <time>2019-06-16T15:56:47Z</time>
      </trkpt>
      <trkpt lat="48.55974" lon="2.621">
        <ele>92</ele>
        <time>2019-06-16T15:56:58Z</time>
      </trkpt>
      <trkpt lat="48.55965" lon="2.62105">
        <ele>92</ele>
        <time>2019-06-16T15:57:02Z</time>
      </trkpt>
      <trkpt lat="48.55958" lon="2.62114">
        <ele>92</ele>
        <time>2019-06-16T15:57:07Z</time>
      </trkpt>
      <trkpt lat="48.55934" lon="2.62118">
        <ele>92</ele>
        <time>2019-06-16T15:57:15Z</time>
      </trkpt>
      <trkpt lat="48.55926" lon="2.62129">
        <ele>93</ele>
        <time>2019-06-16T15:57:19Z</time>
      </trkpt>
      <trkpt lat="48.55902" lon="2.62168">
        <ele>94</ele>
        <time>2019-06-16T15:57:29Z</time>
      </trkpt>
      <trkpt lat="48.55898" lon="2.62176">
        <ele>94</ele>
        <time>2019-06-16T15:57:33Z</time>
      </trkpt>
      <trkpt lat="48.5588" lon="2.62196">
        <ele>93</ele>
        <time>2019-06-16T15:57:41Z</time>
      </trkpt>
      <trkpt lat="48.55859" lon="2.62231">
        <ele>93</ele>
        <time>2019-06-16T15:57:50Z</time>
      </trkpt>
      <trkpt lat="48.55846" lon="2.62258">
        <ele>92</ele>
        <time>2019-06-16T15:57:56Z</time>
      </trkpt>
      <trkpt lat="48.55839" lon="2.62279">
        <ele>93</ele>
        <time>2019-06-16T15:58:00Z</time>
      </trkpt>
      <trkpt lat="48.5583" lon="2.62325">
        <ele>91</ele>
        <time>2019-06-16T15:58:09Z</time>
      </trkpt>
      <trkpt lat="48.55815" lon="2.62371">
        <ele>90</ele>
        <time>2019-06-16T15:58:18Z</time>
      </trkpt>
      <trkpt lat="48.55814" lon="2.62377">
        <ele>90</ele>
        <time>2019-06-16T15:58:19Z</time>
      </trkpt>
      <trkpt lat="48.55797" lon="2.62412">
        <ele>90</ele>
        <time>2019-06-16T15:58:26Z</time>
      </trkpt>
      <trkpt lat="48.55791" lon="2.6244">
        <ele>90</ele>
        <time>2019-06-16T15:58:34Z</time>
      </trkpt>
      <trkpt lat="48.55807" lon="2.62451">
        <ele>90</ele>
        <time>2019-06-16T15:58:43Z</time>
      </trkpt>
      <trkpt lat="48.55834" lon="2.62461">
        <ele>91</ele>
        <time>2019-06-16T15:58:53Z</time>
      </trkpt>
      <trkpt lat="48.5584" lon="2.62463">
        <ele>91</ele>
        <time>2019-06-16T15:58:55Z</time>
      </trkpt>
      <trkpt lat="48.55868" lon="2.62475">
        <ele>92</ele>
        <time>2019-06-16T15:59:05Z</time>
      </trkpt>
      <trkpt lat="48.5588" lon="2.62481">
        <ele>92</ele>
        <time>2019-06-16T15:59:10Z</time>
      </trkpt>
      <trkpt lat="48.55887" lon="2.62482">
        <ele>93</ele>
        <time>2019-06-16T15:59:12Z</time>
      </trkpt>
      <trkpt lat="48.55895" lon="2.62485">
        <ele>93</ele>
        <time>2019-06-16T15:59:16Z</time>
      </trkpt>
      <trkpt lat="48.559" lon="2.62489">
        <ele>93</ele>
        <time>2019-06-16T15:59:18Z</time>
      </trkpt>
      <trkpt lat="48.55901" lon="2.62502">
        <ele>94</ele>
        <time>2019-06-16T15:59:25Z</time>
      </trkpt>
      <trkpt lat="48.55899" lon="2.6251">
        <ele>94</ele>
        <time>2019-06-16T15:59:30Z</time>
      </trkpt>
      <trkpt lat="48.5589" lon="2.62526">
        <ele>94</ele>
        <time>2019-06-16T15:59:39Z</time>
      </trkpt>
      <trkpt lat="48.55883" lon="2.62537">
        <ele>94</ele>
        <time>2019-06-16T15:59:44Z</time>
      </trkpt>
      <trkpt lat="48.55866" lon="2.62553">
        <ele>94</ele>
        <time>2019-06-16T15:59:52Z</time>
      </trkpt>
      <trkpt lat="48.55858" lon="2.62575">
        <ele>95</ele>
        <time>2019-06-16T16:00:02Z</time>
      </trkpt>
      <trkpt lat="48.55854" lon="2.62586">
        <ele>97</ele>
        <time>2019-06-16T16:00:07Z</time>
      </trkpt>
      <trkpt lat="48.55845" lon="2.62609">
        <ele>98</ele>
        <time>2019-06-16T16:00:18Z</time>
      </trkpt>
      <trkpt lat="48.55844" lon="2.62615">
        <ele>98</ele>
        <time>2019-06-16T16:00:22Z</time>
      </trkpt>
      <trkpt lat="48.55844" lon="2.62619">
        <ele>99</ele>
        <time>2019-06-16T16:00:24Z</time>
      </trkpt>
      <trkpt lat="48.55845" lon="2.62635">
        <ele>100</ele>
        <time>2019-06-16T16:00:33Z</time>
      </trkpt>
      <trkpt lat="48.55839" lon="2.62646">
        <ele>101</ele>
        <time>2019-06-16T16:00:40Z</time>
      </trkpt>
      <trkpt lat="48.55829" lon="2.62672">
        <ele>103</ele>
        <time>2019-06-16T16:00:52Z</time>
      </trkpt>
      <trkpt lat="48.55817" lon="2.62692">
        <ele>102</ele>
        <time>2019-06-16T16:01:03Z</time>
      </trkpt>
      <trkpt lat="48.55817" lon="2.62696">
        <ele>102</ele>
        <time>2019-06-16T16:01:06Z</time>
      </trkpt>
      <trkpt lat="48.55806" lon="2.62717">
        <ele>102</ele>
        <time>2019-06-16T16:01:11Z</time>
      </trkpt>
      <trkpt lat="48.55786" lon="2.62769">
        <ele>101</ele>
        <time>2019-06-16T16:01:22Z</time>
      </trkpt>
      <trkpt lat="48.55778" lon="2.628">
        <ele>101</ele>
        <time>2019-06-16T16:01:26Z</time>
      </trkpt>
      <trkpt lat="48.55763" lon="2.62833">
        <ele>101</ele>
        <time>2019-06-16T16:01:30Z</time>
      </trkpt>
      <trkpt lat="48.55756" lon="2.62882">
        <ele>100</ele>
        <time>2019-06-16T16:01:36Z</time>
      </trkpt>
      <trkpt lat="48.55759" lon="2.62894">
        <ele>100</ele>
        <time>2019-06-16T16:01:38Z</time>
      </trkpt>
      <trkpt lat="48.55766" lon="2.6293">
        <ele>100</ele>
        <time>2019-06-16T16:01:48Z</time>
      </trkpt>
      <trkpt lat="48.55781" lon="2.62949">
        <ele>99</ele>
        <time>2019-06-16T16:01:57Z</time>
      </trkpt>
      <trkpt lat="48.55783" lon="2.62953">
        <ele>99</ele>
        <time>2019-06-16T16:01:59Z</time>
      </trkpt>
      <trkpt lat="48.55786" lon="2.62956">
        <ele>99</ele>
        <time>2019-06-16T16:02:01Z</time>
      </trkpt>
      <trkpt lat="48.55787" lon="2.62963">
        <ele>99</ele>
        <time>2019-06-16T16:02:05Z</time>
      </trkpt>
      <trkpt lat="48.55804" lon="2.62972">
        <ele>98</ele>
        <time>2019-06-16T16:02:18Z</time>
      </trkpt>
      <trkpt lat="48.55806" lon="2.62969">
        <ele>98</ele>
        <time>2019-06-16T16:02:21Z</time>
      </trkpt>
      <trkpt lat="48.55809" lon="2.6297">
        <ele>98</ele>
        <time>2019-06-16T16:02:23Z</time>
      </trkpt>
      <trkpt lat="48.55818" lon="2.62969">
        <ele>98</ele>
        <time>2019-06-16T16:02:28Z</time>
      </trkpt>
      <trkpt lat="48.55818" lon="2.62972">
        <ele>98</ele>
        <time>2019-06-16T16:02:30Z</time>
      </trkpt>
      <trkpt lat="48.55847" lon="2.62971">
        <ele>92</ele>
        <time>2019-06-16T16:02:40Z</time>
      </trkpt>
      <trkpt lat="48.55852" lon="2.62968">
        <ele>92</ele>
        <time>2019-06-16T16:02:41Z</time>
      </trkpt>
      <trkpt lat="48.55858" lon="2.6296">
        <ele>92</ele>
        <time>2019-06-16T16:02:43Z</time>
      </trkpt>
      <trkpt lat="48.55894" lon="2.62969">
        <ele>90</ele>
        <time>2019-06-16T16:02:51Z</time>
      </trkpt>
      <trkpt lat="48.55921" lon="2.62979">
        <ele>85</ele>
        <time>2019-06-16T16:03:00Z</time>
      </trkpt>
      <trkpt lat="48.55916" lon="2.62974">
        <ele>89</ele>
        <time>2019-06-16T16:03:06Z</time>
      </trkpt>
      <trkpt lat="48.55911" lon="2.62968">
        <ele>89</ele>
        <time>2019-06-16T16:03:11Z</time>
      </trkpt>
      <trkpt lat="48.55905" lon="2.62946">
        <ele>90</ele>
        <time>2019-06-16T16:03:19Z</time>
      </trkpt>
      <trkpt lat="48.55904" lon="2.62907">
        <ele>90</ele>
        <time>2019-06-16T16:03:28Z</time>
      </trkpt>
      <trkpt lat="48.55915" lon="2.62859">
        <ele>91</ele>
        <time>2019-06-16T16:03:38Z</time>
      </trkpt>
      <trkpt lat="48.55919" lon="2.62834">
        <ele>88</ele>
        <time>2019-06-16T16:03:43Z</time>
      </trkpt>
      <trkpt lat="48.55926" lon="2.62777">
        <ele>87</ele>
        <time>2019-06-16T16:03:53Z</time>
      </trkpt>
      <trkpt lat="48.55935" lon="2.62753">
        <ele>88</ele>
        <time>2019-06-16T16:03:58Z</time>
      </trkpt>
      <trkpt lat="48.55946" lon="2.62723">
        <ele>88</ele>
        <time>2019-06-16T16:04:03Z</time>
      </trkpt>
      <trkpt lat="48.5595" lon="2.62702">
        <ele>89</ele>
        <time>2019-06-16T16:04:07Z</time>
      </trkpt>
      <trkpt lat="48.55956" lon="2.62671">
        <ele>89</ele>
        <time>2019-06-16T16:04:12Z</time>
      </trkpt>
      <trkpt lat="48.55971" lon="2.62642">
        <ele>90</ele>
        <time>2019-06-16T16:04:19Z</time>
      </trkpt>
      <trkpt lat="48.5599" lon="2.62589">
        <ele>87</ele>
        <time>2019-06-16T16:04:30Z</time>
      </trkpt>
      <trkpt lat="48.55988" lon="2.62561">
        <ele>89</ele>
        <time>2019-06-16T16:04:36Z</time>
      </trkpt>
      <trkpt lat="48.55988" lon="2.62554">
        <ele>90</ele>
        <time>2019-06-16T16:04:41Z</time>
      </trkpt>
      <trkpt lat="48.55992" lon="2.62556">
        <ele>89</ele>
        <time>2019-06-16T16:04:43Z</time>
      </trkpt>
      <trkpt lat="48.56004" lon="2.62565">
        <ele>84</ele>
        <time>2019-06-16T16:04:46Z</time>
      </trkpt>
      <trkpt lat="48.56031" lon="2.62559">
        <ele>83</ele>
        <time>2019-06-16T16:04:53Z</time>
      </trkpt>
      <trkpt lat="48.56038" lon="2.6254">
        <ele>83</ele>
        <time>2019-06-16T16:04:57Z</time>
      </trkpt>
      <trkpt lat="48.56046" lon="2.62519">
        <ele>83</ele>
        <time>2019-06-16T16:05:03Z</time>
      </trkpt>
      <trkpt lat="48.56052" lon="2.62506">
        <ele>83</ele>
        <time>2019-06-16T16:05:07Z</time>
      </trkpt>
      <trkpt lat="48.56071" lon="2.62473">
        <ele>84</ele>
        <time>2019-06-16T16:05:14Z</time>
      </trkpt>
      <trkpt lat="48.56122" lon="2.62397">
        <ele>84</ele>
        <time>2019-06-16T16:05:29Z</time>
      </trkpt>
      <trkpt lat="48.56141" lon="2.6237">
        <ele>83</ele>
        <time>2019-06-16T16:05:34Z</time>
      </trkpt>
      <trkpt lat="48.56176" lon="2.62314">
        <ele>81</ele>
        <time>2019-06-16T16:05:46Z</time>
      </trkpt>
      <trkpt lat="48.562" lon="2.62277">
        <ele>81</ele>
        <time>2019-06-16T16:05:56Z</time>
      </trkpt>
      <trkpt lat="48.56202" lon="2.62273">
        <ele>81</ele>
        <time>2019-06-16T16:05:57Z</time>
      </trkpt>
      <trkpt lat="48.56218" lon="2.62276">
        <ele>81</ele>
        <time>2019-06-16T16:06:04Z</time>
      </trkpt>
      <trkpt lat="48.56222" lon="2.62283">
        <ele>80</ele>
        <time>2019-06-16T16:06:06Z</time>
      </trkpt>
      <trkpt lat="48.5625" lon="2.62283">
        <ele>77</ele>
        <time>2019-06-16T16:06:15Z</time>
      </trkpt>
      <trkpt lat="48.56273" lon="2.62311">
        <ele>76</ele>
        <time>2019-06-16T16:06:23Z</time>
      </trkpt>
      <trkpt lat="48.56292" lon="2.62351">
        <ele>76</ele>
        <time>2019-06-16T16:06:31Z</time>
      </trkpt>
      <trkpt lat="48.56296" lon="2.62394">
        <ele>76</ele>
        <time>2019-06-16T16:06:38Z</time>
      </trkpt>
      <trkpt lat="48.56326" lon="2.6241">
        <ele>75</ele>
        <time>2019-06-16T16:06:44Z</time>
      </trkpt>
      <trkpt lat="48.56341" lon="2.62375">
        <ele>75</ele>
        <time>2019-06-16T16:06:50Z</time>
      </trkpt>
      <trkpt lat="48.56333" lon="2.62341">
        <ele>75</ele>
        <time>2019-06-16T16:06:55Z</time>
      </trkpt>
      <trkpt lat="48.56334" lon="2.62321">
        <ele>75</ele>
        <time>2019-06-16T16:06:58Z</time>
      </trkpt>
      <trkpt lat="48.56336" lon="2.62259">
        <ele>74</ele>
        <time>2019-06-16T16:07:07Z</time>
      </trkpt>
      <trkpt lat="48.56335" lon="2.62253">
        <ele>74</ele>
        <time>2019-06-16T16:07:08Z</time>
      </trkpt>
      <trkpt lat="48.5634" lon="2.62183">
        <ele>73</ele>
        <time>2019-06-16T16:07:20Z</time>
      </trkpt>
      <trkpt lat="48.56342" lon="2.62149">
        <ele>73</ele>
        <time>2019-06-16T16:07:30Z</time>
      </trkpt>
      <trkpt lat="48.56346" lon="2.621">
        <ele>74</ele>
        <time>2019-06-16T16:07:41Z</time>
      </trkpt>
      <trkpt lat="48.56353" lon="2.62077">
        <ele>74</ele>
        <time>2019-06-16T16:07:46Z</time>
      </trkpt>
      <trkpt lat="48.56356" lon="2.62061">
        <ele>75</ele>
        <time>2019-06-16T16:07:51Z</time>
      </trkpt>
      <trkpt lat="48.56362" lon="2.62032">
        <ele>75</ele>
        <time>2019-06-16T16:07:58Z</time>
      </trkpt>
      <trkpt lat="48.5636" lon="2.61996">
        <ele>76</ele>
        <time>2019-06-16T16:08:05Z</time>
      </trkpt>
      <trkpt lat="48.56388" lon="2.61905">
        <ele>77</ele>
        <time>2019-06-16T16:08:21Z</time>
      </trkpt>
      <trkpt lat="48.56409" lon="2.61844">
        <ele>77</ele>
        <time>2019-06-16T16:08:33Z</time>
      </trkpt>
      <trkpt lat="48.56417" lon="2.6181">
        <ele>76</ele>
        <time>2019-06-16T16:08:38Z</time>
      </trkpt>
      <trkpt lat="48.56427" lon="2.6176">
        <ele>76</ele>
        <time>2019-06-16T16:08:46Z</time>
      </trkpt>
      <trkpt lat="48.56428" lon="2.61735">
        <ele>76</ele>
        <time>2019-06-16T16:08:51Z</time>
      </trkpt>
      <trkpt lat="48.56432" lon="2.61698">
        <ele>76</ele>
        <time>2019-06-16T16:08:57Z</time>
      </trkpt>
      <trkpt lat="48.56441" lon="2.61601">
        <ele>76</ele>
        <time>2019-06-16T16:09:12Z</time>
      </trkpt>
      <trkpt lat="48.56451" lon="2.61566">
        <ele>76</ele>
        <time>2019-06-16T16:09:19Z</time>
      </trkpt>
      <trkpt lat="48.56468" lon="2.61557">
        <ele>75</ele>
        <time>2019-06-16T16:09:24Z</time>
      </trkpt>
      <trkpt lat="48.56477" lon="2.61557">
        <ele>75</ele>
        <time>2019-06-16T16:09:26Z</time>
      </trkpt>
      <trkpt lat="48.5651" lon="2.6156">
        <ele>74</ele>
        <time>2019-06-16T16:09:33Z</time>
      </trkpt>
      <trkpt lat="48.5653" lon="2.61556">
        <ele>74</ele>
        <time>2019-06-16T16:09:37Z</time>
      </trkpt>
      <trkpt lat="48.56546" lon="2.61522">
        <ele>74</ele>
        <time>2019-06-16T16:09:45Z</time>
      </trkpt>
      <trkpt lat="48.56547" lon="2.61512">
        <ele>74</ele>
        <time>2019-06-16T16:09:47Z</time>
      </trkpt>
      <trkpt lat="48.56549" lon="2.61495">
        <ele>74</ele>
        <time>2019-06-16T16:09:50Z</time>
      </trkpt>
      <trkpt lat="48.56546" lon="2.61461">
        <ele>74</ele>
        <time>2019-06-16T16:09:55Z</time>
      </trkpt>
      <trkpt lat="48.56546" lon="2.61439">
        <ele>74</ele>
        <time>2019-06-16T16:09:58Z</time>
      </trkpt>
      <trkpt lat="48.56545" lon="2.61424">
        <ele>74</ele>
        <time>2019-06-16T16:10:00Z</time>
      </trkpt>
      <trkpt lat="48.56513" lon="2.61338">
        <ele>75</ele>
        <time>2019-06-16T16:10:13Z</time>
      </trkpt>
      <trkpt lat="48.56509" lon="2.61304">
        <ele>75</ele>
        <time>2019-06-16T16:10:19Z</time>
      </trkpt>
      <trkpt lat="48.56544" lon="2.61293">
        <ele>75</ele>
        <time>2019-06-16T16:10:27Z</time>
      </trkpt>
      <trkpt lat="48.56554" lon="2.61294">
        <ele>75</ele>
        <time>2019-06-16T16:10:29Z</time>
      </trkpt>
      <trkpt lat="48.56644" lon="2.6132">
        <ele>73</ele>
        <time>2019-06-16T16:10:45Z</time>
      </trkpt>
      <trkpt lat="48.56654" lon="2.61322">
        <ele>73</ele>
        <time>2019-06-16T16:10:47Z</time>
      </trkpt>
      <trkpt lat="48.56678" lon="2.61304">
        <ele>73</ele>
        <time>2019-06-16T16:10:54Z</time>
      </trkpt>
      <trkpt lat="48.5668" lon="2.6129">
        <ele>73</ele>
        <time>2019-06-16T16:10:56Z</time>
      </trkpt>
      <trkpt lat="48.5668" lon="2.61277">
        <ele>73</ele>
        <time>2019-06-16T16:10:58Z</time>
      </trkpt>
      <trkpt lat="48.56688" lon="2.61261">
        <ele>73</ele>
        <time>2019-06-16T16:11:02Z</time>
      </trkpt>
      <trkpt lat="48.5672" lon="2.61234">
        <ele>72</ele>
        <time>2019-06-16T16:11:10Z</time>
      </trkpt>
      <trkpt lat="48.5674" lon="2.61199">
        <ele>72</ele>
        <time>2019-06-16T16:11:17Z</time>
      </trkpt>
      <trkpt lat="48.56773" lon="2.61173">
        <ele>73</ele>
        <time>2019-06-16T16:11:26Z</time>
      </trkpt>
      <trkpt lat="48.56781" lon="2.61143">
        <ele>74</ele>
        <time>2019-06-16T16:11:34Z</time>
      </trkpt>
      <trkpt lat="48.56792" lon="2.61144">
        <ele>74</ele>
        <time>2019-06-16T16:11:38Z</time>
      </trkpt>
      <trkpt lat="48.56812" lon="2.61135">
        <ele>74</ele>
        <time>2019-06-16T16:11:45Z</time>
      </trkpt>
      <trkpt lat="48.56817" lon="2.61132">
        <ele>75</ele>
        <time>2019-06-16T16:11:47Z</time>
      </trkpt>
      <trkpt lat="48.56822" lon="2.611">
        <ele>75</ele>
        <time>2019-06-16T16:11:57Z</time>
      </trkpt>
      <trkpt lat="48.56819" lon="2.61086">
        <ele>75</ele>
        <time>2019-06-16T16:12:00Z</time>
      </trkpt>
      <trkpt lat="48.56809" lon="2.6102">
        <ele>75</ele>
        <time>2019-06-16T16:12:12Z</time>
      </trkpt>
      <trkpt lat="48.56808" lon="2.61007">
        <ele>75</ele>
        <time>2019-06-16T16:12:14Z</time>
      </trkpt>
      <trkpt lat="48.56833" lon="2.60971">
        <ele>76</ele>
        <time>2019-06-16T16:12:23Z</time>
      </trkpt>
      <trkpt lat="48.56842" lon="2.6097">
        <ele>77</ele>
        <time>2019-06-16T16:12:25Z</time>
      </trkpt>
      <trkpt lat="48.56921" lon="2.60952">
        <ele>78</ele>
        <time>2019-06-16T16:12:43Z</time>
      </trkpt>
      <trkpt lat="48.56978" lon="2.60932">
        <ele>78</ele>
        <time>2019-06-16T16:12:57Z</time>
      </trkpt>
      <trkpt lat="48.57015" lon="2.60914">
        <ele>78</ele>
        <time>2019-06-16T16:13:06Z</time>
      </trkpt>
      <trkpt lat="48.57041" lon="2.60906">
        <ele>79</ele>
        <time>2019-06-16T16:13:12Z</time>
      </trkpt>
      <trkpt lat="48.5705" lon="2.60905">
        <ele>79</ele>
        <time>2019-06-16T16:13:14Z</time>
      </trkpt>
      <trkpt lat="48.57117" lon="2.60909">
        <ele>80</ele>
        <time>2019-06-16T16:13:29Z</time>
      </trkpt>
      <trkpt lat="48.5713" lon="2.60913">
        <ele>80</ele>
        <time>2019-06-16T16:13:32Z</time>
      </trkpt>
      <trkpt lat="48.57147" lon="2.6091">
        <ele>80</ele>
        <time>2019-06-16T16:13:36Z</time>
      </trkpt>
      <trkpt lat="48.57155" lon="2.60904">
        <ele>80</ele>
        <time>2019-06-16T16:13:38Z</time>
      </trkpt>
      <trkpt lat="48.57174" lon="2.60895">
        <ele>80</ele>
        <time>2019-06-16T16:13:42Z</time>
      </trkpt>
      <trkpt lat="48.57193" lon="2.60899">
        <ele>80</ele>
        <time>2019-06-16T16:13:46Z</time>
      </trkpt>
      <trkpt lat="48.57274" lon="2.60935">
        <ele>79</ele>
        <time>2019-06-16T16:14:02Z</time>
      </trkpt>
      <trkpt lat="48.57294" lon="2.60943">
        <ele>79</ele>
        <time>2019-06-16T16:14:06Z</time>
      </trkpt>
      <trkpt lat="48.57308" lon="2.60949">
        <ele>79</ele>
        <time>2019-06-16T16:14:09Z</time>
      </trkpt>
      <trkpt lat="48.57344" lon="2.60962">
        <ele>79</ele>
        <time>2019-06-16T16:14:17Z</time>
      </trkpt>
      <trkpt lat="48.57347" lon="2.60997">
        <ele>79</ele>
        <time>2019-06-16T16:14:23Z</time>
      </trkpt>
      <trkpt lat="48.57355" lon="2.61022">
        <ele>78</ele>
        <time>2019-06-16T16:14:28Z</time>
      </trkpt>
      <trkpt lat="48.57367" lon="2.61028">
        <ele>77</ele>
        <time>2019-06-16T16:14:31Z</time>
      </trkpt>
      <trkpt lat="48.5737" lon="2.61072">
        <ele>77</ele>
        <time>2019-06-16T16:14:38Z</time>
      </trkpt>
      <trkpt lat="48.57369" lon="2.61078">
        <ele>77</ele>
        <time>2019-06-16T16:14:39Z</time>
      </trkpt>
      <trkpt lat="48.57362" lon="2.61112">
        <ele>77</ele>
        <time>2019-06-16T16:14:44Z</time>
      </trkpt>
      <trkpt lat="48.57354" lon="2.61147">
        <ele>77</ele>
        <time>2019-06-16T16:14:49Z</time>
      </trkpt>
      <trkpt lat="48.57349" lon="2.61171">
        <ele>77</ele>
        <time>2019-06-16T16:14:53Z</time>
      </trkpt>
      <trkpt lat="48.57353" lon="2.61192">
        <ele>77</ele>
        <time>2019-06-16T16:14:58Z</time>
      </trkpt>
      <trkpt lat="48.57359" lon="2.61212">
        <ele>77</ele>
        <time>2019-06-16T16:15:03Z</time>
      </trkpt>
      <trkpt lat="48.57354" lon="2.61228">
        <ele>77</ele>
        <time>2019-06-16T16:15:10Z</time>
      </trkpt>
      <trkpt lat="48.57348" lon="2.61228">
        <ele>77</ele>
        <time>2019-06-16T16:15:34Z</time>
      </trkpt>
      <trkpt lat="48.57354" lon="2.61231">
        <ele>77</ele>
        <time>2019-06-16T16:16:04Z</time>
      </trkpt>
      <trkpt lat="48.57355" lon="2.6123">
        <ele>77</ele>
        <time>2019-06-16T16:16:22Z</time>
      </trkpt>
      <trkpt lat="48.57353" lon="2.6123">
        <ele>77</ele>
        <time>2019-06-16T16:16:39Z</time>
      </trkpt>
    </trkseg>
  </trk>
  <trk>
    <name><![CDATA[Tracé actuel: 23 JUIN 2019 07:52]]></name>
    <trkseg>
      <trkpt lat="49.42425" lon="2.84311">
        <ele>36</ele>
        <time>2019-06-23T05:52:56Z</time>
      </trkpt>
      <trkpt lat="49.42423" lon="2.84314">
        <ele>36</ele>
        <time>2019-06-23T05:53:26Z</time>
      </trkpt>
      <trkpt lat="49.42424" lon="2.84315">
        <ele>36</ele>
        <time>2019-06-23T05:54:00Z</time>
      </trkpt>
      <trkpt lat="49.42425" lon="2.84313">
        <ele>36</ele>
        <time>2019-06-23T05:54:29Z</time>
      </trkpt>
      <trkpt lat="49.42427" lon="2.84313">
        <ele>36</ele>
        <time>2019-06-23T05:54:58Z</time>
      </trkpt>
      <trkpt lat="49.42426" lon="2.84312">
        <ele>36</ele>
        <time>2019-06-23T05:55:32Z</time>
      </trkpt>
      <trkpt lat="49.42424" lon="2.84315">
        <ele>36</ele>
        <time>2019-06-23T05:55:49Z</time>
      </trkpt>
    </trkseg>
  </trk>
  <trk>
    <name><![CDATA[Tracé actuel: 23 JUIN 2019 07:56]]></name>
    <trkseg>
      <trkpt lat="49.42419" lon="2.84316">
        <ele>36</ele>
        <time>2019-06-23T05:56:08Z</time>
      </trkpt>
      <trkpt lat="49.42419" lon="2.84315">
        <ele>36</ele>
        <time>2019-06-23T05:56:20Z</time>
      </trkpt>
      <trkpt lat="49.42417" lon="2.84328">
        <ele>36</ele>
        <time>2019-06-23T05:56:29Z</time>
      </trkpt>
      <trkpt lat="49.42414" lon="2.84345">
        <ele>37</ele>
        <time>2019-06-23T05:56:45Z</time>
      </trkpt>
      <trkpt lat="49.42414" lon="2.84345">
        <ele>37</ele>
        <time>2019-06-23T05:57:09Z</time>
      </trkpt>
      <trkpt lat="49.42413" lon="2.84345">
        <ele>37</ele>
        <time>2019-06-23T05:57:28Z</time>
      </trkpt>
      <trkpt lat="49.42414" lon="2.84345">
        <ele>37</ele>
        <time>2019-06-23T05:57:53Z</time>
      </trkpt>
      <trkpt lat="49.42414" lon="2.84346">
        <ele>37</ele>
        <time>2019-06-23T05:58:15Z</time>
      </trkpt>
      <trkpt lat="49.42413" lon="2.84345">
        <ele>37</ele>
        <time>2019-06-23T05:58:41Z</time>
      </trkpt>
      <trkpt lat="49.42413" lon="2.84345">
        <ele>37</ele>
        <time>2019-06-23T05:59:09Z</time>
      </trkpt>
      <trkpt lat="49.42413" lon="2.84344">
        <ele>37</ele>
        <time>2019-06-23T05:59:27Z</time>
      </trkpt>
      <trkpt lat="49.42413" lon="2.84344">
        <ele>37</ele>
        <time>2019-06-23T05:59:53Z</time>
      </trkpt>
      <trkpt lat="49.42413" lon="2.8435">
        <ele>37</ele>
        <time>2019-06-23T06:00:06Z</time>
      </trkpt>
      <trkpt lat="49.42412" lon="2.84358">
        <ele>38</ele>
        <time>2019-06-23T06:00:20Z</time>
      </trkpt>
      <trkpt lat="49.4241" lon="2.84364">
        <ele>38</ele>
        <time>2019-06-23T06:00:42Z</time>
      </trkpt>
      <trkpt lat="49.42391" lon="2.84403">
        <ele>39</ele>
        <time>2019-06-23T06:00:55Z</time>
      </trkpt>
      <trkpt lat="49.42363" lon="2.84413">
        <ele>39</ele>
        <time>2019-06-23T06:01:06Z</time>
      </trkpt>
      <trkpt lat="49.42311" lon="2.84428">
        <ele>37</ele>
        <time>2019-06-23T06:01:22Z</time>
      </trkpt>
      <trkpt lat="49.42251" lon="2.84443">
        <ele>37</ele>
        <time>2019-06-23T06:01:39Z</time>
      </trkpt>
      <trkpt lat="49.42205" lon="2.84458">
        <ele>39</ele>
        <time>2019-06-23T06:01:55Z</time>
      </trkpt>
      <trkpt lat="49.42196" lon="2.84459">
        <ele>39</ele>
        <time>2019-06-23T06:01:58Z</time>
      </trkpt>
      <trkpt lat="49.42189" lon="2.84447">
        <ele>39</ele>
        <time>2019-06-23T06:02:02Z</time>
      </trkpt>
      <trkpt lat="49.42185" lon="2.84423">
        <ele>39</ele>
        <time>2019-06-23T06:02:08Z</time>
      </trkpt>
      <trkpt lat="49.42168" lon="2.84424">
        <ele>40</ele>
        <time>2019-06-23T06:02:14Z</time>
      </trkpt>
      <trkpt lat="49.42136" lon="2.84446">
        <ele>42</ele>
        <time>2019-06-23T06:02:23Z</time>
      </trkpt>
      <trkpt lat="49.4212" lon="2.84479">
        <ele>42</ele>
        <time>2019-06-23T06:02:30Z</time>
      </trkpt>
      <trkpt lat="49.4208" lon="2.8456">
        <ele>40</ele>
        <time>2019-06-23T06:02:44Z</time>
      </trkpt>
      <trkpt lat="49.42045" lon="2.84635">
        <ele>38</ele>
        <time>2019-06-23T06:02:59Z</time>
      </trkpt>
      <trkpt lat="49.42043" lon="2.84647">
        <ele>38</ele>
        <time>2019-06-23T06:03:03Z</time>
      </trkpt>
      <trkpt lat="49.42034" lon="2.84662">
        <ele>39</ele>
        <time>2019-06-23T06:03:10Z</time>
      </trkpt>
      <trkpt lat="49.42013" lon="2.84707">
        <ele>42</ele>
        <time>2019-06-23T06:03:21Z</time>
      </trkpt>
      <trkpt lat="49.41996" lon="2.8475">
        <ele>48</ele>
        <time>2019-06-23T06:03:31Z</time>
      </trkpt>
      <trkpt lat="49.41976" lon="2.84792">
        <ele>49</ele>
        <time>2019-06-23T06:03:40Z</time>
      </trkpt>
      <trkpt lat="49.41956" lon="2.84834">
        <ele>50</ele>
        <time>2019-06-23T06:03:50Z</time>
      </trkpt>
      <trkpt lat="49.41944" lon="2.8487">
        <ele>51</ele>
        <time>2019-06-23T06:04:00Z</time>
      </trkpt>
      <trkpt lat="49.4193" lon="2.84916">
        <ele>52</ele>
        <time>2019-06-23T06:04:12Z</time>
      </trkpt>
      <trkpt lat="49.41912" lon="2.84957">
        <ele>53</ele>
        <time>2019-06-23T06:04:22Z</time>
      </trkpt>
      <trkpt lat="49.4189" lon="2.85003">
        <ele>54</ele>
        <time>2019-06-23T06:04:32Z</time>
      </trkpt>
      <trkpt lat="49.4187" lon="2.85043">
        <ele>55</ele>
        <time>2019-06-23T06:04:40Z</time>
      </trkpt>
      <trkpt lat="49.41846" lon="2.85088">
        <ele>58</ele>
        <time>2019-06-23T06:04:49Z</time>
      </trkpt>
      <trkpt lat="49.41823" lon="2.85131">
        <ele>57</ele>
        <time>2019-06-23T06:04:59Z</time>
      </trkpt>
      <trkpt lat="49.41806" lon="2.85174">
        <ele>57</ele>
        <time>2019-06-23T06:05:10Z</time>
      </trkpt>
      <trkpt lat="49.41787" lon="2.85216">
        <ele>56</ele>
        <time>2019-06-23T06:05:20Z</time>
      </trkpt>
      <trkpt lat="49.41773" lon="2.85245">
        <ele>55</ele>
        <time>2019-06-23T06:05:27Z</time>
      </trkpt>
      <trkpt lat="49.41755" lon="2.85285">
        <ele>54</ele>
        <time>2019-06-23T06:05:37Z</time>
      </trkpt>
      <trkpt lat="49.41728" lon="2.85332">
        <ele>54</ele>
        <time>2019-06-23T06:05:47Z</time>
      </trkpt>
      <trkpt lat="49.41701" lon="2.85382">
        <ele>56</ele>
        <time>2019-06-23T06:05:59Z</time>
      </trkpt>
      <trkpt lat="49.41681" lon="2.85416">
        <ele>58</ele>
        <time>2019-06-23T06:06:09Z</time>
      </trkpt>
      <trkpt lat="49.41645" lon="2.8547">
        <ele>59</ele>
        <time>2019-06-23T06:06:22Z</time>
      </trkpt>
      <trkpt lat="49.41616" lon="2.85521">
        <ele>59</ele>
        <time>2019-06-23T06:06:34Z</time>
      </trkpt>
      <trkpt lat="49.41592" lon="2.8556">
        <ele>58</ele>
        <time>2019-06-23T06:06:44Z</time>
      </trkpt>
      <trkpt lat="49.41566" lon="2.85609">
        <ele>57</ele>
        <time>2019-06-23T06:06:56Z</time>
      </trkpt>
      <trkpt lat="49.41556" lon="2.85628">
        <ele>57</ele>
        <time>2019-06-23T06:07:01Z</time>
      </trkpt>
      <trkpt lat="49.41527" lon="2.85677">
        <ele>58</ele>
        <time>2019-06-23T06:07:13Z</time>
      </trkpt>
      <trkpt lat="49.41501" lon="2.85716">
        <ele>58</ele>
        <time>2019-06-23T06:07:23Z</time>
      </trkpt>
      <trkpt lat="49.41473" lon="2.85764">
        <ele>59</ele>
        <time>2019-06-23T06:07:34Z</time>
      </trkpt>
      <trkpt lat="49.4144" lon="2.85817">
        <ele>59</ele>
        <time>2019-06-23T06:07:45Z</time>
      </trkpt>
      <trkpt lat="49.41428" lon="2.85836">
        <ele>59</ele>
        <time>2019-06-23T06:07:49Z</time>
      </trkpt>
      <trkpt lat="49.41416" lon="2.85857">
        <ele>59</ele>
        <time>2019-06-23T06:07:53Z</time>
      </trkpt>
      <trkpt lat="49.41396" lon="2.85885">
        <ele>59</ele>
        <time>2019-06-23T06:07:59Z</time>
      </trkpt>
      <trkpt lat="49.41364" lon="2.85938">
        <ele>58</ele>
        <time>2019-06-23T06:08:11Z</time>
      </trkpt>
      <trkpt lat="49.41362" lon="2.85993">
        <ele>57</ele>
        <time>2019-06-23T06:08:20Z</time>
      </trkpt>
      <trkpt lat="49.41363" lon="2.86012">
        <ele>56</ele>
        <time>2019-06-23T06:08:23Z</time>
      </trkpt>
      <trkpt lat="49.41366" lon="2.86049">
        <ele>56</ele>
        <time>2019-06-23T06:08:29Z</time>
      </trkpt>
      <trkpt lat="49.41366" lon="2.86093">
        <ele>55</ele>
        <time>2019-06-23T06:08:35Z</time>
      </trkpt>
      <trkpt lat="49.41368" lon="2.86122">
        <ele>55</ele>
        <time>2019-06-23T06:08:39Z</time>
      </trkpt>
      <trkpt lat="49.41372" lon="2.86189">
        <ele>55</ele>
        <time>2019-06-23T06:08:48Z</time>
      </trkpt>
      <trkpt lat="49.4137" lon="2.86218">
        <ele>55</ele>
        <time>2019-06-23T06:08:52Z</time>
      </trkpt>
      <trkpt lat="49.41372" lon="2.86245">
        <ele>56</ele>
        <time>2019-06-23T06:08:56Z</time>
      </trkpt>
      <trkpt lat="49.41373" lon="2.86263">
        <ele>55</ele>
        <time>2019-06-23T06:08:59Z</time>
      </trkpt>
      <trkpt lat="49.41376" lon="2.86291">
        <ele>55</ele>
        <time>2019-06-23T06:09:03Z</time>
      </trkpt>
      <trkpt lat="49.4138" lon="2.86375">
        <ele>53</ele>
        <time>2019-06-23T06:09:16Z</time>
      </trkpt>
      <trkpt lat="49.41386" lon="2.86433">
        <ele>52</ele>
        <time>2019-06-23T06:09:26Z</time>
      </trkpt>
      <trkpt lat="49.41397" lon="2.86494">
        <ele>50</ele>
        <time>2019-06-23T06:09:37Z</time>
      </trkpt>
      <trkpt lat="49.414" lon="2.86506">
        <ele>49</ele>
        <time>2019-06-23T06:09:39Z</time>
      </trkpt>
      <trkpt lat="49.41402" lon="2.86519">
        <ele>49</ele>
        <time>2019-06-23T06:09:41Z</time>
      </trkpt>
      <trkpt lat="49.4141" lon="2.86567">
        <ele>49</ele>
        <time>2019-06-23T06:09:47Z</time>
      </trkpt>
      <trkpt lat="49.41428" lon="2.86673">
        <ele>53</ele>
        <time>2019-06-23T06:10:00Z</time>
      </trkpt>
      <trkpt lat="49.4143" lon="2.8668">
        <ele>53</ele>
        <time>2019-06-23T06:10:01Z</time>
      </trkpt>
      <trkpt lat="49.41437" lon="2.86724">
        <ele>54</ele>
        <time>2019-06-23T06:10:07Z</time>
      </trkpt>
      <trkpt lat="49.41446" lon="2.86785">
        <ele>55</ele>
        <time>2019-06-23T06:10:19Z</time>
      </trkpt>
      <trkpt lat="49.41448" lon="2.86798">
        <ele>55</ele>
        <time>2019-06-23T06:10:33Z</time>
      </trkpt>
      <trkpt lat="49.41448" lon="2.86801">
        <ele>55</ele>
        <time>2019-06-23T06:10:36Z</time>
      </trkpt>
      <trkpt lat="49.41454" lon="2.86804">
        <ele>55</ele>
        <time>2019-06-23T06:10:40Z</time>
      </trkpt>
      <trkpt lat="49.41461" lon="2.8681">
        <ele>55</ele>
        <time>2019-06-23T06:10:44Z</time>
      </trkpt>
      <trkpt lat="49.41463" lon="2.86829">
        <ele>55</ele>
        <time>2019-06-23T06:10:51Z</time>
      </trkpt>
      <trkpt lat="49.41462" lon="2.86834">
        <ele>55</ele>
        <time>2019-06-23T06:10:53Z</time>
      </trkpt>
      <trkpt lat="49.41463" lon="2.86875">
        <ele>55</ele>
        <time>2019-06-23T06:11:00Z</time>
      </trkpt>
      <trkpt lat="49.41465" lon="2.86902">
        <ele>55</ele>
        <time>2019-06-23T06:11:04Z</time>
      </trkpt>
      <trkpt lat="49.41471" lon="2.86932">
        <ele>54</ele>
        <time>2019-06-23T06:11:08Z</time>
      </trkpt>
      <trkpt lat="49.41485" lon="2.87014">
        <ele>53</ele>
        <time>2019-06-23T06:11:18Z</time>
      </trkpt>
      <trkpt lat="49.41492" lon="2.87053">
        <ele>53</ele>
        <time>2019-06-23T06:11:23Z</time>
      </trkpt>
      <trkpt lat="49.41502" lon="2.87104">
        <ele>52</ele>
        <time>2019-06-23T06:11:29Z</time>
      </trkpt>
      <trkpt lat="49.41514" lon="2.87171">
        <ele>52</ele>
        <time>2019-06-23T06:11:37Z</time>
      </trkpt>
      <trkpt lat="49.41528" lon="2.87238">
        <ele>50</ele>
        <time>2019-06-23T06:11:46Z</time>
      </trkpt>
      <trkpt lat="49.41544" lon="2.87325">
        <ele>48</ele>
        <time>2019-06-23T06:11:57Z</time>
      </trkpt>
      <trkpt lat="49.41548" lon="2.87342">
        <ele>47</ele>
        <time>2019-06-23T06:11:59Z</time>
      </trkpt>
      <trkpt lat="49.41561" lon="2.87423">
        <ele>47</ele>
        <time>2019-06-23T06:12:08Z</time>
      </trkpt>
      <trkpt lat="49.41566" lon="2.87452">
        <ele>47</ele>
        <time>2019-06-23T06:12:12Z</time>
      </trkpt>
      <trkpt lat="49.41571" lon="2.87477">
        <ele>46</ele>
        <time>2019-06-23T06:12:16Z</time>
      </trkpt>
      <trkpt lat="49.41592" lon="2.87519">
        <ele>46</ele>
        <time>2019-06-23T06:12:24Z</time>
      </trkpt>
      <trkpt lat="49.41606" lon="2.87558">
        <ele>47</ele>
        <time>2019-06-23T06:12:30Z</time>
      </trkpt>
      <trkpt lat="49.41618" lon="2.87589">
        <ele>47</ele>
        <time>2019-06-23T06:12:35Z</time>
      </trkpt>
      <trkpt lat="49.41627" lon="2.87618">
        <ele>47</ele>
        <time>2019-06-23T06:12:40Z</time>
      </trkpt>
      <trkpt lat="49.41641" lon="2.87655">
        <ele>47</ele>
        <time>2019-06-23T06:12:47Z</time>
      </trkpt>
      <trkpt lat="49.41649" lon="2.8769">
        <ele>46</ele>
        <time>2019-06-23T06:12:53Z</time>
      </trkpt>
      <trkpt lat="49.41665" lon="2.8773">
        <ele>45</ele>
        <time>2019-06-23T06:12:59Z</time>
      </trkpt>
      <trkpt lat="49.41673" lon="2.87753">
        <ele>44</ele>
        <time>2019-06-23T06:13:02Z</time>
      </trkpt>
      <trkpt lat="49.41689" lon="2.87808">
        <ele>45</ele>
        <time>2019-06-23T06:13:09Z</time>
      </trkpt>
      <trkpt lat="49.41697" lon="2.87829">
        <ele>45</ele>
        <time>2019-06-23T06:13:12Z</time>
      </trkpt>
      <trkpt lat="49.41724" lon="2.87898">
        <ele>46</ele>
        <time>2019-06-23T06:13:24Z</time>
      </trkpt>
      <trkpt lat="49.41749" lon="2.87959">
        <ele>48</ele>
        <time>2019-06-23T06:13:36Z</time>
      </trkpt>
      <trkpt lat="49.41751" lon="2.87964">
        <ele>48</ele>
        <time>2019-06-23T06:13:37Z</time>
      </trkpt>
      <trkpt lat="49.41757" lon="2.8798">
        <ele>49</ele>
        <time>2019-06-23T06:13:40Z</time>
      </trkpt>
      <trkpt lat="49.41776" lon="2.88023">
        <ele>49</ele>
        <time>2019-06-23T06:13:47Z</time>
      </trkpt>
      <trkpt lat="49.4179" lon="2.88054">
        <ele>49</ele>
        <time>2019-06-23T06:13:52Z</time>
      </trkpt>
      <trkpt lat="49.41795" lon="2.88066">
        <ele>49</ele>
        <time>2019-06-23T06:13:54Z</time>
      </trkpt>
      <trkpt lat="49.41817" lon="2.88115">
        <ele>50</ele>
        <time>2019-06-23T06:14:02Z</time>
      </trkpt>
      <trkpt lat="49.41824" lon="2.88134">
        <ele>50</ele>
        <time>2019-06-23T06:14:05Z</time>
      </trkpt>
      <trkpt lat="49.41839" lon="2.88178">
        <ele>51</ele>
        <time>2019-06-23T06:14:12Z</time>
      </trkpt>
      <trkpt lat="49.41858" lon="2.8821">
        <ele>52</ele>
        <time>2019-06-23T06:14:19Z</time>
      </trkpt>
      <trkpt lat="49.41893" lon="2.88207">
        <ele>52</ele>
        <time>2019-06-23T06:14:28Z</time>
      </trkpt>
      <trkpt lat="49.41897" lon="2.88206">
        <ele>52</ele>
        <time>2019-06-23T06:14:29Z</time>
      </trkpt>
      <trkpt lat="49.41914" lon="2.88193">
        <ele>52</ele>
        <time>2019-06-23T06:14:34Z</time>
      </trkpt>
      <trkpt lat="49.41941" lon="2.8817">
        <ele>51</ele>
        <time>2019-06-23T06:14:41Z</time>
      </trkpt>
      <trkpt lat="49.41951" lon="2.88139">
        <ele>51</ele>
        <time>2019-06-23T06:14:45Z</time>
      </trkpt>
      <trkpt lat="49.41981" lon="2.88064">
        <ele>50</ele>
        <time>2019-06-23T06:14:55Z</time>
      </trkpt>
      <trkpt lat="49.41988" lon="2.88047">
        <ele>50</ele>
        <time>2019-06-23T06:14:58Z</time>
      </trkpt>
      <trkpt lat="49.42002" lon="2.88049">
        <ele>48</ele>
        <time>2019-06-23T06:15:05Z</time>
      </trkpt>
      <trkpt lat="49.4201" lon="2.88055">
        <ele>48</ele>
        <time>2019-06-23T06:15:09Z</time>
      </trkpt>
      <trkpt lat="49.42033" lon="2.88065">
        <ele>47</ele>
        <time>2019-06-23T06:15:18Z</time>
      </trkpt>
      <trkpt lat="49.42038" lon="2.88086">
        <ele>48</ele>
        <time>2019-06-23T06:15:22Z</time>
      </trkpt>
      <trkpt lat="49.42066" lon="2.88098">
        <ele>48</ele>
        <time>2019-06-23T06:15:31Z</time>
      </trkpt>
      <trkpt lat="49.42075" lon="2.88118">
        <ele>48</ele>
        <time>2019-06-23T06:15:35Z</time>
      </trkpt>
      <trkpt lat="49.42079" lon="2.88162">
        <ele>48</ele>
        <time>2019-06-23T06:15:43Z</time>
      </trkpt>
      <trkpt lat="49.4208" lon="2.88171">
        <ele>48</ele>
        <time>2019-06-23T06:15:45Z</time>
      </trkpt>
      <trkpt lat="49.42085" lon="2.88185">
        <ele>48</ele>
        <time>2019-06-23T06:15:48Z</time>
      </trkpt>
      <trkpt lat="49.42113" lon="2.88225">
        <ele>48</ele>
        <time>2019-06-23T06:15:56Z</time>
      </trkpt>
      <trkpt lat="49.42133" lon="2.88272">
        <ele>49</ele>
        <time>2019-06-23T06:16:05Z</time>
      </trkpt>
      <trkpt lat="49.42137" lon="2.8829">
        <ele>50</ele>
        <time>2019-06-23T06:16:08Z</time>
      </trkpt>
      <trkpt lat="49.42153" lon="2.88325">
        <ele>49</ele>
        <time>2019-06-23T06:16:15Z</time>
      </trkpt>
      <trkpt lat="49.42159" lon="2.88351">
        <ele>50</ele>
        <time>2019-06-23T06:16:20Z</time>
      </trkpt>
      <trkpt lat="49.42159" lon="2.88373">
        <ele>51</ele>
        <time>2019-06-23T06:16:24Z</time>
      </trkpt>
      <trkpt lat="49.42155" lon="2.88415">
        <ele>51</ele>
        <time>2019-06-23T06:16:31Z</time>
      </trkpt>
      <trkpt lat="49.42151" lon="2.88446">
        <ele>52</ele>
        <time>2019-06-23T06:16:36Z</time>
      </trkpt>
      <trkpt lat="49.4215" lon="2.88453">
        <ele>52</ele>
        <time>2019-06-23T06:16:37Z</time>
      </trkpt>
      <trkpt lat="49.4215" lon="2.88459">
        <ele>52</ele>
        <time>2019-06-23T06:16:38Z</time>
      </trkpt>
      <trkpt lat="49.42151" lon="2.88465">
        <ele>52</ele>
        <time>2019-06-23T06:16:39Z</time>
      </trkpt>
      <trkpt lat="49.42152" lon="2.88471">
        <ele>52</ele>
        <time>2019-06-23T06:16:40Z</time>
      </trkpt>
      <trkpt lat="49.42151" lon="2.88484">
        <ele>51</ele>
        <time>2019-06-23T06:16:42Z</time>
      </trkpt>
      <trkpt lat="49.4215" lon="2.88491">
        <ele>51</ele>
        <time>2019-06-23T06:16:43Z</time>
      </trkpt>
      <trkpt lat="49.42147" lon="2.88516">
        <ele>51</ele>
        <time>2019-06-23T06:16:47Z</time>
      </trkpt>
      <trkpt lat="49.42147" lon="2.88522">
        <ele>51</ele>
        <time>2019-06-23T06:16:48Z</time>
      </trkpt>
      <trkpt lat="49.42149" lon="2.88529">
        <ele>51</ele>
        <time>2019-06-23T06:16:49Z</time>
      </trkpt>
      <trkpt lat="49.42153" lon="2.88548">
        <ele>51</ele>
        <time>2019-06-23T06:16:52Z</time>
      </trkpt>
      <trkpt lat="49.42152" lon="2.88554">
        <ele>51</ele>
        <time>2019-06-23T06:16:53Z</time>
      </trkpt>
      <trkpt lat="49.4215" lon="2.8856">
        <ele>51</ele>
        <time>2019-06-23T06:16:54Z</time>
      </trkpt>
      <trkpt lat="49.42134" lon="2.88599">
        <ele>50</ele>
        <time>2019-06-23T06:17:04Z</time>
      </trkpt>
      <trkpt lat="49.42117" lon="2.88642">
        <ele>51</ele>
        <time>2019-06-23T06:17:14Z</time>
      </trkpt>
      <trkpt lat="49.42098" lon="2.88698">
        <ele>49</ele>
        <time>2019-06-23T06:17:24Z</time>
      </trkpt>
      <trkpt lat="49.42082" lon="2.88754">
        <ele>51</ele>
        <time>2019-06-23T06:17:34Z</time>
      </trkpt>
      <trkpt lat="49.4207" lon="2.88783">
        <ele>53</ele>
        <time>2019-06-23T06:17:41Z</time>
      </trkpt>
      <trkpt lat="49.42053" lon="2.88832">
        <ele>53</ele>
        <time>2019-06-23T06:17:52Z</time>
      </trkpt>
      <trkpt lat="49.42039" lon="2.8888">
        <ele>53</ele>
        <time>2019-06-23T06:18:01Z</time>
      </trkpt>
      <trkpt lat="49.42031" lon="2.88907">
        <ele>54</ele>
        <time>2019-06-23T06:18:07Z</time>
      </trkpt>
      <trkpt lat="49.42016" lon="2.88951">
        <ele>53</ele>
        <time>2019-06-23T06:18:16Z</time>
      </trkpt>
      <trkpt lat="49.42002" lon="2.8899">
        <ele>55</ele>
        <time>2019-06-23T06:18:25Z</time>
      </trkpt>
      <trkpt lat="49.41983" lon="2.89034">
        <ele>61</ele>
        <time>2019-06-23T06:18:36Z</time>
      </trkpt>
      <trkpt lat="49.41968" lon="2.89073">
        <ele>61</ele>
        <time>2019-06-23T06:18:44Z</time>
      </trkpt>
      <trkpt lat="49.4195" lon="2.89113">
        <ele>61</ele>
        <time>2019-06-23T06:18:52Z</time>
      </trkpt>
      <trkpt lat="49.41935" lon="2.89155">
        <ele>62</ele>
        <time>2019-06-23T06:19:01Z</time>
      </trkpt>
      <trkpt lat="49.41914" lon="2.89204">
        <ele>69</ele>
        <time>2019-06-23T06:19:11Z</time>
      </trkpt>
      <trkpt lat="49.41895" lon="2.89245">
        <ele>68</ele>
        <time>2019-06-23T06:19:21Z</time>
      </trkpt>
      <trkpt lat="49.41879" lon="2.89281">
        <ele>68</ele>
        <time>2019-06-23T06:19:30Z</time>
      </trkpt>
      <trkpt lat="49.41863" lon="2.89311">
        <ele>70</ele>
        <time>2019-06-23T06:19:38Z</time>
      </trkpt>
      <trkpt lat="49.41845" lon="2.89339">
        <ele>72</ele>
        <time>2019-06-23T06:19:46Z</time>
      </trkpt>
      <trkpt lat="49.41832" lon="2.89361">
        <ele>79</ele>
        <time>2019-06-23T06:19:52Z</time>
      </trkpt>
      <trkpt lat="49.41831" lon="2.89362">
        <ele>79</ele>
        <time>2019-06-23T06:19:53Z</time>
      </trkpt>
      <trkpt lat="49.4183" lon="2.89366">
        <ele>79</ele>
        <time>2019-06-23T06:19:54Z</time>
      </trkpt>
      <trkpt lat="49.41828" lon="2.89371">
        <ele>79</ele>
        <time>2019-06-23T06:19:55Z</time>
      </trkpt>
      <trkpt lat="49.41827" lon="2.89375">
        <ele>79</ele>
        <time>2019-06-23T06:19:56Z</time>
      </trkpt>
      <trkpt lat="49.41826" lon="2.89379">
        <ele>79</ele>
        <time>2019-06-23T06:19:57Z</time>
      </trkpt>
      <trkpt lat="49.41808" lon="2.89418">
        <ele>74</ele>
        <time>2019-06-23T06:20:07Z</time>
      </trkpt>
      <trkpt lat="49.41795" lon="2.89473">
        <ele>74</ele>
        <time>2019-06-23T06:20:16Z</time>
      </trkpt>
      <trkpt lat="49.41793" lon="2.89485">
        <ele>74</ele>
        <time>2019-06-23T06:20:18Z</time>
      </trkpt>
      <trkpt lat="49.41791" lon="2.89491">
        <ele>74</ele>
        <time>2019-06-23T06:20:19Z</time>
      </trkpt>
      <trkpt lat="49.41789" lon="2.89496">
        <ele>74</ele>
        <time>2019-06-23T06:20:20Z</time>
      </trkpt>
      <trkpt lat="49.41787" lon="2.89501">
        <ele>71</ele>
        <time>2019-06-23T06:20:21Z</time>
      </trkpt>
      <trkpt lat="49.41785" lon="2.89506">
        <ele>71</ele>
        <time>2019-06-23T06:20:22Z</time>
      </trkpt>
      <trkpt lat="49.41772" lon="2.89551">
        <ele>70</ele>
        <time>2019-06-23T06:20:30Z</time>
      </trkpt>
      <trkpt lat="49.41772" lon="2.89557">
        <ele>70</ele>
        <time>2019-06-23T06:20:31Z</time>
      </trkpt>
      <trkpt lat="49.41764" lon="2.89574">
        <ele>70</ele>
        <time>2019-06-23T06:20:34Z</time>
      </trkpt>
      <trkpt lat="49.41744" lon="2.89631">
        <ele>70</ele>
        <time>2019-06-23T06:20:45Z</time>
      </trkpt>
      <trkpt lat="49.41737" lon="2.89649">
        <ele>69</ele>
        <time>2019-06-23T06:20:48Z</time>
      </trkpt>
      <trkpt lat="49.41726" lon="2.89668">
        <ele>66</ele>
        <time>2019-06-23T06:20:51Z</time>
      </trkpt>
      <trkpt lat="49.41724" lon="2.89675">
        <ele>66</ele>
        <time>2019-06-23T06:20:52Z</time>
      </trkpt>
      <trkpt lat="49.41723" lon="2.89681">
        <ele>67</ele>
        <time>2019-06-23T06:20:53Z</time>
      </trkpt>
      <trkpt lat="49.41702" lon="2.89749">
        <ele>66</ele>
        <time>2019-06-23T06:21:04Z</time>
      </trkpt>
      <trkpt lat="49.417" lon="2.89756">
        <ele>65</ele>
        <time>2019-06-23T06:21:05Z</time>
      </trkpt>
      <trkpt lat="49.41696" lon="2.89767">
        <ele>65</ele>
        <time>2019-06-23T06:21:07Z</time>
      </trkpt>
      <trkpt lat="49.41689" lon="2.89796">
        <ele>64</ele>
        <time>2019-06-23T06:21:11Z</time>
      </trkpt>
      <trkpt lat="49.41682" lon="2.89813">
        <ele>65</ele>
        <time>2019-06-23T06:21:15Z</time>
      </trkpt>
      <trkpt lat="49.41681" lon="2.89814">
        <ele>65</ele>
        <time>2019-06-23T06:21:18Z</time>
      </trkpt>
      <trkpt lat="49.41673" lon="2.89849">
        <ele>63</ele>
        <time>2019-06-23T06:21:26Z</time>
      </trkpt>
      <trkpt lat="49.4167" lon="2.89855">
        <ele>63</ele>
        <time>2019-06-23T06:21:27Z</time>
      </trkpt>
      <trkpt lat="49.41648" lon="2.89929">
        <ele>62</ele>
        <time>2019-06-23T06:21:37Z</time>
      </trkpt>
      <trkpt lat="49.41636" lon="2.89967">
        <ele>62</ele>
        <time>2019-06-23T06:21:42Z</time>
      </trkpt>
      <trkpt lat="49.41634" lon="2.89975">
        <ele>62</ele>
        <time>2019-06-23T06:21:43Z</time>
      </trkpt>
      <trkpt lat="49.41633" lon="2.89982">
        <ele>62</ele>
        <time>2019-06-23T06:21:44Z</time>
      </trkpt>
      <trkpt lat="49.41631" lon="2.89988">
        <ele>62</ele>
        <time>2019-06-23T06:21:45Z</time>
      </trkpt>
      <trkpt lat="49.41628" lon="2.89994">
        <ele>62</ele>
        <time>2019-06-23T06:21:46Z</time>
      </trkpt>
      <trkpt lat="49.41625" lon="2.90001">
        <ele>62</ele>
        <time>2019-06-23T06:21:47Z</time>
      </trkpt>
      <trkpt lat="49.41623" lon="2.90007">
        <ele>62</ele>
        <time>2019-06-23T06:21:48Z</time>
      </trkpt>
      <trkpt lat="49.41622" lon="2.90012">
        <ele>62</ele>
        <time>2019-06-23T06:21:49Z</time>
      </trkpt>
      <trkpt lat="49.41621" lon="2.90017">
        <ele>62</ele>
        <time>2019-06-23T06:21:50Z</time>
      </trkpt>
      <trkpt lat="49.4162" lon="2.9002">
        <ele>62</ele>
        <time>2019-06-23T06:21:51Z</time>
      </trkpt>
      <trkpt lat="49.41619" lon="2.90024">
        <ele>62</ele>
        <time>2019-06-23T06:21:52Z</time>
      </trkpt>
      <trkpt lat="49.41617" lon="2.90028">
        <ele>62</ele>
        <time>2019-06-23T06:21:53Z</time>
      </trkpt>
      <trkpt lat="49.41615" lon="2.90033">
        <ele>62</ele>
        <time>2019-06-23T06:21:54Z</time>
      </trkpt>
      <trkpt lat="49.41613" lon="2.90038">
        <ele>62</ele>
        <time>2019-06-23T06:21:55Z</time>
      </trkpt>
      <trkpt lat="49.41611" lon="2.90043">
        <ele>62</ele>
        <time>2019-06-23T06:21:56Z</time>
      </trkpt>
      <trkpt lat="49.41609" lon="2.90049">
        <ele>62</ele>
        <time>2019-06-23T06:21:57Z</time>
      </trkpt>
      <trkpt lat="49.41607" lon="2.90055">
        <ele>62</ele>
        <time>2019-06-23T06:21:58Z</time>
      </trkpt>
      <trkpt lat="49.41604" lon="2.9006">
        <ele>62</ele>
        <time>2019-06-23T06:21:59Z</time>
      </trkpt>
      <trkpt lat="49.41589" lon="2.90111">
        <ele>62</ele>
        <time>2019-06-23T06:22:08Z</time>
      </trkpt>
      <trkpt lat="49.41572" lon="2.9016">
        <ele>64</ele>
        <time>2019-06-23T06:22:17Z</time>
      </trkpt>
      <trkpt lat="49.41549" lon="2.90213">
        <ele>63</ele>
        <time>2019-06-23T06:22:28Z</time>
      </trkpt>
      <trkpt lat="49.41533" lon="2.90248">
        <ele>63</ele>
        <time>2019-06-23T06:22:37Z</time>
      </trkpt>
      <trkpt lat="49.4152" lon="2.90278">
        <ele>62</ele>
        <time>2019-06-23T06:22:43Z</time>
      </trkpt>
      <trkpt lat="49.41517" lon="2.90284">
        <ele>62</ele>
        <time>2019-06-23T06:22:44Z</time>
      </trkpt>
      <trkpt lat="49.41503" lon="2.90309">
        <ele>62</ele>
        <time>2019-06-23T06:22:49Z</time>
      </trkpt>
      <trkpt lat="49.41501" lon="2.90314">
        <ele>62</ele>
        <time>2019-06-23T06:22:50Z</time>
      </trkpt>
      <trkpt lat="49.41498" lon="2.9032">
        <ele>65</ele>
        <time>2019-06-23T06:22:51Z</time>
      </trkpt>
      <trkpt lat="49.41482" lon="2.90385">
        <ele>68</ele>
        <time>2019-06-23T06:23:02Z</time>
      </trkpt>
      <trkpt lat="49.41469" lon="2.90419">
        <ele>69</ele>
        <time>2019-06-23T06:23:10Z</time>
      </trkpt>
      <trkpt lat="49.41449" lon="2.90476">
        <ele>73</ele>
        <time>2019-06-23T06:23:21Z</time>
      </trkpt>
      <trkpt lat="49.41436" lon="2.90513">
        <ele>75</ele>
        <time>2019-06-23T06:23:28Z</time>
      </trkpt>
      <trkpt lat="49.41433" lon="2.90519">
        <ele>75</ele>
        <time>2019-06-23T06:23:29Z</time>
      </trkpt>
      <trkpt lat="49.41432" lon="2.90524">
        <ele>74</ele>
        <time>2019-06-23T06:23:30Z</time>
      </trkpt>
      <trkpt lat="49.4142" lon="2.90558">
        <ele>73</ele>
        <time>2019-06-23T06:23:36Z</time>
      </trkpt>
      <trkpt lat="49.41419" lon="2.90565">
        <ele>74</ele>
        <time>2019-06-23T06:23:37Z</time>
      </trkpt>
      <trkpt lat="49.41415" lon="2.90576">
        <ele>78</ele>
        <time>2019-06-23T06:23:39Z</time>
      </trkpt>
      <trkpt lat="49.41413" lon="2.90583">
        <ele>77</ele>
        <time>2019-06-23T06:23:40Z</time>
      </trkpt>
      <trkpt lat="49.41411" lon="2.9059">
        <ele>76</ele>
        <time>2019-06-23T06:23:41Z</time>
      </trkpt>
      <trkpt lat="49.41409" lon="2.90597">
        <ele>76</ele>
        <time>2019-06-23T06:23:42Z</time>
      </trkpt>
      <trkpt lat="49.41407" lon="2.90603">
        <ele>75</ele>
        <time>2019-06-23T06:23:43Z</time>
      </trkpt>
      <trkpt lat="49.41393" lon="2.90646">
        <ele>74</ele>
        <time>2019-06-23T06:23:49Z</time>
      </trkpt>
      <trkpt lat="49.41392" lon="2.90653">
        <ele>73</ele>
        <time>2019-06-23T06:23:50Z</time>
      </trkpt>
      <trkpt lat="49.41376" lon="2.90693">
        <ele>71</ele>
        <time>2019-06-23T06:23:57Z</time>
      </trkpt>
      <trkpt lat="49.41373" lon="2.90698">
        <ele>72</ele>
        <time>2019-06-23T06:23:58Z</time>
      </trkpt>
      <trkpt lat="49.41371" lon="2.90702">
        <ele>72</ele>
        <time>2019-06-23T06:23:59Z</time>
      </trkpt>
      <trkpt lat="49.4137" lon="2.90708">
        <ele>72</ele>
        <time>2019-06-23T06:24:00Z</time>
      </trkpt>
      <trkpt lat="49.41369" lon="2.90715">
        <ele>72</ele>
        <time>2019-06-23T06:24:01Z</time>
      </trkpt>
      <trkpt lat="49.41367" lon="2.90722">
        <ele>72</ele>
        <time>2019-06-23T06:24:02Z</time>
      </trkpt>
      <trkpt lat="49.41365" lon="2.90729">
        <ele>72</ele>
        <time>2019-06-23T06:24:03Z</time>
      </trkpt>
      <trkpt lat="49.41362" lon="2.90736">
        <ele>72</ele>
        <time>2019-06-23T06:24:04Z</time>
      </trkpt>
      <trkpt lat="49.41335" lon="2.90796">
        <ele>72</ele>
        <time>2019-06-23T06:24:14Z</time>
      </trkpt>
      <trkpt lat="49.41334" lon="2.90803">
        <ele>72</ele>
        <time>2019-06-23T06:24:15Z</time>
      </trkpt>
      <trkpt lat="49.41332" lon="2.90808">
        <ele>70</ele>
        <time>2019-06-23T06:24:16Z</time>
      </trkpt>
      <trkpt lat="49.41325" lon="2.90831">
        <ele>71</ele>
        <time>2019-06-23T06:24:20Z</time>
      </trkpt>
      <trkpt lat="49.41318" lon="2.90849">
        <ele>70</ele>
        <time>2019-06-23T06:24:23Z</time>
      </trkpt>
      <trkpt lat="49.41316" lon="2.90855">
        <ele>70</ele>
        <time>2019-06-23T06:24:24Z</time>
      </trkpt>
      <trkpt lat="49.41314" lon="2.90861">
        <ele>70</ele>
        <time>2019-06-23T06:24:25Z</time>
      </trkpt>
      <trkpt lat="49.4131" lon="2.90873">
        <ele>70</ele>
        <time>2019-06-23T06:24:27Z</time>
      </trkpt>
      <trkpt lat="49.41307" lon="2.90879">
        <ele>70</ele>
        <time>2019-06-23T06:24:28Z</time>
      </trkpt>
      <trkpt lat="49.41305" lon="2.90885">
        <ele>69</ele>
        <time>2019-06-23T06:24:29Z</time>
      </trkpt>
      <trkpt lat="49.4129" lon="2.90935">
        <ele>68</ele>
        <time>2019-06-23T06:24:38Z</time>
      </trkpt>
      <trkpt lat="49.41283" lon="2.90958">
        <ele>68</ele>
        <time>2019-06-23T06:24:42Z</time>
      </trkpt>
      <trkpt lat="49.41281" lon="2.90966">
        <ele>68</ele>
        <time>2019-06-23T06:24:43Z</time>
      </trkpt>
      <trkpt lat="49.41248" lon="2.91058">
        <ele>65</ele>
        <time>2019-06-23T06:24:54Z</time>
      </trkpt>
      <trkpt lat="49.41219" lon="2.91131">
        <ele>63</ele>
        <time>2019-06-23T06:25:03Z</time>
      </trkpt>
      <trkpt lat="49.41208" lon="2.91162">
        <ele>62</ele>
        <time>2019-06-23T06:25:07Z</time>
      </trkpt>
      <trkpt lat="49.41201" lon="2.91184">
        <ele>62</ele>
        <time>2019-06-23T06:25:10Z</time>
      </trkpt>
      <trkpt lat="49.41171" lon="2.91263">
        <ele>61</ele>
        <time>2019-06-23T06:25:22Z</time>
      </trkpt>
      <trkpt lat="49.41168" lon="2.91269">
        <ele>60</ele>
        <time>2019-06-23T06:25:23Z</time>
      </trkpt>
      <trkpt lat="49.41144" lon="2.91327">
        <ele>61</ele>
        <time>2019-06-23T06:25:33Z</time>
      </trkpt>
      <trkpt lat="49.41135" lon="2.91345">
        <ele>60</ele>
        <time>2019-06-23T06:25:36Z</time>
      </trkpt>
      <trkpt lat="49.41133" lon="2.91352">
        <ele>60</ele>
        <time>2019-06-23T06:25:37Z</time>
      </trkpt>
      <trkpt lat="49.41131" lon="2.91358">
        <ele>60</ele>
        <time>2019-06-23T06:25:38Z</time>
      </trkpt>
      <trkpt lat="49.4113" lon="2.91362">
        <ele>60</ele>
        <time>2019-06-23T06:25:39Z</time>
      </trkpt>
      <trkpt lat="49.41128" lon="2.91366">
        <ele>60</ele>
        <time>2019-06-23T06:25:40Z</time>
      </trkpt>
      <trkpt lat="49.41126" lon="2.9137">
        <ele>60</ele>
        <time>2019-06-23T06:25:41Z</time>
      </trkpt>
      <trkpt lat="49.41112" lon="2.91418">
        <ele>58</ele>
        <time>2019-06-23T06:25:47Z</time>
      </trkpt>
      <trkpt lat="49.4111" lon="2.91426">
        <ele>58</ele>
        <time>2019-06-23T06:25:48Z</time>
      </trkpt>
      <trkpt lat="49.41101" lon="2.91449">
        <ele>58</ele>
        <time>2019-06-23T06:25:51Z</time>
      </trkpt>
      <trkpt lat="49.41088" lon="2.91481">
        <ele>57</ele>
        <time>2019-06-23T06:25:55Z</time>
      </trkpt>
      <trkpt lat="49.41082" lon="2.91498">
        <ele>56</ele>
        <time>2019-06-23T06:25:57Z</time>
      </trkpt>
      <trkpt lat="49.41079" lon="2.91505">
        <ele>56</ele>
        <time>2019-06-23T06:25:58Z</time>
      </trkpt>
      <trkpt lat="49.41075" lon="2.91512">
        <ele>55</ele>
        <time>2019-06-23T06:25:59Z</time>
      </trkpt>
      <trkpt lat="49.41071" lon="2.91518">
        <ele>55</ele>
        <time>2019-06-23T06:26:00Z</time>
      </trkpt>
      <trkpt lat="49.41068" lon="2.91526">
        <ele>55</ele>
        <time>2019-06-23T06:26:01Z</time>
      </trkpt>
      <trkpt lat="49.41061" lon="2.91543">
        <ele>54</ele>
        <time>2019-06-23T06:26:03Z</time>
      </trkpt>
      <trkpt lat="49.4103" lon="2.91634">
        <ele>49</ele>
        <time>2019-06-23T06:26:13Z</time>
      </trkpt>
      <trkpt lat="49.40986" lon="2.91739">
        <ele>46</ele>
        <time>2019-06-23T06:26:25Z</time>
      </trkpt>
      <trkpt lat="49.4096" lon="2.91798">
        <ele>45</ele>
        <time>2019-06-23T06:26:33Z</time>
      </trkpt>
      <trkpt lat="49.40956" lon="2.91805">
        <ele>45</ele>
        <time>2019-06-23T06:26:34Z</time>
      </trkpt>
      <trkpt lat="49.40933" lon="2.91854">
        <ele>44</ele>
        <time>2019-06-23T06:26:41Z</time>
      </trkpt>
      <trkpt lat="49.4093" lon="2.91858">
        <ele>44</ele>
        <time>2019-06-23T06:26:42Z</time>
      </trkpt>
      <trkpt lat="49.40905" lon="2.9191">
        <ele>45</ele>
        <time>2019-06-23T06:26:50Z</time>
      </trkpt>
      <trkpt lat="49.40889" lon="2.91945">
        <ele>46</ele>
        <time>2019-06-23T06:26:56Z</time>
      </trkpt>
      <trkpt lat="49.40883" lon="2.91956">
        <ele>47</ele>
        <time>2019-06-23T06:26:58Z</time>
      </trkpt>
      <trkpt lat="49.40848" lon="2.92017">
        <ele>51</ele>
        <time>2019-06-23T06:27:12Z</time>
      </trkpt>
      <trkpt lat="49.40846" lon="2.92019">
        <ele>52</ele>
        <time>2019-06-23T06:27:13Z</time>
      </trkpt>
      <trkpt lat="49.40844" lon="2.92022">
        <ele>52</ele>
        <time>2019-06-23T06:27:14Z</time>
      </trkpt>
      <trkpt lat="49.40842" lon="2.92024">
        <ele>52</ele>
        <time>2019-06-23T06:27:15Z</time>
      </trkpt>
      <trkpt lat="49.4082" lon="2.92053">
        <ele>57</ele>
        <time>2019-06-23T06:27:26Z</time>
      </trkpt>
      <trkpt lat="49.40817" lon="2.92081">
        <ele>57</ele>
        <time>2019-06-23T06:27:34Z</time>
      </trkpt>
      <trkpt lat="49.40819" lon="2.92084">
        <ele>58</ele>
        <time>2019-06-23T06:27:35Z</time>
      </trkpt>
      <trkpt lat="49.40819" lon="2.92087">
        <ele>58</ele>
        <time>2019-06-23T06:27:36Z</time>
      </trkpt>
      <trkpt lat="49.40828" lon="2.92102">
        <ele>58</ele>
        <time>2019-06-23T06:27:45Z</time>
      </trkpt>
      <trkpt lat="49.4083" lon="2.92105">
        <ele>58</ele>
        <time>2019-06-23T06:27:47Z</time>
      </trkpt>
      <trkpt lat="49.40834" lon="2.92109">
        <ele>57</ele>
        <time>2019-06-23T06:27:52Z</time>
      </trkpt>
      <trkpt lat="49.4084" lon="2.92132">
        <ele>58</ele>
        <time>2019-06-23T06:28:04Z</time>
      </trkpt>
      <trkpt lat="49.40852" lon="2.92151">
        <ele>58</ele>
        <time>2019-06-23T06:28:13Z</time>
      </trkpt>
      <trkpt lat="49.4086" lon="2.92179">
        <ele>63</ele>
        <time>2019-06-23T06:28:24Z</time>
      </trkpt>
      <trkpt lat="49.40865" lon="2.92197">
        <ele>64</ele>
        <time>2019-06-23T06:28:31Z</time>
      </trkpt>
      <trkpt lat="49.40869" lon="2.92205">
        <ele>64</ele>
        <time>2019-06-23T06:28:34Z</time>
      </trkpt>
      <trkpt lat="49.40871" lon="2.92209">
        <ele>65</ele>
        <time>2019-06-23T06:28:36Z</time>
      </trkpt>
      <trkpt lat="49.40878" lon="2.92216">
        <ele>65</ele>
        <time>2019-06-23T06:28:41Z</time>
      </trkpt>
      <trkpt lat="49.4089" lon="2.92241">
        <ele>66</ele>
        <time>2019-06-23T06:28:51Z</time>
      </trkpt>
      <trkpt lat="49.40893" lon="2.92246">
        <ele>67</ele>
        <time>2019-06-23T06:28:54Z</time>
      </trkpt>
      <trkpt lat="49.40905" lon="2.92266">
        <ele>72</ele>
        <time>2019-06-23T06:29:04Z</time>
      </trkpt>
      <trkpt lat="49.40915" lon="2.92284">
        <ele>74</ele>
        <time>2019-06-23T06:29:14Z</time>
      </trkpt>
      <trkpt lat="49.40927" lon="2.92299">
        <ele>72</ele>
        <time>2019-06-23T06:29:22Z</time>
      </trkpt>
      <trkpt lat="49.40935" lon="2.92312">
        <ele>73</ele>
        <time>2019-06-23T06:29:29Z</time>
      </trkpt>
      <trkpt lat="49.40953" lon="2.92329">
        <ele>72</ele>
        <time>2019-06-23T06:29:36Z</time>
      </trkpt>
      <trkpt lat="49.4097" lon="2.92356">
        <ele>77</ele>
        <time>2019-06-23T06:29:46Z</time>
      </trkpt>
      <trkpt lat="49.40973" lon="2.9236">
        <ele>77</ele>
        <time>2019-06-23T06:29:48Z</time>
      </trkpt>
      <trkpt lat="49.40994" lon="2.92397">
        <ele>79</ele>
        <time>2019-06-23T06:29:59Z</time>
      </trkpt>
      <trkpt lat="49.41013" lon="2.92432">
        <ele>77</ele>
        <time>2019-06-23T06:30:11Z</time>
      </trkpt>
      <trkpt lat="49.41013" lon="2.92457">
        <ele>76</ele>
        <time>2019-06-23T06:30:20Z</time>
      </trkpt>
      <trkpt lat="49.41009" lon="2.92456">
        <ele>77</ele>
        <time>2019-06-23T06:30:24Z</time>
      </trkpt>
      <trkpt lat="49.40999" lon="2.92445">
        <ele>84</ele>
        <time>2019-06-23T06:30:32Z</time>
      </trkpt>
      <trkpt lat="49.40981" lon="2.92433">
        <ele>84</ele>
        <time>2019-06-23T06:30:42Z</time>
      </trkpt>
      <trkpt lat="49.40966" lon="2.92428">
        <ele>86</ele>
        <time>2019-06-23T06:30:48Z</time>
      </trkpt>
      <trkpt lat="49.40944" lon="2.92423">
        <ele>88</ele>
        <time>2019-06-23T06:30:59Z</time>
      </trkpt>
      <trkpt lat="49.40937" lon="2.92421">
        <ele>88</ele>
        <time>2019-06-23T06:31:03Z</time>
      </trkpt>
      <trkpt lat="49.40921" lon="2.92412">
        <ele>87</ele>
        <time>2019-06-23T06:31:15Z</time>
      </trkpt>
      <trkpt lat="49.40918" lon="2.92411">
        <ele>87</ele>
        <time>2019-06-23T06:31:17Z</time>
      </trkpt>
      <trkpt lat="49.40911" lon="2.92411">
        <ele>89</ele>
        <time>2019-06-23T06:31:25Z</time>
      </trkpt>
      <trkpt lat="49.40909" lon="2.92411">
        <ele>89</ele>
        <time>2019-06-23T06:31:30Z</time>
      </trkpt>
      <trkpt lat="49.40899" lon="2.92411">
        <ele>89</ele>
        <time>2019-06-23T06:31:37Z</time>
      </trkpt>
      <trkpt lat="49.40883" lon="2.92407">
        <ele>89</ele>
        <time>2019-06-23T06:31:48Z</time>
      </trkpt>
      <trkpt lat="49.40864" lon="2.92401">
        <ele>90</ele>
        <time>2019-06-23T06:31:58Z</time>
      </trkpt>
      <trkpt lat="49.40857" lon="2.924">
        <ele>91</ele>
        <time>2019-06-23T06:32:05Z</time>
      </trkpt>
      <trkpt lat="49.40851" lon="2.92399">
        <ele>92</ele>
        <time>2019-06-23T06:32:08Z</time>
      </trkpt>
      <trkpt lat="49.40832" lon="2.92396">
        <ele>96</ele>
        <time>2019-06-23T06:32:20Z</time>
      </trkpt>
      <trkpt lat="49.40829" lon="2.92394">
        <ele>96</ele>
        <time>2019-06-23T06:32:29Z</time>
      </trkpt>
      <trkpt lat="49.40825" lon="2.92393">
        <ele>95</ele>
        <time>2019-06-23T06:32:44Z</time>
      </trkpt>
      <trkpt lat="49.4082" lon="2.92399">
        <ele>96</ele>
        <time>2019-06-23T06:32:55Z</time>
      </trkpt>
      <trkpt lat="49.40812" lon="2.92404">
        <ele>96</ele>
        <time>2019-06-23T06:33:07Z</time>
      </trkpt>
      <trkpt lat="49.40812" lon="2.92407">
        <ele>96</ele>
        <time>2019-06-23T06:33:24Z</time>
      </trkpt>
      <trkpt lat="49.40808" lon="2.92409">
        <ele>96</ele>
        <time>2019-06-23T06:33:34Z</time>
      </trkpt>
      <trkpt lat="49.40798" lon="2.92413">
        <ele>97</ele>
        <time>2019-06-23T06:33:43Z</time>
      </trkpt>
      <trkpt lat="49.40795" lon="2.92412">
        <ele>97</ele>
        <time>2019-06-23T06:33:46Z</time>
      </trkpt>
      <trkpt lat="49.40785" lon="2.92416">
        <ele>97</ele>
        <time>2019-06-23T06:33:57Z</time>
      </trkpt>
      <trkpt lat="49.40783" lon="2.92416">
        <ele>97</ele>
        <time>2019-06-23T06:34:06Z</time>
      </trkpt>
      <trkpt lat="49.4078" lon="2.9242">
        <ele>108</ele>
        <time>2019-06-23T06:34:14Z</time>
      </trkpt>
      <trkpt lat="49.40763" lon="2.92419">
        <ele>107</ele>
        <time>2019-06-23T06:34:25Z</time>
      </trkpt>
      <trkpt lat="49.40754" lon="2.92422">
        <ele>106</ele>
        <time>2019-06-23T06:34:37Z</time>
      </trkpt>
      <trkpt lat="49.4075" lon="2.92426">
        <ele>108</ele>
        <time>2019-06-23T06:34:47Z</time>
      </trkpt>
      <trkpt lat="49.40739" lon="2.92427">
        <ele>109</ele>
        <time>2019-06-23T06:34:58Z</time>
      </trkpt>
      <trkpt lat="49.4073" lon="2.92434">
        <ele>110</ele>
        <time>2019-06-23T06:35:10Z</time>
      </trkpt>
      <trkpt lat="49.40728" lon="2.92435">
        <ele>110</ele>
        <time>2019-06-23T06:35:25Z</time>
      </trkpt>
      <trkpt lat="49.40724" lon="2.92442">
        <ele>111</ele>
        <time>2019-06-23T06:35:39Z</time>
      </trkpt>
      <trkpt lat="49.40718" lon="2.92446">
        <ele>112</ele>
        <time>2019-06-23T06:35:47Z</time>
      </trkpt>
      <trkpt lat="49.40713" lon="2.9245">
        <ele>112</ele>
        <time>2019-06-23T06:36:02Z</time>
      </trkpt>
      <trkpt lat="49.40713" lon="2.92451">
        <ele>112</ele>
        <time>2019-06-23T06:36:04Z</time>
      </trkpt>
      <trkpt lat="49.40707" lon="2.92453">
        <ele>112</ele>
        <time>2019-06-23T06:36:11Z</time>
      </trkpt>
      <trkpt lat="49.40701" lon="2.92458">
        <ele>113</ele>
        <time>2019-06-23T06:36:22Z</time>
      </trkpt>
      <trkpt lat="49.40698" lon="2.92462">
        <ele>113</ele>
        <time>2019-06-23T06:36:26Z</time>
      </trkpt>
      <trkpt lat="49.4069" lon="2.92464">
        <ele>114</ele>
        <time>2019-06-23T06:36:36Z</time>
      </trkpt>
      <trkpt lat="49.40688" lon="2.92466">
        <ele>114</ele>
        <time>2019-06-23T06:36:38Z</time>
      </trkpt>
      <trkpt lat="49.40681" lon="2.92473">
        <ele>115</ele>
        <time>2019-06-23T06:36:46Z</time>
      </trkpt>
      <trkpt lat="49.40672" lon="2.92489">
        <ele>118</ele>
        <time>2019-06-23T06:36:59Z</time>
      </trkpt>
      <trkpt lat="49.40671" lon="2.9249">
        <ele>119</ele>
        <time>2019-06-23T06:37:00Z</time>
      </trkpt>
      <trkpt lat="49.4067" lon="2.92492">
        <ele>119</ele>
        <time>2019-06-23T06:37:02Z</time>
      </trkpt>
      <trkpt lat="49.40659" lon="2.92509">
        <ele>122</ele>
        <time>2019-06-23T06:37:17Z</time>
      </trkpt>
      <trkpt lat="49.40645" lon="2.92513">
        <ele>122</ele>
        <time>2019-06-23T06:37:29Z</time>
      </trkpt>
      <trkpt lat="49.40629" lon="2.92519">
        <ele>122</ele>
        <time>2019-06-23T06:37:43Z</time>
      </trkpt>
      <trkpt lat="49.40616" lon="2.92525">
        <ele>122</ele>
        <time>2019-06-23T06:37:52Z</time>
      </trkpt>
      <trkpt lat="49.40591" lon="2.92529">
        <ele>121</ele>
        <time>2019-06-23T06:38:04Z</time>
      </trkpt>
      <trkpt lat="49.40553" lon="2.92535">
        <ele>120</ele>
        <time>2019-06-23T06:38:16Z</time>
      </trkpt>
      <trkpt lat="49.40511" lon="2.92537">
        <ele>120</ele>
        <time>2019-06-23T06:38:28Z</time>
      </trkpt>
      <trkpt lat="49.40498" lon="2.92538">
        <ele>119</ele>
        <time>2019-06-23T06:38:31Z</time>
      </trkpt>
      <trkpt lat="49.40474" lon="2.92539">
        <ele>119</ele>
        <time>2019-06-23T06:38:36Z</time>
      </trkpt>
      <trkpt lat="49.40405" lon="2.92539">
        <ele>118</ele>
        <time>2019-06-23T06:38:50Z</time>
      </trkpt>
      <trkpt lat="49.40364" lon="2.92539">
        <ele>118</ele>
        <time>2019-06-23T06:38:58Z</time>
      </trkpt>
      <trkpt lat="49.40297" lon="2.92519">
        <ele>119</ele>
        <time>2019-06-23T06:39:11Z</time>
      </trkpt>
      <trkpt lat="49.40262" lon="2.92509">
        <ele>119</ele>
        <time>2019-06-23T06:39:19Z</time>
      </trkpt>
      <trkpt lat="49.4024" lon="2.92501">
        <ele>120</ele>
        <time>2019-06-23T06:39:26Z</time>
      </trkpt>
      <trkpt lat="49.4021" lon="2.92498">
        <ele>113</ele>
        <time>2019-06-23T06:39:33Z</time>
      </trkpt>
      <trkpt lat="49.40202" lon="2.92498">
        <ele>113</ele>
        <time>2019-06-23T06:39:35Z</time>
      </trkpt>
      <trkpt lat="49.4016" lon="2.92516">
        <ele>119</ele>
        <time>2019-06-23T06:39:46Z</time>
      </trkpt>
      <trkpt lat="49.40131" lon="2.92539">
        <ele>120</ele>
        <time>2019-06-23T06:39:55Z</time>
      </trkpt>
      <trkpt lat="49.40094" lon="2.92579">
        <ele>123</ele>
        <time>2019-06-23T06:40:07Z</time>
      </trkpt>
      <trkpt lat="49.40051" lon="2.92618">
        <ele>124</ele>
        <time>2019-06-23T06:40:19Z</time>
      </trkpt>
      <trkpt lat="49.40034" lon="2.92635">
        <ele>124</ele>
        <time>2019-06-23T06:40:23Z</time>
      </trkpt>
      <trkpt lat="49.40022" lon="2.92649">
        <ele>125</ele>
        <time>2019-06-23T06:40:26Z</time>
      </trkpt>
      <trkpt lat="49.4" lon="2.92671">
        <ele>127</ele>
        <time>2019-06-23T06:40:31Z</time>
      </trkpt>
      <trkpt lat="49.39965" lon="2.927">
        <ele>123</ele>
        <time>2019-06-23T06:40:38Z</time>
      </trkpt>
      <trkpt lat="49.3995" lon="2.92704">
        <ele>122</ele>
        <time>2019-06-23T06:40:43Z</time>
      </trkpt>
      <trkpt lat="49.39944" lon="2.92708">
        <ele>122</ele>
        <time>2019-06-23T06:40:45Z</time>
      </trkpt>
      <trkpt lat="49.39923" lon="2.92721">
        <ele>122</ele>
        <time>2019-06-23T06:40:55Z</time>
      </trkpt>
      <trkpt lat="49.39921" lon="2.92719">
        <ele>122</ele>
        <time>2019-06-23T06:40:56Z</time>
      </trkpt>
      <trkpt lat="49.39924" lon="2.92669">
        <ele>116</ele>
        <time>2019-06-23T06:41:04Z</time>
      </trkpt>
      <trkpt lat="49.39936" lon="2.92618">
        <ele>111</ele>
        <time>2019-06-23T06:41:10Z</time>
      </trkpt>
      <trkpt lat="49.39941" lon="2.92579">
        <ele>102</ele>
        <time>2019-06-23T06:41:15Z</time>
      </trkpt>
      <trkpt lat="49.39953" lon="2.92542">
        <ele>102</ele>
        <time>2019-06-23T06:41:20Z</time>
      </trkpt>
      <trkpt lat="49.39964" lon="2.9248">
        <ele>92</ele>
        <time>2019-06-23T06:41:26Z</time>
      </trkpt>
      <trkpt lat="49.39976" lon="2.92454">
        <ele>91</ele>
        <time>2019-06-23T06:41:30Z</time>
      </trkpt>
      <trkpt lat="49.39972" lon="2.92416">
        <ele>83</ele>
        <time>2019-06-23T06:41:37Z</time>
      </trkpt>
      <trkpt lat="49.39945" lon="2.92379">
        <ele>78</ele>
        <time>2019-06-23T06:41:44Z</time>
      </trkpt>
      <trkpt lat="49.39925" lon="2.92366">
        <ele>76</ele>
        <time>2019-06-23T06:41:50Z</time>
      </trkpt>
      <trkpt lat="49.3991" lon="2.9238">
        <ele>70</ele>
        <time>2019-06-23T06:41:55Z</time>
      </trkpt>
      <trkpt lat="49.39888" lon="2.92403">
        <ele>71</ele>
        <time>2019-06-23T06:42:01Z</time>
      </trkpt>
      <trkpt lat="49.39879" lon="2.92417">
        <ele>75</ele>
        <time>2019-06-23T06:42:04Z</time>
      </trkpt>
      <trkpt lat="49.39868" lon="2.9243">
        <ele>75</ele>
        <time>2019-06-23T06:42:07Z</time>
      </trkpt>
      <trkpt lat="49.39861" lon="2.92439">
        <ele>75</ele>
        <time>2019-06-23T06:42:09Z</time>
      </trkpt>
      <trkpt lat="49.3983" lon="2.92474">
        <ele>69</ele>
        <time>2019-06-23T06:42:19Z</time>
      </trkpt>
      <trkpt lat="49.39796" lon="2.92517">
        <ele>74</ele>
        <time>2019-06-23T06:42:30Z</time>
      </trkpt>
      <trkpt lat="49.39785" lon="2.92527">
        <ele>74</ele>
        <time>2019-06-23T06:42:33Z</time>
      </trkpt>
      <trkpt lat="49.39778" lon="2.92539">
        <ele>74</ele>
        <time>2019-06-23T06:42:37Z</time>
      </trkpt>
      <trkpt lat="49.39752" lon="2.926">
        <ele>79</ele>
        <time>2019-06-23T06:42:51Z</time>
      </trkpt>
      <trkpt lat="49.39732" lon="2.92659">
        <ele>76</ele>
        <time>2019-06-23T06:43:02Z</time>
      </trkpt>
      <trkpt lat="49.39716" lon="2.92705">
        <ele>77</ele>
        <time>2019-06-23T06:43:10Z</time>
      </trkpt>
      <trkpt lat="49.39711" lon="2.92719">
        <ele>77</ele>
        <time>2019-06-23T06:43:12Z</time>
      </trkpt>
      <trkpt lat="49.39693" lon="2.92773">
        <ele>78</ele>
        <time>2019-06-23T06:43:21Z</time>
      </trkpt>
      <trkpt lat="49.39677" lon="2.92822">
        <ele>77</ele>
        <time>2019-06-23T06:43:29Z</time>
      </trkpt>
      <trkpt lat="49.39674" lon="2.92828">
        <ele>76</ele>
        <time>2019-06-23T06:43:30Z</time>
      </trkpt>
      <trkpt lat="49.39652" lon="2.92897">
        <ele>70</ele>
        <time>2019-06-23T06:43:41Z</time>
      </trkpt>
      <trkpt lat="49.39646" lon="2.92913">
        <ele>70</ele>
        <time>2019-06-23T06:43:44Z</time>
      </trkpt>
      <trkpt lat="49.39631" lon="2.92959">
        <ele>68</ele>
        <time>2019-06-23T06:43:51Z</time>
      </trkpt>
      <trkpt lat="49.39619" lon="2.93016">
        <ele>67</ele>
        <time>2019-06-23T06:44:01Z</time>
      </trkpt>
      <trkpt lat="49.39619" lon="2.93022">
        <ele>67</ele>
        <time>2019-06-23T06:44:02Z</time>
      </trkpt>
      <trkpt lat="49.3963" lon="2.93084">
        <ele>69</ele>
        <time>2019-06-23T06:44:13Z</time>
      </trkpt>
      <trkpt lat="49.39641" lon="2.93123">
        <ele>71</ele>
        <time>2019-06-23T06:44:21Z</time>
      </trkpt>
      <trkpt lat="49.39654" lon="2.93166">
        <ele>74</ele>
        <time>2019-06-23T06:44:31Z</time>
      </trkpt>
      <trkpt lat="49.39656" lon="2.93178">
        <ele>74</ele>
        <time>2019-06-23T06:44:34Z</time>
      </trkpt>
      <trkpt lat="49.39659" lon="2.93189">
        <ele>73</ele>
        <time>2019-06-23T06:44:38Z</time>
      </trkpt>
      <trkpt lat="49.39661" lon="2.93196">
        <ele>72</ele>
        <time>2019-06-23T06:44:40Z</time>
      </trkpt>
      <trkpt lat="49.39662" lon="2.93202">
        <ele>72</ele>
        <time>2019-06-23T06:44:43Z</time>
      </trkpt>
      <trkpt lat="49.39668" lon="2.93224">
        <ele>78</ele>
        <time>2019-06-23T06:44:50Z</time>
      </trkpt>
      <trkpt lat="49.39672" lon="2.93253">
        <ele>75</ele>
        <time>2019-06-23T06:44:58Z</time>
      </trkpt>
      <trkpt lat="49.39677" lon="2.93276">
        <ele>75</ele>
        <time>2019-06-23T06:45:04Z</time>
      </trkpt>
      <trkpt lat="49.39684" lon="2.93314">
        <ele>73</ele>
        <time>2019-06-23T06:45:10Z</time>
      </trkpt>
      <trkpt lat="49.39674" lon="2.93342">
        <ele>69</ele>
        <time>2019-06-23T06:45:15Z</time>
      </trkpt>
      <trkpt lat="49.39663" lon="2.93364">
        <ele>65</ele>
        <time>2019-06-23T06:45:21Z</time>
      </trkpt>
      <trkpt lat="49.39639" lon="2.93402">
        <ele>63</ele>
        <time>2019-06-23T06:45:32Z</time>
      </trkpt>
      <trkpt lat="49.39618" lon="2.93402">
        <ele>62</ele>
        <time>2019-06-23T06:45:39Z</time>
      </trkpt>
      <trkpt lat="49.39613" lon="2.93399">
        <ele>62</ele>
        <time>2019-06-23T06:45:41Z</time>
      </trkpt>
      <trkpt lat="49.39576" lon="2.93404">
        <ele>57</ele>
        <time>2019-06-23T06:45:49Z</time>
      </trkpt>
      <trkpt lat="49.39554" lon="2.93416">
        <ele>55</ele>
        <time>2019-06-23T06:45:56Z</time>
      </trkpt>
      <trkpt lat="49.39542" lon="2.93397">
        <ele>54</ele>
        <time>2019-06-23T06:46:02Z</time>
      </trkpt>
      <trkpt lat="49.39536" lon="2.93361">
        <ele>54</ele>
        <time>2019-06-23T06:46:07Z</time>
      </trkpt>
      <trkpt lat="49.39532" lon="2.93311">
        <ele>54</ele>
        <time>2019-06-23T06:46:13Z</time>
      </trkpt>
      <trkpt lat="49.39514" lon="2.93285">
        <ele>53</ele>
        <time>2019-06-23T06:46:18Z</time>
      </trkpt>
      <trkpt lat="49.39458" lon="2.93266">
        <ele>48</ele>
        <time>2019-06-23T06:46:28Z</time>
      </trkpt>
      <trkpt lat="49.39436" lon="2.9326">
        <ele>48</ele>
        <time>2019-06-23T06:46:32Z</time>
      </trkpt>
      <trkpt lat="49.39363" lon="2.93267">
        <ele>48</ele>
        <time>2019-06-23T06:46:46Z</time>
      </trkpt>
      <trkpt lat="49.39349" lon="2.93268">
        <ele>48</ele>
        <time>2019-06-23T06:46:49Z</time>
      </trkpt>
      <trkpt lat="49.393" lon="2.93275">
        <ele>49</ele>
        <time>2019-06-23T06:47:01Z</time>
      </trkpt>
      <trkpt lat="49.39289" lon="2.93277">
        <ele>49</ele>
        <time>2019-06-23T06:47:04Z</time>
      </trkpt>
      <trkpt lat="49.39258" lon="2.933">
        <ele>49</ele>
        <time>2019-06-23T06:47:13Z</time>
      </trkpt>
      <trkpt lat="49.39243" lon="2.93315">
        <ele>50</ele>
        <time>2019-06-23T06:47:17Z</time>
      </trkpt>
      <trkpt lat="49.39189" lon="2.93374">
        <ele>48</ele>
        <time>2019-06-23T06:47:31Z</time>
      </trkpt>
      <trkpt lat="49.39171" lon="2.93388">
        <ele>48</ele>
        <time>2019-06-23T06:47:35Z</time>
      </trkpt>
      <trkpt lat="49.39149" lon="2.93412">
        <ele>50</ele>
        <time>2019-06-23T06:47:41Z</time>
      </trkpt>
      <trkpt lat="49.39128" lon="2.93458">
        <ele>50</ele>
        <time>2019-06-23T06:47:49Z</time>
      </trkpt>
      <trkpt lat="49.39116" lon="2.935">
        <ele>50</ele>
        <time>2019-06-23T06:47:56Z</time>
      </trkpt>
      <trkpt lat="49.39107" lon="2.93522">
        <ele>49</ele>
        <time>2019-06-23T06:48:00Z</time>
      </trkpt>
      <trkpt lat="49.39099" lon="2.93538">
        <ele>49</ele>
        <time>2019-06-23T06:48:03Z</time>
      </trkpt>
      <trkpt lat="49.39082" lon="2.93569">
        <ele>51</ele>
        <time>2019-06-23T06:48:09Z</time>
      </trkpt>
      <trkpt lat="49.39073" lon="2.93589">
        <ele>50</ele>
        <time>2019-06-23T06:48:13Z</time>
      </trkpt>
      <trkpt lat="49.39067" lon="2.936">
        <ele>50</ele>
        <time>2019-06-23T06:48:15Z</time>
      </trkpt>
      <trkpt lat="49.39056" lon="2.93621">
        <ele>50</ele>
        <time>2019-06-23T06:48:19Z</time>
      </trkpt>
      <trkpt lat="49.39036" lon="2.93661">
        <ele>50</ele>
        <time>2019-06-23T06:48:26Z</time>
      </trkpt>
      <trkpt lat="49.39032" lon="2.93674">
        <ele>50</ele>
        <time>2019-06-23T06:48:28Z</time>
      </trkpt>
      <trkpt lat="49.39026" lon="2.93694">
        <ele>50</ele>
        <time>2019-06-23T06:48:31Z</time>
      </trkpt>
      <trkpt lat="49.39014" lon="2.93738">
        <ele>51</ele>
        <time>2019-06-23T06:48:37Z</time>
      </trkpt>
      <trkpt lat="49.39005" lon="2.93772">
        <ele>51</ele>
        <time>2019-06-23T06:48:42Z</time>
      </trkpt>
      <trkpt lat="49.38989" lon="2.93769">
        <ele>54</ele>
        <time>2019-06-23T06:48:47Z</time>
      </trkpt>
      <trkpt lat="49.38982" lon="2.93762">
        <ele>54</ele>
        <time>2019-06-23T06:48:49Z</time>
      </trkpt>
      <trkpt lat="49.38931" lon="2.93719">
        <ele>55</ele>
        <time>2019-06-23T06:49:02Z</time>
      </trkpt>
      <trkpt lat="49.38887" lon="2.93681">
        <ele>54</ele>
        <time>2019-06-23T06:49:14Z</time>
      </trkpt>
      <trkpt lat="49.38869" lon="2.93697">
        <ele>54</ele>
        <time>2019-06-23T06:49:22Z</time>
      </trkpt>
      <trkpt lat="49.3887" lon="2.93697">
        <ele>54</ele>
        <time>2019-06-23T06:49:24Z</time>
      </trkpt>
      <trkpt lat="49.38871" lon="2.93692">
        <ele>54</ele>
        <time>2019-06-23T06:49:27Z</time>
      </trkpt>
      <trkpt lat="49.38863" lon="2.937">
        <ele>54</ele>
        <time>2019-06-23T06:49:32Z</time>
      </trkpt>
      <trkpt lat="49.38851" lon="2.93729">
        <ele>55</ele>
        <time>2019-06-23T06:49:39Z</time>
      </trkpt>
      <trkpt lat="49.38842" lon="2.93746">
        <ele>55</ele>
        <time>2019-06-23T06:49:45Z</time>
      </trkpt>
      <trkpt lat="49.38807" lon="2.93765">
        <ele>55</ele>
        <time>2019-06-23T06:49:56Z</time>
      </trkpt>
      <trkpt lat="49.38791" lon="2.93773">
        <ele>55</ele>
        <time>2019-06-23T06:50:00Z</time>
      </trkpt>
      <trkpt lat="49.38773" lon="2.93778">
        <ele>55</ele>
        <time>2019-06-23T06:50:05Z</time>
      </trkpt>
      <trkpt lat="49.38744" lon="2.93787">
        <ele>54</ele>
        <time>2019-06-23T06:50:13Z</time>
      </trkpt>
      <trkpt lat="49.38722" lon="2.93793">
        <ele>54</ele>
        <time>2019-06-23T06:50:18Z</time>
      </trkpt>
      <trkpt lat="49.387" lon="2.93797">
        <ele>55</ele>
        <time>2019-06-23T06:50:23Z</time>
      </trkpt>
      <trkpt lat="49.38686" lon="2.938">
        <ele>55</ele>
        <time>2019-06-23T06:50:26Z</time>
      </trkpt>
      <trkpt lat="49.38631" lon="2.93816">
        <ele>55</ele>
        <time>2019-06-23T06:50:37Z</time>
      </trkpt>
      <trkpt lat="49.38616" lon="2.93818">
        <ele>55</ele>
        <time>2019-06-23T06:50:40Z</time>
      </trkpt>
      <trkpt lat="49.38592" lon="2.93825">
        <ele>54</ele>
        <time>2019-06-23T06:50:45Z</time>
      </trkpt>
      <trkpt lat="49.38576" lon="2.93828">
        <ele>54</ele>
        <time>2019-06-23T06:50:48Z</time>
      </trkpt>
      <trkpt lat="49.38565" lon="2.93831">
        <ele>54</ele>
        <time>2019-06-23T06:50:50Z</time>
      </trkpt>
      <trkpt lat="49.3853" lon="2.93839">
        <ele>53</ele>
        <time>2019-06-23T06:50:57Z</time>
      </trkpt>
      <trkpt lat="49.38504" lon="2.93853">
        <ele>53</ele>
        <time>2019-06-23T06:51:03Z</time>
      </trkpt>
      <trkpt lat="49.38487" lon="2.93866">
        <ele>53</ele>
        <time>2019-06-23T06:51:07Z</time>
      </trkpt>
      <trkpt lat="49.3846" lon="2.93892">
        <ele>53</ele>
        <time>2019-06-23T06:51:13Z</time>
      </trkpt>
      <trkpt lat="49.38417" lon="2.93934">
        <ele>53</ele>
        <time>2019-06-23T06:51:23Z</time>
      </trkpt>
      <trkpt lat="49.38405" lon="2.93945">
        <ele>52</ele>
        <time>2019-06-23T06:51:26Z</time>
      </trkpt>
      <trkpt lat="49.38388" lon="2.93959">
        <ele>53</ele>
        <time>2019-06-23T06:51:30Z</time>
      </trkpt>
      <trkpt lat="49.38363" lon="2.93982">
        <ele>52</ele>
        <time>2019-06-23T06:51:36Z</time>
      </trkpt>
      <trkpt lat="49.38354" lon="2.93989">
        <ele>52</ele>
        <time>2019-06-23T06:51:38Z</time>
      </trkpt>
      <trkpt lat="49.38343" lon="2.94003">
        <ele>52</ele>
        <time>2019-06-23T06:51:41Z</time>
      </trkpt>
      <trkpt lat="49.38326" lon="2.94018">
        <ele>52</ele>
        <time>2019-06-23T06:51:45Z</time>
      </trkpt>
      <trkpt lat="49.38309" lon="2.94033">
        <ele>52</ele>
        <time>2019-06-23T06:51:49Z</time>
      </trkpt>
      <trkpt lat="49.38291" lon="2.94047">
        <ele>52</ele>
        <time>2019-06-23T06:51:53Z</time>
      </trkpt>
      <trkpt lat="49.38283" lon="2.94056">
        <ele>52</ele>
        <time>2019-06-23T06:51:55Z</time>
      </trkpt>
      <trkpt lat="49.38275" lon="2.94066">
        <ele>52</ele>
        <time>2019-06-23T06:51:57Z</time>
      </trkpt>
      <trkpt lat="49.38249" lon="2.94093">
        <ele>53</ele>
        <time>2019-06-23T06:52:03Z</time>
      </trkpt>
      <trkpt lat="49.38237" lon="2.94107">
        <ele>54</ele>
        <time>2019-06-23T06:52:06Z</time>
      </trkpt>
      <trkpt lat="49.382" lon="2.9414">
        <ele>56</ele>
        <time>2019-06-23T06:52:15Z</time>
      </trkpt>
      <trkpt lat="49.38185" lon="2.94154">
        <ele>58</ele>
        <time>2019-06-23T06:52:19Z</time>
      </trkpt>
      <trkpt lat="49.38165" lon="2.94171">
        <ele>62</ele>
        <time>2019-06-23T06:52:26Z</time>
      </trkpt>
      <trkpt lat="49.38129" lon="2.9418">
        <ele>64</ele>
        <time>2019-06-23T06:52:37Z</time>
      </trkpt>
      <trkpt lat="49.38071" lon="2.94198">
        <ele>65</ele>
        <time>2019-06-23T06:52:52Z</time>
      </trkpt>
      <trkpt lat="49.3803" lon="2.9422">
        <ele>65</ele>
        <time>2019-06-23T06:53:04Z</time>
      </trkpt>
      <trkpt lat="49.37988" lon="2.94239">
        <ele>65</ele>
        <time>2019-06-23T06:53:16Z</time>
      </trkpt>
      <trkpt lat="49.37961" lon="2.94277">
        <ele>69</ele>
        <time>2019-06-23T06:53:27Z</time>
      </trkpt>
      <trkpt lat="49.37949" lon="2.94284">
        <ele>70</ele>
        <time>2019-06-23T06:53:32Z</time>
      </trkpt>
      <trkpt lat="49.37913" lon="2.9428">
        <ele>77</ele>
        <time>2019-06-23T06:53:43Z</time>
      </trkpt>
      <trkpt lat="49.37898" lon="2.94289">
        <ele>78</ele>
        <time>2019-06-23T06:53:53Z</time>
      </trkpt>
      <trkpt lat="49.37883" lon="2.94318">
        <ele>80</ele>
        <time>2019-06-23T06:54:05Z</time>
      </trkpt>
      <trkpt lat="49.37875" lon="2.94346">
        <ele>84</ele>
        <time>2019-06-23T06:54:15Z</time>
      </trkpt>
      <trkpt lat="49.37869" lon="2.94365">
        <ele>85</ele>
        <time>2019-06-23T06:54:26Z</time>
      </trkpt>
      <trkpt lat="49.37867" lon="2.94374">
        <ele>86</ele>
        <time>2019-06-23T06:54:31Z</time>
      </trkpt>
      <trkpt lat="49.3786" lon="2.94385">
        <ele>87</ele>
        <time>2019-06-23T06:54:39Z</time>
      </trkpt>
      <trkpt lat="49.37858" lon="2.94404">
        <ele>88</ele>
        <time>2019-06-23T06:54:50Z</time>
      </trkpt>
      <trkpt lat="49.37858" lon="2.94408">
        <ele>88</ele>
        <time>2019-06-23T06:54:53Z</time>
      </trkpt>
      <trkpt lat="49.37853" lon="2.94415">
        <ele>89</ele>
        <time>2019-06-23T06:54:57Z</time>
      </trkpt>
      <trkpt lat="49.37847" lon="2.94426">
        <ele>93</ele>
        <time>2019-06-23T06:55:04Z</time>
      </trkpt>
      <trkpt lat="49.37843" lon="2.94438">
        <ele>93</ele>
        <time>2019-06-23T06:55:09Z</time>
      </trkpt>
      <trkpt lat="49.3784" lon="2.94445">
        <ele>93</ele>
        <time>2019-06-23T06:55:13Z</time>
      </trkpt>
      <trkpt lat="49.37839" lon="2.94455">
        <ele>93</ele>
        <time>2019-06-23T06:55:18Z</time>
      </trkpt>
      <trkpt lat="49.37834" lon="2.94462">
        <ele>93</ele>
        <time>2019-06-23T06:55:31Z</time>
      </trkpt>
      <trkpt lat="49.3783" lon="2.94475">
        <ele>104</ele>
        <time>2019-06-23T06:55:42Z</time>
      </trkpt>
      <trkpt lat="49.37827" lon="2.9448">
        <ele>104</ele>
        <time>2019-06-23T06:55:46Z</time>
      </trkpt>
      <trkpt lat="49.37823" lon="2.94485">
        <ele>104</ele>
        <time>2019-06-23T06:55:52Z</time>
      </trkpt>
      <trkpt lat="49.37819" lon="2.94501">
        <ele>107</ele>
        <time>2019-06-23T06:56:04Z</time>
      </trkpt>
      <trkpt lat="49.3782" lon="2.94506">
        <ele>107</ele>
        <time>2019-06-23T06:56:14Z</time>
      </trkpt>
      <trkpt lat="49.3782" lon="2.94506">
        <ele>107</ele>
        <time>2019-06-23T06:56:17Z</time>
      </trkpt>
      <trkpt lat="49.37818" lon="2.94507">
        <ele>107</ele>
        <time>2019-06-23T06:56:19Z</time>
      </trkpt>
      <trkpt lat="49.37811" lon="2.9452">
        <ele>110</ele>
        <time>2019-06-23T06:56:30Z</time>
      </trkpt>
      <trkpt lat="49.37811" lon="2.94521">
        <ele>110</ele>
        <time>2019-06-23T06:56:31Z</time>
      </trkpt>
      <trkpt lat="49.37802" lon="2.94541">
        <ele>112</ele>
        <time>2019-06-23T06:56:47Z</time>
      </trkpt>
      <trkpt lat="49.37802" lon="2.94542">
        <ele>113</ele>
        <time>2019-06-23T06:56:48Z</time>
      </trkpt>
      <trkpt lat="49.37801" lon="2.94549">
        <ele>113</ele>
        <time>2019-06-23T06:56:51Z</time>
      </trkpt>
      <trkpt lat="49.37797" lon="2.94563">
        <ele>113</ele>
        <time>2019-06-23T06:57:03Z</time>
      </trkpt>
      <trkpt lat="49.37794" lon="2.94573">
        <ele>114</ele>
        <time>2019-06-23T06:57:13Z</time>
      </trkpt>
      <trkpt lat="49.37791" lon="2.94585">
        <ele>114</ele>
        <time>2019-06-23T06:57:23Z</time>
      </trkpt>
      <trkpt lat="49.37788" lon="2.94597">
        <ele>115</ele>
        <time>2019-06-23T06:57:33Z</time>
      </trkpt>
      <trkpt lat="49.37789" lon="2.94602">
        <ele>114</ele>
        <time>2019-06-23T06:57:45Z</time>
      </trkpt>
      <trkpt lat="49.37787" lon="2.94608">
        <ele>115</ele>
        <time>2019-06-23T06:57:48Z</time>
      </trkpt>
      <trkpt lat="49.37777" lon="2.94626">
        <ele>116</ele>
        <time>2019-06-23T06:57:58Z</time>
      </trkpt>
      <trkpt lat="49.37773" lon="2.9464">
        <ele>116</ele>
        <time>2019-06-23T06:58:05Z</time>
      </trkpt>
      <trkpt lat="49.37761" lon="2.94654">
        <ele>118</ele>
        <time>2019-06-23T06:58:16Z</time>
      </trkpt>
      <trkpt lat="49.37751" lon="2.94662">
        <ele>121</ele>
        <time>2019-06-23T06:58:24Z</time>
      </trkpt>
      <trkpt lat="49.37737" lon="2.94681">
        <ele>126</ele>
        <time>2019-06-23T06:58:38Z</time>
      </trkpt>
      <trkpt lat="49.37725" lon="2.94698">
        <ele>128</ele>
        <time>2019-06-23T06:58:50Z</time>
      </trkpt>
      <trkpt lat="49.37716" lon="2.94716">
        <ele>128</ele>
        <time>2019-06-23T06:59:03Z</time>
      </trkpt>
      <trkpt lat="49.37713" lon="2.94725">
        <ele>129</ele>
        <time>2019-06-23T06:59:09Z</time>
      </trkpt>
      <trkpt lat="49.37706" lon="2.94747">
        <ele>129</ele>
        <time>2019-06-23T06:59:20Z</time>
      </trkpt>
      <trkpt lat="49.37696" lon="2.94767">
        <ele>128</ele>
        <time>2019-06-23T06:59:31Z</time>
      </trkpt>
      <trkpt lat="49.37688" lon="2.94783">
        <ele>128</ele>
        <time>2019-06-23T06:59:42Z</time>
      </trkpt>
      <trkpt lat="49.37691" lon="2.94817">
        <ele>128</ele>
        <time>2019-06-23T06:59:51Z</time>
      </trkpt>
      <trkpt lat="49.37692" lon="2.94811">
        <ele>127</ele>
        <time>2019-06-23T06:59:58Z</time>
      </trkpt>
      <trkpt lat="49.37691" lon="2.94815">
        <ele>128</ele>
        <time>2019-06-23T07:00:02Z</time>
      </trkpt>
      <trkpt lat="49.37688" lon="2.94798">
        <ele>128</ele>
        <time>2019-06-23T07:00:09Z</time>
      </trkpt>
      <trkpt lat="49.3768" lon="2.94781">
        <ele>129</ele>
        <time>2019-06-23T07:00:18Z</time>
      </trkpt>
      <trkpt lat="49.37668" lon="2.94776">
        <ele>130</ele>
        <time>2019-06-23T07:00:28Z</time>
      </trkpt>
      <trkpt lat="49.37645" lon="2.94784">
        <ele>138</ele>
        <time>2019-06-23T07:00:40Z</time>
      </trkpt>
      <trkpt lat="49.37624" lon="2.94801">
        <ele>138</ele>
        <time>2019-06-23T07:00:48Z</time>
      </trkpt>
      <trkpt lat="49.37615" lon="2.94814">
        <ele>138</ele>
        <time>2019-06-23T07:00:52Z</time>
      </trkpt>
      <trkpt lat="49.3759" lon="2.94859">
        <ele>136</ele>
        <time>2019-06-23T07:01:05Z</time>
      </trkpt>
      <trkpt lat="49.37581" lon="2.94871">
        <ele>138</ele>
        <time>2019-06-23T07:01:15Z</time>
      </trkpt>
      <trkpt lat="49.37576" lon="2.94874">
        <ele>138</ele>
        <time>2019-06-23T07:01:19Z</time>
      </trkpt>
      <trkpt lat="49.37565" lon="2.94869">
        <ele>138</ele>
        <time>2019-06-23T07:01:25Z</time>
      </trkpt>
      <trkpt lat="49.37561" lon="2.94865">
        <ele>138</ele>
        <time>2019-06-23T07:01:27Z</time>
      </trkpt>
      <trkpt lat="49.37547" lon="2.94841">
        <ele>139</ele>
        <time>2019-06-23T07:01:34Z</time>
      </trkpt>
      <trkpt lat="49.37528" lon="2.94785">
        <ele>141</ele>
        <time>2019-06-23T07:01:45Z</time>
      </trkpt>
      <trkpt lat="49.37521" lon="2.94758">
        <ele>141</ele>
        <time>2019-06-23T07:01:50Z</time>
      </trkpt>
      <trkpt lat="49.37512" lon="2.94727">
        <ele>141</ele>
        <time>2019-06-23T07:01:55Z</time>
      </trkpt>
      <trkpt lat="49.375" lon="2.94686">
        <ele>141</ele>
        <time>2019-06-23T07:02:02Z</time>
      </trkpt>
      <trkpt lat="49.37494" lon="2.94645">
        <ele>141</ele>
        <time>2019-06-23T07:02:08Z</time>
      </trkpt>
      <trkpt lat="49.37491" lon="2.94619">
        <ele>140</ele>
        <time>2019-06-23T07:02:12Z</time>
      </trkpt>
      <trkpt lat="49.3749" lon="2.94586">
        <ele>140</ele>
        <time>2019-06-23T07:02:17Z</time>
      </trkpt>
      <trkpt lat="49.37487" lon="2.94556">
        <ele>139</ele>
        <time>2019-06-23T07:02:21Z</time>
      </trkpt>
      <trkpt lat="49.37478" lon="2.94505">
        <ele>138</ele>
        <time>2019-06-23T07:02:27Z</time>
      </trkpt>
      <trkpt lat="49.37475" lon="2.94478">
        <ele>136</ele>
        <time>2019-06-23T07:02:30Z</time>
      </trkpt>
      <trkpt lat="49.37462" lon="2.94425">
        <ele>135</ele>
        <time>2019-06-23T07:02:36Z</time>
      </trkpt>
      <trkpt lat="49.37447" lon="2.94378">
        <ele>129</ele>
        <time>2019-06-23T07:02:44Z</time>
      </trkpt>
      <trkpt lat="49.3744" lon="2.94351">
        <ele>128</ele>
        <time>2019-06-23T07:02:49Z</time>
      </trkpt>
      <trkpt lat="49.37432" lon="2.94321">
        <ele>120</ele>
        <time>2019-06-23T07:02:52Z</time>
      </trkpt>
      <trkpt lat="49.37414" lon="2.94274">
        <ele>113</ele>
        <time>2019-06-23T07:02:57Z</time>
      </trkpt>
      <trkpt lat="49.37406" lon="2.94254">
        <ele>111</ele>
        <time>2019-06-23T07:02:59Z</time>
      </trkpt>
      <trkpt lat="49.37395" lon="2.94213">
        <ele>100</ele>
        <time>2019-06-23T07:03:03Z</time>
      </trkpt>
      <trkpt lat="49.37374" lon="2.94138">
        <ele>89</ele>
        <time>2019-06-23T07:03:11Z</time>
      </trkpt>
      <trkpt lat="49.37359" lon="2.94103">
        <ele>87</ele>
        <time>2019-06-23T07:03:15Z</time>
      </trkpt>
      <trkpt lat="49.3735" lon="2.94065">
        <ele>80</ele>
        <time>2019-06-23T07:03:20Z</time>
      </trkpt>
      <trkpt lat="49.37342" lon="2.94038">
        <ele>79</ele>
        <time>2019-06-23T07:03:23Z</time>
      </trkpt>
      <trkpt lat="49.3733" lon="2.93988">
        <ele>75</ele>
        <time>2019-06-23T07:03:31Z</time>
      </trkpt>
      <trkpt lat="49.37325" lon="2.93969">
        <ele>76</ele>
        <time>2019-06-23T07:03:34Z</time>
      </trkpt>
      <trkpt lat="49.37315" lon="2.93966">
        <ele>76</ele>
        <time>2019-06-23T07:03:39Z</time>
      </trkpt>
      <trkpt lat="49.37288" lon="2.93983">
        <ele>76</ele>
        <time>2019-06-23T07:03:49Z</time>
      </trkpt>
      <trkpt lat="49.37265" lon="2.93999">
        <ele>76</ele>
        <time>2019-06-23T07:03:55Z</time>
      </trkpt>
      <trkpt lat="49.37245" lon="2.9402">
        <ele>78</ele>
        <time>2019-06-23T07:04:01Z</time>
      </trkpt>
      <trkpt lat="49.37223" lon="2.94042">
        <ele>79</ele>
        <time>2019-06-23T07:04:07Z</time>
      </trkpt>
      <trkpt lat="49.37181" lon="2.94093">
        <ele>80</ele>
        <time>2019-06-23T07:04:21Z</time>
      </trkpt>
      <trkpt lat="49.37174" lon="2.941">
        <ele>80</ele>
        <time>2019-06-23T07:04:23Z</time>
      </trkpt>
      <trkpt lat="49.37135" lon="2.94144">
        <ele>79</ele>
        <time>2019-06-23T07:04:35Z</time>
      </trkpt>
      <trkpt lat="49.37121" lon="2.94162">
        <ele>79</ele>
        <time>2019-06-23T07:04:39Z</time>
      </trkpt>
      <trkpt lat="49.3708" lon="2.94228">
        <ele>78</ele>
        <time>2019-06-23T07:04:52Z</time>
      </trkpt>
      <trkpt lat="49.37056" lon="2.94265">
        <ele>79</ele>
        <time>2019-06-23T07:04:59Z</time>
      </trkpt>
      <trkpt lat="49.37042" lon="2.94285">
        <ele>79</ele>
        <time>2019-06-23T07:05:03Z</time>
      </trkpt>
      <trkpt lat="49.37002" lon="2.9436">
        <ele>80</ele>
        <time>2019-06-23T07:05:15Z</time>
      </trkpt>
      <trkpt lat="49.36991" lon="2.94388">
        <ele>78</ele>
        <time>2019-06-23T07:05:19Z</time>
      </trkpt>
      <trkpt lat="49.36941" lon="2.94472">
        <ele>79</ele>
        <time>2019-06-23T07:05:33Z</time>
      </trkpt>
      <trkpt lat="49.36928" lon="2.9451">
        <ele>78</ele>
        <time>2019-06-23T07:05:38Z</time>
      </trkpt>
      <trkpt lat="49.36887" lon="2.94613">
        <ele>76</ele>
        <time>2019-06-23T07:05:52Z</time>
      </trkpt>
      <trkpt lat="49.36881" lon="2.94627">
        <ele>76</ele>
        <time>2019-06-23T07:05:54Z</time>
      </trkpt>
      <trkpt lat="49.36868" lon="2.94652">
        <ele>76</ele>
        <time>2019-06-23T07:05:58Z</time>
      </trkpt>
      <trkpt lat="49.36844" lon="2.94704">
        <ele>76</ele>
        <time>2019-06-23T07:06:06Z</time>
      </trkpt>
      <trkpt lat="49.36832" lon="2.9473">
        <ele>77</ele>
        <time>2019-06-23T07:06:10Z</time>
      </trkpt>
      <trkpt lat="49.36825" lon="2.94743">
        <ele>77</ele>
        <time>2019-06-23T07:06:12Z</time>
      </trkpt>
      <trkpt lat="49.36781" lon="2.94838">
        <ele>82</ele>
        <time>2019-06-23T07:06:25Z</time>
      </trkpt>
      <trkpt lat="49.36754" lon="2.94895">
        <ele>81</ele>
        <time>2019-06-23T07:06:33Z</time>
      </trkpt>
      <trkpt lat="49.36743" lon="2.94918">
        <ele>80</ele>
        <time>2019-06-23T07:06:36Z</time>
      </trkpt>
      <trkpt lat="49.36695" lon="2.95024">
        <ele>76</ele>
        <time>2019-06-23T07:06:50Z</time>
      </trkpt>
      <trkpt lat="49.36679" lon="2.95049">
        <ele>75</ele>
        <time>2019-06-23T07:06:54Z</time>
      </trkpt>
      <trkpt lat="49.36649" lon="2.95104">
        <ele>74</ele>
        <time>2019-06-23T07:07:02Z</time>
      </trkpt>
      <trkpt lat="49.36637" lon="2.95126">
        <ele>74</ele>
        <time>2019-06-23T07:07:05Z</time>
      </trkpt>
      <trkpt lat="49.36609" lon="2.95175">
        <ele>73</ele>
        <time>2019-06-23T07:07:12Z</time>
      </trkpt>
      <trkpt lat="49.36592" lon="2.95214">
        <ele>72</ele>
        <time>2019-06-23T07:07:17Z</time>
      </trkpt>
      <trkpt lat="49.36551" lon="2.9529">
        <ele>71</ele>
        <time>2019-06-23T07:07:28Z</time>
      </trkpt>
      <trkpt lat="49.36537" lon="2.9532">
        <ele>70</ele>
        <time>2019-06-23T07:07:32Z</time>
      </trkpt>
      <trkpt lat="49.36502" lon="2.95399">
        <ele>66</ele>
        <time>2019-06-23T07:07:42Z</time>
      </trkpt>
      <trkpt lat="49.36489" lon="2.95435">
        <ele>67</ele>
        <time>2019-06-23T07:07:46Z</time>
      </trkpt>
      <trkpt lat="49.36478" lon="2.95474">
        <ele>67</ele>
        <time>2019-06-23T07:07:51Z</time>
      </trkpt>
      <trkpt lat="49.36464" lon="2.95507">
        <ele>66</ele>
        <time>2019-06-23T07:07:56Z</time>
      </trkpt>
      <trkpt lat="49.36444" lon="2.95543">
        <ele>67</ele>
        <time>2019-06-23T07:08:01Z</time>
      </trkpt>
      <trkpt lat="49.36424" lon="2.95597">
        <ele>67</ele>
        <time>2019-06-23T07:08:08Z</time>
      </trkpt>
      <trkpt lat="49.36417" lon="2.95612">
        <ele>67</ele>
        <time>2019-06-23T07:08:10Z</time>
      </trkpt>
      <trkpt lat="49.36409" lon="2.95625">
        <ele>69</ele>
        <time>2019-06-23T07:08:12Z</time>
      </trkpt>
      <trkpt lat="49.36395" lon="2.95651">
        <ele>68</ele>
        <time>2019-06-23T07:08:16Z</time>
      </trkpt>
      <trkpt lat="49.36387" lon="2.95663">
        <ele>69</ele>
        <time>2019-06-23T07:08:18Z</time>
      </trkpt>
      <trkpt lat="49.36337" lon="2.95778">
        <ele>67</ele>
        <time>2019-06-23T07:08:33Z</time>
      </trkpt>
      <trkpt lat="49.3632" lon="2.95819">
        <ele>69</ele>
        <time>2019-06-23T07:08:40Z</time>
      </trkpt>
      <trkpt lat="49.36308" lon="2.95835">
        <ele>69</ele>
        <time>2019-06-23T07:08:43Z</time>
      </trkpt>
      <trkpt lat="49.36272" lon="2.95916">
        <ele>70</ele>
        <time>2019-06-23T07:08:54Z</time>
      </trkpt>
      <trkpt lat="49.36267" lon="2.9593">
        <ele>70</ele>
        <time>2019-06-23T07:08:56Z</time>
      </trkpt>
      <trkpt lat="49.36235" lon="2.95995">
        <ele>70</ele>
        <time>2019-06-23T07:09:07Z</time>
      </trkpt>
      <trkpt lat="49.36209" lon="2.96047">
        <ele>71</ele>
        <time>2019-06-23T07:09:16Z</time>
      </trkpt>
      <trkpt lat="49.36173" lon="2.96113">
        <ele>71</ele>
        <time>2019-06-23T07:09:27Z</time>
      </trkpt>
      <trkpt lat="49.36156" lon="2.96169">
        <ele>74</ele>
        <time>2019-06-23T07:09:39Z</time>
      </trkpt>
      <trkpt lat="49.36153" lon="2.96186">
        <ele>75</ele>
        <time>2019-06-23T07:09:43Z</time>
      </trkpt>
      <trkpt lat="49.36146" lon="2.96213">
        <ele>75</ele>
        <time>2019-06-23T07:09:58Z</time>
      </trkpt>
      <trkpt lat="49.36146" lon="2.96215">
        <ele>75</ele>
        <time>2019-06-23T07:10:11Z</time>
      </trkpt>
      <trkpt lat="49.36154" lon="2.96203">
        <ele>75</ele>
        <time>2019-06-23T07:10:18Z</time>
      </trkpt>
      <trkpt lat="49.36165" lon="2.96177">
        <ele>74</ele>
        <time>2019-06-23T07:10:23Z</time>
      </trkpt>
      <trkpt lat="49.3617" lon="2.96167">
        <ele>73</ele>
        <time>2019-06-23T07:10:25Z</time>
      </trkpt>
      <trkpt lat="49.36189" lon="2.96124">
        <ele>71</ele>
        <time>2019-06-23T07:10:33Z</time>
      </trkpt>
      <trkpt lat="49.36202" lon="2.96093">
        <ele>71</ele>
        <time>2019-06-23T07:10:38Z</time>
      </trkpt>
      <trkpt lat="49.36222" lon="2.96055">
        <ele>70</ele>
        <time>2019-06-23T07:10:44Z</time>
      </trkpt>
      <trkpt lat="49.36229" lon="2.96045">
        <ele>70</ele>
        <time>2019-06-23T07:10:46Z</time>
      </trkpt>
      <trkpt lat="49.36241" lon="2.9602">
        <ele>70</ele>
        <time>2019-06-23T07:10:50Z</time>
      </trkpt>
      <trkpt lat="49.36249" lon="2.96007">
        <ele>69</ele>
        <time>2019-06-23T07:10:52Z</time>
      </trkpt>
      <trkpt lat="49.36256" lon="2.95994">
        <ele>69</ele>
        <time>2019-06-23T07:10:54Z</time>
      </trkpt>
      <trkpt lat="49.36262" lon="2.9598">
        <ele>69</ele>
        <time>2019-06-23T07:10:56Z</time>
      </trkpt>
      <trkpt lat="49.36275" lon="2.95952">
        <ele>69</ele>
        <time>2019-06-23T07:11:00Z</time>
      </trkpt>
      <trkpt lat="49.36294" lon="2.95903">
        <ele>70</ele>
        <time>2019-06-23T07:11:08Z</time>
      </trkpt>
      <trkpt lat="49.36303" lon="2.95877">
        <ele>70</ele>
        <time>2019-06-23T07:11:12Z</time>
      </trkpt>
      <trkpt lat="49.36318" lon="2.95854">
        <ele>69</ele>
        <time>2019-06-23T07:11:21Z</time>
      </trkpt>
      <trkpt lat="49.36321" lon="2.95846">
        <ele>69</ele>
        <time>2019-06-23T07:11:40Z</time>
      </trkpt>
      <trkpt lat="49.36308" lon="2.95863">
        <ele>69</ele>
        <time>2019-06-23T07:11:49Z</time>
      </trkpt>
      <trkpt lat="49.36303" lon="2.95878">
        <ele>70</ele>
        <time>2019-06-23T07:12:01Z</time>
      </trkpt>
      <trkpt lat="49.36285" lon="2.95908">
        <ele>70</ele>
        <time>2019-06-23T07:12:10Z</time>
      </trkpt>
      <trkpt lat="49.36282" lon="2.95912">
        <ele>70</ele>
        <time>2019-06-23T07:12:11Z</time>
      </trkpt>
      <trkpt lat="49.36252" lon="2.95972">
        <ele>69</ele>
        <time>2019-06-23T07:12:23Z</time>
      </trkpt>
      <trkpt lat="49.36225" lon="2.9601">
        <ele>70</ele>
        <time>2019-06-23T07:12:34Z</time>
      </trkpt>
      <trkpt lat="49.36213" lon="2.96025">
        <ele>71</ele>
        <time>2019-06-23T07:12:38Z</time>
      </trkpt>
      <trkpt lat="49.36182" lon="2.96101">
        <ele>71</ele>
        <time>2019-06-23T07:12:51Z</time>
      </trkpt>
      <trkpt lat="49.36158" lon="2.96148">
        <ele>75</ele>
        <time>2019-06-23T07:13:00Z</time>
      </trkpt>
      <trkpt lat="49.36123" lon="2.96229">
        <ele>77</ele>
        <time>2019-06-23T07:13:12Z</time>
      </trkpt>
      <trkpt lat="49.36109" lon="2.96254">
        <ele>77</ele>
        <time>2019-06-23T07:13:16Z</time>
      </trkpt>
      <trkpt lat="49.36093" lon="2.96307">
        <ele>76</ele>
        <time>2019-06-23T07:13:22Z</time>
      </trkpt>
      <trkpt lat="49.36072" lon="2.9637">
        <ele>77</ele>
        <time>2019-06-23T07:13:31Z</time>
      </trkpt>
      <trkpt lat="49.36055" lon="2.96412">
        <ele>78</ele>
        <time>2019-06-23T07:13:37Z</time>
      </trkpt>
      <trkpt lat="49.36029" lon="2.96475">
        <ele>79</ele>
        <time>2019-06-23T07:13:46Z</time>
      </trkpt>
      <trkpt lat="49.36005" lon="2.96527">
        <ele>79</ele>
        <time>2019-06-23T07:13:54Z</time>
      </trkpt>
      <trkpt lat="49.35994" lon="2.96552">
        <ele>83</ele>
        <time>2019-06-23T07:13:58Z</time>
      </trkpt>
      <trkpt lat="49.35983" lon="2.96577">
        <ele>83</ele>
        <time>2019-06-23T07:14:02Z</time>
      </trkpt>
      <trkpt lat="49.35973" lon="2.96594">
        <ele>83</ele>
        <time>2019-06-23T07:14:05Z</time>
      </trkpt>
      <trkpt lat="49.35962" lon="2.96608">
        <ele>83</ele>
        <time>2019-06-23T07:14:08Z</time>
      </trkpt>
      <trkpt lat="49.35936" lon="2.96667">
        <ele>80</ele>
        <time>2019-06-23T07:14:18Z</time>
      </trkpt>
      <trkpt lat="49.35909" lon="2.96725">
        <ele>81</ele>
        <time>2019-06-23T07:14:29Z</time>
      </trkpt>
      <trkpt lat="49.35897" lon="2.96752">
        <ele>77</ele>
        <time>2019-06-23T07:14:38Z</time>
      </trkpt>
      <trkpt lat="49.35898" lon="2.96757">
        <ele>77</ele>
        <time>2019-06-23T07:14:45Z</time>
      </trkpt>
      <trkpt lat="49.35898" lon="2.96755">
        <ele>77</ele>
        <time>2019-06-23T07:14:48Z</time>
      </trkpt>
      <trkpt lat="49.35906" lon="2.96739">
        <ele>79</ele>
        <time>2019-06-23T07:14:53Z</time>
      </trkpt>
      <trkpt lat="49.35918" lon="2.96713">
        <ele>78</ele>
        <time>2019-06-23T07:14:59Z</time>
      </trkpt>
      <trkpt lat="49.35928" lon="2.9668">
        <ele>80</ele>
        <time>2019-06-23T07:15:06Z</time>
      </trkpt>
      <trkpt lat="49.35933" lon="2.96665">
        <ele>82</ele>
        <time>2019-06-23T07:15:08Z</time>
      </trkpt>
      <trkpt lat="49.35947" lon="2.96638">
        <ele>83</ele>
        <time>2019-06-23T07:15:11Z</time>
      </trkpt>
      <trkpt lat="49.35968" lon="2.96597">
        <ele>83</ele>
        <time>2019-06-23T07:15:16Z</time>
      </trkpt>
      <trkpt lat="49.35976" lon="2.96579">
        <ele>84</ele>
        <time>2019-06-23T07:15:18Z</time>
      </trkpt>
      <trkpt lat="49.36027" lon="2.96478">
        <ele>79</ele>
        <time>2019-06-23T07:15:30Z</time>
      </trkpt>
      <trkpt lat="49.36042" lon="2.96452">
        <ele>78</ele>
        <time>2019-06-23T07:15:33Z</time>
      </trkpt>
      <trkpt lat="49.36081" lon="2.96372">
        <ele>77</ele>
        <time>2019-06-23T07:15:43Z</time>
      </trkpt>
      <trkpt lat="49.36103" lon="2.96324">
        <ele>75</ele>
        <time>2019-06-23T07:15:49Z</time>
      </trkpt>
      <trkpt lat="49.36114" lon="2.96299">
        <ele>75</ele>
        <time>2019-06-23T07:15:52Z</time>
      </trkpt>
      <trkpt lat="49.36137" lon="2.96242">
        <ele>75</ele>
        <time>2019-06-23T07:15:59Z</time>
      </trkpt>
      <trkpt lat="49.36154" lon="2.9621">
        <ele>75</ele>
        <time>2019-06-23T07:16:03Z</time>
      </trkpt>
      <trkpt lat="49.36167" lon="2.96179">
        <ele>72</ele>
        <time>2019-06-23T07:16:07Z</time>
      </trkpt>
      <trkpt lat="49.36185" lon="2.96136">
        <ele>71</ele>
        <time>2019-06-23T07:16:13Z</time>
      </trkpt>
      <trkpt lat="49.36203" lon="2.96105">
        <ele>71</ele>
        <time>2019-06-23T07:16:17Z</time>
      </trkpt>
      <trkpt lat="49.36215" lon="2.96086">
        <ele>70</ele>
        <time>2019-06-23T07:16:20Z</time>
      </trkpt>
      <trkpt lat="49.36241" lon="2.96019">
        <ele>70</ele>
        <time>2019-06-23T07:16:28Z</time>
      </trkpt>
      <trkpt lat="49.36251" lon="2.95995">
        <ele>69</ele>
        <time>2019-06-23T07:16:31Z</time>
      </trkpt>
      <trkpt lat="49.36274" lon="2.95943">
        <ele>69</ele>
        <time>2019-06-23T07:16:37Z</time>
      </trkpt>
      <trkpt lat="49.36291" lon="2.95909">
        <ele>70</ele>
        <time>2019-06-23T07:16:41Z</time>
      </trkpt>
      <trkpt lat="49.36312" lon="2.95862">
        <ele>69</ele>
        <time>2019-06-23T07:16:47Z</time>
      </trkpt>
      <trkpt lat="49.36328" lon="2.9583">
        <ele>69</ele>
        <time>2019-06-23T07:16:51Z</time>
      </trkpt>
      <trkpt lat="49.36379" lon="2.95722">
        <ele>67</ele>
        <time>2019-06-23T07:17:03Z</time>
      </trkpt>
      <trkpt lat="49.3639" lon="2.95697">
        <ele>67</ele>
        <time>2019-06-23T07:17:06Z</time>
      </trkpt>
      <trkpt lat="49.36408" lon="2.95657">
        <ele>68</ele>
        <time>2019-06-23T07:17:11Z</time>
      </trkpt>
      <trkpt lat="49.36439" lon="2.95602">
        <ele>67</ele>
        <time>2019-06-23T07:17:19Z</time>
      </trkpt>
      <trkpt lat="49.36464" lon="2.95546">
        <ele>67</ele>
        <time>2019-06-23T07:17:26Z</time>
      </trkpt>
      <trkpt lat="49.36475" lon="2.95517">
        <ele>66</ele>
        <time>2019-06-23T07:17:30Z</time>
      </trkpt>
      <trkpt lat="49.36482" lon="2.95495">
        <ele>66</ele>
        <time>2019-06-23T07:17:33Z</time>
      </trkpt>
      <trkpt lat="49.36516" lon="2.95424">
        <ele>65</ele>
        <time>2019-06-23T07:17:42Z</time>
      </trkpt>
      <trkpt lat="49.36522" lon="2.9541">
        <ele>66</ele>
        <time>2019-06-23T07:17:44Z</time>
      </trkpt>
      <trkpt lat="49.36533" lon="2.95383">
        <ele>66</ele>
        <time>2019-06-23T07:17:48Z</time>
      </trkpt>
      <trkpt lat="49.36556" lon="2.95325">
        <ele>70</ele>
        <time>2019-06-23T07:17:57Z</time>
      </trkpt>
      <trkpt lat="49.36571" lon="2.95288">
        <ele>70</ele>
        <time>2019-06-23T07:18:02Z</time>
      </trkpt>
      <trkpt lat="49.36579" lon="2.95268">
        <ele>71</ele>
        <time>2019-06-23T07:18:05Z</time>
      </trkpt>
      <trkpt lat="49.36591" lon="2.9524">
        <ele>71</ele>
        <time>2019-06-23T07:18:09Z</time>
      </trkpt>
      <trkpt lat="49.36606" lon="2.95212">
        <ele>72</ele>
        <time>2019-06-23T07:18:13Z</time>
      </trkpt>
      <trkpt lat="49.36623" lon="2.95175">
        <ele>72</ele>
        <time>2019-06-23T07:18:18Z</time>
      </trkpt>
      <trkpt lat="49.36641" lon="2.95134">
        <ele>73</ele>
        <time>2019-06-23T07:18:24Z</time>
      </trkpt>
      <trkpt lat="49.36668" lon="2.95073">
        <ele>73</ele>
        <time>2019-06-23T07:18:32Z</time>
      </trkpt>
      <trkpt lat="49.36695" lon="2.95018">
        <ele>76</ele>
        <time>2019-06-23T07:18:40Z</time>
      </trkpt>
      <trkpt lat="49.36719" lon="2.94972">
        <ele>80</ele>
        <time>2019-06-23T07:18:49Z</time>
      </trkpt>
      <trkpt lat="49.36718" lon="2.94939">
        <ele>81</ele>
        <time>2019-06-23T07:18:58Z</time>
      </trkpt>
      <trkpt lat="49.36704" lon="2.94896">
        <ele>84</ele>
        <time>2019-06-23T07:19:08Z</time>
      </trkpt>
      <trkpt lat="49.36691" lon="2.94852">
        <ele>85</ele>
        <time>2019-06-23T07:19:19Z</time>
      </trkpt>
      <trkpt lat="49.36673" lon="2.948">
        <ele>87</ele>
        <time>2019-06-23T07:19:32Z</time>
      </trkpt>
      <trkpt lat="49.3666" lon="2.94757">
        <ele>91</ele>
        <time>2019-06-23T07:19:43Z</time>
      </trkpt>
      <trkpt lat="49.36648" lon="2.94715">
        <ele>92</ele>
        <time>2019-06-23T07:19:53Z</time>
      </trkpt>
      <trkpt lat="49.36631" lon="2.9467">
        <ele>92</ele>
        <time>2019-06-23T07:20:03Z</time>
      </trkpt>
      <trkpt lat="49.36617" lon="2.94619">
        <ele>89</ele>
        <time>2019-06-23T07:20:13Z</time>
      </trkpt>
      <trkpt lat="49.36613" lon="2.94607">
        <ele>89</ele>
        <time>2019-06-23T07:20:15Z</time>
      </trkpt>
      <trkpt lat="49.36608" lon="2.94594">
        <ele>89</ele>
        <time>2019-06-23T07:20:17Z</time>
      </trkpt>
      <trkpt lat="49.36605" lon="2.94588">
        <ele>89</ele>
        <time>2019-06-23T07:20:18Z</time>
      </trkpt>
      <trkpt lat="49.36603" lon="2.94581">
        <ele>87</ele>
        <time>2019-06-23T07:20:19Z</time>
      </trkpt>
      <trkpt lat="49.3659" lon="2.94526">
        <ele>87</ele>
        <time>2019-06-23T07:20:29Z</time>
      </trkpt>
      <trkpt lat="49.36588" lon="2.94521">
        <ele>87</ele>
        <time>2019-06-23T07:20:30Z</time>
      </trkpt>
      <trkpt lat="49.36587" lon="2.94516">
        <ele>87</ele>
        <time>2019-06-23T07:20:31Z</time>
      </trkpt>
      <trkpt lat="49.36582" lon="2.94499">
        <ele>88</ele>
        <time>2019-06-23T07:20:34Z</time>
      </trkpt>
      <trkpt lat="49.3658" lon="2.94492">
        <ele>88</ele>
        <time>2019-06-23T07:20:35Z</time>
      </trkpt>
      <trkpt lat="49.36578" lon="2.94485">
        <ele>88</ele>
        <time>2019-06-23T07:20:36Z</time>
      </trkpt>
      <trkpt lat="49.36576" lon="2.94479">
        <ele>88</ele>
        <time>2019-06-23T07:20:37Z</time>
      </trkpt>
      <trkpt lat="49.36575" lon="2.94472">
        <ele>88</ele>
        <time>2019-06-23T07:20:38Z</time>
      </trkpt>
      <trkpt lat="49.36573" lon="2.94465">
        <ele>88</ele>
        <time>2019-06-23T07:20:39Z</time>
      </trkpt>
      <trkpt lat="49.3657" lon="2.94458">
        <ele>88</ele>
        <time>2019-06-23T07:20:40Z</time>
      </trkpt>
      <trkpt lat="49.36557" lon="2.94427">
        <ele>87</ele>
        <time>2019-06-23T07:20:45Z</time>
      </trkpt>
      <trkpt lat="49.36555" lon="2.94422">
        <ele>87</ele>
        <time>2019-06-23T07:20:46Z</time>
      </trkpt>
      <trkpt lat="49.36536" lon="2.94372">
        <ele>86</ele>
        <time>2019-06-23T07:20:55Z</time>
      </trkpt>
      <trkpt lat="49.36517" lon="2.94334">
        <ele>86</ele>
        <time>2019-06-23T07:21:04Z</time>
      </trkpt>
      <trkpt lat="49.36514" lon="2.94331">
        <ele>86</ele>
        <time>2019-06-23T07:21:06Z</time>
      </trkpt>
      <trkpt lat="49.3649" lon="2.9434">
        <ele>88</ele>
        <time>2019-06-23T07:21:16Z</time>
      </trkpt>
      <trkpt lat="49.3647" lon="2.94346">
        <ele>91</ele>
        <time>2019-06-23T07:21:27Z</time>
      </trkpt>
      <trkpt lat="49.36461" lon="2.94348">
        <ele>92</ele>
        <time>2019-06-23T07:21:37Z</time>
      </trkpt>
      <trkpt lat="49.36457" lon="2.94351">
        <ele>92</ele>
        <time>2019-06-23T07:21:44Z</time>
      </trkpt>
      <trkpt lat="49.36446" lon="2.94357">
        <ele>93</ele>
        <time>2019-06-23T07:21:55Z</time>
      </trkpt>
      <trkpt lat="49.36445" lon="2.94357">
        <ele>93</ele>
        <time>2019-06-23T07:22:00Z</time>
      </trkpt>
      <trkpt lat="49.36438" lon="2.94362">
        <ele>94</ele>
        <time>2019-06-23T07:22:10Z</time>
      </trkpt>
      <trkpt lat="49.36431" lon="2.94365">
        <ele>94</ele>
        <time>2019-06-23T07:22:21Z</time>
      </trkpt>
      <trkpt lat="49.36423" lon="2.94367">
        <ele>94</ele>
        <time>2019-06-23T07:22:32Z</time>
      </trkpt>
      <trkpt lat="49.3642" lon="2.94367">
        <ele>94</ele>
        <time>2019-06-23T07:22:42Z</time>
      </trkpt>
      <trkpt lat="49.36412" lon="2.94372">
        <ele>101</ele>
        <time>2019-06-23T07:22:54Z</time>
      </trkpt>
      <trkpt lat="49.36406" lon="2.94377">
        <ele>101</ele>
        <time>2019-06-23T07:23:08Z</time>
      </trkpt>
      <trkpt lat="49.36396" lon="2.94381">
        <ele>101</ele>
        <time>2019-06-23T07:23:23Z</time>
      </trkpt>
      <trkpt lat="49.36383" lon="2.94384">
        <ele>102</ele>
        <time>2019-06-23T07:23:34Z</time>
      </trkpt>
      <trkpt lat="49.36379" lon="2.94384">
        <ele>102</ele>
        <time>2019-06-23T07:23:39Z</time>
      </trkpt>
      <trkpt lat="49.36367" lon="2.94388">
        <ele>102</ele>
        <time>2019-06-23T07:23:49Z</time>
      </trkpt>
      <trkpt lat="49.36358" lon="2.94392">
        <ele>103</ele>
        <time>2019-06-23T07:24:00Z</time>
      </trkpt>
      <trkpt lat="49.36357" lon="2.94393">
        <ele>103</ele>
        <time>2019-06-23T07:24:01Z</time>
      </trkpt>
      <trkpt lat="49.36343" lon="2.944">
        <ele>104</ele>
        <time>2019-06-23T07:24:11Z</time>
      </trkpt>
      <trkpt lat="49.36307" lon="2.94417">
        <ele>105</ele>
        <time>2019-06-23T07:24:18Z</time>
      </trkpt>
      <trkpt lat="49.36226" lon="2.94446">
        <ele>100</ele>
        <time>2019-06-23T07:24:28Z</time>
      </trkpt>
      <trkpt lat="49.36197" lon="2.94458">
        <ele>99</ele>
        <time>2019-06-23T07:24:34Z</time>
      </trkpt>
      <trkpt lat="49.36186" lon="2.94462">
        <ele>99</ele>
        <time>2019-06-23T07:24:38Z</time>
      </trkpt>
      <trkpt lat="49.3616" lon="2.94469">
        <ele>95</ele>
        <time>2019-06-23T07:24:44Z</time>
      </trkpt>
      <trkpt lat="49.36139" lon="2.94475">
        <ele>94</ele>
        <time>2019-06-23T07:24:48Z</time>
      </trkpt>
      <trkpt lat="49.36075" lon="2.94504">
        <ele>91</ele>
        <time>2019-06-23T07:24:57Z</time>
      </trkpt>
      <trkpt lat="49.36061" lon="2.94509">
        <ele>91</ele>
        <time>2019-06-23T07:24:59Z</time>
      </trkpt>
      <trkpt lat="49.36036" lon="2.94518">
        <ele>90</ele>
        <time>2019-06-23T07:25:04Z</time>
      </trkpt>
      <trkpt lat="49.36007" lon="2.94526">
        <ele>89</ele>
        <time>2019-06-23T07:25:12Z</time>
      </trkpt>
      <trkpt lat="49.36" lon="2.94484">
        <ele>88</ele>
        <time>2019-06-23T07:25:22Z</time>
      </trkpt>
      <trkpt lat="49.35996" lon="2.94466">
        <ele>86</ele>
        <time>2019-06-23T07:25:25Z</time>
      </trkpt>
      <trkpt lat="49.35987" lon="2.94431">
        <ele>86</ele>
        <time>2019-06-23T07:25:31Z</time>
      </trkpt>
      <trkpt lat="49.35984" lon="2.94418">
        <ele>86</ele>
        <time>2019-06-23T07:25:33Z</time>
      </trkpt>
      <trkpt lat="49.35978" lon="2.94392">
        <ele>85</ele>
        <time>2019-06-23T07:25:37Z</time>
      </trkpt>
      <trkpt lat="49.35978" lon="2.94342">
        <ele>85</ele>
        <time>2019-06-23T07:25:45Z</time>
      </trkpt>
      <trkpt lat="49.35975" lon="2.94294">
        <ele>85</ele>
        <time>2019-06-23T07:25:53Z</time>
      </trkpt>
      <trkpt lat="49.35977" lon="2.94274">
        <ele>85</ele>
        <time>2019-06-23T07:25:56Z</time>
      </trkpt>
      <trkpt lat="49.35978" lon="2.94258">
        <ele>85</ele>
        <time>2019-06-23T07:25:58Z</time>
      </trkpt>
      <trkpt lat="49.35975" lon="2.94229">
        <ele>84</ele>
        <time>2019-06-23T07:26:02Z</time>
      </trkpt>
      <trkpt lat="49.35976" lon="2.94161">
        <ele>84</ele>
        <time>2019-06-23T07:26:12Z</time>
      </trkpt>
      <trkpt lat="49.35977" lon="2.94154">
        <ele>84</ele>
        <time>2019-06-23T07:26:13Z</time>
      </trkpt>
      <trkpt lat="49.35979" lon="2.94121">
        <ele>84</ele>
        <time>2019-06-23T07:26:18Z</time>
      </trkpt>
      <trkpt lat="49.35981" lon="2.94074">
        <ele>84</ele>
        <time>2019-06-23T07:26:25Z</time>
      </trkpt>
      <trkpt lat="49.35977" lon="2.94033">
        <ele>83</ele>
        <time>2019-06-23T07:26:33Z</time>
      </trkpt>
      <trkpt lat="49.35952" lon="2.94037">
        <ele>83</ele>
        <time>2019-06-23T07:26:42Z</time>
      </trkpt>
      <trkpt lat="49.35923" lon="2.94046">
        <ele>83</ele>
        <time>2019-06-23T07:26:49Z</time>
      </trkpt>
      <trkpt lat="49.3589" lon="2.9406">
        <ele>83</ele>
        <time>2019-06-23T07:26:59Z</time>
      </trkpt>
      <trkpt lat="49.35848" lon="2.94074">
        <ele>85</ele>
        <time>2019-06-23T07:27:09Z</time>
      </trkpt>
      <trkpt lat="49.35841" lon="2.94077">
        <ele>85</ele>
        <time>2019-06-23T07:27:11Z</time>
      </trkpt>
      <trkpt lat="49.35804" lon="2.94093">
        <ele>89</ele>
        <time>2019-06-23T07:27:22Z</time>
      </trkpt>
      <trkpt lat="49.35771" lon="2.94106">
        <ele>91</ele>
        <time>2019-06-23T07:27:30Z</time>
      </trkpt>
      <trkpt lat="49.35714" lon="2.9412">
        <ele>95</ele>
        <time>2019-06-23T07:27:43Z</time>
      </trkpt>
      <trkpt lat="49.35669" lon="2.94136">
        <ele>96</ele>
        <time>2019-06-23T07:27:55Z</time>
      </trkpt>
      <trkpt lat="49.35636" lon="2.94146">
        <ele>98</ele>
        <time>2019-06-23T07:28:05Z</time>
      </trkpt>
      <trkpt lat="49.35605" lon="2.94165">
        <ele>99</ele>
        <time>2019-06-23T07:28:17Z</time>
      </trkpt>
      <trkpt lat="49.35595" lon="2.94171">
        <ele>100</ele>
        <time>2019-06-23T07:28:24Z</time>
      </trkpt>
      <trkpt lat="49.3558" lon="2.94175">
        <ele>104</ele>
        <time>2019-06-23T07:28:35Z</time>
      </trkpt>
      <trkpt lat="49.3557" lon="2.94173">
        <ele>106</ele>
        <time>2019-06-23T07:28:46Z</time>
      </trkpt>
      <trkpt lat="49.3556" lon="2.94176">
        <ele>108</ele>
        <time>2019-06-23T07:28:58Z</time>
      </trkpt>
      <trkpt lat="49.3555" lon="2.94178">
        <ele>110</ele>
        <time>2019-06-23T07:29:07Z</time>
      </trkpt>
      <trkpt lat="49.35533" lon="2.94182">
        <ele>113</ele>
        <time>2019-06-23T07:29:19Z</time>
      </trkpt>
      <trkpt lat="49.35519" lon="2.9418">
        <ele>114</ele>
        <time>2019-06-23T07:29:32Z</time>
      </trkpt>
      <trkpt lat="49.35512" lon="2.94177">
        <ele>115</ele>
        <time>2019-06-23T07:29:43Z</time>
      </trkpt>
      <trkpt lat="49.35512" lon="2.94175">
        <ele>115</ele>
        <time>2019-06-23T07:29:46Z</time>
      </trkpt>
      <trkpt lat="49.35512" lon="2.94178">
        <ele>115</ele>
        <time>2019-06-23T07:30:00Z</time>
      </trkpt>
      <trkpt lat="49.35502" lon="2.94172">
        <ele>117</ele>
        <time>2019-06-23T07:30:15Z</time>
      </trkpt>
      <trkpt lat="49.35489" lon="2.94163">
        <ele>121</ele>
        <time>2019-06-23T07:30:30Z</time>
      </trkpt>
      <trkpt lat="49.35478" lon="2.94153">
        <ele>123</ele>
        <time>2019-06-23T07:30:43Z</time>
      </trkpt>
      <trkpt lat="49.35475" lon="2.94151">
        <ele>123</ele>
        <time>2019-06-23T07:30:50Z</time>
      </trkpt>
      <trkpt lat="49.35472" lon="2.9414">
        <ele>124</ele>
        <time>2019-06-23T07:30:55Z</time>
      </trkpt>
      <trkpt lat="49.35463" lon="2.94129">
        <ele>125</ele>
        <time>2019-06-23T07:31:06Z</time>
      </trkpt>
      <trkpt lat="49.3546" lon="2.94128">
        <ele>125</ele>
        <time>2019-06-23T07:31:08Z</time>
      </trkpt>
      <trkpt lat="49.3545" lon="2.94112">
        <ele>126</ele>
        <time>2019-06-23T07:31:24Z</time>
      </trkpt>
      <trkpt lat="49.35446" lon="2.9411">
        <ele>127</ele>
        <time>2019-06-23T07:31:36Z</time>
      </trkpt>
      <trkpt lat="49.3544" lon="2.94093">
        <ele>129</ele>
        <time>2019-06-23T07:31:49Z</time>
      </trkpt>
      <trkpt lat="49.35435" lon="2.94083">
        <ele>130</ele>
        <time>2019-06-23T07:32:01Z</time>
      </trkpt>
      <trkpt lat="49.35428" lon="2.94077">
        <ele>131</ele>
        <time>2019-06-23T07:32:14Z</time>
      </trkpt>
      <trkpt lat="49.35427" lon="2.94074">
        <ele>130</ele>
        <time>2019-06-23T07:32:25Z</time>
      </trkpt>
      <trkpt lat="49.35418" lon="2.94063">
        <ele>129</ele>
        <time>2019-06-23T07:32:37Z</time>
      </trkpt>
      <trkpt lat="49.35414" lon="2.94053">
        <ele>136</ele>
        <time>2019-06-23T07:32:51Z</time>
      </trkpt>
      <trkpt lat="49.35411" lon="2.94046">
        <ele>136</ele>
        <time>2019-06-23T07:32:58Z</time>
      </trkpt>
      <trkpt lat="49.35403" lon="2.9403">
        <ele>136</ele>
        <time>2019-06-23T07:33:10Z</time>
      </trkpt>
      <trkpt lat="49.35401" lon="2.94026">
        <ele>136</ele>
        <time>2019-06-23T07:33:14Z</time>
      </trkpt>
      <trkpt lat="49.35391" lon="2.94016">
        <ele>136</ele>
        <time>2019-06-23T07:33:27Z</time>
      </trkpt>
      <trkpt lat="49.35386" lon="2.94013">
        <ele>136</ele>
        <time>2019-06-23T07:33:31Z</time>
      </trkpt>
      <trkpt lat="49.35375" lon="2.93996">
        <ele>136</ele>
        <time>2019-06-23T07:33:43Z</time>
      </trkpt>
      <trkpt lat="49.35374" lon="2.93995">
        <ele>136</ele>
        <time>2019-06-23T07:33:44Z</time>
      </trkpt>
      <trkpt lat="49.35368" lon="2.93989">
        <ele>136</ele>
        <time>2019-06-23T07:33:55Z</time>
      </trkpt>
      <trkpt lat="49.35364" lon="2.93982">
        <ele>136</ele>
        <time>2019-06-23T07:34:06Z</time>
      </trkpt>
      <trkpt lat="49.35349" lon="2.93966">
        <ele>137</ele>
        <time>2019-06-23T07:34:17Z</time>
      </trkpt>
      <trkpt lat="49.35328" lon="2.93928">
        <ele>140</ele>
        <time>2019-06-23T07:34:29Z</time>
      </trkpt>
      <trkpt lat="49.35308" lon="2.93891">
        <ele>139</ele>
        <time>2019-06-23T07:34:40Z</time>
      </trkpt>
      <trkpt lat="49.35301" lon="2.93881">
        <ele>139</ele>
        <time>2019-06-23T07:34:43Z</time>
      </trkpt>
      <trkpt lat="49.35272" lon="2.93842">
        <ele>138</ele>
        <time>2019-06-23T07:34:55Z</time>
      </trkpt>
      <trkpt lat="49.3526" lon="2.93824">
        <ele>137</ele>
        <time>2019-06-23T07:35:01Z</time>
      </trkpt>
      <trkpt lat="49.35247" lon="2.93803">
        <ele>137</ele>
        <time>2019-06-23T07:35:06Z</time>
      </trkpt>
      <trkpt lat="49.35218" lon="2.93764">
        <ele>137</ele>
        <time>2019-06-23T07:35:18Z</time>
      </trkpt>
      <trkpt lat="49.352" lon="2.93735">
        <ele>136</ele>
        <time>2019-06-23T07:35:26Z</time>
      </trkpt>
      <trkpt lat="49.35182" lon="2.93691">
        <ele>136</ele>
        <time>2019-06-23T07:35:35Z</time>
      </trkpt>
      <trkpt lat="49.35172" lon="2.93658">
        <ele>136</ele>
        <time>2019-06-23T07:35:42Z</time>
      </trkpt>
      <trkpt lat="49.35173" lon="2.93643">
        <ele>135</ele>
        <time>2019-06-23T07:35:45Z</time>
      </trkpt>
      <trkpt lat="49.35171" lon="2.93588">
        <ele>138</ele>
        <time>2019-06-23T07:35:56Z</time>
      </trkpt>
      <trkpt lat="49.35171" lon="2.93581">
        <ele>137</ele>
        <time>2019-06-23T07:35:57Z</time>
      </trkpt>
      <trkpt lat="49.35132" lon="2.9353">
        <ele>135</ele>
        <time>2019-06-23T07:36:06Z</time>
      </trkpt>
      <trkpt lat="49.35092" lon="2.93527">
        <ele>134</ele>
        <time>2019-06-23T07:36:15Z</time>
      </trkpt>
      <trkpt lat="49.35079" lon="2.93527">
        <ele>132</ele>
        <time>2019-06-23T07:36:17Z</time>
      </trkpt>
      <trkpt lat="49.35047" lon="2.93529">
        <ele>132</ele>
        <time>2019-06-23T07:36:25Z</time>
      </trkpt>
      <trkpt lat="49.35044" lon="2.93528">
        <ele>131</ele>
        <time>2019-06-23T07:36:27Z</time>
      </trkpt>
      <trkpt lat="49.3505" lon="2.93518">
        <ele>132</ele>
        <time>2019-06-23T07:36:33Z</time>
      </trkpt>
      <trkpt lat="49.35064" lon="2.9351">
        <ele>132</ele>
        <time>2019-06-23T07:36:44Z</time>
      </trkpt>
      <trkpt lat="49.35064" lon="2.93509">
        <ele>132</ele>
        <time>2019-06-23T07:36:45Z</time>
      </trkpt>
      <trkpt lat="49.35081" lon="2.93489">
        <ele>133</ele>
        <time>2019-06-23T07:36:54Z</time>
      </trkpt>
      <trkpt lat="49.35091" lon="2.93474">
        <ele>133</ele>
        <time>2019-06-23T07:36:57Z</time>
      </trkpt>
      <trkpt lat="49.35112" lon="2.93451">
        <ele>133</ele>
        <time>2019-06-23T07:37:01Z</time>
      </trkpt>
      <trkpt lat="49.35216" lon="2.93369">
        <ele>119</ele>
        <time>2019-06-23T07:37:10Z</time>
      </trkpt>
      <trkpt lat="49.35317" lon="2.93295">
        <ele>110</ele>
        <time>2019-06-23T07:37:18Z</time>
      </trkpt>
      <trkpt lat="49.35371" lon="2.93255">
        <ele>105</ele>
        <time>2019-06-23T07:37:24Z</time>
      </trkpt>
      <trkpt lat="49.35396" lon="2.93242">
        <ele>102</ele>
        <time>2019-06-23T07:37:29Z</time>
      </trkpt>
      <trkpt lat="49.35384" lon="2.93239">
        <ele>102</ele>
        <time>2019-06-23T07:37:37Z</time>
      </trkpt>
      <trkpt lat="49.35381" lon="2.93237">
        <ele>103</ele>
        <time>2019-06-23T07:37:58Z</time>
      </trkpt>
      <trkpt lat="49.3538" lon="2.93237">
        <ele>103</ele>
        <time>2019-06-23T07:38:20Z</time>
      </trkpt>
      <trkpt lat="49.3538" lon="2.93234">
        <ele>103</ele>
        <time>2019-06-23T07:38:47Z</time>
      </trkpt>
      <trkpt lat="49.3538" lon="2.93234">
        <ele>103</ele>
        <time>2019-06-23T07:39:18Z</time>
      </trkpt>
      <trkpt lat="49.35378" lon="2.93232">
        <ele>103</ele>
        <time>2019-06-23T07:39:50Z</time>
      </trkpt>
      <trkpt lat="49.35377" lon="2.93229">
        <ele>103</ele>
        <time>2019-06-23T07:39:56Z</time>
      </trkpt>
      <trkpt lat="49.35374" lon="2.93221">
        <ele>103</ele>
        <time>2019-06-23T07:40:00Z</time>
      </trkpt>
      <trkpt lat="49.35369" lon="2.93206">
        <ele>102</ele>
        <time>2019-06-23T07:40:12Z</time>
      </trkpt>
      <trkpt lat="49.35368" lon="2.93205">
        <ele>102</ele>
        <time>2019-06-23T07:40:40Z</time>
      </trkpt>
      <trkpt lat="49.35368" lon="2.93205">
        <ele>102</ele>
        <time>2019-06-23T07:40:42Z</time>
      </trkpt>
      <trkpt lat="49.35357" lon="2.93158">
        <ele>100</ele>
        <time>2019-06-23T07:40:52Z</time>
      </trkpt>
      <trkpt lat="49.35348" lon="2.93119">
        <ele>99</ele>
        <time>2019-06-23T07:40:58Z</time>
      </trkpt>
      <trkpt lat="49.35341" lon="2.93092">
        <ele>98</ele>
        <time>2019-06-23T07:41:02Z</time>
      </trkpt>
      <trkpt lat="49.35327" lon="2.93036">
        <ele>96</ele>
        <time>2019-06-23T07:41:10Z</time>
      </trkpt>
      <trkpt lat="49.35312" lon="2.92971">
        <ele>94</ele>
        <time>2019-06-23T07:41:19Z</time>
      </trkpt>
      <trkpt lat="49.35299" lon="2.92923">
        <ele>94</ele>
        <time>2019-06-23T07:41:26Z</time>
      </trkpt>
      <trkpt lat="49.35294" lon="2.92895">
        <ele>94</ele>
        <time>2019-06-23T07:41:31Z</time>
      </trkpt>
      <trkpt lat="49.35288" lon="2.92877">
        <ele>94</ele>
        <time>2019-06-23T07:41:34Z</time>
      </trkpt>
      <trkpt lat="49.35275" lon="2.92828">
        <ele>93</ele>
        <time>2019-06-23T07:41:42Z</time>
      </trkpt>
      <trkpt lat="49.35268" lon="2.92803">
        <ele>92</ele>
        <time>2019-06-23T07:41:46Z</time>
      </trkpt>
      <trkpt lat="49.35243" lon="2.92705">
        <ele>92</ele>
        <time>2019-06-23T07:42:01Z</time>
      </trkpt>
      <trkpt lat="49.35235" lon="2.92673">
        <ele>93</ele>
        <time>2019-06-23T07:42:07Z</time>
      </trkpt>
      <trkpt lat="49.35217" lon="2.9267">
        <ele>93</ele>
        <time>2019-06-23T07:42:14Z</time>
      </trkpt>
      <trkpt lat="49.35212" lon="2.92675">
        <ele>92</ele>
        <time>2019-06-23T07:42:16Z</time>
      </trkpt>
      <trkpt lat="49.35178" lon="2.92696">
        <ele>92</ele>
        <time>2019-06-23T07:42:29Z</time>
      </trkpt>
      <trkpt lat="49.35132" lon="2.92723">
        <ele>92</ele>
        <time>2019-06-23T07:42:43Z</time>
      </trkpt>
      <trkpt lat="49.35074" lon="2.92754">
        <ele>94</ele>
        <time>2019-06-23T07:43:00Z</time>
      </trkpt>
      <trkpt lat="49.35035" lon="2.92778">
        <ele>98</ele>
        <time>2019-06-23T07:43:13Z</time>
      </trkpt>
      <trkpt lat="49.35003" lon="2.92795">
        <ele>99</ele>
        <time>2019-06-23T07:43:25Z</time>
      </trkpt>
      <trkpt lat="49.34974" lon="2.92813">
        <ele>106</ele>
        <time>2019-06-23T07:43:36Z</time>
      </trkpt>
      <trkpt lat="49.3496" lon="2.92821">
        <ele>107</ele>
        <time>2019-06-23T07:43:41Z</time>
      </trkpt>
      <trkpt lat="49.34927" lon="2.9284">
        <ele>112</ele>
        <time>2019-06-23T07:43:52Z</time>
      </trkpt>
      <trkpt lat="49.34897" lon="2.92857">
        <ele>116</ele>
        <time>2019-06-23T07:44:05Z</time>
      </trkpt>
      <trkpt lat="49.34887" lon="2.92862">
        <ele>117</ele>
        <time>2019-06-23T07:44:10Z</time>
      </trkpt>
      <trkpt lat="49.3487" lon="2.92869">
        <ele>118</ele>
        <time>2019-06-23T07:44:20Z</time>
      </trkpt>
      <trkpt lat="49.34846" lon="2.92885">
        <ele>119</ele>
        <time>2019-06-23T07:44:36Z</time>
      </trkpt>
      <trkpt lat="49.34818" lon="2.929">
        <ele>120</ele>
        <time>2019-06-23T07:44:54Z</time>
      </trkpt>
      <trkpt lat="49.34817" lon="2.929">
        <ele>120</ele>
        <time>2019-06-23T07:44:55Z</time>
      </trkpt>
      <trkpt lat="49.34796" lon="2.92912">
        <ele>118</ele>
        <time>2019-06-23T07:45:09Z</time>
      </trkpt>
      <trkpt lat="49.34774" lon="2.92924">
        <ele>121</ele>
        <time>2019-06-23T07:45:26Z</time>
      </trkpt>
      <trkpt lat="49.34772" lon="2.92926">
        <ele>120</ele>
        <time>2019-06-23T07:45:27Z</time>
      </trkpt>
      <trkpt lat="49.34767" lon="2.92929">
        <ele>120</ele>
        <time>2019-06-23T07:45:31Z</time>
      </trkpt>
      <trkpt lat="49.34763" lon="2.92932">
        <ele>120</ele>
        <time>2019-06-23T07:45:35Z</time>
      </trkpt>
      <trkpt lat="49.3475" lon="2.92941">
        <ele>118</ele>
        <time>2019-06-23T07:45:48Z</time>
      </trkpt>
      <trkpt lat="49.34744" lon="2.92946">
        <ele>118</ele>
        <time>2019-06-23T07:45:52Z</time>
      </trkpt>
      <trkpt lat="49.34726" lon="2.92958">
        <ele>119</ele>
        <time>2019-06-23T07:46:07Z</time>
      </trkpt>
      <trkpt lat="49.34715" lon="2.92962">
        <ele>119</ele>
        <time>2019-06-23T07:46:19Z</time>
      </trkpt>
      <trkpt lat="49.34713" lon="2.92963">
        <ele>119</ele>
        <time>2019-06-23T07:46:21Z</time>
      </trkpt>
      <trkpt lat="49.34694" lon="2.92976">
        <ele>120</ele>
        <time>2019-06-23T07:46:33Z</time>
      </trkpt>
      <trkpt lat="49.34685" lon="2.92987">
        <ele>120</ele>
        <time>2019-06-23T07:46:46Z</time>
      </trkpt>
      <trkpt lat="49.34679" lon="2.93002">
        <ele>123</ele>
        <time>2019-06-23T07:46:57Z</time>
      </trkpt>
      <trkpt lat="49.34675" lon="2.93014">
        <ele>124</ele>
        <time>2019-06-23T07:47:07Z</time>
      </trkpt>
      <trkpt lat="49.34668" lon="2.93029">
        <ele>125</ele>
        <time>2019-06-23T07:47:18Z</time>
      </trkpt>
      <trkpt lat="49.34652" lon="2.93044">
        <ele>129</ele>
        <time>2019-06-23T07:47:30Z</time>
      </trkpt>
      <trkpt lat="49.34642" lon="2.93055">
        <ele>130</ele>
        <time>2019-06-23T07:47:41Z</time>
      </trkpt>
      <trkpt lat="49.34641" lon="2.93055">
        <ele>130</ele>
        <time>2019-06-23T07:47:43Z</time>
      </trkpt>
      <trkpt lat="49.34634" lon="2.93052">
        <ele>130</ele>
        <time>2019-06-23T07:47:49Z</time>
      </trkpt>
      <trkpt lat="49.34634" lon="2.93043">
        <ele>130</ele>
        <time>2019-06-23T07:47:55Z</time>
      </trkpt>
      <trkpt lat="49.34634" lon="2.93031">
        <ele>130</ele>
        <time>2019-06-23T07:47:59Z</time>
      </trkpt>
      <trkpt lat="49.34624" lon="2.92994">
        <ele>126</ele>
        <time>2019-06-23T07:48:08Z</time>
      </trkpt>
      <trkpt lat="49.34608" lon="2.92963">
        <ele>126</ele>
        <time>2019-06-23T07:48:16Z</time>
      </trkpt>
      <trkpt lat="49.34604" lon="2.92921">
        <ele>127</ele>
        <time>2019-06-23T07:48:25Z</time>
      </trkpt>
      <trkpt lat="49.34607" lon="2.92892">
        <ele>125</ele>
        <time>2019-06-23T07:48:31Z</time>
      </trkpt>
      <trkpt lat="49.34626" lon="2.92827">
        <ele>125</ele>
        <time>2019-06-23T07:48:44Z</time>
      </trkpt>
      <trkpt lat="49.34636" lon="2.9276">
        <ele>126</ele>
        <time>2019-06-23T07:48:55Z</time>
      </trkpt>
      <trkpt lat="49.34639" lon="2.92709">
        <ele>128</ele>
        <time>2019-06-23T07:49:05Z</time>
      </trkpt>
      <trkpt lat="49.34638" lon="2.92655">
        <ele>128</ele>
        <time>2019-06-23T07:49:14Z</time>
      </trkpt>
      <trkpt lat="49.34631" lon="2.9263">
        <ele>129</ele>
        <time>2019-06-23T07:49:18Z</time>
      </trkpt>
      <trkpt lat="49.34613" lon="2.92583">
        <ele>127</ele>
        <time>2019-06-23T07:49:28Z</time>
      </trkpt>
      <trkpt lat="49.34611" lon="2.92579">
        <ele>127</ele>
        <time>2019-06-23T07:49:29Z</time>
      </trkpt>
      <trkpt lat="49.34571" lon="2.92544">
        <ele>126</ele>
        <time>2019-06-23T07:49:41Z</time>
      </trkpt>
      <trkpt lat="49.34539" lon="2.92544">
        <ele>126</ele>
        <time>2019-06-23T07:49:51Z</time>
      </trkpt>
      <trkpt lat="49.34504" lon="2.92544">
        <ele>126</ele>
        <time>2019-06-23T07:50:01Z</time>
      </trkpt>
      <trkpt lat="49.34464" lon="2.92531">
        <ele>126</ele>
        <time>2019-06-23T07:50:11Z</time>
      </trkpt>
      <trkpt lat="49.34437" lon="2.92524">
        <ele>126</ele>
        <time>2019-06-23T07:50:20Z</time>
      </trkpt>
      <trkpt lat="49.34422" lon="2.92525">
        <ele>126</ele>
        <time>2019-06-23T07:50:27Z</time>
      </trkpt>
      <trkpt lat="49.3441" lon="2.92525">
        <ele>130</ele>
        <time>2019-06-23T07:50:33Z</time>
      </trkpt>
      <trkpt lat="49.34402" lon="2.9253">
        <ele>131</ele>
        <time>2019-06-23T07:50:37Z</time>
      </trkpt>
      <trkpt lat="49.34393" lon="2.92499">
        <ele>128</ele>
        <time>2019-06-23T07:50:47Z</time>
      </trkpt>
      <trkpt lat="49.34394" lon="2.92496">
        <ele>128</ele>
        <time>2019-06-23T07:50:48Z</time>
      </trkpt>
      <trkpt lat="49.3439" lon="2.92457">
        <ele>129</ele>
        <time>2019-06-23T07:50:58Z</time>
      </trkpt>
      <trkpt lat="49.34383" lon="2.92418">
        <ele>129</ele>
        <time>2019-06-23T07:51:07Z</time>
      </trkpt>
      <trkpt lat="49.34385" lon="2.92353">
        <ele>128</ele>
        <time>2019-06-23T07:51:18Z</time>
      </trkpt>
      <trkpt lat="49.34393" lon="2.92308">
        <ele>129</ele>
        <time>2019-06-23T07:51:25Z</time>
      </trkpt>
      <trkpt lat="49.34406" lon="2.92281">
        <ele>130</ele>
        <time>2019-06-23T07:51:31Z</time>
      </trkpt>
      <trkpt lat="49.3442" lon="2.92251">
        <ele>128</ele>
        <time>2019-06-23T07:51:38Z</time>
      </trkpt>
      <trkpt lat="49.34441" lon="2.92201">
        <ele>129</ele>
        <time>2019-06-23T07:51:47Z</time>
      </trkpt>
      <trkpt lat="49.34461" lon="2.92159">
        <ele>132</ele>
        <time>2019-06-23T07:51:55Z</time>
      </trkpt>
      <trkpt lat="49.34471" lon="2.92137">
        <ele>132</ele>
        <time>2019-06-23T07:51:59Z</time>
      </trkpt>
      <trkpt lat="49.34488" lon="2.92098">
        <ele>133</ele>
        <time>2019-06-23T07:52:06Z</time>
      </trkpt>
      <trkpt lat="49.34503" lon="2.92071">
        <ele>132</ele>
        <time>2019-06-23T07:52:12Z</time>
      </trkpt>
      <trkpt lat="49.34524" lon="2.92053">
        <ele>131</ele>
        <time>2019-06-23T07:52:20Z</time>
      </trkpt>
      <trkpt lat="49.34549" lon="2.9206">
        <ele>130</ele>
        <time>2019-06-23T07:52:27Z</time>
      </trkpt>
      <trkpt lat="49.34579" lon="2.92065">
        <ele>128</ele>
        <time>2019-06-23T07:52:33Z</time>
      </trkpt>
      <trkpt lat="49.34599" lon="2.92069">
        <ele>126</ele>
        <time>2019-06-23T07:52:37Z</time>
      </trkpt>
      <trkpt lat="49.34642" lon="2.92066">
        <ele>125</ele>
        <time>2019-06-23T07:52:47Z</time>
      </trkpt>
      <trkpt lat="49.34672" lon="2.92042">
        <ele>121</ele>
        <time>2019-06-23T07:52:57Z</time>
      </trkpt>
      <trkpt lat="49.34682" lon="2.92032">
        <ele>121</ele>
        <time>2019-06-23T07:53:00Z</time>
      </trkpt>
      <trkpt lat="49.34694" lon="2.92017">
        <ele>122</ele>
        <time>2019-06-23T07:53:05Z</time>
      </trkpt>
      <trkpt lat="49.3471" lon="2.91982">
        <ele>126</ele>
        <time>2019-06-23T07:53:12Z</time>
      </trkpt>
      <trkpt lat="49.3471" lon="2.91973">
        <ele>126</ele>
        <time>2019-06-23T07:53:14Z</time>
      </trkpt>
      <trkpt lat="49.34715" lon="2.91915">
        <ele>129</ele>
        <time>2019-06-23T07:53:24Z</time>
      </trkpt>
      <trkpt lat="49.34716" lon="2.91899">
        <ele>129</ele>
        <time>2019-06-23T07:53:27Z</time>
      </trkpt>
      <trkpt lat="49.34714" lon="2.91865">
        <ele>129</ele>
        <time>2019-06-23T07:53:34Z</time>
      </trkpt>
      <trkpt lat="49.34717" lon="2.9183">
        <ele>130</ele>
        <time>2019-06-23T07:53:40Z</time>
      </trkpt>
      <trkpt lat="49.3472" lon="2.91757">
        <ele>131</ele>
        <time>2019-06-23T07:53:52Z</time>
      </trkpt>
      <trkpt lat="49.34718" lon="2.91745">
        <ele>133</ele>
        <time>2019-06-23T07:53:54Z</time>
      </trkpt>
      <trkpt lat="49.34711" lon="2.91708">
        <ele>134</ele>
        <time>2019-06-23T07:53:59Z</time>
      </trkpt>
      <trkpt lat="49.34691" lon="2.91639">
        <ele>136</ele>
        <time>2019-06-23T07:54:09Z</time>
      </trkpt>
      <trkpt lat="49.34692" lon="2.91599">
        <ele>136</ele>
        <time>2019-06-23T07:54:14Z</time>
      </trkpt>
      <trkpt lat="49.34646" lon="2.91519">
        <ele>132</ele>
        <time>2019-06-23T07:54:24Z</time>
      </trkpt>
      <trkpt lat="49.34591" lon="2.91446">
        <ele>120</ele>
        <time>2019-06-23T07:54:33Z</time>
      </trkpt>
      <trkpt lat="49.34571" lon="2.91404">
        <ele>114</ele>
        <time>2019-06-23T07:54:37Z</time>
      </trkpt>
      <trkpt lat="49.3456" lon="2.91362">
        <ele>113</ele>
        <time>2019-06-23T07:54:43Z</time>
      </trkpt>
      <trkpt lat="49.34548" lon="2.91349">
        <ele>113</ele>
        <time>2019-06-23T07:54:52Z</time>
      </trkpt>
      <trkpt lat="49.3454" lon="2.91341">
        <ele>113</ele>
        <time>2019-06-23T07:55:01Z</time>
      </trkpt>
      <trkpt lat="49.34536" lon="2.91334">
        <ele>113</ele>
        <time>2019-06-23T07:55:05Z</time>
      </trkpt>
      <trkpt lat="49.3453" lon="2.91327">
        <ele>111</ele>
        <time>2019-06-23T07:55:09Z</time>
      </trkpt>
      <trkpt lat="49.34514" lon="2.91313">
        <ele>111</ele>
        <time>2019-06-23T07:55:20Z</time>
      </trkpt>
      <trkpt lat="49.3451" lon="2.9131">
        <ele>111</ele>
        <time>2019-06-23T07:55:23Z</time>
      </trkpt>
      <trkpt lat="49.34491" lon="2.9129">
        <ele>117</ele>
        <time>2019-06-23T07:55:33Z</time>
      </trkpt>
      <trkpt lat="49.34488" lon="2.91287">
        <ele>118</ele>
        <time>2019-06-23T07:55:34Z</time>
      </trkpt>
      <trkpt lat="49.34464" lon="2.91258">
        <ele>119</ele>
        <time>2019-06-23T07:55:45Z</time>
      </trkpt>
      <trkpt lat="49.34444" lon="2.91232">
        <ele>116</ele>
        <time>2019-06-23T07:55:55Z</time>
      </trkpt>
      <trkpt lat="49.34435" lon="2.9122">
        <ele>115</ele>
        <time>2019-06-23T07:55:58Z</time>
      </trkpt>
      <trkpt lat="49.3442" lon="2.91195">
        <ele>113</ele>
        <time>2019-06-23T07:56:02Z</time>
      </trkpt>
      <trkpt lat="49.34383" lon="2.9115">
        <ele>115</ele>
        <time>2019-06-23T07:56:11Z</time>
      </trkpt>
      <trkpt lat="49.34348" lon="2.91131">
        <ele>117</ele>
        <time>2019-06-23T07:56:24Z</time>
      </trkpt>
      <trkpt lat="49.34322" lon="2.91113">
        <ele>120</ele>
        <time>2019-06-23T07:56:36Z</time>
      </trkpt>
      <trkpt lat="49.34318" lon="2.91109">
        <ele>119</ele>
        <time>2019-06-23T07:56:38Z</time>
      </trkpt>
      <trkpt lat="49.34337" lon="2.91096">
        <ele>115</ele>
        <time>2019-06-23T07:56:48Z</time>
      </trkpt>
      <trkpt lat="49.3436" lon="2.91095">
        <ele>114</ele>
        <time>2019-06-23T07:56:54Z</time>
      </trkpt>
      <trkpt lat="49.34394" lon="2.91059">
        <ele>108</ele>
        <time>2019-06-23T07:57:01Z</time>
      </trkpt>
      <trkpt lat="49.34436" lon="2.90984">
        <ele>100</ele>
        <time>2019-06-23T07:57:10Z</time>
      </trkpt>
      <trkpt lat="49.34439" lon="2.90973">
        <ele>100</ele>
        <time>2019-06-23T07:57:11Z</time>
      </trkpt>
      <trkpt lat="49.34445" lon="2.90952">
        <ele>98</ele>
        <time>2019-06-23T07:57:13Z</time>
      </trkpt>
      <trkpt lat="49.34455" lon="2.90925">
        <ele>97</ele>
        <time>2019-06-23T07:57:16Z</time>
      </trkpt>
      <trkpt lat="49.34471" lon="2.90893">
        <ele>91</ele>
        <time>2019-06-23T07:57:20Z</time>
      </trkpt>
      <trkpt lat="49.34497" lon="2.9086">
        <ele>87</ele>
        <time>2019-06-23T07:57:28Z</time>
      </trkpt>
      <trkpt lat="49.34494" lon="2.90837">
        <ele>84</ele>
        <time>2019-06-23T07:57:32Z</time>
      </trkpt>
      <trkpt lat="49.34467" lon="2.90757">
        <ele>79</ele>
        <time>2019-06-23T07:57:45Z</time>
      </trkpt>
      <trkpt lat="49.34459" lon="2.90735">
        <ele>76</ele>
        <time>2019-06-23T07:57:48Z</time>
      </trkpt>
      <trkpt lat="49.3443" lon="2.90657">
        <ele>75</ele>
        <time>2019-06-23T07:57:59Z</time>
      </trkpt>
      <trkpt lat="49.3442" lon="2.90631">
        <ele>75</ele>
        <time>2019-06-23T07:58:03Z</time>
      </trkpt>
      <trkpt lat="49.34425" lon="2.90602">
        <ele>76</ele>
        <time>2019-06-23T07:58:09Z</time>
      </trkpt>
      <trkpt lat="49.34433" lon="2.90593">
        <ele>76</ele>
        <time>2019-06-23T07:58:11Z</time>
      </trkpt>
      <trkpt lat="49.34446" lon="2.90578">
        <ele>77</ele>
        <time>2019-06-23T07:58:15Z</time>
      </trkpt>
      <trkpt lat="49.34453" lon="2.90568">
        <ele>77</ele>
        <time>2019-06-23T07:58:18Z</time>
      </trkpt>
      <trkpt lat="49.34477" lon="2.90542">
        <ele>77</ele>
        <time>2019-06-23T07:58:23Z</time>
      </trkpt>
      <trkpt lat="49.34495" lon="2.90525">
        <ele>77</ele>
        <time>2019-06-23T07:58:32Z</time>
      </trkpt>
      <trkpt lat="49.34499" lon="2.90521">
        <ele>77</ele>
        <time>2019-06-23T07:58:35Z</time>
      </trkpt>
      <trkpt lat="49.34504" lon="2.90521">
        <ele>76</ele>
        <time>2019-06-23T07:58:38Z</time>
      </trkpt>
      <trkpt lat="49.3451" lon="2.90522">
        <ele>76</ele>
        <time>2019-06-23T07:58:41Z</time>
      </trkpt>
      <trkpt lat="49.34519" lon="2.90522">
        <ele>76</ele>
        <time>2019-06-23T07:58:45Z</time>
      </trkpt>
      <trkpt lat="49.34572" lon="2.90519">
        <ele>74</ele>
        <time>2019-06-23T07:59:01Z</time>
      </trkpt>
      <trkpt lat="49.34591" lon="2.9052">
        <ele>73</ele>
        <time>2019-06-23T07:59:06Z</time>
      </trkpt>
      <trkpt lat="49.3462" lon="2.90547">
        <ele>73</ele>
        <time>2019-06-23T07:59:15Z</time>
      </trkpt>
      <trkpt lat="49.34637" lon="2.90563">
        <ele>73</ele>
        <time>2019-06-23T07:59:21Z</time>
      </trkpt>
      <trkpt lat="49.34649" lon="2.90559">
        <ele>73</ele>
        <time>2019-06-23T07:59:25Z</time>
      </trkpt>
      <trkpt lat="49.34697" lon="2.90529">
        <ele>72</ele>
        <time>2019-06-23T07:59:37Z</time>
      </trkpt>
      <trkpt lat="49.34719" lon="2.90515">
        <ele>72</ele>
        <time>2019-06-23T07:59:43Z</time>
      </trkpt>
      <trkpt lat="49.34721" lon="2.90493">
        <ele>71</ele>
        <time>2019-06-23T07:59:47Z</time>
      </trkpt>
      <trkpt lat="49.34734" lon="2.9044">
        <ele>71</ele>
        <time>2019-06-23T07:59:57Z</time>
      </trkpt>
      <trkpt lat="49.34751" lon="2.90446">
        <ele>71</ele>
        <time>2019-06-23T08:00:01Z</time>
      </trkpt>
      <trkpt lat="49.3477" lon="2.90422">
        <ele>71</ele>
        <time>2019-06-23T08:00:08Z</time>
      </trkpt>
      <trkpt lat="49.3476" lon="2.90406">
        <ele>70</ele>
        <time>2019-06-23T08:00:13Z</time>
      </trkpt>
      <trkpt lat="49.34732" lon="2.90399">
        <ele>70</ele>
        <time>2019-06-23T08:00:20Z</time>
      </trkpt>
      <trkpt lat="49.347" lon="2.90384">
        <ele>70</ele>
        <time>2019-06-23T08:00:27Z</time>
      </trkpt>
      <trkpt lat="49.34696" lon="2.90379">
        <ele>70</ele>
        <time>2019-06-23T08:00:28Z</time>
      </trkpt>
      <trkpt lat="49.34667" lon="2.90337">
        <ele>70</ele>
        <time>2019-06-23T08:00:36Z</time>
      </trkpt>
      <trkpt lat="49.34602" lon="2.90263">
        <ele>73</ele>
        <time>2019-06-23T08:00:51Z</time>
      </trkpt>
      <trkpt lat="49.34593" lon="2.90253">
        <ele>73</ele>
        <time>2019-06-23T08:00:53Z</time>
      </trkpt>
      <trkpt lat="49.34585" lon="2.90244">
        <ele>74</ele>
        <time>2019-06-23T08:00:55Z</time>
      </trkpt>
      <trkpt lat="49.34572" lon="2.90217">
        <ele>75</ele>
        <time>2019-06-23T08:00:59Z</time>
      </trkpt>
      <trkpt lat="49.34555" lon="2.90148">
        <ele>76</ele>
        <time>2019-06-23T08:01:08Z</time>
      </trkpt>
      <trkpt lat="49.34548" lon="2.90117">
        <ele>76</ele>
        <time>2019-06-23T08:01:12Z</time>
      </trkpt>
      <trkpt lat="49.34544" lon="2.90104">
        <ele>75</ele>
        <time>2019-06-23T08:01:14Z</time>
      </trkpt>
      <trkpt lat="49.34523" lon="2.90028">
        <ele>74</ele>
        <time>2019-06-23T08:01:25Z</time>
      </trkpt>
      <trkpt lat="49.34516" lon="2.90008">
        <ele>73</ele>
        <time>2019-06-23T08:01:28Z</time>
      </trkpt>
      <trkpt lat="49.34507" lon="2.89966">
        <ele>76</ele>
        <time>2019-06-23T08:01:34Z</time>
      </trkpt>
      <trkpt lat="49.34494" lon="2.89926">
        <ele>76</ele>
        <time>2019-06-23T08:01:40Z</time>
      </trkpt>
      <trkpt lat="49.34475" lon="2.89854">
        <ele>75</ele>
        <time>2019-06-23T08:01:49Z</time>
      </trkpt>
      <trkpt lat="49.34447" lon="2.89744">
        <ele>75</ele>
        <time>2019-06-23T08:01:59Z</time>
      </trkpt>
      <trkpt lat="49.34443" lon="2.89745">
        <ele>75</ele>
        <time>2019-06-23T08:02:08Z</time>
      </trkpt>
      <trkpt lat="49.3444" lon="2.89745">
        <ele>76</ele>
        <time>2019-06-23T08:02:16Z</time>
      </trkpt>
      <trkpt lat="49.34429" lon="2.89735">
        <ele>76</ele>
        <time>2019-06-23T08:02:25Z</time>
      </trkpt>
      <trkpt lat="49.34426" lon="2.89732">
        <ele>76</ele>
        <time>2019-06-23T08:02:27Z</time>
      </trkpt>
      <trkpt lat="49.34399" lon="2.89725">
        <ele>81</ele>
        <time>2019-06-23T08:02:40Z</time>
      </trkpt>
      <trkpt lat="49.34383" lon="2.89717">
        <ele>82</ele>
        <time>2019-06-23T08:02:48Z</time>
      </trkpt>
      <trkpt lat="49.34374" lon="2.89715">
        <ele>83</ele>
        <time>2019-06-23T08:02:52Z</time>
      </trkpt>
      <trkpt lat="49.34359" lon="2.89698">
        <ele>83</ele>
        <time>2019-06-23T08:02:59Z</time>
      </trkpt>
      <trkpt lat="49.34323" lon="2.8968">
        <ele>85</ele>
        <time>2019-06-23T08:03:08Z</time>
      </trkpt>
      <trkpt lat="49.34301" lon="2.89669">
        <ele>85</ele>
        <time>2019-06-23T08:03:13Z</time>
      </trkpt>
      <trkpt lat="49.34253" lon="2.89657">
        <ele>86</ele>
        <time>2019-06-23T08:03:23Z</time>
      </trkpt>
      <trkpt lat="49.34208" lon="2.89648">
        <ele>87</ele>
        <time>2019-06-23T08:03:33Z</time>
      </trkpt>
      <trkpt lat="49.34169" lon="2.89631">
        <ele>87</ele>
        <time>2019-06-23T08:03:43Z</time>
      </trkpt>
      <trkpt lat="49.34152" lon="2.89628">
        <ele>86</ele>
        <time>2019-06-23T08:03:47Z</time>
      </trkpt>
      <trkpt lat="49.34107" lon="2.89621">
        <ele>86</ele>
        <time>2019-06-23T08:03:58Z</time>
      </trkpt>
      <trkpt lat="49.34061" lon="2.89592">
        <ele>84</ele>
        <time>2019-06-23T08:04:11Z</time>
      </trkpt>
      <trkpt lat="49.34028" lon="2.89575">
        <ele>80</ele>
        <time>2019-06-23T08:04:21Z</time>
      </trkpt>
      <trkpt lat="49.33996" lon="2.89589">
        <ele>79</ele>
        <time>2019-06-23T08:04:31Z</time>
      </trkpt>
      <trkpt lat="49.33955" lon="2.89616">
        <ele>79</ele>
        <time>2019-06-23T08:04:43Z</time>
      </trkpt>
      <trkpt lat="49.33952" lon="2.89618">
        <ele>79</ele>
        <time>2019-06-23T08:04:44Z</time>
      </trkpt>
      <trkpt lat="49.3392" lon="2.89636">
        <ele>79</ele>
        <time>2019-06-23T08:04:54Z</time>
      </trkpt>
      <trkpt lat="49.33913" lon="2.89642">
        <ele>79</ele>
        <time>2019-06-23T08:04:56Z</time>
      </trkpt>
      <trkpt lat="49.33874" lon="2.89667">
        <ele>82</ele>
        <time>2019-06-23T08:05:07Z</time>
      </trkpt>
      <trkpt lat="49.33847" lon="2.89678">
        <ele>82</ele>
        <time>2019-06-23T08:05:16Z</time>
      </trkpt>
      <trkpt lat="49.33797" lon="2.89716">
        <ele>84</ele>
        <time>2019-06-23T08:05:30Z</time>
      </trkpt>
      <trkpt lat="49.3376" lon="2.89743">
        <ele>86</ele>
        <time>2019-06-23T08:05:41Z</time>
      </trkpt>
      <trkpt lat="49.33731" lon="2.89763">
        <ele>89</ele>
        <time>2019-06-23T08:05:50Z</time>
      </trkpt>
      <trkpt lat="49.33724" lon="2.89765">
        <ele>90</ele>
        <time>2019-06-23T08:06:01Z</time>
      </trkpt>
      <trkpt lat="49.33723" lon="2.89767">
        <ele>90</ele>
        <time>2019-06-23T08:06:24Z</time>
      </trkpt>
      <trkpt lat="49.33723" lon="2.89767">
        <ele>90</ele>
        <time>2019-06-23T08:06:28Z</time>
      </trkpt>
      <trkpt lat="49.33725" lon="2.89769">
        <ele>90</ele>
        <time>2019-06-23T08:06:38Z</time>
      </trkpt>
      <trkpt lat="49.33725" lon="2.89769">
        <ele>90</ele>
        <time>2019-06-23T08:06:55Z</time>
      </trkpt>
      <trkpt lat="49.33725" lon="2.89768">
        <ele>90</ele>
        <time>2019-06-23T08:07:04Z</time>
      </trkpt>
      <trkpt lat="49.33704" lon="2.89779">
        <ele>91</ele>
        <time>2019-06-23T08:07:13Z</time>
      </trkpt>
      <trkpt lat="49.33672" lon="2.89786">
        <ele>92</ele>
        <time>2019-06-23T08:07:23Z</time>
      </trkpt>
      <trkpt lat="49.33642" lon="2.89792">
        <ele>99</ele>
        <time>2019-06-23T08:07:32Z</time>
      </trkpt>
      <trkpt lat="49.33621" lon="2.89798">
        <ele>100</ele>
        <time>2019-06-23T08:07:42Z</time>
      </trkpt>
      <trkpt lat="49.33597" lon="2.89801">
        <ele>102</ele>
        <time>2019-06-23T08:07:52Z</time>
      </trkpt>
      <trkpt lat="49.33576" lon="2.89807">
        <ele>107</ele>
        <time>2019-06-23T08:08:02Z</time>
      </trkpt>
      <trkpt lat="49.33564" lon="2.8981">
        <ele>107</ele>
        <time>2019-06-23T08:08:08Z</time>
      </trkpt>
      <trkpt lat="49.33555" lon="2.89811">
        <ele>107</ele>
        <time>2019-06-23T08:08:14Z</time>
      </trkpt>
      <trkpt lat="49.3355" lon="2.8981">
        <ele>107</ele>
        <time>2019-06-23T08:08:17Z</time>
      </trkpt>
      <trkpt lat="49.33531" lon="2.89801">
        <ele>108</ele>
        <time>2019-06-23T08:08:28Z</time>
      </trkpt>
      <trkpt lat="49.33525" lon="2.89796">
        <ele>108</ele>
        <time>2019-06-23T08:08:34Z</time>
      </trkpt>
      <trkpt lat="49.3351" lon="2.8979">
        <ele>108</ele>
        <time>2019-06-23T08:08:45Z</time>
      </trkpt>
      <trkpt lat="49.33498" lon="2.89783">
        <ele>111</ele>
        <time>2019-06-23T08:08:54Z</time>
      </trkpt>
      <trkpt lat="49.33491" lon="2.89779">
        <ele>111</ele>
        <time>2019-06-23T08:08:58Z</time>
      </trkpt>
      <trkpt lat="49.33481" lon="2.89774">
        <ele>112</ele>
        <time>2019-06-23T08:09:05Z</time>
      </trkpt>
      <trkpt lat="49.33476" lon="2.89773">
        <ele>112</ele>
        <time>2019-06-23T08:09:08Z</time>
      </trkpt>
      <trkpt lat="49.3346" lon="2.89773">
        <ele>113</ele>
        <time>2019-06-23T08:09:23Z</time>
      </trkpt>
      <trkpt lat="49.33452" lon="2.89774">
        <ele>114</ele>
        <time>2019-06-23T08:09:34Z</time>
      </trkpt>
      <trkpt lat="49.33448" lon="2.89773">
        <ele>114</ele>
        <time>2019-06-23T08:09:43Z</time>
      </trkpt>
      <trkpt lat="49.33446" lon="2.89773">
        <ele>114</ele>
        <time>2019-06-23T08:09:58Z</time>
      </trkpt>
      <trkpt lat="49.33438" lon="2.89773">
        <ele>115</ele>
        <time>2019-06-23T08:10:09Z</time>
      </trkpt>
      <trkpt lat="49.33434" lon="2.89771">
        <ele>115</ele>
        <time>2019-06-23T08:10:18Z</time>
      </trkpt>
      <trkpt lat="49.33432" lon="2.89771">
        <ele>115</ele>
        <time>2019-06-23T08:10:19Z</time>
      </trkpt>
      <trkpt lat="49.33411" lon="2.89768">
        <ele>121</ele>
        <time>2019-06-23T08:10:29Z</time>
      </trkpt>
      <trkpt lat="49.33408" lon="2.89767">
        <ele>121</ele>
        <time>2019-06-23T08:10:31Z</time>
      </trkpt>
      <trkpt lat="49.33395" lon="2.89761">
        <ele>121</ele>
        <time>2019-06-23T08:10:43Z</time>
      </trkpt>
      <trkpt lat="49.33393" lon="2.89761">
        <ele>121</ele>
        <time>2019-06-23T08:10:58Z</time>
      </trkpt>
      <trkpt lat="49.33383" lon="2.89762">
        <ele>122</ele>
        <time>2019-06-23T08:11:10Z</time>
      </trkpt>
      <trkpt lat="49.33377" lon="2.89762">
        <ele>122</ele>
        <time>2019-06-23T08:11:24Z</time>
      </trkpt>
      <trkpt lat="49.33371" lon="2.89764">
        <ele>122</ele>
        <time>2019-06-23T08:11:37Z</time>
      </trkpt>
      <trkpt lat="49.3336" lon="2.89768">
        <ele>123</ele>
        <time>2019-06-23T08:11:49Z</time>
      </trkpt>
      <trkpt lat="49.3335" lon="2.89766">
        <ele>124</ele>
        <time>2019-06-23T08:11:59Z</time>
      </trkpt>
      <trkpt lat="49.33327" lon="2.89764">
        <ele>128</ele>
        <time>2019-06-23T08:12:13Z</time>
      </trkpt>
      <trkpt lat="49.33316" lon="2.89762">
        <ele>129</ele>
        <time>2019-06-23T08:12:23Z</time>
      </trkpt>
      <trkpt lat="49.3331" lon="2.89763">
        <ele>129</ele>
        <time>2019-06-23T08:12:26Z</time>
      </trkpt>
      <trkpt lat="49.33301" lon="2.89761">
        <ele>129</ele>
        <time>2019-06-23T08:12:31Z</time>
      </trkpt>
      <trkpt lat="49.33285" lon="2.89752">
        <ele>130</ele>
        <time>2019-06-23T08:12:46Z</time>
      </trkpt>
      <trkpt lat="49.33281" lon="2.89751">
        <ele>130</ele>
        <time>2019-06-23T08:12:48Z</time>
      </trkpt>
      <trkpt lat="49.33279" lon="2.89761">
        <ele>130</ele>
        <time>2019-06-23T08:12:53Z</time>
      </trkpt>
      <trkpt lat="49.33299" lon="2.89807">
        <ele>130</ele>
        <time>2019-06-23T08:13:06Z</time>
      </trkpt>
      <trkpt lat="49.33309" lon="2.89845">
        <ele>130</ele>
        <time>2019-06-23T08:13:13Z</time>
      </trkpt>
      <trkpt lat="49.33321" lon="2.89894">
        <ele>132</ele>
        <time>2019-06-23T08:13:23Z</time>
      </trkpt>
      <trkpt lat="49.3333" lon="2.89903">
        <ele>132</ele>
        <time>2019-06-23T08:13:27Z</time>
      </trkpt>
      <trkpt lat="49.33341" lon="2.89934">
        <ele>131</ele>
        <time>2019-06-23T08:13:35Z</time>
      </trkpt>
      <trkpt lat="49.33343" lon="2.89947">
        <ele>131</ele>
        <time>2019-06-23T08:13:37Z</time>
      </trkpt>
      <trkpt lat="49.33351" lon="2.89986">
        <ele>133</ele>
        <time>2019-06-23T08:13:43Z</time>
      </trkpt>
      <trkpt lat="49.33354" lon="2.89997">
        <ele>133</ele>
        <time>2019-06-23T08:13:45Z</time>
      </trkpt>
      <trkpt lat="49.33366" lon="2.90016">
        <ele>134</ele>
        <time>2019-06-23T08:13:49Z</time>
      </trkpt>
      <trkpt lat="49.33406" lon="2.90048">
        <ele>134</ele>
        <time>2019-06-23T08:13:59Z</time>
      </trkpt>
      <trkpt lat="49.33421" lon="2.90072">
        <ele>130</ele>
        <time>2019-06-23T08:14:04Z</time>
      </trkpt>
      <trkpt lat="49.33426" lon="2.90086">
        <ele>131</ele>
        <time>2019-06-23T08:14:06Z</time>
      </trkpt>
      <trkpt lat="49.33438" lon="2.90128">
        <ele>129</ele>
        <time>2019-06-23T08:14:13Z</time>
      </trkpt>
      <trkpt lat="49.33445" lon="2.90152">
        <ele>130</ele>
        <time>2019-06-23T08:14:17Z</time>
      </trkpt>
      <trkpt lat="49.33451" lon="2.90175">
        <ele>132</ele>
        <time>2019-06-23T08:14:21Z</time>
      </trkpt>
      <trkpt lat="49.33471" lon="2.9022">
        <ele>132</ele>
        <time>2019-06-23T08:14:27Z</time>
      </trkpt>
      <trkpt lat="49.33505" lon="2.90281">
        <ele>128</ele>
        <time>2019-06-23T08:14:37Z</time>
      </trkpt>
      <trkpt lat="49.33508" lon="2.90289">
        <ele>128</ele>
        <time>2019-06-23T08:14:38Z</time>
      </trkpt>
      <trkpt lat="49.33505" lon="2.90342">
        <ele>129</ele>
        <time>2019-06-23T08:14:46Z</time>
      </trkpt>
      <trkpt lat="49.33492" lon="2.90355">
        <ele>132</ele>
        <time>2019-06-23T08:14:50Z</time>
      </trkpt>
      <trkpt lat="49.33485" lon="2.90362">
        <ele>132</ele>
        <time>2019-06-23T08:14:52Z</time>
      </trkpt>
      <trkpt lat="49.33442" lon="2.90406">
        <ele>133</ele>
        <time>2019-06-23T08:15:05Z</time>
      </trkpt>
      <trkpt lat="49.33431" lon="2.90416">
        <ele>134</ele>
        <time>2019-06-23T08:15:08Z</time>
      </trkpt>
      <trkpt lat="49.33418" lon="2.90424">
        <ele>133</ele>
        <time>2019-06-23T08:15:12Z</time>
      </trkpt>
      <trkpt lat="49.33398" lon="2.90446">
        <ele>133</ele>
        <time>2019-06-23T08:15:16Z</time>
      </trkpt>
      <trkpt lat="49.33367" lon="2.9049">
        <ele>131</ele>
        <time>2019-06-23T08:15:25Z</time>
      </trkpt>
      <trkpt lat="49.33342" lon="2.90522">
        <ele>128</ele>
        <time>2019-06-23T08:15:31Z</time>
      </trkpt>
      <trkpt lat="49.33323" lon="2.90545">
        <ele>131</ele>
        <time>2019-06-23T08:15:36Z</time>
      </trkpt>
      <trkpt lat="49.33296" lon="2.9059">
        <ele>128</ele>
        <time>2019-06-23T08:15:45Z</time>
      </trkpt>
      <trkpt lat="49.33289" lon="2.90601">
        <ele>128</ele>
        <time>2019-06-23T08:15:47Z</time>
      </trkpt>
      <trkpt lat="49.3325" lon="2.90656">
        <ele>130</ele>
        <time>2019-06-23T08:15:57Z</time>
      </trkpt>
      <trkpt lat="49.33219" lon="2.90692">
        <ele>130</ele>
        <time>2019-06-23T08:16:05Z</time>
      </trkpt>
      <trkpt lat="49.33209" lon="2.907">
        <ele>130</ele>
        <time>2019-06-23T08:16:07Z</time>
      </trkpt>
      <trkpt lat="49.33169" lon="2.90738">
        <ele>131</ele>
        <time>2019-06-23T08:16:15Z</time>
      </trkpt>
      <trkpt lat="49.33155" lon="2.90752">
        <ele>130</ele>
        <time>2019-06-23T08:16:18Z</time>
      </trkpt>
      <trkpt lat="49.3314" lon="2.90767">
        <ele>129</ele>
        <time>2019-06-23T08:16:21Z</time>
      </trkpt>
      <trkpt lat="49.3313" lon="2.90775">
        <ele>128</ele>
        <time>2019-06-23T08:16:23Z</time>
      </trkpt>
      <trkpt lat="49.33116" lon="2.90786">
        <ele>128</ele>
        <time>2019-06-23T08:16:26Z</time>
      </trkpt>
      <trkpt lat="49.3309" lon="2.90793">
        <ele>127</ele>
        <time>2019-06-23T08:16:31Z</time>
      </trkpt>
      <trkpt lat="49.33053" lon="2.90769">
        <ele>128</ele>
        <time>2019-06-23T08:16:41Z</time>
      </trkpt>
      <trkpt lat="49.33045" lon="2.90755">
        <ele>129</ele>
        <time>2019-06-23T08:16:44Z</time>
      </trkpt>
      <trkpt lat="49.3303" lon="2.90719">
        <ele>134</ele>
        <time>2019-06-23T08:16:53Z</time>
      </trkpt>
      <trkpt lat="49.33028" lon="2.9071">
        <ele>134</ele>
        <time>2019-06-23T08:17:01Z</time>
      </trkpt>
      <trkpt lat="49.33021" lon="2.90681">
        <ele>135</ele>
        <time>2019-06-23T08:17:10Z</time>
      </trkpt>
      <trkpt lat="49.33016" lon="2.90658">
        <ele>138</ele>
        <time>2019-06-23T08:17:15Z</time>
      </trkpt>
      <trkpt lat="49.33002" lon="2.90639">
        <ele>138</ele>
        <time>2019-06-23T08:17:23Z</time>
      </trkpt>
      <trkpt lat="49.33001" lon="2.90638">
        <ele>138</ele>
        <time>2019-06-23T08:17:38Z</time>
      </trkpt>
      <trkpt lat="49.32999" lon="2.90642">
        <ele>138</ele>
        <time>2019-06-23T08:17:40Z</time>
      </trkpt>
      <trkpt lat="49.33" lon="2.90658">
        <ele>138</ele>
        <time>2019-06-23T08:17:43Z</time>
      </trkpt>
      <trkpt lat="49.32999" lon="2.90697">
        <ele>135</ele>
        <time>2019-06-23T08:17:48Z</time>
      </trkpt>
      <trkpt lat="49.32995" lon="2.90716">
        <ele>135</ele>
        <time>2019-06-23T08:17:50Z</time>
      </trkpt>
      <trkpt lat="49.3299" lon="2.90759">
        <ele>131</ele>
        <time>2019-06-23T08:17:54Z</time>
      </trkpt>
      <trkpt lat="49.32991" lon="2.90791">
        <ele>129</ele>
        <time>2019-06-23T08:17:57Z</time>
      </trkpt>
      <trkpt lat="49.32999" lon="2.90875">
        <ele>124</ele>
        <time>2019-06-23T08:18:07Z</time>
      </trkpt>
      <trkpt lat="49.33005" lon="2.90905">
        <ele>117</ele>
        <time>2019-06-23T08:18:10Z</time>
      </trkpt>
      <trkpt lat="49.3301" lon="2.90943">
        <ele>113</ele>
        <time>2019-06-23T08:18:14Z</time>
      </trkpt>
      <trkpt lat="49.33028" lon="2.91006">
        <ele>108</ele>
        <time>2019-06-23T08:18:23Z</time>
      </trkpt>
      <trkpt lat="49.33029" lon="2.91011">
        <ele>108</ele>
        <time>2019-06-23T08:18:24Z</time>
      </trkpt>
      <trkpt lat="49.33038" lon="2.91053">
        <ele>107</ele>
        <time>2019-06-23T08:18:32Z</time>
      </trkpt>
      <trkpt lat="49.33046" lon="2.91071">
        <ele>106</ele>
        <time>2019-06-23T08:18:36Z</time>
      </trkpt>
      <trkpt lat="49.33055" lon="2.91085">
        <ele>107</ele>
        <time>2019-06-23T08:18:39Z</time>
      </trkpt>
      <trkpt lat="49.33069" lon="2.91124">
        <ele>108</ele>
        <time>2019-06-23T08:18:49Z</time>
      </trkpt>
      <trkpt lat="49.33086" lon="2.91161">
        <ele>106</ele>
        <time>2019-06-23T08:18:58Z</time>
      </trkpt>
      <trkpt lat="49.33097" lon="2.91191">
        <ele>108</ele>
        <time>2019-06-23T08:19:05Z</time>
      </trkpt>
      <trkpt lat="49.33112" lon="2.91217">
        <ele>109</ele>
        <time>2019-06-23T08:19:11Z</time>
      </trkpt>
      <trkpt lat="49.33123" lon="2.91246">
        <ele>110</ele>
        <time>2019-06-23T08:19:17Z</time>
      </trkpt>
      <trkpt lat="49.33142" lon="2.91282">
        <ele>116</ele>
        <time>2019-06-23T08:19:26Z</time>
      </trkpt>
      <trkpt lat="49.33144" lon="2.91286">
        <ele>116</ele>
        <time>2019-06-23T08:19:27Z</time>
      </trkpt>
      <trkpt lat="49.33156" lon="2.91314">
        <ele>116</ele>
        <time>2019-06-23T08:19:35Z</time>
      </trkpt>
      <trkpt lat="49.33166" lon="2.91334">
        <ele>115</ele>
        <time>2019-06-23T08:19:42Z</time>
      </trkpt>
      <trkpt lat="49.3317" lon="2.91338">
        <ele>115</ele>
        <time>2019-06-23T08:19:44Z</time>
      </trkpt>
      <trkpt lat="49.33171" lon="2.91343">
        <ele>114</ele>
        <time>2019-06-23T08:19:47Z</time>
      </trkpt>
      <trkpt lat="49.3317" lon="2.91353">
        <ele>114</ele>
        <time>2019-06-23T08:19:53Z</time>
      </trkpt>
      <trkpt lat="49.33165" lon="2.91357">
        <ele>122</ele>
        <time>2019-06-23T08:19:57Z</time>
      </trkpt>
      <trkpt lat="49.33152" lon="2.91364">
        <ele>124</ele>
        <time>2019-06-23T08:20:09Z</time>
      </trkpt>
      <trkpt lat="49.33149" lon="2.91366">
        <ele>124</ele>
        <time>2019-06-23T08:20:14Z</time>
      </trkpt>
      <trkpt lat="49.33151" lon="2.91362">
        <ele>124</ele>
        <time>2019-06-23T08:20:17Z</time>
      </trkpt>
      <trkpt lat="49.3314" lon="2.9137">
        <ele>125</ele>
        <time>2019-06-23T08:20:25Z</time>
      </trkpt>
      <trkpt lat="49.33127" lon="2.9138">
        <ele>127</ele>
        <time>2019-06-23T08:20:36Z</time>
      </trkpt>
      <trkpt lat="49.33123" lon="2.91383">
        <ele>127</ele>
        <time>2019-06-23T08:20:39Z</time>
      </trkpt>
      <trkpt lat="49.33108" lon="2.91398">
        <ele>129</ele>
        <time>2019-06-23T08:20:52Z</time>
      </trkpt>
      <trkpt lat="49.33098" lon="2.9141">
        <ele>131</ele>
        <time>2019-06-23T08:21:03Z</time>
      </trkpt>
      <trkpt lat="49.33088" lon="2.91417">
        <ele>135</ele>
        <time>2019-06-23T08:21:12Z</time>
      </trkpt>
      <trkpt lat="49.3308" lon="2.91426">
        <ele>136</ele>
        <time>2019-06-23T08:21:23Z</time>
      </trkpt>
      <trkpt lat="49.33074" lon="2.91433">
        <ele>137</ele>
        <time>2019-06-23T08:21:31Z</time>
      </trkpt>
      <trkpt lat="49.33066" lon="2.91439">
        <ele>137</ele>
        <time>2019-06-23T08:21:38Z</time>
      </trkpt>
      <trkpt lat="49.33052" lon="2.91453">
        <ele>138</ele>
        <time>2019-06-23T08:21:48Z</time>
      </trkpt>
      <trkpt lat="49.33045" lon="2.91458">
        <ele>138</ele>
        <time>2019-06-23T08:21:54Z</time>
      </trkpt>
      <trkpt lat="49.3303" lon="2.91473">
        <ele>139</ele>
        <time>2019-06-23T08:22:06Z</time>
      </trkpt>
      <trkpt lat="49.33029" lon="2.91475">
        <ele>139</ele>
        <time>2019-06-23T08:22:07Z</time>
      </trkpt>
      <trkpt lat="49.33023" lon="2.91482">
        <ele>139</ele>
        <time>2019-06-23T08:22:12Z</time>
      </trkpt>
      <trkpt lat="49.33013" lon="2.91503">
        <ele>141</ele>
        <time>2019-06-23T08:22:23Z</time>
      </trkpt>
      <trkpt lat="49.33014" lon="2.91506">
        <ele>141</ele>
        <time>2019-06-23T08:22:26Z</time>
      </trkpt>
      <trkpt lat="49.33023" lon="2.91509">
        <ele>141</ele>
        <time>2019-06-23T08:22:38Z</time>
      </trkpt>
      <trkpt lat="49.33039" lon="2.915">
        <ele>140</ele>
        <time>2019-06-23T08:22:46Z</time>
      </trkpt>
      <trkpt lat="49.3307" lon="2.91487">
        <ele>139</ele>
        <time>2019-06-23T08:22:56Z</time>
      </trkpt>
      <trkpt lat="49.3309" lon="2.91477">
        <ele>136</ele>
        <time>2019-06-23T08:23:01Z</time>
      </trkpt>
      <trkpt lat="49.33112" lon="2.91462">
        <ele>134</ele>
        <time>2019-06-23T08:23:07Z</time>
      </trkpt>
      <trkpt lat="49.33164" lon="2.91457">
        <ele>132</ele>
        <time>2019-06-23T08:23:15Z</time>
      </trkpt>
      <trkpt lat="49.33179" lon="2.91472">
        <ele>126</ele>
        <time>2019-06-23T08:23:19Z</time>
      </trkpt>
      <trkpt lat="49.33199" lon="2.91528">
        <ele>129</ele>
        <time>2019-06-23T08:23:29Z</time>
      </trkpt>
      <trkpt lat="49.33207" lon="2.91577">
        <ele>129</ele>
        <time>2019-06-23T08:23:39Z</time>
      </trkpt>
      <trkpt lat="49.33204" lon="2.91635">
        <ele>132</ele>
        <time>2019-06-23T08:23:50Z</time>
      </trkpt>
      <trkpt lat="49.33201" lon="2.91691">
        <ele>133</ele>
        <time>2019-06-23T08:24:00Z</time>
      </trkpt>
      <trkpt lat="49.332" lon="2.91725">
        <ele>133</ele>
        <time>2019-06-23T08:24:06Z</time>
      </trkpt>
      <trkpt lat="49.33196" lon="2.91762">
        <ele>133</ele>
        <time>2019-06-23T08:24:14Z</time>
      </trkpt>
      <trkpt lat="49.33188" lon="2.91831">
        <ele>135</ele>
        <time>2019-06-23T08:24:25Z</time>
      </trkpt>
      <trkpt lat="49.33185" lon="2.91876">
        <ele>134</ele>
        <time>2019-06-23T08:24:32Z</time>
      </trkpt>
      <trkpt lat="49.33178" lon="2.91927">
        <ele>137</ele>
        <time>2019-06-23T08:24:42Z</time>
      </trkpt>
      <trkpt lat="49.3316" lon="2.9195">
        <ele>141</ele>
        <time>2019-06-23T08:24:49Z</time>
      </trkpt>
      <trkpt lat="49.33122" lon="2.91978">
        <ele>141</ele>
        <time>2019-06-23T08:25:00Z</time>
      </trkpt>
      <trkpt lat="49.33088" lon="2.91984">
        <ele>143</ele>
        <time>2019-06-23T08:25:10Z</time>
      </trkpt>
      <trkpt lat="49.33063" lon="2.91971">
        <ele>143</ele>
        <time>2019-06-23T08:25:20Z</time>
      </trkpt>
      <trkpt lat="49.33023" lon="2.9196">
        <ele>143</ele>
        <time>2019-06-23T08:25:32Z</time>
      </trkpt>
      <trkpt lat="49.32998" lon="2.91982">
        <ele>146</ele>
        <time>2019-06-23T08:25:40Z</time>
      </trkpt>
      <trkpt lat="49.32976" lon="2.92004">
        <ele>145</ele>
        <time>2019-06-23T08:25:47Z</time>
      </trkpt>
      <trkpt lat="49.32977" lon="2.9201">
        <ele>145</ele>
        <time>2019-06-23T08:25:50Z</time>
      </trkpt>
      <trkpt lat="49.32987" lon="2.92016">
        <ele>144</ele>
        <time>2019-06-23T08:25:54Z</time>
      </trkpt>
      <trkpt lat="49.33008" lon="2.92026">
        <ele>143</ele>
        <time>2019-06-23T08:25:59Z</time>
      </trkpt>
      <trkpt lat="49.33033" lon="2.92031">
        <ele>142</ele>
        <time>2019-06-23T08:26:03Z</time>
      </trkpt>
      <trkpt lat="49.33063" lon="2.92049">
        <ele>142</ele>
        <time>2019-06-23T08:26:08Z</time>
      </trkpt>
      <trkpt lat="49.3309" lon="2.92063">
        <ele>141</ele>
        <time>2019-06-23T08:26:14Z</time>
      </trkpt>
      <trkpt lat="49.3311" lon="2.92066">
        <ele>140</ele>
        <time>2019-06-23T08:26:19Z</time>
      </trkpt>
      <trkpt lat="49.33127" lon="2.92068">
        <ele>139</ele>
        <time>2019-06-23T08:26:23Z</time>
      </trkpt>
      <trkpt lat="49.3315" lon="2.92077">
        <ele>138</ele>
        <time>2019-06-23T08:26:32Z</time>
      </trkpt>
      <trkpt lat="49.33151" lon="2.92078">
        <ele>138</ele>
        <time>2019-06-23T08:26:33Z</time>
      </trkpt>
      <trkpt lat="49.33179" lon="2.92075">
        <ele>132</ele>
        <time>2019-06-23T08:26:41Z</time>
      </trkpt>
      <trkpt lat="49.33208" lon="2.92069">
        <ele>128</ele>
        <time>2019-06-23T08:26:45Z</time>
      </trkpt>
      <trkpt lat="49.33227" lon="2.92078">
        <ele>126</ele>
        <time>2019-06-23T08:26:50Z</time>
      </trkpt>
      <trkpt lat="49.33255" lon="2.921">
        <ele>120</ele>
        <time>2019-06-23T08:26:58Z</time>
      </trkpt>
      <trkpt lat="49.33262" lon="2.92109">
        <ele>119</ele>
        <time>2019-06-23T08:27:00Z</time>
      </trkpt>
      <trkpt lat="49.33301" lon="2.92158">
        <ele>117</ele>
        <time>2019-06-23T08:27:09Z</time>
      </trkpt>
      <trkpt lat="49.33306" lon="2.92163">
        <ele>116</ele>
        <time>2019-06-23T08:27:10Z</time>
      </trkpt>
      <trkpt lat="49.33318" lon="2.92179">
        <ele>116</ele>
        <time>2019-06-23T08:27:13Z</time>
      </trkpt>
      <trkpt lat="49.33348" lon="2.92211">
        <ele>110</ele>
        <time>2019-06-23T08:27:22Z</time>
      </trkpt>
      <trkpt lat="49.3336" lon="2.92221">
        <ele>110</ele>
        <time>2019-06-23T08:27:25Z</time>
      </trkpt>
      <trkpt lat="49.33399" lon="2.92243">
        <ele>110</ele>
        <time>2019-06-23T08:27:35Z</time>
      </trkpt>
      <trkpt lat="49.3341" lon="2.92249">
        <ele>111</ele>
        <time>2019-06-23T08:27:39Z</time>
      </trkpt>
      <trkpt lat="49.33421" lon="2.92252">
        <ele>113</ele>
        <time>2019-06-23T08:27:44Z</time>
      </trkpt>
      <trkpt lat="49.3343" lon="2.92251">
        <ele>115</ele>
        <time>2019-06-23T08:27:48Z</time>
      </trkpt>
      <trkpt lat="49.33439" lon="2.9226">
        <ele>117</ele>
        <time>2019-06-23T08:27:53Z</time>
      </trkpt>
      <trkpt lat="49.33441" lon="2.92265">
        <ele>118</ele>
        <time>2019-06-23T08:27:55Z</time>
      </trkpt>
      <trkpt lat="49.33446" lon="2.92273">
        <ele>119</ele>
        <time>2019-06-23T08:27:59Z</time>
      </trkpt>
      <trkpt lat="49.33459" lon="2.9229">
        <ele>120</ele>
        <time>2019-06-23T08:28:08Z</time>
      </trkpt>
      <trkpt lat="49.33468" lon="2.92305">
        <ele>121</ele>
        <time>2019-06-23T08:28:15Z</time>
      </trkpt>
      <trkpt lat="49.33471" lon="2.9231">
        <ele>121</ele>
        <time>2019-06-23T08:28:18Z</time>
      </trkpt>
      <trkpt lat="49.33484" lon="2.92325">
        <ele>122</ele>
        <time>2019-06-23T08:28:30Z</time>
      </trkpt>
      <trkpt lat="49.33492" lon="2.92335">
        <ele>124</ele>
        <time>2019-06-23T08:28:36Z</time>
      </trkpt>
      <trkpt lat="49.33497" lon="2.9234">
        <ele>124</ele>
        <time>2019-06-23T08:28:40Z</time>
      </trkpt>
      <trkpt lat="49.33506" lon="2.92353">
        <ele>127</ele>
        <time>2019-06-23T08:28:48Z</time>
      </trkpt>
      <trkpt lat="49.33511" lon="2.92364">
        <ele>128</ele>
        <time>2019-06-23T08:28:53Z</time>
      </trkpt>
      <trkpt lat="49.33523" lon="2.92387">
        <ele>129</ele>
        <time>2019-06-23T08:29:06Z</time>
      </trkpt>
      <trkpt lat="49.33531" lon="2.92398">
        <ele>129</ele>
        <time>2019-06-23T08:29:14Z</time>
      </trkpt>
      <trkpt lat="49.33541" lon="2.9241">
        <ele>129</ele>
        <time>2019-06-23T08:29:21Z</time>
      </trkpt>
      <trkpt lat="49.33542" lon="2.92436">
        <ele>131</ele>
        <time>2019-06-23T08:29:32Z</time>
      </trkpt>
      <trkpt lat="49.33544" lon="2.92441">
        <ele>131</ele>
        <time>2019-06-23T08:29:34Z</time>
      </trkpt>
      <trkpt lat="49.33548" lon="2.92459">
        <ele>131</ele>
        <time>2019-06-23T08:29:42Z</time>
      </trkpt>
      <trkpt lat="49.33553" lon="2.92464">
        <ele>131</ele>
        <time>2019-06-23T08:29:44Z</time>
      </trkpt>
      <trkpt lat="49.33573" lon="2.92493">
        <ele>131</ele>
        <time>2019-06-23T08:29:55Z</time>
      </trkpt>
      <trkpt lat="49.33578" lon="2.92502">
        <ele>132</ele>
        <time>2019-06-23T08:29:58Z</time>
      </trkpt>
      <trkpt lat="49.33585" lon="2.92527">
        <ele>132</ele>
        <time>2019-06-23T08:30:08Z</time>
      </trkpt>
      <trkpt lat="49.33587" lon="2.92533">
        <ele>133</ele>
        <time>2019-06-23T08:30:11Z</time>
      </trkpt>
      <trkpt lat="49.33595" lon="2.92556">
        <ele>133</ele>
        <time>2019-06-23T08:30:24Z</time>
      </trkpt>
      <trkpt lat="49.33598" lon="2.92562">
        <ele>133</ele>
        <time>2019-06-23T08:30:27Z</time>
      </trkpt>
      <trkpt lat="49.33602" lon="2.92571">
        <ele>134</ele>
        <time>2019-06-23T08:30:32Z</time>
      </trkpt>
      <trkpt lat="49.33606" lon="2.9258">
        <ele>134</ele>
        <time>2019-06-23T08:30:37Z</time>
      </trkpt>
      <trkpt lat="49.33612" lon="2.92595">
        <ele>136</ele>
        <time>2019-06-23T08:30:43Z</time>
      </trkpt>
      <trkpt lat="49.33622" lon="2.92608">
        <ele>136</ele>
        <time>2019-06-23T08:30:52Z</time>
      </trkpt>
      <trkpt lat="49.33636" lon="2.92624">
        <ele>136</ele>
        <time>2019-06-23T08:31:02Z</time>
      </trkpt>
      <trkpt lat="49.33636" lon="2.92628">
        <ele>137</ele>
        <time>2019-06-23T08:31:05Z</time>
      </trkpt>
      <trkpt lat="49.33645" lon="2.92641">
        <ele>137</ele>
        <time>2019-06-23T08:31:11Z</time>
      </trkpt>
      <trkpt lat="49.33648" lon="2.92646">
        <ele>137</ele>
        <time>2019-06-23T08:31:13Z</time>
      </trkpt>
      <trkpt lat="49.33658" lon="2.92663">
        <ele>137</ele>
        <time>2019-06-23T08:31:20Z</time>
      </trkpt>
      <trkpt lat="49.33665" lon="2.92682">
        <ele>139</ele>
        <time>2019-06-23T08:31:23Z</time>
      </trkpt>
      <trkpt lat="49.33679" lon="2.92708">
        <ele>138</ele>
        <time>2019-06-23T08:31:32Z</time>
      </trkpt>
      <trkpt lat="49.33687" lon="2.92719">
        <ele>138</ele>
        <time>2019-06-23T08:31:36Z</time>
      </trkpt>
      <trkpt lat="49.33695" lon="2.9273">
        <ele>138</ele>
        <time>2019-06-23T08:31:40Z</time>
      </trkpt>
      <trkpt lat="49.33702" lon="2.92745">
        <ele>139</ele>
        <time>2019-06-23T08:31:46Z</time>
      </trkpt>
      <trkpt lat="49.3371" lon="2.92753">
        <ele>140</ele>
        <time>2019-06-23T08:31:50Z</time>
      </trkpt>
      <trkpt lat="49.33717" lon="2.92761">
        <ele>140</ele>
        <time>2019-06-23T08:31:53Z</time>
      </trkpt>
      <trkpt lat="49.33724" lon="2.92774">
        <ele>140</ele>
        <time>2019-06-23T08:31:58Z</time>
      </trkpt>
      <trkpt lat="49.3374" lon="2.92801">
        <ele>140</ele>
        <time>2019-06-23T08:32:09Z</time>
      </trkpt>
      <trkpt lat="49.33754" lon="2.92821">
        <ele>139</ele>
        <time>2019-06-23T08:32:17Z</time>
      </trkpt>
      <trkpt lat="49.3377" lon="2.92847">
        <ele>139</ele>
        <time>2019-06-23T08:32:26Z</time>
      </trkpt>
      <trkpt lat="49.33772" lon="2.92858">
        <ele>139</ele>
        <time>2019-06-23T08:32:30Z</time>
      </trkpt>
      <trkpt lat="49.33781" lon="2.92887">
        <ele>139</ele>
        <time>2019-06-23T08:32:39Z</time>
      </trkpt>
      <trkpt lat="49.33787" lon="2.92902">
        <ele>139</ele>
        <time>2019-06-23T08:32:42Z</time>
      </trkpt>
      <trkpt lat="49.33803" lon="2.92955">
        <ele>139</ele>
        <time>2019-06-23T08:32:53Z</time>
      </trkpt>
      <trkpt lat="49.3381" lon="2.93022">
        <ele>140</ele>
        <time>2019-06-23T08:33:04Z</time>
      </trkpt>
      <trkpt lat="49.33813" lon="2.93067">
        <ele>140</ele>
        <time>2019-06-23T08:33:12Z</time>
      </trkpt>
      <trkpt lat="49.33828" lon="2.9312">
        <ele>141</ele>
        <time>2019-06-23T08:33:21Z</time>
      </trkpt>
      <trkpt lat="49.33838" lon="2.93182">
        <ele>141</ele>
        <time>2019-06-23T08:33:32Z</time>
      </trkpt>
      <trkpt lat="49.33842" lon="2.93244">
        <ele>142</ele>
        <time>2019-06-23T08:33:42Z</time>
      </trkpt>
      <trkpt lat="49.33846" lon="2.93262">
        <ele>141</ele>
        <time>2019-06-23T08:33:45Z</time>
      </trkpt>
      <trkpt lat="49.3385" lon="2.93276">
        <ele>141</ele>
        <time>2019-06-23T08:33:47Z</time>
      </trkpt>
      <trkpt lat="49.33869" lon="2.93335">
        <ele>139</ele>
        <time>2019-06-23T08:33:55Z</time>
      </trkpt>
      <trkpt lat="49.33877" lon="2.93367">
        <ele>138</ele>
        <time>2019-06-23T08:33:59Z</time>
      </trkpt>
      <trkpt lat="49.33891" lon="2.93417">
        <ele>137</ele>
        <time>2019-06-23T08:34:07Z</time>
      </trkpt>
      <trkpt lat="49.33897" lon="2.93448">
        <ele>137</ele>
        <time>2019-06-23T08:34:12Z</time>
      </trkpt>
      <trkpt lat="49.33906" lon="2.93477">
        <ele>136</ele>
        <time>2019-06-23T08:34:16Z</time>
      </trkpt>
      <trkpt lat="49.3391" lon="2.935">
        <ele>135</ele>
        <time>2019-06-23T08:34:19Z</time>
      </trkpt>
      <trkpt lat="49.33918" lon="2.93564">
        <ele>134</ele>
        <time>2019-06-23T08:34:27Z</time>
      </trkpt>
      <trkpt lat="49.33926" lon="2.93595">
        <ele>135</ele>
        <time>2019-06-23T08:34:31Z</time>
      </trkpt>
      <trkpt lat="49.33928" lon="2.93609">
        <ele>135</ele>
        <time>2019-06-23T08:34:33Z</time>
      </trkpt>
      <trkpt lat="49.33933" lon="2.93629">
        <ele>135</ele>
        <time>2019-06-23T08:34:36Z</time>
      </trkpt>
      <trkpt lat="49.33944" lon="2.93669">
        <ele>136</ele>
        <time>2019-06-23T08:34:42Z</time>
      </trkpt>
      <trkpt lat="49.33949" lon="2.9369">
        <ele>136</ele>
        <time>2019-06-23T08:34:45Z</time>
      </trkpt>
      <trkpt lat="49.33951" lon="2.9371">
        <ele>136</ele>
        <time>2019-06-23T08:34:48Z</time>
      </trkpt>
      <trkpt lat="49.33952" lon="2.93724">
        <ele>136</ele>
        <time>2019-06-23T08:34:50Z</time>
      </trkpt>
      <trkpt lat="49.33955" lon="2.93737">
        <ele>136</ele>
        <time>2019-06-23T08:34:52Z</time>
      </trkpt>
      <trkpt lat="49.33961" lon="2.93769">
        <ele>136</ele>
        <time>2019-06-23T08:34:57Z</time>
      </trkpt>
      <trkpt lat="49.33967" lon="2.93796">
        <ele>136</ele>
        <time>2019-06-23T08:35:01Z</time>
      </trkpt>
      <trkpt lat="49.33976" lon="2.93848">
        <ele>135</ele>
        <time>2019-06-23T08:35:08Z</time>
      </trkpt>
      <trkpt lat="49.33981" lon="2.93875">
        <ele>135</ele>
        <time>2019-06-23T08:35:12Z</time>
      </trkpt>
      <trkpt lat="49.33985" lon="2.93905">
        <ele>135</ele>
        <time>2019-06-23T08:35:16Z</time>
      </trkpt>
      <trkpt lat="49.33994" lon="2.93962">
        <ele>134</ele>
        <time>2019-06-23T08:35:24Z</time>
      </trkpt>
      <trkpt lat="49.34005" lon="2.93979">
        <ele>133</ele>
        <time>2019-06-23T08:35:28Z</time>
      </trkpt>
      <trkpt lat="49.34039" lon="2.94024">
        <ele>132</ele>
        <time>2019-06-23T08:35:38Z</time>
      </trkpt>
      <trkpt lat="49.34044" lon="2.94035">
        <ele>132</ele>
        <time>2019-06-23T08:35:40Z</time>
      </trkpt>
      <trkpt lat="49.34072" lon="2.94102">
        <ele>132</ele>
        <time>2019-06-23T08:35:52Z</time>
      </trkpt>
      <trkpt lat="49.34081" lon="2.94153">
        <ele>131</ele>
        <time>2019-06-23T08:36:00Z</time>
      </trkpt>
      <trkpt lat="49.34086" lon="2.94185">
        <ele>130</ele>
        <time>2019-06-23T08:36:05Z</time>
      </trkpt>
      <trkpt lat="49.34098" lon="2.94227">
        <ele>131</ele>
        <time>2019-06-23T08:36:11Z</time>
      </trkpt>
      <trkpt lat="49.34114" lon="2.94267">
        <ele>130</ele>
        <time>2019-06-23T08:36:17Z</time>
      </trkpt>
      <trkpt lat="49.34117" lon="2.94278">
        <ele>130</ele>
        <time>2019-06-23T08:36:19Z</time>
      </trkpt>
      <trkpt lat="49.34123" lon="2.94303">
        <ele>130</ele>
        <time>2019-06-23T08:36:23Z</time>
      </trkpt>
      <trkpt lat="49.34138" lon="2.94356">
        <ele>130</ele>
        <time>2019-06-23T08:36:32Z</time>
      </trkpt>
      <trkpt lat="49.34142" lon="2.94379">
        <ele>130</ele>
        <time>2019-06-23T08:36:36Z</time>
      </trkpt>
      <trkpt lat="49.34156" lon="2.94428">
        <ele>130</ele>
        <time>2019-06-23T08:36:44Z</time>
      </trkpt>
      <trkpt lat="49.3416" lon="2.9444">
        <ele>131</ele>
        <time>2019-06-23T08:36:46Z</time>
      </trkpt>
      <trkpt lat="49.34168" lon="2.94458">
        <ele>129</ele>
        <time>2019-06-23T08:36:49Z</time>
      </trkpt>
      <trkpt lat="49.3418" lon="2.94473">
        <ele>130</ele>
        <time>2019-06-23T08:36:52Z</time>
      </trkpt>
      <trkpt lat="49.34192" lon="2.94499">
        <ele>130</ele>
        <time>2019-06-23T08:36:56Z</time>
      </trkpt>
      <trkpt lat="49.34198" lon="2.94529">
        <ele>130</ele>
        <time>2019-06-23T08:37:01Z</time>
      </trkpt>
      <trkpt lat="49.34227" lon="2.94559">
        <ele>130</ele>
        <time>2019-06-23T08:37:06Z</time>
      </trkpt>
      <trkpt lat="49.3425" lon="2.94622">
        <ele>130</ele>
        <time>2019-06-23T08:37:17Z</time>
      </trkpt>
      <trkpt lat="49.34252" lon="2.94628">
        <ele>130</ele>
        <time>2019-06-23T08:37:18Z</time>
      </trkpt>
      <trkpt lat="49.34269" lon="2.9464">
        <ele>130</ele>
        <time>2019-06-23T08:37:24Z</time>
      </trkpt>
      <trkpt lat="49.34301" lon="2.94633">
        <ele>130</ele>
        <time>2019-06-23T08:37:31Z</time>
      </trkpt>
      <trkpt lat="49.34305" lon="2.94632">
        <ele>130</ele>
        <time>2019-06-23T08:37:32Z</time>
      </trkpt>
      <trkpt lat="49.34323" lon="2.94627">
        <ele>130</ele>
        <time>2019-06-23T08:37:36Z</time>
      </trkpt>
      <trkpt lat="49.34347" lon="2.94617">
        <ele>131</ele>
        <time>2019-06-23T08:37:41Z</time>
      </trkpt>
      <trkpt lat="49.34394" lon="2.94604">
        <ele>133</ele>
        <time>2019-06-23T08:37:53Z</time>
      </trkpt>
      <trkpt lat="49.34423" lon="2.94591">
        <ele>134</ele>
        <time>2019-06-23T08:38:02Z</time>
      </trkpt>
      <trkpt lat="49.34464" lon="2.94577">
        <ele>133</ele>
        <time>2019-06-23T08:38:11Z</time>
      </trkpt>
      <trkpt lat="49.34498" lon="2.94568">
        <ele>133</ele>
        <time>2019-06-23T08:38:18Z</time>
      </trkpt>
      <trkpt lat="49.34538" lon="2.94551">
        <ele>133</ele>
        <time>2019-06-23T08:38:27Z</time>
      </trkpt>
      <trkpt lat="49.34575" lon="2.94541">
        <ele>133</ele>
        <time>2019-06-23T08:38:35Z</time>
      </trkpt>
      <trkpt lat="49.34596" lon="2.94532">
        <ele>132</ele>
        <time>2019-06-23T08:38:39Z</time>
      </trkpt>
      <trkpt lat="49.34612" lon="2.94528">
        <ele>132</ele>
        <time>2019-06-23T08:38:42Z</time>
      </trkpt>
      <trkpt lat="49.34652" lon="2.94514">
        <ele>131</ele>
        <time>2019-06-23T08:38:53Z</time>
      </trkpt>
      <trkpt lat="49.34657" lon="2.94513">
        <ele>131</ele>
        <time>2019-06-23T08:38:55Z</time>
      </trkpt>
      <trkpt lat="49.34706" lon="2.9453">
        <ele>129</ele>
        <time>2019-06-23T08:39:05Z</time>
      </trkpt>
      <trkpt lat="49.34711" lon="2.94532">
        <ele>129</ele>
        <time>2019-06-23T08:39:06Z</time>
      </trkpt>
      <trkpt lat="49.34736" lon="2.94545">
        <ele>129</ele>
        <time>2019-06-23T08:39:14Z</time>
      </trkpt>
      <trkpt lat="49.3474" lon="2.94548">
        <ele>129</ele>
        <time>2019-06-23T08:39:15Z</time>
      </trkpt>
      <trkpt lat="49.34757" lon="2.94561">
        <ele>127</ele>
        <time>2019-06-23T08:39:20Z</time>
      </trkpt>
      <trkpt lat="49.34775" lon="2.94577">
        <ele>127</ele>
        <time>2019-06-23T08:39:25Z</time>
      </trkpt>
      <trkpt lat="49.34806" lon="2.94601">
        <ele>128</ele>
        <time>2019-06-23T08:39:33Z</time>
      </trkpt>
      <trkpt lat="49.34814" lon="2.94609">
        <ele>128</ele>
        <time>2019-06-23T08:39:35Z</time>
      </trkpt>
      <trkpt lat="49.34872" lon="2.94655">
        <ele>128</ele>
        <time>2019-06-23T08:39:49Z</time>
      </trkpt>
      <trkpt lat="49.34892" lon="2.94671">
        <ele>129</ele>
        <time>2019-06-23T08:39:54Z</time>
      </trkpt>
      <trkpt lat="49.34911" lon="2.94688">
        <ele>129</ele>
        <time>2019-06-23T08:39:59Z</time>
      </trkpt>
      <trkpt lat="49.34922" lon="2.94705">
        <ele>127</ele>
        <time>2019-06-23T08:40:02Z</time>
      </trkpt>
      <trkpt lat="49.34929" lon="2.94725">
        <ele>127</ele>
        <time>2019-06-23T08:40:05Z</time>
      </trkpt>
      <trkpt lat="49.34932" lon="2.94739">
        <ele>127</ele>
        <time>2019-06-23T08:40:07Z</time>
      </trkpt>
      <trkpt lat="49.34939" lon="2.94761">
        <ele>127</ele>
        <time>2019-06-23T08:40:10Z</time>
      </trkpt>
      <trkpt lat="49.34955" lon="2.94824">
        <ele>126</ele>
        <time>2019-06-23T08:40:19Z</time>
      </trkpt>
      <trkpt lat="49.34966" lon="2.94854">
        <ele>127</ele>
        <time>2019-06-23T08:40:24Z</time>
      </trkpt>
      <trkpt lat="49.34982" lon="2.9487">
        <ele>127</ele>
        <time>2019-06-23T08:40:29Z</time>
      </trkpt>
      <trkpt lat="49.35037" lon="2.94911">
        <ele>128</ele>
        <time>2019-06-23T08:40:41Z</time>
      </trkpt>
      <trkpt lat="49.35048" lon="2.94922">
        <ele>129</ele>
        <time>2019-06-23T08:40:44Z</time>
      </trkpt>
      <trkpt lat="49.35075" lon="2.94946">
        <ele>129</ele>
        <time>2019-06-23T08:40:50Z</time>
      </trkpt>
      <trkpt lat="49.35084" lon="2.94957">
        <ele>127</ele>
        <time>2019-06-23T08:40:52Z</time>
      </trkpt>
      <trkpt lat="49.35091" lon="2.9499">
        <ele>128</ele>
        <time>2019-06-23T08:40:58Z</time>
      </trkpt>
      <trkpt lat="49.35098" lon="2.95032">
        <ele>128</ele>
        <time>2019-06-23T08:41:08Z</time>
      </trkpt>
      <trkpt lat="49.35098" lon="2.95037">
        <ele>128</ele>
        <time>2019-06-23T08:41:09Z</time>
      </trkpt>
      <trkpt lat="49.35099" lon="2.95059">
        <ele>127</ele>
        <time>2019-06-23T08:41:13Z</time>
      </trkpt>
      <trkpt lat="49.35095" lon="2.95086">
        <ele>127</ele>
        <time>2019-06-23T08:41:17Z</time>
      </trkpt>
      <trkpt lat="49.35102" lon="2.9512">
        <ele>127</ele>
        <time>2019-06-23T08:41:26Z</time>
      </trkpt>
      <trkpt lat="49.35108" lon="2.95108">
        <ele>127</ele>
        <time>2019-06-23T08:41:30Z</time>
      </trkpt>
      <trkpt lat="49.35129" lon="2.95074">
        <ele>127</ele>
        <time>2019-06-23T08:41:36Z</time>
      </trkpt>
      <trkpt lat="49.35145" lon="2.95021">
        <ele>127</ele>
        <time>2019-06-23T08:41:42Z</time>
      </trkpt>
      <trkpt lat="49.35163" lon="2.94938">
        <ele>122</ele>
        <time>2019-06-23T08:41:50Z</time>
      </trkpt>
      <trkpt lat="49.35186" lon="2.94913">
        <ele>114</ele>
        <time>2019-06-23T08:41:57Z</time>
      </trkpt>
      <trkpt lat="49.35189" lon="2.94915">
        <ele>114</ele>
        <time>2019-06-23T08:41:58Z</time>
      </trkpt>
      <trkpt lat="49.3522" lon="2.94939">
        <ele>117</ele>
        <time>2019-06-23T08:42:08Z</time>
      </trkpt>
      <trkpt lat="49.35256" lon="2.94976">
        <ele>116</ele>
        <time>2019-06-23T08:42:18Z</time>
      </trkpt>
      <trkpt lat="49.35306" lon="2.95023">
        <ele>119</ele>
        <time>2019-06-23T08:42:27Z</time>
      </trkpt>
      <trkpt lat="49.35317" lon="2.95031">
        <ele>119</ele>
        <time>2019-06-23T08:42:29Z</time>
      </trkpt>
      <trkpt lat="49.3537" lon="2.95079">
        <ele>112</ele>
        <time>2019-06-23T08:42:38Z</time>
      </trkpt>
      <trkpt lat="49.35446" lon="2.95148">
        <ele>107</ele>
        <time>2019-06-23T08:42:51Z</time>
      </trkpt>
      <trkpt lat="49.35517" lon="2.95212">
        <ele>102</ele>
        <time>2019-06-23T08:43:02Z</time>
      </trkpt>
      <trkpt lat="49.35531" lon="2.95224">
        <ele>102</ele>
        <time>2019-06-23T08:43:04Z</time>
      </trkpt>
      <trkpt lat="49.35543" lon="2.95238">
        <ele>101</ele>
        <time>2019-06-23T08:43:06Z</time>
      </trkpt>
      <trkpt lat="49.3557" lon="2.95258">
        <ele>101</ele>
        <time>2019-06-23T08:43:13Z</time>
      </trkpt>
      <trkpt lat="49.35574" lon="2.95258">
        <ele>101</ele>
        <time>2019-06-23T08:43:19Z</time>
      </trkpt>
      <trkpt lat="49.35577" lon="2.95263">
        <ele>101</ele>
        <time>2019-06-23T08:43:23Z</time>
      </trkpt>
      <trkpt lat="49.35582" lon="2.95272">
        <ele>103</ele>
        <time>2019-06-23T08:43:28Z</time>
      </trkpt>
      <trkpt lat="49.3559" lon="2.95281">
        <ele>97</ele>
        <time>2019-06-23T08:43:31Z</time>
      </trkpt>
      <trkpt lat="49.35609" lon="2.95294">
        <ele>97</ele>
        <time>2019-06-23T08:43:35Z</time>
      </trkpt>
      <trkpt lat="49.35672" lon="2.95357">
        <ele>92</ele>
        <time>2019-06-23T08:43:48Z</time>
      </trkpt>
      <trkpt lat="49.35682" lon="2.95368">
        <ele>93</ele>
        <time>2019-06-23T08:43:50Z</time>
      </trkpt>
      <trkpt lat="49.35697" lon="2.9538">
        <ele>92</ele>
        <time>2019-06-23T08:43:53Z</time>
      </trkpt>
      <trkpt lat="49.35748" lon="2.95368">
        <ele>90</ele>
        <time>2019-06-23T08:44:03Z</time>
      </trkpt>
      <trkpt lat="49.35754" lon="2.95366">
        <ele>86</ele>
        <time>2019-06-23T08:44:04Z</time>
      </trkpt>
      <trkpt lat="49.35839" lon="2.95339">
        <ele>82</ele>
        <time>2019-06-23T08:44:20Z</time>
      </trkpt>
      <trkpt lat="49.3588" lon="2.95325">
        <ele>78</ele>
        <time>2019-06-23T08:44:28Z</time>
      </trkpt>
      <trkpt lat="49.35893" lon="2.95323">
        <ele>78</ele>
        <time>2019-06-23T08:44:31Z</time>
      </trkpt>
      <trkpt lat="49.3593" lon="2.95309">
        <ele>75</ele>
        <time>2019-06-23T08:44:40Z</time>
      </trkpt>
      <trkpt lat="49.35941" lon="2.95305">
        <ele>75</ele>
        <time>2019-06-23T08:44:43Z</time>
      </trkpt>
      <trkpt lat="49.35989" lon="2.95292">
        <ele>74</ele>
        <time>2019-06-23T08:44:55Z</time>
      </trkpt>
      <trkpt lat="49.35991" lon="2.95291">
        <ele>74</ele>
        <time>2019-06-23T08:44:56Z</time>
      </trkpt>
      <trkpt lat="49.35996" lon="2.95286">
        <ele>74</ele>
        <time>2019-06-23T08:44:59Z</time>
      </trkpt>
      <trkpt lat="49.36021" lon="2.95276">
        <ele>73</ele>
        <time>2019-06-23T08:45:10Z</time>
      </trkpt>
      <trkpt lat="49.36029" lon="2.95276">
        <ele>74</ele>
        <time>2019-06-23T08:45:13Z</time>
      </trkpt>
      <trkpt lat="49.36041" lon="2.95272">
        <ele>74</ele>
        <time>2019-06-23T08:45:17Z</time>
      </trkpt>
      <trkpt lat="49.3606" lon="2.95266">
        <ele>74</ele>
        <time>2019-06-23T08:45:26Z</time>
      </trkpt>
      <trkpt lat="49.36071" lon="2.95263">
        <ele>74</ele>
        <time>2019-06-23T08:45:31Z</time>
      </trkpt>
      <trkpt lat="49.36089" lon="2.95255">
        <ele>74</ele>
        <time>2019-06-23T08:45:40Z</time>
      </trkpt>
      <trkpt lat="49.36091" lon="2.95254">
        <ele>74</ele>
        <time>2019-06-23T08:45:41Z</time>
      </trkpt>
      <trkpt lat="49.36114" lon="2.95246">
        <ele>74</ele>
        <time>2019-06-23T08:45:48Z</time>
      </trkpt>
      <trkpt lat="49.36145" lon="2.95234">
        <ele>75</ele>
        <time>2019-06-23T08:45:59Z</time>
      </trkpt>
      <trkpt lat="49.36152" lon="2.95233">
        <ele>75</ele>
        <time>2019-06-23T08:46:02Z</time>
      </trkpt>
      <trkpt lat="49.36158" lon="2.95228">
        <ele>75</ele>
        <time>2019-06-23T08:46:06Z</time>
      </trkpt>
      <trkpt lat="49.36187" lon="2.9522">
        <ele>77</ele>
        <time>2019-06-23T08:46:17Z</time>
      </trkpt>
      <trkpt lat="49.36208" lon="2.95215">
        <ele>78</ele>
        <time>2019-06-23T08:46:23Z</time>
      </trkpt>
      <trkpt lat="49.36217" lon="2.95216">
        <ele>78</ele>
        <time>2019-06-23T08:46:25Z</time>
      </trkpt>
      <trkpt lat="49.36256" lon="2.95201">
        <ele>78</ele>
        <time>2019-06-23T08:46:36Z</time>
      </trkpt>
      <trkpt lat="49.36289" lon="2.95187">
        <ele>78</ele>
        <time>2019-06-23T08:46:46Z</time>
      </trkpt>
      <trkpt lat="49.3631" lon="2.95169">
        <ele>78</ele>
        <time>2019-06-23T08:46:53Z</time>
      </trkpt>
      <trkpt lat="49.36311" lon="2.95165">
        <ele>80</ele>
        <time>2019-06-23T08:46:54Z</time>
      </trkpt>
      <trkpt lat="49.36313" lon="2.95161">
        <ele>80</ele>
        <time>2019-06-23T08:46:55Z</time>
      </trkpt>
      <trkpt lat="49.36315" lon="2.95157">
        <ele>81</ele>
        <time>2019-06-23T08:46:56Z</time>
      </trkpt>
      <trkpt lat="49.36317" lon="2.95154">
        <ele>81</ele>
        <time>2019-06-23T08:46:57Z</time>
      </trkpt>
      <trkpt lat="49.36319" lon="2.95152">
        <ele>81</ele>
        <time>2019-06-23T08:46:58Z</time>
      </trkpt>
      <trkpt lat="49.36342" lon="2.9512">
        <ele>84</ele>
        <time>2019-06-23T08:47:11Z</time>
      </trkpt>
      <trkpt lat="49.36343" lon="2.95118">
        <ele>84</ele>
        <time>2019-06-23T08:47:12Z</time>
      </trkpt>
      <trkpt lat="49.36346" lon="2.95113">
        <ele>84</ele>
        <time>2019-06-23T08:47:23Z</time>
      </trkpt>
      <trkpt lat="49.36355" lon="2.95102">
        <ele>85</ele>
        <time>2019-06-23T08:47:35Z</time>
      </trkpt>
      <trkpt lat="49.36366" lon="2.95093">
        <ele>85</ele>
        <time>2019-06-23T08:47:47Z</time>
      </trkpt>
      <trkpt lat="49.36369" lon="2.95089">
        <ele>85</ele>
        <time>2019-06-23T08:47:52Z</time>
      </trkpt>
      <trkpt lat="49.36372" lon="2.95085">
        <ele>86</ele>
        <time>2019-06-23T08:48:05Z</time>
      </trkpt>
      <trkpt lat="49.36374" lon="2.95081">
        <ele>92</ele>
        <time>2019-06-23T08:48:21Z</time>
      </trkpt>
      <trkpt lat="49.36376" lon="2.95079">
        <ele>92</ele>
        <time>2019-06-23T08:48:40Z</time>
      </trkpt>
      <trkpt lat="49.36386" lon="2.95067">
        <ele>93</ele>
        <time>2019-06-23T08:48:52Z</time>
      </trkpt>
      <trkpt lat="49.36393" lon="2.95056">
        <ele>93</ele>
        <time>2019-06-23T08:49:04Z</time>
      </trkpt>
      <trkpt lat="49.36401" lon="2.95042">
        <ele>94</ele>
        <time>2019-06-23T08:49:19Z</time>
      </trkpt>
      <trkpt lat="49.36409" lon="2.95033">
        <ele>95</ele>
        <time>2019-06-23T08:49:27Z</time>
      </trkpt>
      <trkpt lat="49.36421" lon="2.95021">
        <ele>96</ele>
        <time>2019-06-23T08:49:39Z</time>
      </trkpt>
      <trkpt lat="49.36434" lon="2.95004">
        <ele>96</ele>
        <time>2019-06-23T08:49:49Z</time>
      </trkpt>
      <trkpt lat="49.36455" lon="2.94979">
        <ele>101</ele>
        <time>2019-06-23T08:50:00Z</time>
      </trkpt>
      <trkpt lat="49.36468" lon="2.94966">
        <ele>102</ele>
        <time>2019-06-23T08:50:08Z</time>
      </trkpt>
      <trkpt lat="49.3647" lon="2.94962">
        <ele>102</ele>
        <time>2019-06-23T08:50:10Z</time>
      </trkpt>
      <trkpt lat="49.36472" lon="2.9496">
        <ele>102</ele>
        <time>2019-06-23T08:50:11Z</time>
      </trkpt>
      <trkpt lat="49.36503" lon="2.94916">
        <ele>104</ele>
        <time>2019-06-23T08:50:22Z</time>
      </trkpt>
      <trkpt lat="49.36546" lon="2.94854">
        <ele>101</ele>
        <time>2019-06-23T08:50:31Z</time>
      </trkpt>
      <trkpt lat="49.36553" lon="2.94844">
        <ele>101</ele>
        <time>2019-06-23T08:50:33Z</time>
      </trkpt>
      <trkpt lat="49.36558" lon="2.94837">
        <ele>100</ele>
        <time>2019-06-23T08:50:34Z</time>
      </trkpt>
      <trkpt lat="49.36568" lon="2.94825">
        <ele>100</ele>
        <time>2019-06-23T08:50:36Z</time>
      </trkpt>
      <trkpt lat="49.36572" lon="2.9482">
        <ele>100</ele>
        <time>2019-06-23T08:50:37Z</time>
      </trkpt>
      <trkpt lat="49.36576" lon="2.94815">
        <ele>100</ele>
        <time>2019-06-23T08:50:38Z</time>
      </trkpt>
      <trkpt lat="49.3658" lon="2.9481">
        <ele>100</ele>
        <time>2019-06-23T08:50:39Z</time>
      </trkpt>
      <trkpt lat="49.36584" lon="2.94806">
        <ele>94</ele>
        <time>2019-06-23T08:50:40Z</time>
      </trkpt>
      <trkpt lat="49.36587" lon="2.94801">
        <ele>94</ele>
        <time>2019-06-23T08:50:41Z</time>
      </trkpt>
      <trkpt lat="49.36591" lon="2.94795">
        <ele>94</ele>
        <time>2019-06-23T08:50:42Z</time>
      </trkpt>
      <trkpt lat="49.36595" lon="2.94789">
        <ele>94</ele>
        <time>2019-06-23T08:50:43Z</time>
      </trkpt>
      <trkpt lat="49.36599" lon="2.94783">
        <ele>94</ele>
        <time>2019-06-23T08:50:44Z</time>
      </trkpt>
      <trkpt lat="49.3664" lon="2.94727">
        <ele>92</ele>
        <time>2019-06-23T08:50:54Z</time>
      </trkpt>
      <trkpt lat="49.36648" lon="2.94738">
        <ele>92</ele>
        <time>2019-06-23T08:50:58Z</time>
      </trkpt>
      <trkpt lat="49.36664" lon="2.94791">
        <ele>91</ele>
        <time>2019-06-23T08:51:08Z</time>
      </trkpt>
      <trkpt lat="49.36673" lon="2.94818">
        <ele>87</ele>
        <time>2019-06-23T08:51:12Z</time>
      </trkpt>
      <trkpt lat="49.36679" lon="2.94831">
        <ele>87</ele>
        <time>2019-06-23T08:51:14Z</time>
      </trkpt>
      <trkpt lat="49.36683" lon="2.94845">
        <ele>86</ele>
        <time>2019-06-23T08:51:16Z</time>
      </trkpt>
      <trkpt lat="49.36688" lon="2.94866">
        <ele>85</ele>
        <time>2019-06-23T08:51:19Z</time>
      </trkpt>
      <trkpt lat="49.36701" lon="2.94912">
        <ele>84</ele>
        <time>2019-06-23T08:51:25Z</time>
      </trkpt>
      <trkpt lat="49.36716" lon="2.94946">
        <ele>81</ele>
        <time>2019-06-23T08:51:31Z</time>
      </trkpt>
      <trkpt lat="49.36719" lon="2.94954">
        <ele>80</ele>
        <time>2019-06-23T08:51:33Z</time>
      </trkpt>
      <trkpt lat="49.36727" lon="2.94958">
        <ele>80</ele>
        <time>2019-06-23T08:51:37Z</time>
      </trkpt>
      <trkpt lat="49.36731" lon="2.94949">
        <ele>80</ele>
        <time>2019-06-23T08:51:39Z</time>
      </trkpt>
      <trkpt lat="49.36743" lon="2.94924">
        <ele>80</ele>
        <time>2019-06-23T08:51:44Z</time>
      </trkpt>
      <trkpt lat="49.36782" lon="2.94844">
        <ele>82</ele>
        <time>2019-06-23T08:51:58Z</time>
      </trkpt>
      <trkpt lat="49.36802" lon="2.94794">
        <ele>81</ele>
        <time>2019-06-23T08:52:09Z</time>
      </trkpt>
      <trkpt lat="49.36829" lon="2.9474">
        <ele>76</ele>
        <time>2019-06-23T08:52:21Z</time>
      </trkpt>
      <trkpt lat="49.36834" lon="2.9473">
        <ele>76</ele>
        <time>2019-06-23T08:52:23Z</time>
      </trkpt>
      <trkpt lat="49.36844" lon="2.94708">
        <ele>76</ele>
        <time>2019-06-23T08:52:27Z</time>
      </trkpt>
      <trkpt lat="49.36879" lon="2.94632">
        <ele>76</ele>
        <time>2019-06-23T08:52:40Z</time>
      </trkpt>
      <trkpt lat="49.36887" lon="2.94614">
        <ele>76</ele>
        <time>2019-06-23T08:52:43Z</time>
      </trkpt>
      <trkpt lat="49.36918" lon="2.94547">
        <ele>79</ele>
        <time>2019-06-23T08:52:54Z</time>
      </trkpt>
      <trkpt lat="49.36933" lon="2.94517">
        <ele>79</ele>
        <time>2019-06-23T08:53:00Z</time>
      </trkpt>
      <trkpt lat="49.3694" lon="2.9453">
        <ele>79</ele>
        <time>2019-06-23T08:53:06Z</time>
      </trkpt>
      <trkpt lat="49.36938" lon="2.94564">
        <ele>79</ele>
        <time>2019-06-23T08:53:12Z</time>
      </trkpt>
      <trkpt lat="49.36952" lon="2.94577">
        <ele>79</ele>
        <time>2019-06-23T08:53:19Z</time>
      </trkpt>
      <trkpt lat="49.36964" lon="2.94572">
        <ele>80</ele>
        <time>2019-06-23T08:53:23Z</time>
      </trkpt>
      <trkpt lat="49.37004" lon="2.94568">
        <ele>84</ele>
        <time>2019-06-23T08:53:33Z</time>
      </trkpt>
      <trkpt lat="49.37021" lon="2.94582">
        <ele>84</ele>
        <time>2019-06-23T08:53:40Z</time>
      </trkpt>
      <trkpt lat="49.37043" lon="2.94628">
        <ele>85</ele>
        <time>2019-06-23T08:53:53Z</time>
      </trkpt>
      <trkpt lat="49.37062" lon="2.94667">
        <ele>86</ele>
        <time>2019-06-23T08:54:06Z</time>
      </trkpt>
      <trkpt lat="49.37076" lon="2.94698">
        <ele>85</ele>
        <time>2019-06-23T08:54:18Z</time>
      </trkpt>
      <trkpt lat="49.37096" lon="2.9473">
        <ele>92</ele>
        <time>2019-06-23T08:54:31Z</time>
      </trkpt>
      <trkpt lat="49.37103" lon="2.94746">
        <ele>92</ele>
        <time>2019-06-23T08:54:37Z</time>
      </trkpt>
      <trkpt lat="49.37115" lon="2.94782">
        <ele>92</ele>
        <time>2019-06-23T08:54:48Z</time>
      </trkpt>
      <trkpt lat="49.37134" lon="2.94814">
        <ele>94</ele>
        <time>2019-06-23T08:54:58Z</time>
      </trkpt>
      <trkpt lat="49.37149" lon="2.94843">
        <ele>94</ele>
        <time>2019-06-23T08:55:09Z</time>
      </trkpt>
      <trkpt lat="49.37155" lon="2.94852">
        <ele>93</ele>
        <time>2019-06-23T08:55:13Z</time>
      </trkpt>
      <trkpt lat="49.37158" lon="2.94861">
        <ele>93</ele>
        <time>2019-06-23T08:55:16Z</time>
      </trkpt>
      <trkpt lat="49.3718" lon="2.94898">
        <ele>99</ele>
        <time>2019-06-23T08:55:28Z</time>
      </trkpt>
      <trkpt lat="49.37183" lon="2.94902">
        <ele>99</ele>
        <time>2019-06-23T08:55:30Z</time>
      </trkpt>
      <trkpt lat="49.37198" lon="2.9493">
        <ele>97</ele>
        <time>2019-06-23T08:55:39Z</time>
      </trkpt>
      <trkpt lat="49.37221" lon="2.94962">
        <ele>99</ele>
        <time>2019-06-23T08:55:49Z</time>
      </trkpt>
      <trkpt lat="49.37223" lon="2.94972">
        <ele>98</ele>
        <time>2019-06-23T08:55:52Z</time>
      </trkpt>
      <trkpt lat="49.37245" lon="2.95011">
        <ele>98</ele>
        <time>2019-06-23T08:56:05Z</time>
      </trkpt>
      <trkpt lat="49.37254" lon="2.95029">
        <ele>104</ele>
        <time>2019-06-23T08:56:11Z</time>
      </trkpt>
      <trkpt lat="49.37264" lon="2.95061">
        <ele>102</ele>
        <time>2019-06-23T08:56:24Z</time>
      </trkpt>
      <trkpt lat="49.37265" lon="2.95067">
        <ele>102</ele>
        <time>2019-06-23T08:56:26Z</time>
      </trkpt>
      <trkpt lat="49.37279" lon="2.95117">
        <ele>99</ele>
        <time>2019-06-23T08:56:41Z</time>
      </trkpt>
      <trkpt lat="49.37285" lon="2.95141">
        <ele>99</ele>
        <time>2019-06-23T08:56:45Z</time>
      </trkpt>
      <trkpt lat="49.3729" lon="2.95162">
        <ele>99</ele>
        <time>2019-06-23T08:56:48Z</time>
      </trkpt>
      <trkpt lat="49.37294" lon="2.95177">
        <ele>97</ele>
        <time>2019-06-23T08:56:50Z</time>
      </trkpt>
      <trkpt lat="49.37299" lon="2.9522">
        <ele>97</ele>
        <time>2019-06-23T08:56:54Z</time>
      </trkpt>
      <trkpt lat="49.3731" lon="2.9525">
        <ele>99</ele>
        <time>2019-06-23T08:57:00Z</time>
      </trkpt>
      <trkpt lat="49.37314" lon="2.95257">
        <ele>99</ele>
        <time>2019-06-23T08:57:16Z</time>
      </trkpt>
      <trkpt lat="49.37313" lon="2.95259">
        <ele>98</ele>
        <time>2019-06-23T08:57:40Z</time>
      </trkpt>
      <trkpt lat="49.37314" lon="2.9526">
        <ele>99</ele>
        <time>2019-06-23T08:57:51Z</time>
      </trkpt>
      <trkpt lat="49.37321" lon="2.9526">
        <ele>100</ele>
        <time>2019-06-23T08:57:56Z</time>
      </trkpt>
      <trkpt lat="49.37338" lon="2.95265">
        <ele>109</ele>
        <time>2019-06-23T08:58:10Z</time>
      </trkpt>
      <trkpt lat="49.37341" lon="2.95266">
        <ele>110</ele>
        <time>2019-06-23T08:58:13Z</time>
      </trkpt>
      <trkpt lat="49.37345" lon="2.95267">
        <ele>110</ele>
        <time>2019-06-23T08:58:17Z</time>
      </trkpt>
      <trkpt lat="49.37357" lon="2.95268">
        <ele>112</ele>
        <time>2019-06-23T08:58:29Z</time>
      </trkpt>
      <trkpt lat="49.37361" lon="2.95269">
        <ele>113</ele>
        <time>2019-06-23T08:58:36Z</time>
      </trkpt>
      <trkpt lat="49.37369" lon="2.95282">
        <ele>115</ele>
        <time>2019-06-23T08:58:49Z</time>
      </trkpt>
      <trkpt lat="49.37375" lon="2.95289">
        <ele>115</ele>
        <time>2019-06-23T08:58:59Z</time>
      </trkpt>
      <trkpt lat="49.37379" lon="2.95298">
        <ele>116</ele>
        <time>2019-06-23T08:59:12Z</time>
      </trkpt>
      <trkpt lat="49.37385" lon="2.95315">
        <ele>117</ele>
        <time>2019-06-23T08:59:25Z</time>
      </trkpt>
      <trkpt lat="49.3739" lon="2.95322">
        <ele>118</ele>
        <time>2019-06-23T08:59:39Z</time>
      </trkpt>
      <trkpt lat="49.37395" lon="2.95332">
        <ele>119</ele>
        <time>2019-06-23T08:59:52Z</time>
      </trkpt>
      <trkpt lat="49.37399" lon="2.95344">
        <ele>117</ele>
        <time>2019-06-23T09:00:05Z</time>
      </trkpt>
      <trkpt lat="49.37406" lon="2.95356">
        <ele>116</ele>
        <time>2019-06-23T09:00:15Z</time>
      </trkpt>
      <trkpt lat="49.37418" lon="2.95368">
        <ele>126</ele>
        <time>2019-06-23T09:00:28Z</time>
      </trkpt>
      <trkpt lat="49.37427" lon="2.95381">
        <ele>126</ele>
        <time>2019-06-23T09:00:42Z</time>
      </trkpt>
      <trkpt lat="49.37435" lon="2.95381">
        <ele>127</ele>
        <time>2019-06-23T09:00:54Z</time>
      </trkpt>
      <trkpt lat="49.37438" lon="2.95376">
        <ele>127</ele>
        <time>2019-06-23T09:01:02Z</time>
      </trkpt>
      <trkpt lat="49.37438" lon="2.9537">
        <ele>127</ele>
        <time>2019-06-23T09:01:06Z</time>
      </trkpt>
      <trkpt lat="49.37438" lon="2.95366">
        <ele>127</ele>
        <time>2019-06-23T09:01:09Z</time>
      </trkpt>
      <trkpt lat="49.37438" lon="2.95359">
        <ele>128</ele>
        <time>2019-06-23T09:01:13Z</time>
      </trkpt>
      <trkpt lat="49.3743" lon="2.9534">
        <ele>127</ele>
        <time>2019-06-23T09:01:28Z</time>
      </trkpt>
      <trkpt lat="49.3743" lon="2.95319">
        <ele>129</ele>
        <time>2019-06-23T09:01:41Z</time>
      </trkpt>
      <trkpt lat="49.37431" lon="2.95302">
        <ele>130</ele>
        <time>2019-06-23T09:01:53Z</time>
      </trkpt>
      <trkpt lat="49.37432" lon="2.95294">
        <ele>131</ele>
        <time>2019-06-23T09:02:07Z</time>
      </trkpt>
      <trkpt lat="49.37431" lon="2.95286">
        <ele>131</ele>
        <time>2019-06-23T09:02:12Z</time>
      </trkpt>
      <trkpt lat="49.37432" lon="2.95272">
        <ele>131</ele>
        <time>2019-06-23T09:02:18Z</time>
      </trkpt>
      <trkpt lat="49.37433" lon="2.95264">
        <ele>130</ele>
        <time>2019-06-23T09:02:21Z</time>
      </trkpt>
      <trkpt lat="49.37432" lon="2.95238">
        <ele>131</ele>
        <time>2019-06-23T09:02:32Z</time>
      </trkpt>
      <trkpt lat="49.37429" lon="2.95209">
        <ele>132</ele>
        <time>2019-06-23T09:02:43Z</time>
      </trkpt>
      <trkpt lat="49.37429" lon="2.95169">
        <ele>131</ele>
        <time>2019-06-23T09:02:55Z</time>
      </trkpt>
      <trkpt lat="49.37424" lon="2.95128">
        <ele>133</ele>
        <time>2019-06-23T09:03:05Z</time>
      </trkpt>
      <trkpt lat="49.37417" lon="2.9509">
        <ele>134</ele>
        <time>2019-06-23T09:03:14Z</time>
      </trkpt>
      <trkpt lat="49.37413" lon="2.9505">
        <ele>129</ele>
        <time>2019-06-23T09:03:26Z</time>
      </trkpt>
      <trkpt lat="49.37412" lon="2.95033">
        <ele>129</ele>
        <time>2019-06-23T09:03:33Z</time>
      </trkpt>
      <trkpt lat="49.3741" lon="2.95024">
        <ele>130</ele>
        <time>2019-06-23T09:03:37Z</time>
      </trkpt>
      <trkpt lat="49.37405" lon="2.95005">
        <ele>132</ele>
        <time>2019-06-23T09:03:46Z</time>
      </trkpt>
      <trkpt lat="49.37405" lon="2.94985">
        <ele>133</ele>
        <time>2019-06-23T09:03:53Z</time>
      </trkpt>
      <trkpt lat="49.37409" lon="2.9497">
        <ele>133</ele>
        <time>2019-06-23T09:04:00Z</time>
      </trkpt>
      <trkpt lat="49.37412" lon="2.94969">
        <ele>133</ele>
        <time>2019-06-23T09:04:02Z</time>
      </trkpt>
      <trkpt lat="49.37438" lon="2.94965">
        <ele>136</ele>
        <time>2019-06-23T09:04:15Z</time>
      </trkpt>
      <trkpt lat="49.37461" lon="2.94957">
        <ele>136</ele>
        <time>2019-06-23T09:04:24Z</time>
      </trkpt>
      <trkpt lat="49.37477" lon="2.9495">
        <ele>137</ele>
        <time>2019-06-23T09:04:29Z</time>
      </trkpt>
      <trkpt lat="49.37502" lon="2.9494">
        <ele>137</ele>
        <time>2019-06-23T09:04:37Z</time>
      </trkpt>
      <trkpt lat="49.3752" lon="2.94935">
        <ele>136</ele>
        <time>2019-06-23T09:04:43Z</time>
      </trkpt>
      <trkpt lat="49.37531" lon="2.94925">
        <ele>136</ele>
        <time>2019-06-23T09:04:48Z</time>
      </trkpt>
      <trkpt lat="49.37561" lon="2.94889">
        <ele>138</ele>
        <time>2019-06-23T09:05:01Z</time>
      </trkpt>
      <trkpt lat="49.37563" lon="2.94887">
        <ele>138</ele>
        <time>2019-06-23T09:05:02Z</time>
      </trkpt>
      <trkpt lat="49.37563" lon="2.94878">
        <ele>138</ele>
        <time>2019-06-23T09:05:12Z</time>
      </trkpt>
      <trkpt lat="49.37564" lon="2.94877">
        <ele>138</ele>
        <time>2019-06-23T09:05:22Z</time>
      </trkpt>
      <trkpt lat="49.37565" lon="2.94878">
        <ele>138</ele>
        <time>2019-06-23T09:05:42Z</time>
      </trkpt>
      <trkpt lat="49.37563" lon="2.94881">
        <ele>138</ele>
        <time>2019-06-23T09:06:09Z</time>
      </trkpt>
      <trkpt lat="49.37562" lon="2.9488">
        <ele>138</ele>
        <time>2019-06-23T09:06:32Z</time>
      </trkpt>
      <trkpt lat="49.3756" lon="2.94881">
        <ele>138</ele>
        <time>2019-06-23T09:07:02Z</time>
      </trkpt>
      <trkpt lat="49.37557" lon="2.94883">
        <ele>138</ele>
        <time>2019-06-23T09:07:33Z</time>
      </trkpt>
      <trkpt lat="49.37558" lon="2.94882">
        <ele>138</ele>
        <time>2019-06-23T09:08:02Z</time>
      </trkpt>
      <trkpt lat="49.37559" lon="2.94881">
        <ele>138</ele>
        <time>2019-06-23T09:08:26Z</time>
      </trkpt>
      <trkpt lat="49.37558" lon="2.9488">
        <ele>138</ele>
        <time>2019-06-23T09:08:50Z</time>
      </trkpt>
      <trkpt lat="49.3756" lon="2.94881">
        <ele>138</ele>
        <time>2019-06-23T09:09:17Z</time>
      </trkpt>
      <trkpt lat="49.3756" lon="2.9488">
        <ele>138</ele>
        <time>2019-06-23T09:09:46Z</time>
      </trkpt>
      <trkpt lat="49.3756" lon="2.94879">
        <ele>138</ele>
        <time>2019-06-23T09:10:15Z</time>
      </trkpt>
      <trkpt lat="49.37561" lon="2.94879">
        <ele>138</ele>
        <time>2019-06-23T09:10:40Z</time>
      </trkpt>
      <trkpt lat="49.3756" lon="2.94877">
        <ele>138</ele>
        <time>2019-06-23T09:11:09Z</time>
      </trkpt>
      <trkpt lat="49.3756" lon="2.94879">
        <ele>138</ele>
        <time>2019-06-23T09:11:38Z</time>
      </trkpt>
      <trkpt lat="49.3756" lon="2.94877">
        <ele>138</ele>
        <time>2019-06-23T09:12:07Z</time>
      </trkpt>
      <trkpt lat="49.37559" lon="2.94876">
        <ele>138</ele>
        <time>2019-06-23T09:12:36Z</time>
      </trkpt>
      <trkpt lat="49.3756" lon="2.94876">
        <ele>138</ele>
        <time>2019-06-23T09:13:03Z</time>
      </trkpt>
      <trkpt lat="49.37561" lon="2.94878">
        <ele>138</ele>
        <time>2019-06-23T09:13:34Z</time>
      </trkpt>
      <trkpt lat="49.3756" lon="2.9488">
        <ele>138</ele>
        <time>2019-06-23T09:14:03Z</time>
      </trkpt>
      <trkpt lat="49.3756" lon="2.9488">
        <ele>138</ele>
        <time>2019-06-23T09:14:34Z</time>
      </trkpt>
      <trkpt lat="49.3756" lon="2.94877">
        <ele>138</ele>
        <time>2019-06-23T09:15:00Z</time>
      </trkpt>
      <trkpt lat="49.37559" lon="2.94878">
        <ele>138</ele>
        <time>2019-06-23T09:15:27Z</time>
      </trkpt>
      <trkpt lat="49.37559" lon="2.94875">
        <ele>138</ele>
        <time>2019-06-23T09:15:56Z</time>
      </trkpt>
      <trkpt lat="49.3756" lon="2.9487">
        <ele>138</ele>
        <time>2019-06-23T09:16:24Z</time>
      </trkpt>
      <trkpt lat="49.37559" lon="2.94869">
        <ele>138</ele>
        <time>2019-06-23T09:16:49Z</time>
      </trkpt>
      <trkpt lat="49.37558" lon="2.94869">
        <ele>138</ele>
        <time>2019-06-23T09:17:15Z</time>
      </trkpt>
      <trkpt lat="49.37559" lon="2.94869">
        <ele>138</ele>
        <time>2019-06-23T09:17:47Z</time>
      </trkpt>
      <trkpt lat="49.3756" lon="2.94869">
        <ele>138</ele>
        <time>2019-06-23T09:18:12Z</time>
      </trkpt>
      <trkpt lat="49.37559" lon="2.9487">
        <ele>138</ele>
        <time>2019-06-23T09:18:38Z</time>
      </trkpt>
      <trkpt lat="49.37559" lon="2.9487">
        <ele>138</ele>
        <time>2019-06-23T09:19:10Z</time>
      </trkpt>
      <trkpt lat="49.3756" lon="2.94871">
        <ele>138</ele>
        <time>2019-06-23T09:19:45Z</time>
      </trkpt>
      <trkpt lat="49.37561" lon="2.94874">
        <ele>138</ele>
        <time>2019-06-23T09:20:17Z</time>
      </trkpt>
      <trkpt lat="49.3756" lon="2.94874">
        <ele>138</ele>
        <time>2019-06-23T09:20:45Z</time>
      </trkpt>
      <trkpt lat="49.3756" lon="2.94874">
        <ele>138</ele>
        <time>2019-06-23T09:20:54Z</time>
      </trkpt>
      <trkpt lat="49.37558" lon="2.94874">
        <ele>138</ele>
        <time>2019-06-23T09:20:56Z</time>
      </trkpt>
      <trkpt lat="49.37558" lon="2.94878">
        <ele>138</ele>
        <time>2019-06-23T09:20:58Z</time>
      </trkpt>
      <trkpt lat="49.37563" lon="2.9489">
        <ele>137</ele>
        <time>2019-06-23T09:21:05Z</time>
      </trkpt>
      <trkpt lat="49.37549" lon="2.94919">
        <ele>135</ele>
        <time>2019-06-23T09:21:15Z</time>
      </trkpt>
      <trkpt lat="49.37536" lon="2.94936">
        <ele>136</ele>
        <time>2019-06-23T09:21:21Z</time>
      </trkpt>
      <trkpt lat="49.37532" lon="2.94977">
        <ele>135</ele>
        <time>2019-06-23T09:21:29Z</time>
      </trkpt>
      <trkpt lat="49.37533" lon="2.95004">
        <ele>134</ele>
        <time>2019-06-23T09:21:34Z</time>
      </trkpt>
      <trkpt lat="49.37531" lon="2.95013">
        <ele>134</ele>
        <time>2019-06-23T09:21:36Z</time>
      </trkpt>
      <trkpt lat="49.37532" lon="2.95027">
        <ele>134</ele>
        <time>2019-06-23T09:21:41Z</time>
      </trkpt>
      <trkpt lat="49.37523" lon="2.95051">
        <ele>134</ele>
        <time>2019-06-23T09:21:51Z</time>
      </trkpt>
      <trkpt lat="49.37521" lon="2.95054">
        <ele>134</ele>
        <time>2019-06-23T09:21:52Z</time>
      </trkpt>
      <trkpt lat="49.37517" lon="2.95062">
        <ele>134</ele>
        <time>2019-06-23T09:21:54Z</time>
      </trkpt>
      <trkpt lat="49.37502" lon="2.95081">
        <ele>135</ele>
        <time>2019-06-23T09:22:00Z</time>
      </trkpt>
      <trkpt lat="49.37495" lon="2.9509">
        <ele>135</ele>
        <time>2019-06-23T09:22:03Z</time>
      </trkpt>
      <trkpt lat="49.37488" lon="2.95115">
        <ele>134</ele>
        <time>2019-06-23T09:22:11Z</time>
      </trkpt>
      <trkpt lat="49.37479" lon="2.95121">
        <ele>134</ele>
        <time>2019-06-23T09:22:17Z</time>
      </trkpt>
      <trkpt lat="49.37468" lon="2.9515">
        <ele>134</ele>
        <time>2019-06-23T09:22:24Z</time>
      </trkpt>
      <trkpt lat="49.37467" lon="2.95179">
        <ele>133</ele>
        <time>2019-06-23T09:22:28Z</time>
      </trkpt>
      <trkpt lat="49.37465" lon="2.952">
        <ele>133</ele>
        <time>2019-06-23T09:22:32Z</time>
      </trkpt>
      <trkpt lat="49.3747" lon="2.95242">
        <ele>134</ele>
        <time>2019-06-23T09:22:40Z</time>
      </trkpt>
      <trkpt lat="49.37476" lon="2.9529">
        <ele>133</ele>
        <time>2019-06-23T09:22:49Z</time>
      </trkpt>
      <trkpt lat="49.37477" lon="2.95297">
        <ele>133</ele>
        <time>2019-06-23T09:22:50Z</time>
      </trkpt>
      <trkpt lat="49.37491" lon="2.95351">
        <ele>133</ele>
        <time>2019-06-23T09:23:01Z</time>
      </trkpt>
      <trkpt lat="49.37494" lon="2.95361">
        <ele>132</ele>
        <time>2019-06-23T09:23:03Z</time>
      </trkpt>
      <trkpt lat="49.37504" lon="2.95394">
        <ele>135</ele>
        <time>2019-06-23T09:23:09Z</time>
      </trkpt>
      <trkpt lat="49.3751" lon="2.9541">
        <ele>134</ele>
        <time>2019-06-23T09:23:12Z</time>
      </trkpt>
      <trkpt lat="49.37518" lon="2.95428">
        <ele>131</ele>
        <time>2019-06-23T09:23:16Z</time>
      </trkpt>
      <trkpt lat="49.37525" lon="2.95459">
        <ele>128</ele>
        <time>2019-06-23T09:23:26Z</time>
      </trkpt>
      <trkpt lat="49.37517" lon="2.95487">
        <ele>126</ele>
        <time>2019-06-23T09:23:32Z</time>
      </trkpt>
      <trkpt lat="49.37508" lon="2.95479">
        <ele>126</ele>
        <time>2019-06-23T09:23:36Z</time>
      </trkpt>
      <trkpt lat="49.37502" lon="2.9547">
        <ele>127</ele>
        <time>2019-06-23T09:23:38Z</time>
      </trkpt>
      <trkpt lat="49.37485" lon="2.95464">
        <ele>122</ele>
        <time>2019-06-23T09:23:41Z</time>
      </trkpt>
      <trkpt lat="49.37468" lon="2.95456">
        <ele>121</ele>
        <time>2019-06-23T09:23:50Z</time>
      </trkpt>
      <trkpt lat="49.37464" lon="2.95469">
        <ele>120</ele>
        <time>2019-06-23T09:23:55Z</time>
      </trkpt>
      <trkpt lat="49.3746" lon="2.95483">
        <ele>119</ele>
        <time>2019-06-23T09:23:58Z</time>
      </trkpt>
      <trkpt lat="49.37463" lon="2.9551">
        <ele>111</ele>
        <time>2019-06-23T09:24:02Z</time>
      </trkpt>
      <trkpt lat="49.37473" lon="2.95546">
        <ele>108</ele>
        <time>2019-06-23T09:24:07Z</time>
      </trkpt>
      <trkpt lat="49.37495" lon="2.95589">
        <ele>103</ele>
        <time>2019-06-23T09:24:12Z</time>
      </trkpt>
      <trkpt lat="49.37514" lon="2.95616">
        <ele>96</ele>
        <time>2019-06-23T09:24:16Z</time>
      </trkpt>
      <trkpt lat="49.37524" lon="2.95642">
        <ele>92</ele>
        <time>2019-06-23T09:24:19Z</time>
      </trkpt>
      <trkpt lat="49.37547" lon="2.95684">
        <ele>82</ele>
        <time>2019-06-23T09:24:24Z</time>
      </trkpt>
      <trkpt lat="49.3756" lon="2.95713">
        <ele>81</ele>
        <time>2019-06-23T09:24:27Z</time>
      </trkpt>
      <trkpt lat="49.3759" lon="2.95779">
        <ele>77</ele>
        <time>2019-06-23T09:24:33Z</time>
      </trkpt>
      <trkpt lat="49.37602" lon="2.95812">
        <ele>77</ele>
        <time>2019-06-23T09:24:36Z</time>
      </trkpt>
      <trkpt lat="49.37631" lon="2.95871">
        <ele>77</ele>
        <time>2019-06-23T09:24:43Z</time>
      </trkpt>
      <trkpt lat="49.3764" lon="2.95889">
        <ele>77</ele>
        <time>2019-06-23T09:24:45Z</time>
      </trkpt>
      <trkpt lat="49.37659" lon="2.95934">
        <ele>76</ele>
        <time>2019-06-23T09:24:50Z</time>
      </trkpt>
      <trkpt lat="49.37672" lon="2.95959">
        <ele>74</ele>
        <time>2019-06-23T09:24:53Z</time>
      </trkpt>
      <trkpt lat="49.37686" lon="2.95985">
        <ele>74</ele>
        <time>2019-06-23T09:24:56Z</time>
      </trkpt>
      <trkpt lat="49.3771" lon="2.96047">
        <ele>72</ele>
        <time>2019-06-23T09:25:04Z</time>
      </trkpt>
      <trkpt lat="49.37715" lon="2.9606">
        <ele>71</ele>
        <time>2019-06-23T09:25:06Z</time>
      </trkpt>
      <trkpt lat="49.37733" lon="2.96102">
        <ele>70</ele>
        <time>2019-06-23T09:25:12Z</time>
      </trkpt>
      <trkpt lat="49.37755" lon="2.96144">
        <ele>69</ele>
        <time>2019-06-23T09:25:18Z</time>
      </trkpt>
      <trkpt lat="49.37764" lon="2.96167">
        <ele>69</ele>
        <time>2019-06-23T09:25:22Z</time>
      </trkpt>
      <trkpt lat="49.37777" lon="2.96199">
        <ele>68</ele>
        <time>2019-06-23T09:25:27Z</time>
      </trkpt>
      <trkpt lat="49.37794" lon="2.96232">
        <ele>68</ele>
        <time>2019-06-23T09:25:34Z</time>
      </trkpt>
      <trkpt lat="49.37807" lon="2.96274">
        <ele>67</ele>
        <time>2019-06-23T09:25:42Z</time>
      </trkpt>
      <trkpt lat="49.37816" lon="2.96294">
        <ele>67</ele>
        <time>2019-06-23T09:25:45Z</time>
      </trkpt>
      <trkpt lat="49.37831" lon="2.96318">
        <ele>66</ele>
        <time>2019-06-23T09:25:49Z</time>
      </trkpt>
      <trkpt lat="49.37848" lon="2.96348">
        <ele>65</ele>
        <time>2019-06-23T09:25:54Z</time>
      </trkpt>
      <trkpt lat="49.37858" lon="2.96372">
        <ele>65</ele>
        <time>2019-06-23T09:25:58Z</time>
      </trkpt>
      <trkpt lat="49.37875" lon="2.96403">
        <ele>65</ele>
        <time>2019-06-23T09:26:03Z</time>
      </trkpt>
      <trkpt lat="49.37887" lon="2.96426">
        <ele>66</ele>
        <time>2019-06-23T09:26:07Z</time>
      </trkpt>
      <trkpt lat="49.37892" lon="2.96437">
        <ele>66</ele>
        <time>2019-06-23T09:26:09Z</time>
      </trkpt>
      <trkpt lat="49.37908" lon="2.96468">
        <ele>66</ele>
        <time>2019-06-23T09:26:14Z</time>
      </trkpt>
      <trkpt lat="49.37919" lon="2.9649">
        <ele>65</ele>
        <time>2019-06-23T09:26:18Z</time>
      </trkpt>
      <trkpt lat="49.37923" lon="2.96506">
        <ele>65</ele>
        <time>2019-06-23T09:26:21Z</time>
      </trkpt>
      <trkpt lat="49.3795" lon="2.96556">
        <ele>64</ele>
        <time>2019-06-23T09:26:32Z</time>
      </trkpt>
      <trkpt lat="49.37962" lon="2.96586">
        <ele>64</ele>
        <time>2019-06-23T09:26:38Z</time>
      </trkpt>
      <trkpt lat="49.37979" lon="2.96616">
        <ele>63</ele>
        <time>2019-06-23T09:26:45Z</time>
      </trkpt>
      <trkpt lat="49.37991" lon="2.96639">
        <ele>64</ele>
        <time>2019-06-23T09:26:51Z</time>
      </trkpt>
      <trkpt lat="49.38017" lon="2.96684">
        <ele>66</ele>
        <time>2019-06-23T09:27:03Z</time>
      </trkpt>
      <trkpt lat="49.3804" lon="2.9674">
        <ele>66</ele>
        <time>2019-06-23T09:27:15Z</time>
      </trkpt>
      <trkpt lat="49.38056" lon="2.96782">
        <ele>66</ele>
        <time>2019-06-23T09:27:24Z</time>
      </trkpt>
      <trkpt lat="49.38071" lon="2.96822">
        <ele>67</ele>
        <time>2019-06-23T09:27:35Z</time>
      </trkpt>
      <trkpt lat="49.38071" lon="2.96826">
        <ele>67</ele>
        <time>2019-06-23T09:27:36Z</time>
      </trkpt>
      <trkpt lat="49.38074" lon="2.96835">
        <ele>68</ele>
        <time>2019-06-23T09:27:39Z</time>
      </trkpt>
      <trkpt lat="49.38079" lon="2.96845">
        <ele>68</ele>
        <time>2019-06-23T09:27:43Z</time>
      </trkpt>
      <trkpt lat="49.38092" lon="2.96879">
        <ele>68</ele>
        <time>2019-06-23T09:27:55Z</time>
      </trkpt>
      <trkpt lat="49.38105" lon="2.96922">
        <ele>69</ele>
        <time>2019-06-23T09:28:07Z</time>
      </trkpt>
      <trkpt lat="49.38122" lon="2.96945">
        <ele>68</ele>
        <time>2019-06-23T09:28:17Z</time>
      </trkpt>
      <trkpt lat="49.38155" lon="2.96947">
        <ele>67</ele>
        <time>2019-06-23T09:28:27Z</time>
      </trkpt>
      <trkpt lat="49.38199" lon="2.96948">
        <ele>67</ele>
        <time>2019-06-23T09:28:37Z</time>
      </trkpt>
      <trkpt lat="49.38208" lon="2.96946">
        <ele>67</ele>
        <time>2019-06-23T09:28:39Z</time>
      </trkpt>
      <trkpt lat="49.38248" lon="2.96944">
        <ele>67</ele>
        <time>2019-06-23T09:28:48Z</time>
      </trkpt>
      <trkpt lat="49.3827" lon="2.96944">
        <ele>71</ele>
        <time>2019-06-23T09:28:53Z</time>
      </trkpt>
      <trkpt lat="49.383" lon="2.96945">
        <ele>72</ele>
        <time>2019-06-23T09:29:00Z</time>
      </trkpt>
      <trkpt lat="49.38363" lon="2.96943">
        <ele>78</ele>
        <time>2019-06-23T09:29:15Z</time>
      </trkpt>
      <trkpt lat="49.38376" lon="2.96942">
        <ele>79</ele>
        <time>2019-06-23T09:29:18Z</time>
      </trkpt>
      <trkpt lat="49.38413" lon="2.96943">
        <ele>80</ele>
        <time>2019-06-23T09:29:27Z</time>
      </trkpt>
      <trkpt lat="49.38438" lon="2.96943">
        <ele>84</ele>
        <time>2019-06-23T09:29:35Z</time>
      </trkpt>
      <trkpt lat="49.38463" lon="2.9694">
        <ele>85</ele>
        <time>2019-06-23T09:29:45Z</time>
      </trkpt>
      <trkpt lat="49.38485" lon="2.9694">
        <ele>85</ele>
        <time>2019-06-23T09:29:55Z</time>
      </trkpt>
      <trkpt lat="49.38507" lon="2.96941">
        <ele>86</ele>
        <time>2019-06-23T09:30:05Z</time>
      </trkpt>
      <trkpt lat="49.38531" lon="2.96941">
        <ele>87</ele>
        <time>2019-06-23T09:30:15Z</time>
      </trkpt>
      <trkpt lat="49.38553" lon="2.96943">
        <ele>87</ele>
        <time>2019-06-23T09:30:25Z</time>
      </trkpt>
      <trkpt lat="49.38558" lon="2.96942">
        <ele>87</ele>
        <time>2019-06-23T09:30:27Z</time>
      </trkpt>
      <trkpt lat="49.38579" lon="2.96943">
        <ele>87</ele>
        <time>2019-06-23T09:30:35Z</time>
      </trkpt>
      <trkpt lat="49.38607" lon="2.96943">
        <ele>89</ele>
        <time>2019-06-23T09:30:47Z</time>
      </trkpt>
      <trkpt lat="49.38622" lon="2.96941">
        <ele>89</ele>
        <time>2019-06-23T09:30:57Z</time>
      </trkpt>
      <trkpt lat="49.38646" lon="2.96941">
        <ele>90</ele>
        <time>2019-06-23T09:31:08Z</time>
      </trkpt>
      <trkpt lat="49.38661" lon="2.96939">
        <ele>90</ele>
        <time>2019-06-23T09:31:16Z</time>
      </trkpt>
      <trkpt lat="49.38672" lon="2.96937">
        <ele>90</ele>
        <time>2019-06-23T09:31:25Z</time>
      </trkpt>
      <trkpt lat="49.3869" lon="2.96937">
        <ele>90</ele>
        <time>2019-06-23T09:31:34Z</time>
      </trkpt>
      <trkpt lat="49.38696" lon="2.96936">
        <ele>90</ele>
        <time>2019-06-23T09:31:37Z</time>
      </trkpt>
      <trkpt lat="49.38712" lon="2.96937">
        <ele>90</ele>
        <time>2019-06-23T09:31:43Z</time>
      </trkpt>
      <trkpt lat="49.38736" lon="2.96936">
        <ele>90</ele>
        <time>2019-06-23T09:31:56Z</time>
      </trkpt>
      <trkpt lat="49.38758" lon="2.96937">
        <ele>91</ele>
        <time>2019-06-23T09:32:08Z</time>
      </trkpt>
      <trkpt lat="49.3877" lon="2.96936">
        <ele>91</ele>
        <time>2019-06-23T09:32:14Z</time>
      </trkpt>
      <trkpt lat="49.3879" lon="2.96934">
        <ele>92</ele>
        <time>2019-06-23T09:32:24Z</time>
      </trkpt>
      <trkpt lat="49.38803" lon="2.96936">
        <ele>92</ele>
        <time>2019-06-23T09:32:33Z</time>
      </trkpt>
      <trkpt lat="49.38821" lon="2.96934">
        <ele>93</ele>
        <time>2019-06-23T09:32:44Z</time>
      </trkpt>
      <trkpt lat="49.38833" lon="2.96933">
        <ele>93</ele>
        <time>2019-06-23T09:32:52Z</time>
      </trkpt>
      <trkpt lat="49.38847" lon="2.96934">
        <ele>99</ele>
        <time>2019-06-23T09:33:00Z</time>
      </trkpt>
      <trkpt lat="49.38853" lon="2.96934">
        <ele>100</ele>
        <time>2019-06-23T09:33:07Z</time>
      </trkpt>
      <trkpt lat="49.38865" lon="2.96935">
        <ele>102</ele>
        <time>2019-06-23T09:33:17Z</time>
      </trkpt>
      <trkpt lat="49.38873" lon="2.96935">
        <ele>103</ele>
        <time>2019-06-23T09:33:27Z</time>
      </trkpt>
      <trkpt lat="49.38875" lon="2.96935">
        <ele>103</ele>
        <time>2019-06-23T09:33:37Z</time>
      </trkpt>
      <trkpt lat="49.38873" lon="2.96935">
        <ele>103</ele>
        <time>2019-06-23T09:33:46Z</time>
      </trkpt>
      <trkpt lat="49.38877" lon="2.96936">
        <ele>104</ele>
        <time>2019-06-23T09:33:53Z</time>
      </trkpt>
      <trkpt lat="49.38873" lon="2.96932">
        <ele>103</ele>
        <time>2019-06-23T09:34:05Z</time>
      </trkpt>
      <trkpt lat="49.38875" lon="2.9693">
        <ele>103</ele>
        <time>2019-06-23T09:34:18Z</time>
      </trkpt>
      <trkpt lat="49.38876" lon="2.96931">
        <ele>104</ele>
        <time>2019-06-23T09:34:32Z</time>
      </trkpt>
      <trkpt lat="49.38878" lon="2.9693">
        <ele>104</ele>
        <time>2019-06-23T09:34:48Z</time>
      </trkpt>
      <trkpt lat="49.38883" lon="2.96932">
        <ele>105</ele>
        <time>2019-06-23T09:34:59Z</time>
      </trkpt>
      <trkpt lat="49.38885" lon="2.96932">
        <ele>105</ele>
        <time>2019-06-23T09:35:00Z</time>
      </trkpt>
      <trkpt lat="49.38896" lon="2.96931">
        <ele>107</ele>
        <time>2019-06-23T09:35:11Z</time>
      </trkpt>
      <trkpt lat="49.38904" lon="2.96928">
        <ele>109</ele>
        <time>2019-06-23T09:35:23Z</time>
      </trkpt>
      <trkpt lat="49.3892" lon="2.96925">
        <ele>116</ele>
        <time>2019-06-23T09:35:41Z</time>
      </trkpt>
      <trkpt lat="49.38929" lon="2.96921">
        <ele>117</ele>
        <time>2019-06-23T09:35:46Z</time>
      </trkpt>
      <trkpt lat="49.38951" lon="2.96908">
        <ele>121</ele>
        <time>2019-06-23T09:36:00Z</time>
      </trkpt>
      <trkpt lat="49.38962" lon="2.96907">
        <ele>122</ele>
        <time>2019-06-23T09:36:14Z</time>
      </trkpt>
      <trkpt lat="49.38963" lon="2.96906">
        <ele>122</ele>
        <time>2019-06-23T09:36:16Z</time>
      </trkpt>
      <trkpt lat="49.38974" lon="2.96896">
        <ele>123</ele>
        <time>2019-06-23T09:36:30Z</time>
      </trkpt>
      <trkpt lat="49.38976" lon="2.96888">
        <ele>123</ele>
        <time>2019-06-23T09:36:42Z</time>
      </trkpt>
      <trkpt lat="49.3898" lon="2.9688">
        <ele>123</ele>
        <time>2019-06-23T09:36:48Z</time>
      </trkpt>
      <trkpt lat="49.38988" lon="2.96871">
        <ele>123</ele>
        <time>2019-06-23T09:37:02Z</time>
      </trkpt>
      <trkpt lat="49.3899" lon="2.96867">
        <ele>123</ele>
        <time>2019-06-23T09:37:10Z</time>
      </trkpt>
      <trkpt lat="49.38998" lon="2.96864">
        <ele>124</ele>
        <time>2019-06-23T09:37:14Z</time>
      </trkpt>
      <trkpt lat="49.39026" lon="2.96851">
        <ele>126</ele>
        <time>2019-06-23T09:37:28Z</time>
      </trkpt>
      <trkpt lat="49.39041" lon="2.96846">
        <ele>127</ele>
        <time>2019-06-23T09:37:37Z</time>
      </trkpt>
      <trkpt lat="49.39056" lon="2.96847">
        <ele>127</ele>
        <time>2019-06-23T09:37:54Z</time>
      </trkpt>
      <trkpt lat="49.39056" lon="2.96847">
        <ele>127</ele>
        <time>2019-06-23T09:38:20Z</time>
      </trkpt>
      <trkpt lat="49.39059" lon="2.96845">
        <ele>127</ele>
        <time>2019-06-23T09:38:47Z</time>
      </trkpt>
      <trkpt lat="49.39059" lon="2.96849">
        <ele>127</ele>
        <time>2019-06-23T09:39:10Z</time>
      </trkpt>
      <trkpt lat="49.3906" lon="2.96852">
        <ele>127</ele>
        <time>2019-06-23T09:39:27Z</time>
      </trkpt>
      <trkpt lat="49.39066" lon="2.96858">
        <ele>127</ele>
        <time>2019-06-23T09:39:31Z</time>
      </trkpt>
      <trkpt lat="49.39091" lon="2.96881">
        <ele>126</ele>
        <time>2019-06-23T09:39:44Z</time>
      </trkpt>
      <trkpt lat="49.39103" lon="2.96897">
        <ele>126</ele>
        <time>2019-06-23T09:39:52Z</time>
      </trkpt>
      <trkpt lat="49.39115" lon="2.96907">
        <ele>125</ele>
        <time>2019-06-23T09:39:57Z</time>
      </trkpt>
      <trkpt lat="49.39146" lon="2.96931">
        <ele>124</ele>
        <time>2019-06-23T09:40:06Z</time>
      </trkpt>
      <trkpt lat="49.39156" lon="2.96938">
        <ele>123</ele>
        <time>2019-06-23T09:40:09Z</time>
      </trkpt>
      <trkpt lat="49.39189" lon="2.96956">
        <ele>121</ele>
        <time>2019-06-23T09:40:18Z</time>
      </trkpt>
      <trkpt lat="49.39229" lon="2.96989">
        <ele>120</ele>
        <time>2019-06-23T09:40:29Z</time>
      </trkpt>
      <trkpt lat="49.39231" lon="2.96993">
        <ele>119</ele>
        <time>2019-06-23T09:40:30Z</time>
      </trkpt>
      <trkpt lat="49.3925" lon="2.9701">
        <ele>117</ele>
        <time>2019-06-23T09:40:37Z</time>
      </trkpt>
      <trkpt lat="49.39278" lon="2.97004">
        <ele>111</ele>
        <time>2019-06-23T09:40:44Z</time>
      </trkpt>
      <trkpt lat="49.39298" lon="2.96958">
        <ele>113</ele>
        <time>2019-06-23T09:40:51Z</time>
      </trkpt>
      <trkpt lat="49.39313" lon="2.96903">
        <ele>111</ele>
        <time>2019-06-23T09:40:57Z</time>
      </trkpt>
      <trkpt lat="49.39324" lon="2.96869">
        <ele>109</ele>
        <time>2019-06-23T09:41:01Z</time>
      </trkpt>
      <trkpt lat="49.39337" lon="2.96781">
        <ele>90</ele>
        <time>2019-06-23T09:41:09Z</time>
      </trkpt>
      <trkpt lat="49.39345" lon="2.96751">
        <ele>91</ele>
        <time>2019-06-23T09:41:12Z</time>
      </trkpt>
      <trkpt lat="49.39355" lon="2.96725">
        <ele>85</ele>
        <time>2019-06-23T09:41:15Z</time>
      </trkpt>
      <trkpt lat="49.39371" lon="2.96704">
        <ele>82</ele>
        <time>2019-06-23T09:41:19Z</time>
      </trkpt>
      <trkpt lat="49.39394" lon="2.96683">
        <ele>80</ele>
        <time>2019-06-23T09:41:24Z</time>
      </trkpt>
      <trkpt lat="49.39403" lon="2.96673">
        <ele>78</ele>
        <time>2019-06-23T09:41:26Z</time>
      </trkpt>
      <trkpt lat="49.39417" lon="2.96665">
        <ele>75</ele>
        <time>2019-06-23T09:41:29Z</time>
      </trkpt>
      <trkpt lat="49.39443" lon="2.96679">
        <ele>74</ele>
        <time>2019-06-23T09:41:34Z</time>
      </trkpt>
      <trkpt lat="49.39457" lon="2.96688">
        <ele>74</ele>
        <time>2019-06-23T09:41:36Z</time>
      </trkpt>
      <trkpt lat="49.39472" lon="2.96708">
        <ele>73</ele>
        <time>2019-06-23T09:41:39Z</time>
      </trkpt>
      <trkpt lat="49.3949" lon="2.9673">
        <ele>72</ele>
        <time>2019-06-23T09:41:43Z</time>
      </trkpt>
      <trkpt lat="49.39494" lon="2.96738">
        <ele>71</ele>
        <time>2019-06-23T09:41:46Z</time>
      </trkpt>
      <trkpt lat="49.39497" lon="2.96741">
        <ele>71</ele>
        <time>2019-06-23T09:41:48Z</time>
      </trkpt>
      <trkpt lat="49.39515" lon="2.96744">
        <ele>67</ele>
        <time>2019-06-23T09:41:55Z</time>
      </trkpt>
      <trkpt lat="49.39531" lon="2.96734">
        <ele>66</ele>
        <time>2019-06-23T09:42:02Z</time>
      </trkpt>
      <trkpt lat="49.39536" lon="2.96721">
        <ele>66</ele>
        <time>2019-06-23T09:42:05Z</time>
      </trkpt>
      <trkpt lat="49.39556" lon="2.96686">
        <ele>66</ele>
        <time>2019-06-23T09:42:13Z</time>
      </trkpt>
      <trkpt lat="49.3956" lon="2.96682">
        <ele>66</ele>
        <time>2019-06-23T09:42:14Z</time>
      </trkpt>
      <trkpt lat="49.39588" lon="2.96625">
        <ele>62</ele>
        <time>2019-06-23T09:42:25Z</time>
      </trkpt>
      <trkpt lat="49.39591" lon="2.96621">
        <ele>62</ele>
        <time>2019-06-23T09:42:26Z</time>
      </trkpt>
      <trkpt lat="49.39597" lon="2.9661">
        <ele>62</ele>
        <time>2019-06-23T09:42:28Z</time>
      </trkpt>
      <trkpt lat="49.39606" lon="2.96574">
        <ele>63</ele>
        <time>2019-06-23T09:42:33Z</time>
      </trkpt>
      <trkpt lat="49.39609" lon="2.96525">
        <ele>62</ele>
        <time>2019-06-23T09:42:39Z</time>
      </trkpt>
      <trkpt lat="49.3961" lon="2.96493">
        <ele>64</ele>
        <time>2019-06-23T09:42:43Z</time>
      </trkpt>
      <trkpt lat="49.39611" lon="2.96479">
        <ele>64</ele>
        <time>2019-06-23T09:42:45Z</time>
      </trkpt>
      <trkpt lat="49.39621" lon="2.9641">
        <ele>66</ele>
        <time>2019-06-23T09:42:57Z</time>
      </trkpt>
      <trkpt lat="49.39639" lon="2.96384">
        <ele>65</ele>
        <time>2019-06-23T09:43:08Z</time>
      </trkpt>
      <trkpt lat="49.39681" lon="2.96353">
        <ele>63</ele>
        <time>2019-06-23T09:43:19Z</time>
      </trkpt>
      <trkpt lat="49.39701" lon="2.96348">
        <ele>63</ele>
        <time>2019-06-23T09:43:24Z</time>
      </trkpt>
      <trkpt lat="49.3971" lon="2.96314">
        <ele>68</ele>
        <time>2019-06-23T09:43:31Z</time>
      </trkpt>
      <trkpt lat="49.39705" lon="2.96303">
        <ele>69</ele>
        <time>2019-06-23T09:43:35Z</time>
      </trkpt>
      <trkpt lat="49.39703" lon="2.96295">
        <ele>69</ele>
        <time>2019-06-23T09:43:38Z</time>
      </trkpt>
      <trkpt lat="49.39702" lon="2.96283">
        <ele>69</ele>
        <time>2019-06-23T09:43:42Z</time>
      </trkpt>
      <trkpt lat="49.39703" lon="2.9627">
        <ele>70</ele>
        <time>2019-06-23T09:43:46Z</time>
      </trkpt>
      <trkpt lat="49.39701" lon="2.96246">
        <ele>74</ele>
        <time>2019-06-23T09:43:56Z</time>
      </trkpt>
      <trkpt lat="49.39699" lon="2.9624">
        <ele>74</ele>
        <time>2019-06-23T09:43:59Z</time>
      </trkpt>
      <trkpt lat="49.39697" lon="2.96236">
        <ele>74</ele>
        <time>2019-06-23T09:44:02Z</time>
      </trkpt>
      <trkpt lat="49.39697" lon="2.96218">
        <ele>75</ele>
        <time>2019-06-23T09:44:09Z</time>
      </trkpt>
      <trkpt lat="49.39705" lon="2.96199">
        <ele>76</ele>
        <time>2019-06-23T09:44:16Z</time>
      </trkpt>
      <trkpt lat="49.39707" lon="2.96192">
        <ele>76</ele>
        <time>2019-06-23T09:44:21Z</time>
      </trkpt>
      <trkpt lat="49.39706" lon="2.96181">
        <ele>77</ele>
        <time>2019-06-23T09:44:28Z</time>
      </trkpt>
      <trkpt lat="49.39698" lon="2.96154">
        <ele>84</ele>
        <time>2019-06-23T09:44:41Z</time>
      </trkpt>
      <trkpt lat="49.39696" lon="2.96145">
        <ele>85</ele>
        <time>2019-06-23T09:44:50Z</time>
      </trkpt>
      <trkpt lat="49.3969" lon="2.96135">
        <ele>86</ele>
        <time>2019-06-23T09:44:56Z</time>
      </trkpt>
      <trkpt lat="49.39688" lon="2.96133">
        <ele>86</ele>
        <time>2019-06-23T09:44:58Z</time>
      </trkpt>
      <trkpt lat="49.39681" lon="2.96123">
        <ele>87</ele>
        <time>2019-06-23T09:45:09Z</time>
      </trkpt>
      <trkpt lat="49.39679" lon="2.96122">
        <ele>87</ele>
        <time>2019-06-23T09:45:11Z</time>
      </trkpt>
      <trkpt lat="49.39672" lon="2.96113">
        <ele>88</ele>
        <time>2019-06-23T09:45:19Z</time>
      </trkpt>
      <trkpt lat="49.3966" lon="2.96099">
        <ele>86</ele>
        <time>2019-06-23T09:45:31Z</time>
      </trkpt>
      <trkpt lat="49.3965" lon="2.9609">
        <ele>86</ele>
        <time>2019-06-23T09:45:43Z</time>
      </trkpt>
      <trkpt lat="49.39644" lon="2.96085">
        <ele>85</ele>
        <time>2019-06-23T09:45:55Z</time>
      </trkpt>
      <trkpt lat="49.3964" lon="2.96077">
        <ele>95</ele>
        <time>2019-06-23T09:46:05Z</time>
      </trkpt>
      <trkpt lat="49.39637" lon="2.96067">
        <ele>96</ele>
        <time>2019-06-23T09:46:20Z</time>
      </trkpt>
      <trkpt lat="49.39627" lon="2.96057">
        <ele>97</ele>
        <time>2019-06-23T09:46:31Z</time>
      </trkpt>
      <trkpt lat="49.3962" lon="2.96049">
        <ele>98</ele>
        <time>2019-06-23T09:46:42Z</time>
      </trkpt>
      <trkpt lat="49.39606" lon="2.96043">
        <ele>98</ele>
        <time>2019-06-23T09:46:53Z</time>
      </trkpt>
      <trkpt lat="49.39601" lon="2.96037">
        <ele>99</ele>
        <time>2019-06-23T09:47:03Z</time>
      </trkpt>
      <trkpt lat="49.39596" lon="2.96036">
        <ele>99</ele>
        <time>2019-06-23T09:47:22Z</time>
      </trkpt>
      <trkpt lat="49.39593" lon="2.96029">
        <ele>100</ele>
        <time>2019-06-23T09:47:32Z</time>
      </trkpt>
      <trkpt lat="49.39588" lon="2.96018">
        <ele>102</ele>
        <time>2019-06-23T09:47:44Z</time>
      </trkpt>
      <trkpt lat="49.39586" lon="2.96014">
        <ele>103</ele>
        <time>2019-06-23T09:47:58Z</time>
      </trkpt>
      <trkpt lat="49.39584" lon="2.96013">
        <ele>103</ele>
        <time>2019-06-23T09:48:11Z</time>
      </trkpt>
      <trkpt lat="49.39582" lon="2.96008">
        <ele>104</ele>
        <time>2019-06-23T09:48:24Z</time>
      </trkpt>
      <trkpt lat="49.39577" lon="2.96004">
        <ele>104</ele>
        <time>2019-06-23T09:48:37Z</time>
      </trkpt>
      <trkpt lat="49.39573" lon="2.95999">
        <ele>109</ele>
        <time>2019-06-23T09:48:54Z</time>
      </trkpt>
      <trkpt lat="49.3957" lon="2.95993">
        <ele>110</ele>
        <time>2019-06-23T09:49:05Z</time>
      </trkpt>
      <trkpt lat="49.3957" lon="2.95988">
        <ele>110</ele>
        <time>2019-06-23T09:49:16Z</time>
      </trkpt>
      <trkpt lat="49.39569" lon="2.95986">
        <ele>110</ele>
        <time>2019-06-23T09:49:36Z</time>
      </trkpt>
      <trkpt lat="49.39565" lon="2.95972">
        <ele>112</ele>
        <time>2019-06-23T09:49:47Z</time>
      </trkpt>
      <trkpt lat="49.39561" lon="2.95964">
        <ele>112</ele>
        <time>2019-06-23T09:49:59Z</time>
      </trkpt>
      <trkpt lat="49.39556" lon="2.95955">
        <ele>113</ele>
        <time>2019-06-23T09:50:12Z</time>
      </trkpt>
      <trkpt lat="49.39553" lon="2.95955">
        <ele>113</ele>
        <time>2019-06-23T09:50:27Z</time>
      </trkpt>
      <trkpt lat="49.39547" lon="2.9595">
        <ele>114</ele>
        <time>2019-06-23T09:50:40Z</time>
      </trkpt>
      <trkpt lat="49.39545" lon="2.9594">
        <ele>114</ele>
        <time>2019-06-23T09:50:52Z</time>
      </trkpt>
      <trkpt lat="49.39545" lon="2.95939">
        <ele>114</ele>
        <time>2019-06-23T09:50:55Z</time>
      </trkpt>
      <trkpt lat="49.39539" lon="2.95928">
        <ele>115</ele>
        <time>2019-06-23T09:51:04Z</time>
      </trkpt>
      <trkpt lat="49.39537" lon="2.95923">
        <ele>115</ele>
        <time>2019-06-23T09:51:08Z</time>
      </trkpt>
      <trkpt lat="49.39527" lon="2.95916">
        <ele>120</ele>
        <time>2019-06-23T09:51:21Z</time>
      </trkpt>
      <trkpt lat="49.39525" lon="2.95915">
        <ele>120</ele>
        <time>2019-06-23T09:51:33Z</time>
      </trkpt>
      <trkpt lat="49.39523" lon="2.95908">
        <ele>121</ele>
        <time>2019-06-23T09:51:38Z</time>
      </trkpt>
      <trkpt lat="49.39522" lon="2.95901">
        <ele>121</ele>
        <time>2019-06-23T09:51:42Z</time>
      </trkpt>
      <trkpt lat="49.39516" lon="2.95887">
        <ele>121</ele>
        <time>2019-06-23T09:51:50Z</time>
      </trkpt>
      <trkpt lat="49.39516" lon="2.95884">
        <ele>121</ele>
        <time>2019-06-23T09:51:52Z</time>
      </trkpt>
      <trkpt lat="49.39511" lon="2.95866">
        <ele>121</ele>
        <time>2019-06-23T09:52:03Z</time>
      </trkpt>
      <trkpt lat="49.39506" lon="2.95854">
        <ele>122</ele>
        <time>2019-06-23T09:52:10Z</time>
      </trkpt>
      <trkpt lat="49.39502" lon="2.95844">
        <ele>122</ele>
        <time>2019-06-23T09:52:18Z</time>
      </trkpt>
      <trkpt lat="49.39494" lon="2.95832">
        <ele>123</ele>
        <time>2019-06-23T09:52:28Z</time>
      </trkpt>
      <trkpt lat="49.39489" lon="2.95825">
        <ele>124</ele>
        <time>2019-06-23T09:52:35Z</time>
      </trkpt>
      <trkpt lat="49.39482" lon="2.95817">
        <ele>124</ele>
        <time>2019-06-23T09:52:40Z</time>
      </trkpt>
      <trkpt lat="49.39467" lon="2.95801">
        <ele>124</ele>
        <time>2019-06-23T09:52:50Z</time>
      </trkpt>
      <trkpt lat="49.39465" lon="2.95799">
        <ele>124</ele>
        <time>2019-06-23T09:52:51Z</time>
      </trkpt>
      <trkpt lat="49.39441" lon="2.95769">
        <ele>125</ele>
        <time>2019-06-23T09:53:02Z</time>
      </trkpt>
      <trkpt lat="49.39428" lon="2.95756">
        <ele>125</ele>
        <time>2019-06-23T09:53:06Z</time>
      </trkpt>
      <trkpt lat="49.39427" lon="2.95731">
        <ele>125</ele>
        <time>2019-06-23T09:53:14Z</time>
      </trkpt>
      <trkpt lat="49.39425" lon="2.95708">
        <ele>125</ele>
        <time>2019-06-23T09:53:21Z</time>
      </trkpt>
      <trkpt lat="49.39436" lon="2.95671">
        <ele>125</ele>
        <time>2019-06-23T09:53:31Z</time>
      </trkpt>
      <trkpt lat="49.3945" lon="2.95684">
        <ele>124</ele>
        <time>2019-06-23T09:53:39Z</time>
      </trkpt>
      <trkpt lat="49.3946" lon="2.957">
        <ele>124</ele>
        <time>2019-06-23T09:53:43Z</time>
      </trkpt>
      <trkpt lat="49.39476" lon="2.95726">
        <ele>124</ele>
        <time>2019-06-23T09:53:49Z</time>
      </trkpt>
      <trkpt lat="49.39489" lon="2.95745">
        <ele>125</ele>
        <time>2019-06-23T09:53:54Z</time>
      </trkpt>
      <trkpt lat="49.39507" lon="2.95772">
        <ele>123</ele>
        <time>2019-06-23T09:54:00Z</time>
      </trkpt>
      <trkpt lat="49.39546" lon="2.95814">
        <ele>121</ele>
        <time>2019-06-23T09:54:10Z</time>
      </trkpt>
      <trkpt lat="49.39574" lon="2.95828">
        <ele>121</ele>
        <time>2019-06-23T09:54:18Z</time>
      </trkpt>
      <trkpt lat="49.3959" lon="2.95828">
        <ele>120</ele>
        <time>2019-06-23T09:54:22Z</time>
      </trkpt>
      <trkpt lat="49.39634" lon="2.95816">
        <ele>118</ele>
        <time>2019-06-23T09:54:33Z</time>
      </trkpt>
      <trkpt lat="49.39656" lon="2.95814">
        <ele>118</ele>
        <time>2019-06-23T09:54:38Z</time>
      </trkpt>
      <trkpt lat="49.39679" lon="2.9581">
        <ele>118</ele>
        <time>2019-06-23T09:54:43Z</time>
      </trkpt>
      <trkpt lat="49.39724" lon="2.95804">
        <ele>117</ele>
        <time>2019-06-23T09:54:54Z</time>
      </trkpt>
      <trkpt lat="49.39733" lon="2.95795">
        <ele>117</ele>
        <time>2019-06-23T09:54:56Z</time>
      </trkpt>
      <trkpt lat="49.39734" lon="2.95789">
        <ele>116</ele>
        <time>2019-06-23T09:54:57Z</time>
      </trkpt>
      <trkpt lat="49.39735" lon="2.95782">
        <ele>116</ele>
        <time>2019-06-23T09:54:58Z</time>
      </trkpt>
      <trkpt lat="49.39736" lon="2.95777">
        <ele>115</ele>
        <time>2019-06-23T09:54:59Z</time>
      </trkpt>
      <trkpt lat="49.39738" lon="2.95773">
        <ele>115</ele>
        <time>2019-06-23T09:55:00Z</time>
      </trkpt>
      <trkpt lat="49.39741" lon="2.95771">
        <ele>114</ele>
        <time>2019-06-23T09:55:01Z</time>
      </trkpt>
      <trkpt lat="49.39744" lon="2.95771">
        <ele>114</ele>
        <time>2019-06-23T09:55:02Z</time>
      </trkpt>
      <trkpt lat="49.3975" lon="2.95771">
        <ele>114</ele>
        <time>2019-06-23T09:55:04Z</time>
      </trkpt>
      <trkpt lat="49.39779" lon="2.95759">
        <ele>113</ele>
        <time>2019-06-23T09:55:12Z</time>
      </trkpt>
      <trkpt lat="49.39784" lon="2.95759">
        <ele>113</ele>
        <time>2019-06-23T09:55:13Z</time>
      </trkpt>
      <trkpt lat="49.39796" lon="2.95759">
        <ele>112</ele>
        <time>2019-06-23T09:55:15Z</time>
      </trkpt>
      <trkpt lat="49.39807" lon="2.95759">
        <ele>112</ele>
        <time>2019-06-23T09:55:17Z</time>
      </trkpt>
      <trkpt lat="49.39812" lon="2.95759">
        <ele>111</ele>
        <time>2019-06-23T09:55:18Z</time>
      </trkpt>
      <trkpt lat="49.39817" lon="2.95759">
        <ele>111</ele>
        <time>2019-06-23T09:55:19Z</time>
      </trkpt>
      <trkpt lat="49.39845" lon="2.95774">
        <ele>107</ele>
        <time>2019-06-23T09:55:26Z</time>
      </trkpt>
      <trkpt lat="49.39848" lon="2.9578">
        <ele>107</ele>
        <time>2019-06-23T09:55:27Z</time>
      </trkpt>
      <trkpt lat="49.39853" lon="2.95789">
        <ele>107</ele>
        <time>2019-06-23T09:55:29Z</time>
      </trkpt>
      <trkpt lat="49.39861" lon="2.95803">
        <ele>108</ele>
        <time>2019-06-23T09:55:32Z</time>
      </trkpt>
      <trkpt lat="49.39868" lon="2.95795">
        <ele>107</ele>
        <time>2019-06-23T09:55:37Z</time>
      </trkpt>
      <trkpt lat="49.39851" lon="2.95747">
        <ele>99</ele>
        <time>2019-06-23T09:55:46Z</time>
      </trkpt>
      <trkpt lat="49.39843" lon="2.95726">
        <ele>96</ele>
        <time>2019-06-23T09:55:52Z</time>
      </trkpt>
      <trkpt lat="49.39855" lon="2.95728">
        <ele>95</ele>
        <time>2019-06-23T09:56:00Z</time>
      </trkpt>
      <trkpt lat="49.39864" lon="2.95734">
        <ele>95</ele>
        <time>2019-06-23T09:56:02Z</time>
      </trkpt>
      <trkpt lat="49.39875" lon="2.95746">
        <ele>94</ele>
        <time>2019-06-23T09:56:05Z</time>
      </trkpt>
      <trkpt lat="49.39896" lon="2.95773">
        <ele>102</ele>
        <time>2019-06-23T09:56:12Z</time>
      </trkpt>
      <trkpt lat="49.39921" lon="2.9579">
        <ele>94</ele>
        <time>2019-06-23T09:56:18Z</time>
      </trkpt>
      <trkpt lat="49.39949" lon="2.95802">
        <ele>93</ele>
        <time>2019-06-23T09:56:22Z</time>
      </trkpt>
      <trkpt lat="49.39967" lon="2.95761">
        <ele>86</ele>
        <time>2019-06-23T09:56:30Z</time>
      </trkpt>
      <trkpt lat="49.39962" lon="2.9572">
        <ele>78</ele>
        <time>2019-06-23T09:56:33Z</time>
      </trkpt>
      <trkpt lat="49.39959" lon="2.95709">
        <ele>78</ele>
        <time>2019-06-23T09:56:34Z</time>
      </trkpt>
      <trkpt lat="49.39957" lon="2.95699">
        <ele>77</ele>
        <time>2019-06-23T09:56:35Z</time>
      </trkpt>
      <trkpt lat="49.39956" lon="2.95691">
        <ele>77</ele>
        <time>2019-06-23T09:56:36Z</time>
      </trkpt>
      <trkpt lat="49.39957" lon="2.95687">
        <ele>77</ele>
        <time>2019-06-23T09:56:37Z</time>
      </trkpt>
      <trkpt lat="49.39959" lon="2.95686">
        <ele>77</ele>
        <time>2019-06-23T09:56:38Z</time>
      </trkpt>
      <trkpt lat="49.39975" lon="2.95694">
        <ele>76</ele>
        <time>2019-06-23T09:56:44Z</time>
      </trkpt>
      <trkpt lat="49.40029" lon="2.95725">
        <ele>69</ele>
        <time>2019-06-23T09:56:52Z</time>
      </trkpt>
      <trkpt lat="49.40067" lon="2.95748">
        <ele>65</ele>
        <time>2019-06-23T09:56:58Z</time>
      </trkpt>
      <trkpt lat="49.40093" lon="2.95759">
        <ele>64</ele>
        <time>2019-06-23T09:57:02Z</time>
      </trkpt>
      <trkpt lat="49.40151" lon="2.95797">
        <ele>65</ele>
        <time>2019-06-23T09:57:11Z</time>
      </trkpt>
      <trkpt lat="49.40163" lon="2.95809">
        <ele>65</ele>
        <time>2019-06-23T09:57:13Z</time>
      </trkpt>
      <trkpt lat="49.402" lon="2.95853">
        <ele>62</ele>
        <time>2019-06-23T09:57:20Z</time>
      </trkpt>
      <trkpt lat="49.40226" lon="2.95892">
        <ele>61</ele>
        <time>2019-06-23T09:57:25Z</time>
      </trkpt>
      <trkpt lat="49.40248" lon="2.95922">
        <ele>59</ele>
        <time>2019-06-23T09:57:29Z</time>
      </trkpt>
      <trkpt lat="49.40266" lon="2.95948">
        <ele>52</ele>
        <time>2019-06-23T09:57:33Z</time>
      </trkpt>
      <trkpt lat="49.4028" lon="2.9597">
        <ele>51</ele>
        <time>2019-06-23T09:57:37Z</time>
      </trkpt>
      <trkpt lat="49.40271" lon="2.95997">
        <ele>53</ele>
        <time>2019-06-23T09:57:46Z</time>
      </trkpt>
      <trkpt lat="49.4027" lon="2.95999">
        <ele>53</ele>
        <time>2019-06-23T09:57:55Z</time>
      </trkpt>
      <trkpt lat="49.40267" lon="2.96001">
        <ele>52</ele>
        <time>2019-06-23T09:58:09Z</time>
      </trkpt>
      <trkpt lat="49.40256" lon="2.96003">
        <ele>55</ele>
        <time>2019-06-23T09:58:19Z</time>
      </trkpt>
      <trkpt lat="49.40252" lon="2.96004">
        <ele>56</ele>
        <time>2019-06-23T09:58:22Z</time>
      </trkpt>
      <trkpt lat="49.40244" lon="2.96003">
        <ele>58</ele>
        <time>2019-06-23T09:58:26Z</time>
      </trkpt>
      <trkpt lat="49.40223" lon="2.96007">
        <ele>62</ele>
        <time>2019-06-23T09:58:35Z</time>
      </trkpt>
      <trkpt lat="49.40218" lon="2.96013">
        <ele>62</ele>
        <time>2019-06-23T09:58:38Z</time>
      </trkpt>
      <trkpt lat="49.40202" lon="2.96057">
        <ele>63</ele>
        <time>2019-06-23T09:58:50Z</time>
      </trkpt>
      <trkpt lat="49.40192" lon="2.96106">
        <ele>62</ele>
        <time>2019-06-23T09:59:00Z</time>
      </trkpt>
      <trkpt lat="49.40174" lon="2.96152">
        <ele>61</ele>
        <time>2019-06-23T09:59:06Z</time>
      </trkpt>
      <trkpt lat="49.40168" lon="2.96189">
        <ele>59</ele>
        <time>2019-06-23T09:59:10Z</time>
      </trkpt>
      <trkpt lat="49.40162" lon="2.96216">
        <ele>64</ele>
        <time>2019-06-23T09:59:13Z</time>
      </trkpt>
      <trkpt lat="49.40158" lon="2.96258">
        <ele>60</ele>
        <time>2019-06-23T09:59:18Z</time>
      </trkpt>
      <trkpt lat="49.40154" lon="2.96301">
        <ele>59</ele>
        <time>2019-06-23T09:59:24Z</time>
      </trkpt>
      <trkpt lat="49.40132" lon="2.96367">
        <ele>55</ele>
        <time>2019-06-23T09:59:34Z</time>
      </trkpt>
      <trkpt lat="49.40121" lon="2.96403">
        <ele>54</ele>
        <time>2019-06-23T09:59:41Z</time>
      </trkpt>
      <trkpt lat="49.40119" lon="2.9641">
        <ele>54</ele>
        <time>2019-06-23T09:59:43Z</time>
      </trkpt>
      <trkpt lat="49.40128" lon="2.96417">
        <ele>49</ele>
        <time>2019-06-23T09:59:48Z</time>
      </trkpt>
      <trkpt lat="49.40164" lon="2.964">
        <ele>51</ele>
        <time>2019-06-23T10:00:00Z</time>
      </trkpt>
      <trkpt lat="49.40188" lon="2.96387">
        <ele>47</ele>
        <time>2019-06-23T10:00:05Z</time>
      </trkpt>
      <trkpt lat="49.40211" lon="2.96376">
        <ele>46</ele>
        <time>2019-06-23T10:00:11Z</time>
      </trkpt>
      <trkpt lat="49.40215" lon="2.96386">
        <ele>45</ele>
        <time>2019-06-23T10:00:14Z</time>
      </trkpt>
      <trkpt lat="49.4022" lon="2.96417">
        <ele>44</ele>
        <time>2019-06-23T10:00:20Z</time>
      </trkpt>
      <trkpt lat="49.4023" lon="2.96428">
        <ele>42</ele>
        <time>2019-06-23T10:00:23Z</time>
      </trkpt>
      <trkpt lat="49.40234" lon="2.96453">
        <ele>42</ele>
        <time>2019-06-23T10:00:27Z</time>
      </trkpt>
      <trkpt lat="49.40239" lon="2.96489">
        <ele>42</ele>
        <time>2019-06-23T10:00:32Z</time>
      </trkpt>
      <trkpt lat="49.40245" lon="2.96525">
        <ele>41</ele>
        <time>2019-06-23T10:00:37Z</time>
      </trkpt>
      <trkpt lat="49.40251" lon="2.96566">
        <ele>40</ele>
        <time>2019-06-23T10:00:43Z</time>
      </trkpt>
      <trkpt lat="49.40253" lon="2.96588">
        <ele>41</ele>
        <time>2019-06-23T10:00:46Z</time>
      </trkpt>
      <trkpt lat="49.40265" lon="2.96667">
        <ele>40</ele>
        <time>2019-06-23T10:01:00Z</time>
      </trkpt>
      <trkpt lat="49.40266" lon="2.96686">
        <ele>39</ele>
        <time>2019-06-23T10:01:03Z</time>
      </trkpt>
      <trkpt lat="49.40266" lon="2.96754">
        <ele>39</ele>
        <time>2019-06-23T10:01:14Z</time>
      </trkpt>
      <trkpt lat="49.40268" lon="2.96761">
        <ele>39</ele>
        <time>2019-06-23T10:01:17Z</time>
      </trkpt>
      <trkpt lat="49.40298" lon="2.96769">
        <ele>39</ele>
        <time>2019-06-23T10:01:28Z</time>
      </trkpt>
      <trkpt lat="49.40348" lon="2.96775">
        <ele>38</ele>
        <time>2019-06-23T10:01:42Z</time>
      </trkpt>
      <trkpt lat="49.40354" lon="2.96775">
        <ele>38</ele>
        <time>2019-06-23T10:01:44Z</time>
      </trkpt>
      <trkpt lat="49.4036" lon="2.96741">
        <ele>38</ele>
        <time>2019-06-23T10:01:51Z</time>
      </trkpt>
      <trkpt lat="49.40348" lon="2.96671">
        <ele>38</ele>
        <time>2019-06-23T10:02:01Z</time>
      </trkpt>
      <trkpt lat="49.40342" lon="2.96589">
        <ele>38</ele>
        <time>2019-06-23T10:02:12Z</time>
      </trkpt>
      <trkpt lat="49.40338" lon="2.96541">
        <ele>38</ele>
        <time>2019-06-23T10:02:18Z</time>
      </trkpt>
      <trkpt lat="49.40337" lon="2.96494">
        <ele>39</ele>
        <time>2019-06-23T10:02:24Z</time>
      </trkpt>
      <trkpt lat="49.40338" lon="2.9648">
        <ele>39</ele>
        <time>2019-06-23T10:02:26Z</time>
      </trkpt>
      <trkpt lat="49.40341" lon="2.96379">
        <ele>38</ele>
        <time>2019-06-23T10:02:39Z</time>
      </trkpt>
      <trkpt lat="49.40342" lon="2.96357">
        <ele>38</ele>
        <time>2019-06-23T10:02:42Z</time>
      </trkpt>
      <trkpt lat="49.40342" lon="2.96342">
        <ele>38</ele>
        <time>2019-06-23T10:02:44Z</time>
      </trkpt>
      <trkpt lat="49.40345" lon="2.96298">
        <ele>38</ele>
        <time>2019-06-23T10:02:50Z</time>
      </trkpt>
      <trkpt lat="49.40357" lon="2.96185">
        <ele>37</ele>
        <time>2019-06-23T10:03:05Z</time>
      </trkpt>
      <trkpt lat="49.40367" lon="2.96119">
        <ele>37</ele>
        <time>2019-06-23T10:03:14Z</time>
      </trkpt>
      <trkpt lat="49.40374" lon="2.96083">
        <ele>38</ele>
        <time>2019-06-23T10:03:19Z</time>
      </trkpt>
      <trkpt lat="49.40391" lon="2.95991">
        <ele>39</ele>
        <time>2019-06-23T10:03:32Z</time>
      </trkpt>
      <trkpt lat="49.4041" lon="2.9589">
        <ele>39</ele>
        <time>2019-06-23T10:03:46Z</time>
      </trkpt>
      <trkpt lat="49.40426" lon="2.95842">
        <ele>36</ele>
        <time>2019-06-23T10:03:53Z</time>
      </trkpt>
      <trkpt lat="49.40418" lon="2.95799">
        <ele>37</ele>
        <time>2019-06-23T10:04:00Z</time>
      </trkpt>
      <trkpt lat="49.40421" lon="2.95781">
        <ele>37</ele>
        <time>2019-06-23T10:04:03Z</time>
      </trkpt>
      <trkpt lat="49.4043" lon="2.95731">
        <ele>38</ele>
        <time>2019-06-23T10:04:11Z</time>
      </trkpt>
      <trkpt lat="49.40433" lon="2.95718">
        <ele>38</ele>
        <time>2019-06-23T10:04:13Z</time>
      </trkpt>
      <trkpt lat="49.40434" lon="2.95704">
        <ele>39</ele>
        <time>2019-06-23T10:04:15Z</time>
      </trkpt>
      <trkpt lat="49.4044" lon="2.95669">
        <ele>39</ele>
        <time>2019-06-23T10:04:20Z</time>
      </trkpt>
      <trkpt lat="49.40442" lon="2.95655">
        <ele>40</ele>
        <time>2019-06-23T10:04:22Z</time>
      </trkpt>
      <trkpt lat="49.40451" lon="2.95604">
        <ele>40</ele>
        <time>2019-06-23T10:04:29Z</time>
      </trkpt>
      <trkpt lat="49.40458" lon="2.95569">
        <ele>40</ele>
        <time>2019-06-23T10:04:34Z</time>
      </trkpt>
      <trkpt lat="49.40464" lon="2.95532">
        <ele>40</ele>
        <time>2019-06-23T10:04:39Z</time>
      </trkpt>
      <trkpt lat="49.40471" lon="2.95504">
        <ele>40</ele>
        <time>2019-06-23T10:04:43Z</time>
      </trkpt>
      <trkpt lat="49.40485" lon="2.95429">
        <ele>41</ele>
        <time>2019-06-23T10:04:56Z</time>
      </trkpt>
      <trkpt lat="49.40495" lon="2.95378">
        <ele>43</ele>
        <time>2019-06-23T10:05:05Z</time>
      </trkpt>
      <trkpt lat="49.40511" lon="2.95309">
        <ele>41</ele>
        <time>2019-06-23T10:05:17Z</time>
      </trkpt>
      <trkpt lat="49.40528" lon="2.95237">
        <ele>46</ele>
        <time>2019-06-23T10:05:30Z</time>
      </trkpt>
      <trkpt lat="49.40532" lon="2.95227">
        <ele>46</ele>
        <time>2019-06-23T10:05:32Z</time>
      </trkpt>
      <trkpt lat="49.40549" lon="2.95181">
        <ele>46</ele>
        <time>2019-06-23T10:05:41Z</time>
      </trkpt>
      <trkpt lat="49.40565" lon="2.95138">
        <ele>47</ele>
        <time>2019-06-23T10:05:50Z</time>
      </trkpt>
      <trkpt lat="49.40578" lon="2.95096">
        <ele>45</ele>
        <time>2019-06-23T10:06:00Z</time>
      </trkpt>
      <trkpt lat="49.40583" lon="2.9508">
        <ele>43</ele>
        <time>2019-06-23T10:06:04Z</time>
      </trkpt>
      <trkpt lat="49.40593" lon="2.95056">
        <ele>42</ele>
        <time>2019-06-23T10:06:09Z</time>
      </trkpt>
      <trkpt lat="49.4061" lon="2.94999">
        <ele>45</ele>
        <time>2019-06-23T10:06:20Z</time>
      </trkpt>
      <trkpt lat="49.4062" lon="2.94951">
        <ele>45</ele>
        <time>2019-06-23T10:06:30Z</time>
      </trkpt>
      <trkpt lat="49.40629" lon="2.94908">
        <ele>47</ele>
        <time>2019-06-23T10:06:39Z</time>
      </trkpt>
      <trkpt lat="49.4064" lon="2.9487">
        <ele>47</ele>
        <time>2019-06-23T10:06:48Z</time>
      </trkpt>
      <trkpt lat="49.40658" lon="2.94823">
        <ele>46</ele>
        <time>2019-06-23T10:06:58Z</time>
      </trkpt>
      <trkpt lat="49.40663" lon="2.94802">
        <ele>47</ele>
        <time>2019-06-23T10:07:02Z</time>
      </trkpt>
      <trkpt lat="49.40673" lon="2.94768">
        <ele>44</ele>
        <time>2019-06-23T10:07:09Z</time>
      </trkpt>
      <trkpt lat="49.40688" lon="2.94694">
        <ele>43</ele>
        <time>2019-06-23T10:07:24Z</time>
      </trkpt>
      <trkpt lat="49.40691" lon="2.94684">
        <ele>43</ele>
        <time>2019-06-23T10:07:26Z</time>
      </trkpt>
      <trkpt lat="49.40705" lon="2.94633">
        <ele>42</ele>
        <time>2019-06-23T10:07:36Z</time>
      </trkpt>
      <trkpt lat="49.40729" lon="2.94556">
        <ele>41</ele>
        <time>2019-06-23T10:07:50Z</time>
      </trkpt>
      <trkpt lat="49.40737" lon="2.94531">
        <ele>41</ele>
        <time>2019-06-23T10:07:55Z</time>
      </trkpt>
      <trkpt lat="49.40762" lon="2.94535">
        <ele>38</ele>
        <time>2019-06-23T10:08:04Z</time>
      </trkpt>
      <trkpt lat="49.40765" lon="2.94536">
        <ele>38</ele>
        <time>2019-06-23T10:08:05Z</time>
      </trkpt>
      <trkpt lat="49.40801" lon="2.94547">
        <ele>38</ele>
        <time>2019-06-23T10:08:17Z</time>
      </trkpt>
      <trkpt lat="49.40808" lon="2.94549">
        <ele>38</ele>
        <time>2019-06-23T10:08:19Z</time>
      </trkpt>
      <trkpt lat="49.40824" lon="2.94553">
        <ele>38</ele>
        <time>2019-06-23T10:08:24Z</time>
      </trkpt>
      <trkpt lat="49.40853" lon="2.94557">
        <ele>39</ele>
        <time>2019-06-23T10:08:34Z</time>
      </trkpt>
      <trkpt lat="49.40856" lon="2.94558">
        <ele>39</ele>
        <time>2019-06-23T10:08:35Z</time>
      </trkpt>
      <trkpt lat="49.40871" lon="2.94559">
        <ele>39</ele>
        <time>2019-06-23T10:08:39Z</time>
      </trkpt>
      <trkpt lat="49.40883" lon="2.94561">
        <ele>39</ele>
        <time>2019-06-23T10:08:47Z</time>
      </trkpt>
      <trkpt lat="49.4091" lon="2.94569">
        <ele>39</ele>
        <time>2019-06-23T10:08:56Z</time>
      </trkpt>
      <trkpt lat="49.40913" lon="2.9457">
        <ele>39</ele>
        <time>2019-06-23T10:08:57Z</time>
      </trkpt>
      <trkpt lat="49.40926" lon="2.94573">
        <ele>39</ele>
        <time>2019-06-23T10:09:01Z</time>
      </trkpt>
      <trkpt lat="49.40969" lon="2.94594">
        <ele>38</ele>
        <time>2019-06-23T10:09:12Z</time>
      </trkpt>
      <trkpt lat="49.41002" lon="2.94613">
        <ele>37</ele>
        <time>2019-06-23T10:09:21Z</time>
      </trkpt>
      <trkpt lat="49.41054" lon="2.94644">
        <ele>36</ele>
        <time>2019-06-23T10:09:32Z</time>
      </trkpt>
      <trkpt lat="49.4109" lon="2.94664">
        <ele>35</ele>
        <time>2019-06-23T10:09:46Z</time>
      </trkpt>
      <trkpt lat="49.4114" lon="2.9469">
        <ele>35</ele>
        <time>2019-06-23T10:10:02Z</time>
      </trkpt>
      <trkpt lat="49.41146" lon="2.94694">
        <ele>35</ele>
        <time>2019-06-23T10:10:04Z</time>
      </trkpt>
      <trkpt lat="49.41155" lon="2.94666">
        <ele>34</ele>
        <time>2019-06-23T10:10:12Z</time>
      </trkpt>
      <trkpt lat="49.41168" lon="2.94602">
        <ele>34</ele>
        <time>2019-06-23T10:10:25Z</time>
      </trkpt>
      <trkpt lat="49.41185" lon="2.94516">
        <ele>34</ele>
        <time>2019-06-23T10:10:41Z</time>
      </trkpt>
      <trkpt lat="49.41203" lon="2.94432">
        <ele>34</ele>
        <time>2019-06-23T10:10:56Z</time>
      </trkpt>
      <trkpt lat="49.41215" lon="2.94353">
        <ele>34</ele>
        <time>2019-06-23T10:11:10Z</time>
      </trkpt>
      <trkpt lat="49.4122" lon="2.94338">
        <ele>34</ele>
        <time>2019-06-23T10:11:13Z</time>
      </trkpt>
      <trkpt lat="49.41235" lon="2.94268">
        <ele>35</ele>
        <time>2019-06-23T10:11:25Z</time>
      </trkpt>
      <trkpt lat="49.41237" lon="2.94255">
        <ele>35</ele>
        <time>2019-06-23T10:11:27Z</time>
      </trkpt>
      <trkpt lat="49.41264" lon="2.94164">
        <ele>35</ele>
        <time>2019-06-23T10:11:43Z</time>
      </trkpt>
      <trkpt lat="49.41291" lon="2.94097">
        <ele>35</ele>
        <time>2019-06-23T10:11:56Z</time>
      </trkpt>
      <trkpt lat="49.41297" lon="2.94083">
        <ele>35</ele>
        <time>2019-06-23T10:11:59Z</time>
      </trkpt>
      <trkpt lat="49.41313" lon="2.94046">
        <ele>35</ele>
        <time>2019-06-23T10:12:08Z</time>
      </trkpt>
      <trkpt lat="49.41326" lon="2.94">
        <ele>35</ele>
        <time>2019-06-23T10:12:17Z</time>
      </trkpt>
      <trkpt lat="49.41337" lon="2.93952">
        <ele>35</ele>
        <time>2019-06-23T10:12:26Z</time>
      </trkpt>
      <trkpt lat="49.4136" lon="2.93887">
        <ele>35</ele>
        <time>2019-06-23T10:12:38Z</time>
      </trkpt>
      <trkpt lat="49.41376" lon="2.93844">
        <ele>35</ele>
        <time>2019-06-23T10:12:46Z</time>
      </trkpt>
      <trkpt lat="49.41387" lon="2.93814">
        <ele>36</ele>
        <time>2019-06-23T10:12:52Z</time>
      </trkpt>
      <trkpt lat="49.4138" lon="2.93793">
        <ele>37</ele>
        <time>2019-06-23T10:12:57Z</time>
      </trkpt>
      <trkpt lat="49.41342" lon="2.93762">
        <ele>38</ele>
        <time>2019-06-23T10:13:10Z</time>
      </trkpt>
      <trkpt lat="49.4134" lon="2.93757">
        <ele>38</ele>
        <time>2019-06-23T10:13:16Z</time>
      </trkpt>
      <trkpt lat="49.41367" lon="2.93771">
        <ele>37</ele>
        <time>2019-06-23T10:13:28Z</time>
      </trkpt>
      <trkpt lat="49.41411" lon="2.93795">
        <ele>36</ele>
        <time>2019-06-23T10:13:44Z</time>
      </trkpt>
      <trkpt lat="49.41452" lon="2.93817">
        <ele>35</ele>
        <time>2019-06-23T10:13:56Z</time>
      </trkpt>
      <trkpt lat="49.41465" lon="2.93826">
        <ele>35</ele>
        <time>2019-06-23T10:13:59Z</time>
      </trkpt>
      <trkpt lat="49.41533" lon="2.93862">
        <ele>35</ele>
        <time>2019-06-23T10:14:12Z</time>
      </trkpt>
      <trkpt lat="49.41564" lon="2.93874">
        <ele>36</ele>
        <time>2019-06-23T10:14:19Z</time>
      </trkpt>
      <trkpt lat="49.41623" lon="2.93891">
        <ele>38</ele>
        <time>2019-06-23T10:14:32Z</time>
      </trkpt>
      <trkpt lat="49.41628" lon="2.93894">
        <ele>38</ele>
        <time>2019-06-23T10:14:33Z</time>
      </trkpt>
      <trkpt lat="49.41633" lon="2.93906">
        <ele>38</ele>
        <time>2019-06-23T10:14:37Z</time>
      </trkpt>
      <trkpt lat="49.41624" lon="2.93934">
        <ele>39</ele>
        <time>2019-06-23T10:14:43Z</time>
      </trkpt>
      <trkpt lat="49.41625" lon="2.93984">
        <ele>40</ele>
        <time>2019-06-23T10:14:53Z</time>
      </trkpt>
      <trkpt lat="49.41632" lon="2.94027">
        <ele>41</ele>
        <time>2019-06-23T10:15:03Z</time>
      </trkpt>
      <trkpt lat="49.41634" lon="2.94048">
        <ele>41</ele>
        <time>2019-06-23T10:15:07Z</time>
      </trkpt>
      <trkpt lat="49.4164" lon="2.9407">
        <ele>41</ele>
        <time>2019-06-23T10:15:11Z</time>
      </trkpt>
      <trkpt lat="49.41656" lon="2.94093">
        <ele>41</ele>
        <time>2019-06-23T10:15:16Z</time>
      </trkpt>
      <trkpt lat="49.41671" lon="2.94118">
        <ele>42</ele>
        <time>2019-06-23T10:15:21Z</time>
      </trkpt>
      <trkpt lat="49.4168" lon="2.94142">
        <ele>41</ele>
        <time>2019-06-23T10:15:25Z</time>
      </trkpt>
      <trkpt lat="49.417" lon="2.9418">
        <ele>40</ele>
        <time>2019-06-23T10:15:32Z</time>
      </trkpt>
      <trkpt lat="49.41714" lon="2.94202">
        <ele>40</ele>
        <time>2019-06-23T10:15:36Z</time>
      </trkpt>
      <trkpt lat="49.41743" lon="2.94252">
        <ele>39</ele>
        <time>2019-06-23T10:15:45Z</time>
      </trkpt>
      <trkpt lat="49.41767" lon="2.94287">
        <ele>39</ele>
        <time>2019-06-23T10:15:52Z</time>
      </trkpt>
      <trkpt lat="49.41784" lon="2.94296">
        <ele>39</ele>
        <time>2019-06-23T10:15:57Z</time>
      </trkpt>
      <trkpt lat="49.41819" lon="2.94288">
        <ele>40</ele>
        <time>2019-06-23T10:16:04Z</time>
      </trkpt>
      <trkpt lat="49.4184" lon="2.94284">
        <ele>41</ele>
        <time>2019-06-23T10:16:08Z</time>
      </trkpt>
      <trkpt lat="49.41914" lon="2.94299">
        <ele>42</ele>
        <time>2019-06-23T10:16:24Z</time>
      </trkpt>
      <trkpt lat="49.41961" lon="2.94324">
        <ele>42</ele>
        <time>2019-06-23T10:16:34Z</time>
      </trkpt>
      <trkpt lat="49.41974" lon="2.94335">
        <ele>40</ele>
        <time>2019-06-23T10:16:37Z</time>
      </trkpt>
      <trkpt lat="49.42022" lon="2.94385">
        <ele>38</ele>
        <time>2019-06-23T10:16:49Z</time>
      </trkpt>
      <trkpt lat="49.42101" lon="2.94421">
        <ele>37</ele>
        <time>2019-06-23T10:17:06Z</time>
      </trkpt>
      <trkpt lat="49.42123" lon="2.9443">
        <ele>37</ele>
        <time>2019-06-23T10:17:11Z</time>
      </trkpt>
      <trkpt lat="49.42203" lon="2.94459">
        <ele>37</ele>
        <time>2019-06-23T10:17:27Z</time>
      </trkpt>
      <trkpt lat="49.42249" lon="2.94465">
        <ele>37</ele>
        <time>2019-06-23T10:17:36Z</time>
      </trkpt>
      <trkpt lat="49.42289" lon="2.94471">
        <ele>37</ele>
        <time>2019-06-23T10:17:44Z</time>
      </trkpt>
      <trkpt lat="49.42299" lon="2.94472">
        <ele>37</ele>
        <time>2019-06-23T10:17:46Z</time>
      </trkpt>
      <trkpt lat="49.42387" lon="2.94482">
        <ele>37</ele>
        <time>2019-06-23T10:18:03Z</time>
      </trkpt>
      <trkpt lat="49.42496" lon="2.94494">
        <ele>37</ele>
        <time>2019-06-23T10:18:24Z</time>
      </trkpt>
      <trkpt lat="49.4258" lon="2.94512">
        <ele>41</ele>
        <time>2019-06-23T10:18:41Z</time>
      </trkpt>
      <trkpt lat="49.42609" lon="2.94517">
        <ele>45</ele>
        <time>2019-06-23T10:18:47Z</time>
      </trkpt>
      <trkpt lat="49.42648" lon="2.94525">
        <ele>47</ele>
        <time>2019-06-23T10:18:56Z</time>
      </trkpt>
      <trkpt lat="49.42692" lon="2.94536">
        <ele>49</ele>
        <time>2019-06-23T10:19:06Z</time>
      </trkpt>
      <trkpt lat="49.42714" lon="2.94545">
        <ele>49</ele>
        <time>2019-06-23T10:19:12Z</time>
      </trkpt>
      <trkpt lat="49.42729" lon="2.94558">
        <ele>49</ele>
        <time>2019-06-23T10:19:18Z</time>
      </trkpt>
      <trkpt lat="49.42753" lon="2.94588">
        <ele>48</ele>
        <time>2019-06-23T10:19:25Z</time>
      </trkpt>
      <trkpt lat="49.42776" lon="2.94618">
        <ele>47</ele>
        <time>2019-06-23T10:19:32Z</time>
      </trkpt>
      <trkpt lat="49.42793" lon="2.94639">
        <ele>47</ele>
        <time>2019-06-23T10:19:37Z</time>
      </trkpt>
      <trkpt lat="49.42835" lon="2.94691">
        <ele>49</ele>
        <time>2019-06-23T10:19:49Z</time>
      </trkpt>
      <trkpt lat="49.42854" lon="2.9472">
        <ele>50</ele>
        <time>2019-06-23T10:19:57Z</time>
      </trkpt>
      <trkpt lat="49.42871" lon="2.94754">
        <ele>50</ele>
        <time>2019-06-23T10:20:06Z</time>
      </trkpt>
      <trkpt lat="49.42893" lon="2.94796">
        <ele>49</ele>
        <time>2019-06-23T10:20:17Z</time>
      </trkpt>
      <trkpt lat="49.42911" lon="2.94821">
        <ele>49</ele>
        <time>2019-06-23T10:20:24Z</time>
      </trkpt>
      <trkpt lat="49.4295" lon="2.94856">
        <ele>51</ele>
        <time>2019-06-23T10:20:34Z</time>
      </trkpt>
      <trkpt lat="49.42977" lon="2.94882">
        <ele>52</ele>
        <time>2019-06-23T10:20:44Z</time>
      </trkpt>
      <trkpt lat="49.43003" lon="2.94895">
        <ele>53</ele>
        <time>2019-06-23T10:20:54Z</time>
      </trkpt>
      <trkpt lat="49.43053" lon="2.94909">
        <ele>53</ele>
        <time>2019-06-23T10:21:04Z</time>
      </trkpt>
      <trkpt lat="49.43085" lon="2.94914">
        <ele>54</ele>
        <time>2019-06-23T10:21:13Z</time>
      </trkpt>
      <trkpt lat="49.43115" lon="2.94919">
        <ele>57</ele>
        <time>2019-06-23T10:21:23Z</time>
      </trkpt>
      <trkpt lat="49.43138" lon="2.9493">
        <ele>58</ele>
        <time>2019-06-23T10:21:31Z</time>
      </trkpt>
      <trkpt lat="49.43162" lon="2.94937">
        <ele>59</ele>
        <time>2019-06-23T10:21:38Z</time>
      </trkpt>
      <trkpt lat="49.43174" lon="2.94939">
        <ele>63</ele>
        <time>2019-06-23T10:21:49Z</time>
      </trkpt>
      <trkpt lat="49.43186" lon="2.94943">
        <ele>64</ele>
        <time>2019-06-23T10:22:03Z</time>
      </trkpt>
      <trkpt lat="49.43191" lon="2.9496">
        <ele>64</ele>
        <time>2019-06-23T10:22:15Z</time>
      </trkpt>
      <trkpt lat="49.43191" lon="2.94963">
        <ele>65</ele>
        <time>2019-06-23T10:22:26Z</time>
      </trkpt>
      <trkpt lat="49.43191" lon="2.94962">
        <ele>65</ele>
        <time>2019-06-23T10:22:53Z</time>
      </trkpt>
      <trkpt lat="49.43194" lon="2.94964">
        <ele>65</ele>
        <time>2019-06-23T10:23:28Z</time>
      </trkpt>
      <trkpt lat="49.43193" lon="2.94965">
        <ele>65</ele>
        <time>2019-06-23T10:24:00Z</time>
      </trkpt>
      <trkpt lat="49.43193" lon="2.94964">
        <ele>65</ele>
        <time>2019-06-23T10:24:32Z</time>
      </trkpt>
      <trkpt lat="49.43193" lon="2.94966">
        <ele>65</ele>
        <time>2019-06-23T10:25:04Z</time>
      </trkpt>
      <trkpt lat="49.43193" lon="2.94965">
        <ele>65</ele>
        <time>2019-06-23T10:25:34Z</time>
      </trkpt>
      <trkpt lat="49.43192" lon="2.94965">
        <ele>65</ele>
        <time>2019-06-23T10:26:02Z</time>
      </trkpt>
      <trkpt lat="49.43191" lon="2.94964">
        <ele>64</ele>
        <time>2019-06-23T10:26:29Z</time>
      </trkpt>
      <trkpt lat="49.43191" lon="2.94968">
        <ele>64</ele>
        <time>2019-06-23T10:26:57Z</time>
      </trkpt>
      <trkpt lat="49.43191" lon="2.94969">
        <ele>64</ele>
        <time>2019-06-23T10:27:29Z</time>
      </trkpt>
      <trkpt lat="49.4319" lon="2.94969">
        <ele>64</ele>
        <time>2019-06-23T10:28:02Z</time>
      </trkpt>
      <trkpt lat="49.4319" lon="2.94969">
        <ele>64</ele>
        <time>2019-06-23T10:28:32Z</time>
      </trkpt>
      <trkpt lat="49.43187" lon="2.94965">
        <ele>64</ele>
        <time>2019-06-23T10:28:48Z</time>
      </trkpt>
      <trkpt lat="49.43186" lon="2.94967">
        <ele>64</ele>
        <time>2019-06-23T10:29:00Z</time>
      </trkpt>
      <trkpt lat="49.43184" lon="2.9497">
        <ele>64</ele>
        <time>2019-06-23T10:29:11Z</time>
      </trkpt>
      <trkpt lat="49.43182" lon="2.95001">
        <ele>64</ele>
        <time>2019-06-23T10:29:23Z</time>
      </trkpt>
      <trkpt lat="49.43178" lon="2.95021">
        <ele>66</ele>
        <time>2019-06-23T10:29:29Z</time>
      </trkpt>
      <trkpt lat="49.43164" lon="2.95063">
        <ele>63</ele>
        <time>2019-06-23T10:29:41Z</time>
      </trkpt>
      <trkpt lat="49.43142" lon="2.95114">
        <ele>65</ele>
        <time>2019-06-23T10:29:54Z</time>
      </trkpt>
      <trkpt lat="49.43136" lon="2.95128">
        <ele>65</ele>
        <time>2019-06-23T10:29:58Z</time>
      </trkpt>
      <trkpt lat="49.43125" lon="2.95195">
        <ele>69</ele>
        <time>2019-06-23T10:30:10Z</time>
      </trkpt>
      <trkpt lat="49.43129" lon="2.95259">
        <ele>73</ele>
        <time>2019-06-23T10:30:21Z</time>
      </trkpt>
      <trkpt lat="49.43136" lon="2.95315">
        <ele>74</ele>
        <time>2019-06-23T10:30:32Z</time>
      </trkpt>
      <trkpt lat="49.43145" lon="2.95399">
        <ele>75</ele>
        <time>2019-06-23T10:30:48Z</time>
      </trkpt>
      <trkpt lat="49.43151" lon="2.95469">
        <ele>77</ele>
        <time>2019-06-23T10:31:02Z</time>
      </trkpt>
      <trkpt lat="49.43136" lon="2.95543">
        <ele>77</ele>
        <time>2019-06-23T10:31:17Z</time>
      </trkpt>
      <trkpt lat="49.43109" lon="2.95624">
        <ele>76</ele>
        <time>2019-06-23T10:31:32Z</time>
      </trkpt>
      <trkpt lat="49.43104" lon="2.95666">
        <ele>75</ele>
        <time>2019-06-23T10:31:39Z</time>
      </trkpt>
      <trkpt lat="49.4311" lon="2.95697">
        <ele>78</ele>
        <time>2019-06-23T10:31:44Z</time>
      </trkpt>
      <trkpt lat="49.43127" lon="2.95785">
        <ele>81</ele>
        <time>2019-06-23T10:31:58Z</time>
      </trkpt>
      <trkpt lat="49.43128" lon="2.958">
        <ele>81</ele>
        <time>2019-06-23T10:32:00Z</time>
      </trkpt>
      <trkpt lat="49.43117" lon="2.95925">
        <ele>77</ele>
        <time>2019-06-23T10:32:14Z</time>
      </trkpt>
      <trkpt lat="49.43116" lon="2.95958">
        <ele>77</ele>
        <time>2019-06-23T10:32:18Z</time>
      </trkpt>
      <trkpt lat="49.43124" lon="2.96077">
        <ele>80</ele>
        <time>2019-06-23T10:32:34Z</time>
      </trkpt>
      <trkpt lat="49.43123" lon="2.9609">
        <ele>80</ele>
        <time>2019-06-23T10:32:36Z</time>
      </trkpt>
      <trkpt lat="49.43098" lon="2.96209">
        <ele>77</ele>
        <time>2019-06-23T10:32:51Z</time>
      </trkpt>
      <trkpt lat="49.4309" lon="2.96285">
        <ele>76</ele>
        <time>2019-06-23T10:33:02Z</time>
      </trkpt>
      <trkpt lat="49.43102" lon="2.9631">
        <ele>76</ele>
        <time>2019-06-23T10:33:10Z</time>
      </trkpt>
      <trkpt lat="49.43106" lon="2.96303">
        <ele>76</ele>
        <time>2019-06-23T10:33:15Z</time>
      </trkpt>
      <trkpt lat="49.43117" lon="2.96285">
        <ele>77</ele>
        <time>2019-06-23T10:33:25Z</time>
      </trkpt>
      <trkpt lat="49.4312" lon="2.96275">
        <ele>78</ele>
        <time>2019-06-23T10:33:29Z</time>
      </trkpt>
      <trkpt lat="49.43137" lon="2.96268">
        <ele>79</ele>
        <time>2019-06-23T10:33:44Z</time>
      </trkpt>
      <trkpt lat="49.43148" lon="2.96273">
        <ele>80</ele>
        <time>2019-06-23T10:33:58Z</time>
      </trkpt>
      <trkpt lat="49.43155" lon="2.96277">
        <ele>80</ele>
        <time>2019-06-23T10:34:12Z</time>
      </trkpt>
      <trkpt lat="49.43161" lon="2.96287">
        <ele>80</ele>
        <time>2019-06-23T10:34:27Z</time>
      </trkpt>
      <trkpt lat="49.43163" lon="2.9629">
        <ele>80</ele>
        <time>2019-06-23T10:34:32Z</time>
      </trkpt>
      <trkpt lat="49.43167" lon="2.96296">
        <ele>90</ele>
        <time>2019-06-23T10:34:47Z</time>
      </trkpt>
      <trkpt lat="49.43175" lon="2.96309">
        <ele>89</ele>
        <time>2019-06-23T10:35:00Z</time>
      </trkpt>
      <trkpt lat="49.43179" lon="2.96313">
        <ele>89</ele>
        <time>2019-06-23T10:35:10Z</time>
      </trkpt>
      <trkpt lat="49.43183" lon="2.96321">
        <ele>89</ele>
        <time>2019-06-23T10:35:28Z</time>
      </trkpt>
      <trkpt lat="49.43188" lon="2.96332">
        <ele>89</ele>
        <time>2019-06-23T10:35:39Z</time>
      </trkpt>
      <trkpt lat="49.43192" lon="2.96339">
        <ele>90</ele>
        <time>2019-06-23T10:35:52Z</time>
      </trkpt>
      <trkpt lat="49.43199" lon="2.96348">
        <ele>91</ele>
        <time>2019-06-23T10:36:06Z</time>
      </trkpt>
      <trkpt lat="49.43206" lon="2.96355">
        <ele>93</ele>
        <time>2019-06-23T10:36:19Z</time>
      </trkpt>
      <trkpt lat="49.43206" lon="2.96355">
        <ele>93</ele>
        <time>2019-06-23T10:36:20Z</time>
      </trkpt>
      <trkpt lat="49.43212" lon="2.96365">
        <ele>93</ele>
        <time>2019-06-23T10:36:32Z</time>
      </trkpt>
      <trkpt lat="49.43215" lon="2.96371">
        <ele>94</ele>
        <time>2019-06-23T10:36:42Z</time>
      </trkpt>
      <trkpt lat="49.4322" lon="2.96378">
        <ele>94</ele>
        <time>2019-06-23T10:37:02Z</time>
      </trkpt>
      <trkpt lat="49.43227" lon="2.96386">
        <ele>95</ele>
        <time>2019-06-23T10:37:14Z</time>
      </trkpt>
      <trkpt lat="49.43234" lon="2.96397">
        <ele>96</ele>
        <time>2019-06-23T10:37:27Z</time>
      </trkpt>
      <trkpt lat="49.43242" lon="2.96405">
        <ele>98</ele>
        <time>2019-06-23T10:37:45Z</time>
      </trkpt>
      <trkpt lat="49.43244" lon="2.96406">
        <ele>98</ele>
        <time>2019-06-23T10:37:47Z</time>
      </trkpt>
      <trkpt lat="49.4325" lon="2.96408">
        <ele>99</ele>
        <time>2019-06-23T10:38:02Z</time>
      </trkpt>
      <trkpt lat="49.43257" lon="2.96411">
        <ele>103</ele>
        <time>2019-06-23T10:38:12Z</time>
      </trkpt>
      <trkpt lat="49.43265" lon="2.9641">
        <ele>104</ele>
        <time>2019-06-23T10:38:27Z</time>
      </trkpt>
      <trkpt lat="49.43282" lon="2.96408">
        <ele>106</ele>
        <time>2019-06-23T10:38:41Z</time>
      </trkpt>
      <trkpt lat="49.43292" lon="2.96397">
        <ele>107</ele>
        <time>2019-06-23T10:38:54Z</time>
      </trkpt>
      <trkpt lat="49.43295" lon="2.96398">
        <ele>107</ele>
        <time>2019-06-23T10:38:56Z</time>
      </trkpt>
      <trkpt lat="49.43306" lon="2.96396">
        <ele>108</ele>
        <time>2019-06-23T10:39:03Z</time>
      </trkpt>
      <trkpt lat="49.43313" lon="2.96396">
        <ele>108</ele>
        <time>2019-06-23T10:39:18Z</time>
      </trkpt>
      <trkpt lat="49.43318" lon="2.96396">
        <ele>108</ele>
        <time>2019-06-23T10:39:31Z</time>
      </trkpt>
      <trkpt lat="49.4333" lon="2.96393">
        <ele>109</ele>
        <time>2019-06-23T10:39:37Z</time>
      </trkpt>
      <trkpt lat="49.43342" lon="2.96392">
        <ele>112</ele>
        <time>2019-06-23T10:39:41Z</time>
      </trkpt>
      <trkpt lat="49.4337" lon="2.96383">
        <ele>113</ele>
        <time>2019-06-23T10:39:51Z</time>
      </trkpt>
      <trkpt lat="49.43407" lon="2.96368">
        <ele>114</ele>
        <time>2019-06-23T10:40:03Z</time>
      </trkpt>
      <trkpt lat="49.43431" lon="2.96359">
        <ele>113</ele>
        <time>2019-06-23T10:40:12Z</time>
      </trkpt>
      <trkpt lat="49.43455" lon="2.96346">
        <ele>112</ele>
        <time>2019-06-23T10:40:23Z</time>
      </trkpt>
      <trkpt lat="49.43476" lon="2.96317">
        <ele>115</ele>
        <time>2019-06-23T10:40:33Z</time>
      </trkpt>
      <trkpt lat="49.43483" lon="2.96268">
        <ele>116</ele>
        <time>2019-06-23T10:40:42Z</time>
      </trkpt>
      <trkpt lat="49.43502" lon="2.96232">
        <ele>115</ele>
        <time>2019-06-23T10:40:51Z</time>
      </trkpt>
      <trkpt lat="49.43511" lon="2.96216">
        <ele>115</ele>
        <time>2019-06-23T10:40:54Z</time>
      </trkpt>
      <trkpt lat="49.4354" lon="2.9618">
        <ele>115</ele>
        <time>2019-06-23T10:41:03Z</time>
      </trkpt>
      <trkpt lat="49.43549" lon="2.96172">
        <ele>115</ele>
        <time>2019-06-23T10:41:05Z</time>
      </trkpt>
      <trkpt lat="49.43607" lon="2.96122">
        <ele>116</ele>
        <time>2019-06-23T10:41:18Z</time>
      </trkpt>
      <trkpt lat="49.43636" lon="2.96088">
        <ele>117</ele>
        <time>2019-06-23T10:41:27Z</time>
      </trkpt>
      <trkpt lat="49.43643" lon="2.96083">
        <ele>117</ele>
        <time>2019-06-23T10:41:29Z</time>
      </trkpt>
      <trkpt lat="49.4365" lon="2.96113">
        <ele>117</ele>
        <time>2019-06-23T10:41:36Z</time>
      </trkpt>
      <trkpt lat="49.43652" lon="2.96133">
        <ele>117</ele>
        <time>2019-06-23T10:41:39Z</time>
      </trkpt>
      <trkpt lat="49.43654" lon="2.96161">
        <ele>117</ele>
        <time>2019-06-23T10:41:43Z</time>
      </trkpt>
      <trkpt lat="49.43656" lon="2.96185">
        <ele>116</ele>
        <time>2019-06-23T10:41:47Z</time>
      </trkpt>
      <trkpt lat="49.43656" lon="2.96205">
        <ele>116</ele>
        <time>2019-06-23T10:41:50Z</time>
      </trkpt>
      <trkpt lat="49.43657" lon="2.96262">
        <ele>115</ele>
        <time>2019-06-23T10:42:00Z</time>
      </trkpt>
      <trkpt lat="49.4366" lon="2.96299">
        <ele>113</ele>
        <time>2019-06-23T10:42:05Z</time>
      </trkpt>
      <trkpt lat="49.43663" lon="2.9641">
        <ele>111</ele>
        <time>2019-06-23T10:42:18Z</time>
      </trkpt>
      <trkpt lat="49.43668" lon="2.96536">
        <ele>106</ele>
        <time>2019-06-23T10:42:32Z</time>
      </trkpt>
      <trkpt lat="49.43669" lon="2.96554">
        <ele>104</ele>
        <time>2019-06-23T10:42:35Z</time>
      </trkpt>
      <trkpt lat="49.43671" lon="2.96584">
        <ele>98</ele>
        <time>2019-06-23T10:42:39Z</time>
      </trkpt>
      <trkpt lat="49.43669" lon="2.96604">
        <ele>95</ele>
        <time>2019-06-23T10:42:42Z</time>
      </trkpt>
      <trkpt lat="49.43667" lon="2.96621">
        <ele>92</ele>
        <time>2019-06-23T10:42:44Z</time>
      </trkpt>
      <trkpt lat="49.43667" lon="2.96641">
        <ele>84</ele>
        <time>2019-06-23T10:42:46Z</time>
      </trkpt>
      <trkpt lat="49.43669" lon="2.96685">
        <ele>81</ele>
        <time>2019-06-23T10:42:50Z</time>
      </trkpt>
      <trkpt lat="49.4367" lon="2.96718">
        <ele>78</ele>
        <time>2019-06-23T10:42:53Z</time>
      </trkpt>
      <trkpt lat="49.43677" lon="2.96851">
        <ele>71</ele>
        <time>2019-06-23T10:43:03Z</time>
      </trkpt>
      <trkpt lat="49.43677" lon="2.96902">
        <ele>69</ele>
        <time>2019-06-23T10:43:07Z</time>
      </trkpt>
      <trkpt lat="49.43679" lon="2.96947">
        <ele>68</ele>
        <time>2019-06-23T10:43:11Z</time>
      </trkpt>
      <trkpt lat="49.43691" lon="2.96964">
        <ele>68</ele>
        <time>2019-06-23T10:43:17Z</time>
      </trkpt>
      <trkpt lat="49.43724" lon="2.96967">
        <ele>69</ele>
        <time>2019-06-23T10:43:28Z</time>
      </trkpt>
      <trkpt lat="49.43736" lon="2.96971">
        <ele>70</ele>
        <time>2019-06-23T10:43:32Z</time>
      </trkpt>
      <trkpt lat="49.43763" lon="2.96964">
        <ele>75</ele>
        <time>2019-06-23T10:43:39Z</time>
      </trkpt>
      <trkpt lat="49.43797" lon="2.96967">
        <ele>77</ele>
        <time>2019-06-23T10:43:51Z</time>
      </trkpt>
      <trkpt lat="49.43805" lon="2.9697">
        <ele>77</ele>
        <time>2019-06-23T10:43:54Z</time>
      </trkpt>
      <trkpt lat="49.43823" lon="2.96967">
        <ele>77</ele>
        <time>2019-06-23T10:44:03Z</time>
      </trkpt>
      <trkpt lat="49.43846" lon="2.96969">
        <ele>83</ele>
        <time>2019-06-23T10:44:14Z</time>
      </trkpt>
      <trkpt lat="49.43849" lon="2.96968">
        <ele>83</ele>
        <time>2019-06-23T10:44:16Z</time>
      </trkpt>
      <trkpt lat="49.43852" lon="2.96968">
        <ele>83</ele>
        <time>2019-06-23T10:44:18Z</time>
      </trkpt>
      <trkpt lat="49.43868" lon="2.96962">
        <ele>85</ele>
        <time>2019-06-23T10:44:28Z</time>
      </trkpt>
      <trkpt lat="49.4389" lon="2.96961">
        <ele>86</ele>
        <time>2019-06-23T10:44:41Z</time>
      </trkpt>
      <trkpt lat="49.43904" lon="2.96961">
        <ele>86</ele>
        <time>2019-06-23T10:44:49Z</time>
      </trkpt>
      <trkpt lat="49.43913" lon="2.96963">
        <ele>86</ele>
        <time>2019-06-23T10:44:56Z</time>
      </trkpt>
      <trkpt lat="49.43926" lon="2.96961">
        <ele>92</ele>
        <time>2019-06-23T10:45:09Z</time>
      </trkpt>
      <trkpt lat="49.43931" lon="2.96963">
        <ele>92</ele>
        <time>2019-06-23T10:45:15Z</time>
      </trkpt>
      <trkpt lat="49.43945" lon="2.96966">
        <ele>93</ele>
        <time>2019-06-23T10:45:27Z</time>
      </trkpt>
      <trkpt lat="49.43953" lon="2.96963">
        <ele>94</ele>
        <time>2019-06-23T10:45:33Z</time>
      </trkpt>
      <trkpt lat="49.43967" lon="2.96955">
        <ele>95</ele>
        <time>2019-06-23T10:45:45Z</time>
      </trkpt>
      <trkpt lat="49.43972" lon="2.96959">
        <ele>95</ele>
        <time>2019-06-23T10:45:56Z</time>
      </trkpt>
      <trkpt lat="49.43976" lon="2.96959">
        <ele>95</ele>
        <time>2019-06-23T10:45:59Z</time>
      </trkpt>
      <trkpt lat="49.43978" lon="2.96962">
        <ele>95</ele>
        <time>2019-06-23T10:46:14Z</time>
      </trkpt>
      <trkpt lat="49.43978" lon="2.96962">
        <ele>95</ele>
        <time>2019-06-23T10:46:42Z</time>
      </trkpt>
      <trkpt lat="49.43978" lon="2.96966">
        <ele>95</ele>
        <time>2019-06-23T10:47:12Z</time>
      </trkpt>
      <trkpt lat="49.43979" lon="2.96968">
        <ele>95</ele>
        <time>2019-06-23T10:47:39Z</time>
      </trkpt>
      <trkpt lat="49.43979" lon="2.96968">
        <ele>95</ele>
        <time>2019-06-23T10:48:06Z</time>
      </trkpt>
      <trkpt lat="49.43977" lon="2.96971">
        <ele>95</ele>
        <time>2019-06-23T10:48:35Z</time>
      </trkpt>
      <trkpt lat="49.43977" lon="2.96971">
        <ele>95</ele>
        <time>2019-06-23T10:48:43Z</time>
      </trkpt>
      <trkpt lat="49.43968" lon="2.97007">
        <ele>92</ele>
        <time>2019-06-23T10:48:52Z</time>
      </trkpt>
      <trkpt lat="49.43947" lon="2.97066">
        <ele>89</ele>
        <time>2019-06-23T10:49:02Z</time>
      </trkpt>
      <trkpt lat="49.43921" lon="2.97119">
        <ele>89</ele>
        <time>2019-06-23T10:49:12Z</time>
      </trkpt>
      <trkpt lat="49.43882" lon="2.97168">
        <ele>85</ele>
        <time>2019-06-23T10:49:24Z</time>
      </trkpt>
      <trkpt lat="49.4386" lon="2.97198">
        <ele>84</ele>
        <time>2019-06-23T10:49:33Z</time>
      </trkpt>
      <trkpt lat="49.4382" lon="2.97244">
        <ele>81</ele>
        <time>2019-06-23T10:49:44Z</time>
      </trkpt>
      <trkpt lat="49.43802" lon="2.97282">
        <ele>84</ele>
        <time>2019-06-23T10:49:52Z</time>
      </trkpt>
      <trkpt lat="49.43804" lon="2.97298">
        <ele>85</ele>
        <time>2019-06-23T10:49:59Z</time>
      </trkpt>
      <trkpt lat="49.43809" lon="2.97298">
        <ele>86</ele>
        <time>2019-06-23T10:50:03Z</time>
      </trkpt>
      <trkpt lat="49.43822" lon="2.97302">
        <ele>87</ele>
        <time>2019-06-23T10:50:16Z</time>
      </trkpt>
      <trkpt lat="49.43823" lon="2.97303">
        <ele>87</ele>
        <time>2019-06-23T10:50:17Z</time>
      </trkpt>
      <trkpt lat="49.43832" lon="2.97308">
        <ele>88</ele>
        <time>2019-06-23T10:50:28Z</time>
      </trkpt>
      <trkpt lat="49.43832" lon="2.97309">
        <ele>88</ele>
        <time>2019-06-23T10:50:41Z</time>
      </trkpt>
      <trkpt lat="49.43843" lon="2.9731">
        <ele>94</ele>
        <time>2019-06-23T10:50:52Z</time>
      </trkpt>
      <trkpt lat="49.43855" lon="2.97315">
        <ele>95</ele>
        <time>2019-06-23T10:51:04Z</time>
      </trkpt>
      <trkpt lat="49.43859" lon="2.97316">
        <ele>95</ele>
        <time>2019-06-23T10:51:18Z</time>
      </trkpt>
      <trkpt lat="49.43865" lon="2.97315">
        <ele>95</ele>
        <time>2019-06-23T10:51:28Z</time>
      </trkpt>
      <trkpt lat="49.43876" lon="2.97321">
        <ele>96</ele>
        <time>2019-06-23T10:51:39Z</time>
      </trkpt>
      <trkpt lat="49.43889" lon="2.97329">
        <ele>98</ele>
        <time>2019-06-23T10:51:53Z</time>
      </trkpt>
      <trkpt lat="49.43903" lon="2.97334">
        <ele>103</ele>
        <time>2019-06-23T10:52:05Z</time>
      </trkpt>
      <trkpt lat="49.43916" lon="2.97339">
        <ele>104</ele>
        <time>2019-06-23T10:52:18Z</time>
      </trkpt>
      <trkpt lat="49.43919" lon="2.9734">
        <ele>105</ele>
        <time>2019-06-23T10:52:35Z</time>
      </trkpt>
      <trkpt lat="49.43922" lon="2.97339">
        <ele>105</ele>
        <time>2019-06-23T10:53:05Z</time>
      </trkpt>
      <trkpt lat="49.43929" lon="2.97341">
        <ele>106</ele>
        <time>2019-06-23T10:53:21Z</time>
      </trkpt>
      <trkpt lat="49.43939" lon="2.97338">
        <ele>107</ele>
        <time>2019-06-23T10:53:31Z</time>
      </trkpt>
      <trkpt lat="49.43949" lon="2.97335">
        <ele>107</ele>
        <time>2019-06-23T10:53:44Z</time>
      </trkpt>
      <trkpt lat="49.43957" lon="2.97333">
        <ele>108</ele>
        <time>2019-06-23T10:53:55Z</time>
      </trkpt>
      <trkpt lat="49.43962" lon="2.97329">
        <ele>107</ele>
        <time>2019-06-23T10:53:59Z</time>
      </trkpt>
      <trkpt lat="49.43978" lon="2.97322">
        <ele>108</ele>
        <time>2019-06-23T10:54:14Z</time>
      </trkpt>
      <trkpt lat="49.43989" lon="2.97321">
        <ele>109</ele>
        <time>2019-06-23T10:54:20Z</time>
      </trkpt>
      <trkpt lat="49.43996" lon="2.97315">
        <ele>109</ele>
        <time>2019-06-23T10:54:25Z</time>
      </trkpt>
      <trkpt lat="49.44019" lon="2.97307">
        <ele>113</ele>
        <time>2019-06-23T10:54:35Z</time>
      </trkpt>
      <trkpt lat="49.44055" lon="2.97303">
        <ele>114</ele>
        <time>2019-06-23T10:54:46Z</time>
      </trkpt>
      <trkpt lat="49.44073" lon="2.97301">
        <ele>114</ele>
        <time>2019-06-23T10:54:56Z</time>
      </trkpt>
      <trkpt lat="49.44106" lon="2.97286">
        <ele>116</ele>
        <time>2019-06-23T10:55:10Z</time>
      </trkpt>
      <trkpt lat="49.44125" lon="2.97277">
        <ele>116</ele>
        <time>2019-06-23T10:55:17Z</time>
      </trkpt>
      <trkpt lat="49.44142" lon="2.9726">
        <ele>116</ele>
        <time>2019-06-23T10:55:26Z</time>
      </trkpt>
      <trkpt lat="49.44196" lon="2.97239">
        <ele>116</ele>
        <time>2019-06-23T10:55:37Z</time>
      </trkpt>
      <trkpt lat="49.44221" lon="2.97223">
        <ele>116</ele>
        <time>2019-06-23T10:55:44Z</time>
      </trkpt>
      <trkpt lat="49.44226" lon="2.9722">
        <ele>116</ele>
        <time>2019-06-23T10:55:46Z</time>
      </trkpt>
      <trkpt lat="49.44266" lon="2.97219">
        <ele>115</ele>
        <time>2019-06-23T10:55:58Z</time>
      </trkpt>
      <trkpt lat="49.44261" lon="2.9725">
        <ele>116</ele>
        <time>2019-06-23T10:56:07Z</time>
      </trkpt>
      <trkpt lat="49.44252" lon="2.97293">
        <ele>116</ele>
        <time>2019-06-23T10:56:15Z</time>
      </trkpt>
      <trkpt lat="49.44245" lon="2.97335">
        <ele>115</ele>
        <time>2019-06-23T10:56:22Z</time>
      </trkpt>
      <trkpt lat="49.44233" lon="2.97385">
        <ele>113</ele>
        <time>2019-06-23T10:56:28Z</time>
      </trkpt>
      <trkpt lat="49.44214" lon="2.97475">
        <ele>108</ele>
        <time>2019-06-23T10:56:36Z</time>
      </trkpt>
      <trkpt lat="49.44201" lon="2.97525">
        <ele>102</ele>
        <time>2019-06-23T10:56:40Z</time>
      </trkpt>
      <trkpt lat="49.4417" lon="2.9765">
        <ele>98</ele>
        <time>2019-06-23T10:56:50Z</time>
      </trkpt>
      <trkpt lat="49.44156" lon="2.97719">
        <ele>101</ele>
        <time>2019-06-23T10:57:00Z</time>
      </trkpt>
      <trkpt lat="49.44152" lon="2.97735">
        <ele>101</ele>
        <time>2019-06-23T10:57:08Z</time>
      </trkpt>
      <trkpt lat="49.44147" lon="2.97751">
        <ele>101</ele>
        <time>2019-06-23T10:57:20Z</time>
      </trkpt>
      <trkpt lat="49.44145" lon="2.97758">
        <ele>101</ele>
        <time>2019-06-23T10:57:23Z</time>
      </trkpt>
      <trkpt lat="49.44144" lon="2.97766">
        <ele>102</ele>
        <time>2019-06-23T10:57:27Z</time>
      </trkpt>
      <trkpt lat="49.44137" lon="2.97792">
        <ele>102</ele>
        <time>2019-06-23T10:57:43Z</time>
      </trkpt>
      <trkpt lat="49.44133" lon="2.97828">
        <ele>102</ele>
        <time>2019-06-23T10:57:53Z</time>
      </trkpt>
      <trkpt lat="49.44116" lon="2.97902">
        <ele>95</ele>
        <time>2019-06-23T10:58:00Z</time>
      </trkpt>
      <trkpt lat="49.44106" lon="2.97959">
        <ele>90</ele>
        <time>2019-06-23T10:58:05Z</time>
      </trkpt>
      <trkpt lat="49.44085" lon="2.98063">
        <ele>83</ele>
        <time>2019-06-23T10:58:13Z</time>
      </trkpt>
      <trkpt lat="49.44064" lon="2.98151">
        <ele>77</ele>
        <time>2019-06-23T10:58:21Z</time>
      </trkpt>
      <trkpt lat="49.44068" lon="2.98164">
        <ele>77</ele>
        <time>2019-06-23T10:58:25Z</time>
      </trkpt>
      <trkpt lat="49.44096" lon="2.98143">
        <ele>78</ele>
        <time>2019-06-23T10:58:36Z</time>
      </trkpt>
      <trkpt lat="49.44125" lon="2.98131">
        <ele>79</ele>
        <time>2019-06-23T10:58:45Z</time>
      </trkpt>
      <trkpt lat="49.44131" lon="2.98129">
        <ele>79</ele>
        <time>2019-06-23T10:58:47Z</time>
      </trkpt>
      <trkpt lat="49.44159" lon="2.9811">
        <ele>81</ele>
        <time>2019-06-23T10:58:56Z</time>
      </trkpt>
      <trkpt lat="49.44164" lon="2.98105">
        <ele>82</ele>
        <time>2019-06-23T10:58:58Z</time>
      </trkpt>
      <trkpt lat="49.44199" lon="2.98098">
        <ele>83</ele>
        <time>2019-06-23T10:59:10Z</time>
      </trkpt>
      <trkpt lat="49.44229" lon="2.98095">
        <ele>84</ele>
        <time>2019-06-23T10:59:17Z</time>
      </trkpt>
      <trkpt lat="49.4427" lon="2.98079">
        <ele>86</ele>
        <time>2019-06-23T10:59:28Z</time>
      </trkpt>
      <trkpt lat="49.44304" lon="2.98055">
        <ele>87</ele>
        <time>2019-06-23T10:59:39Z</time>
      </trkpt>
      <trkpt lat="49.44342" lon="2.9804">
        <ele>87</ele>
        <time>2019-06-23T10:59:51Z</time>
      </trkpt>
      <trkpt lat="49.44374" lon="2.98038">
        <ele>87</ele>
        <time>2019-06-23T11:00:01Z</time>
      </trkpt>
      <trkpt lat="49.44405" lon="2.98023">
        <ele>87</ele>
        <time>2019-06-23T11:00:12Z</time>
      </trkpt>
      <trkpt lat="49.44438" lon="2.98008">
        <ele>87</ele>
        <time>2019-06-23T11:00:24Z</time>
      </trkpt>
      <trkpt lat="49.44469" lon="2.97985">
        <ele>90</ele>
        <time>2019-06-23T11:00:37Z</time>
      </trkpt>
      <trkpt lat="49.44491" lon="2.97972">
        <ele>91</ele>
        <time>2019-06-23T11:00:48Z</time>
      </trkpt>
      <trkpt lat="49.44501" lon="2.97967">
        <ele>93</ele>
        <time>2019-06-23T11:00:54Z</time>
      </trkpt>
      <trkpt lat="49.44515" lon="2.97959">
        <ele>93</ele>
        <time>2019-06-23T11:01:03Z</time>
      </trkpt>
      <trkpt lat="49.44518" lon="2.97951">
        <ele>94</ele>
        <time>2019-06-23T11:01:08Z</time>
      </trkpt>
      <trkpt lat="49.44525" lon="2.97943">
        <ele>94</ele>
        <time>2019-06-23T11:01:14Z</time>
      </trkpt>
      <trkpt lat="49.44535" lon="2.97927">
        <ele>95</ele>
        <time>2019-06-23T11:01:24Z</time>
      </trkpt>
      <trkpt lat="49.44536" lon="2.97926">
        <ele>95</ele>
        <time>2019-06-23T11:01:25Z</time>
      </trkpt>
      <trkpt lat="49.44541" lon="2.97918">
        <ele>95</ele>
        <time>2019-06-23T11:01:32Z</time>
      </trkpt>
      <trkpt lat="49.44544" lon="2.97909">
        <ele>99</ele>
        <time>2019-06-23T11:01:38Z</time>
      </trkpt>
      <trkpt lat="49.44549" lon="2.97892">
        <ele>99</ele>
        <time>2019-06-23T11:01:44Z</time>
      </trkpt>
      <trkpt lat="49.4455" lon="2.97886">
        <ele>99</ele>
        <time>2019-06-23T11:01:47Z</time>
      </trkpt>
      <trkpt lat="49.44555" lon="2.97858">
        <ele>100</ele>
        <time>2019-06-23T11:01:59Z</time>
      </trkpt>
      <trkpt lat="49.44559" lon="2.97837">
        <ele>101</ele>
        <time>2019-06-23T11:02:05Z</time>
      </trkpt>
      <trkpt lat="49.4456" lon="2.97825">
        <ele>104</ele>
        <time>2019-06-23T11:02:09Z</time>
      </trkpt>
      <trkpt lat="49.44562" lon="2.97803">
        <ele>105</ele>
        <time>2019-06-23T11:02:16Z</time>
      </trkpt>
      <trkpt lat="49.44568" lon="2.97778">
        <ele>106</ele>
        <time>2019-06-23T11:02:25Z</time>
      </trkpt>
      <trkpt lat="49.44586" lon="2.97738">
        <ele>108</ele>
        <time>2019-06-23T11:02:38Z</time>
      </trkpt>
      <trkpt lat="49.44588" lon="2.97729">
        <ele>109</ele>
        <time>2019-06-23T11:02:41Z</time>
      </trkpt>
      <trkpt lat="49.44597" lon="2.97711">
        <ele>110</ele>
        <time>2019-06-23T11:02:51Z</time>
      </trkpt>
      <trkpt lat="49.44606" lon="2.97689">
        <ele>111</ele>
        <time>2019-06-23T11:03:04Z</time>
      </trkpt>
      <trkpt lat="49.44618" lon="2.97675">
        <ele>111</ele>
        <time>2019-06-23T11:03:14Z</time>
      </trkpt>
      <trkpt lat="49.44627" lon="2.97668">
        <ele>111</ele>
        <time>2019-06-23T11:03:22Z</time>
      </trkpt>
      <trkpt lat="49.4464" lon="2.97659">
        <ele>113</ele>
        <time>2019-06-23T11:03:33Z</time>
      </trkpt>
      <trkpt lat="49.44643" lon="2.97657">
        <ele>113</ele>
        <time>2019-06-23T11:03:51Z</time>
      </trkpt>
      <trkpt lat="49.44644" lon="2.97657">
        <ele>113</ele>
        <time>2019-06-23T11:04:15Z</time>
      </trkpt>
      <trkpt lat="49.44646" lon="2.97656">
        <ele>113</ele>
        <time>2019-06-23T11:04:45Z</time>
      </trkpt>
      <trkpt lat="49.44648" lon="2.97656">
        <ele>113</ele>
        <time>2019-06-23T11:05:04Z</time>
      </trkpt>
      <trkpt lat="49.44649" lon="2.97655">
        <ele>113</ele>
        <time>2019-06-23T11:05:29Z</time>
      </trkpt>
      <trkpt lat="49.44652" lon="2.97651">
        <ele>113</ele>
        <time>2019-06-23T11:05:39Z</time>
      </trkpt>
      <trkpt lat="49.44655" lon="2.97648">
        <ele>113</ele>
        <time>2019-06-23T11:05:42Z</time>
      </trkpt>
      <trkpt lat="49.44659" lon="2.97644">
        <ele>113</ele>
        <time>2019-06-23T11:05:45Z</time>
      </trkpt>
      <trkpt lat="49.44665" lon="2.97642">
        <ele>113</ele>
        <time>2019-06-23T11:05:50Z</time>
      </trkpt>
      <trkpt lat="49.4468" lon="2.97644">
        <ele>112</ele>
        <time>2019-06-23T11:06:03Z</time>
      </trkpt>
      <trkpt lat="49.44692" lon="2.97653">
        <ele>112</ele>
        <time>2019-06-23T11:06:14Z</time>
      </trkpt>
      <trkpt lat="49.44694" lon="2.97655">
        <ele>113</ele>
        <time>2019-06-23T11:06:17Z</time>
      </trkpt>
      <trkpt lat="49.4471" lon="2.97663">
        <ele>113</ele>
        <time>2019-06-23T11:06:31Z</time>
      </trkpt>
      <trkpt lat="49.44718" lon="2.97669">
        <ele>111</ele>
        <time>2019-06-23T11:06:40Z</time>
      </trkpt>
      <trkpt lat="49.44722" lon="2.9767">
        <ele>111</ele>
        <time>2019-06-23T11:06:42Z</time>
      </trkpt>
      <trkpt lat="49.44735" lon="2.97675">
        <ele>111</ele>
        <time>2019-06-23T11:06:51Z</time>
      </trkpt>
      <trkpt lat="49.44759" lon="2.97687">
        <ele>112</ele>
        <time>2019-06-23T11:06:57Z</time>
      </trkpt>
      <trkpt lat="49.4476" lon="2.97696">
        <ele>112</ele>
        <time>2019-06-23T11:07:01Z</time>
      </trkpt>
      <trkpt lat="49.44757" lon="2.97725">
        <ele>111</ele>
        <time>2019-06-23T11:07:11Z</time>
      </trkpt>
      <trkpt lat="49.44755" lon="2.97755">
        <ele>110</ele>
        <time>2019-06-23T11:07:18Z</time>
      </trkpt>
      <trkpt lat="49.44756" lon="2.97814">
        <ele>110</ele>
        <time>2019-06-23T11:07:30Z</time>
      </trkpt>
      <trkpt lat="49.44759" lon="2.97875">
        <ele>110</ele>
        <time>2019-06-23T11:07:41Z</time>
      </trkpt>
      <trkpt lat="49.44759" lon="2.97901">
        <ele>111</ele>
        <time>2019-06-23T11:07:46Z</time>
      </trkpt>
      <trkpt lat="49.44766" lon="2.97964">
        <ele>111</ele>
        <time>2019-06-23T11:07:58Z</time>
      </trkpt>
      <trkpt lat="49.44766" lon="2.9803">
        <ele>111</ele>
        <time>2019-06-23T11:08:10Z</time>
      </trkpt>
      <trkpt lat="49.44762" lon="2.98053">
        <ele>111</ele>
        <time>2019-06-23T11:08:14Z</time>
      </trkpt>
      <trkpt lat="49.44751" lon="2.98116">
        <ele>112</ele>
        <time>2019-06-23T11:08:25Z</time>
      </trkpt>
      <trkpt lat="49.44733" lon="2.98169">
        <ele>112</ele>
        <time>2019-06-23T11:08:35Z</time>
      </trkpt>
      <trkpt lat="49.44723" lon="2.98194">
        <ele>112</ele>
        <time>2019-06-23T11:08:40Z</time>
      </trkpt>
      <trkpt lat="49.44712" lon="2.98227">
        <ele>112</ele>
        <time>2019-06-23T11:08:45Z</time>
      </trkpt>
      <trkpt lat="49.44706" lon="2.98246">
        <ele>112</ele>
        <time>2019-06-23T11:08:47Z</time>
      </trkpt>
      <trkpt lat="49.44687" lon="2.98288">
        <ele>113</ele>
        <time>2019-06-23T11:08:52Z</time>
      </trkpt>
      <trkpt lat="49.44669" lon="2.98336">
        <ele>113</ele>
        <time>2019-06-23T11:08:59Z</time>
      </trkpt>
      <trkpt lat="49.44652" lon="2.98381">
        <ele>112</ele>
        <time>2019-06-23T11:09:05Z</time>
      </trkpt>
      <trkpt lat="49.44638" lon="2.98419">
        <ele>112</ele>
        <time>2019-06-23T11:09:11Z</time>
      </trkpt>
      <trkpt lat="49.44628" lon="2.98463">
        <ele>112</ele>
        <time>2019-06-23T11:09:17Z</time>
      </trkpt>
      <trkpt lat="49.44623" lon="2.98529">
        <ele>111</ele>
        <time>2019-06-23T11:09:26Z</time>
      </trkpt>
      <trkpt lat="49.44623" lon="2.98584">
        <ele>110</ele>
        <time>2019-06-23T11:09:33Z</time>
      </trkpt>
      <trkpt lat="49.44626" lon="2.98615">
        <ele>110</ele>
        <time>2019-06-23T11:09:37Z</time>
      </trkpt>
      <trkpt lat="49.44627" lon="2.98632">
        <ele>109</ele>
        <time>2019-06-23T11:09:39Z</time>
      </trkpt>
      <trkpt lat="49.44631" lon="2.98675">
        <ele>107</ele>
        <time>2019-06-23T11:09:45Z</time>
      </trkpt>
      <trkpt lat="49.44632" lon="2.98698">
        <ele>106</ele>
        <time>2019-06-23T11:09:48Z</time>
      </trkpt>
      <trkpt lat="49.44635" lon="2.9872">
        <ele>106</ele>
        <time>2019-06-23T11:09:51Z</time>
      </trkpt>
      <trkpt lat="49.44644" lon="2.98762">
        <ele>103</ele>
        <time>2019-06-23T11:09:58Z</time>
      </trkpt>
      <trkpt lat="49.44647" lon="2.98775">
        <ele>103</ele>
        <time>2019-06-23T11:10:00Z</time>
      </trkpt>
      <trkpt lat="49.44655" lon="2.98797">
        <ele>103</ele>
        <time>2019-06-23T11:10:04Z</time>
      </trkpt>
      <trkpt lat="49.44657" lon="2.98841">
        <ele>103</ele>
        <time>2019-06-23T11:10:11Z</time>
      </trkpt>
      <trkpt lat="49.44663" lon="2.98891">
        <ele>99</ele>
        <time>2019-06-23T11:10:19Z</time>
      </trkpt>
      <trkpt lat="49.44699" lon="2.98944">
        <ele>104</ele>
        <time>2019-06-23T11:10:32Z</time>
      </trkpt>
      <trkpt lat="49.44702" lon="2.98946">
        <ele>104</ele>
        <time>2019-06-23T11:10:33Z</time>
      </trkpt>
      <trkpt lat="49.44725" lon="2.98982">
        <ele>104</ele>
        <time>2019-06-23T11:10:41Z</time>
      </trkpt>
      <trkpt lat="49.44764" lon="2.9901">
        <ele>107</ele>
        <time>2019-06-23T11:10:51Z</time>
      </trkpt>
      <trkpt lat="49.448" lon="2.99027">
        <ele>107</ele>
        <time>2019-06-23T11:11:00Z</time>
      </trkpt>
      <trkpt lat="49.44843" lon="2.99052">
        <ele>107</ele>
        <time>2019-06-23T11:11:11Z</time>
      </trkpt>
      <trkpt lat="49.44854" lon="2.99055">
        <ele>107</ele>
        <time>2019-06-23T11:11:14Z</time>
      </trkpt>
      <trkpt lat="49.44874" lon="2.99063">
        <ele>106</ele>
        <time>2019-06-23T11:11:18Z</time>
      </trkpt>
      <trkpt lat="49.44902" lon="2.99064">
        <ele>104</ele>
        <time>2019-06-23T11:11:23Z</time>
      </trkpt>
      <trkpt lat="49.44948" lon="2.99085">
        <ele>90</ele>
        <time>2019-06-23T11:11:30Z</time>
      </trkpt>
      <trkpt lat="49.44961" lon="2.99091">
        <ele>89</ele>
        <time>2019-06-23T11:11:32Z</time>
      </trkpt>
      <trkpt lat="49.44997" lon="2.99089">
        <ele>88</ele>
        <time>2019-06-23T11:11:38Z</time>
      </trkpt>
      <trkpt lat="49.45017" lon="2.99071">
        <ele>88</ele>
        <time>2019-06-23T11:11:43Z</time>
      </trkpt>
      <trkpt lat="49.45032" lon="2.99057">
        <ele>87</ele>
        <time>2019-06-23T11:11:56Z</time>
      </trkpt>
      <trkpt lat="49.45037" lon="2.99052">
        <ele>87</ele>
        <time>2019-06-23T11:12:12Z</time>
      </trkpt>
      <trkpt lat="49.45039" lon="2.9905">
        <ele>87</ele>
        <time>2019-06-23T11:12:24Z</time>
      </trkpt>
      <trkpt lat="49.45039" lon="2.99049">
        <ele>87</ele>
        <time>2019-06-23T11:12:28Z</time>
      </trkpt>
      <trkpt lat="49.45038" lon="2.99041">
        <ele>88</ele>
        <time>2019-06-23T11:12:32Z</time>
      </trkpt>
      <trkpt lat="49.45038" lon="2.99036">
        <ele>88</ele>
        <time>2019-06-23T11:12:34Z</time>
      </trkpt>
      <trkpt lat="49.45037" lon="2.9903">
        <ele>88</ele>
        <time>2019-06-23T11:12:36Z</time>
      </trkpt>
      <trkpt lat="49.45037" lon="2.99025">
        <ele>88</ele>
        <time>2019-06-23T11:12:38Z</time>
      </trkpt>
      <trkpt lat="49.4504" lon="2.99007">
        <ele>89</ele>
        <time>2019-06-23T11:12:45Z</time>
      </trkpt>
      <trkpt lat="49.45043" lon="2.98993">
        <ele>92</ele>
        <time>2019-06-23T11:12:48Z</time>
      </trkpt>
      <trkpt lat="49.45042" lon="2.98973">
        <ele>93</ele>
        <time>2019-06-23T11:12:53Z</time>
      </trkpt>
      <trkpt lat="49.4504" lon="2.98908">
        <ele>95</ele>
        <time>2019-06-23T11:13:03Z</time>
      </trkpt>
      <trkpt lat="49.45042" lon="2.98851">
        <ele>95</ele>
        <time>2019-06-23T11:13:13Z</time>
      </trkpt>
      <trkpt lat="49.45046" lon="2.98805">
        <ele>94</ele>
        <time>2019-06-23T11:13:22Z</time>
      </trkpt>
      <trkpt lat="49.45045" lon="2.98786">
        <ele>95</ele>
        <time>2019-06-23T11:13:25Z</time>
      </trkpt>
      <trkpt lat="49.45065" lon="2.98722">
        <ele>97</ele>
        <time>2019-06-23T11:13:37Z</time>
      </trkpt>
      <trkpt lat="49.45069" lon="2.98696">
        <ele>97</ele>
        <time>2019-06-23T11:13:40Z</time>
      </trkpt>
      <trkpt lat="49.4508" lon="2.98663">
        <ele>98</ele>
        <time>2019-06-23T11:13:47Z</time>
      </trkpt>
      <trkpt lat="49.45093" lon="2.98665">
        <ele>100</ele>
        <time>2019-06-23T11:13:51Z</time>
      </trkpt>
      <trkpt lat="49.45112" lon="2.98644">
        <ele>103</ele>
        <time>2019-06-23T11:13:57Z</time>
      </trkpt>
      <trkpt lat="49.45118" lon="2.98623">
        <ele>103</ele>
        <time>2019-06-23T11:14:03Z</time>
      </trkpt>
      <trkpt lat="49.45134" lon="2.98595">
        <ele>105</ele>
        <time>2019-06-23T11:14:18Z</time>
      </trkpt>
      <trkpt lat="49.4514" lon="2.9859">
        <ele>105</ele>
        <time>2019-06-23T11:14:24Z</time>
      </trkpt>
      <trkpt lat="49.45145" lon="2.98583">
        <ele>106</ele>
        <time>2019-06-23T11:14:36Z</time>
      </trkpt>
      <trkpt lat="49.45146" lon="2.98579">
        <ele>106</ele>
        <time>2019-06-23T11:14:53Z</time>
      </trkpt>
      <trkpt lat="49.4515" lon="2.98573">
        <ele>106</ele>
        <time>2019-06-23T11:15:00Z</time>
      </trkpt>
      <trkpt lat="49.45158" lon="2.98562">
        <ele>106</ele>
        <time>2019-06-23T11:15:12Z</time>
      </trkpt>
      <trkpt lat="49.45167" lon="2.98548">
        <ele>110</ele>
        <time>2019-06-23T11:15:24Z</time>
      </trkpt>
      <trkpt lat="49.4517" lon="2.98543">
        <ele>110</ele>
        <time>2019-06-23T11:15:35Z</time>
      </trkpt>
      <trkpt lat="49.45172" lon="2.98542">
        <ele>110</ele>
        <time>2019-06-23T11:16:02Z</time>
      </trkpt>
      <trkpt lat="49.45173" lon="2.98538">
        <ele>110</ele>
        <time>2019-06-23T11:16:21Z</time>
      </trkpt>
      <trkpt lat="49.4518" lon="2.98527">
        <ele>109</ele>
        <time>2019-06-23T11:16:31Z</time>
      </trkpt>
      <trkpt lat="49.45185" lon="2.98523">
        <ele>109</ele>
        <time>2019-06-23T11:16:36Z</time>
      </trkpt>
      <trkpt lat="49.4519" lon="2.98509">
        <ele>109</ele>
        <time>2019-06-23T11:16:45Z</time>
      </trkpt>
      <trkpt lat="49.45197" lon="2.98495">
        <ele>109</ele>
        <time>2019-06-23T11:16:55Z</time>
      </trkpt>
      <trkpt lat="49.45199" lon="2.98491">
        <ele>109</ele>
        <time>2019-06-23T11:16:58Z</time>
      </trkpt>
      <trkpt lat="49.45203" lon="2.98488">
        <ele>109</ele>
        <time>2019-06-23T11:17:02Z</time>
      </trkpt>
      <trkpt lat="49.4521" lon="2.98479">
        <ele>110</ele>
        <time>2019-06-23T11:17:11Z</time>
      </trkpt>
      <trkpt lat="49.45217" lon="2.98471">
        <ele>110</ele>
        <time>2019-06-23T11:17:19Z</time>
      </trkpt>
      <trkpt lat="49.45225" lon="2.98452">
        <ele>110</ele>
        <time>2019-06-23T11:17:34Z</time>
      </trkpt>
      <trkpt lat="49.45227" lon="2.98445">
        <ele>110</ele>
        <time>2019-06-23T11:17:46Z</time>
      </trkpt>
      <trkpt lat="49.45227" lon="2.9844">
        <ele>110</ele>
        <time>2019-06-23T11:17:49Z</time>
      </trkpt>
      <trkpt lat="49.45228" lon="2.98436">
        <ele>110</ele>
        <time>2019-06-23T11:17:51Z</time>
      </trkpt>
      <trkpt lat="49.45234" lon="2.984">
        <ele>110</ele>
        <time>2019-06-23T11:18:01Z</time>
      </trkpt>
      <trkpt lat="49.45238" lon="2.98385">
        <ele>110</ele>
        <time>2019-06-23T11:18:05Z</time>
      </trkpt>
      <trkpt lat="49.45255" lon="2.98345">
        <ele>112</ele>
        <time>2019-06-23T11:18:16Z</time>
      </trkpt>
      <trkpt lat="49.45267" lon="2.98321">
        <ele>113</ele>
        <time>2019-06-23T11:18:21Z</time>
      </trkpt>
      <trkpt lat="49.45275" lon="2.98315">
        <ele>114</ele>
        <time>2019-06-23T11:18:24Z</time>
      </trkpt>
      <trkpt lat="49.45287" lon="2.98286">
        <ele>114</ele>
        <time>2019-06-23T11:18:30Z</time>
      </trkpt>
      <trkpt lat="49.45321" lon="2.98238">
        <ele>116</ele>
        <time>2019-06-23T11:18:42Z</time>
      </trkpt>
      <trkpt lat="49.45347" lon="2.98213">
        <ele>118</ele>
        <time>2019-06-23T11:18:51Z</time>
      </trkpt>
      <trkpt lat="49.45372" lon="2.9819">
        <ele>118</ele>
        <time>2019-06-23T11:19:01Z</time>
      </trkpt>
      <trkpt lat="49.45375" lon="2.98188">
        <ele>118</ele>
        <time>2019-06-23T11:19:02Z</time>
      </trkpt>
      <trkpt lat="49.45405" lon="2.98167">
        <ele>118</ele>
        <time>2019-06-23T11:19:12Z</time>
      </trkpt>
      <trkpt lat="49.45434" lon="2.98144">
        <ele>121</ele>
        <time>2019-06-23T11:19:21Z</time>
      </trkpt>
      <trkpt lat="49.45469" lon="2.98109">
        <ele>124</ele>
        <time>2019-06-23T11:19:32Z</time>
      </trkpt>
      <trkpt lat="49.45496" lon="2.98061">
        <ele>125</ele>
        <time>2019-06-23T11:19:44Z</time>
      </trkpt>
      <trkpt lat="49.45501" lon="2.98051">
        <ele>126</ele>
        <time>2019-06-23T11:19:46Z</time>
      </trkpt>
      <trkpt lat="49.45532" lon="2.98007">
        <ele>125</ele>
        <time>2019-06-23T11:19:57Z</time>
      </trkpt>
      <trkpt lat="49.45534" lon="2.98002">
        <ele>125</ele>
        <time>2019-06-23T11:19:58Z</time>
      </trkpt>
      <trkpt lat="49.45569" lon="2.97951">
        <ele>124</ele>
        <time>2019-06-23T11:20:10Z</time>
      </trkpt>
      <trkpt lat="49.45575" lon="2.97942">
        <ele>124</ele>
        <time>2019-06-23T11:20:12Z</time>
      </trkpt>
      <trkpt lat="49.45587" lon="2.97924">
        <ele>124</ele>
        <time>2019-06-23T11:20:16Z</time>
      </trkpt>
      <trkpt lat="49.45597" lon="2.97909">
        <ele>124</ele>
        <time>2019-06-23T11:20:19Z</time>
      </trkpt>
      <trkpt lat="49.45605" lon="2.9789">
        <ele>125</ele>
        <time>2019-06-23T11:20:22Z</time>
      </trkpt>
      <trkpt lat="49.45621" lon="2.9785">
        <ele>125</ele>
        <time>2019-06-23T11:20:28Z</time>
      </trkpt>
      <trkpt lat="49.45626" lon="2.97831">
        <ele>126</ele>
        <time>2019-06-23T11:20:31Z</time>
      </trkpt>
      <trkpt lat="49.45646" lon="2.97782">
        <ele>127</ele>
        <time>2019-06-23T11:20:40Z</time>
      </trkpt>
      <trkpt lat="49.45682" lon="2.97766">
        <ele>125</ele>
        <time>2019-06-23T11:20:47Z</time>
      </trkpt>
      <trkpt lat="49.45698" lon="2.97743">
        <ele>124</ele>
        <time>2019-06-23T11:20:51Z</time>
      </trkpt>
      <trkpt lat="49.45718" lon="2.97716">
        <ele>123</ele>
        <time>2019-06-23T11:20:56Z</time>
      </trkpt>
      <trkpt lat="49.45753" lon="2.97683">
        <ele>120</ele>
        <time>2019-06-23T11:21:04Z</time>
      </trkpt>
      <trkpt lat="49.45766" lon="2.977">
        <ele>119</ele>
        <time>2019-06-23T11:21:08Z</time>
      </trkpt>
      <trkpt lat="49.45781" lon="2.97745">
        <ele>119</ele>
        <time>2019-06-23T11:21:16Z</time>
      </trkpt>
      <trkpt lat="49.45786" lon="2.97757">
        <ele>120</ele>
        <time>2019-06-23T11:21:18Z</time>
      </trkpt>
      <trkpt lat="49.45808" lon="2.97776">
        <ele>119</ele>
        <time>2019-06-23T11:21:29Z</time>
      </trkpt>
      <trkpt lat="49.45817" lon="2.97784">
        <ele>120</ele>
        <time>2019-06-23T11:21:32Z</time>
      </trkpt>
      <trkpt lat="49.45822" lon="2.97799">
        <ele>120</ele>
        <time>2019-06-23T11:21:37Z</time>
      </trkpt>
      <trkpt lat="49.45824" lon="2.9781">
        <ele>120</ele>
        <time>2019-06-23T11:21:43Z</time>
      </trkpt>
      <trkpt lat="49.45838" lon="2.9782">
        <ele>120</ele>
        <time>2019-06-23T11:21:52Z</time>
      </trkpt>
      <trkpt lat="49.45838" lon="2.97821">
        <ele>120</ele>
        <time>2019-06-23T11:21:53Z</time>
      </trkpt>
      <trkpt lat="49.45842" lon="2.97839">
        <ele>121</ele>
        <time>2019-06-23T11:21:58Z</time>
      </trkpt>
      <trkpt lat="49.45845" lon="2.9785">
        <ele>121</ele>
        <time>2019-06-23T11:22:02Z</time>
      </trkpt>
      <trkpt lat="49.45851" lon="2.97837">
        <ele>121</ele>
        <time>2019-06-23T11:22:09Z</time>
      </trkpt>
      <trkpt lat="49.45855" lon="2.97833">
        <ele>120</ele>
        <time>2019-06-23T11:22:21Z</time>
      </trkpt>
      <trkpt lat="49.45856" lon="2.97832">
        <ele>120</ele>
        <time>2019-06-23T11:22:22Z</time>
      </trkpt>
      <trkpt lat="49.45858" lon="2.97827">
        <ele>119</ele>
        <time>2019-06-23T11:22:26Z</time>
      </trkpt>
      <trkpt lat="49.45866" lon="2.97812">
        <ele>119</ele>
        <time>2019-06-23T11:22:34Z</time>
      </trkpt>
      <trkpt lat="49.45871" lon="2.97799">
        <ele>119</ele>
        <time>2019-06-23T11:22:40Z</time>
      </trkpt>
      <trkpt lat="49.4587" lon="2.97783">
        <ele>118</ele>
        <time>2019-06-23T11:22:48Z</time>
      </trkpt>
      <trkpt lat="49.45874" lon="2.97772">
        <ele>118</ele>
        <time>2019-06-23T11:22:56Z</time>
      </trkpt>
      <trkpt lat="49.45884" lon="2.9776">
        <ele>118</ele>
        <time>2019-06-23T11:23:05Z</time>
      </trkpt>
      <trkpt lat="49.45886" lon="2.9776">
        <ele>118</ele>
        <time>2019-06-23T11:23:07Z</time>
      </trkpt>
      <trkpt lat="49.45888" lon="2.9776">
        <ele>118</ele>
        <time>2019-06-23T11:23:09Z</time>
      </trkpt>
      <trkpt lat="49.45891" lon="2.97757">
        <ele>118</ele>
        <time>2019-06-23T11:23:13Z</time>
      </trkpt>
      <trkpt lat="49.45898" lon="2.97746">
        <ele>115</ele>
        <time>2019-06-23T11:23:19Z</time>
      </trkpt>
      <trkpt lat="49.45904" lon="2.97744">
        <ele>115</ele>
        <time>2019-06-23T11:23:31Z</time>
      </trkpt>
      <trkpt lat="49.45906" lon="2.97742">
        <ele>115</ele>
        <time>2019-06-23T11:23:36Z</time>
      </trkpt>
      <trkpt lat="49.45908" lon="2.9774">
        <ele>115</ele>
        <time>2019-06-23T11:23:38Z</time>
      </trkpt>
      <trkpt lat="49.45913" lon="2.97738">
        <ele>115</ele>
        <time>2019-06-23T11:23:41Z</time>
      </trkpt>
      <trkpt lat="49.45915" lon="2.97734">
        <ele>115</ele>
        <time>2019-06-23T11:23:43Z</time>
      </trkpt>
      <trkpt lat="49.4592" lon="2.97719">
        <ele>115</ele>
        <time>2019-06-23T11:23:49Z</time>
      </trkpt>
      <trkpt lat="49.45929" lon="2.97699">
        <ele>114</ele>
        <time>2019-06-23T11:23:55Z</time>
      </trkpt>
      <trkpt lat="49.45939" lon="2.97678">
        <ele>114</ele>
        <time>2019-06-23T11:24:06Z</time>
      </trkpt>
      <trkpt lat="49.45943" lon="2.97673">
        <ele>114</ele>
        <time>2019-06-23T11:24:17Z</time>
      </trkpt>
      <trkpt lat="49.45945" lon="2.9767">
        <ele>114</ele>
        <time>2019-06-23T11:24:21Z</time>
      </trkpt>
      <trkpt lat="49.45955" lon="2.97657">
        <ele>111</ele>
        <time>2019-06-23T11:24:29Z</time>
      </trkpt>
      <trkpt lat="49.45958" lon="2.97644">
        <ele>111</ele>
        <time>2019-06-23T11:24:35Z</time>
      </trkpt>
      <trkpt lat="49.45964" lon="2.97633">
        <ele>111</ele>
        <time>2019-06-23T11:24:40Z</time>
      </trkpt>
      <trkpt lat="49.45971" lon="2.97615">
        <ele>110</ele>
        <time>2019-06-23T11:24:47Z</time>
      </trkpt>
      <trkpt lat="49.45994" lon="2.97597">
        <ele>110</ele>
        <time>2019-06-23T11:24:58Z</time>
      </trkpt>
      <trkpt lat="49.46005" lon="2.97593">
        <ele>110</ele>
        <time>2019-06-23T11:25:05Z</time>
      </trkpt>
      <trkpt lat="49.45989" lon="2.97575">
        <ele>107</ele>
        <time>2019-06-23T11:25:16Z</time>
      </trkpt>
      <trkpt lat="49.45979" lon="2.97569">
        <ele>105</ele>
        <time>2019-06-23T11:25:23Z</time>
      </trkpt>
      <trkpt lat="49.45976" lon="2.97569">
        <ele>105</ele>
        <time>2019-06-23T11:25:30Z</time>
      </trkpt>
      <trkpt lat="49.45979" lon="2.9756">
        <ele>104</ele>
        <time>2019-06-23T11:25:35Z</time>
      </trkpt>
      <trkpt lat="49.45974" lon="2.97557">
        <ele>104</ele>
        <time>2019-06-23T11:25:43Z</time>
      </trkpt>
      <trkpt lat="49.45972" lon="2.97558">
        <ele>104</ele>
        <time>2019-06-23T11:25:45Z</time>
      </trkpt>
      <trkpt lat="49.45963" lon="2.97565">
        <ele>104</ele>
        <time>2019-06-23T11:25:50Z</time>
      </trkpt>
      <trkpt lat="49.45958" lon="2.97568">
        <ele>103</ele>
        <time>2019-06-23T11:25:53Z</time>
      </trkpt>
      <trkpt lat="49.45953" lon="2.97579">
        <ele>104</ele>
        <time>2019-06-23T11:26:04Z</time>
      </trkpt>
      <trkpt lat="49.45952" lon="2.9758">
        <ele>103</ele>
        <time>2019-06-23T11:26:05Z</time>
      </trkpt>
      <trkpt lat="49.45941" lon="2.97581">
        <ele>103</ele>
        <time>2019-06-23T11:26:10Z</time>
      </trkpt>
      <trkpt lat="49.45922" lon="2.97568">
        <ele>103</ele>
        <time>2019-06-23T11:26:22Z</time>
      </trkpt>
      <trkpt lat="49.45922" lon="2.97567">
        <ele>103</ele>
        <time>2019-06-23T11:26:23Z</time>
      </trkpt>
      <trkpt lat="49.45927" lon="2.97556">
        <ele>102</ele>
        <time>2019-06-23T11:26:28Z</time>
      </trkpt>
      <trkpt lat="49.45939" lon="2.97513">
        <ele>101</ele>
        <time>2019-06-23T11:26:39Z</time>
      </trkpt>
      <trkpt lat="49.45936" lon="2.975">
        <ele>100</ele>
        <time>2019-06-23T11:26:56Z</time>
      </trkpt>
      <trkpt lat="49.45934" lon="2.975">
        <ele>100</ele>
        <time>2019-06-23T11:27:17Z</time>
      </trkpt>
      <trkpt lat="49.45939" lon="2.97504">
        <ele>100</ele>
        <time>2019-06-23T11:27:57Z</time>
      </trkpt>
      <trkpt lat="49.45947" lon="2.97487">
        <ele>96</ele>
        <time>2019-06-23T11:28:04Z</time>
      </trkpt>
      <trkpt lat="49.45977" lon="2.9745">
        <ele>94</ele>
        <time>2019-06-23T11:28:15Z</time>
      </trkpt>
      <trkpt lat="49.45989" lon="2.97436">
        <ele>93</ele>
        <time>2019-06-23T11:28:19Z</time>
      </trkpt>
      <trkpt lat="49.46003" lon="2.97424">
        <ele>91</ele>
        <time>2019-06-23T11:28:23Z</time>
      </trkpt>
      <trkpt lat="49.4603" lon="2.97412">
        <ele>87</ele>
        <time>2019-06-23T11:28:29Z</time>
      </trkpt>
      <trkpt lat="49.46051" lon="2.97413">
        <ele>86</ele>
        <time>2019-06-23T11:28:34Z</time>
      </trkpt>
      <trkpt lat="49.46066" lon="2.97409">
        <ele>86</ele>
        <time>2019-06-23T11:28:37Z</time>
      </trkpt>
      <trkpt lat="49.46112" lon="2.97387">
        <ele>82</ele>
        <time>2019-06-23T11:28:45Z</time>
      </trkpt>
      <trkpt lat="49.46121" lon="2.9738">
        <ele>81</ele>
        <time>2019-06-23T11:28:47Z</time>
      </trkpt>
      <trkpt lat="49.46118" lon="2.97334">
        <ele>81</ele>
        <time>2019-06-23T11:28:55Z</time>
      </trkpt>
      <trkpt lat="49.46113" lon="2.97307">
        <ele>80</ele>
        <time>2019-06-23T11:28:59Z</time>
      </trkpt>
      <trkpt lat="49.46101" lon="2.97255">
        <ele>80</ele>
        <time>2019-06-23T11:29:07Z</time>
      </trkpt>
      <trkpt lat="49.46063" lon="2.9716">
        <ele>80</ele>
        <time>2019-06-23T11:29:22Z</time>
      </trkpt>
      <trkpt lat="49.4606" lon="2.97154">
        <ele>80</ele>
        <time>2019-06-23T11:29:23Z</time>
      </trkpt>
      <trkpt lat="49.46041" lon="2.97106">
        <ele>80</ele>
        <time>2019-06-23T11:29:30Z</time>
      </trkpt>
      <trkpt lat="49.46034" lon="2.97087">
        <ele>80</ele>
        <time>2019-06-23T11:29:33Z</time>
      </trkpt>
      <trkpt lat="49.46" lon="2.97006">
        <ele>84</ele>
        <time>2019-06-23T11:29:47Z</time>
      </trkpt>
      <trkpt lat="49.45979" lon="2.96955">
        <ele>83</ele>
        <time>2019-06-23T11:29:56Z</time>
      </trkpt>
      <trkpt lat="49.45962" lon="2.96914">
        <ele>82</ele>
        <time>2019-06-23T11:30:03Z</time>
      </trkpt>
      <trkpt lat="49.45941" lon="2.96859">
        <ele>82</ele>
        <time>2019-06-23T11:30:12Z</time>
      </trkpt>
      <trkpt lat="49.45924" lon="2.96818">
        <ele>81</ele>
        <time>2019-06-23T11:30:19Z</time>
      </trkpt>
      <trkpt lat="49.45905" lon="2.96765">
        <ele>82</ele>
        <time>2019-06-23T11:30:29Z</time>
      </trkpt>
      <trkpt lat="49.45903" lon="2.9676">
        <ele>82</ele>
        <time>2019-06-23T11:30:30Z</time>
      </trkpt>
      <trkpt lat="49.45871" lon="2.9669">
        <ele>81</ele>
        <time>2019-06-23T11:30:41Z</time>
      </trkpt>
      <trkpt lat="49.45861" lon="2.96656">
        <ele>81</ele>
        <time>2019-06-23T11:30:50Z</time>
      </trkpt>
      <trkpt lat="49.45866" lon="2.96627">
        <ele>81</ele>
        <time>2019-06-23T11:30:59Z</time>
      </trkpt>
      <trkpt lat="49.45861" lon="2.96608">
        <ele>81</ele>
        <time>2019-06-23T11:31:03Z</time>
      </trkpt>
      <trkpt lat="49.45859" lon="2.96577">
        <ele>81</ele>
        <time>2019-06-23T11:31:08Z</time>
      </trkpt>
      <trkpt lat="49.45859" lon="2.96512">
        <ele>80</ele>
        <time>2019-06-23T11:31:18Z</time>
      </trkpt>
      <trkpt lat="49.45851" lon="2.96472">
        <ele>79</ele>
        <time>2019-06-23T11:31:23Z</time>
      </trkpt>
      <trkpt lat="49.45845" lon="2.96447">
        <ele>79</ele>
        <time>2019-06-23T11:31:26Z</time>
      </trkpt>
      <trkpt lat="49.45828" lon="2.96386">
        <ele>80</ele>
        <time>2019-06-23T11:31:33Z</time>
      </trkpt>
      <trkpt lat="49.45819" lon="2.96349">
        <ele>80</ele>
        <time>2019-06-23T11:31:38Z</time>
      </trkpt>
      <trkpt lat="49.45814" lon="2.9633">
        <ele>80</ele>
        <time>2019-06-23T11:31:41Z</time>
      </trkpt>
      <trkpt lat="49.45807" lon="2.96317">
        <ele>80</ele>
        <time>2019-06-23T11:31:44Z</time>
      </trkpt>
      <trkpt lat="49.45792" lon="2.96252">
        <ele>81</ele>
        <time>2019-06-23T11:31:55Z</time>
      </trkpt>
      <trkpt lat="49.4579" lon="2.96241">
        <ele>82</ele>
        <time>2019-06-23T11:31:57Z</time>
      </trkpt>
      <trkpt lat="49.45785" lon="2.96189">
        <ele>83</ele>
        <time>2019-06-23T11:32:07Z</time>
      </trkpt>
      <trkpt lat="49.45782" lon="2.96159">
        <ele>84</ele>
        <time>2019-06-23T11:32:13Z</time>
      </trkpt>
      <trkpt lat="49.45783" lon="2.96142">
        <ele>84</ele>
        <time>2019-06-23T11:32:17Z</time>
      </trkpt>
      <trkpt lat="49.45782" lon="2.96123">
        <ele>84</ele>
        <time>2019-06-23T11:32:21Z</time>
      </trkpt>
      <trkpt lat="49.45781" lon="2.96102">
        <ele>84</ele>
        <time>2019-06-23T11:32:26Z</time>
      </trkpt>
      <trkpt lat="49.45778" lon="2.96082">
        <ele>85</ele>
        <time>2019-06-23T11:32:30Z</time>
      </trkpt>
      <trkpt lat="49.45777" lon="2.96053">
        <ele>85</ele>
        <time>2019-06-23T11:32:35Z</time>
      </trkpt>
      <trkpt lat="49.45786" lon="2.95984">
        <ele>86</ele>
        <time>2019-06-23T11:32:49Z</time>
      </trkpt>
      <trkpt lat="49.45789" lon="2.95939">
        <ele>86</ele>
        <time>2019-06-23T11:32:57Z</time>
      </trkpt>
      <trkpt lat="49.45793" lon="2.95879">
        <ele>86</ele>
        <time>2019-06-23T11:33:06Z</time>
      </trkpt>
      <trkpt lat="49.45794" lon="2.95874">
        <ele>86</ele>
        <time>2019-06-23T11:33:07Z</time>
      </trkpt>
      <trkpt lat="49.45801" lon="2.95849">
        <ele>86</ele>
        <time>2019-06-23T11:33:16Z</time>
      </trkpt>
      <trkpt lat="49.45801" lon="2.95843">
        <ele>86</ele>
        <time>2019-06-23T11:33:18Z</time>
      </trkpt>
      <trkpt lat="49.45799" lon="2.9583">
        <ele>86</ele>
        <time>2019-06-23T11:33:23Z</time>
      </trkpt>
      <trkpt lat="49.45809" lon="2.95822">
        <ele>86</ele>
        <time>2019-06-23T11:33:28Z</time>
      </trkpt>
      <trkpt lat="49.45814" lon="2.95819">
        <ele>86</ele>
        <time>2019-06-23T11:33:30Z</time>
      </trkpt>
      <trkpt lat="49.45842" lon="2.95808">
        <ele>85</ele>
        <time>2019-06-23T11:33:38Z</time>
      </trkpt>
      <trkpt lat="49.45877" lon="2.95806">
        <ele>84</ele>
        <time>2019-06-23T11:33:46Z</time>
      </trkpt>
      <trkpt lat="49.45881" lon="2.95805">
        <ele>84</ele>
        <time>2019-06-23T11:33:47Z</time>
      </trkpt>
      <trkpt lat="49.45929" lon="2.95791">
        <ele>80</ele>
        <time>2019-06-23T11:33:56Z</time>
      </trkpt>
      <trkpt lat="49.45959" lon="2.9579">
        <ele>79</ele>
        <time>2019-06-23T11:34:00Z</time>
      </trkpt>
      <trkpt lat="49.45993" lon="2.95787">
        <ele>78</ele>
        <time>2019-06-23T11:34:04Z</time>
      </trkpt>
      <trkpt lat="49.46028" lon="2.9578">
        <ele>73</ele>
        <time>2019-06-23T11:34:08Z</time>
      </trkpt>
      <trkpt lat="49.46056" lon="2.95741">
        <ele>72</ele>
        <time>2019-06-23T11:34:15Z</time>
      </trkpt>
      <trkpt lat="49.46059" lon="2.95726">
        <ele>72</ele>
        <time>2019-06-23T11:34:17Z</time>
      </trkpt>
      <trkpt lat="49.46065" lon="2.95704">
        <ele>72</ele>
        <time>2019-06-23T11:34:20Z</time>
      </trkpt>
      <trkpt lat="49.46069" lon="2.95679">
        <ele>71</ele>
        <time>2019-06-23T11:34:23Z</time>
      </trkpt>
      <trkpt lat="49.46071" lon="2.95662">
        <ele>71</ele>
        <time>2019-06-23T11:34:25Z</time>
      </trkpt>
      <trkpt lat="49.46074" lon="2.9562">
        <ele>72</ele>
        <time>2019-06-23T11:34:31Z</time>
      </trkpt>
      <trkpt lat="49.46079" lon="2.95584">
        <ele>71</ele>
        <time>2019-06-23T11:34:36Z</time>
      </trkpt>
      <trkpt lat="49.46083" lon="2.95557">
        <ele>72</ele>
        <time>2019-06-23T11:34:40Z</time>
      </trkpt>
      <trkpt lat="49.46084" lon="2.95542">
        <ele>68</ele>
        <time>2019-06-23T11:34:42Z</time>
      </trkpt>
      <trkpt lat="49.46085" lon="2.95507">
        <ele>70</ele>
        <time>2019-06-23T11:34:46Z</time>
      </trkpt>
      <trkpt lat="49.46082" lon="2.95459">
        <ele>73</ele>
        <time>2019-06-23T11:34:53Z</time>
      </trkpt>
      <trkpt lat="49.46076" lon="2.95427">
        <ele>72</ele>
        <time>2019-06-23T11:34:57Z</time>
      </trkpt>
      <trkpt lat="49.46072" lon="2.95405">
        <ele>72</ele>
        <time>2019-06-23T11:35:00Z</time>
      </trkpt>
      <trkpt lat="49.46063" lon="2.9539">
        <ele>73</ele>
        <time>2019-06-23T11:35:04Z</time>
      </trkpt>
      <trkpt lat="49.46051" lon="2.9537">
        <ele>73</ele>
        <time>2019-06-23T11:35:08Z</time>
      </trkpt>
      <trkpt lat="49.46044" lon="2.95279">
        <ele>72</ele>
        <time>2019-06-23T11:35:20Z</time>
      </trkpt>
      <trkpt lat="49.46028" lon="2.9522">
        <ele>70</ele>
        <time>2019-06-23T11:35:29Z</time>
      </trkpt>
      <trkpt lat="49.46021" lon="2.95202">
        <ele>70</ele>
        <time>2019-06-23T11:35:32Z</time>
      </trkpt>
      <trkpt lat="49.46017" lon="2.95187">
        <ele>70</ele>
        <time>2019-06-23T11:35:36Z</time>
      </trkpt>
      <trkpt lat="49.45985" lon="2.95132">
        <ele>72</ele>
        <time>2019-06-23T11:35:48Z</time>
      </trkpt>
      <trkpt lat="49.45955" lon="2.95076">
        <ele>70</ele>
        <time>2019-06-23T11:36:01Z</time>
      </trkpt>
      <trkpt lat="49.45951" lon="2.95066">
        <ele>70</ele>
        <time>2019-06-23T11:36:12Z</time>
      </trkpt>
      <trkpt lat="49.45932" lon="2.95035">
        <ele>69</ele>
        <time>2019-06-23T11:36:22Z</time>
      </trkpt>
      <trkpt lat="49.4591" lon="2.9499">
        <ele>68</ele>
        <time>2019-06-23T11:36:32Z</time>
      </trkpt>
      <trkpt lat="49.45898" lon="2.94968">
        <ele>68</ele>
        <time>2019-06-23T11:36:37Z</time>
      </trkpt>
      <trkpt lat="49.4586" lon="2.94899">
        <ele>66</ele>
        <time>2019-06-23T11:36:50Z</time>
      </trkpt>
      <trkpt lat="49.45854" lon="2.94895">
        <ele>66</ele>
        <time>2019-06-23T11:36:52Z</time>
      </trkpt>
      <trkpt lat="49.45835" lon="2.94887">
        <ele>66</ele>
        <time>2019-06-23T11:36:56Z</time>
      </trkpt>
      <trkpt lat="49.45795" lon="2.94862">
        <ele>66</ele>
        <time>2019-06-23T11:37:07Z</time>
      </trkpt>
      <trkpt lat="49.45763" lon="2.94839">
        <ele>65</ele>
        <time>2019-06-23T11:37:17Z</time>
      </trkpt>
      <trkpt lat="49.4572" lon="2.94826">
        <ele>64</ele>
        <time>2019-06-23T11:37:29Z</time>
      </trkpt>
      <trkpt lat="49.45676" lon="2.94831">
        <ele>67</ele>
        <time>2019-06-23T11:37:40Z</time>
      </trkpt>
      <trkpt lat="49.45644" lon="2.94854">
        <ele>69</ele>
        <time>2019-06-23T11:37:49Z</time>
      </trkpt>
      <trkpt lat="49.4562" lon="2.94896">
        <ele>69</ele>
        <time>2019-06-23T11:38:00Z</time>
      </trkpt>
      <trkpt lat="49.45596" lon="2.94936">
        <ele>71</ele>
        <time>2019-06-23T11:38:11Z</time>
      </trkpt>
      <trkpt lat="49.4556" lon="2.94963">
        <ele>71</ele>
        <time>2019-06-23T11:38:24Z</time>
      </trkpt>
      <trkpt lat="49.45519" lon="2.94964">
        <ele>71</ele>
        <time>2019-06-23T11:38:36Z</time>
      </trkpt>
      <trkpt lat="49.45486" lon="2.94957">
        <ele>72</ele>
        <time>2019-06-23T11:38:45Z</time>
      </trkpt>
      <trkpt lat="49.45447" lon="2.94939">
        <ele>73</ele>
        <time>2019-06-23T11:38:55Z</time>
      </trkpt>
      <trkpt lat="49.45434" lon="2.94933">
        <ele>73</ele>
        <time>2019-06-23T11:38:58Z</time>
      </trkpt>
      <trkpt lat="49.454" lon="2.94932">
        <ele>74</ele>
        <time>2019-06-23T11:39:08Z</time>
      </trkpt>
      <trkpt lat="49.45395" lon="2.94936">
        <ele>74</ele>
        <time>2019-06-23T11:39:10Z</time>
      </trkpt>
      <trkpt lat="49.45352" lon="2.94948">
        <ele>75</ele>
        <time>2019-06-23T11:39:23Z</time>
      </trkpt>
      <trkpt lat="49.4531" lon="2.94975">
        <ele>74</ele>
        <time>2019-06-23T11:39:36Z</time>
      </trkpt>
      <trkpt lat="49.45284" lon="2.95">
        <ele>76</ele>
        <time>2019-06-23T11:39:45Z</time>
      </trkpt>
      <trkpt lat="49.45267" lon="2.95011">
        <ele>75</ele>
        <time>2019-06-23T11:39:49Z</time>
      </trkpt>
      <trkpt lat="49.45225" lon="2.95035">
        <ele>72</ele>
        <time>2019-06-23T11:39:58Z</time>
      </trkpt>
      <trkpt lat="49.45191" lon="2.9506">
        <ele>72</ele>
        <time>2019-06-23T11:40:08Z</time>
      </trkpt>
      <trkpt lat="49.45188" lon="2.95063">
        <ele>72</ele>
        <time>2019-06-23T11:40:09Z</time>
      </trkpt>
      <trkpt lat="49.45174" lon="2.95072">
        <ele>72</ele>
        <time>2019-06-23T11:40:13Z</time>
      </trkpt>
      <trkpt lat="49.45139" lon="2.95098">
        <ele>74</ele>
        <time>2019-06-23T11:40:24Z</time>
      </trkpt>
      <trkpt lat="49.45137" lon="2.951">
        <ele>74</ele>
        <time>2019-06-23T11:40:25Z</time>
      </trkpt>
      <trkpt lat="49.45125" lon="2.95109">
        <ele>75</ele>
        <time>2019-06-23T11:40:36Z</time>
      </trkpt>
      <trkpt lat="49.45098" lon="2.95127">
        <ele>75</ele>
        <time>2019-06-23T11:40:45Z</time>
      </trkpt>
      <trkpt lat="49.45064" lon="2.95151">
        <ele>74</ele>
        <time>2019-06-23T11:40:55Z</time>
      </trkpt>
      <trkpt lat="49.45035" lon="2.95172">
        <ele>76</ele>
        <time>2019-06-23T11:41:04Z</time>
      </trkpt>
      <trkpt lat="49.45002" lon="2.95206">
        <ele>76</ele>
        <time>2019-06-23T11:41:14Z</time>
      </trkpt>
      <trkpt lat="49.44978" lon="2.95236">
        <ele>74</ele>
        <time>2019-06-23T11:41:21Z</time>
      </trkpt>
      <trkpt lat="49.44948" lon="2.95281">
        <ele>75</ele>
        <time>2019-06-23T11:41:31Z</time>
      </trkpt>
      <trkpt lat="49.44923" lon="2.95333">
        <ele>75</ele>
        <time>2019-06-23T11:41:42Z</time>
      </trkpt>
      <trkpt lat="49.44919" lon="2.9534">
        <ele>76</ele>
        <time>2019-06-23T11:41:44Z</time>
      </trkpt>
      <trkpt lat="49.44908" lon="2.9538">
        <ele>75</ele>
        <time>2019-06-23T11:41:54Z</time>
      </trkpt>
      <trkpt lat="49.44902" lon="2.95434">
        <ele>76</ele>
        <time>2019-06-23T11:42:05Z</time>
      </trkpt>
      <trkpt lat="49.449" lon="2.95476">
        <ele>75</ele>
        <time>2019-06-23T11:42:15Z</time>
      </trkpt>
      <trkpt lat="49.44908" lon="2.95522">
        <ele>76</ele>
        <time>2019-06-23T11:42:26Z</time>
      </trkpt>
      <trkpt lat="49.44913" lon="2.95557">
        <ele>76</ele>
        <time>2019-06-23T11:42:31Z</time>
      </trkpt>
      <trkpt lat="49.44905" lon="2.95605">
        <ele>78</ele>
        <time>2019-06-23T11:42:40Z</time>
      </trkpt>
      <trkpt lat="49.44885" lon="2.95633">
        <ele>78</ele>
        <time>2019-06-23T11:42:50Z</time>
      </trkpt>
      <trkpt lat="49.4486" lon="2.95652">
        <ele>78</ele>
        <time>2019-06-23T11:43:00Z</time>
      </trkpt>
      <trkpt lat="49.44856" lon="2.95655">
        <ele>78</ele>
        <time>2019-06-23T11:43:01Z</time>
      </trkpt>
      <trkpt lat="49.44843" lon="2.95665">
        <ele>78</ele>
        <time>2019-06-23T11:43:05Z</time>
      </trkpt>
      <trkpt lat="49.44815" lon="2.95703">
        <ele>78</ele>
        <time>2019-06-23T11:43:17Z</time>
      </trkpt>
      <trkpt lat="49.44801" lon="2.95734">
        <ele>79</ele>
        <time>2019-06-23T11:43:25Z</time>
      </trkpt>
      <trkpt lat="49.44803" lon="2.95751">
        <ele>80</ele>
        <time>2019-06-23T11:43:30Z</time>
      </trkpt>
      <trkpt lat="49.44824" lon="2.95756">
        <ele>81</ele>
        <time>2019-06-23T11:43:37Z</time>
      </trkpt>
      <trkpt lat="49.44832" lon="2.95756">
        <ele>81</ele>
        <time>2019-06-23T11:43:40Z</time>
      </trkpt>
      <trkpt lat="49.44845" lon="2.9575">
        <ele>82</ele>
        <time>2019-06-23T11:43:46Z</time>
      </trkpt>
      <trkpt lat="49.44875" lon="2.95746">
        <ele>81</ele>
        <time>2019-06-23T11:43:56Z</time>
      </trkpt>
      <trkpt lat="49.44927" lon="2.95762">
        <ele>84</ele>
        <time>2019-06-23T11:44:08Z</time>
      </trkpt>
      <trkpt lat="49.44972" lon="2.95777">
        <ele>85</ele>
        <time>2019-06-23T11:44:21Z</time>
      </trkpt>
      <trkpt lat="49.45005" lon="2.9579">
        <ele>87</ele>
        <time>2019-06-23T11:44:32Z</time>
      </trkpt>
      <trkpt lat="49.45051" lon="2.95804">
        <ele>89</ele>
        <time>2019-06-23T11:44:48Z</time>
      </trkpt>
      <trkpt lat="49.45092" lon="2.95803">
        <ele>90</ele>
        <time>2019-06-23T11:45:02Z</time>
      </trkpt>
      <trkpt lat="49.45145" lon="2.95812">
        <ele>90</ele>
        <time>2019-06-23T11:45:18Z</time>
      </trkpt>
      <trkpt lat="49.45189" lon="2.9583">
        <ele>90</ele>
        <time>2019-06-23T11:45:31Z</time>
      </trkpt>
      <trkpt lat="49.45217" lon="2.95844">
        <ele>93</ele>
        <time>2019-06-23T11:45:39Z</time>
      </trkpt>
      <trkpt lat="49.45234" lon="2.95849">
        <ele>93</ele>
        <time>2019-06-23T11:45:43Z</time>
      </trkpt>
      <trkpt lat="49.45306" lon="2.95851">
        <ele>90</ele>
        <time>2019-06-23T11:45:59Z</time>
      </trkpt>
      <trkpt lat="49.4532" lon="2.95851">
        <ele>90</ele>
        <time>2019-06-23T11:46:02Z</time>
      </trkpt>
      <trkpt lat="49.45383" lon="2.95855">
        <ele>87</ele>
        <time>2019-06-23T11:46:16Z</time>
      </trkpt>
      <trkpt lat="49.45396" lon="2.95857">
        <ele>87</ele>
        <time>2019-06-23T11:46:19Z</time>
      </trkpt>
      <trkpt lat="49.4546" lon="2.95862">
        <ele>86</ele>
        <time>2019-06-23T11:46:34Z</time>
      </trkpt>
      <trkpt lat="49.45476" lon="2.95862">
        <ele>87</ele>
        <time>2019-06-23T11:46:38Z</time>
      </trkpt>
      <trkpt lat="49.45513" lon="2.95871">
        <ele>89</ele>
        <time>2019-06-23T11:46:49Z</time>
      </trkpt>
      <trkpt lat="49.45513" lon="2.95869">
        <ele>89</ele>
        <time>2019-06-23T11:47:01Z</time>
      </trkpt>
      <trkpt lat="49.45513" lon="2.95869">
        <ele>89</ele>
        <time>2019-06-23T11:47:03Z</time>
      </trkpt>
      <trkpt lat="49.45512" lon="2.95863">
        <ele>89</ele>
        <time>2019-06-23T11:47:19Z</time>
      </trkpt>
      <trkpt lat="49.4551" lon="2.95862">
        <ele>89</ele>
        <time>2019-06-23T11:47:49Z</time>
      </trkpt>
      <trkpt lat="49.45508" lon="2.9586">
        <ele>89</ele>
        <time>2019-06-23T11:48:19Z</time>
      </trkpt>
      <trkpt lat="49.45508" lon="2.9586">
        <ele>89</ele>
        <time>2019-06-23T11:48:47Z</time>
      </trkpt>
      <trkpt lat="49.4551" lon="2.95861">
        <ele>89</ele>
        <time>2019-06-23T11:49:18Z</time>
      </trkpt>
      <trkpt lat="49.4551" lon="2.95861">
        <ele>89</ele>
        <time>2019-06-23T11:49:48Z</time>
      </trkpt>
      <trkpt lat="49.4551" lon="2.95863">
        <ele>89</ele>
        <time>2019-06-23T11:50:16Z</time>
      </trkpt>
      <trkpt lat="49.4551" lon="2.95862">
        <ele>89</ele>
        <time>2019-06-23T11:50:45Z</time>
      </trkpt>
      <trkpt lat="49.45511" lon="2.95861">
        <ele>89</ele>
        <time>2019-06-23T11:51:13Z</time>
      </trkpt>
      <trkpt lat="49.45512" lon="2.95865">
        <ele>89</ele>
        <time>2019-06-23T11:51:31Z</time>
      </trkpt>
      <trkpt lat="49.45507" lon="2.95876">
        <ele>89</ele>
        <time>2019-06-23T11:51:37Z</time>
      </trkpt>
      <trkpt lat="49.45467" lon="2.95891">
        <ele>86</ele>
        <time>2019-06-23T11:51:49Z</time>
      </trkpt>
      <trkpt lat="49.45427" lon="2.95918">
        <ele>82</ele>
        <time>2019-06-23T11:52:02Z</time>
      </trkpt>
      <trkpt lat="49.45382" lon="2.95943">
        <ele>82</ele>
        <time>2019-06-23T11:52:16Z</time>
      </trkpt>
      <trkpt lat="49.45348" lon="2.95961">
        <ele>83</ele>
        <time>2019-06-23T11:52:30Z</time>
      </trkpt>
      <trkpt lat="49.45328" lon="2.95974">
        <ele>88</ele>
        <time>2019-06-23T11:52:42Z</time>
      </trkpt>
      <trkpt lat="49.45317" lon="2.95981">
        <ele>88</ele>
        <time>2019-06-23T11:52:48Z</time>
      </trkpt>
      <trkpt lat="49.45301" lon="2.95991">
        <ele>90</ele>
        <time>2019-06-23T11:53:00Z</time>
      </trkpt>
      <trkpt lat="49.45296" lon="2.95994">
        <ele>91</ele>
        <time>2019-06-23T11:53:13Z</time>
      </trkpt>
      <trkpt lat="49.45288" lon="2.95998">
        <ele>92</ele>
        <time>2019-06-23T11:53:26Z</time>
      </trkpt>
      <trkpt lat="49.45285" lon="2.95999">
        <ele>92</ele>
        <time>2019-06-23T11:53:34Z</time>
      </trkpt>
      <trkpt lat="49.45277" lon="2.96003">
        <ele>95</ele>
        <time>2019-06-23T11:53:47Z</time>
      </trkpt>
      <trkpt lat="49.45271" lon="2.96005">
        <ele>96</ele>
        <time>2019-06-23T11:53:53Z</time>
      </trkpt>
      <trkpt lat="49.45262" lon="2.96012">
        <ele>97</ele>
        <time>2019-06-23T11:54:08Z</time>
      </trkpt>
      <trkpt lat="49.45249" lon="2.96016">
        <ele>103</ele>
        <time>2019-06-23T11:54:22Z</time>
      </trkpt>
      <trkpt lat="49.45241" lon="2.9602">
        <ele>104</ele>
        <time>2019-06-23T11:54:36Z</time>
      </trkpt>
      <trkpt lat="49.45235" lon="2.96024">
        <ele>104</ele>
        <time>2019-06-23T11:54:49Z</time>
      </trkpt>
      <trkpt lat="49.45231" lon="2.96026">
        <ele>105</ele>
        <time>2019-06-23T11:55:02Z</time>
      </trkpt>
      <trkpt lat="49.45225" lon="2.96031">
        <ele>105</ele>
        <time>2019-06-23T11:55:12Z</time>
      </trkpt>
      <trkpt lat="49.45212" lon="2.96036">
        <ele>106</ele>
        <time>2019-06-23T11:55:27Z</time>
      </trkpt>
      <trkpt lat="49.45208" lon="2.96038">
        <ele>106</ele>
        <time>2019-06-23T11:55:44Z</time>
      </trkpt>
      <trkpt lat="49.45201" lon="2.96039">
        <ele>107</ele>
        <time>2019-06-23T11:56:01Z</time>
      </trkpt>
      <trkpt lat="49.45192" lon="2.96045">
        <ele>107</ele>
        <time>2019-06-23T11:56:12Z</time>
      </trkpt>
      <trkpt lat="49.45186" lon="2.96049">
        <ele>107</ele>
        <time>2019-06-23T11:56:26Z</time>
      </trkpt>
      <trkpt lat="49.45183" lon="2.96051">
        <ele>108</ele>
        <time>2019-06-23T11:56:30Z</time>
      </trkpt>
      <trkpt lat="49.45166" lon="2.96061">
        <ele>111</ele>
        <time>2019-06-23T11:56:46Z</time>
      </trkpt>
      <trkpt lat="49.45164" lon="2.96063">
        <ele>111</ele>
        <time>2019-06-23T11:56:49Z</time>
      </trkpt>
      <trkpt lat="49.45151" lon="2.96074">
        <ele>111</ele>
        <time>2019-06-23T11:56:56Z</time>
      </trkpt>
      <trkpt lat="49.45136" lon="2.9608">
        <ele>111</ele>
        <time>2019-06-23T11:57:01Z</time>
      </trkpt>
      <trkpt lat="49.4513" lon="2.96081">
        <ele>111</ele>
        <time>2019-06-23T11:57:04Z</time>
      </trkpt>
      <trkpt lat="49.45116" lon="2.9609">
        <ele>110</ele>
        <time>2019-06-23T11:57:11Z</time>
      </trkpt>
      <trkpt lat="49.45061" lon="2.96118">
        <ele>110</ele>
        <time>2019-06-23T11:57:27Z</time>
      </trkpt>
      <trkpt lat="49.45025" lon="2.96139">
        <ele>110</ele>
        <time>2019-06-23T11:57:39Z</time>
      </trkpt>
      <trkpt lat="49.44988" lon="2.96159">
        <ele>109</ele>
        <time>2019-06-23T11:57:50Z</time>
      </trkpt>
      <trkpt lat="49.44959" lon="2.96176">
        <ele>106</ele>
        <time>2019-06-23T11:57:59Z</time>
      </trkpt>
      <trkpt lat="49.4492" lon="2.96202">
        <ele>104</ele>
        <time>2019-06-23T11:58:10Z</time>
      </trkpt>
      <trkpt lat="49.44914" lon="2.96209">
        <ele>98</ele>
        <time>2019-06-23T11:58:12Z</time>
      </trkpt>
      <trkpt lat="49.44831" lon="2.96229">
        <ele>89</ele>
        <time>2019-06-23T11:58:20Z</time>
      </trkpt>
      <trkpt lat="49.44772" lon="2.9626">
        <ele>89</ele>
        <time>2019-06-23T11:58:26Z</time>
      </trkpt>
      <trkpt lat="49.4473" lon="2.96286">
        <ele>93</ele>
        <time>2019-06-23T11:58:34Z</time>
      </trkpt>
      <trkpt lat="49.44732" lon="2.96281">
        <ele>93</ele>
        <time>2019-06-23T11:58:44Z</time>
      </trkpt>
      <trkpt lat="49.44729" lon="2.96282">
        <ele>93</ele>
        <time>2019-06-23T11:58:56Z</time>
      </trkpt>
      <trkpt lat="49.44727" lon="2.96287">
        <ele>93</ele>
        <time>2019-06-23T11:59:08Z</time>
      </trkpt>
      <trkpt lat="49.44726" lon="2.96291">
        <ele>93</ele>
        <time>2019-06-23T11:59:20Z</time>
      </trkpt>
      <trkpt lat="49.44721" lon="2.96294">
        <ele>94</ele>
        <time>2019-06-23T11:59:40Z</time>
      </trkpt>
      <trkpt lat="49.44719" lon="2.96297">
        <ele>94</ele>
        <time>2019-06-23T11:59:55Z</time>
      </trkpt>
      <trkpt lat="49.44719" lon="2.963">
        <ele>94</ele>
        <time>2019-06-23T12:00:15Z</time>
      </trkpt>
      <trkpt lat="49.44719" lon="2.963">
        <ele>94</ele>
        <time>2019-06-23T12:00:16Z</time>
      </trkpt>
      <trkpt lat="49.44717" lon="2.96301">
        <ele>94</ele>
        <time>2019-06-23T12:00:28Z</time>
      </trkpt>
      <trkpt lat="49.44712" lon="2.96303">
        <ele>94</ele>
        <time>2019-06-23T12:00:44Z</time>
      </trkpt>
      <trkpt lat="49.44707" lon="2.96303">
        <ele>95</ele>
        <time>2019-06-23T12:00:48Z</time>
      </trkpt>
      <trkpt lat="49.44693" lon="2.96306">
        <ele>96</ele>
        <time>2019-06-23T12:01:02Z</time>
      </trkpt>
      <trkpt lat="49.44681" lon="2.96317">
        <ele>97</ele>
        <time>2019-06-23T12:01:16Z</time>
      </trkpt>
      <trkpt lat="49.44672" lon="2.96325">
        <ele>99</ele>
        <time>2019-06-23T12:01:30Z</time>
      </trkpt>
      <trkpt lat="49.44673" lon="2.96327">
        <ele>99</ele>
        <time>2019-06-23T12:01:52Z</time>
      </trkpt>
      <trkpt lat="49.44672" lon="2.96327">
        <ele>99</ele>
        <time>2019-06-23T12:02:07Z</time>
      </trkpt>
      <trkpt lat="49.44664" lon="2.9633">
        <ele>101</ele>
        <time>2019-06-23T12:02:20Z</time>
      </trkpt>
      <trkpt lat="49.4466" lon="2.96332">
        <ele>101</ele>
        <time>2019-06-23T12:02:23Z</time>
      </trkpt>
      <trkpt lat="49.44635" lon="2.96349">
        <ele>104</ele>
        <time>2019-06-23T12:02:36Z</time>
      </trkpt>
      <trkpt lat="49.44628" lon="2.96354">
        <ele>104</ele>
        <time>2019-06-23T12:02:40Z</time>
      </trkpt>
      <trkpt lat="49.44617" lon="2.96364">
        <ele>105</ele>
        <time>2019-06-23T12:02:51Z</time>
      </trkpt>
      <trkpt lat="49.44611" lon="2.96367">
        <ele>105</ele>
        <time>2019-06-23T12:02:55Z</time>
      </trkpt>
      <trkpt lat="49.44584" lon="2.96377">
        <ele>105</ele>
        <time>2019-06-23T12:03:09Z</time>
      </trkpt>
      <trkpt lat="49.44562" lon="2.96389">
        <ele>107</ele>
        <time>2019-06-23T12:03:22Z</time>
      </trkpt>
      <trkpt lat="49.44529" lon="2.96405">
        <ele>107</ele>
        <time>2019-06-23T12:03:37Z</time>
      </trkpt>
      <trkpt lat="49.44491" lon="2.96426">
        <ele>110</ele>
        <time>2019-06-23T12:03:46Z</time>
      </trkpt>
      <trkpt lat="49.44466" lon="2.96444">
        <ele>112</ele>
        <time>2019-06-23T12:03:54Z</time>
      </trkpt>
      <trkpt lat="49.44463" lon="2.96451">
        <ele>112</ele>
        <time>2019-06-23T12:04:05Z</time>
      </trkpt>
      <trkpt lat="49.44461" lon="2.96455">
        <ele>112</ele>
        <time>2019-06-23T12:04:09Z</time>
      </trkpt>
      <trkpt lat="49.44446" lon="2.96464">
        <ele>112</ele>
        <time>2019-06-23T12:04:21Z</time>
      </trkpt>
      <trkpt lat="49.44443" lon="2.96474">
        <ele>113</ele>
        <time>2019-06-23T12:04:33Z</time>
      </trkpt>
      <trkpt lat="49.44442" lon="2.96474">
        <ele>113</ele>
        <time>2019-06-23T12:05:01Z</time>
      </trkpt>
      <trkpt lat="49.44442" lon="2.96477">
        <ele>113</ele>
        <time>2019-06-23T12:05:35Z</time>
      </trkpt>
      <trkpt lat="49.44443" lon="2.96476">
        <ele>113</ele>
        <time>2019-06-23T12:06:03Z</time>
      </trkpt>
      <trkpt lat="49.44441" lon="2.96475">
        <ele>113</ele>
        <time>2019-06-23T12:06:25Z</time>
      </trkpt>
      <trkpt lat="49.44436" lon="2.96473">
        <ele>113</ele>
        <time>2019-06-23T12:06:28Z</time>
      </trkpt>
      <trkpt lat="49.44426" lon="2.96445">
        <ele>113</ele>
        <time>2019-06-23T12:06:35Z</time>
      </trkpt>
      <trkpt lat="49.44425" lon="2.96445">
        <ele>113</ele>
        <time>2019-06-23T12:06:36Z</time>
      </trkpt>
      <trkpt lat="49.44419" lon="2.96436">
        <ele>113</ele>
        <time>2019-06-23T12:06:42Z</time>
      </trkpt>
      <trkpt lat="49.44414" lon="2.96425">
        <ele>115</ele>
        <time>2019-06-23T12:06:46Z</time>
      </trkpt>
      <trkpt lat="49.44387" lon="2.96386">
        <ele>115</ele>
        <time>2019-06-23T12:06:56Z</time>
      </trkpt>
      <trkpt lat="49.4437" lon="2.96358">
        <ele>115</ele>
        <time>2019-06-23T12:07:10Z</time>
      </trkpt>
      <trkpt lat="49.44346" lon="2.96324">
        <ele>115</ele>
        <time>2019-06-23T12:07:27Z</time>
      </trkpt>
      <trkpt lat="49.44328" lon="2.96295">
        <ele>118</ele>
        <time>2019-06-23T12:07:40Z</time>
      </trkpt>
      <trkpt lat="49.44304" lon="2.96258">
        <ele>119</ele>
        <time>2019-06-23T12:07:55Z</time>
      </trkpt>
      <trkpt lat="49.44273" lon="2.96205">
        <ele>120</ele>
        <time>2019-06-23T12:08:14Z</time>
      </trkpt>
      <trkpt lat="49.44235" lon="2.96149">
        <ele>121</ele>
        <time>2019-06-23T12:08:30Z</time>
      </trkpt>
      <trkpt lat="49.44224" lon="2.96134">
        <ele>121</ele>
        <time>2019-06-23T12:08:34Z</time>
      </trkpt>
      <trkpt lat="49.44214" lon="2.96116">
        <ele>121</ele>
        <time>2019-06-23T12:08:38Z</time>
      </trkpt>
      <trkpt lat="49.44177" lon="2.96059">
        <ele>121</ele>
        <time>2019-06-23T12:08:52Z</time>
      </trkpt>
      <trkpt lat="49.44131" lon="2.95988">
        <ele>119</ele>
        <time>2019-06-23T12:09:08Z</time>
      </trkpt>
      <trkpt lat="49.44085" lon="2.95911">
        <ele>119</ele>
        <time>2019-06-23T12:09:24Z</time>
      </trkpt>
      <trkpt lat="49.44055" lon="2.95867">
        <ele>119</ele>
        <time>2019-06-23T12:09:34Z</time>
      </trkpt>
      <trkpt lat="49.44028" lon="2.95817">
        <ele>120</ele>
        <time>2019-06-23T12:09:45Z</time>
      </trkpt>
      <trkpt lat="49.4402" lon="2.958">
        <ele>120</ele>
        <time>2019-06-23T12:09:49Z</time>
      </trkpt>
      <trkpt lat="49.43988" lon="2.95748">
        <ele>121</ele>
        <time>2019-06-23T12:09:59Z</time>
      </trkpt>
      <trkpt lat="49.43977" lon="2.95734">
        <ele>120</ele>
        <time>2019-06-23T12:10:02Z</time>
      </trkpt>
      <trkpt lat="49.43962" lon="2.95718">
        <ele>120</ele>
        <time>2019-06-23T12:10:06Z</time>
      </trkpt>
      <trkpt lat="49.43948" lon="2.957">
        <ele>120</ele>
        <time>2019-06-23T12:10:10Z</time>
      </trkpt>
      <trkpt lat="49.43907" lon="2.95634">
        <ele>121</ele>
        <time>2019-06-23T12:10:23Z</time>
      </trkpt>
      <trkpt lat="49.43897" lon="2.95617">
        <ele>121</ele>
        <time>2019-06-23T12:10:26Z</time>
      </trkpt>
      <trkpt lat="49.439" lon="2.95575">
        <ele>120</ele>
        <time>2019-06-23T12:10:33Z</time>
      </trkpt>
      <trkpt lat="49.43904" lon="2.95546">
        <ele>120</ele>
        <time>2019-06-23T12:10:38Z</time>
      </trkpt>
      <trkpt lat="49.43905" lon="2.95519">
        <ele>120</ele>
        <time>2019-06-23T12:10:42Z</time>
      </trkpt>
      <trkpt lat="49.43888" lon="2.955">
        <ele>119</ele>
        <time>2019-06-23T12:10:49Z</time>
      </trkpt>
      <trkpt lat="49.43886" lon="2.95475">
        <ele>119</ele>
        <time>2019-06-23T12:10:57Z</time>
      </trkpt>
      <trkpt lat="49.43887" lon="2.95463">
        <ele>118</ele>
        <time>2019-06-23T12:10:59Z</time>
      </trkpt>
      <trkpt lat="49.4389" lon="2.9545">
        <ele>118</ele>
        <time>2019-06-23T12:11:11Z</time>
      </trkpt>
      <trkpt lat="49.43886" lon="2.95443">
        <ele>118</ele>
        <time>2019-06-23T12:11:19Z</time>
      </trkpt>
      <trkpt lat="49.43883" lon="2.95438">
        <ele>118</ele>
        <time>2019-06-23T12:11:24Z</time>
      </trkpt>
      <trkpt lat="49.43881" lon="2.9543">
        <ele>118</ele>
        <time>2019-06-23T12:11:30Z</time>
      </trkpt>
      <trkpt lat="49.43879" lon="2.95414">
        <ele>115</ele>
        <time>2019-06-23T12:11:39Z</time>
      </trkpt>
      <trkpt lat="49.43881" lon="2.95404">
        <ele>114</ele>
        <time>2019-06-23T12:11:41Z</time>
      </trkpt>
      <trkpt lat="49.43875" lon="2.95395">
        <ele>114</ele>
        <time>2019-06-23T12:11:45Z</time>
      </trkpt>
      <trkpt lat="49.43872" lon="2.9539">
        <ele>114</ele>
        <time>2019-06-23T12:11:49Z</time>
      </trkpt>
      <trkpt lat="49.4387" lon="2.95384">
        <ele>114</ele>
        <time>2019-06-23T12:11:54Z</time>
      </trkpt>
      <trkpt lat="49.43857" lon="2.9537">
        <ele>114</ele>
        <time>2019-06-23T12:12:00Z</time>
      </trkpt>
      <trkpt lat="49.43858" lon="2.95371">
        <ele>114</ele>
        <time>2019-06-23T12:12:12Z</time>
      </trkpt>
      <trkpt lat="49.43858" lon="2.95372">
        <ele>114</ele>
        <time>2019-06-23T12:12:13Z</time>
      </trkpt>
      <trkpt lat="49.43859" lon="2.95374">
        <ele>114</ele>
        <time>2019-06-23T12:12:17Z</time>
      </trkpt>
      <trkpt lat="49.4386" lon="2.9537">
        <ele>114</ele>
        <time>2019-06-23T12:12:21Z</time>
      </trkpt>
      <trkpt lat="49.43856" lon="2.95358">
        <ele>113</ele>
        <time>2019-06-23T12:12:26Z</time>
      </trkpt>
      <trkpt lat="49.43856" lon="2.95346">
        <ele>113</ele>
        <time>2019-06-23T12:12:30Z</time>
      </trkpt>
      <trkpt lat="49.43855" lon="2.95321">
        <ele>109</ele>
        <time>2019-06-23T12:12:37Z</time>
      </trkpt>
      <trkpt lat="49.43844" lon="2.95292">
        <ele>107</ele>
        <time>2019-06-23T12:12:43Z</time>
      </trkpt>
      <trkpt lat="49.43835" lon="2.95269">
        <ele>106</ele>
        <time>2019-06-23T12:12:47Z</time>
      </trkpt>
      <trkpt lat="49.43824" lon="2.95224">
        <ele>105</ele>
        <time>2019-06-23T12:12:56Z</time>
      </trkpt>
      <trkpt lat="49.43814" lon="2.95218">
        <ele>105</ele>
        <time>2019-06-23T12:13:05Z</time>
      </trkpt>
      <trkpt lat="49.43801" lon="2.95217">
        <ele>105</ele>
        <time>2019-06-23T12:13:18Z</time>
      </trkpt>
      <trkpt lat="49.43791" lon="2.95216">
        <ele>105</ele>
        <time>2019-06-23T12:13:26Z</time>
      </trkpt>
      <trkpt lat="49.43787" lon="2.95207">
        <ele>105</ele>
        <time>2019-06-23T12:13:31Z</time>
      </trkpt>
      <trkpt lat="49.43777" lon="2.95195">
        <ele>105</ele>
        <time>2019-06-23T12:13:37Z</time>
      </trkpt>
      <trkpt lat="49.43759" lon="2.95193">
        <ele>105</ele>
        <time>2019-06-23T12:13:46Z</time>
      </trkpt>
      <trkpt lat="49.43744" lon="2.95199">
        <ele>107</ele>
        <time>2019-06-23T12:13:53Z</time>
      </trkpt>
      <trkpt lat="49.4374" lon="2.95201">
        <ele>107</ele>
        <time>2019-06-23T12:13:55Z</time>
      </trkpt>
      <trkpt lat="49.43723" lon="2.95207">
        <ele>107</ele>
        <time>2019-06-23T12:14:02Z</time>
      </trkpt>
      <trkpt lat="49.4369" lon="2.95223">
        <ele>108</ele>
        <time>2019-06-23T12:14:15Z</time>
      </trkpt>
      <trkpt lat="49.43684" lon="2.95226">
        <ele>108</ele>
        <time>2019-06-23T12:14:18Z</time>
      </trkpt>
      <trkpt lat="49.43665" lon="2.95227">
        <ele>105</ele>
        <time>2019-06-23T12:14:26Z</time>
      </trkpt>
      <trkpt lat="49.43649" lon="2.95204">
        <ele>103</ele>
        <time>2019-06-23T12:14:33Z</time>
      </trkpt>
      <trkpt lat="49.43634" lon="2.95172">
        <ele>101</ele>
        <time>2019-06-23T12:14:43Z</time>
      </trkpt>
      <trkpt lat="49.43633" lon="2.95146">
        <ele>98</ele>
        <time>2019-06-23T12:14:50Z</time>
      </trkpt>
      <trkpt lat="49.43633" lon="2.95131">
        <ele>97</ele>
        <time>2019-06-23T12:14:54Z</time>
      </trkpt>
      <trkpt lat="49.43632" lon="2.95121">
        <ele>97</ele>
        <time>2019-06-23T12:14:57Z</time>
      </trkpt>
      <trkpt lat="49.43624" lon="2.95108">
        <ele>96</ele>
        <time>2019-06-23T12:15:02Z</time>
      </trkpt>
      <trkpt lat="49.43622" lon="2.95102">
        <ele>96</ele>
        <time>2019-06-23T12:15:04Z</time>
      </trkpt>
      <trkpt lat="49.43622" lon="2.95095">
        <ele>96</ele>
        <time>2019-06-23T12:15:07Z</time>
      </trkpt>
      <trkpt lat="49.43629" lon="2.95091">
        <ele>96</ele>
        <time>2019-06-23T12:15:25Z</time>
      </trkpt>
      <trkpt lat="49.43628" lon="2.95088">
        <ele>96</ele>
        <time>2019-06-23T12:15:31Z</time>
      </trkpt>
      <trkpt lat="49.43631" lon="2.95083">
        <ele>96</ele>
        <time>2019-06-23T12:15:42Z</time>
      </trkpt>
      <trkpt lat="49.43629" lon="2.95084">
        <ele>96</ele>
        <time>2019-06-23T12:16:01Z</time>
      </trkpt>
      <trkpt lat="49.43629" lon="2.95083">
        <ele>96</ele>
        <time>2019-06-23T12:16:02Z</time>
      </trkpt>
      <trkpt lat="49.43635" lon="2.95075">
        <ele>91</ele>
        <time>2019-06-23T12:16:13Z</time>
      </trkpt>
      <trkpt lat="49.43636" lon="2.95068">
        <ele>91</ele>
        <time>2019-06-23T12:16:21Z</time>
      </trkpt>
      <trkpt lat="49.43637" lon="2.95053">
        <ele>89</ele>
        <time>2019-06-23T12:16:25Z</time>
      </trkpt>
      <trkpt lat="49.43636" lon="2.95041">
        <ele>88</ele>
        <time>2019-06-23T12:16:27Z</time>
      </trkpt>
      <trkpt lat="49.43627" lon="2.94986">
        <ele>81</ele>
        <time>2019-06-23T12:16:36Z</time>
      </trkpt>
      <trkpt lat="49.43621" lon="2.94988">
        <ele>81</ele>
        <time>2019-06-23T12:16:40Z</time>
      </trkpt>
      <trkpt lat="49.43619" lon="2.94991">
        <ele>81</ele>
        <time>2019-06-23T12:16:42Z</time>
      </trkpt>
      <trkpt lat="49.43607" lon="2.95002">
        <ele>87</ele>
        <time>2019-06-23T12:16:48Z</time>
      </trkpt>
      <trkpt lat="49.43596" lon="2.95011">
        <ele>86</ele>
        <time>2019-06-23T12:16:52Z</time>
      </trkpt>
      <trkpt lat="49.43573" lon="2.95023">
        <ele>86</ele>
        <time>2019-06-23T12:16:59Z</time>
      </trkpt>
      <trkpt lat="49.43555" lon="2.95034">
        <ele>87</ele>
        <time>2019-06-23T12:17:05Z</time>
      </trkpt>
      <trkpt lat="49.43525" lon="2.9505">
        <ele>87</ele>
        <time>2019-06-23T12:17:18Z</time>
      </trkpt>
      <trkpt lat="49.435" lon="2.95067">
        <ele>85</ele>
        <time>2019-06-23T12:17:23Z</time>
      </trkpt>
      <trkpt lat="49.43466" lon="2.9507">
        <ele>84</ele>
        <time>2019-06-23T12:17:30Z</time>
      </trkpt>
      <trkpt lat="49.43459" lon="2.95083">
        <ele>83</ele>
        <time>2019-06-23T12:17:34Z</time>
      </trkpt>
      <trkpt lat="49.43461" lon="2.95092">
        <ele>85</ele>
        <time>2019-06-23T12:17:38Z</time>
      </trkpt>
      <trkpt lat="49.4347" lon="2.95108">
        <ele>86</ele>
        <time>2019-06-23T12:17:44Z</time>
      </trkpt>
      <trkpt lat="49.43474" lon="2.95119">
        <ele>86</ele>
        <time>2019-06-23T12:17:50Z</time>
      </trkpt>
      <trkpt lat="49.43479" lon="2.95126">
        <ele>86</ele>
        <time>2019-06-23T12:17:54Z</time>
      </trkpt>
      <trkpt lat="49.43485" lon="2.95134">
        <ele>86</ele>
        <time>2019-06-23T12:17:59Z</time>
      </trkpt>
      <trkpt lat="49.43489" lon="2.95151">
        <ele>86</ele>
        <time>2019-06-23T12:18:06Z</time>
      </trkpt>
      <trkpt lat="49.43492" lon="2.95161">
        <ele>86</ele>
        <time>2019-06-23T12:18:10Z</time>
      </trkpt>
      <trkpt lat="49.43495" lon="2.95172">
        <ele>88</ele>
        <time>2019-06-23T12:18:14Z</time>
      </trkpt>
      <trkpt lat="49.43499" lon="2.95199">
        <ele>92</ele>
        <time>2019-06-23T12:18:26Z</time>
      </trkpt>
      <trkpt lat="49.43503" lon="2.95205">
        <ele>93</ele>
        <time>2019-06-23T12:18:29Z</time>
      </trkpt>
      <trkpt lat="49.43502" lon="2.95213">
        <ele>94</ele>
        <time>2019-06-23T12:18:43Z</time>
      </trkpt>
      <trkpt lat="49.43499" lon="2.95216">
        <ele>94</ele>
        <time>2019-06-23T12:18:56Z</time>
      </trkpt>
      <trkpt lat="49.43499" lon="2.95217">
        <ele>94</ele>
        <time>2019-06-23T12:18:57Z</time>
      </trkpt>
      <trkpt lat="49.43495" lon="2.95226">
        <ele>95</ele>
        <time>2019-06-23T12:19:06Z</time>
      </trkpt>
      <trkpt lat="49.43487" lon="2.95246">
        <ele>96</ele>
        <time>2019-06-23T12:19:30Z</time>
      </trkpt>
      <trkpt lat="49.43493" lon="2.95249">
        <ele>97</ele>
        <time>2019-06-23T12:19:55Z</time>
      </trkpt>
      <trkpt lat="49.43488" lon="2.95247">
        <ele>96</ele>
        <time>2019-06-23T12:20:00Z</time>
      </trkpt>
      <trkpt lat="49.43481" lon="2.95245">
        <ele>96</ele>
        <time>2019-06-23T12:20:13Z</time>
      </trkpt>
      <trkpt lat="49.43468" lon="2.95243">
        <ele>96</ele>
        <time>2019-06-23T12:20:25Z</time>
      </trkpt>
      <trkpt lat="49.43455" lon="2.95242">
        <ele>97</ele>
        <time>2019-06-23T12:20:38Z</time>
      </trkpt>
      <trkpt lat="49.43443" lon="2.95238">
        <ele>98</ele>
        <time>2019-06-23T12:20:53Z</time>
      </trkpt>
      <trkpt lat="49.43434" lon="2.95233">
        <ele>99</ele>
        <time>2019-06-23T12:21:04Z</time>
      </trkpt>
      <trkpt lat="49.43428" lon="2.95236">
        <ele>100</ele>
        <time>2019-06-23T12:21:22Z</time>
      </trkpt>
      <trkpt lat="49.43415" lon="2.95236">
        <ele>101</ele>
        <time>2019-06-23T12:21:34Z</time>
      </trkpt>
      <trkpt lat="49.43409" lon="2.95236">
        <ele>101</ele>
        <time>2019-06-23T12:21:46Z</time>
      </trkpt>
      <trkpt lat="49.43405" lon="2.95234">
        <ele>100</ele>
        <time>2019-06-23T12:21:58Z</time>
      </trkpt>
      <trkpt lat="49.43396" lon="2.95235">
        <ele>99</ele>
        <time>2019-06-23T12:22:03Z</time>
      </trkpt>
      <trkpt lat="49.43377" lon="2.95232">
        <ele>98</ele>
        <time>2019-06-23T12:22:13Z</time>
      </trkpt>
      <trkpt lat="49.43357" lon="2.95229">
        <ele>97</ele>
        <time>2019-06-23T12:22:23Z</time>
      </trkpt>
      <trkpt lat="49.43306" lon="2.95222">
        <ele>92</ele>
        <time>2019-06-23T12:22:32Z</time>
      </trkpt>
      <trkpt lat="49.43277" lon="2.9523">
        <ele>90</ele>
        <time>2019-06-23T12:22:35Z</time>
      </trkpt>
      <trkpt lat="49.43231" lon="2.95234">
        <ele>83</ele>
        <time>2019-06-23T12:22:41Z</time>
      </trkpt>
      <trkpt lat="49.43198" lon="2.95234">
        <ele>80</ele>
        <time>2019-06-23T12:22:46Z</time>
      </trkpt>
      <trkpt lat="49.43173" lon="2.95235">
        <ele>79</ele>
        <time>2019-06-23T12:22:52Z</time>
      </trkpt>
      <trkpt lat="49.43151" lon="2.95236">
        <ele>73</ele>
        <time>2019-06-23T12:22:56Z</time>
      </trkpt>
      <trkpt lat="49.43135" lon="2.95235">
        <ele>71</ele>
        <time>2019-06-23T12:23:00Z</time>
      </trkpt>
      <trkpt lat="49.43129" lon="2.95237">
        <ele>70</ele>
        <time>2019-06-23T12:23:11Z</time>
      </trkpt>
      <trkpt lat="49.43134" lon="2.95239">
        <ele>71</ele>
        <time>2019-06-23T12:23:25Z</time>
      </trkpt>
      <trkpt lat="49.43136" lon="2.95239">
        <ele>71</ele>
        <time>2019-06-23T12:23:27Z</time>
      </trkpt>
      <trkpt lat="49.43151" lon="2.95239">
        <ele>73</ele>
        <time>2019-06-23T12:23:43Z</time>
      </trkpt>
      <trkpt lat="49.43164" lon="2.95235">
        <ele>74</ele>
        <time>2019-06-23T12:23:57Z</time>
      </trkpt>
      <trkpt lat="49.4317" lon="2.95235">
        <ele>79</ele>
        <time>2019-06-23T12:24:11Z</time>
      </trkpt>
      <trkpt lat="49.43175" lon="2.95234">
        <ele>79</ele>
        <time>2019-06-23T12:24:26Z</time>
      </trkpt>
      <trkpt lat="49.43185" lon="2.95234">
        <ele>79</ele>
        <time>2019-06-23T12:24:39Z</time>
      </trkpt>
      <trkpt lat="49.43207" lon="2.95237">
        <ele>81</ele>
        <time>2019-06-23T12:24:56Z</time>
      </trkpt>
      <trkpt lat="49.4322" lon="2.95237">
        <ele>82</ele>
        <time>2019-06-23T12:25:07Z</time>
      </trkpt>
      <trkpt lat="49.4324" lon="2.95236">
        <ele>84</ele>
        <time>2019-06-23T12:25:19Z</time>
      </trkpt>
      <trkpt lat="49.43246" lon="2.95236">
        <ele>85</ele>
        <time>2019-06-23T12:25:24Z</time>
      </trkpt>
      <trkpt lat="49.43263" lon="2.95238">
        <ele>89</ele>
        <time>2019-06-23T12:25:36Z</time>
      </trkpt>
      <trkpt lat="49.43279" lon="2.95239">
        <ele>90</ele>
        <time>2019-06-23T12:25:48Z</time>
      </trkpt>
      <trkpt lat="49.43296" lon="2.95238">
        <ele>92</ele>
        <time>2019-06-23T12:26:01Z</time>
      </trkpt>
      <trkpt lat="49.43311" lon="2.95235">
        <ele>93</ele>
        <time>2019-06-23T12:26:15Z</time>
      </trkpt>
      <trkpt lat="49.43325" lon="2.95234">
        <ele>94</ele>
        <time>2019-06-23T12:26:28Z</time>
      </trkpt>
      <trkpt lat="49.43335" lon="2.95234">
        <ele>98</ele>
        <time>2019-06-23T12:26:39Z</time>
      </trkpt>
      <trkpt lat="49.43341" lon="2.95234">
        <ele>98</ele>
        <time>2019-06-23T12:26:44Z</time>
      </trkpt>
      <trkpt lat="49.43352" lon="2.95234">
        <ele>97</ele>
        <time>2019-06-23T12:26:56Z</time>
      </trkpt>
      <trkpt lat="49.43368" lon="2.95235">
        <ele>98</ele>
        <time>2019-06-23T12:27:06Z</time>
      </trkpt>
      <trkpt lat="49.43382" lon="2.95233">
        <ele>98</ele>
        <time>2019-06-23T12:27:17Z</time>
      </trkpt>
      <trkpt lat="49.43388" lon="2.95234">
        <ele>99</ele>
        <time>2019-06-23T12:27:21Z</time>
      </trkpt>
      <trkpt lat="49.43394" lon="2.95232">
        <ele>99</ele>
        <time>2019-06-23T12:27:27Z</time>
      </trkpt>
      <trkpt lat="49.43407" lon="2.95233">
        <ele>100</ele>
        <time>2019-06-23T12:27:38Z</time>
      </trkpt>
      <trkpt lat="49.43417" lon="2.95231">
        <ele>99</ele>
        <time>2019-06-23T12:27:48Z</time>
      </trkpt>
      <trkpt lat="49.43417" lon="2.95229">
        <ele>99</ele>
        <time>2019-06-23T12:27:49Z</time>
      </trkpt>
      <trkpt lat="49.43416" lon="2.95222">
        <ele>99</ele>
        <time>2019-06-23T12:27:52Z</time>
      </trkpt>
      <trkpt lat="49.434" lon="2.95215">
        <ele>97</ele>
        <time>2019-06-23T12:28:01Z</time>
      </trkpt>
      <trkpt lat="49.43397" lon="2.95195">
        <ele>95</ele>
        <time>2019-06-23T12:28:09Z</time>
      </trkpt>
      <trkpt lat="49.43392" lon="2.95182">
        <ele>95</ele>
        <time>2019-06-23T12:28:13Z</time>
      </trkpt>
      <trkpt lat="49.43382" lon="2.95168">
        <ele>94</ele>
        <time>2019-06-23T12:28:18Z</time>
      </trkpt>
      <trkpt lat="49.43366" lon="2.95148">
        <ele>87</ele>
        <time>2019-06-23T12:28:24Z</time>
      </trkpt>
      <trkpt lat="49.4337" lon="2.95094">
        <ele>84</ele>
        <time>2019-06-23T12:28:34Z</time>
      </trkpt>
      <trkpt lat="49.43374" lon="2.95081">
        <ele>80</ele>
        <time>2019-06-23T12:28:37Z</time>
      </trkpt>
      <trkpt lat="49.43377" lon="2.95047">
        <ele>80</ele>
        <time>2019-06-23T12:28:45Z</time>
      </trkpt>
      <trkpt lat="49.43375" lon="2.95035">
        <ele>79</ele>
        <time>2019-06-23T12:28:49Z</time>
      </trkpt>
      <trkpt lat="49.43369" lon="2.95022">
        <ele>79</ele>
        <time>2019-06-23T12:28:54Z</time>
      </trkpt>
      <trkpt lat="49.43366" lon="2.95005">
        <ele>79</ele>
        <time>2019-06-23T12:29:04Z</time>
      </trkpt>
      <trkpt lat="49.43366" lon="2.95005">
        <ele>79</ele>
        <time>2019-06-23T12:29:05Z</time>
      </trkpt>
      <trkpt lat="49.43367" lon="2.94988">
        <ele>79</ele>
        <time>2019-06-23T12:29:15Z</time>
      </trkpt>
      <trkpt lat="49.43367" lon="2.94976">
        <ele>79</ele>
        <time>2019-06-23T12:29:26Z</time>
      </trkpt>
      <trkpt lat="49.4336" lon="2.9497">
        <ele>79</ele>
        <time>2019-06-23T12:29:32Z</time>
      </trkpt>
      <trkpt lat="49.43356" lon="2.94961">
        <ele>79</ele>
        <time>2019-06-23T12:29:36Z</time>
      </trkpt>
      <trkpt lat="49.43341" lon="2.94936">
        <ele>78</ele>
        <time>2019-06-23T12:29:48Z</time>
      </trkpt>
      <trkpt lat="49.43338" lon="2.94933">
        <ele>78</ele>
        <time>2019-06-23T12:29:50Z</time>
      </trkpt>
      <trkpt lat="49.43338" lon="2.94922">
        <ele>78</ele>
        <time>2019-06-23T12:30:01Z</time>
      </trkpt>
      <trkpt lat="49.43336" lon="2.94912">
        <ele>78</ele>
        <time>2019-06-23T12:30:10Z</time>
      </trkpt>
      <trkpt lat="49.43317" lon="2.9492">
        <ele>76</ele>
        <time>2019-06-23T12:30:17Z</time>
      </trkpt>
      <trkpt lat="49.43316" lon="2.94915">
        <ele>77</ele>
        <time>2019-06-23T12:30:26Z</time>
      </trkpt>
      <trkpt lat="49.43317" lon="2.94914">
        <ele>77</ele>
        <time>2019-06-23T12:30:27Z</time>
      </trkpt>
      <trkpt lat="49.43318" lon="2.94907">
        <ele>77</ele>
        <time>2019-06-23T12:30:32Z</time>
      </trkpt>
      <trkpt lat="49.43315" lon="2.949">
        <ele>77</ele>
        <time>2019-06-23T12:30:36Z</time>
      </trkpt>
      <trkpt lat="49.43317" lon="2.94898">
        <ele>77</ele>
        <time>2019-06-23T12:30:38Z</time>
      </trkpt>
      <trkpt lat="49.43299" lon="2.94896">
        <ele>76</ele>
        <time>2019-06-23T12:30:48Z</time>
      </trkpt>
      <trkpt lat="49.43299" lon="2.94894">
        <ele>76</ele>
        <time>2019-06-23T12:30:49Z</time>
      </trkpt>
      <trkpt lat="49.43296" lon="2.94887">
        <ele>76</ele>
        <time>2019-06-23T12:30:52Z</time>
      </trkpt>
      <trkpt lat="49.43279" lon="2.94873">
        <ele>76</ele>
        <time>2019-06-23T12:31:00Z</time>
      </trkpt>
      <trkpt lat="49.43256" lon="2.94863">
        <ele>75</ele>
        <time>2019-06-23T12:31:07Z</time>
      </trkpt>
      <trkpt lat="49.4324" lon="2.94843">
        <ele>71</ele>
        <time>2019-06-23T12:31:15Z</time>
      </trkpt>
      <trkpt lat="49.43241" lon="2.94839">
        <ele>72</ele>
        <time>2019-06-23T12:31:27Z</time>
      </trkpt>
      <trkpt lat="49.43245" lon="2.94811">
        <ele>72</ele>
        <time>2019-06-23T12:31:48Z</time>
      </trkpt>
      <trkpt lat="49.43247" lon="2.94808">
        <ele>72</ele>
        <time>2019-06-23T12:31:51Z</time>
      </trkpt>
      <trkpt lat="49.43244" lon="2.94793">
        <ele>72</ele>
        <time>2019-06-23T12:32:01Z</time>
      </trkpt>
      <trkpt lat="49.43238" lon="2.94773">
        <ele>73</ele>
        <time>2019-06-23T12:32:12Z</time>
      </trkpt>
      <trkpt lat="49.43229" lon="2.94785">
        <ele>71</ele>
        <time>2019-06-23T12:32:18Z</time>
      </trkpt>
      <trkpt lat="49.43224" lon="2.94794">
        <ele>71</ele>
        <time>2019-06-23T12:32:22Z</time>
      </trkpt>
      <trkpt lat="49.43221" lon="2.94797">
        <ele>71</ele>
        <time>2019-06-23T12:32:24Z</time>
      </trkpt>
      <trkpt lat="49.43196" lon="2.94795">
        <ele>69</ele>
        <time>2019-06-23T12:32:34Z</time>
      </trkpt>
      <trkpt lat="49.43187" lon="2.94804">
        <ele>68</ele>
        <time>2019-06-23T12:32:39Z</time>
      </trkpt>
      <trkpt lat="49.43186" lon="2.94837">
        <ele>64</ele>
        <time>2019-06-23T12:32:49Z</time>
      </trkpt>
      <trkpt lat="49.43191" lon="2.94852">
        <ele>65</ele>
        <time>2019-06-23T12:32:56Z</time>
      </trkpt>
      <trkpt lat="49.43191" lon="2.94868">
        <ele>65</ele>
        <time>2019-06-23T12:33:04Z</time>
      </trkpt>
      <trkpt lat="49.43191" lon="2.94887">
        <ele>65</ele>
        <time>2019-06-23T12:33:09Z</time>
      </trkpt>
      <trkpt lat="49.4319" lon="2.94918">
        <ele>64</ele>
        <time>2019-06-23T12:33:19Z</time>
      </trkpt>
      <trkpt lat="49.43191" lon="2.94931">
        <ele>64</ele>
        <time>2019-06-23T12:33:24Z</time>
      </trkpt>
      <trkpt lat="49.43189" lon="2.94946">
        <ele>64</ele>
        <time>2019-06-23T12:33:30Z</time>
      </trkpt>
      <trkpt lat="49.43192" lon="2.9496">
        <ele>65</ele>
        <time>2019-06-23T12:33:42Z</time>
      </trkpt>
      <trkpt lat="49.43192" lon="2.94963">
        <ele>65</ele>
        <time>2019-06-23T12:34:13Z</time>
      </trkpt>
      <trkpt lat="49.43193" lon="2.94963">
        <ele>65</ele>
        <time>2019-06-23T12:34:44Z</time>
      </trkpt>
      <trkpt lat="49.43192" lon="2.94966">
        <ele>65</ele>
        <time>2019-06-23T12:35:13Z</time>
      </trkpt>
      <trkpt lat="49.43193" lon="2.94967">
        <ele>65</ele>
        <time>2019-06-23T12:35:44Z</time>
      </trkpt>
      <trkpt lat="49.43192" lon="2.94967">
        <ele>65</ele>
        <time>2019-06-23T12:36:17Z</time>
      </trkpt>
      <trkpt lat="49.43192" lon="2.94967">
        <ele>65</ele>
        <time>2019-06-23T12:36:47Z</time>
      </trkpt>
      <trkpt lat="49.43192" lon="2.94967">
        <ele>65</ele>
        <time>2019-06-23T12:37:14Z</time>
      </trkpt>
      <trkpt lat="49.43191" lon="2.94965">
        <ele>64</ele>
        <time>2019-06-23T12:37:41Z</time>
      </trkpt>
      <trkpt lat="49.4319" lon="2.94965">
        <ele>64</ele>
        <time>2019-06-23T12:38:09Z</time>
      </trkpt>
      <trkpt lat="49.43189" lon="2.94966">
        <ele>64</ele>
        <time>2019-06-23T12:38:39Z</time>
      </trkpt>
      <trkpt lat="49.4319" lon="2.94967">
        <ele>64</ele>
        <time>2019-06-23T12:39:04Z</time>
      </trkpt>
      <trkpt lat="49.43189" lon="2.94968">
        <ele>64</ele>
        <time>2019-06-23T12:39:37Z</time>
      </trkpt>
      <trkpt lat="49.43188" lon="2.9497">
        <ele>64</ele>
        <time>2019-06-23T12:40:05Z</time>
      </trkpt>
      <trkpt lat="49.43187" lon="2.9497">
        <ele>64</ele>
        <time>2019-06-23T12:40:35Z</time>
      </trkpt>
      <trkpt lat="49.43188" lon="2.94971">
        <ele>64</ele>
        <time>2019-06-23T12:41:09Z</time>
      </trkpt>
      <trkpt lat="49.43189" lon="2.94971">
        <ele>64</ele>
        <time>2019-06-23T12:41:38Z</time>
      </trkpt>
      <trkpt lat="49.43191" lon="2.94972">
        <ele>64</ele>
        <time>2019-06-23T12:42:09Z</time>
      </trkpt>
      <trkpt lat="49.4319" lon="2.9497">
        <ele>64</ele>
        <time>2019-06-23T12:42:17Z</time>
      </trkpt>
      <trkpt lat="49.43189" lon="2.94966">
        <ele>64</ele>
        <time>2019-06-23T12:42:19Z</time>
      </trkpt>
      <trkpt lat="49.43186" lon="2.94946">
        <ele>64</ele>
        <time>2019-06-23T12:42:30Z</time>
      </trkpt>
      <trkpt lat="49.43188" lon="2.94938">
        <ele>64</ele>
        <time>2019-06-23T12:42:45Z</time>
      </trkpt>
      <trkpt lat="49.43187" lon="2.94935">
        <ele>64</ele>
        <time>2019-06-23T12:43:06Z</time>
      </trkpt>
      <trkpt lat="49.43185" lon="2.94932">
        <ele>63</ele>
        <time>2019-06-23T12:43:31Z</time>
      </trkpt>
      <trkpt lat="49.43185" lon="2.9493">
        <ele>63</ele>
        <time>2019-06-23T12:43:48Z</time>
      </trkpt>
      <trkpt lat="49.43186" lon="2.9493">
        <ele>63</ele>
        <time>2019-06-23T12:44:10Z</time>
      </trkpt>
      <trkpt lat="49.43186" lon="2.9493">
        <ele>64</ele>
        <time>2019-06-23T12:44:33Z</time>
      </trkpt>
      <trkpt lat="49.43186" lon="2.94924">
        <ele>63</ele>
        <time>2019-06-23T12:44:48Z</time>
      </trkpt>
      <trkpt lat="49.43187" lon="2.94917">
        <ele>63</ele>
        <time>2019-06-23T12:44:52Z</time>
      </trkpt>
      <trkpt lat="49.43187" lon="2.94911">
        <ele>64</ele>
        <time>2019-06-23T12:44:54Z</time>
      </trkpt>
      <trkpt lat="49.43183" lon="2.9486">
        <ele>64</ele>
        <time>2019-06-23T12:45:06Z</time>
      </trkpt>
      <trkpt lat="49.43163" lon="2.94808">
        <ele>60</ele>
        <time>2019-06-23T12:45:18Z</time>
      </trkpt>
      <trkpt lat="49.43147" lon="2.94771">
        <ele>61</ele>
        <time>2019-06-23T12:45:26Z</time>
      </trkpt>
      <trkpt lat="49.43125" lon="2.94722">
        <ele>62</ele>
        <time>2019-06-23T12:45:34Z</time>
      </trkpt>
      <trkpt lat="49.43115" lon="2.94694">
        <ele>62</ele>
        <time>2019-06-23T12:45:38Z</time>
      </trkpt>
      <trkpt lat="49.43089" lon="2.94605">
        <ele>62</ele>
        <time>2019-06-23T12:45:51Z</time>
      </trkpt>
      <trkpt lat="49.43085" lon="2.94592">
        <ele>60</ele>
        <time>2019-06-23T12:45:53Z</time>
      </trkpt>
      <trkpt lat="49.43078" lon="2.94563">
        <ele>57</ele>
        <time>2019-06-23T12:45:57Z</time>
      </trkpt>
      <trkpt lat="49.43068" lon="2.94534">
        <ele>57</ele>
        <time>2019-06-23T12:46:01Z</time>
      </trkpt>
      <trkpt lat="49.43056" lon="2.94501">
        <ele>57</ele>
        <time>2019-06-23T12:46:06Z</time>
      </trkpt>
      <trkpt lat="49.43046" lon="2.94476">
        <ele>57</ele>
        <time>2019-06-23T12:46:10Z</time>
      </trkpt>
      <trkpt lat="49.43032" lon="2.94425">
        <ele>56</ele>
        <time>2019-06-23T12:46:18Z</time>
      </trkpt>
      <trkpt lat="49.43036" lon="2.94358">
        <ele>56</ele>
        <time>2019-06-23T12:46:29Z</time>
      </trkpt>
      <trkpt lat="49.43045" lon="2.94341">
        <ele>56</ele>
        <time>2019-06-23T12:46:36Z</time>
      </trkpt>
      <trkpt lat="49.43063" lon="2.94354">
        <ele>57</ele>
        <time>2019-06-23T12:46:48Z</time>
      </trkpt>
      <trkpt lat="49.43091" lon="2.94374">
        <ele>63</ele>
        <time>2019-06-23T12:47:02Z</time>
      </trkpt>
      <trkpt lat="49.43105" lon="2.9438">
        <ele>63</ele>
        <time>2019-06-23T12:47:13Z</time>
      </trkpt>
      <trkpt lat="49.43107" lon="2.94383">
        <ele>63</ele>
        <time>2019-06-23T12:47:24Z</time>
      </trkpt>
      <trkpt lat="49.43105" lon="2.94387">
        <ele>63</ele>
        <time>2019-06-23T12:47:55Z</time>
      </trkpt>
      <trkpt lat="49.43108" lon="2.94388">
        <ele>64</ele>
        <time>2019-06-23T12:48:24Z</time>
      </trkpt>
      <trkpt lat="49.43108" lon="2.9439">
        <ele>64</ele>
        <time>2019-06-23T12:48:50Z</time>
      </trkpt>
      <trkpt lat="49.43109" lon="2.94393">
        <ele>64</ele>
        <time>2019-06-23T12:49:23Z</time>
      </trkpt>
      <trkpt lat="49.43109" lon="2.94393">
        <ele>64</ele>
        <time>2019-06-23T12:49:53Z</time>
      </trkpt>
      <trkpt lat="49.43108" lon="2.94393">
        <ele>64</ele>
        <time>2019-06-23T12:50:21Z</time>
      </trkpt>
      <trkpt lat="49.43107" lon="2.94392">
        <ele>64</ele>
        <time>2019-06-23T12:50:55Z</time>
      </trkpt>
      <trkpt lat="49.43107" lon="2.9439">
        <ele>64</ele>
        <time>2019-06-23T12:51:25Z</time>
      </trkpt>
      <trkpt lat="49.43107" lon="2.9439">
        <ele>64</ele>
        <time>2019-06-23T12:51:55Z</time>
      </trkpt>
      <trkpt lat="49.43107" lon="2.94389">
        <ele>63</ele>
        <time>2019-06-23T12:52:28Z</time>
      </trkpt>
      <trkpt lat="49.43107" lon="2.94389">
        <ele>64</ele>
        <time>2019-06-23T12:52:59Z</time>
      </trkpt>
      <trkpt lat="49.43103" lon="2.9438">
        <ele>63</ele>
        <time>2019-06-23T12:53:07Z</time>
      </trkpt>
      <trkpt lat="49.43092" lon="2.94372">
        <ele>63</ele>
        <time>2019-06-23T12:53:12Z</time>
      </trkpt>
      <trkpt lat="49.43073" lon="2.9436">
        <ele>57</ele>
        <time>2019-06-23T12:53:21Z</time>
      </trkpt>
      <trkpt lat="49.4304" lon="2.94338">
        <ele>56</ele>
        <time>2019-06-23T12:53:32Z</time>
      </trkpt>
      <trkpt lat="49.43022" lon="2.94325">
        <ele>54</ele>
        <time>2019-06-23T12:53:41Z</time>
      </trkpt>
      <trkpt lat="49.42993" lon="2.94308">
        <ele>51</ele>
        <time>2019-06-23T12:53:51Z</time>
      </trkpt>
      <trkpt lat="49.42986" lon="2.94302">
        <ele>51</ele>
        <time>2019-06-23T12:53:53Z</time>
      </trkpt>
      <trkpt lat="49.4294" lon="2.94272">
        <ele>50</ele>
        <time>2019-06-23T12:54:03Z</time>
      </trkpt>
      <trkpt lat="49.42876" lon="2.94233">
        <ele>48</ele>
        <time>2019-06-23T12:54:16Z</time>
      </trkpt>
      <trkpt lat="49.42862" lon="2.94224">
        <ele>47</ele>
        <time>2019-06-23T12:54:19Z</time>
      </trkpt>
      <trkpt lat="49.42839" lon="2.94209">
        <ele>47</ele>
        <time>2019-06-23T12:54:24Z</time>
      </trkpt>
      <trkpt lat="49.4283" lon="2.94203">
        <ele>46</ele>
        <time>2019-06-23T12:54:26Z</time>
      </trkpt>
      <trkpt lat="49.42821" lon="2.94199">
        <ele>46</ele>
        <time>2019-06-23T12:54:28Z</time>
      </trkpt>
      <trkpt lat="49.42797" lon="2.94198">
        <ele>45</ele>
        <time>2019-06-23T12:54:34Z</time>
      </trkpt>
      <trkpt lat="49.42784" lon="2.94199">
        <ele>45</ele>
        <time>2019-06-23T12:54:38Z</time>
      </trkpt>
      <trkpt lat="49.42745" lon="2.94204">
        <ele>43</ele>
        <time>2019-06-23T12:54:49Z</time>
      </trkpt>
      <trkpt lat="49.42736" lon="2.94206">
        <ele>42</ele>
        <time>2019-06-23T12:54:51Z</time>
      </trkpt>
      <trkpt lat="49.42721" lon="2.94212">
        <ele>42</ele>
        <time>2019-06-23T12:54:54Z</time>
      </trkpt>
      <trkpt lat="49.42711" lon="2.94217">
        <ele>42</ele>
        <time>2019-06-23T12:54:56Z</time>
      </trkpt>
      <trkpt lat="49.42698" lon="2.94227">
        <ele>41</ele>
        <time>2019-06-23T12:54:59Z</time>
      </trkpt>
      <trkpt lat="49.42675" lon="2.94295">
        <ele>42</ele>
        <time>2019-06-23T12:55:12Z</time>
      </trkpt>
      <trkpt lat="49.42658" lon="2.94367">
        <ele>41</ele>
        <time>2019-06-23T12:55:25Z</time>
      </trkpt>
      <trkpt lat="49.42638" lon="2.94449">
        <ele>44</ele>
        <time>2019-06-23T12:55:40Z</time>
      </trkpt>
      <trkpt lat="49.4263" lon="2.94496">
        <ele>44</ele>
        <time>2019-06-23T12:55:50Z</time>
      </trkpt>
      <trkpt lat="49.42628" lon="2.94501">
        <ele>46</ele>
        <time>2019-06-23T12:56:04Z</time>
      </trkpt>
      <trkpt lat="49.42629" lon="2.94502">
        <ele>46</ele>
        <time>2019-06-23T12:56:34Z</time>
      </trkpt>
      <trkpt lat="49.42612" lon="2.94512">
        <ele>45</ele>
        <time>2019-06-23T12:56:41Z</time>
      </trkpt>
      <trkpt lat="49.42595" lon="2.94514">
        <ele>44</ele>
        <time>2019-06-23T12:56:45Z</time>
      </trkpt>
      <trkpt lat="49.42543" lon="2.94499">
        <ele>39</ele>
        <time>2019-06-23T12:56:57Z</time>
      </trkpt>
      <trkpt lat="49.42476" lon="2.94488">
        <ele>37</ele>
        <time>2019-06-23T12:57:13Z</time>
      </trkpt>
      <trkpt lat="49.42401" lon="2.94482">
        <ele>37</ele>
        <time>2019-06-23T12:57:29Z</time>
      </trkpt>
      <trkpt lat="49.42314" lon="2.94473">
        <ele>37</ele>
        <time>2019-06-23T12:57:47Z</time>
      </trkpt>
      <trkpt lat="49.42285" lon="2.94468">
        <ele>37</ele>
        <time>2019-06-23T12:57:53Z</time>
      </trkpt>
      <trkpt lat="49.42193" lon="2.94453">
        <ele>37</ele>
        <time>2019-06-23T12:58:12Z</time>
      </trkpt>
      <trkpt lat="49.42114" lon="2.94424">
        <ele>37</ele>
        <time>2019-06-23T12:58:30Z</time>
      </trkpt>
      <trkpt lat="49.42049" lon="2.94398">
        <ele>38</ele>
        <time>2019-06-23T12:58:45Z</time>
      </trkpt>
      <trkpt lat="49.41989" lon="2.94347">
        <ele>40</ele>
        <time>2019-06-23T12:58:59Z</time>
      </trkpt>
      <trkpt lat="49.41915" lon="2.94295">
        <ele>42</ele>
        <time>2019-06-23T12:59:17Z</time>
      </trkpt>
      <trkpt lat="49.41911" lon="2.94293">
        <ele>42</ele>
        <time>2019-06-23T12:59:18Z</time>
      </trkpt>
      <trkpt lat="49.41889" lon="2.94285">
        <ele>42</ele>
        <time>2019-06-23T12:59:23Z</time>
      </trkpt>
      <trkpt lat="49.41862" lon="2.94279">
        <ele>41</ele>
        <time>2019-06-23T12:59:29Z</time>
      </trkpt>
      <trkpt lat="49.41792" lon="2.9429">
        <ele>40</ele>
        <time>2019-06-23T12:59:44Z</time>
      </trkpt>
      <trkpt lat="49.41762" lon="2.94273">
        <ele>39</ele>
        <time>2019-06-23T12:59:54Z</time>
      </trkpt>
      <trkpt lat="49.41717" lon="2.942">
        <ele>40</ele>
        <time>2019-06-23T13:00:08Z</time>
      </trkpt>
      <trkpt lat="49.4169" lon="2.94158">
        <ele>41</ele>
        <time>2019-06-23T13:00:16Z</time>
      </trkpt>
      <trkpt lat="49.41649" lon="2.9408">
        <ele>41</ele>
        <time>2019-06-23T13:00:30Z</time>
      </trkpt>
      <trkpt lat="49.41642" lon="2.9407">
        <ele>41</ele>
        <time>2019-06-23T13:00:32Z</time>
      </trkpt>
      <trkpt lat="49.41634" lon="2.94039">
        <ele>41</ele>
        <time>2019-06-23T13:00:37Z</time>
      </trkpt>
      <trkpt lat="49.41636" lon="2.94027">
        <ele>41</ele>
        <time>2019-06-23T13:00:39Z</time>
      </trkpt>
      <trkpt lat="49.41644" lon="2.94003">
        <ele>41</ele>
        <time>2019-06-23T13:00:43Z</time>
      </trkpt>
      <trkpt lat="49.4167" lon="2.93972">
        <ele>41</ele>
        <time>2019-06-23T13:00:50Z</time>
      </trkpt>
      <trkpt lat="49.41701" lon="2.93941">
        <ele>41</ele>
        <time>2019-06-23T13:00:57Z</time>
      </trkpt>
      <trkpt lat="49.4175" lon="2.93842">
        <ele>39</ele>
        <time>2019-06-23T13:01:13Z</time>
      </trkpt>
      <trkpt lat="49.41756" lon="2.93829">
        <ele>38</ele>
        <time>2019-06-23T13:01:15Z</time>
      </trkpt>
      <trkpt lat="49.41774" lon="2.93802">
        <ele>38</ele>
        <time>2019-06-23T13:01:20Z</time>
      </trkpt>
      <trkpt lat="49.41819" lon="2.93769">
        <ele>37</ele>
        <time>2019-06-23T13:01:33Z</time>
      </trkpt>
      <trkpt lat="49.41825" lon="2.93767">
        <ele>37</ele>
        <time>2019-06-23T13:01:35Z</time>
      </trkpt>
      <trkpt lat="49.41833" lon="2.93766">
        <ele>37</ele>
        <time>2019-06-23T13:01:44Z</time>
      </trkpt>
      <trkpt lat="49.41835" lon="2.93766">
        <ele>37</ele>
        <time>2019-06-23T13:02:21Z</time>
      </trkpt>
      <trkpt lat="49.41835" lon="2.93766">
        <ele>37</ele>
        <time>2019-06-23T13:02:42Z</time>
      </trkpt>
      <trkpt lat="49.41825" lon="2.93765">
        <ele>37</ele>
        <time>2019-06-23T13:02:48Z</time>
      </trkpt>
      <trkpt lat="49.4181" lon="2.93772">
        <ele>37</ele>
        <time>2019-06-23T13:02:52Z</time>
      </trkpt>
      <trkpt lat="49.41781" lon="2.9379">
        <ele>38</ele>
        <time>2019-06-23T13:02:59Z</time>
      </trkpt>
      <trkpt lat="49.4177" lon="2.93802">
        <ele>38</ele>
        <time>2019-06-23T13:03:02Z</time>
      </trkpt>
      <trkpt lat="49.4173" lon="2.93876">
        <ele>40</ele>
        <time>2019-06-23T13:03:16Z</time>
      </trkpt>
      <trkpt lat="49.41721" lon="2.93891">
        <ele>40</ele>
        <time>2019-06-23T13:03:19Z</time>
      </trkpt>
      <trkpt lat="49.41703" lon="2.93928">
        <ele>41</ele>
        <time>2019-06-23T13:03:26Z</time>
      </trkpt>
      <trkpt lat="49.4169" lon="2.93952">
        <ele>41</ele>
        <time>2019-06-23T13:03:31Z</time>
      </trkpt>
      <trkpt lat="49.41677" lon="2.9395">
        <ele>41</ele>
        <time>2019-06-23T13:03:35Z</time>
      </trkpt>
      <trkpt lat="49.4167" lon="2.93935">
        <ele>40</ele>
        <time>2019-06-23T13:03:38Z</time>
      </trkpt>
      <trkpt lat="49.41653" lon="2.9391">
        <ele>39</ele>
        <time>2019-06-23T13:03:43Z</time>
      </trkpt>
      <trkpt lat="49.41641" lon="2.93899">
        <ele>38</ele>
        <time>2019-06-23T13:03:46Z</time>
      </trkpt>
      <trkpt lat="49.41563" lon="2.93868">
        <ele>36</ele>
        <time>2019-06-23T13:04:00Z</time>
      </trkpt>
      <trkpt lat="49.4151" lon="2.93848">
        <ele>35</ele>
        <time>2019-06-23T13:04:09Z</time>
      </trkpt>
      <trkpt lat="49.4144" lon="2.93809">
        <ele>35</ele>
        <time>2019-06-23T13:04:24Z</time>
      </trkpt>
      <trkpt lat="49.41371" lon="2.93769">
        <ele>37</ele>
        <time>2019-06-23T13:04:39Z</time>
      </trkpt>
      <trkpt lat="49.41321" lon="2.9374">
        <ele>38</ele>
        <time>2019-06-23T13:04:47Z</time>
      </trkpt>
      <trkpt lat="49.41224" lon="2.93677">
        <ele>36</ele>
        <time>2019-06-23T13:05:06Z</time>
      </trkpt>
      <trkpt lat="49.41136" lon="2.9362">
        <ele>39</ele>
        <time>2019-06-23T13:05:24Z</time>
      </trkpt>
      <trkpt lat="49.41132" lon="2.93617">
        <ele>39</ele>
        <time>2019-06-23T13:05:25Z</time>
      </trkpt>
      <trkpt lat="49.41108" lon="2.93602">
        <ele>39</ele>
        <time>2019-06-23T13:05:30Z</time>
      </trkpt>
      <trkpt lat="49.41088" lon="2.9359">
        <ele>40</ele>
        <time>2019-06-23T13:05:34Z</time>
      </trkpt>
      <trkpt lat="49.41074" lon="2.9358">
        <ele>41</ele>
        <time>2019-06-23T13:05:37Z</time>
      </trkpt>
      <trkpt lat="49.41008" lon="2.93538">
        <ele>40</ele>
        <time>2019-06-23T13:05:52Z</time>
      </trkpt>
      <trkpt lat="49.40983" lon="2.93517">
        <ele>42</ele>
        <time>2019-06-23T13:06:00Z</time>
      </trkpt>
      <trkpt lat="49.40989" lon="2.93473">
        <ele>43</ele>
        <time>2019-06-23T13:06:09Z</time>
      </trkpt>
      <trkpt lat="49.40995" lon="2.93456">
        <ele>44</ele>
        <time>2019-06-23T13:06:12Z</time>
      </trkpt>
      <trkpt lat="49.40999" lon="2.93428">
        <ele>44</ele>
        <time>2019-06-23T13:06:16Z</time>
      </trkpt>
      <trkpt lat="49.41008" lon="2.93404">
        <ele>44</ele>
        <time>2019-06-23T13:06:20Z</time>
      </trkpt>
      <trkpt lat="49.4102" lon="2.93357">
        <ele>45</ele>
        <time>2019-06-23T13:06:27Z</time>
      </trkpt>
      <trkpt lat="49.41023" lon="2.93343">
        <ele>45</ele>
        <time>2019-06-23T13:06:29Z</time>
      </trkpt>
      <trkpt lat="49.4103" lon="2.93317">
        <ele>46</ele>
        <time>2019-06-23T13:06:33Z</time>
      </trkpt>
      <trkpt lat="49.41049" lon="2.93263">
        <ele>46</ele>
        <time>2019-06-23T13:06:42Z</time>
      </trkpt>
      <trkpt lat="49.41068" lon="2.93202">
        <ele>48</ele>
        <time>2019-06-23T13:06:52Z</time>
      </trkpt>
      <trkpt lat="49.41079" lon="2.93166">
        <ele>46</ele>
        <time>2019-06-23T13:06:58Z</time>
      </trkpt>
      <trkpt lat="49.41107" lon="2.93054">
        <ele>47</ele>
        <time>2019-06-23T13:07:15Z</time>
      </trkpt>
      <trkpt lat="49.41135" lon="2.92938">
        <ele>50</ele>
        <time>2019-06-23T13:07:31Z</time>
      </trkpt>
      <trkpt lat="49.4117" lon="2.92808">
        <ele>49</ele>
        <time>2019-06-23T13:07:48Z</time>
      </trkpt>
      <trkpt lat="49.41209" lon="2.92656">
        <ele>52</ele>
        <time>2019-06-23T13:08:05Z</time>
      </trkpt>
      <trkpt lat="49.41246" lon="2.92522">
        <ele>50</ele>
        <time>2019-06-23T13:08:19Z</time>
      </trkpt>
      <trkpt lat="49.41294" lon="2.92352">
        <ele>45</ele>
        <time>2019-06-23T13:08:36Z</time>
      </trkpt>
      <trkpt lat="49.4135" lon="2.92212">
        <ele>41</ele>
        <time>2019-06-23T13:08:52Z</time>
      </trkpt>
      <trkpt lat="49.41381" lon="2.9218">
        <ele>41</ele>
        <time>2019-06-23T13:08:58Z</time>
      </trkpt>
      <trkpt lat="49.41399" lon="2.92136">
        <ele>41</ele>
        <time>2019-06-23T13:09:04Z</time>
      </trkpt>
      <trkpt lat="49.4142" lon="2.91966">
        <ele>41</ele>
        <time>2019-06-23T13:09:22Z</time>
      </trkpt>
      <trkpt lat="49.41438" lon="2.91893">
        <ele>41</ele>
        <time>2019-06-23T13:09:30Z</time>
      </trkpt>
      <trkpt lat="49.41485" lon="2.91746">
        <ele>45</ele>
        <time>2019-06-23T13:09:47Z</time>
      </trkpt>
      <trkpt lat="49.41495" lon="2.91713">
        <ele>46</ele>
        <time>2019-06-23T13:09:51Z</time>
      </trkpt>
      <trkpt lat="49.41526" lon="2.91617">
        <ele>47</ele>
        <time>2019-06-23T13:10:03Z</time>
      </trkpt>
      <trkpt lat="49.4157" lon="2.91492">
        <ele>49</ele>
        <time>2019-06-23T13:10:19Z</time>
      </trkpt>
      <trkpt lat="49.41607" lon="2.91373">
        <ele>47</ele>
        <time>2019-06-23T13:10:34Z</time>
      </trkpt>
      <trkpt lat="49.41631" lon="2.91297">
        <ele>46</ele>
        <time>2019-06-23T13:10:44Z</time>
      </trkpt>
      <trkpt lat="49.41644" lon="2.9126">
        <ele>46</ele>
        <time>2019-06-23T13:10:49Z</time>
      </trkpt>
      <trkpt lat="49.41656" lon="2.9122">
        <ele>45</ele>
        <time>2019-06-23T13:10:54Z</time>
      </trkpt>
      <trkpt lat="49.417" lon="2.91076">
        <ele>47</ele>
        <time>2019-06-23T13:11:13Z</time>
      </trkpt>
      <trkpt lat="49.41738" lon="2.90952">
        <ele>50</ele>
        <time>2019-06-23T13:11:30Z</time>
      </trkpt>
      <trkpt lat="49.41796" lon="2.90834">
        <ele>50</ele>
        <time>2019-06-23T13:11:49Z</time>
      </trkpt>
      <trkpt lat="49.4187" lon="2.90768">
        <ele>48</ele>
        <time>2019-06-23T13:12:06Z</time>
      </trkpt>
      <trkpt lat="49.41948" lon="2.90711">
        <ele>50</ele>
        <time>2019-06-23T13:12:24Z</time>
      </trkpt>
      <trkpt lat="49.41956" lon="2.90704">
        <ele>50</ele>
        <time>2019-06-23T13:12:26Z</time>
      </trkpt>
      <trkpt lat="49.42007" lon="2.9064">
        <ele>51</ele>
        <time>2019-06-23T13:12:41Z</time>
      </trkpt>
      <trkpt lat="49.42022" lon="2.90614">
        <ele>51</ele>
        <time>2019-06-23T13:12:46Z</time>
      </trkpt>
      <trkpt lat="49.42064" lon="2.90526">
        <ele>54</ele>
        <time>2019-06-23T13:13:01Z</time>
      </trkpt>
      <trkpt lat="49.42107" lon="2.90409">
        <ele>57</ele>
        <time>2019-06-23T13:13:16Z</time>
      </trkpt>
      <trkpt lat="49.42156" lon="2.90234">
        <ele>54</ele>
        <time>2019-06-23T13:13:36Z</time>
      </trkpt>
      <trkpt lat="49.42172" lon="2.90153">
        <ele>50</ele>
        <time>2019-06-23T13:13:45Z</time>
      </trkpt>
      <trkpt lat="49.42175" lon="2.89994">
        <ele>44</ele>
        <time>2019-06-23T13:14:02Z</time>
      </trkpt>
      <trkpt lat="49.42155" lon="2.8985">
        <ele>46</ele>
        <time>2019-06-23T13:14:17Z</time>
      </trkpt>
      <trkpt lat="49.42151" lon="2.89833">
        <ele>46</ele>
        <time>2019-06-23T13:14:19Z</time>
      </trkpt>
      <trkpt lat="49.42139" lon="2.89741">
        <ele>46</ele>
        <time>2019-06-23T13:14:28Z</time>
      </trkpt>
      <trkpt lat="49.42156" lon="2.89605">
        <ele>45</ele>
        <time>2019-06-23T13:14:45Z</time>
      </trkpt>
      <trkpt lat="49.42191" lon="2.8949">
        <ele>45</ele>
        <time>2019-06-23T13:15:00Z</time>
      </trkpt>
      <trkpt lat="49.42238" lon="2.8934">
        <ele>45</ele>
        <time>2019-06-23T13:15:19Z</time>
      </trkpt>
      <trkpt lat="49.42271" lon="2.89237">
        <ele>43</ele>
        <time>2019-06-23T13:15:32Z</time>
      </trkpt>
      <trkpt lat="49.42316" lon="2.89096">
        <ele>43</ele>
        <time>2019-06-23T13:15:50Z</time>
      </trkpt>
      <trkpt lat="49.42357" lon="2.88957">
        <ele>46</ele>
        <time>2019-06-23T13:16:07Z</time>
      </trkpt>
      <trkpt lat="49.42381" lon="2.8888">
        <ele>45</ele>
        <time>2019-06-23T13:16:16Z</time>
      </trkpt>
      <trkpt lat="49.42414" lon="2.88774">
        <ele>45</ele>
        <time>2019-06-23T13:16:28Z</time>
      </trkpt>
      <trkpt lat="49.42463" lon="2.88615">
        <ele>46</ele>
        <time>2019-06-23T13:16:46Z</time>
      </trkpt>
      <trkpt lat="49.42507" lon="2.88474">
        <ele>45</ele>
        <time>2019-06-23T13:17:02Z</time>
      </trkpt>
      <trkpt lat="49.42513" lon="2.88456">
        <ele>45</ele>
        <time>2019-06-23T13:17:04Z</time>
      </trkpt>
      <trkpt lat="49.4255" lon="2.88335">
        <ele>44</ele>
        <time>2019-06-23T13:17:18Z</time>
      </trkpt>
      <trkpt lat="49.42587" lon="2.8822">
        <ele>44</ele>
        <time>2019-06-23T13:17:32Z</time>
      </trkpt>
      <trkpt lat="49.42615" lon="2.88108">
        <ele>45</ele>
        <time>2019-06-23T13:17:46Z</time>
      </trkpt>
      <trkpt lat="49.42617" lon="2.88073">
        <ele>45</ele>
        <time>2019-06-23T13:17:50Z</time>
      </trkpt>
      <trkpt lat="49.42604" lon="2.87929">
        <ele>45</ele>
        <time>2019-06-23T13:18:06Z</time>
      </trkpt>
      <trkpt lat="49.42587" lon="2.87774">
        <ele>44</ele>
        <time>2019-06-23T13:18:23Z</time>
      </trkpt>
      <trkpt lat="49.42582" lon="2.87678">
        <ele>43</ele>
        <time>2019-06-23T13:18:35Z</time>
      </trkpt>
      <trkpt lat="49.42587" lon="2.87655">
        <ele>43</ele>
        <time>2019-06-23T13:18:38Z</time>
      </trkpt>
      <trkpt lat="49.42578" lon="2.87595">
        <ele>42</ele>
        <time>2019-06-23T13:18:46Z</time>
      </trkpt>
      <trkpt lat="49.4257" lon="2.87584">
        <ele>42</ele>
        <time>2019-06-23T13:18:48Z</time>
      </trkpt>
      <trkpt lat="49.42562" lon="2.87558">
        <ele>40</ele>
        <time>2019-06-23T13:18:52Z</time>
      </trkpt>
      <trkpt lat="49.42558" lon="2.87536">
        <ele>40</ele>
        <time>2019-06-23T13:18:55Z</time>
      </trkpt>
      <trkpt lat="49.42562" lon="2.87516">
        <ele>40</ele>
        <time>2019-06-23T13:18:59Z</time>
      </trkpt>
      <trkpt lat="49.42567" lon="2.8751">
        <ele>40</ele>
        <time>2019-06-23T13:19:11Z</time>
      </trkpt>
      <trkpt lat="49.42569" lon="2.87509">
        <ele>41</ele>
        <time>2019-06-23T13:19:36Z</time>
      </trkpt>
      <trkpt lat="49.4257" lon="2.8751">
        <ele>41</ele>
        <time>2019-06-23T13:20:03Z</time>
      </trkpt>
      <trkpt lat="49.42569" lon="2.87511">
        <ele>41</ele>
        <time>2019-06-23T13:20:30Z</time>
      </trkpt>
      <trkpt lat="49.4257" lon="2.87511">
        <ele>41</ele>
        <time>2019-06-23T13:20:59Z</time>
      </trkpt>
      <trkpt lat="49.4257" lon="2.87512">
        <ele>41</ele>
        <time>2019-06-23T13:21:24Z</time>
      </trkpt>
      <trkpt lat="49.42569" lon="2.87512">
        <ele>41</ele>
        <time>2019-06-23T13:21:57Z</time>
      </trkpt>
      <trkpt lat="49.42569" lon="2.87513">
        <ele>41</ele>
        <time>2019-06-23T13:22:27Z</time>
      </trkpt>
      <trkpt lat="49.4257" lon="2.87512">
        <ele>41</ele>
        <time>2019-06-23T13:22:57Z</time>
      </trkpt>
      <trkpt lat="49.42569" lon="2.87513">
        <ele>41</ele>
        <time>2019-06-23T13:23:31Z</time>
      </trkpt>
      <trkpt lat="49.42569" lon="2.87513">
        <ele>40</ele>
        <time>2019-06-23T13:24:00Z</time>
      </trkpt>
      <trkpt lat="49.42569" lon="2.87513">
        <ele>41</ele>
        <time>2019-06-23T13:24:25Z</time>
      </trkpt>
      <trkpt lat="49.42568" lon="2.87515">
        <ele>40</ele>
        <time>2019-06-23T13:24:50Z</time>
      </trkpt>
      <trkpt lat="49.42565" lon="2.8752">
        <ele>40</ele>
        <time>2019-06-23T13:24:53Z</time>
      </trkpt>
      <trkpt lat="49.42555" lon="2.87507">
        <ele>40</ele>
        <time>2019-06-23T13:24:59Z</time>
      </trkpt>
      <trkpt lat="49.42549" lon="2.87475">
        <ele>39</ele>
        <time>2019-06-23T13:25:04Z</time>
      </trkpt>
      <trkpt lat="49.42545" lon="2.87448">
        <ele>39</ele>
        <time>2019-06-23T13:25:08Z</time>
      </trkpt>
      <trkpt lat="49.4254" lon="2.87409">
        <ele>39</ele>
        <time>2019-06-23T13:25:14Z</time>
      </trkpt>
      <trkpt lat="49.42538" lon="2.87381">
        <ele>40</ele>
        <time>2019-06-23T13:25:18Z</time>
      </trkpt>
      <trkpt lat="49.42527" lon="2.87258">
        <ele>40</ele>
        <time>2019-06-23T13:25:35Z</time>
      </trkpt>
      <trkpt lat="49.42518" lon="2.87198">
        <ele>41</ele>
        <time>2019-06-23T13:25:43Z</time>
      </trkpt>
      <trkpt lat="49.42511" lon="2.87151">
        <ele>42</ele>
        <time>2019-06-23T13:25:49Z</time>
      </trkpt>
      <trkpt lat="49.42495" lon="2.87018">
        <ele>43</ele>
        <time>2019-06-23T13:26:06Z</time>
      </trkpt>
      <trkpt lat="49.42477" lon="2.86871">
        <ele>43</ele>
        <time>2019-06-23T13:26:25Z</time>
      </trkpt>
      <trkpt lat="49.42463" lon="2.86755">
        <ele>43</ele>
        <time>2019-06-23T13:26:40Z</time>
      </trkpt>
      <trkpt lat="49.42448" lon="2.8663">
        <ele>44</ele>
        <time>2019-06-23T13:26:55Z</time>
      </trkpt>
      <trkpt lat="49.42441" lon="2.8658">
        <ele>43</ele>
        <time>2019-06-23T13:27:01Z</time>
      </trkpt>
      <trkpt lat="49.42426" lon="2.86444">
        <ele>45</ele>
        <time>2019-06-23T13:27:17Z</time>
      </trkpt>
      <trkpt lat="49.42412" lon="2.86321">
        <ele>46</ele>
        <time>2019-06-23T13:27:31Z</time>
      </trkpt>
      <trkpt lat="49.42396" lon="2.86189">
        <ele>46</ele>
        <time>2019-06-23T13:27:46Z</time>
      </trkpt>
      <trkpt lat="49.42379" lon="2.86046">
        <ele>45</ele>
        <time>2019-06-23T13:28:03Z</time>
      </trkpt>
      <trkpt lat="49.42363" lon="2.85911">
        <ele>46</ele>
        <time>2019-06-23T13:28:20Z</time>
      </trkpt>
      <trkpt lat="49.42348" lon="2.85788">
        <ele>47</ele>
        <time>2019-06-23T13:28:36Z</time>
      </trkpt>
      <trkpt lat="49.42341" lon="2.85722">
        <ele>47</ele>
        <time>2019-06-23T13:28:45Z</time>
      </trkpt>
      <trkpt lat="49.42337" lon="2.85661">
        <ele>47</ele>
        <time>2019-06-23T13:28:58Z</time>
      </trkpt>
      <trkpt lat="49.42333" lon="2.85649">
        <ele>47</ele>
        <time>2019-06-23T13:29:11Z</time>
      </trkpt>
      <trkpt lat="49.4233" lon="2.85646">
        <ele>47</ele>
        <time>2019-06-23T13:29:46Z</time>
      </trkpt>
      <trkpt lat="49.42329" lon="2.85645">
        <ele>47</ele>
        <time>2019-06-23T13:29:59Z</time>
      </trkpt>
      <trkpt lat="49.42323" lon="2.85621">
        <ele>47</ele>
        <time>2019-06-23T13:30:06Z</time>
      </trkpt>
      <trkpt lat="49.42314" lon="2.85517">
        <ele>48</ele>
        <time>2019-06-23T13:30:20Z</time>
      </trkpt>
      <trkpt lat="49.42306" lon="2.85436">
        <ele>49</ele>
        <time>2019-06-23T13:30:31Z</time>
      </trkpt>
      <trkpt lat="49.42291" lon="2.85305">
        <ele>48</ele>
        <time>2019-06-23T13:30:48Z</time>
      </trkpt>
      <trkpt lat="49.42275" lon="2.85172">
        <ele>49</ele>
        <time>2019-06-23T13:31:05Z</time>
      </trkpt>
      <trkpt lat="49.4226" lon="2.85054">
        <ele>49</ele>
        <time>2019-06-23T13:31:20Z</time>
      </trkpt>
      <trkpt lat="49.42258" lon="2.85038">
        <ele>49</ele>
        <time>2019-06-23T13:31:22Z</time>
      </trkpt>
      <trkpt lat="49.42241" lon="2.84879">
        <ele>45</ele>
        <time>2019-06-23T13:31:41Z</time>
      </trkpt>
      <trkpt lat="49.42224" lon="2.84738">
        <ele>41</ele>
        <time>2019-06-23T13:31:57Z</time>
      </trkpt>
      <trkpt lat="49.42212" lon="2.84621">
        <ele>40</ele>
        <time>2019-06-23T13:32:12Z</time>
      </trkpt>
      <trkpt lat="49.42198" lon="2.84497">
        <ele>39</ele>
        <time>2019-06-23T13:32:29Z</time>
      </trkpt>
      <trkpt lat="49.42192" lon="2.84463">
        <ele>39</ele>
        <time>2019-06-23T13:32:35Z</time>
      </trkpt>
      <trkpt lat="49.42201" lon="2.84453">
        <ele>39</ele>
        <time>2019-06-23T13:32:39Z</time>
      </trkpt>
      <trkpt lat="49.4226" lon="2.84439">
        <ele>37</ele>
        <time>2019-06-23T13:32:54Z</time>
      </trkpt>
      <trkpt lat="49.42273" lon="2.84437">
        <ele>37</ele>
        <time>2019-06-23T13:32:57Z</time>
      </trkpt>
      <trkpt lat="49.42298" lon="2.84435">
        <ele>37</ele>
        <time>2019-06-23T13:33:03Z</time>
      </trkpt>
      <trkpt lat="49.42358" lon="2.84416">
        <ele>38</ele>
        <time>2019-06-23T13:33:19Z</time>
      </trkpt>
      <trkpt lat="49.42388" lon="2.84406">
        <ele>39</ele>
        <time>2019-06-23T13:33:30Z</time>
      </trkpt>
      <trkpt lat="49.42404" lon="2.84375">
        <ele>38</ele>
        <time>2019-06-23T13:33:43Z</time>
      </trkpt>
      <trkpt lat="49.42414" lon="2.84325">
        <ele>36</ele>
        <time>2019-06-23T13:33:57Z</time>
      </trkpt>
      <trkpt lat="49.42416" lon="2.84322">
        <ele>36</ele>
        <time>2019-06-23T13:33:59Z</time>
      </trkpt>
      <trkpt lat="49.42419" lon="2.84318">
        <ele>36</ele>
        <time>2019-06-23T13:34:12Z</time>
      </trkpt>
      <trkpt lat="49.42421" lon="2.84321">
        <ele>36</ele>
        <time>2019-06-23T13:34:30Z</time>
      </trkpt>
      <trkpt lat="49.42422" lon="2.84322">
        <ele>36</ele>
        <time>2019-06-23T13:34:52Z</time>
      </trkpt>
      <trkpt lat="49.42422" lon="2.84322">
        <ele>36</ele>
        <time>2019-06-23T13:35:02Z</time>
      </trkpt>
      <trkpt lat="49.42426" lon="2.84318">
        <ele>36</ele>
        <time>2019-06-23T13:35:07Z</time>
      </trkpt>
      <trkpt lat="49.42428" lon="2.84318">
        <ele>36</ele>
        <time>2019-06-23T13:35:09Z</time>
      </trkpt>
      <trkpt lat="49.42429" lon="2.84318">
        <ele>36</ele>
        <time>2019-06-23T13:35:18Z</time>
      </trkpt>
      <trkpt lat="49.4243" lon="2.84317">
        <ele>36</ele>
        <time>2019-06-23T13:35:56Z</time>
      </trkpt>
      <trkpt lat="49.4243" lon="2.84319">
        <ele>36</ele>
        <time>2019-06-23T13:36:29Z</time>
      </trkpt>
      <trkpt lat="49.4243" lon="2.84319">
        <ele>36</ele>
        <time>2019-06-23T13:37:00Z</time>
      </trkpt>
      <trkpt lat="49.4243" lon="2.84318">
        <ele>36</ele>
        <time>2019-06-23T13:37:35Z</time>
      </trkpt>
      <trkpt lat="49.4243" lon="2.8432">
        <ele>36</ele>
        <time>2019-06-23T13:38:06Z</time>
      </trkpt>
      <trkpt lat="49.42431" lon="2.8432">
        <ele>36</ele>
        <time>2019-06-23T13:38:45Z</time>
      </trkpt>
      <trkpt lat="49.4243" lon="2.84319">
        <ele>36</ele>
        <time>2019-06-23T13:39:22Z</time>
      </trkpt>
      <trkpt lat="49.42429" lon="2.84317">
        <ele>36</ele>
        <time>2019-06-23T13:39:59Z</time>
      </trkpt>
      <trkpt lat="49.42429" lon="2.84319">
        <ele>36</ele>
        <time>2019-06-23T13:40:40Z</time>
      </trkpt>
      <trkpt lat="49.42431" lon="2.84319">
        <ele>36</ele>
        <time>2019-06-23T13:41:18Z</time>
      </trkpt>
      <trkpt lat="49.4243" lon="2.84319">
        <ele>36</ele>
        <time>2019-06-23T13:42:00Z</time>
      </trkpt>
      <trkpt lat="49.4243" lon="2.84319">
        <ele>36</ele>
        <time>2019-06-23T13:42:36Z</time>
      </trkpt>
      <trkpt lat="49.42431" lon="2.84318">
        <ele>36</ele>
        <time>2019-06-23T13:43:09Z</time>
      </trkpt>
      <trkpt lat="49.4243" lon="2.84318">
        <ele>36</ele>
        <time>2019-06-23T13:43:46Z</time>
      </trkpt>
      <trkpt lat="49.4243" lon="2.84318">
        <ele>36</ele>
        <time>2019-06-23T13:44:26Z</time>
      </trkpt>
      <trkpt lat="49.42431" lon="2.84318">
        <ele>36</ele>
        <time>2019-06-23T13:45:08Z</time>
      </trkpt>
      <trkpt lat="49.42429" lon="2.8432">
        <ele>36</ele>
        <time>2019-06-23T13:45:45Z</time>
      </trkpt>
      <trkpt lat="49.42429" lon="2.84319">
        <ele>36</ele>
        <time>2019-06-23T13:46:21Z</time>
      </trkpt>
      <trkpt lat="49.42428" lon="2.84319">
        <ele>36</ele>
        <time>2019-06-23T13:46:47Z</time>
      </trkpt>
      <trkpt lat="49.42429" lon="2.84318">
        <ele>36</ele>
        <time>2019-06-23T13:47:24Z</time>
      </trkpt>
      <trkpt lat="49.42429" lon="2.84319">
        <ele>36</ele>
        <time>2019-06-23T13:47:58Z</time>
      </trkpt>
      <trkpt lat="49.4243" lon="2.84318">
        <ele>36</ele>
        <time>2019-06-23T13:48:35Z</time>
      </trkpt>
      <trkpt lat="49.4243" lon="2.84318">
        <ele>36</ele>
        <time>2019-06-23T13:49:11Z</time>
      </trkpt>
      <trkpt lat="49.4243" lon="2.84319">
        <ele>36</ele>
        <time>2019-06-23T13:49:52Z</time>
      </trkpt>
      <trkpt lat="49.4243" lon="2.84317">
        <ele>36</ele>
        <time>2019-06-23T13:50:31Z</time>
      </trkpt>
      <trkpt lat="49.4243" lon="2.84319">
        <ele>36</ele>
        <time>2019-06-23T13:51:08Z</time>
      </trkpt>
      <trkpt lat="49.42429" lon="2.84321">
        <ele>36</ele>
        <time>2019-06-23T13:51:48Z</time>
      </trkpt>
      <trkpt lat="49.4243" lon="2.84322">
        <ele>36</ele>
        <time>2019-06-23T13:52:26Z</time>
      </trkpt>
      <trkpt lat="49.42429" lon="2.84321">
        <ele>36</ele>
        <time>2019-06-23T13:53:05Z</time>
      </trkpt>
      <trkpt lat="49.42429" lon="2.8432">
        <ele>36</ele>
        <time>2019-06-23T13:53:37Z</time>
      </trkpt>
      <trkpt lat="49.42429" lon="2.8432">
        <ele>36</ele>
        <time>2019-06-23T13:54:12Z</time>
      </trkpt>
      <trkpt lat="49.42431" lon="2.8432">
        <ele>36</ele>
        <time>2019-06-23T13:54:52Z</time>
      </trkpt>
      <trkpt lat="49.4243" lon="2.84321">
        <ele>36</ele>
        <time>2019-06-23T13:55:28Z</time>
      </trkpt>
      <trkpt lat="49.42428" lon="2.84321">
        <ele>36</ele>
        <time>2019-06-23T13:56:06Z</time>
      </trkpt>
      <trkpt lat="49.42427" lon="2.84321">
        <ele>36</ele>
        <time>2019-06-23T13:56:42Z</time>
      </trkpt>
      <trkpt lat="49.42428" lon="2.84319">
        <ele>36</ele>
        <time>2019-06-23T13:57:20Z</time>
      </trkpt>
      <trkpt lat="49.42429" lon="2.84319">
        <ele>36</ele>
        <time>2019-06-23T13:58:04Z</time>
      </trkpt>
      <trkpt lat="49.4243" lon="2.84319">
        <ele>36</ele>
        <time>2019-06-23T13:58:44Z</time>
      </trkpt>
      <trkpt lat="49.4243" lon="2.84319">
        <ele>36</ele>
        <time>2019-06-23T13:59:22Z</time>
      </trkpt>
      <trkpt lat="49.4243" lon="2.84319">
        <ele>36</ele>
        <time>2019-06-23T13:59:57Z</time>
      </trkpt>
      <trkpt lat="49.4243" lon="2.84319">
        <ele>36</ele>
        <time>2019-06-23T14:00:34Z</time>
      </trkpt>
      <trkpt lat="49.4243" lon="2.84319">
        <ele>36</ele>
        <time>2019-06-23T14:00:57Z</time>
      </trkpt>
      <trkpt lat="49.4243" lon="2.84319">
        <ele>36</ele>
        <time>2019-06-23T14:01:07Z</time>
      </trkpt>
      <trkpt lat="49.4242" lon="2.84323">
        <ele>36</ele>
        <time>2019-06-23T14:01:20Z</time>
      </trkpt>
      <trkpt lat="49.42413" lon="2.84333">
        <ele>36</ele>
        <time>2019-06-23T14:01:34Z</time>
      </trkpt>
      <trkpt lat="49.42411" lon="2.84337">
        <ele>37</ele>
        <time>2019-06-23T14:01:57Z</time>
      </trkpt>
      <trkpt lat="49.42406" lon="2.84348">
        <ele>37</ele>
        <time>2019-06-23T14:02:11Z</time>
      </trkpt>
      <trkpt lat="49.42397" lon="2.84381">
        <ele>39</ele>
        <time>2019-06-23T14:02:22Z</time>
      </trkpt>
      <trkpt lat="49.42379" lon="2.8441">
        <ele>39</ele>
        <time>2019-06-23T14:02:34Z</time>
      </trkpt>
      <trkpt lat="49.42341" lon="2.8442">
        <ele>38</ele>
        <time>2019-06-23T14:02:48Z</time>
      </trkpt>
      <trkpt lat="49.42301" lon="2.84431">
        <ele>37</ele>
        <time>2019-06-23T14:03:01Z</time>
      </trkpt>
      <trkpt lat="49.42244" lon="2.84446">
        <ele>38</ele>
        <time>2019-06-23T14:03:19Z</time>
      </trkpt>
      <trkpt lat="49.42202" lon="2.84456">
        <ele>39</ele>
        <time>2019-06-23T14:03:33Z</time>
      </trkpt>
      <trkpt lat="49.42196" lon="2.84421">
        <ele>39</ele>
        <time>2019-06-23T14:03:41Z</time>
      </trkpt>
      <trkpt lat="49.42187" lon="2.84348">
        <ele>40</ele>
        <time>2019-06-23T14:03:56Z</time>
      </trkpt>
      <trkpt lat="49.42182" lon="2.84297">
        <ele>41</ele>
        <time>2019-06-23T14:04:09Z</time>
      </trkpt>
      <trkpt lat="49.42173" lon="2.84237">
        <ele>41</ele>
        <time>2019-06-23T14:04:22Z</time>
      </trkpt>
      <trkpt lat="49.42168" lon="2.84187">
        <ele>40</ele>
        <time>2019-06-23T14:04:32Z</time>
      </trkpt>
      <trkpt lat="49.42156" lon="2.84089">
        <ele>39</ele>
        <time>2019-06-23T14:04:50Z</time>
      </trkpt>
      <trkpt lat="49.42145" lon="2.84023">
        <ele>40</ele>
        <time>2019-06-23T14:05:03Z</time>
      </trkpt>
      <trkpt lat="49.42141" lon="2.83974">
        <ele>42</ele>
        <time>2019-06-23T14:05:13Z</time>
      </trkpt>
      <trkpt lat="49.4213" lon="2.83949">
        <ele>42</ele>
        <time>2019-06-23T14:05:19Z</time>
      </trkpt>
      <trkpt lat="49.42136" lon="2.83934">
        <ele>42</ele>
        <time>2019-06-23T14:05:24Z</time>
      </trkpt>
      <trkpt lat="49.42141" lon="2.83936">
        <ele>42</ele>
        <time>2019-06-23T14:05:35Z</time>
      </trkpt>
      <trkpt lat="49.42141" lon="2.83936">
        <ele>42</ele>
        <time>2019-06-23T14:05:42Z</time>
      </trkpt>
      <trkpt lat="49.4214" lon="2.83938">
        <ele>42</ele>
        <time>2019-06-23T14:05:55Z</time>
      </trkpt>
      <trkpt lat="49.42141" lon="2.83939">
        <ele>42</ele>
        <time>2019-06-23T14:06:01Z</time>
      </trkpt>
      <trkpt lat="49.4214" lon="2.83938">
        <ele>42</ele>
        <time>2019-06-23T14:06:15Z</time>
      </trkpt>
      <trkpt lat="49.4214" lon="2.83938">
        <ele>42</ele>
        <time>2019-06-23T14:06:21Z</time>
      </trkpt>
      <trkpt lat="49.42142" lon="2.83934">
        <ele>42</ele>
        <time>2019-06-23T14:06:27Z</time>
      </trkpt>
      <trkpt lat="49.42148" lon="2.83932">
        <ele>42</ele>
        <time>2019-06-23T14:06:41Z</time>
      </trkpt>
      <trkpt lat="49.42146" lon="2.83933">
        <ele>42</ele>
        <time>2019-06-23T14:07:00Z</time>
      </trkpt>
      <trkpt lat="49.42146" lon="2.83933">
        <ele>42</ele>
        <time>2019-06-23T14:07:31Z</time>
      </trkpt>
      <trkpt lat="49.42146" lon="2.83932">
        <ele>42</ele>
        <time>2019-06-23T14:08:04Z</time>
      </trkpt>
      <trkpt lat="49.42145" lon="2.83933">
        <ele>42</ele>
        <time>2019-06-23T14:08:38Z</time>
      </trkpt>
      <trkpt lat="49.42144" lon="2.83934">
        <ele>42</ele>
        <time>2019-06-23T14:09:06Z</time>
      </trkpt>
      <trkpt lat="49.42143" lon="2.83935">
        <ele>42</ele>
        <time>2019-06-23T14:09:39Z</time>
      </trkpt>
      <trkpt lat="49.42143" lon="2.83935">
        <ele>42</ele>
        <time>2019-06-23T14:10:06Z</time>
      </trkpt>
      <trkpt lat="49.42142" lon="2.83936">
        <ele>42</ele>
        <time>2019-06-23T14:10:32Z</time>
      </trkpt>
      <trkpt lat="49.42141" lon="2.83937">
        <ele>42</ele>
        <time>2019-06-23T14:11:05Z</time>
      </trkpt>
      <trkpt lat="49.42141" lon="2.83937">
        <ele>42</ele>
        <time>2019-06-23T14:11:28Z</time>
      </trkpt>
      <trkpt lat="49.42142" lon="2.83938">
        <ele>42</ele>
        <time>2019-06-23T14:12:01Z</time>
      </trkpt>
      <trkpt lat="49.42142" lon="2.83938">
        <ele>42</ele>
        <time>2019-06-23T14:12:30Z</time>
      </trkpt>
      <trkpt lat="49.42139" lon="2.83938">
        <ele>42</ele>
        <time>2019-06-23T14:12:59Z</time>
      </trkpt>
      <trkpt lat="49.4214" lon="2.83938">
        <ele>42</ele>
        <time>2019-06-23T14:13:27Z</time>
      </trkpt>
      <trkpt lat="49.42139" lon="2.83938">
        <ele>42</ele>
        <time>2019-06-23T14:13:56Z</time>
      </trkpt>
      <trkpt lat="49.42139" lon="2.83939">
        <ele>42</ele>
        <time>2019-06-23T14:14:08Z</time>
      </trkpt>
      <trkpt lat="49.42139" lon="2.8394">
        <ele>42</ele>
        <time>2019-06-23T14:14:20Z</time>
      </trkpt>
      <trkpt lat="49.42139" lon="2.83939">
        <ele>42</ele>
        <time>2019-06-23T14:14:35Z</time>
      </trkpt>
      <trkpt lat="49.4214" lon="2.83938">
        <ele>42</ele>
        <time>2019-06-23T14:14:51Z</time>
      </trkpt>
      <trkpt lat="49.4214" lon="2.83937">
        <ele>42</ele>
        <time>2019-06-23T14:15:05Z</time>
      </trkpt>
      <trkpt lat="49.4214" lon="2.83936">
        <ele>42</ele>
        <time>2019-06-23T14:15:30Z</time>
      </trkpt>
      <trkpt lat="49.4214" lon="2.83936">
        <ele>42</ele>
        <time>2019-06-23T14:15:56Z</time>
      </trkpt>
      <trkpt lat="49.4214" lon="2.83936">
        <ele>42</ele>
        <time>2019-06-23T14:16:19Z</time>
      </trkpt>
      <trkpt lat="49.42139" lon="2.83935">
        <ele>42</ele>
        <time>2019-06-23T14:16:54Z</time>
      </trkpt>
      <trkpt lat="49.42139" lon="2.83937">
        <ele>42</ele>
        <time>2019-06-23T14:17:22Z</time>
      </trkpt>
      <trkpt lat="49.42139" lon="2.83939">
        <ele>42</ele>
        <time>2019-06-23T14:17:36Z</time>
      </trkpt>
      <trkpt lat="49.42139" lon="2.83937">
        <ele>42</ele>
        <time>2019-06-23T14:18:05Z</time>
      </trkpt>
      <trkpt lat="49.42139" lon="2.83937">
        <ele>42</ele>
        <time>2019-06-23T14:18:21Z</time>
      </trkpt>
      <trkpt lat="49.4214" lon="2.83937">
        <ele>42</ele>
        <time>2019-06-23T14:18:44Z</time>
      </trkpt>
      <trkpt lat="49.42139" lon="2.83936">
        <ele>42</ele>
        <time>2019-06-23T14:19:09Z</time>
      </trkpt>
      <trkpt lat="49.42139" lon="2.83936">
        <ele>42</ele>
        <time>2019-06-23T14:19:17Z</time>
      </trkpt>
    </trkseg>
  </trk>
  <trk>
    <name><![CDATA[Tracé actuel: 23 JUIL 2019 10:50]]></name>
    <trkseg>
      <trkpt lat="48.55358" lon="2.56832">
        <ele>82</ele>
        <time>2019-07-23T08:50:56Z</time>
      </trkpt>
      <trkpt lat="48.55358" lon="2.5683">
        <ele>82</ele>
        <time>2019-07-23T08:51:20Z</time>
      </trkpt>
      <trkpt lat="48.55359" lon="2.56816">
        <ele>82</ele>
        <time>2019-07-23T08:51:46Z</time>
      </trkpt>
      <trkpt lat="48.55352" lon="2.56807">
        <ele>81</ele>
        <time>2019-07-23T08:52:16Z</time>
      </trkpt>
      <trkpt lat="48.55349" lon="2.56808">
        <ele>82</ele>
        <time>2019-07-23T08:52:39Z</time>
      </trkpt>
      <trkpt lat="48.55346" lon="2.56804">
        <ele>81</ele>
        <time>2019-07-23T08:53:03Z</time>
      </trkpt>
      <trkpt lat="48.55347" lon="2.56807">
        <ele>82</ele>
        <time>2019-07-23T08:53:26Z</time>
      </trkpt>
    </trkseg>
  </trk>
  <trk>
    <name><![CDATA[Tracé actuel: 01 SEP 2019 08:32]]></name>
    <trkseg>
      <trkpt lat="48.86273" lon="2.91155">
        <ele>89</ele>
        <time>2019-09-01T06:32:33Z</time>
      </trkpt>
      <trkpt lat="48.86275" lon="2.91157">
        <ele>89</ele>
        <time>2019-09-01T06:32:34Z</time>
      </trkpt>
      <trkpt lat="48.86294" lon="2.91171">
        <ele>92</ele>
        <time>2019-09-01T06:32:49Z</time>
      </trkpt>
      <trkpt lat="48.86304" lon="2.91176">
        <ele>93</ele>
        <time>2019-09-01T06:32:56Z</time>
      </trkpt>
      <trkpt lat="48.86321" lon="2.91186">
        <ele>94</ele>
        <time>2019-09-01T06:33:07Z</time>
      </trkpt>
      <trkpt lat="48.86339" lon="2.91195">
        <ele>99</ele>
        <time>2019-09-01T06:33:20Z</time>
      </trkpt>
      <trkpt lat="48.86356" lon="2.91207">
        <ele>100</ele>
        <time>2019-09-01T06:33:31Z</time>
      </trkpt>
      <trkpt lat="48.86372" lon="2.91222">
        <ele>101</ele>
        <time>2019-09-01T06:33:45Z</time>
      </trkpt>
      <trkpt lat="48.86378" lon="2.91219">
        <ele>101</ele>
        <time>2019-09-01T06:33:50Z</time>
      </trkpt>
      <trkpt lat="48.86381" lon="2.91211">
        <ele>101</ele>
        <time>2019-09-01T06:33:54Z</time>
      </trkpt>
      <trkpt lat="48.86388" lon="2.91152">
        <ele>99</ele>
        <time>2019-09-01T06:34:09Z</time>
      </trkpt>
      <trkpt lat="48.86402" lon="2.91084">
        <ele>99</ele>
        <time>2019-09-01T06:34:21Z</time>
      </trkpt>
      <trkpt lat="48.8642" lon="2.91025">
        <ele>102</ele>
        <time>2019-09-01T06:34:33Z</time>
      </trkpt>
      <trkpt lat="48.86446" lon="2.91019">
        <ele>103</ele>
        <time>2019-09-01T06:34:45Z</time>
      </trkpt>
      <trkpt lat="48.86471" lon="2.91019">
        <ele>105</ele>
        <time>2019-09-01T06:34:56Z</time>
      </trkpt>
      <trkpt lat="48.86501" lon="2.91038">
        <ele>109</ele>
        <time>2019-09-01T06:35:09Z</time>
      </trkpt>
      <trkpt lat="48.86535" lon="2.91041">
        <ele>110</ele>
        <time>2019-09-01T06:35:21Z</time>
      </trkpt>
      <trkpt lat="48.86574" lon="2.91054">
        <ele>111</ele>
        <time>2019-09-01T06:35:35Z</time>
      </trkpt>
      <trkpt lat="48.86611" lon="2.91064">
        <ele>116</ele>
        <time>2019-09-01T06:35:50Z</time>
      </trkpt>
      <trkpt lat="48.8664" lon="2.91065">
        <ele>118</ele>
        <time>2019-09-01T06:36:02Z</time>
      </trkpt>
      <trkpt lat="48.86673" lon="2.91053">
        <ele>122</ele>
        <time>2019-09-01T06:36:16Z</time>
      </trkpt>
      <trkpt lat="48.86702" lon="2.91033">
        <ele>123</ele>
        <time>2019-09-01T06:36:29Z</time>
      </trkpt>
      <trkpt lat="48.86709" lon="2.91034">
        <ele>123</ele>
        <time>2019-09-01T06:36:33Z</time>
      </trkpt>
      <trkpt lat="48.86711" lon="2.91026">
        <ele>123</ele>
        <time>2019-09-01T06:36:37Z</time>
      </trkpt>
      <trkpt lat="48.86711" lon="2.90983">
        <ele>122</ele>
        <time>2019-09-01T06:36:50Z</time>
      </trkpt>
      <trkpt lat="48.86713" lon="2.9093">
        <ele>122</ele>
        <time>2019-09-01T06:37:00Z</time>
      </trkpt>
      <trkpt lat="48.86709" lon="2.90867">
        <ele>120</ele>
        <time>2019-09-01T06:37:10Z</time>
      </trkpt>
      <trkpt lat="48.86682" lon="2.90773">
        <ele>117</ele>
        <time>2019-09-01T06:37:24Z</time>
      </trkpt>
      <trkpt lat="48.8665" lon="2.90695">
        <ele>110</ele>
        <time>2019-09-01T06:37:32Z</time>
      </trkpt>
      <trkpt lat="48.86617" lon="2.90646">
        <ele>108</ele>
        <time>2019-09-01T06:37:38Z</time>
      </trkpt>
      <trkpt lat="48.86615" lon="2.90636">
        <ele>108</ele>
        <time>2019-09-01T06:37:39Z</time>
      </trkpt>
      <trkpt lat="48.86614" lon="2.90625">
        <ele>108</ele>
        <time>2019-09-01T06:37:40Z</time>
      </trkpt>
      <trkpt lat="48.86615" lon="2.90614">
        <ele>108</ele>
        <time>2019-09-01T06:37:41Z</time>
      </trkpt>
      <trkpt lat="48.86616" lon="2.90604">
        <ele>108</ele>
        <time>2019-09-01T06:37:42Z</time>
      </trkpt>
      <trkpt lat="48.86622" lon="2.90536">
        <ele>107</ele>
        <time>2019-09-01T06:37:50Z</time>
      </trkpt>
      <trkpt lat="48.86624" lon="2.90516">
        <ele>107</ele>
        <time>2019-09-01T06:37:53Z</time>
      </trkpt>
      <trkpt lat="48.86625" lon="2.90509">
        <ele>107</ele>
        <time>2019-09-01T06:37:54Z</time>
      </trkpt>
      <trkpt lat="48.86627" lon="2.90472">
        <ele>107</ele>
        <time>2019-09-01T06:38:01Z</time>
      </trkpt>
      <trkpt lat="48.86616" lon="2.90435">
        <ele>107</ele>
        <time>2019-09-01T06:38:13Z</time>
      </trkpt>
      <trkpt lat="48.86609" lon="2.90404">
        <ele>107</ele>
        <time>2019-09-01T06:38:22Z</time>
      </trkpt>
      <trkpt lat="48.86606" lon="2.90344">
        <ele>107</ele>
        <time>2019-09-01T06:38:33Z</time>
      </trkpt>
      <trkpt lat="48.86606" lon="2.90332">
        <ele>107</ele>
        <time>2019-09-01T06:38:35Z</time>
      </trkpt>
      <trkpt lat="48.86606" lon="2.90298">
        <ele>107</ele>
        <time>2019-09-01T06:38:40Z</time>
      </trkpt>
      <trkpt lat="48.86606" lon="2.90283">
        <ele>107</ele>
        <time>2019-09-01T06:38:42Z</time>
      </trkpt>
      <trkpt lat="48.86597" lon="2.90215">
        <ele>106</ele>
        <time>2019-09-01T06:38:53Z</time>
      </trkpt>
      <trkpt lat="48.86585" lon="2.90208">
        <ele>106</ele>
        <time>2019-09-01T06:38:56Z</time>
      </trkpt>
      <trkpt lat="48.86567" lon="2.90205">
        <ele>102</ele>
        <time>2019-09-01T06:39:00Z</time>
      </trkpt>
      <trkpt lat="48.86549" lon="2.90205">
        <ele>102</ele>
        <time>2019-09-01T06:39:03Z</time>
      </trkpt>
      <trkpt lat="48.86528" lon="2.90187">
        <ele>101</ele>
        <time>2019-09-01T06:39:08Z</time>
      </trkpt>
      <trkpt lat="48.86529" lon="2.90179">
        <ele>101</ele>
        <time>2019-09-01T06:39:09Z</time>
      </trkpt>
      <trkpt lat="48.86529" lon="2.90173">
        <ele>101</ele>
        <time>2019-09-01T06:39:10Z</time>
      </trkpt>
      <trkpt lat="48.86531" lon="2.90118">
        <ele>102</ele>
        <time>2019-09-01T06:39:19Z</time>
      </trkpt>
      <trkpt lat="48.86531" lon="2.90098">
        <ele>102</ele>
        <time>2019-09-01T06:39:22Z</time>
      </trkpt>
      <trkpt lat="48.86532" lon="2.90091">
        <ele>102</ele>
        <time>2019-09-01T06:39:23Z</time>
      </trkpt>
      <trkpt lat="48.86533" lon="2.90059">
        <ele>103</ele>
        <time>2019-09-01T06:39:28Z</time>
      </trkpt>
      <trkpt lat="48.86534" lon="2.90044">
        <ele>103</ele>
        <time>2019-09-01T06:39:30Z</time>
      </trkpt>
      <trkpt lat="48.86534" lon="2.90037">
        <ele>103</ele>
        <time>2019-09-01T06:39:31Z</time>
      </trkpt>
      <trkpt lat="48.86533" lon="2.89989">
        <ele>104</ele>
        <time>2019-09-01T06:39:39Z</time>
      </trkpt>
      <trkpt lat="48.86529" lon="2.89924">
        <ele>104</ele>
        <time>2019-09-01T06:39:50Z</time>
      </trkpt>
      <trkpt lat="48.86523" lon="2.89876">
        <ele>105</ele>
        <time>2019-09-01T06:39:57Z</time>
      </trkpt>
      <trkpt lat="48.86518" lon="2.89855">
        <ele>104</ele>
        <time>2019-09-01T06:40:00Z</time>
      </trkpt>
      <trkpt lat="48.86517" lon="2.89848">
        <ele>104</ele>
        <time>2019-09-01T06:40:01Z</time>
      </trkpt>
      <trkpt lat="48.86515" lon="2.89833">
        <ele>103</ele>
        <time>2019-09-01T06:40:03Z</time>
      </trkpt>
      <trkpt lat="48.86515" lon="2.89825">
        <ele>103</ele>
        <time>2019-09-01T06:40:04Z</time>
      </trkpt>
      <trkpt lat="48.86513" lon="2.89776">
        <ele>104</ele>
        <time>2019-09-01T06:40:11Z</time>
      </trkpt>
      <trkpt lat="48.86513" lon="2.89768">
        <ele>104</ele>
        <time>2019-09-01T06:40:12Z</time>
      </trkpt>
      <trkpt lat="48.86517" lon="2.89736">
        <ele>104</ele>
        <time>2019-09-01T06:40:16Z</time>
      </trkpt>
      <trkpt lat="48.86519" lon="2.89715">
        <ele>104</ele>
        <time>2019-09-01T06:40:19Z</time>
      </trkpt>
      <trkpt lat="48.86523" lon="2.89675">
        <ele>104</ele>
        <time>2019-09-01T06:40:25Z</time>
      </trkpt>
      <trkpt lat="48.86524" lon="2.89584">
        <ele>102</ele>
        <time>2019-09-01T06:40:37Z</time>
      </trkpt>
      <trkpt lat="48.86523" lon="2.89569">
        <ele>102</ele>
        <time>2019-09-01T06:40:39Z</time>
      </trkpt>
      <trkpt lat="48.86525" lon="2.89493">
        <ele>101</ele>
        <time>2019-09-01T06:40:49Z</time>
      </trkpt>
      <trkpt lat="48.86525" lon="2.89457">
        <ele>101</ele>
        <time>2019-09-01T06:40:53Z</time>
      </trkpt>
      <trkpt lat="48.86529" lon="2.89421">
        <ele>101</ele>
        <time>2019-09-01T06:40:57Z</time>
      </trkpt>
      <trkpt lat="48.86534" lon="2.89303">
        <ele>100</ele>
        <time>2019-09-01T06:41:10Z</time>
      </trkpt>
      <trkpt lat="48.86547" lon="2.89202">
        <ele>101</ele>
        <time>2019-09-01T06:41:26Z</time>
      </trkpt>
      <trkpt lat="48.86559" lon="2.89122">
        <ele>100</ele>
        <time>2019-09-01T06:41:38Z</time>
      </trkpt>
      <trkpt lat="48.86569" lon="2.89075">
        <ele>100</ele>
        <time>2019-09-01T06:41:45Z</time>
      </trkpt>
      <trkpt lat="48.86583" lon="2.88963">
        <ele>100</ele>
        <time>2019-09-01T06:42:01Z</time>
      </trkpt>
      <trkpt lat="48.86597" lon="2.88888">
        <ele>103</ele>
        <time>2019-09-01T06:42:14Z</time>
      </trkpt>
      <trkpt lat="48.86601" lon="2.88867">
        <ele>103</ele>
        <time>2019-09-01T06:42:18Z</time>
      </trkpt>
      <trkpt lat="48.86614" lon="2.88856">
        <ele>103</ele>
        <time>2019-09-01T06:42:23Z</time>
      </trkpt>
      <trkpt lat="48.86664" lon="2.88886">
        <ele>104</ele>
        <time>2019-09-01T06:42:38Z</time>
      </trkpt>
      <trkpt lat="48.86691" lon="2.88898">
        <ele>106</ele>
        <time>2019-09-01T06:42:47Z</time>
      </trkpt>
      <trkpt lat="48.86739" lon="2.88929">
        <ele>107</ele>
        <time>2019-09-01T06:43:01Z</time>
      </trkpt>
      <trkpt lat="48.86787" lon="2.88955">
        <ele>109</ele>
        <time>2019-09-01T06:43:15Z</time>
      </trkpt>
      <trkpt lat="48.8684" lon="2.88972">
        <ele>110</ele>
        <time>2019-09-01T06:43:30Z</time>
      </trkpt>
      <trkpt lat="48.86879" lon="2.88995">
        <ele>109</ele>
        <time>2019-09-01T06:43:41Z</time>
      </trkpt>
      <trkpt lat="48.86892" lon="2.89009">
        <ele>110</ele>
        <time>2019-09-01T06:43:45Z</time>
      </trkpt>
      <trkpt lat="48.8694" lon="2.89061">
        <ele>110</ele>
        <time>2019-09-01T06:44:00Z</time>
      </trkpt>
      <trkpt lat="48.8698" lon="2.89119">
        <ele>110</ele>
        <time>2019-09-01T06:44:14Z</time>
      </trkpt>
      <trkpt lat="48.87002" lon="2.89176">
        <ele>109</ele>
        <time>2019-09-01T06:44:26Z</time>
      </trkpt>
      <trkpt lat="48.87016" lon="2.89245">
        <ele>110</ele>
        <time>2019-09-01T06:44:38Z</time>
      </trkpt>
      <trkpt lat="48.87025" lon="2.89279">
        <ele>110</ele>
        <time>2019-09-01T06:44:45Z</time>
      </trkpt>
      <trkpt lat="48.87081" lon="2.89269">
        <ele>108</ele>
        <time>2019-09-01T06:44:55Z</time>
      </trkpt>
      <trkpt lat="48.87196" lon="2.89234">
        <ele>99</ele>
        <time>2019-09-01T06:45:12Z</time>
      </trkpt>
      <trkpt lat="48.87285" lon="2.89206">
        <ele>97</ele>
        <time>2019-09-01T06:45:27Z</time>
      </trkpt>
      <trkpt lat="48.87355" lon="2.8918">
        <ele>97</ele>
        <time>2019-09-01T06:45:40Z</time>
      </trkpt>
      <trkpt lat="48.87429" lon="2.89156">
        <ele>96</ele>
        <time>2019-09-01T06:45:54Z</time>
      </trkpt>
      <trkpt lat="48.87496" lon="2.89148">
        <ele>96</ele>
        <time>2019-09-01T06:46:08Z</time>
      </trkpt>
      <trkpt lat="48.87525" lon="2.89145">
        <ele>95</ele>
        <time>2019-09-01T06:46:14Z</time>
      </trkpt>
      <trkpt lat="48.87583" lon="2.89139">
        <ele>94</ele>
        <time>2019-09-01T06:46:26Z</time>
      </trkpt>
      <trkpt lat="48.87592" lon="2.89137">
        <ele>94</ele>
        <time>2019-09-01T06:46:28Z</time>
      </trkpt>
      <trkpt lat="48.87654" lon="2.89133">
        <ele>94</ele>
        <time>2019-09-01T06:46:41Z</time>
      </trkpt>
      <trkpt lat="48.87684" lon="2.89132">
        <ele>93</ele>
        <time>2019-09-01T06:46:48Z</time>
      </trkpt>
      <trkpt lat="48.87693" lon="2.89131">
        <ele>93</ele>
        <time>2019-09-01T06:46:50Z</time>
      </trkpt>
      <trkpt lat="48.87709" lon="2.89136">
        <ele>92</ele>
        <time>2019-09-01T06:46:54Z</time>
      </trkpt>
      <trkpt lat="48.87726" lon="2.89145">
        <ele>92</ele>
        <time>2019-09-01T06:46:58Z</time>
      </trkpt>
      <trkpt lat="48.87779" lon="2.89126">
        <ele>91</ele>
        <time>2019-09-01T06:47:11Z</time>
      </trkpt>
      <trkpt lat="48.87783" lon="2.89123">
        <ele>91</ele>
        <time>2019-09-01T06:47:12Z</time>
      </trkpt>
      <trkpt lat="48.8779" lon="2.89116">
        <ele>90</ele>
        <time>2019-09-01T06:47:14Z</time>
      </trkpt>
      <trkpt lat="48.87805" lon="2.89107">
        <ele>90</ele>
        <time>2019-09-01T06:47:18Z</time>
      </trkpt>
      <trkpt lat="48.87815" lon="2.89127">
        <ele>90</ele>
        <time>2019-09-01T06:47:24Z</time>
      </trkpt>
      <trkpt lat="48.8782" lon="2.89153">
        <ele>91</ele>
        <time>2019-09-01T06:47:29Z</time>
      </trkpt>
      <trkpt lat="48.87833" lon="2.89237">
        <ele>92</ele>
        <time>2019-09-01T06:47:45Z</time>
      </trkpt>
      <trkpt lat="48.87841" lon="2.89317">
        <ele>93</ele>
        <time>2019-09-01T06:47:59Z</time>
      </trkpt>
      <trkpt lat="48.87846" lon="2.89383">
        <ele>95</ele>
        <time>2019-09-01T06:48:11Z</time>
      </trkpt>
      <trkpt lat="48.87848" lon="2.89407">
        <ele>95</ele>
        <time>2019-09-01T06:48:15Z</time>
      </trkpt>
      <trkpt lat="48.87858" lon="2.89488">
        <ele>97</ele>
        <time>2019-09-01T06:48:29Z</time>
      </trkpt>
      <trkpt lat="48.87859" lon="2.89501">
        <ele>97</ele>
        <time>2019-09-01T06:48:31Z</time>
      </trkpt>
      <trkpt lat="48.8786" lon="2.89532">
        <ele>97</ele>
        <time>2019-09-01T06:48:36Z</time>
      </trkpt>
      <trkpt lat="48.87858" lon="2.89565">
        <ele>97</ele>
        <time>2019-09-01T06:48:41Z</time>
      </trkpt>
      <trkpt lat="48.87849" lon="2.89625">
        <ele>98</ele>
        <time>2019-09-01T06:48:50Z</time>
      </trkpt>
      <trkpt lat="48.87867" lon="2.89619">
        <ele>98</ele>
        <time>2019-09-01T06:48:55Z</time>
      </trkpt>
      <trkpt lat="48.87873" lon="2.89611">
        <ele>98</ele>
        <time>2019-09-01T06:48:59Z</time>
      </trkpt>
      <trkpt lat="48.87886" lon="2.89638">
        <ele>98</ele>
        <time>2019-09-01T06:49:12Z</time>
      </trkpt>
      <trkpt lat="48.87915" lon="2.89645">
        <ele>98</ele>
        <time>2019-09-01T06:49:20Z</time>
      </trkpt>
      <trkpt lat="48.87973" lon="2.89709">
        <ele>94</ele>
        <time>2019-09-01T06:49:29Z</time>
      </trkpt>
      <trkpt lat="48.87988" lon="2.89743">
        <ele>92</ele>
        <time>2019-09-01T06:49:33Z</time>
      </trkpt>
      <trkpt lat="48.87997" lon="2.89791">
        <ele>92</ele>
        <time>2019-09-01T06:49:39Z</time>
      </trkpt>
      <trkpt lat="48.88003" lon="2.89819">
        <ele>89</ele>
        <time>2019-09-01T06:49:43Z</time>
      </trkpt>
      <trkpt lat="48.88014" lon="2.8983">
        <ele>88</ele>
        <time>2019-09-01T06:49:47Z</time>
      </trkpt>
      <trkpt lat="48.88043" lon="2.89827">
        <ele>86</ele>
        <time>2019-09-01T06:49:52Z</time>
      </trkpt>
      <trkpt lat="48.88071" lon="2.89827">
        <ele>84</ele>
        <time>2019-09-01T06:49:57Z</time>
      </trkpt>
      <trkpt lat="48.88125" lon="2.89854">
        <ele>82</ele>
        <time>2019-09-01T06:50:11Z</time>
      </trkpt>
      <trkpt lat="48.88157" lon="2.89875">
        <ele>82</ele>
        <time>2019-09-01T06:50:24Z</time>
      </trkpt>
      <trkpt lat="48.88164" lon="2.89876">
        <ele>82</ele>
        <time>2019-09-01T06:50:28Z</time>
      </trkpt>
      <trkpt lat="48.88197" lon="2.89898">
        <ele>85</ele>
        <time>2019-09-01T06:50:43Z</time>
      </trkpt>
      <trkpt lat="48.88217" lon="2.8991">
        <ele>86</ele>
        <time>2019-09-01T06:50:53Z</time>
      </trkpt>
      <trkpt lat="48.88219" lon="2.89927">
        <ele>87</ele>
        <time>2019-09-01T06:50:58Z</time>
      </trkpt>
      <trkpt lat="48.88214" lon="2.90002">
        <ele>88</ele>
        <time>2019-09-01T06:51:16Z</time>
      </trkpt>
      <trkpt lat="48.88211" lon="2.90068">
        <ele>89</ele>
        <time>2019-09-01T06:51:30Z</time>
      </trkpt>
      <trkpt lat="48.88205" lon="2.90135">
        <ele>89</ele>
        <time>2019-09-01T06:51:42Z</time>
      </trkpt>
      <trkpt lat="48.882" lon="2.90163">
        <ele>89</ele>
        <time>2019-09-01T06:51:46Z</time>
      </trkpt>
      <trkpt lat="48.88211" lon="2.90195">
        <ele>90</ele>
        <time>2019-09-01T06:51:53Z</time>
      </trkpt>
      <trkpt lat="48.88247" lon="2.90216">
        <ele>91</ele>
        <time>2019-09-01T06:52:06Z</time>
      </trkpt>
      <trkpt lat="48.88282" lon="2.90242">
        <ele>95</ele>
        <time>2019-09-01T06:52:20Z</time>
      </trkpt>
      <trkpt lat="48.88319" lon="2.90264">
        <ele>97</ele>
        <time>2019-09-01T06:52:33Z</time>
      </trkpt>
      <trkpt lat="48.88357" lon="2.90294">
        <ele>98</ele>
        <time>2019-09-01T06:52:47Z</time>
      </trkpt>
      <trkpt lat="48.88396" lon="2.9032">
        <ele>99</ele>
        <time>2019-09-01T06:53:02Z</time>
      </trkpt>
      <trkpt lat="48.88432" lon="2.90346">
        <ele>101</ele>
        <time>2019-09-01T06:53:16Z</time>
      </trkpt>
      <trkpt lat="48.88467" lon="2.90371">
        <ele>101</ele>
        <time>2019-09-01T06:53:29Z</time>
      </trkpt>
      <trkpt lat="48.88503" lon="2.90395">
        <ele>103</ele>
        <time>2019-09-01T06:53:42Z</time>
      </trkpt>
      <trkpt lat="48.88543" lon="2.90423">
        <ele>104</ele>
        <time>2019-09-01T06:53:57Z</time>
      </trkpt>
      <trkpt lat="48.88587" lon="2.90455">
        <ele>106</ele>
        <time>2019-09-01T06:54:13Z</time>
      </trkpt>
      <trkpt lat="48.88625" lon="2.90481">
        <ele>106</ele>
        <time>2019-09-01T06:54:27Z</time>
      </trkpt>
      <trkpt lat="48.88662" lon="2.90507">
        <ele>108</ele>
        <time>2019-09-01T06:54:41Z</time>
      </trkpt>
      <trkpt lat="48.88696" lon="2.90532">
        <ele>109</ele>
        <time>2019-09-01T06:54:54Z</time>
      </trkpt>
      <trkpt lat="48.88727" lon="2.90555">
        <ele>110</ele>
        <time>2019-09-01T06:55:06Z</time>
      </trkpt>
      <trkpt lat="48.88764" lon="2.90579">
        <ele>114</ele>
        <time>2019-09-01T06:55:19Z</time>
      </trkpt>
      <trkpt lat="48.88801" lon="2.90609">
        <ele>118</ele>
        <time>2019-09-01T06:55:32Z</time>
      </trkpt>
      <trkpt lat="48.88815" lon="2.90648">
        <ele>119</ele>
        <time>2019-09-01T06:55:43Z</time>
      </trkpt>
      <trkpt lat="48.88811" lon="2.90715">
        <ele>119</ele>
        <time>2019-09-01T06:55:57Z</time>
      </trkpt>
      <trkpt lat="48.88803" lon="2.90805">
        <ele>119</ele>
        <time>2019-09-01T06:56:12Z</time>
      </trkpt>
      <trkpt lat="48.88799" lon="2.90884">
        <ele>120</ele>
        <time>2019-09-01T06:56:25Z</time>
      </trkpt>
      <trkpt lat="48.88799" lon="2.90894">
        <ele>120</ele>
        <time>2019-09-01T06:56:27Z</time>
      </trkpt>
      <trkpt lat="48.88809" lon="2.90901">
        <ele>120</ele>
        <time>2019-09-01T06:56:30Z</time>
      </trkpt>
      <trkpt lat="48.88827" lon="2.90898">
        <ele>121</ele>
        <time>2019-09-01T06:56:34Z</time>
      </trkpt>
      <trkpt lat="48.88878" lon="2.90885">
        <ele>124</ele>
        <time>2019-09-01T06:56:48Z</time>
      </trkpt>
      <trkpt lat="48.8892" lon="2.90872">
        <ele>126</ele>
        <time>2019-09-01T06:56:59Z</time>
      </trkpt>
      <trkpt lat="48.8894" lon="2.90867">
        <ele>126</ele>
        <time>2019-09-01T06:57:05Z</time>
      </trkpt>
      <trkpt lat="48.88949" lon="2.90893">
        <ele>127</ele>
        <time>2019-09-01T06:57:10Z</time>
      </trkpt>
      <trkpt lat="48.88951" lon="2.90969">
        <ele>130</ele>
        <time>2019-09-01T06:57:24Z</time>
      </trkpt>
      <trkpt lat="48.88952" lon="2.91032">
        <ele>132</ele>
        <time>2019-09-01T06:57:36Z</time>
      </trkpt>
      <trkpt lat="48.8896" lon="2.91098">
        <ele>131</ele>
        <time>2019-09-01T06:57:49Z</time>
      </trkpt>
      <trkpt lat="48.88963" lon="2.91167">
        <ele>130</ele>
        <time>2019-09-01T06:58:02Z</time>
      </trkpt>
      <trkpt lat="48.88942" lon="2.91268">
        <ele>129</ele>
        <time>2019-09-01T06:58:18Z</time>
      </trkpt>
      <trkpt lat="48.88939" lon="2.91279">
        <ele>129</ele>
        <time>2019-09-01T06:58:20Z</time>
      </trkpt>
      <trkpt lat="48.8891" lon="2.91391">
        <ele>125</ele>
        <time>2019-09-01T06:58:36Z</time>
      </trkpt>
      <trkpt lat="48.88883" lon="2.91506">
        <ele>125</ele>
        <time>2019-09-01T06:58:50Z</time>
      </trkpt>
      <trkpt lat="48.88873" lon="2.91545">
        <ele>126</ele>
        <time>2019-09-01T06:58:55Z</time>
      </trkpt>
      <trkpt lat="48.88858" lon="2.91573">
        <ele>126</ele>
        <time>2019-09-01T06:59:00Z</time>
      </trkpt>
      <trkpt lat="48.88848" lon="2.91585">
        <ele>127</ele>
        <time>2019-09-01T06:59:03Z</time>
      </trkpt>
      <trkpt lat="48.88801" lon="2.9163">
        <ele>125</ele>
        <time>2019-09-01T06:59:14Z</time>
      </trkpt>
      <trkpt lat="48.88747" lon="2.91679">
        <ele>121</ele>
        <time>2019-09-01T06:59:28Z</time>
      </trkpt>
      <trkpt lat="48.88721" lon="2.91708">
        <ele>121</ele>
        <time>2019-09-01T06:59:39Z</time>
      </trkpt>
      <trkpt lat="48.88724" lon="2.91746">
        <ele>121</ele>
        <time>2019-09-01T06:59:51Z</time>
      </trkpt>
      <trkpt lat="48.88748" lon="2.91809">
        <ele>123</ele>
        <time>2019-09-01T07:00:06Z</time>
      </trkpt>
      <trkpt lat="48.8877" lon="2.9188">
        <ele>127</ele>
        <time>2019-09-01T07:00:21Z</time>
      </trkpt>
      <trkpt lat="48.88801" lon="2.91949">
        <ele>130</ele>
        <time>2019-09-01T07:00:37Z</time>
      </trkpt>
      <trkpt lat="48.88822" lon="2.92014">
        <ele>133</ele>
        <time>2019-09-01T07:00:54Z</time>
      </trkpt>
      <trkpt lat="48.88819" lon="2.92022">
        <ele>133</ele>
        <time>2019-09-01T07:00:58Z</time>
      </trkpt>
      <trkpt lat="48.88775" lon="2.92058">
        <ele>135</ele>
        <time>2019-09-01T07:01:12Z</time>
      </trkpt>
      <trkpt lat="48.88741" lon="2.92096">
        <ele>138</ele>
        <time>2019-09-01T07:01:23Z</time>
      </trkpt>
      <trkpt lat="48.88716" lon="2.92086">
        <ele>138</ele>
        <time>2019-09-01T07:01:30Z</time>
      </trkpt>
      <trkpt lat="48.88667" lon="2.92013">
        <ele>135</ele>
        <time>2019-09-01T07:01:44Z</time>
      </trkpt>
      <trkpt lat="48.88633" lon="2.91977">
        <ele>132</ele>
        <time>2019-09-01T07:01:53Z</time>
      </trkpt>
      <trkpt lat="48.88615" lon="2.91952">
        <ele>131</ele>
        <time>2019-09-01T07:01:57Z</time>
      </trkpt>
      <trkpt lat="48.88568" lon="2.91878">
        <ele>126</ele>
        <time>2019-09-01T07:02:06Z</time>
      </trkpt>
      <trkpt lat="48.88556" lon="2.91867">
        <ele>126</ele>
        <time>2019-09-01T07:02:08Z</time>
      </trkpt>
      <trkpt lat="48.88505" lon="2.91838">
        <ele>125</ele>
        <time>2019-09-01T07:02:17Z</time>
      </trkpt>
      <trkpt lat="48.88495" lon="2.91831">
        <ele>125</ele>
        <time>2019-09-01T07:02:19Z</time>
      </trkpt>
      <trkpt lat="48.88485" lon="2.91823">
        <ele>125</ele>
        <time>2019-09-01T07:02:21Z</time>
      </trkpt>
      <trkpt lat="48.88472" lon="2.9181">
        <ele>125</ele>
        <time>2019-09-01T07:02:24Z</time>
      </trkpt>
      <trkpt lat="48.88456" lon="2.91793">
        <ele>125</ele>
        <time>2019-09-01T07:02:28Z</time>
      </trkpt>
      <trkpt lat="48.88407" lon="2.91731">
        <ele>123</ele>
        <time>2019-09-01T07:02:44Z</time>
      </trkpt>
      <trkpt lat="48.88387" lon="2.91732">
        <ele>123</ele>
        <time>2019-09-01T07:02:52Z</time>
      </trkpt>
      <trkpt lat="48.88348" lon="2.9181">
        <ele>124</ele>
        <time>2019-09-01T07:03:09Z</time>
      </trkpt>
      <trkpt lat="48.88327" lon="2.91867">
        <ele>125</ele>
        <time>2019-09-01T07:03:19Z</time>
      </trkpt>
      <trkpt lat="48.88294" lon="2.91895">
        <ele>125</ele>
        <time>2019-09-01T07:03:29Z</time>
      </trkpt>
      <trkpt lat="48.88267" lon="2.91836">
        <ele>124</ele>
        <time>2019-09-01T07:03:38Z</time>
      </trkpt>
      <trkpt lat="48.88247" lon="2.91809">
        <ele>121</ele>
        <time>2019-09-01T07:03:44Z</time>
      </trkpt>
      <trkpt lat="48.88202" lon="2.9179">
        <ele>119</ele>
        <time>2019-09-01T07:03:50Z</time>
      </trkpt>
      <trkpt lat="48.88127" lon="2.91698">
        <ele>113</ele>
        <time>2019-09-01T07:04:02Z</time>
      </trkpt>
      <trkpt lat="48.88104" lon="2.91673">
        <ele>111</ele>
        <time>2019-09-01T07:04:07Z</time>
      </trkpt>
      <trkpt lat="48.8807" lon="2.91633">
        <ele>109</ele>
        <time>2019-09-01T07:04:15Z</time>
      </trkpt>
      <trkpt lat="48.88057" lon="2.91631">
        <ele>109</ele>
        <time>2019-09-01T07:04:19Z</time>
      </trkpt>
      <trkpt lat="48.88021" lon="2.91704">
        <ele>108</ele>
        <time>2019-09-01T07:04:31Z</time>
      </trkpt>
      <trkpt lat="48.87962" lon="2.91828">
        <ele>104</ele>
        <time>2019-09-01T07:04:46Z</time>
      </trkpt>
      <trkpt lat="48.87925" lon="2.91905">
        <ele>105</ele>
        <time>2019-09-01T07:04:59Z</time>
      </trkpt>
      <trkpt lat="48.87876" lon="2.9195">
        <ele>106</ele>
        <time>2019-09-01T07:05:13Z</time>
      </trkpt>
      <trkpt lat="48.87828" lon="2.91994">
        <ele>108</ele>
        <time>2019-09-01T07:05:28Z</time>
      </trkpt>
      <trkpt lat="48.87823" lon="2.92002">
        <ele>108</ele>
        <time>2019-09-01T07:05:30Z</time>
      </trkpt>
      <trkpt lat="48.87816" lon="2.92052">
        <ele>108</ele>
        <time>2019-09-01T07:05:38Z</time>
      </trkpt>
      <trkpt lat="48.87844" lon="2.92164">
        <ele>109</ele>
        <time>2019-09-01T07:05:56Z</time>
      </trkpt>
      <trkpt lat="48.87859" lon="2.9227">
        <ele>113</ele>
        <time>2019-09-01T07:06:12Z</time>
      </trkpt>
      <trkpt lat="48.87863" lon="2.92368">
        <ele>114</ele>
        <time>2019-09-01T07:06:27Z</time>
      </trkpt>
      <trkpt lat="48.8786" lon="2.92411">
        <ele>114</ele>
        <time>2019-09-01T07:06:36Z</time>
      </trkpt>
      <trkpt lat="48.87807" lon="2.9244">
        <ele>117</ele>
        <time>2019-09-01T07:06:51Z</time>
      </trkpt>
      <trkpt lat="48.87768" lon="2.92469">
        <ele>119</ele>
        <time>2019-09-01T07:07:06Z</time>
      </trkpt>
      <trkpt lat="48.87725" lon="2.92497">
        <ele>124</ele>
        <time>2019-09-01T07:07:21Z</time>
      </trkpt>
      <trkpt lat="48.87697" lon="2.92525">
        <ele>128</ele>
        <time>2019-09-01T07:07:34Z</time>
      </trkpt>
      <trkpt lat="48.87679" lon="2.92542">
        <ele>128</ele>
        <time>2019-09-01T07:07:42Z</time>
      </trkpt>
      <trkpt lat="48.87648" lon="2.92567">
        <ele>132</ele>
        <time>2019-09-01T07:07:59Z</time>
      </trkpt>
      <trkpt lat="48.87616" lon="2.92586">
        <ele>133</ele>
        <time>2019-09-01T07:08:13Z</time>
      </trkpt>
      <trkpt lat="48.87581" lon="2.92604">
        <ele>135</ele>
        <time>2019-09-01T07:08:28Z</time>
      </trkpt>
      <trkpt lat="48.87547" lon="2.92629">
        <ele>135</ele>
        <time>2019-09-01T07:08:41Z</time>
      </trkpt>
      <trkpt lat="48.87513" lon="2.92651">
        <ele>136</ele>
        <time>2019-09-01T07:08:56Z</time>
      </trkpt>
      <trkpt lat="48.87489" lon="2.92668">
        <ele>137</ele>
        <time>2019-09-01T07:09:08Z</time>
      </trkpt>
      <trkpt lat="48.87499" lon="2.92714">
        <ele>138</ele>
        <time>2019-09-01T07:09:21Z</time>
      </trkpt>
      <trkpt lat="48.87517" lon="2.92765">
        <ele>138</ele>
        <time>2019-09-01T07:09:35Z</time>
      </trkpt>
      <trkpt lat="48.87537" lon="2.92821">
        <ele>138</ele>
        <time>2019-09-01T07:09:48Z</time>
      </trkpt>
      <trkpt lat="48.87563" lon="2.92896">
        <ele>139</ele>
        <time>2019-09-01T07:10:05Z</time>
      </trkpt>
      <trkpt lat="48.87584" lon="2.92961">
        <ele>139</ele>
        <time>2019-09-01T07:10:19Z</time>
      </trkpt>
      <trkpt lat="48.87609" lon="2.93019">
        <ele>141</ele>
        <time>2019-09-01T07:10:34Z</time>
      </trkpt>
      <trkpt lat="48.87636" lon="2.93055">
        <ele>141</ele>
        <time>2019-09-01T07:10:45Z</time>
      </trkpt>
      <trkpt lat="48.8766" lon="2.93101">
        <ele>142</ele>
        <time>2019-09-01T07:10:55Z</time>
      </trkpt>
      <trkpt lat="48.87689" lon="2.93177">
        <ele>142</ele>
        <time>2019-09-01T07:11:09Z</time>
      </trkpt>
      <trkpt lat="48.87716" lon="2.93256">
        <ele>144</ele>
        <time>2019-09-01T07:11:24Z</time>
      </trkpt>
      <trkpt lat="48.87739" lon="2.93334">
        <ele>146</ele>
        <time>2019-09-01T07:11:38Z</time>
      </trkpt>
      <trkpt lat="48.87742" lon="2.93374">
        <ele>146</ele>
        <time>2019-09-01T07:11:45Z</time>
      </trkpt>
      <trkpt lat="48.87763" lon="2.93429">
        <ele>146</ele>
        <time>2019-09-01T07:11:58Z</time>
      </trkpt>
      <trkpt lat="48.87743" lon="2.93495">
        <ele>147</ele>
        <time>2019-09-01T07:12:12Z</time>
      </trkpt>
      <trkpt lat="48.87704" lon="2.93578">
        <ele>149</ele>
        <time>2019-09-01T07:12:28Z</time>
      </trkpt>
      <trkpt lat="48.87692" lon="2.93599">
        <ele>150</ele>
        <time>2019-09-01T07:12:32Z</time>
      </trkpt>
      <trkpt lat="48.8764" lon="2.93684">
        <ele>149</ele>
        <time>2019-09-01T07:12:49Z</time>
      </trkpt>
      <trkpt lat="48.87632" lon="2.93699">
        <ele>149</ele>
        <time>2019-09-01T07:12:52Z</time>
      </trkpt>
      <trkpt lat="48.87617" lon="2.9372">
        <ele>149</ele>
        <time>2019-09-01T07:12:57Z</time>
      </trkpt>
      <trkpt lat="48.87601" lon="2.93708">
        <ele>149</ele>
        <time>2019-09-01T07:13:02Z</time>
      </trkpt>
      <trkpt lat="48.87553" lon="2.93626">
        <ele>149</ele>
        <time>2019-09-01T07:13:18Z</time>
      </trkpt>
      <trkpt lat="48.87517" lon="2.9356">
        <ele>149</ele>
        <time>2019-09-01T07:13:30Z</time>
      </trkpt>
      <trkpt lat="48.87476" lon="2.93494">
        <ele>147</ele>
        <time>2019-09-01T07:13:42Z</time>
      </trkpt>
      <trkpt lat="48.87463" lon="2.93472">
        <ele>147</ele>
        <time>2019-09-01T07:13:46Z</time>
      </trkpt>
      <trkpt lat="48.87426" lon="2.93409">
        <ele>145</ele>
        <time>2019-09-01T07:13:57Z</time>
      </trkpt>
      <trkpt lat="48.87397" lon="2.93367">
        <ele>144</ele>
        <time>2019-09-01T07:14:05Z</time>
      </trkpt>
      <trkpt lat="48.87364" lon="2.93324">
        <ele>145</ele>
        <time>2019-09-01T07:14:13Z</time>
      </trkpt>
      <trkpt lat="48.87342" lon="2.93299">
        <ele>145</ele>
        <time>2019-09-01T07:14:18Z</time>
      </trkpt>
      <trkpt lat="48.87324" lon="2.9328">
        <ele>144</ele>
        <time>2019-09-01T07:14:22Z</time>
      </trkpt>
      <trkpt lat="48.87293" lon="2.93248">
        <ele>144</ele>
        <time>2019-09-01T07:14:29Z</time>
      </trkpt>
      <trkpt lat="48.87271" lon="2.93223">
        <ele>144</ele>
        <time>2019-09-01T07:14:34Z</time>
      </trkpt>
      <trkpt lat="48.87238" lon="2.9318">
        <ele>143</ele>
        <time>2019-09-01T07:14:42Z</time>
      </trkpt>
      <trkpt lat="48.87187" lon="2.93119">
        <ele>143</ele>
        <time>2019-09-01T07:14:54Z</time>
      </trkpt>
      <trkpt lat="48.8715" lon="2.93072">
        <ele>142</ele>
        <time>2019-09-01T07:15:03Z</time>
      </trkpt>
      <trkpt lat="48.87107" lon="2.92993">
        <ele>141</ele>
        <time>2019-09-01T07:15:16Z</time>
      </trkpt>
      <trkpt lat="48.8708" lon="2.92928">
        <ele>141</ele>
        <time>2019-09-01T07:15:26Z</time>
      </trkpt>
      <trkpt lat="48.87069" lon="2.929">
        <ele>140</ele>
        <time>2019-09-01T07:15:30Z</time>
      </trkpt>
      <trkpt lat="48.87058" lon="2.92866">
        <ele>140</ele>
        <time>2019-09-01T07:15:35Z</time>
      </trkpt>
      <trkpt lat="48.87047" lon="2.92828">
        <ele>139</ele>
        <time>2019-09-01T07:15:40Z</time>
      </trkpt>
      <trkpt lat="48.87041" lon="2.92769">
        <ele>139</ele>
        <time>2019-09-01T07:15:48Z</time>
      </trkpt>
      <trkpt lat="48.8704" lon="2.92743">
        <ele>138</ele>
        <time>2019-09-01T07:15:53Z</time>
      </trkpt>
      <trkpt lat="48.87036" lon="2.92738">
        <ele>138</ele>
        <time>2019-09-01T07:15:56Z</time>
      </trkpt>
      <trkpt lat="48.8703" lon="2.92744">
        <ele>138</ele>
        <time>2019-09-01T07:16:01Z</time>
      </trkpt>
      <trkpt lat="48.87023" lon="2.92812">
        <ele>139</ele>
        <time>2019-09-01T07:16:13Z</time>
      </trkpt>
      <trkpt lat="48.87013" lon="2.92872">
        <ele>140</ele>
        <time>2019-09-01T07:16:23Z</time>
      </trkpt>
      <trkpt lat="48.87013" lon="2.92888">
        <ele>140</ele>
        <time>2019-09-01T07:16:33Z</time>
      </trkpt>
      <trkpt lat="48.87002" lon="2.92968">
        <ele>140</ele>
        <time>2019-09-01T07:16:45Z</time>
      </trkpt>
      <trkpt lat="48.86985" lon="2.93083">
        <ele>140</ele>
        <time>2019-09-01T07:17:00Z</time>
      </trkpt>
      <trkpt lat="48.86967" lon="2.93188">
        <ele>138</ele>
        <time>2019-09-01T07:17:13Z</time>
      </trkpt>
      <trkpt lat="48.86966" lon="2.93194">
        <ele>138</ele>
        <time>2019-09-01T07:17:14Z</time>
      </trkpt>
      <trkpt lat="48.86961" lon="2.93214">
        <ele>138</ele>
        <time>2019-09-01T07:17:17Z</time>
      </trkpt>
      <trkpt lat="48.86931" lon="2.93321">
        <ele>137</ele>
        <time>2019-09-01T07:17:30Z</time>
      </trkpt>
      <trkpt lat="48.86892" lon="2.93427">
        <ele>135</ele>
        <time>2019-09-01T07:17:43Z</time>
      </trkpt>
      <trkpt lat="48.86845" lon="2.93562">
        <ele>132</ele>
        <time>2019-09-01T07:17:59Z</time>
      </trkpt>
      <trkpt lat="48.86817" lon="2.93641">
        <ele>128</ele>
        <time>2019-09-01T07:18:08Z</time>
      </trkpt>
      <trkpt lat="48.86777" lon="2.93798">
        <ele>123</ele>
        <time>2019-09-01T07:18:22Z</time>
      </trkpt>
      <trkpt lat="48.86751" lon="2.93995">
        <ele>115</ele>
        <time>2019-09-01T07:18:38Z</time>
      </trkpt>
      <trkpt lat="48.86726" lon="2.94104">
        <ele>110</ele>
        <time>2019-09-01T07:18:49Z</time>
      </trkpt>
      <trkpt lat="48.86706" lon="2.94131">
        <ele>110</ele>
        <time>2019-09-01T07:18:53Z</time>
      </trkpt>
      <trkpt lat="48.86695" lon="2.94143">
        <ele>109</ele>
        <time>2019-09-01T07:18:55Z</time>
      </trkpt>
      <trkpt lat="48.86666" lon="2.94166">
        <ele>108</ele>
        <time>2019-09-01T07:19:00Z</time>
      </trkpt>
      <trkpt lat="48.86622" lon="2.9418">
        <ele>105</ele>
        <time>2019-09-01T07:19:04Z</time>
      </trkpt>
      <trkpt lat="48.86587" lon="2.94198">
        <ele>104</ele>
        <time>2019-09-01T07:19:09Z</time>
      </trkpt>
      <trkpt lat="48.8655" lon="2.94233">
        <ele>104</ele>
        <time>2019-09-01T07:19:17Z</time>
      </trkpt>
      <trkpt lat="48.86529" lon="2.94273">
        <ele>104</ele>
        <time>2019-09-01T07:19:24Z</time>
      </trkpt>
      <trkpt lat="48.86524" lon="2.94283">
        <ele>104</ele>
        <time>2019-09-01T07:19:26Z</time>
      </trkpt>
      <trkpt lat="48.86512" lon="2.94306">
        <ele>104</ele>
        <time>2019-09-01T07:19:30Z</time>
      </trkpt>
      <trkpt lat="48.86485" lon="2.94371">
        <ele>106</ele>
        <time>2019-09-01T07:19:43Z</time>
      </trkpt>
      <trkpt lat="48.86452" lon="2.94387">
        <ele>107</ele>
        <time>2019-09-01T07:19:54Z</time>
      </trkpt>
      <trkpt lat="48.86402" lon="2.94379">
        <ele>110</ele>
        <time>2019-09-01T07:20:07Z</time>
      </trkpt>
      <trkpt lat="48.86344" lon="2.94363">
        <ele>111</ele>
        <time>2019-09-01T07:20:23Z</time>
      </trkpt>
      <trkpt lat="48.86286" lon="2.9436">
        <ele>114</ele>
        <time>2019-09-01T07:20:40Z</time>
      </trkpt>
      <trkpt lat="48.8624" lon="2.94374">
        <ele>117</ele>
        <time>2019-09-01T07:20:53Z</time>
      </trkpt>
      <trkpt lat="48.86198" lon="2.94414">
        <ele>119</ele>
        <time>2019-09-01T07:21:07Z</time>
      </trkpt>
      <trkpt lat="48.86157" lon="2.94451">
        <ele>122</ele>
        <time>2019-09-01T07:21:20Z</time>
      </trkpt>
      <trkpt lat="48.86116" lon="2.94487">
        <ele>122</ele>
        <time>2019-09-01T07:21:33Z</time>
      </trkpt>
      <trkpt lat="48.86099" lon="2.94504">
        <ele>124</ele>
        <time>2019-09-01T07:21:38Z</time>
      </trkpt>
      <trkpt lat="48.86073" lon="2.94529">
        <ele>123</ele>
        <time>2019-09-01T07:21:45Z</time>
      </trkpt>
      <trkpt lat="48.86027" lon="2.94576">
        <ele>123</ele>
        <time>2019-09-01T07:21:57Z</time>
      </trkpt>
      <trkpt lat="48.86018" lon="2.94584">
        <ele>124</ele>
        <time>2019-09-01T07:21:59Z</time>
      </trkpt>
      <trkpt lat="48.85996" lon="2.946">
        <ele>123</ele>
        <time>2019-09-01T07:22:04Z</time>
      </trkpt>
      <trkpt lat="48.85947" lon="2.94645">
        <ele>124</ele>
        <time>2019-09-01T07:22:17Z</time>
      </trkpt>
      <trkpt lat="48.85939" lon="2.94655">
        <ele>124</ele>
        <time>2019-09-01T07:22:19Z</time>
      </trkpt>
      <trkpt lat="48.85908" lon="2.94692">
        <ele>124</ele>
        <time>2019-09-01T07:22:27Z</time>
      </trkpt>
      <trkpt lat="48.8588" lon="2.94721">
        <ele>123</ele>
        <time>2019-09-01T07:22:35Z</time>
      </trkpt>
      <trkpt lat="48.85875" lon="2.94689">
        <ele>123</ele>
        <time>2019-09-01T07:22:40Z</time>
      </trkpt>
      <trkpt lat="48.85879" lon="2.94657">
        <ele>122</ele>
        <time>2019-09-01T07:22:44Z</time>
      </trkpt>
      <trkpt lat="48.8588" lon="2.94629">
        <ele>122</ele>
        <time>2019-09-01T07:22:48Z</time>
      </trkpt>
      <trkpt lat="48.85883" lon="2.94598">
        <ele>121</ele>
        <time>2019-09-01T07:22:52Z</time>
      </trkpt>
      <trkpt lat="48.85882" lon="2.94583">
        <ele>120</ele>
        <time>2019-09-01T07:22:54Z</time>
      </trkpt>
      <trkpt lat="48.85901" lon="2.94473">
        <ele>118</ele>
        <time>2019-09-01T07:23:09Z</time>
      </trkpt>
      <trkpt lat="48.85923" lon="2.94398">
        <ele>118</ele>
        <time>2019-09-01T07:23:22Z</time>
      </trkpt>
      <trkpt lat="48.85929" lon="2.94387">
        <ele>118</ele>
        <time>2019-09-01T07:23:24Z</time>
      </trkpt>
      <trkpt lat="48.85947" lon="2.94361">
        <ele>118</ele>
        <time>2019-09-01T07:23:29Z</time>
      </trkpt>
      <trkpt lat="48.85963" lon="2.9435">
        <ele>118</ele>
        <time>2019-09-01T07:23:34Z</time>
      </trkpt>
      <trkpt lat="48.85966" lon="2.94347">
        <ele>118</ele>
        <time>2019-09-01T07:23:36Z</time>
      </trkpt>
      <trkpt lat="48.8597" lon="2.94343">
        <ele>118</ele>
        <time>2019-09-01T07:23:47Z</time>
      </trkpt>
      <trkpt lat="48.85969" lon="2.94344">
        <ele>118</ele>
        <time>2019-09-01T07:23:49Z</time>
      </trkpt>
      <trkpt lat="48.85966" lon="2.94342">
        <ele>118</ele>
        <time>2019-09-01T07:23:52Z</time>
      </trkpt>
      <trkpt lat="48.85963" lon="2.94338">
        <ele>118</ele>
        <time>2019-09-01T07:23:55Z</time>
      </trkpt>
      <trkpt lat="48.85965" lon="2.94332">
        <ele>116</ele>
        <time>2019-09-01T07:24:07Z</time>
      </trkpt>
      <trkpt lat="48.85966" lon="2.94331">
        <ele>116</ele>
        <time>2019-09-01T07:24:24Z</time>
      </trkpt>
      <trkpt lat="48.85967" lon="2.94332">
        <ele>116</ele>
        <time>2019-09-01T07:24:48Z</time>
      </trkpt>
      <trkpt lat="48.85967" lon="2.94334">
        <ele>118</ele>
        <time>2019-09-01T07:25:11Z</time>
      </trkpt>
      <trkpt lat="48.85967" lon="2.94334">
        <ele>118</ele>
        <time>2019-09-01T07:25:33Z</time>
      </trkpt>
      <trkpt lat="48.85967" lon="2.94333">
        <ele>118</ele>
        <time>2019-09-01T07:25:54Z</time>
      </trkpt>
      <trkpt lat="48.85967" lon="2.94334">
        <ele>118</ele>
        <time>2019-09-01T07:26:13Z</time>
      </trkpt>
      <trkpt lat="48.85965" lon="2.94337">
        <ele>118</ele>
        <time>2019-09-01T07:26:32Z</time>
      </trkpt>
      <trkpt lat="48.8597" lon="2.94343">
        <ele>118</ele>
        <time>2019-09-01T07:26:39Z</time>
      </trkpt>
      <trkpt lat="48.85963" lon="2.9434">
        <ele>118</ele>
        <time>2019-09-01T07:26:48Z</time>
      </trkpt>
      <trkpt lat="48.85941" lon="2.94326">
        <ele>117</ele>
        <time>2019-09-01T07:26:58Z</time>
      </trkpt>
      <trkpt lat="48.85911" lon="2.94325">
        <ele>117</ele>
        <time>2019-09-01T07:27:06Z</time>
      </trkpt>
      <trkpt lat="48.85847" lon="2.94295">
        <ele>114</ele>
        <time>2019-09-01T07:27:20Z</time>
      </trkpt>
      <trkpt lat="48.85776" lon="2.94253">
        <ele>108</ele>
        <time>2019-09-01T07:27:33Z</time>
      </trkpt>
      <trkpt lat="48.85696" lon="2.94185">
        <ele>100</ele>
        <time>2019-09-01T07:27:45Z</time>
      </trkpt>
      <trkpt lat="48.85643" lon="2.94135">
        <ele>93</ele>
        <time>2019-09-01T07:27:53Z</time>
      </trkpt>
      <trkpt lat="48.85638" lon="2.94099">
        <ele>93</ele>
        <time>2019-09-01T07:27:59Z</time>
      </trkpt>
      <trkpt lat="48.85647" lon="2.94081">
        <ele>93</ele>
        <time>2019-09-01T07:28:03Z</time>
      </trkpt>
      <trkpt lat="48.85657" lon="2.94072">
        <ele>93</ele>
        <time>2019-09-01T07:28:05Z</time>
      </trkpt>
      <trkpt lat="48.85674" lon="2.94052">
        <ele>95</ele>
        <time>2019-09-01T07:28:09Z</time>
      </trkpt>
      <trkpt lat="48.85692" lon="2.94032">
        <ele>95</ele>
        <time>2019-09-01T07:28:13Z</time>
      </trkpt>
      <trkpt lat="48.85714" lon="2.94006">
        <ele>95</ele>
        <time>2019-09-01T07:28:18Z</time>
      </trkpt>
      <trkpt lat="48.85731" lon="2.93988">
        <ele>93</ele>
        <time>2019-09-01T07:28:22Z</time>
      </trkpt>
      <trkpt lat="48.85779" lon="2.93935">
        <ele>93</ele>
        <time>2019-09-01T07:28:35Z</time>
      </trkpt>
      <trkpt lat="48.85839" lon="2.93921">
        <ele>94</ele>
        <time>2019-09-01T07:28:51Z</time>
      </trkpt>
      <trkpt lat="48.8588" lon="2.93916">
        <ele>91</ele>
        <time>2019-09-01T07:29:02Z</time>
      </trkpt>
      <trkpt lat="48.85894" lon="2.93934">
        <ele>96</ele>
        <time>2019-09-01T07:29:07Z</time>
      </trkpt>
      <trkpt lat="48.85898" lon="2.93948">
        <ele>96</ele>
        <time>2019-09-01T07:29:10Z</time>
      </trkpt>
      <trkpt lat="48.85911" lon="2.93958">
        <ele>97</ele>
        <time>2019-09-01T07:29:14Z</time>
      </trkpt>
      <trkpt lat="48.85918" lon="2.93953">
        <ele>97</ele>
        <time>2019-09-01T07:29:18Z</time>
      </trkpt>
      <trkpt lat="48.85922" lon="2.93927">
        <ele>95</ele>
        <time>2019-09-01T07:29:23Z</time>
      </trkpt>
      <trkpt lat="48.85924" lon="2.93898">
        <ele>93</ele>
        <time>2019-09-01T07:29:27Z</time>
      </trkpt>
      <trkpt lat="48.85919" lon="2.93869">
        <ele>91</ele>
        <time>2019-09-01T07:29:32Z</time>
      </trkpt>
      <trkpt lat="48.85916" lon="2.93844">
        <ele>89</ele>
        <time>2019-09-01T07:29:37Z</time>
      </trkpt>
      <trkpt lat="48.85905" lon="2.93803">
        <ele>85</ele>
        <time>2019-09-01T07:29:46Z</time>
      </trkpt>
      <trkpt lat="48.85903" lon="2.93773">
        <ele>84</ele>
        <time>2019-09-01T07:29:52Z</time>
      </trkpt>
      <trkpt lat="48.85902" lon="2.9376">
        <ele>83</ele>
        <time>2019-09-01T07:29:54Z</time>
      </trkpt>
      <trkpt lat="48.85925" lon="2.93645">
        <ele>77</ele>
        <time>2019-09-01T07:30:06Z</time>
      </trkpt>
      <trkpt lat="48.85937" lon="2.93584">
        <ele>74</ele>
        <time>2019-09-01T07:30:12Z</time>
      </trkpt>
      <trkpt lat="48.85913" lon="2.93526">
        <ele>74</ele>
        <time>2019-09-01T07:30:20Z</time>
      </trkpt>
      <trkpt lat="48.85889" lon="2.93499">
        <ele>77</ele>
        <time>2019-09-01T07:30:30Z</time>
      </trkpt>
      <trkpt lat="48.85886" lon="2.93499">
        <ele>77</ele>
        <time>2019-09-01T07:30:31Z</time>
      </trkpt>
      <trkpt lat="48.85839" lon="2.93541">
        <ele>77</ele>
        <time>2019-09-01T07:30:48Z</time>
      </trkpt>
      <trkpt lat="48.85808" lon="2.93589">
        <ele>79</ele>
        <time>2019-09-01T07:31:00Z</time>
      </trkpt>
      <trkpt lat="48.85778" lon="2.9359">
        <ele>81</ele>
        <time>2019-09-01T07:31:10Z</time>
      </trkpt>
      <trkpt lat="48.85761" lon="2.9358">
        <ele>84</ele>
        <time>2019-09-01T07:31:22Z</time>
      </trkpt>
      <trkpt lat="48.8574" lon="2.93566">
        <ele>87</ele>
        <time>2019-09-01T07:31:36Z</time>
      </trkpt>
      <trkpt lat="48.8572" lon="2.93553">
        <ele>89</ele>
        <time>2019-09-01T07:31:52Z</time>
      </trkpt>
      <trkpt lat="48.85697" lon="2.93534">
        <ele>90</ele>
        <time>2019-09-01T07:32:06Z</time>
      </trkpt>
      <trkpt lat="48.85675" lon="2.93515">
        <ele>92</ele>
        <time>2019-09-01T07:32:20Z</time>
      </trkpt>
      <trkpt lat="48.85654" lon="2.93502">
        <ele>96</ele>
        <time>2019-09-01T07:32:32Z</time>
      </trkpt>
      <trkpt lat="48.85624" lon="2.93493">
        <ele>99</ele>
        <time>2019-09-01T07:32:45Z</time>
      </trkpt>
      <trkpt lat="48.85593" lon="2.93495">
        <ele>100</ele>
        <time>2019-09-01T07:32:59Z</time>
      </trkpt>
      <trkpt lat="48.85584" lon="2.93537">
        <ele>98</ele>
        <time>2019-09-01T07:33:10Z</time>
      </trkpt>
      <trkpt lat="48.85577" lon="2.93571">
        <ele>102</ele>
        <time>2019-09-01T07:33:23Z</time>
      </trkpt>
      <trkpt lat="48.85575" lon="2.93572">
        <ele>102</ele>
        <time>2019-09-01T07:33:25Z</time>
      </trkpt>
      <trkpt lat="48.85569" lon="2.93571">
        <ele>102</ele>
        <time>2019-09-01T07:33:28Z</time>
      </trkpt>
      <trkpt lat="48.85501" lon="2.93533">
        <ele>106</ele>
        <time>2019-09-01T07:33:46Z</time>
      </trkpt>
      <trkpt lat="48.85467" lon="2.93521">
        <ele>110</ele>
        <time>2019-09-01T07:34:00Z</time>
      </trkpt>
      <trkpt lat="48.85433" lon="2.93512">
        <ele>112</ele>
        <time>2019-09-01T07:34:13Z</time>
      </trkpt>
      <trkpt lat="48.85408" lon="2.93502">
        <ele>114</ele>
        <time>2019-09-01T07:34:25Z</time>
      </trkpt>
      <trkpt lat="48.85406" lon="2.93501">
        <ele>115</ele>
        <time>2019-09-01T07:34:26Z</time>
      </trkpt>
      <trkpt lat="48.85399" lon="2.93486">
        <ele>116</ele>
        <time>2019-09-01T07:34:31Z</time>
      </trkpt>
      <trkpt lat="48.85395" lon="2.9344">
        <ele>116</ele>
        <time>2019-09-01T07:34:42Z</time>
      </trkpt>
      <trkpt lat="48.85381" lon="2.93432">
        <ele>117</ele>
        <time>2019-09-01T07:34:47Z</time>
      </trkpt>
      <trkpt lat="48.85344" lon="2.93463">
        <ele>118</ele>
        <time>2019-09-01T07:35:01Z</time>
      </trkpt>
      <trkpt lat="48.85307" lon="2.93459">
        <ele>121</ele>
        <time>2019-09-01T07:35:12Z</time>
      </trkpt>
      <trkpt lat="48.85277" lon="2.9345">
        <ele>121</ele>
        <time>2019-09-01T07:35:22Z</time>
      </trkpt>
      <trkpt lat="48.85244" lon="2.93453">
        <ele>121</ele>
        <time>2019-09-01T07:35:32Z</time>
      </trkpt>
      <trkpt lat="48.85202" lon="2.93464">
        <ele>122</ele>
        <time>2019-09-01T07:35:43Z</time>
      </trkpt>
      <trkpt lat="48.8515" lon="2.93477">
        <ele>123</ele>
        <time>2019-09-01T07:35:56Z</time>
      </trkpt>
      <trkpt lat="48.85105" lon="2.9349">
        <ele>124</ele>
        <time>2019-09-01T07:36:08Z</time>
      </trkpt>
      <trkpt lat="48.85083" lon="2.93493">
        <ele>125</ele>
        <time>2019-09-01T07:36:14Z</time>
      </trkpt>
      <trkpt lat="48.85051" lon="2.93511">
        <ele>127</ele>
        <time>2019-09-01T07:36:23Z</time>
      </trkpt>
      <trkpt lat="48.85048" lon="2.93516">
        <ele>127</ele>
        <time>2019-09-01T07:36:24Z</time>
      </trkpt>
      <trkpt lat="48.85045" lon="2.93521">
        <ele>128</ele>
        <time>2019-09-01T07:36:25Z</time>
      </trkpt>
      <trkpt lat="48.85042" lon="2.93525">
        <ele>128</ele>
        <time>2019-09-01T07:36:26Z</time>
      </trkpt>
      <trkpt lat="48.85039" lon="2.9353">
        <ele>128</ele>
        <time>2019-09-01T07:36:27Z</time>
      </trkpt>
      <trkpt lat="48.85037" lon="2.93536">
        <ele>128</ele>
        <time>2019-09-01T07:36:28Z</time>
      </trkpt>
      <trkpt lat="48.85035" lon="2.93541">
        <ele>128</ele>
        <time>2019-09-01T07:36:29Z</time>
      </trkpt>
      <trkpt lat="48.85034" lon="2.93547">
        <ele>128</ele>
        <time>2019-09-01T07:36:30Z</time>
      </trkpt>
      <trkpt lat="48.85032" lon="2.93553">
        <ele>128</ele>
        <time>2019-09-01T07:36:31Z</time>
      </trkpt>
      <trkpt lat="48.85025" lon="2.93574">
        <ele>128</ele>
        <time>2019-09-01T07:36:35Z</time>
      </trkpt>
      <trkpt lat="48.84995" lon="2.93605">
        <ele>129</ele>
        <time>2019-09-01T07:36:46Z</time>
      </trkpt>
      <trkpt lat="48.84972" lon="2.93608">
        <ele>129</ele>
        <time>2019-09-01T07:36:52Z</time>
      </trkpt>
      <trkpt lat="48.84949" lon="2.93584">
        <ele>129</ele>
        <time>2019-09-01T07:37:00Z</time>
      </trkpt>
      <trkpt lat="48.84911" lon="2.93559">
        <ele>130</ele>
        <time>2019-09-01T07:37:14Z</time>
      </trkpt>
      <trkpt lat="48.8486" lon="2.93559">
        <ele>130</ele>
        <time>2019-09-01T07:37:25Z</time>
      </trkpt>
      <trkpt lat="48.84833" lon="2.93559">
        <ele>131</ele>
        <time>2019-09-01T07:37:30Z</time>
      </trkpt>
      <trkpt lat="48.84773" lon="2.93568">
        <ele>132</ele>
        <time>2019-09-01T07:37:44Z</time>
      </trkpt>
      <trkpt lat="48.8473" lon="2.93571">
        <ele>133</ele>
        <time>2019-09-01T07:37:52Z</time>
      </trkpt>
      <trkpt lat="48.84706" lon="2.93563">
        <ele>133</ele>
        <time>2019-09-01T07:37:57Z</time>
      </trkpt>
      <trkpt lat="48.84633" lon="2.93522">
        <ele>131</ele>
        <time>2019-09-01T07:38:13Z</time>
      </trkpt>
      <trkpt lat="48.84561" lon="2.93478">
        <ele>130</ele>
        <time>2019-09-01T07:38:28Z</time>
      </trkpt>
      <trkpt lat="48.84543" lon="2.93469">
        <ele>130</ele>
        <time>2019-09-01T07:38:32Z</time>
      </trkpt>
      <trkpt lat="48.84523" lon="2.93448">
        <ele>130</ele>
        <time>2019-09-01T07:38:37Z</time>
      </trkpt>
      <trkpt lat="48.84469" lon="2.93337">
        <ele>129</ele>
        <time>2019-09-01T07:38:53Z</time>
      </trkpt>
      <trkpt lat="48.84411" lon="2.93281">
        <ele>127</ele>
        <time>2019-09-01T07:39:06Z</time>
      </trkpt>
      <trkpt lat="48.84329" lon="2.93199">
        <ele>126</ele>
        <time>2019-09-01T07:39:20Z</time>
      </trkpt>
      <trkpt lat="48.84324" lon="2.93194">
        <ele>126</ele>
        <time>2019-09-01T07:39:21Z</time>
      </trkpt>
      <trkpt lat="48.84245" lon="2.93133">
        <ele>126</ele>
        <time>2019-09-01T07:39:38Z</time>
      </trkpt>
      <trkpt lat="48.84177" lon="2.93072">
        <ele>124</ele>
        <time>2019-09-01T07:39:53Z</time>
      </trkpt>
      <trkpt lat="48.84138" lon="2.9304">
        <ele>126</ele>
        <time>2019-09-01T07:40:02Z</time>
      </trkpt>
      <trkpt lat="48.84122" lon="2.93026">
        <ele>126</ele>
        <time>2019-09-01T07:40:06Z</time>
      </trkpt>
      <trkpt lat="48.84105" lon="2.93015">
        <ele>126</ele>
        <time>2019-09-01T07:40:10Z</time>
      </trkpt>
      <trkpt lat="48.84092" lon="2.93007">
        <ele>126</ele>
        <time>2019-09-01T07:40:13Z</time>
      </trkpt>
      <trkpt lat="48.8402" lon="2.92956">
        <ele>126</ele>
        <time>2019-09-01T07:40:28Z</time>
      </trkpt>
      <trkpt lat="48.8396" lon="2.92896">
        <ele>125</ele>
        <time>2019-09-01T07:40:43Z</time>
      </trkpt>
      <trkpt lat="48.83951" lon="2.9289">
        <ele>125</ele>
        <time>2019-09-01T07:40:45Z</time>
      </trkpt>
      <trkpt lat="48.83942" lon="2.92832">
        <ele>121</ele>
        <time>2019-09-01T07:40:52Z</time>
      </trkpt>
      <trkpt lat="48.83952" lon="2.92783">
        <ele>120</ele>
        <time>2019-09-01T07:40:57Z</time>
      </trkpt>
      <trkpt lat="48.83969" lon="2.92623">
        <ele>113</ele>
        <time>2019-09-01T07:41:11Z</time>
      </trkpt>
      <trkpt lat="48.83996" lon="2.92514">
        <ele>107</ele>
        <time>2019-09-01T07:41:22Z</time>
      </trkpt>
      <trkpt lat="48.84036" lon="2.92362">
        <ele>96</ele>
        <time>2019-09-01T07:41:36Z</time>
      </trkpt>
      <trkpt lat="48.84047" lon="2.92311">
        <ele>93</ele>
        <time>2019-09-01T07:41:41Z</time>
      </trkpt>
      <trkpt lat="48.84059" lon="2.92263">
        <ele>92</ele>
        <time>2019-09-01T07:41:46Z</time>
      </trkpt>
      <trkpt lat="48.84062" lon="2.92233">
        <ele>90</ele>
        <time>2019-09-01T07:41:49Z</time>
      </trkpt>
      <trkpt lat="48.84078" lon="2.92208">
        <ele>89</ele>
        <time>2019-09-01T07:41:57Z</time>
      </trkpt>
      <trkpt lat="48.8408" lon="2.92211">
        <ele>89</ele>
        <time>2019-09-01T07:41:58Z</time>
      </trkpt>
      <trkpt lat="48.84114" lon="2.92251">
        <ele>88</ele>
        <time>2019-09-01T07:42:06Z</time>
      </trkpt>
      <trkpt lat="48.84137" lon="2.92287">
        <ele>88</ele>
        <time>2019-09-01T07:42:12Z</time>
      </trkpt>
      <trkpt lat="48.84149" lon="2.92313">
        <ele>89</ele>
        <time>2019-09-01T07:42:16Z</time>
      </trkpt>
      <trkpt lat="48.8418" lon="2.92396">
        <ele>90</ele>
        <time>2019-09-01T07:42:32Z</time>
      </trkpt>
      <trkpt lat="48.84187" lon="2.92412">
        <ele>91</ele>
        <time>2019-09-01T07:42:37Z</time>
      </trkpt>
      <trkpt lat="48.84196" lon="2.92405">
        <ele>90</ele>
        <time>2019-09-01T07:42:41Z</time>
      </trkpt>
      <trkpt lat="48.84231" lon="2.92366">
        <ele>87</ele>
        <time>2019-09-01T07:42:49Z</time>
      </trkpt>
      <trkpt lat="48.84254" lon="2.92333">
        <ele>79</ele>
        <time>2019-09-01T07:42:54Z</time>
      </trkpt>
      <trkpt lat="48.84324" lon="2.92277">
        <ele>69</ele>
        <time>2019-09-01T07:43:06Z</time>
      </trkpt>
      <trkpt lat="48.84353" lon="2.9228">
        <ele>62</ele>
        <time>2019-09-01T07:43:10Z</time>
      </trkpt>
      <trkpt lat="48.84377" lon="2.9225">
        <ele>59</ele>
        <time>2019-09-01T07:43:19Z</time>
      </trkpt>
      <trkpt lat="48.84376" lon="2.92221">
        <ele>59</ele>
        <time>2019-09-01T07:43:23Z</time>
      </trkpt>
      <trkpt lat="48.84373" lon="2.922">
        <ele>59</ele>
        <time>2019-09-01T07:43:26Z</time>
      </trkpt>
      <trkpt lat="48.84362" lon="2.92112">
        <ele>58</ele>
        <time>2019-09-01T07:43:37Z</time>
      </trkpt>
      <trkpt lat="48.8436" lon="2.92094">
        <ele>58</ele>
        <time>2019-09-01T07:43:39Z</time>
      </trkpt>
      <trkpt lat="48.84357" lon="2.9206">
        <ele>57</ele>
        <time>2019-09-01T07:43:43Z</time>
      </trkpt>
      <trkpt lat="48.84353" lon="2.91941">
        <ele>56</ele>
        <time>2019-09-01T07:43:56Z</time>
      </trkpt>
      <trkpt lat="48.84353" lon="2.91932">
        <ele>56</ele>
        <time>2019-09-01T07:43:57Z</time>
      </trkpt>
      <trkpt lat="48.84357" lon="2.91848">
        <ele>56</ele>
        <time>2019-09-01T07:44:07Z</time>
      </trkpt>
      <trkpt lat="48.84359" lon="2.9178">
        <ele>55</ele>
        <time>2019-09-01T07:44:16Z</time>
      </trkpt>
      <trkpt lat="48.84361" lon="2.917">
        <ele>54</ele>
        <time>2019-09-01T07:44:26Z</time>
      </trkpt>
      <trkpt lat="48.84362" lon="2.91627">
        <ele>54</ele>
        <time>2019-09-01T07:44:36Z</time>
      </trkpt>
      <trkpt lat="48.84345" lon="2.91601">
        <ele>54</ele>
        <time>2019-09-01T07:44:42Z</time>
      </trkpt>
      <trkpt lat="48.84315" lon="2.91582">
        <ele>56</ele>
        <time>2019-09-01T07:44:49Z</time>
      </trkpt>
      <trkpt lat="48.84299" lon="2.91574">
        <ele>56</ele>
        <time>2019-09-01T07:44:53Z</time>
      </trkpt>
      <trkpt lat="48.84283" lon="2.91554">
        <ele>56</ele>
        <time>2019-09-01T07:44:59Z</time>
      </trkpt>
      <trkpt lat="48.84279" lon="2.91525">
        <ele>56</ele>
        <time>2019-09-01T07:45:03Z</time>
      </trkpt>
      <trkpt lat="48.84279" lon="2.91512">
        <ele>56</ele>
        <time>2019-09-01T07:45:05Z</time>
      </trkpt>
      <trkpt lat="48.84283" lon="2.91464">
        <ele>56</ele>
        <time>2019-09-01T07:45:12Z</time>
      </trkpt>
      <trkpt lat="48.84287" lon="2.91441">
        <ele>55</ele>
        <time>2019-09-01T07:45:16Z</time>
      </trkpt>
      <trkpt lat="48.84309" lon="2.91401">
        <ele>55</ele>
        <time>2019-09-01T07:45:27Z</time>
      </trkpt>
      <trkpt lat="48.84313" lon="2.914">
        <ele>55</ele>
        <time>2019-09-01T07:45:28Z</time>
      </trkpt>
      <trkpt lat="48.84365" lon="2.91414">
        <ele>54</ele>
        <time>2019-09-01T07:45:37Z</time>
      </trkpt>
      <trkpt lat="48.84382" lon="2.91406">
        <ele>54</ele>
        <time>2019-09-01T07:45:41Z</time>
      </trkpt>
      <trkpt lat="48.84403" lon="2.91381">
        <ele>54</ele>
        <time>2019-09-01T07:45:54Z</time>
      </trkpt>
      <trkpt lat="48.84434" lon="2.91381">
        <ele>52</ele>
        <time>2019-09-01T07:46:01Z</time>
      </trkpt>
      <trkpt lat="48.84448" lon="2.91349">
        <ele>52</ele>
        <time>2019-09-01T07:46:08Z</time>
      </trkpt>
      <trkpt lat="48.8444" lon="2.91294">
        <ele>53</ele>
        <time>2019-09-01T07:46:18Z</time>
      </trkpt>
      <trkpt lat="48.84432" lon="2.9129">
        <ele>53</ele>
        <time>2019-09-01T07:46:22Z</time>
      </trkpt>
      <trkpt lat="48.84396" lon="2.91301">
        <ele>55</ele>
        <time>2019-09-01T07:46:31Z</time>
      </trkpt>
      <trkpt lat="48.8438" lon="2.91308">
        <ele>55</ele>
        <time>2019-09-01T07:46:35Z</time>
      </trkpt>
      <trkpt lat="48.84371" lon="2.91309">
        <ele>55</ele>
        <time>2019-09-01T07:46:40Z</time>
      </trkpt>
      <trkpt lat="48.84329" lon="2.91317">
        <ele>56</ele>
        <time>2019-09-01T07:46:53Z</time>
      </trkpt>
      <trkpt lat="48.84287" lon="2.91316">
        <ele>57</ele>
        <time>2019-09-01T07:47:03Z</time>
      </trkpt>
      <trkpt lat="48.84262" lon="2.9132">
        <ele>57</ele>
        <time>2019-09-01T07:47:14Z</time>
      </trkpt>
      <trkpt lat="48.84261" lon="2.9132">
        <ele>57</ele>
        <time>2019-09-01T07:47:15Z</time>
      </trkpt>
      <trkpt lat="48.84267" lon="2.9127">
        <ele>57</ele>
        <time>2019-09-01T07:47:28Z</time>
      </trkpt>
      <trkpt lat="48.84276" lon="2.91192">
        <ele>54</ele>
        <time>2019-09-01T07:47:41Z</time>
      </trkpt>
      <trkpt lat="48.84259" lon="2.9117">
        <ele>53</ele>
        <time>2019-09-01T07:47:52Z</time>
      </trkpt>
      <trkpt lat="48.84221" lon="2.91145">
        <ele>53</ele>
        <time>2019-09-01T07:48:04Z</time>
      </trkpt>
      <trkpt lat="48.84208" lon="2.91139">
        <ele>53</ele>
        <time>2019-09-01T07:48:09Z</time>
      </trkpt>
      <trkpt lat="48.84196" lon="2.91164">
        <ele>53</ele>
        <time>2019-09-01T07:48:21Z</time>
      </trkpt>
      <trkpt lat="48.84197" lon="2.91206">
        <ele>56</ele>
        <time>2019-09-01T07:48:34Z</time>
      </trkpt>
      <trkpt lat="48.842" lon="2.91272">
        <ele>58</ele>
        <time>2019-09-01T07:48:46Z</time>
      </trkpt>
      <trkpt lat="48.84199" lon="2.91279">
        <ele>58</ele>
        <time>2019-09-01T07:48:47Z</time>
      </trkpt>
      <trkpt lat="48.84192" lon="2.91322">
        <ele>59</ele>
        <time>2019-09-01T07:48:54Z</time>
      </trkpt>
      <trkpt lat="48.84176" lon="2.91378">
        <ele>59</ele>
        <time>2019-09-01T07:49:06Z</time>
      </trkpt>
      <trkpt lat="48.84167" lon="2.91384">
        <ele>62</ele>
        <time>2019-09-01T07:49:09Z</time>
      </trkpt>
      <trkpt lat="48.84105" lon="2.9135">
        <ele>64</ele>
        <time>2019-09-01T07:49:23Z</time>
      </trkpt>
      <trkpt lat="48.84053" lon="2.91304">
        <ele>67</ele>
        <time>2019-09-01T07:49:37Z</time>
      </trkpt>
      <trkpt lat="48.8403" lon="2.91285">
        <ele>67</ele>
        <time>2019-09-01T07:49:48Z</time>
      </trkpt>
      <trkpt lat="48.84001" lon="2.91266">
        <ele>68</ele>
        <time>2019-09-01T07:50:02Z</time>
      </trkpt>
      <trkpt lat="48.83975" lon="2.91271">
        <ele>74</ele>
        <time>2019-09-01T07:50:15Z</time>
      </trkpt>
      <trkpt lat="48.83951" lon="2.9127">
        <ele>75</ele>
        <time>2019-09-01T07:50:27Z</time>
      </trkpt>
      <trkpt lat="48.83928" lon="2.91263">
        <ele>77</ele>
        <time>2019-09-01T07:50:42Z</time>
      </trkpt>
      <trkpt lat="48.8392" lon="2.9126">
        <ele>77</ele>
        <time>2019-09-01T07:50:48Z</time>
      </trkpt>
      <trkpt lat="48.83905" lon="2.91265">
        <ele>81</ele>
        <time>2019-09-01T07:50:58Z</time>
      </trkpt>
      <trkpt lat="48.83887" lon="2.91277">
        <ele>83</ele>
        <time>2019-09-01T07:51:10Z</time>
      </trkpt>
      <trkpt lat="48.83869" lon="2.91283">
        <ele>84</ele>
        <time>2019-09-01T07:51:22Z</time>
      </trkpt>
      <trkpt lat="48.83849" lon="2.91288">
        <ele>84</ele>
        <time>2019-09-01T07:51:33Z</time>
      </trkpt>
      <trkpt lat="48.83841" lon="2.91291">
        <ele>85</ele>
        <time>2019-09-01T07:51:38Z</time>
      </trkpt>
      <trkpt lat="48.83816" lon="2.9129">
        <ele>89</ele>
        <time>2019-09-01T07:51:52Z</time>
      </trkpt>
      <trkpt lat="48.83796" lon="2.91287">
        <ele>89</ele>
        <time>2019-09-01T07:52:02Z</time>
      </trkpt>
      <trkpt lat="48.83783" lon="2.91273">
        <ele>89</ele>
        <time>2019-09-01T07:52:08Z</time>
      </trkpt>
      <trkpt lat="48.83773" lon="2.9126">
        <ele>89</ele>
        <time>2019-09-01T07:52:12Z</time>
      </trkpt>
      <trkpt lat="48.83749" lon="2.91236">
        <ele>90</ele>
        <time>2019-09-01T07:52:19Z</time>
      </trkpt>
      <trkpt lat="48.83714" lon="2.912">
        <ele>90</ele>
        <time>2019-09-01T07:52:29Z</time>
      </trkpt>
      <trkpt lat="48.83711" lon="2.91196">
        <ele>90</ele>
        <time>2019-09-01T07:52:30Z</time>
      </trkpt>
      <trkpt lat="48.83699" lon="2.91182">
        <ele>90</ele>
        <time>2019-09-01T07:52:34Z</time>
      </trkpt>
      <trkpt lat="48.83679" lon="2.9116">
        <ele>89</ele>
        <time>2019-09-01T07:52:40Z</time>
      </trkpt>
      <trkpt lat="48.83665" lon="2.91149">
        <ele>90</ele>
        <time>2019-09-01T07:52:43Z</time>
      </trkpt>
      <trkpt lat="48.83649" lon="2.9113">
        <ele>90</ele>
        <time>2019-09-01T07:52:47Z</time>
      </trkpt>
      <trkpt lat="48.83632" lon="2.91111">
        <ele>89</ele>
        <time>2019-09-01T07:52:51Z</time>
      </trkpt>
      <trkpt lat="48.83594" lon="2.91079">
        <ele>87</ele>
        <time>2019-09-01T07:52:59Z</time>
      </trkpt>
      <trkpt lat="48.83548" lon="2.91061">
        <ele>87</ele>
        <time>2019-09-01T07:53:11Z</time>
      </trkpt>
      <trkpt lat="48.83508" lon="2.91048">
        <ele>88</ele>
        <time>2019-09-01T07:53:22Z</time>
      </trkpt>
      <trkpt lat="48.83486" lon="2.91045">
        <ele>89</ele>
        <time>2019-09-01T07:53:27Z</time>
      </trkpt>
      <trkpt lat="48.83463" lon="2.91041">
        <ele>89</ele>
        <time>2019-09-01T07:53:32Z</time>
      </trkpt>
      <trkpt lat="48.83429" lon="2.91035">
        <ele>89</ele>
        <time>2019-09-01T07:53:39Z</time>
      </trkpt>
      <trkpt lat="48.83406" lon="2.91037">
        <ele>89</ele>
        <time>2019-09-01T07:53:43Z</time>
      </trkpt>
      <trkpt lat="48.83387" lon="2.91039">
        <ele>89</ele>
        <time>2019-09-01T07:53:46Z</time>
      </trkpt>
      <trkpt lat="48.83327" lon="2.91033">
        <ele>85</ele>
        <time>2019-09-01T07:53:56Z</time>
      </trkpt>
      <trkpt lat="48.8331" lon="2.91036">
        <ele>85</ele>
        <time>2019-09-01T07:53:59Z</time>
      </trkpt>
      <trkpt lat="48.83253" lon="2.91055">
        <ele>85</ele>
        <time>2019-09-01T07:54:08Z</time>
      </trkpt>
      <trkpt lat="48.83175" lon="2.91063">
        <ele>83</ele>
        <time>2019-09-01T07:54:20Z</time>
      </trkpt>
      <trkpt lat="48.83095" lon="2.9105">
        <ele>79</ele>
        <time>2019-09-01T07:54:31Z</time>
      </trkpt>
      <trkpt lat="48.83077" lon="2.91044">
        <ele>77</ele>
        <time>2019-09-01T07:54:34Z</time>
      </trkpt>
      <trkpt lat="48.8307" lon="2.91024">
        <ele>75</ele>
        <time>2019-09-01T07:54:37Z</time>
      </trkpt>
      <trkpt lat="48.83071" lon="2.90997">
        <ele>70</ele>
        <time>2019-09-01T07:54:41Z</time>
      </trkpt>
      <trkpt lat="48.83085" lon="2.90946">
        <ele>68</ele>
        <time>2019-09-01T07:54:49Z</time>
      </trkpt>
      <trkpt lat="48.83108" lon="2.90922">
        <ele>67</ele>
        <time>2019-09-01T07:54:53Z</time>
      </trkpt>
      <trkpt lat="48.83115" lon="2.90906">
        <ele>63</ele>
        <time>2019-09-01T07:54:56Z</time>
      </trkpt>
      <trkpt lat="48.83084" lon="2.909">
        <ele>63</ele>
        <time>2019-09-01T07:55:02Z</time>
      </trkpt>
      <trkpt lat="48.83078" lon="2.90903">
        <ele>62</ele>
        <time>2019-09-01T07:55:03Z</time>
      </trkpt>
      <trkpt lat="48.83034" lon="2.90928">
        <ele>65</ele>
        <time>2019-09-01T07:55:09Z</time>
      </trkpt>
      <trkpt lat="48.83018" lon="2.90943">
        <ele>65</ele>
        <time>2019-09-01T07:55:15Z</time>
      </trkpt>
      <trkpt lat="48.83018" lon="2.90949">
        <ele>66</ele>
        <time>2019-09-01T07:55:18Z</time>
      </trkpt>
      <trkpt lat="48.83002" lon="2.90995">
        <ele>69</ele>
        <time>2019-09-01T07:55:35Z</time>
      </trkpt>
      <trkpt lat="48.82979" lon="2.91005">
        <ele>72</ele>
        <time>2019-09-01T07:55:41Z</time>
      </trkpt>
      <trkpt lat="48.82913" lon="2.91023">
        <ele>69</ele>
        <time>2019-09-01T07:55:55Z</time>
      </trkpt>
      <trkpt lat="48.82825" lon="2.91046">
        <ele>67</ele>
        <time>2019-09-01T07:56:11Z</time>
      </trkpt>
      <trkpt lat="48.82805" lon="2.91051">
        <ele>67</ele>
        <time>2019-09-01T07:56:14Z</time>
      </trkpt>
      <trkpt lat="48.8273" lon="2.9108">
        <ele>65</ele>
        <time>2019-09-01T07:56:26Z</time>
      </trkpt>
      <trkpt lat="48.8264" lon="2.91113">
        <ele>65</ele>
        <time>2019-09-01T07:56:41Z</time>
      </trkpt>
      <trkpt lat="48.82544" lon="2.91149">
        <ele>61</ele>
        <time>2019-09-01T07:56:56Z</time>
      </trkpt>
      <trkpt lat="48.82505" lon="2.91166">
        <ele>61</ele>
        <time>2019-09-01T07:57:02Z</time>
      </trkpt>
      <trkpt lat="48.82465" lon="2.9121">
        <ele>59</ele>
        <time>2019-09-01T07:57:10Z</time>
      </trkpt>
      <trkpt lat="48.82449" lon="2.91297">
        <ele>58</ele>
        <time>2019-09-01T07:57:21Z</time>
      </trkpt>
      <trkpt lat="48.82448" lon="2.9136">
        <ele>58</ele>
        <time>2019-09-01T07:57:28Z</time>
      </trkpt>
      <trkpt lat="48.82507" lon="2.91559">
        <ele>64</ele>
        <time>2019-09-01T07:57:42Z</time>
      </trkpt>
      <trkpt lat="48.82506" lon="2.91588">
        <ele>58</ele>
        <time>2019-09-01T07:57:45Z</time>
      </trkpt>
      <trkpt lat="48.82518" lon="2.91649">
        <ele>61</ele>
        <time>2019-09-01T07:57:52Z</time>
      </trkpt>
      <trkpt lat="48.82547" lon="2.91719">
        <ele>61</ele>
        <time>2019-09-01T07:58:01Z</time>
      </trkpt>
      <trkpt lat="48.82557" lon="2.91813">
        <ele>60</ele>
        <time>2019-09-01T07:58:11Z</time>
      </trkpt>
      <trkpt lat="48.8256" lon="2.91847">
        <ele>59</ele>
        <time>2019-09-01T07:58:15Z</time>
      </trkpt>
      <trkpt lat="48.82564" lon="2.91881">
        <ele>59</ele>
        <time>2019-09-01T07:58:19Z</time>
      </trkpt>
      <trkpt lat="48.82574" lon="2.91909">
        <ele>60</ele>
        <time>2019-09-01T07:58:24Z</time>
      </trkpt>
      <trkpt lat="48.82583" lon="2.91926">
        <ele>60</ele>
        <time>2019-09-01T07:58:28Z</time>
      </trkpt>
      <trkpt lat="48.82585" lon="2.91978">
        <ele>65</ele>
        <time>2019-09-01T07:58:35Z</time>
      </trkpt>
      <trkpt lat="48.82585" lon="2.92057">
        <ele>64</ele>
        <time>2019-09-01T07:58:44Z</time>
      </trkpt>
      <trkpt lat="48.82581" lon="2.92079">
        <ele>59</ele>
        <time>2019-09-01T07:58:47Z</time>
      </trkpt>
      <trkpt lat="48.82558" lon="2.92178">
        <ele>57</ele>
        <time>2019-09-01T07:59:02Z</time>
      </trkpt>
      <trkpt lat="48.82553" lon="2.92296">
        <ele>57</ele>
        <time>2019-09-01T07:59:19Z</time>
      </trkpt>
      <trkpt lat="48.82555" lon="2.92404">
        <ele>58</ele>
        <time>2019-09-01T07:59:34Z</time>
      </trkpt>
      <trkpt lat="48.82551" lon="2.92497">
        <ele>58</ele>
        <time>2019-09-01T07:59:46Z</time>
      </trkpt>
      <trkpt lat="48.82545" lon="2.9254">
        <ele>57</ele>
        <time>2019-09-01T07:59:52Z</time>
      </trkpt>
      <trkpt lat="48.82523" lon="2.92631">
        <ele>57</ele>
        <time>2019-09-01T08:00:07Z</time>
      </trkpt>
      <trkpt lat="48.82522" lon="2.92637">
        <ele>57</ele>
        <time>2019-09-01T08:00:08Z</time>
      </trkpt>
      <trkpt lat="48.8251" lon="2.92727">
        <ele>56</ele>
        <time>2019-09-01T08:00:20Z</time>
      </trkpt>
      <trkpt lat="48.82485" lon="2.92796">
        <ele>54</ele>
        <time>2019-09-01T08:00:30Z</time>
      </trkpt>
      <trkpt lat="48.82467" lon="2.92851">
        <ele>54</ele>
        <time>2019-09-01T08:00:38Z</time>
      </trkpt>
      <trkpt lat="48.82421" lon="2.92942">
        <ele>53</ele>
        <time>2019-09-01T08:00:53Z</time>
      </trkpt>
      <trkpt lat="48.82386" lon="2.93013">
        <ele>53</ele>
        <time>2019-09-01T08:01:05Z</time>
      </trkpt>
      <trkpt lat="48.82355" lon="2.9309">
        <ele>54</ele>
        <time>2019-09-01T08:01:18Z</time>
      </trkpt>
      <trkpt lat="48.82307" lon="2.93183">
        <ele>57</ele>
        <time>2019-09-01T08:01:33Z</time>
      </trkpt>
      <trkpt lat="48.82276" lon="2.93245">
        <ele>58</ele>
        <time>2019-09-01T08:01:45Z</time>
      </trkpt>
      <trkpt lat="48.82258" lon="2.93301">
        <ele>62</ele>
        <time>2019-09-01T08:01:57Z</time>
      </trkpt>
      <trkpt lat="48.82256" lon="2.93314">
        <ele>63</ele>
        <time>2019-09-01T08:02:02Z</time>
      </trkpt>
      <trkpt lat="48.82266" lon="2.93316">
        <ele>62</ele>
        <time>2019-09-01T08:02:09Z</time>
      </trkpt>
      <trkpt lat="48.82296" lon="2.93306">
        <ele>61</ele>
        <time>2019-09-01T08:02:24Z</time>
      </trkpt>
      <trkpt lat="48.8232" lon="2.93318">
        <ele>61</ele>
        <time>2019-09-01T08:02:39Z</time>
      </trkpt>
      <trkpt lat="48.82362" lon="2.93315">
        <ele>61</ele>
        <time>2019-09-01T08:02:54Z</time>
      </trkpt>
      <trkpt lat="48.82398" lon="2.93314">
        <ele>62</ele>
        <time>2019-09-01T08:03:09Z</time>
      </trkpt>
      <trkpt lat="48.82425" lon="2.93346">
        <ele>67</ele>
        <time>2019-09-01T08:03:26Z</time>
      </trkpt>
      <trkpt lat="48.82453" lon="2.93381">
        <ele>70</ele>
        <time>2019-09-01T08:03:42Z</time>
      </trkpt>
      <trkpt lat="48.82467" lon="2.93401">
        <ele>72</ele>
        <time>2019-09-01T08:03:53Z</time>
      </trkpt>
      <trkpt lat="48.82479" lon="2.93416">
        <ele>73</ele>
        <time>2019-09-01T08:04:04Z</time>
      </trkpt>
      <trkpt lat="48.82517" lon="2.93416">
        <ele>78</ele>
        <time>2019-09-01T08:04:20Z</time>
      </trkpt>
      <trkpt lat="48.82548" lon="2.93391">
        <ele>80</ele>
        <time>2019-09-01T08:04:30Z</time>
      </trkpt>
      <trkpt lat="48.82572" lon="2.93347">
        <ele>80</ele>
        <time>2019-09-01T08:04:41Z</time>
      </trkpt>
      <trkpt lat="48.82594" lon="2.93283">
        <ele>79</ele>
        <time>2019-09-01T08:04:52Z</time>
      </trkpt>
      <trkpt lat="48.82601" lon="2.9326">
        <ele>78</ele>
        <time>2019-09-01T08:05:00Z</time>
      </trkpt>
      <trkpt lat="48.82621" lon="2.93204">
        <ele>77</ele>
        <time>2019-09-01T08:05:10Z</time>
      </trkpt>
      <trkpt lat="48.82639" lon="2.93142">
        <ele>75</ele>
        <time>2019-09-01T08:05:24Z</time>
      </trkpt>
      <trkpt lat="48.82646" lon="2.93066">
        <ele>74</ele>
        <time>2019-09-01T08:05:35Z</time>
      </trkpt>
      <trkpt lat="48.82655" lon="2.93011">
        <ele>75</ele>
        <time>2019-09-01T08:05:46Z</time>
      </trkpt>
      <trkpt lat="48.82671" lon="2.92949">
        <ele>80</ele>
        <time>2019-09-01T08:05:57Z</time>
      </trkpt>
      <trkpt lat="48.82689" lon="2.92893">
        <ele>80</ele>
        <time>2019-09-01T08:06:11Z</time>
      </trkpt>
      <trkpt lat="48.82699" lon="2.92837">
        <ele>80</ele>
        <time>2019-09-01T08:06:22Z</time>
      </trkpt>
      <trkpt lat="48.82701" lon="2.92826">
        <ele>79</ele>
        <time>2019-09-01T08:06:27Z</time>
      </trkpt>
      <trkpt lat="48.82705" lon="2.92829">
        <ele>79</ele>
        <time>2019-09-01T08:06:40Z</time>
      </trkpt>
      <trkpt lat="48.82704" lon="2.92829">
        <ele>79</ele>
        <time>2019-09-01T08:07:06Z</time>
      </trkpt>
      <trkpt lat="48.82704" lon="2.92829">
        <ele>79</ele>
        <time>2019-09-01T08:07:22Z</time>
      </trkpt>
      <trkpt lat="48.82704" lon="2.92829">
        <ele>79</ele>
        <time>2019-09-01T08:07:23Z</time>
      </trkpt>
      <trkpt lat="48.82704" lon="2.92824">
        <ele>79</ele>
        <time>2019-09-01T08:07:35Z</time>
      </trkpt>
      <trkpt lat="48.82704" lon="2.92825">
        <ele>79</ele>
        <time>2019-09-01T08:07:57Z</time>
      </trkpt>
      <trkpt lat="48.82704" lon="2.92824">
        <ele>79</ele>
        <time>2019-09-01T08:08:16Z</time>
      </trkpt>
      <trkpt lat="48.82724" lon="2.92811">
        <ele>81</ele>
        <time>2019-09-01T08:08:29Z</time>
      </trkpt>
      <trkpt lat="48.82744" lon="2.92785">
        <ele>81</ele>
        <time>2019-09-01T08:08:40Z</time>
      </trkpt>
      <trkpt lat="48.8277" lon="2.9278">
        <ele>89</ele>
        <time>2019-09-01T08:08:54Z</time>
      </trkpt>
      <trkpt lat="48.82771" lon="2.92777">
        <ele>89</ele>
        <time>2019-09-01T08:08:56Z</time>
      </trkpt>
      <trkpt lat="48.82775" lon="2.92773">
        <ele>89</ele>
        <time>2019-09-01T08:09:00Z</time>
      </trkpt>
      <trkpt lat="48.82797" lon="2.92772">
        <ele>91</ele>
        <time>2019-09-01T08:09:13Z</time>
      </trkpt>
      <trkpt lat="48.82819" lon="2.92773">
        <ele>92</ele>
        <time>2019-09-01T08:09:27Z</time>
      </trkpt>
      <trkpt lat="48.82841" lon="2.92761">
        <ele>97</ele>
        <time>2019-09-01T08:09:43Z</time>
      </trkpt>
      <trkpt lat="48.82859" lon="2.92748">
        <ele>98</ele>
        <time>2019-09-01T08:09:59Z</time>
      </trkpt>
      <trkpt lat="48.82892" lon="2.92741">
        <ele>100</ele>
        <time>2019-09-01T08:10:15Z</time>
      </trkpt>
      <trkpt lat="48.82921" lon="2.92734">
        <ele>104</ele>
        <time>2019-09-01T08:10:32Z</time>
      </trkpt>
      <trkpt lat="48.82949" lon="2.92726">
        <ele>106</ele>
        <time>2019-09-01T08:10:48Z</time>
      </trkpt>
      <trkpt lat="48.82987" lon="2.92731">
        <ele>108</ele>
        <time>2019-09-01T08:11:04Z</time>
      </trkpt>
      <trkpt lat="48.83011" lon="2.92727">
        <ele>111</ele>
        <time>2019-09-01T08:11:17Z</time>
      </trkpt>
      <trkpt lat="48.83018" lon="2.92725">
        <ele>112</ele>
        <time>2019-09-01T08:11:22Z</time>
      </trkpt>
      <trkpt lat="48.83025" lon="2.92743">
        <ele>112</ele>
        <time>2019-09-01T08:11:29Z</time>
      </trkpt>
      <trkpt lat="48.83041" lon="2.92804">
        <ele>113</ele>
        <time>2019-09-01T08:11:44Z</time>
      </trkpt>
      <trkpt lat="48.83052" lon="2.92878">
        <ele>114</ele>
        <time>2019-09-01T08:11:59Z</time>
      </trkpt>
      <trkpt lat="48.83057" lon="2.92897">
        <ele>115</ele>
        <time>2019-09-01T08:12:03Z</time>
      </trkpt>
      <trkpt lat="48.83067" lon="2.92907">
        <ele>116</ele>
        <time>2019-09-01T08:12:08Z</time>
      </trkpt>
      <trkpt lat="48.83109" lon="2.92915">
        <ele>119</ele>
        <time>2019-09-01T08:12:25Z</time>
      </trkpt>
      <trkpt lat="48.83136" lon="2.92919">
        <ele>120</ele>
        <time>2019-09-01T08:12:38Z</time>
      </trkpt>
      <trkpt lat="48.83136" lon="2.92961">
        <ele>120</ele>
        <time>2019-09-01T08:12:47Z</time>
      </trkpt>
      <trkpt lat="48.83117" lon="2.93011">
        <ele>120</ele>
        <time>2019-09-01T08:12:58Z</time>
      </trkpt>
      <trkpt lat="48.83115" lon="2.93017">
        <ele>120</ele>
        <time>2019-09-01T08:12:59Z</time>
      </trkpt>
      <trkpt lat="48.83114" lon="2.93046">
        <ele>120</ele>
        <time>2019-09-01T08:13:04Z</time>
      </trkpt>
      <trkpt lat="48.83108" lon="2.93096">
        <ele>121</ele>
        <time>2019-09-01T08:13:14Z</time>
      </trkpt>
      <trkpt lat="48.83105" lon="2.93107">
        <ele>121</ele>
        <time>2019-09-01T08:13:16Z</time>
      </trkpt>
      <trkpt lat="48.83101" lon="2.9313">
        <ele>121</ele>
        <time>2019-09-01T08:13:20Z</time>
      </trkpt>
      <trkpt lat="48.83094" lon="2.93205">
        <ele>122</ele>
        <time>2019-09-01T08:13:34Z</time>
      </trkpt>
      <trkpt lat="48.83091" lon="2.9323">
        <ele>122</ele>
        <time>2019-09-01T08:13:39Z</time>
      </trkpt>
      <trkpt lat="48.83087" lon="2.93275">
        <ele>123</ele>
        <time>2019-09-01T08:13:48Z</time>
      </trkpt>
      <trkpt lat="48.83087" lon="2.93292">
        <ele>124</ele>
        <time>2019-09-01T08:13:51Z</time>
      </trkpt>
      <trkpt lat="48.8309" lon="2.93305">
        <ele>124</ele>
        <time>2019-09-01T08:13:53Z</time>
      </trkpt>
      <trkpt lat="48.83093" lon="2.93318">
        <ele>124</ele>
        <time>2019-09-01T08:13:55Z</time>
      </trkpt>
      <trkpt lat="48.8311" lon="2.93399">
        <ele>125</ele>
        <time>2019-09-01T08:14:10Z</time>
      </trkpt>
      <trkpt lat="48.83064" lon="2.93386">
        <ele>121</ele>
        <time>2019-09-01T08:14:19Z</time>
      </trkpt>
      <trkpt lat="48.83044" lon="2.93376">
        <ele>120</ele>
        <time>2019-09-01T08:14:24Z</time>
      </trkpt>
      <trkpt lat="48.83038" lon="2.93378">
        <ele>120</ele>
        <time>2019-09-01T08:14:26Z</time>
      </trkpt>
      <trkpt lat="48.8302" lon="2.93419">
        <ele>120</ele>
        <time>2019-09-01T08:14:36Z</time>
      </trkpt>
      <trkpt lat="48.83014" lon="2.93443">
        <ele>121</ele>
        <time>2019-09-01T08:14:40Z</time>
      </trkpt>
      <trkpt lat="48.82995" lon="2.93457">
        <ele>116</ele>
        <time>2019-09-01T08:14:47Z</time>
      </trkpt>
      <trkpt lat="48.82976" lon="2.93456">
        <ele>115</ele>
        <time>2019-09-01T08:14:51Z</time>
      </trkpt>
      <trkpt lat="48.82919" lon="2.9348">
        <ele>112</ele>
        <time>2019-09-01T08:15:02Z</time>
      </trkpt>
      <trkpt lat="48.82909" lon="2.93484">
        <ele>108</ele>
        <time>2019-09-01T08:15:04Z</time>
      </trkpt>
      <trkpt lat="48.82879" lon="2.93474">
        <ele>106</ele>
        <time>2019-09-01T08:15:09Z</time>
      </trkpt>
      <trkpt lat="48.82835" lon="2.93477">
        <ele>104</ele>
        <time>2019-09-01T08:15:16Z</time>
      </trkpt>
      <trkpt lat="48.82791" lon="2.935">
        <ele>100</ele>
        <time>2019-09-01T08:15:23Z</time>
      </trkpt>
      <trkpt lat="48.8276" lon="2.93575">
        <ele>100</ele>
        <time>2019-09-01T08:15:34Z</time>
      </trkpt>
      <trkpt lat="48.82735" lon="2.93594">
        <ele>99</ele>
        <time>2019-09-01T08:15:39Z</time>
      </trkpt>
      <trkpt lat="48.82722" lon="2.93603">
        <ele>99</ele>
        <time>2019-09-01T08:15:42Z</time>
      </trkpt>
      <trkpt lat="48.82696" lon="2.9362">
        <ele>98</ele>
        <time>2019-09-01T08:15:47Z</time>
      </trkpt>
      <trkpt lat="48.82638" lon="2.93619">
        <ele>96</ele>
        <time>2019-09-01T08:15:56Z</time>
      </trkpt>
      <trkpt lat="48.82573" lon="2.93572">
        <ele>90</ele>
        <time>2019-09-01T08:16:07Z</time>
      </trkpt>
      <trkpt lat="48.82518" lon="2.9357">
        <ele>89</ele>
        <time>2019-09-01T08:16:21Z</time>
      </trkpt>
      <trkpt lat="48.82507" lon="2.93647">
        <ele>95</ele>
        <time>2019-09-01T08:16:36Z</time>
      </trkpt>
      <trkpt lat="48.82487" lon="2.93704">
        <ele>97</ele>
        <time>2019-09-01T08:16:48Z</time>
      </trkpt>
      <trkpt lat="48.82476" lon="2.9375">
        <ele>98</ele>
        <time>2019-09-01T08:16:58Z</time>
      </trkpt>
      <trkpt lat="48.82443" lon="2.93728">
        <ele>97</ele>
        <time>2019-09-01T08:17:08Z</time>
      </trkpt>
      <trkpt lat="48.82401" lon="2.93692">
        <ele>93</ele>
        <time>2019-09-01T08:17:19Z</time>
      </trkpt>
      <trkpt lat="48.82399" lon="2.93691">
        <ele>93</ele>
        <time>2019-09-01T08:17:20Z</time>
      </trkpt>
      <trkpt lat="48.82386" lon="2.93698">
        <ele>92</ele>
        <time>2019-09-01T08:17:26Z</time>
      </trkpt>
      <trkpt lat="48.82387" lon="2.93714">
        <ele>93</ele>
        <time>2019-09-01T08:17:30Z</time>
      </trkpt>
      <trkpt lat="48.82389" lon="2.93732">
        <ele>93</ele>
        <time>2019-09-01T08:17:33Z</time>
      </trkpt>
      <trkpt lat="48.82374" lon="2.93764">
        <ele>95</ele>
        <time>2019-09-01T08:17:41Z</time>
      </trkpt>
      <trkpt lat="48.82348" lon="2.93754">
        <ele>92</ele>
        <time>2019-09-01T08:17:49Z</time>
      </trkpt>
      <trkpt lat="48.82314" lon="2.93775">
        <ele>90</ele>
        <time>2019-09-01T08:17:59Z</time>
      </trkpt>
      <trkpt lat="48.82281" lon="2.93796">
        <ele>90</ele>
        <time>2019-09-01T08:18:09Z</time>
      </trkpt>
      <trkpt lat="48.82266" lon="2.9382">
        <ele>90</ele>
        <time>2019-09-01T08:18:18Z</time>
      </trkpt>
      <trkpt lat="48.82239" lon="2.9387">
        <ele>90</ele>
        <time>2019-09-01T08:18:33Z</time>
      </trkpt>
      <trkpt lat="48.82223" lon="2.93858">
        <ele>89</ele>
        <time>2019-09-01T08:18:38Z</time>
      </trkpt>
      <trkpt lat="48.82198" lon="2.93821">
        <ele>86</ele>
        <time>2019-09-01T08:18:44Z</time>
      </trkpt>
      <trkpt lat="48.8216" lon="2.93753">
        <ele>81</ele>
        <time>2019-09-01T08:18:57Z</time>
      </trkpt>
      <trkpt lat="48.8215" lon="2.93725">
        <ele>78</ele>
        <time>2019-09-01T08:19:02Z</time>
      </trkpt>
      <trkpt lat="48.8214" lon="2.93699">
        <ele>77</ele>
        <time>2019-09-01T08:19:06Z</time>
      </trkpt>
      <trkpt lat="48.82128" lon="2.93629">
        <ele>72</ele>
        <time>2019-09-01T08:19:15Z</time>
      </trkpt>
      <trkpt lat="48.8214" lon="2.93464">
        <ele>63</ele>
        <time>2019-09-01T08:19:32Z</time>
      </trkpt>
      <trkpt lat="48.82151" lon="2.93412">
        <ele>61</ele>
        <time>2019-09-01T08:19:37Z</time>
      </trkpt>
      <trkpt lat="48.82154" lon="2.93393">
        <ele>61</ele>
        <time>2019-09-01T08:19:39Z</time>
      </trkpt>
      <trkpt lat="48.82151" lon="2.93354">
        <ele>61</ele>
        <time>2019-09-01T08:19:45Z</time>
      </trkpt>
      <trkpt lat="48.82136" lon="2.9333">
        <ele>60</ele>
        <time>2019-09-01T08:19:49Z</time>
      </trkpt>
      <trkpt lat="48.82073" lon="2.93235">
        <ele>60</ele>
        <time>2019-09-01T08:20:04Z</time>
      </trkpt>
      <trkpt lat="48.82048" lon="2.93216">
        <ele>60</ele>
        <time>2019-09-01T08:20:14Z</time>
      </trkpt>
      <trkpt lat="48.8204" lon="2.93202">
        <ele>60</ele>
        <time>2019-09-01T08:20:25Z</time>
      </trkpt>
      <trkpt lat="48.82033" lon="2.93195">
        <ele>61</ele>
        <time>2019-09-01T08:20:39Z</time>
      </trkpt>
      <trkpt lat="48.81993" lon="2.93227">
        <ele>63</ele>
        <time>2019-09-01T08:20:50Z</time>
      </trkpt>
      <trkpt lat="48.81959" lon="2.93262">
        <ele>61</ele>
        <time>2019-09-01T08:21:01Z</time>
      </trkpt>
      <trkpt lat="48.81918" lon="2.93277">
        <ele>62</ele>
        <time>2019-09-01T08:21:13Z</time>
      </trkpt>
      <trkpt lat="48.8191" lon="2.93279">
        <ele>65</ele>
        <time>2019-09-01T08:21:16Z</time>
      </trkpt>
      <trkpt lat="48.81901" lon="2.93287">
        <ele>65</ele>
        <time>2019-09-01T08:21:20Z</time>
      </trkpt>
      <trkpt lat="48.8187" lon="2.93315">
        <ele>65</ele>
        <time>2019-09-01T08:21:34Z</time>
      </trkpt>
      <trkpt lat="48.81846" lon="2.93342">
        <ele>64</ele>
        <time>2019-09-01T08:21:45Z</time>
      </trkpt>
      <trkpt lat="48.81814" lon="2.93366">
        <ele>66</ele>
        <time>2019-09-01T08:21:57Z</time>
      </trkpt>
      <trkpt lat="48.81782" lon="2.93379">
        <ele>66</ele>
        <time>2019-09-01T08:22:09Z</time>
      </trkpt>
      <trkpt lat="48.81746" lon="2.9339">
        <ele>70</ele>
        <time>2019-09-01T08:22:24Z</time>
      </trkpt>
      <trkpt lat="48.81725" lon="2.93396">
        <ele>70</ele>
        <time>2019-09-01T08:22:36Z</time>
      </trkpt>
      <trkpt lat="48.81703" lon="2.93381">
        <ele>72</ele>
        <time>2019-09-01T08:22:48Z</time>
      </trkpt>
      <trkpt lat="48.81687" lon="2.93372">
        <ele>73</ele>
        <time>2019-09-01T08:22:59Z</time>
      </trkpt>
      <trkpt lat="48.81669" lon="2.93358">
        <ele>74</ele>
        <time>2019-09-01T08:23:11Z</time>
      </trkpt>
      <trkpt lat="48.81668" lon="2.93358">
        <ele>74</ele>
        <time>2019-09-01T08:23:12Z</time>
      </trkpt>
      <trkpt lat="48.81654" lon="2.93349">
        <ele>78</ele>
        <time>2019-09-01T08:23:24Z</time>
      </trkpt>
      <trkpt lat="48.81635" lon="2.93349">
        <ele>79</ele>
        <time>2019-09-01T08:23:35Z</time>
      </trkpt>
      <trkpt lat="48.8161" lon="2.93359">
        <ele>81</ele>
        <time>2019-09-01T08:23:48Z</time>
      </trkpt>
      <trkpt lat="48.81575" lon="2.93377">
        <ele>87</ele>
        <time>2019-09-01T08:24:07Z</time>
      </trkpt>
      <trkpt lat="48.81554" lon="2.93386">
        <ele>88</ele>
        <time>2019-09-01T08:24:21Z</time>
      </trkpt>
      <trkpt lat="48.81529" lon="2.93391">
        <ele>89</ele>
        <time>2019-09-01T08:24:33Z</time>
      </trkpt>
      <trkpt lat="48.81509" lon="2.93402">
        <ele>89</ele>
        <time>2019-09-01T08:24:45Z</time>
      </trkpt>
      <trkpt lat="48.81497" lon="2.93406">
        <ele>92</ele>
        <time>2019-09-01T08:24:54Z</time>
      </trkpt>
      <trkpt lat="48.81475" lon="2.93395">
        <ele>95</ele>
        <time>2019-09-01T08:25:09Z</time>
      </trkpt>
      <trkpt lat="48.81466" lon="2.93385">
        <ele>96</ele>
        <time>2019-09-01T08:25:24Z</time>
      </trkpt>
      <trkpt lat="48.81466" lon="2.93386">
        <ele>96</ele>
        <time>2019-09-01T08:25:44Z</time>
      </trkpt>
      <trkpt lat="48.81454" lon="2.93386">
        <ele>96</ele>
        <time>2019-09-01T08:26:00Z</time>
      </trkpt>
      <trkpt lat="48.81427" lon="2.93376">
        <ele>98</ele>
        <time>2019-09-01T08:26:16Z</time>
      </trkpt>
      <trkpt lat="48.81407" lon="2.93349">
        <ele>103</ele>
        <time>2019-09-01T08:26:34Z</time>
      </trkpt>
      <trkpt lat="48.81389" lon="2.93324">
        <ele>105</ele>
        <time>2019-09-01T08:26:51Z</time>
      </trkpt>
      <trkpt lat="48.8138" lon="2.93289">
        <ele>106</ele>
        <time>2019-09-01T08:27:08Z</time>
      </trkpt>
      <trkpt lat="48.81368" lon="2.93255">
        <ele>107</ele>
        <time>2019-09-01T08:27:22Z</time>
      </trkpt>
      <trkpt lat="48.81348" lon="2.93247">
        <ele>108</ele>
        <time>2019-09-01T08:27:35Z</time>
      </trkpt>
      <trkpt lat="48.81328" lon="2.93256">
        <ele>110</ele>
        <time>2019-09-01T08:27:49Z</time>
      </trkpt>
      <trkpt lat="48.81309" lon="2.93265">
        <ele>112</ele>
        <time>2019-09-01T08:28:05Z</time>
      </trkpt>
      <trkpt lat="48.81289" lon="2.93273">
        <ele>114</ele>
        <time>2019-09-01T08:28:16Z</time>
      </trkpt>
      <trkpt lat="48.8128" lon="2.93234">
        <ele>114</ele>
        <time>2019-09-01T08:28:28Z</time>
      </trkpt>
      <trkpt lat="48.81252" lon="2.93194">
        <ele>114</ele>
        <time>2019-09-01T08:28:42Z</time>
      </trkpt>
      <trkpt lat="48.81206" lon="2.93177">
        <ele>120</ele>
        <time>2019-09-01T08:28:56Z</time>
      </trkpt>
      <trkpt lat="48.81174" lon="2.9317">
        <ele>122</ele>
        <time>2019-09-01T08:29:09Z</time>
      </trkpt>
      <trkpt lat="48.81139" lon="2.93138">
        <ele>122</ele>
        <time>2019-09-01T08:29:22Z</time>
      </trkpt>
      <trkpt lat="48.811" lon="2.93114">
        <ele>123</ele>
        <time>2019-09-01T08:29:36Z</time>
      </trkpt>
      <trkpt lat="48.81055" lon="2.93104">
        <ele>125</ele>
        <time>2019-09-01T08:29:52Z</time>
      </trkpt>
      <trkpt lat="48.81019" lon="2.93098">
        <ele>126</ele>
        <time>2019-09-01T08:30:04Z</time>
      </trkpt>
      <trkpt lat="48.8097" lon="2.93078">
        <ele>126</ele>
        <time>2019-09-01T08:30:18Z</time>
      </trkpt>
      <trkpt lat="48.80924" lon="2.93072">
        <ele>127</ele>
        <time>2019-09-01T08:30:30Z</time>
      </trkpt>
      <trkpt lat="48.80887" lon="2.93069">
        <ele>127</ele>
        <time>2019-09-01T08:30:39Z</time>
      </trkpt>
      <trkpt lat="48.80851" lon="2.93061">
        <ele>127</ele>
        <time>2019-09-01T08:30:47Z</time>
      </trkpt>
      <trkpt lat="48.80823" lon="2.93056">
        <ele>126</ele>
        <time>2019-09-01T08:30:54Z</time>
      </trkpt>
      <trkpt lat="48.80817" lon="2.93036">
        <ele>125</ele>
        <time>2019-09-01T08:30:58Z</time>
      </trkpt>
      <trkpt lat="48.80829" lon="2.92944">
        <ele>123</ele>
        <time>2019-09-01T08:31:07Z</time>
      </trkpt>
      <trkpt lat="48.80836" lon="2.92831">
        <ele>114</ele>
        <time>2019-09-01T08:31:17Z</time>
      </trkpt>
      <trkpt lat="48.80836" lon="2.92788">
        <ele>111</ele>
        <time>2019-09-01T08:31:21Z</time>
      </trkpt>
      <trkpt lat="48.80849" lon="2.92696">
        <ele>105</ele>
        <time>2019-09-01T08:31:32Z</time>
      </trkpt>
      <trkpt lat="48.8086" lon="2.92575">
        <ele>100</ele>
        <time>2019-09-01T08:31:43Z</time>
      </trkpt>
      <trkpt lat="48.8086" lon="2.92537">
        <ele>99</ele>
        <time>2019-09-01T08:31:47Z</time>
      </trkpt>
      <trkpt lat="48.80857" lon="2.92399">
        <ele>95</ele>
        <time>2019-09-01T08:32:01Z</time>
      </trkpt>
      <trkpt lat="48.80856" lon="2.9239">
        <ele>95</ele>
        <time>2019-09-01T08:32:02Z</time>
      </trkpt>
      <trkpt lat="48.80838" lon="2.92351">
        <ele>95</ele>
        <time>2019-09-01T08:32:11Z</time>
      </trkpt>
      <trkpt lat="48.80805" lon="2.92324">
        <ele>96</ele>
        <time>2019-09-01T08:32:23Z</time>
      </trkpt>
      <trkpt lat="48.80771" lon="2.92278">
        <ele>96</ele>
        <time>2019-09-01T08:32:36Z</time>
      </trkpt>
      <trkpt lat="48.8075" lon="2.92253">
        <ele>97</ele>
        <time>2019-09-01T08:32:44Z</time>
      </trkpt>
      <trkpt lat="48.80712" lon="2.92208">
        <ele>99</ele>
        <time>2019-09-01T08:32:56Z</time>
      </trkpt>
      <trkpt lat="48.80684" lon="2.92171">
        <ele>100</ele>
        <time>2019-09-01T08:33:06Z</time>
      </trkpt>
      <trkpt lat="48.80646" lon="2.92128">
        <ele>104</ele>
        <time>2019-09-01T08:33:19Z</time>
      </trkpt>
      <trkpt lat="48.8061" lon="2.92074">
        <ele>101</ele>
        <time>2019-09-01T08:33:35Z</time>
      </trkpt>
      <trkpt lat="48.80576" lon="2.92072">
        <ele>106</ele>
        <time>2019-09-01T08:33:51Z</time>
      </trkpt>
      <trkpt lat="48.80545" lon="2.9208">
        <ele>108</ele>
        <time>2019-09-01T08:34:07Z</time>
      </trkpt>
      <trkpt lat="48.80528" lon="2.92088">
        <ele>115</ele>
        <time>2019-09-01T08:34:21Z</time>
      </trkpt>
      <trkpt lat="48.80503" lon="2.92098">
        <ele>116</ele>
        <time>2019-09-01T08:34:38Z</time>
      </trkpt>
      <trkpt lat="48.80484" lon="2.92104">
        <ele>120</ele>
        <time>2019-09-01T08:34:53Z</time>
      </trkpt>
      <trkpt lat="48.80456" lon="2.92098">
        <ele>122</ele>
        <time>2019-09-01T08:35:12Z</time>
      </trkpt>
      <trkpt lat="48.80429" lon="2.92086">
        <ele>124</ele>
        <time>2019-09-01T08:35:31Z</time>
      </trkpt>
      <trkpt lat="48.80411" lon="2.9208">
        <ele>125</ele>
        <time>2019-09-01T08:35:42Z</time>
      </trkpt>
      <trkpt lat="48.80393" lon="2.92071">
        <ele>126</ele>
        <time>2019-09-01T08:35:58Z</time>
      </trkpt>
      <trkpt lat="48.80362" lon="2.92056">
        <ele>126</ele>
        <time>2019-09-01T08:36:16Z</time>
      </trkpt>
      <trkpt lat="48.80329" lon="2.92051">
        <ele>128</ele>
        <time>2019-09-01T08:36:26Z</time>
      </trkpt>
      <trkpt lat="48.80304" lon="2.92043">
        <ele>128</ele>
        <time>2019-09-01T08:36:35Z</time>
      </trkpt>
      <trkpt lat="48.80275" lon="2.92034">
        <ele>129</ele>
        <time>2019-09-01T08:36:45Z</time>
      </trkpt>
      <trkpt lat="48.80245" lon="2.92032">
        <ele>129</ele>
        <time>2019-09-01T08:36:55Z</time>
      </trkpt>
      <trkpt lat="48.80215" lon="2.92027">
        <ele>129</ele>
        <time>2019-09-01T08:37:05Z</time>
      </trkpt>
      <trkpt lat="48.80194" lon="2.92023">
        <ele>129</ele>
        <time>2019-09-01T08:37:18Z</time>
      </trkpt>
      <trkpt lat="48.80194" lon="2.92022">
        <ele>129</ele>
        <time>2019-09-01T08:37:34Z</time>
      </trkpt>
      <trkpt lat="48.80195" lon="2.92022">
        <ele>130</ele>
        <time>2019-09-01T08:37:52Z</time>
      </trkpt>
      <trkpt lat="48.80201" lon="2.9202">
        <ele>130</ele>
        <time>2019-09-01T08:38:02Z</time>
      </trkpt>
      <trkpt lat="48.80202" lon="2.92018">
        <ele>130</ele>
        <time>2019-09-01T08:38:14Z</time>
      </trkpt>
      <trkpt lat="48.80204" lon="2.92019">
        <ele>130</ele>
        <time>2019-09-01T08:38:33Z</time>
      </trkpt>
      <trkpt lat="48.80205" lon="2.92019">
        <ele>130</ele>
        <time>2019-09-01T08:38:58Z</time>
      </trkpt>
      <trkpt lat="48.80204" lon="2.92019">
        <ele>130</ele>
        <time>2019-09-01T08:39:13Z</time>
      </trkpt>
      <trkpt lat="48.80204" lon="2.92019">
        <ele>130</ele>
        <time>2019-09-01T08:39:31Z</time>
      </trkpt>
      <trkpt lat="48.80204" lon="2.9202">
        <ele>129</ele>
        <time>2019-09-01T08:39:50Z</time>
      </trkpt>
      <trkpt lat="48.80205" lon="2.9202">
        <ele>129</ele>
        <time>2019-09-01T08:40:10Z</time>
      </trkpt>
      <trkpt lat="48.80205" lon="2.9202">
        <ele>129</ele>
        <time>2019-09-01T08:40:32Z</time>
      </trkpt>
      <trkpt lat="48.80205" lon="2.92021">
        <ele>129</ele>
        <time>2019-09-01T08:40:51Z</time>
      </trkpt>
      <trkpt lat="48.80205" lon="2.92021">
        <ele>129</ele>
        <time>2019-09-01T08:41:14Z</time>
      </trkpt>
      <trkpt lat="48.80205" lon="2.9202">
        <ele>129</ele>
        <time>2019-09-01T08:41:34Z</time>
      </trkpt>
      <trkpt lat="48.80205" lon="2.92019">
        <ele>130</ele>
        <time>2019-09-01T08:42:01Z</time>
      </trkpt>
      <trkpt lat="48.80205" lon="2.92019">
        <ele>130</ele>
        <time>2019-09-01T08:42:22Z</time>
      </trkpt>
      <trkpt lat="48.80203" lon="2.92021">
        <ele>129</ele>
        <time>2019-09-01T08:42:35Z</time>
      </trkpt>
      <trkpt lat="48.802" lon="2.92024">
        <ele>129</ele>
        <time>2019-09-01T08:42:40Z</time>
      </trkpt>
      <trkpt lat="48.80197" lon="2.92021">
        <ele>130</ele>
        <time>2019-09-01T08:42:52Z</time>
      </trkpt>
      <trkpt lat="48.80197" lon="2.9202">
        <ele>130</ele>
        <time>2019-09-01T08:43:08Z</time>
      </trkpt>
      <trkpt lat="48.80199" lon="2.92021">
        <ele>129</ele>
        <time>2019-09-01T08:43:24Z</time>
      </trkpt>
      <trkpt lat="48.80197" lon="2.92022">
        <ele>129</ele>
        <time>2019-09-01T08:43:42Z</time>
      </trkpt>
      <trkpt lat="48.80196" lon="2.92022">
        <ele>129</ele>
        <time>2019-09-01T08:44:04Z</time>
      </trkpt>
      <trkpt lat="48.80196" lon="2.92021">
        <ele>130</ele>
        <time>2019-09-01T08:44:25Z</time>
      </trkpt>
      <trkpt lat="48.80198" lon="2.9202">
        <ele>130</ele>
        <time>2019-09-01T08:44:45Z</time>
      </trkpt>
      <trkpt lat="48.80199" lon="2.92019">
        <ele>130</ele>
        <time>2019-09-01T08:45:00Z</time>
      </trkpt>
      <trkpt lat="48.80198" lon="2.92017">
        <ele>130</ele>
        <time>2019-09-01T08:45:14Z</time>
      </trkpt>
      <trkpt lat="48.80199" lon="2.92017">
        <ele>130</ele>
        <time>2019-09-01T08:45:34Z</time>
      </trkpt>
      <trkpt lat="48.802" lon="2.92017">
        <ele>130</ele>
        <time>2019-09-01T08:45:55Z</time>
      </trkpt>
      <trkpt lat="48.802" lon="2.92019">
        <ele>130</ele>
        <time>2019-09-01T08:46:13Z</time>
      </trkpt>
      <trkpt lat="48.80198" lon="2.92016">
        <ele>130</ele>
        <time>2019-09-01T08:46:31Z</time>
      </trkpt>
      <trkpt lat="48.80197" lon="2.92017">
        <ele>130</ele>
        <time>2019-09-01T08:46:37Z</time>
      </trkpt>
      <trkpt lat="48.80178" lon="2.92022">
        <ele>130</ele>
        <time>2019-09-01T08:46:48Z</time>
      </trkpt>
      <trkpt lat="48.8015" lon="2.92016">
        <ele>129</ele>
        <time>2019-09-01T08:46:59Z</time>
      </trkpt>
      <trkpt lat="48.80113" lon="2.91998">
        <ele>129</ele>
        <time>2019-09-01T08:47:11Z</time>
      </trkpt>
      <trkpt lat="48.80109" lon="2.91988">
        <ele>129</ele>
        <time>2019-09-01T08:47:13Z</time>
      </trkpt>
      <trkpt lat="48.80104" lon="2.91954">
        <ele>129</ele>
        <time>2019-09-01T08:47:18Z</time>
      </trkpt>
      <trkpt lat="48.801" lon="2.91924">
        <ele>129</ele>
        <time>2019-09-01T08:47:22Z</time>
      </trkpt>
      <trkpt lat="48.80091" lon="2.91864">
        <ele>130</ele>
        <time>2019-09-01T08:47:30Z</time>
      </trkpt>
      <trkpt lat="48.80075" lon="2.91756">
        <ele>130</ele>
        <time>2019-09-01T08:47:45Z</time>
      </trkpt>
      <trkpt lat="48.80055" lon="2.91658">
        <ele>125</ele>
        <time>2019-09-01T08:47:59Z</time>
      </trkpt>
      <trkpt lat="48.80045" lon="2.91612">
        <ele>124</ele>
        <time>2019-09-01T08:48:06Z</time>
      </trkpt>
      <trkpt lat="48.80034" lon="2.91581">
        <ele>122</ele>
        <time>2019-09-01T08:48:11Z</time>
      </trkpt>
      <trkpt lat="48.79998" lon="2.91509">
        <ele>120</ele>
        <time>2019-09-01T08:48:22Z</time>
      </trkpt>
      <trkpt lat="48.79992" lon="2.91492">
        <ele>119</ele>
        <time>2019-09-01T08:48:24Z</time>
      </trkpt>
      <trkpt lat="48.7997" lon="2.91441">
        <ele>117</ele>
        <time>2019-09-01T08:48:31Z</time>
      </trkpt>
      <trkpt lat="48.79964" lon="2.91416">
        <ele>115</ele>
        <time>2019-09-01T08:48:34Z</time>
      </trkpt>
      <trkpt lat="48.79968" lon="2.91375">
        <ele>114</ele>
        <time>2019-09-01T08:48:41Z</time>
      </trkpt>
      <trkpt lat="48.79968" lon="2.91362">
        <ele>114</ele>
        <time>2019-09-01T08:48:43Z</time>
      </trkpt>
      <trkpt lat="48.79978" lon="2.91254">
        <ele>108</ele>
        <time>2019-09-01T08:48:55Z</time>
      </trkpt>
      <trkpt lat="48.79983" lon="2.91222">
        <ele>105</ele>
        <time>2019-09-01T08:48:59Z</time>
      </trkpt>
      <trkpt lat="48.79982" lon="2.91199">
        <ele>103</ele>
        <time>2019-09-01T08:49:02Z</time>
      </trkpt>
      <trkpt lat="48.79968" lon="2.91156">
        <ele>100</ele>
        <time>2019-09-01T08:49:09Z</time>
      </trkpt>
      <trkpt lat="48.79957" lon="2.91133">
        <ele>100</ele>
        <time>2019-09-01T08:49:13Z</time>
      </trkpt>
      <trkpt lat="48.7995" lon="2.91116">
        <ele>99</ele>
        <time>2019-09-01T08:49:16Z</time>
      </trkpt>
      <trkpt lat="48.79945" lon="2.91018">
        <ele>97</ele>
        <time>2019-09-01T08:49:29Z</time>
      </trkpt>
      <trkpt lat="48.79949" lon="2.90989">
        <ele>96</ele>
        <time>2019-09-01T08:49:33Z</time>
      </trkpt>
      <trkpt lat="48.79982" lon="2.9091">
        <ele>94</ele>
        <time>2019-09-01T08:49:43Z</time>
      </trkpt>
      <trkpt lat="48.79984" lon="2.90888">
        <ele>92</ele>
        <time>2019-09-01T08:49:47Z</time>
      </trkpt>
      <trkpt lat="48.79964" lon="2.90775">
        <ele>83</ele>
        <time>2019-09-01T08:49:59Z</time>
      </trkpt>
      <trkpt lat="48.79952" lon="2.90706">
        <ele>77</ele>
        <time>2019-09-01T08:50:06Z</time>
      </trkpt>
      <trkpt lat="48.7996" lon="2.90674">
        <ele>76</ele>
        <time>2019-09-01T08:50:11Z</time>
      </trkpt>
      <trkpt lat="48.79987" lon="2.90609">
        <ele>74</ele>
        <time>2019-09-01T08:50:20Z</time>
      </trkpt>
      <trkpt lat="48.79996" lon="2.90577">
        <ele>72</ele>
        <time>2019-09-01T08:50:24Z</time>
      </trkpt>
      <trkpt lat="48.80017" lon="2.90497">
        <ele>71</ele>
        <time>2019-09-01T08:50:34Z</time>
      </trkpt>
      <trkpt lat="48.80051" lon="2.90386">
        <ele>71</ele>
        <time>2019-09-01T08:50:48Z</time>
      </trkpt>
      <trkpt lat="48.80064" lon="2.9035">
        <ele>70</ele>
        <time>2019-09-01T08:50:53Z</time>
      </trkpt>
      <trkpt lat="48.80077" lon="2.90312">
        <ele>70</ele>
        <time>2019-09-01T08:51:02Z</time>
      </trkpt>
      <trkpt lat="48.80075" lon="2.90309">
        <ele>70</ele>
        <time>2019-09-01T08:51:03Z</time>
      </trkpt>
      <trkpt lat="48.80051" lon="2.90262">
        <ele>71</ele>
        <time>2019-09-01T08:51:17Z</time>
      </trkpt>
      <trkpt lat="48.80024" lon="2.90209">
        <ele>72</ele>
        <time>2019-09-01T08:51:32Z</time>
      </trkpt>
      <trkpt lat="48.79999" lon="2.90158">
        <ele>74</ele>
        <time>2019-09-01T08:51:47Z</time>
      </trkpt>
      <trkpt lat="48.79982" lon="2.90123">
        <ele>76</ele>
        <time>2019-09-01T08:51:58Z</time>
      </trkpt>
      <trkpt lat="48.7996" lon="2.9008">
        <ele>78</ele>
        <time>2019-09-01T08:52:10Z</time>
      </trkpt>
      <trkpt lat="48.79947" lon="2.9004">
        <ele>78</ele>
        <time>2019-09-01T08:52:22Z</time>
      </trkpt>
      <trkpt lat="48.79937" lon="2.89992">
        <ele>79</ele>
        <time>2019-09-01T08:52:34Z</time>
      </trkpt>
      <trkpt lat="48.79924" lon="2.89945">
        <ele>79</ele>
        <time>2019-09-01T08:52:46Z</time>
      </trkpt>
      <trkpt lat="48.79915" lon="2.8991">
        <ele>83</ele>
        <time>2019-09-01T08:52:54Z</time>
      </trkpt>
      <trkpt lat="48.79937" lon="2.89887">
        <ele>80</ele>
        <time>2019-09-01T08:53:01Z</time>
      </trkpt>
      <trkpt lat="48.79959" lon="2.89886">
        <ele>79</ele>
        <time>2019-09-01T08:53:04Z</time>
      </trkpt>
      <trkpt lat="48.80009" lon="2.89897">
        <ele>75</ele>
        <time>2019-09-01T08:53:11Z</time>
      </trkpt>
      <trkpt lat="48.80027" lon="2.89906">
        <ele>75</ele>
        <time>2019-09-01T08:53:14Z</time>
      </trkpt>
      <trkpt lat="48.80052" lon="2.89925">
        <ele>75</ele>
        <time>2019-09-01T08:53:19Z</time>
      </trkpt>
      <trkpt lat="48.80094" lon="2.89939">
        <ele>78</ele>
        <time>2019-09-01T08:53:32Z</time>
      </trkpt>
      <trkpt lat="48.80121" lon="2.89938">
        <ele>79</ele>
        <time>2019-09-01T08:53:46Z</time>
      </trkpt>
      <trkpt lat="48.80146" lon="2.89937">
        <ele>80</ele>
        <time>2019-09-01T08:54:00Z</time>
      </trkpt>
      <trkpt lat="48.8017" lon="2.89938">
        <ele>84</ele>
        <time>2019-09-01T08:54:16Z</time>
      </trkpt>
      <trkpt lat="48.80211" lon="2.89944">
        <ele>85</ele>
        <time>2019-09-01T08:54:34Z</time>
      </trkpt>
      <trkpt lat="48.80248" lon="2.89951">
        <ele>86</ele>
        <time>2019-09-01T08:54:50Z</time>
      </trkpt>
      <trkpt lat="48.8029" lon="2.89959">
        <ele>88</ele>
        <time>2019-09-01T08:55:06Z</time>
      </trkpt>
      <trkpt lat="48.80377" lon="2.89965">
        <ele>87</ele>
        <time>2019-09-01T08:55:20Z</time>
      </trkpt>
      <trkpt lat="48.80446" lon="2.89949">
        <ele>84</ele>
        <time>2019-09-01T08:55:32Z</time>
      </trkpt>
      <trkpt lat="48.80466" lon="2.89943">
        <ele>84</ele>
        <time>2019-09-01T08:55:36Z</time>
      </trkpt>
      <trkpt lat="48.80548" lon="2.89941">
        <ele>81</ele>
        <time>2019-09-01T08:55:51Z</time>
      </trkpt>
      <trkpt lat="48.80627" lon="2.89919">
        <ele>79</ele>
        <time>2019-09-01T08:56:06Z</time>
      </trkpt>
      <trkpt lat="48.80701" lon="2.89907">
        <ele>82</ele>
        <time>2019-09-01T08:56:20Z</time>
      </trkpt>
      <trkpt lat="48.80767" lon="2.89887">
        <ele>80</ele>
        <time>2019-09-01T08:56:32Z</time>
      </trkpt>
      <trkpt lat="48.80862" lon="2.89867">
        <ele>76</ele>
        <time>2019-09-01T08:56:48Z</time>
      </trkpt>
      <trkpt lat="48.80933" lon="2.89835">
        <ele>75</ele>
        <time>2019-09-01T08:57:01Z</time>
      </trkpt>
      <trkpt lat="48.80953" lon="2.89836">
        <ele>73</ele>
        <time>2019-09-01T08:57:05Z</time>
      </trkpt>
      <trkpt lat="48.80963" lon="2.89842">
        <ele>73</ele>
        <time>2019-09-01T08:57:07Z</time>
      </trkpt>
      <trkpt lat="48.80987" lon="2.89847">
        <ele>73</ele>
        <time>2019-09-01T08:57:12Z</time>
      </trkpt>
      <trkpt lat="48.81075" lon="2.89829">
        <ele>73</ele>
        <time>2019-09-01T08:57:28Z</time>
      </trkpt>
      <trkpt lat="48.81081" lon="2.89828">
        <ele>72</ele>
        <time>2019-09-01T08:57:29Z</time>
      </trkpt>
      <trkpt lat="48.81099" lon="2.89829">
        <ele>73</ele>
        <time>2019-09-01T08:57:32Z</time>
      </trkpt>
      <trkpt lat="48.81124" lon="2.8983">
        <ele>74</ele>
        <time>2019-09-01T08:57:36Z</time>
      </trkpt>
      <trkpt lat="48.81134" lon="2.89834">
        <ele>70</ele>
        <time>2019-09-01T08:57:38Z</time>
      </trkpt>
      <trkpt lat="48.81146" lon="2.89839">
        <ele>70</ele>
        <time>2019-09-01T08:57:40Z</time>
      </trkpt>
      <trkpt lat="48.81201" lon="2.89866">
        <ele>71</ele>
        <time>2019-09-01T08:57:54Z</time>
      </trkpt>
      <trkpt lat="48.81231" lon="2.89867">
        <ele>73</ele>
        <time>2019-09-01T08:58:06Z</time>
      </trkpt>
      <trkpt lat="48.81261" lon="2.89852">
        <ele>78</ele>
        <time>2019-09-01T08:58:21Z</time>
      </trkpt>
      <trkpt lat="48.8129" lon="2.89858">
        <ele>79</ele>
        <time>2019-09-01T08:58:33Z</time>
      </trkpt>
      <trkpt lat="48.81332" lon="2.89888">
        <ele>78</ele>
        <time>2019-09-01T08:58:47Z</time>
      </trkpt>
      <trkpt lat="48.8138" lon="2.89928">
        <ele>77</ele>
        <time>2019-09-01T08:59:00Z</time>
      </trkpt>
      <trkpt lat="48.81411" lon="2.89947">
        <ele>77</ele>
        <time>2019-09-01T08:59:09Z</time>
      </trkpt>
      <trkpt lat="48.81463" lon="2.89972">
        <ele>81</ele>
        <time>2019-09-01T08:59:23Z</time>
      </trkpt>
      <trkpt lat="48.81509" lon="2.89997">
        <ele>84</ele>
        <time>2019-09-01T08:59:36Z</time>
      </trkpt>
      <trkpt lat="48.81549" lon="2.90027">
        <ele>82</ele>
        <time>2019-09-01T08:59:48Z</time>
      </trkpt>
      <trkpt lat="48.81592" lon="2.90077">
        <ele>85</ele>
        <time>2019-09-01T09:00:01Z</time>
      </trkpt>
      <trkpt lat="48.81614" lon="2.90105">
        <ele>82</ele>
        <time>2019-09-01T09:00:08Z</time>
      </trkpt>
      <trkpt lat="48.81627" lon="2.90123">
        <ele>82</ele>
        <time>2019-09-01T09:00:12Z</time>
      </trkpt>
      <trkpt lat="48.81668" lon="2.90193">
        <ele>79</ele>
        <time>2019-09-01T09:00:26Z</time>
      </trkpt>
      <trkpt lat="48.81702" lon="2.90239">
        <ele>77</ele>
        <time>2019-09-01T09:00:36Z</time>
      </trkpt>
      <trkpt lat="48.8176" lon="2.90295">
        <ele>76</ele>
        <time>2019-09-01T09:00:51Z</time>
      </trkpt>
      <trkpt lat="48.81797" lon="2.9033">
        <ele>77</ele>
        <time>2019-09-01T09:01:02Z</time>
      </trkpt>
      <trkpt lat="48.81851" lon="2.9035">
        <ele>75</ele>
        <time>2019-09-01T09:01:16Z</time>
      </trkpt>
      <trkpt lat="48.81912" lon="2.90364">
        <ele>74</ele>
        <time>2019-09-01T09:01:28Z</time>
      </trkpt>
      <trkpt lat="48.81933" lon="2.90366">
        <ele>74</ele>
        <time>2019-09-01T09:01:32Z</time>
      </trkpt>
      <trkpt lat="48.81954" lon="2.90369">
        <ele>73</ele>
        <time>2019-09-01T09:01:36Z</time>
      </trkpt>
      <trkpt lat="48.82053" lon="2.90372">
        <ele>70</ele>
        <time>2019-09-01T09:01:52Z</time>
      </trkpt>
      <trkpt lat="48.82078" lon="2.90365">
        <ele>69</ele>
        <time>2019-09-01T09:01:59Z</time>
      </trkpt>
      <trkpt lat="48.82086" lon="2.90318">
        <ele>71</ele>
        <time>2019-09-01T09:02:12Z</time>
      </trkpt>
      <trkpt lat="48.82097" lon="2.90259">
        <ele>74</ele>
        <time>2019-09-01T09:02:29Z</time>
      </trkpt>
      <trkpt lat="48.82109" lon="2.90206">
        <ele>78</ele>
        <time>2019-09-01T09:02:46Z</time>
      </trkpt>
      <trkpt lat="48.82119" lon="2.90159">
        <ele>83</ele>
        <time>2019-09-01T09:03:03Z</time>
      </trkpt>
      <trkpt lat="48.82127" lon="2.90118">
        <ele>84</ele>
        <time>2019-09-01T09:03:17Z</time>
      </trkpt>
      <trkpt lat="48.82138" lon="2.90078">
        <ele>88</ele>
        <time>2019-09-01T09:03:32Z</time>
      </trkpt>
      <trkpt lat="48.82146" lon="2.90042">
        <ele>89</ele>
        <time>2019-09-01T09:03:46Z</time>
      </trkpt>
      <trkpt lat="48.82153" lon="2.90006">
        <ele>90</ele>
        <time>2019-09-01T09:04:01Z</time>
      </trkpt>
      <trkpt lat="48.82159" lon="2.89981">
        <ele>93</ele>
        <time>2019-09-01T09:04:15Z</time>
      </trkpt>
      <trkpt lat="48.82164" lon="2.89985">
        <ele>92</ele>
        <time>2019-09-01T09:04:24Z</time>
      </trkpt>
      <trkpt lat="48.82168" lon="2.89987">
        <ele>92</ele>
        <time>2019-09-01T09:04:27Z</time>
      </trkpt>
      <trkpt lat="48.82189" lon="2.9001">
        <ele>88</ele>
        <time>2019-09-01T09:04:40Z</time>
      </trkpt>
      <trkpt lat="48.82194" lon="2.9003">
        <ele>87</ele>
        <time>2019-09-01T09:04:44Z</time>
      </trkpt>
      <trkpt lat="48.82197" lon="2.90033">
        <ele>87</ele>
        <time>2019-09-01T09:04:46Z</time>
      </trkpt>
      <trkpt lat="48.82232" lon="2.90026">
        <ele>88</ele>
        <time>2019-09-01T09:04:59Z</time>
      </trkpt>
      <trkpt lat="48.82273" lon="2.90011">
        <ele>89</ele>
        <time>2019-09-01T09:05:12Z</time>
      </trkpt>
      <trkpt lat="48.82286" lon="2.9001">
        <ele>89</ele>
        <time>2019-09-01T09:05:16Z</time>
      </trkpt>
      <trkpt lat="48.82328" lon="2.9004">
        <ele>89</ele>
        <time>2019-09-01T09:05:27Z</time>
      </trkpt>
      <trkpt lat="48.8235" lon="2.90035">
        <ele>92</ele>
        <time>2019-09-01T09:05:33Z</time>
      </trkpt>
      <trkpt lat="48.82366" lon="2.90064">
        <ele>90</ele>
        <time>2019-09-01T09:05:38Z</time>
      </trkpt>
      <trkpt lat="48.82376" lon="2.9011">
        <ele>79</ele>
        <time>2019-09-01T09:05:44Z</time>
      </trkpt>
      <trkpt lat="48.82392" lon="2.90116">
        <ele>79</ele>
        <time>2019-09-01T09:05:50Z</time>
      </trkpt>
      <trkpt lat="48.82438" lon="2.90101">
        <ele>81</ele>
        <time>2019-09-01T09:06:03Z</time>
      </trkpt>
      <trkpt lat="48.82454" lon="2.90105">
        <ele>80</ele>
        <time>2019-09-01T09:06:07Z</time>
      </trkpt>
      <trkpt lat="48.82466" lon="2.90116">
        <ele>79</ele>
        <time>2019-09-01T09:06:10Z</time>
      </trkpt>
      <trkpt lat="48.82497" lon="2.90108">
        <ele>81</ele>
        <time>2019-09-01T09:06:24Z</time>
      </trkpt>
      <trkpt lat="48.825" lon="2.90097">
        <ele>83</ele>
        <time>2019-09-01T09:06:40Z</time>
      </trkpt>
      <trkpt lat="48.82495" lon="2.90066">
        <ele>90</ele>
        <time>2019-09-01T09:06:56Z</time>
      </trkpt>
      <trkpt lat="48.82488" lon="2.90019">
        <ele>94</ele>
        <time>2019-09-01T09:07:15Z</time>
      </trkpt>
      <trkpt lat="48.82481" lon="2.89989">
        <ele>100</ele>
        <time>2019-09-01T09:07:34Z</time>
      </trkpt>
      <trkpt lat="48.82483" lon="2.89976">
        <ele>101</ele>
        <time>2019-09-01T09:07:50Z</time>
      </trkpt>
      <trkpt lat="48.82485" lon="2.89972">
        <ele>101</ele>
        <time>2019-09-01T09:08:11Z</time>
      </trkpt>
      <trkpt lat="48.82494" lon="2.89946">
        <ele>102</ele>
        <time>2019-09-01T09:08:28Z</time>
      </trkpt>
      <trkpt lat="48.82501" lon="2.8993">
        <ele>102</ele>
        <time>2019-09-01T09:08:43Z</time>
      </trkpt>
      <trkpt lat="48.82505" lon="2.8993">
        <ele>101</ele>
        <time>2019-09-01T09:08:59Z</time>
      </trkpt>
      <trkpt lat="48.82519" lon="2.89924">
        <ele>101</ele>
        <time>2019-09-01T09:09:21Z</time>
      </trkpt>
      <trkpt lat="48.82552" lon="2.89902">
        <ele>102</ele>
        <time>2019-09-01T09:09:35Z</time>
      </trkpt>
      <trkpt lat="48.82569" lon="2.89887">
        <ele>102</ele>
        <time>2019-09-01T09:09:44Z</time>
      </trkpt>
      <trkpt lat="48.82583" lon="2.89891">
        <ele>99</ele>
        <time>2019-09-01T09:09:49Z</time>
      </trkpt>
      <trkpt lat="48.82633" lon="2.89888">
        <ele>98</ele>
        <time>2019-09-01T09:10:01Z</time>
      </trkpt>
      <trkpt lat="48.82672" lon="2.89877">
        <ele>96</ele>
        <time>2019-09-01T09:10:08Z</time>
      </trkpt>
      <trkpt lat="48.82681" lon="2.89876">
        <ele>96</ele>
        <time>2019-09-01T09:10:10Z</time>
      </trkpt>
      <trkpt lat="48.82733" lon="2.89857">
        <ele>95</ele>
        <time>2019-09-01T09:10:24Z</time>
      </trkpt>
      <trkpt lat="48.82732" lon="2.89855">
        <ele>95</ele>
        <time>2019-09-01T09:10:25Z</time>
      </trkpt>
      <trkpt lat="48.82701" lon="2.89825">
        <ele>97</ele>
        <time>2019-09-01T09:10:40Z</time>
      </trkpt>
      <trkpt lat="48.82663" lon="2.89792">
        <ele>102</ele>
        <time>2019-09-01T09:10:55Z</time>
      </trkpt>
      <trkpt lat="48.82643" lon="2.89764">
        <ele>103</ele>
        <time>2019-09-01T09:11:06Z</time>
      </trkpt>
      <trkpt lat="48.82627" lon="2.89735">
        <ele>107</ele>
        <time>2019-09-01T09:11:18Z</time>
      </trkpt>
      <trkpt lat="48.82617" lon="2.89715">
        <ele>108</ele>
        <time>2019-09-01T09:11:26Z</time>
      </trkpt>
      <trkpt lat="48.8263" lon="2.89692">
        <ele>109</ele>
        <time>2019-09-01T09:11:36Z</time>
      </trkpt>
      <trkpt lat="48.82674" lon="2.89642">
        <ele>106</ele>
        <time>2019-09-01T09:11:50Z</time>
      </trkpt>
      <trkpt lat="48.82714" lon="2.89591">
        <ele>106</ele>
        <time>2019-09-01T09:12:02Z</time>
      </trkpt>
      <trkpt lat="48.82741" lon="2.89515">
        <ele>107</ele>
        <time>2019-09-01T09:12:14Z</time>
      </trkpt>
      <trkpt lat="48.82788" lon="2.89407">
        <ele>104</ele>
        <time>2019-09-01T09:12:30Z</time>
      </trkpt>
      <trkpt lat="48.82833" lon="2.89314">
        <ele>104</ele>
        <time>2019-09-01T09:12:43Z</time>
      </trkpt>
      <trkpt lat="48.82851" lon="2.89311">
        <ele>101</ele>
        <time>2019-09-01T09:12:50Z</time>
      </trkpt>
      <trkpt lat="48.82861" lon="2.89306">
        <ele>101</ele>
        <time>2019-09-01T09:12:52Z</time>
      </trkpt>
      <trkpt lat="48.82887" lon="2.89279">
        <ele>101</ele>
        <time>2019-09-01T09:13:01Z</time>
      </trkpt>
      <trkpt lat="48.82923" lon="2.89285">
        <ele>99</ele>
        <time>2019-09-01T09:13:14Z</time>
      </trkpt>
      <trkpt lat="48.82973" lon="2.89308">
        <ele>99</ele>
        <time>2019-09-01T09:13:28Z</time>
      </trkpt>
      <trkpt lat="48.83024" lon="2.89316">
        <ele>100</ele>
        <time>2019-09-01T09:13:41Z</time>
      </trkpt>
      <trkpt lat="48.83067" lon="2.89326">
        <ele>101</ele>
        <time>2019-09-01T09:13:54Z</time>
      </trkpt>
      <trkpt lat="48.83114" lon="2.89336">
        <ele>103</ele>
        <time>2019-09-01T09:14:10Z</time>
      </trkpt>
      <trkpt lat="48.83154" lon="2.89348">
        <ele>104</ele>
        <time>2019-09-01T09:14:24Z</time>
      </trkpt>
      <trkpt lat="48.8319" lon="2.89371">
        <ele>105</ele>
        <time>2019-09-01T09:14:38Z</time>
      </trkpt>
      <trkpt lat="48.83223" lon="2.89394">
        <ele>105</ele>
        <time>2019-09-01T09:14:50Z</time>
      </trkpt>
      <trkpt lat="48.83256" lon="2.89418">
        <ele>104</ele>
        <time>2019-09-01T09:15:00Z</time>
      </trkpt>
      <trkpt lat="48.83298" lon="2.89447">
        <ele>103</ele>
        <time>2019-09-01T09:15:11Z</time>
      </trkpt>
      <trkpt lat="48.83348" lon="2.89484">
        <ele>104</ele>
        <time>2019-09-01T09:15:25Z</time>
      </trkpt>
      <trkpt lat="48.83385" lon="2.89513">
        <ele>103</ele>
        <time>2019-09-01T09:15:37Z</time>
      </trkpt>
      <trkpt lat="48.83426" lon="2.89541">
        <ele>105</ele>
        <time>2019-09-01T09:15:51Z</time>
      </trkpt>
      <trkpt lat="48.83467" lon="2.89551">
        <ele>105</ele>
        <time>2019-09-01T09:16:02Z</time>
      </trkpt>
      <trkpt lat="48.83513" lon="2.89556">
        <ele>107</ele>
        <time>2019-09-01T09:16:13Z</time>
      </trkpt>
      <trkpt lat="48.83557" lon="2.89568">
        <ele>107</ele>
        <time>2019-09-01T09:16:26Z</time>
      </trkpt>
      <trkpt lat="48.83601" lon="2.89578">
        <ele>107</ele>
        <time>2019-09-01T09:16:39Z</time>
      </trkpt>
      <trkpt lat="48.83653" lon="2.8959">
        <ele>107</ele>
        <time>2019-09-01T09:16:54Z</time>
      </trkpt>
      <trkpt lat="48.83695" lon="2.89593">
        <ele>106</ele>
        <time>2019-09-01T09:17:07Z</time>
      </trkpt>
      <trkpt lat="48.83704" lon="2.89595">
        <ele>106</ele>
        <time>2019-09-01T09:17:09Z</time>
      </trkpt>
      <trkpt lat="48.83728" lon="2.89596">
        <ele>106</ele>
        <time>2019-09-01T09:17:14Z</time>
      </trkpt>
      <trkpt lat="48.83783" lon="2.896">
        <ele>105</ele>
        <time>2019-09-01T09:17:26Z</time>
      </trkpt>
      <trkpt lat="48.83796" lon="2.89603">
        <ele>105</ele>
        <time>2019-09-01T09:17:29Z</time>
      </trkpt>
      <trkpt lat="48.83855" lon="2.89637">
        <ele>104</ele>
        <time>2019-09-01T09:17:44Z</time>
      </trkpt>
      <trkpt lat="48.83867" lon="2.89645">
        <ele>104</ele>
        <time>2019-09-01T09:17:47Z</time>
      </trkpt>
      <trkpt lat="48.83914" lon="2.89667">
        <ele>104</ele>
        <time>2019-09-01T09:17:59Z</time>
      </trkpt>
      <trkpt lat="48.8399" lon="2.89657">
        <ele>103</ele>
        <time>2019-09-01T09:18:16Z</time>
      </trkpt>
      <trkpt lat="48.8401" lon="2.89653">
        <ele>103</ele>
        <time>2019-09-01T09:18:20Z</time>
      </trkpt>
      <trkpt lat="48.84025" lon="2.89651">
        <ele>103</ele>
        <time>2019-09-01T09:18:23Z</time>
      </trkpt>
      <trkpt lat="48.84034" lon="2.89652">
        <ele>103</ele>
        <time>2019-09-01T09:18:25Z</time>
      </trkpt>
      <trkpt lat="48.8408" lon="2.89675">
        <ele>103</ele>
        <time>2019-09-01T09:18:36Z</time>
      </trkpt>
      <trkpt lat="48.84126" lon="2.89683">
        <ele>106</ele>
        <time>2019-09-01T09:18:51Z</time>
      </trkpt>
      <trkpt lat="48.84139" lon="2.89683">
        <ele>106</ele>
        <time>2019-09-01T09:18:56Z</time>
      </trkpt>
      <trkpt lat="48.84144" lon="2.89697">
        <ele>107</ele>
        <time>2019-09-01T09:19:01Z</time>
      </trkpt>
      <trkpt lat="48.84138" lon="2.89764">
        <ele>109</ele>
        <time>2019-09-01T09:19:17Z</time>
      </trkpt>
      <trkpt lat="48.8413" lon="2.89835">
        <ele>109</ele>
        <time>2019-09-01T09:19:31Z</time>
      </trkpt>
      <trkpt lat="48.84127" lon="2.89907">
        <ele>109</ele>
        <time>2019-09-01T09:19:42Z</time>
      </trkpt>
      <trkpt lat="48.84146" lon="2.89935">
        <ele>109</ele>
        <time>2019-09-01T09:19:51Z</time>
      </trkpt>
      <trkpt lat="48.84139" lon="2.9001">
        <ele>108</ele>
        <time>2019-09-01T09:20:03Z</time>
      </trkpt>
      <trkpt lat="48.84132" lon="2.9005">
        <ele>107</ele>
        <time>2019-09-01T09:20:08Z</time>
      </trkpt>
      <trkpt lat="48.84131" lon="2.90065">
        <ele>107</ele>
        <time>2019-09-01T09:20:10Z</time>
      </trkpt>
      <trkpt lat="48.84147" lon="2.90081">
        <ele>109</ele>
        <time>2019-09-01T09:20:17Z</time>
      </trkpt>
      <trkpt lat="48.8419" lon="2.901">
        <ele>112</ele>
        <time>2019-09-01T09:20:31Z</time>
      </trkpt>
      <trkpt lat="48.84221" lon="2.9009">
        <ele>114</ele>
        <time>2019-09-01T09:20:46Z</time>
      </trkpt>
      <trkpt lat="48.84249" lon="2.90072">
        <ele>115</ele>
        <time>2019-09-01T09:21:02Z</time>
      </trkpt>
      <trkpt lat="48.8428" lon="2.90052">
        <ele>119</ele>
        <time>2019-09-01T09:21:17Z</time>
      </trkpt>
      <trkpt lat="48.84298" lon="2.90045">
        <ele>120</ele>
        <time>2019-09-01T09:21:35Z</time>
      </trkpt>
      <trkpt lat="48.84299" lon="2.90049">
        <ele>120</ele>
        <time>2019-09-01T09:21:58Z</time>
      </trkpt>
      <trkpt lat="48.843" lon="2.9005">
        <ele>120</ele>
        <time>2019-09-01T09:22:21Z</time>
      </trkpt>
      <trkpt lat="48.84313" lon="2.90039">
        <ele>120</ele>
        <time>2019-09-01T09:22:37Z</time>
      </trkpt>
      <trkpt lat="48.84332" lon="2.90024">
        <ele>121</ele>
        <time>2019-09-01T09:22:50Z</time>
      </trkpt>
      <trkpt lat="48.84342" lon="2.90018">
        <ele>125</ele>
        <time>2019-09-01T09:22:57Z</time>
      </trkpt>
      <trkpt lat="48.84351" lon="2.90025">
        <ele>125</ele>
        <time>2019-09-01T09:23:02Z</time>
      </trkpt>
      <trkpt lat="48.84356" lon="2.90103">
        <ele>124</ele>
        <time>2019-09-01T09:23:17Z</time>
      </trkpt>
      <trkpt lat="48.84362" lon="2.90154">
        <ele>122</ele>
        <time>2019-09-01T09:23:25Z</time>
      </trkpt>
      <trkpt lat="48.84341" lon="2.90183">
        <ele>118</ele>
        <time>2019-09-01T09:23:34Z</time>
      </trkpt>
      <trkpt lat="48.84335" lon="2.90191">
        <ele>118</ele>
        <time>2019-09-01T09:23:36Z</time>
      </trkpt>
      <trkpt lat="48.84332" lon="2.90211">
        <ele>115</ele>
        <time>2019-09-01T09:23:39Z</time>
      </trkpt>
      <trkpt lat="48.84324" lon="2.9024">
        <ele>114</ele>
        <time>2019-09-01T09:23:43Z</time>
      </trkpt>
      <trkpt lat="48.84305" lon="2.90278">
        <ele>109</ele>
        <time>2019-09-01T09:23:49Z</time>
      </trkpt>
      <trkpt lat="48.84302" lon="2.90295">
        <ele>108</ele>
        <time>2019-09-01T09:23:51Z</time>
      </trkpt>
      <trkpt lat="48.84302" lon="2.90348">
        <ele>102</ele>
        <time>2019-09-01T09:24:00Z</time>
      </trkpt>
      <trkpt lat="48.8431" lon="2.90359">
        <ele>102</ele>
        <time>2019-09-01T09:24:04Z</time>
      </trkpt>
      <trkpt lat="48.84328" lon="2.90403">
        <ele>101</ele>
        <time>2019-09-01T09:24:14Z</time>
      </trkpt>
      <trkpt lat="48.84346" lon="2.90456">
        <ele>101</ele>
        <time>2019-09-01T09:24:25Z</time>
      </trkpt>
      <trkpt lat="48.84355" lon="2.90469">
        <ele>101</ele>
        <time>2019-09-01T09:24:28Z</time>
      </trkpt>
      <trkpt lat="48.84367" lon="2.90482">
        <ele>101</ele>
        <time>2019-09-01T09:24:33Z</time>
      </trkpt>
      <trkpt lat="48.84384" lon="2.90509">
        <ele>96</ele>
        <time>2019-09-01T09:24:41Z</time>
      </trkpt>
      <trkpt lat="48.84396" lon="2.90538">
        <ele>95</ele>
        <time>2019-09-01T09:24:51Z</time>
      </trkpt>
      <trkpt lat="48.84398" lon="2.90539">
        <ele>95</ele>
        <time>2019-09-01T09:24:52Z</time>
      </trkpt>
      <trkpt lat="48.84426" lon="2.90538">
        <ele>102</ele>
        <time>2019-09-01T09:25:05Z</time>
      </trkpt>
      <trkpt lat="48.8445" lon="2.90551">
        <ele>102</ele>
        <time>2019-09-01T09:25:19Z</time>
      </trkpt>
      <trkpt lat="48.84458" lon="2.90554">
        <ele>103</ele>
        <time>2019-09-01T09:25:24Z</time>
      </trkpt>
      <trkpt lat="48.84475" lon="2.90567">
        <ele>103</ele>
        <time>2019-09-01T09:25:37Z</time>
      </trkpt>
      <trkpt lat="48.84504" lon="2.90581">
        <ele>106</ele>
        <time>2019-09-01T09:25:55Z</time>
      </trkpt>
      <trkpt lat="48.84523" lon="2.90592">
        <ele>105</ele>
        <time>2019-09-01T09:26:09Z</time>
      </trkpt>
      <trkpt lat="48.84548" lon="2.90604">
        <ele>106</ele>
        <time>2019-09-01T09:26:25Z</time>
      </trkpt>
      <trkpt lat="48.84559" lon="2.90615">
        <ele>107</ele>
        <time>2019-09-01T09:26:33Z</time>
      </trkpt>
      <trkpt lat="48.84577" lon="2.90625">
        <ele>107</ele>
        <time>2019-09-01T09:26:43Z</time>
      </trkpt>
      <trkpt lat="48.84584" lon="2.90626">
        <ele>112</ele>
        <time>2019-09-01T09:26:47Z</time>
      </trkpt>
      <trkpt lat="48.8459" lon="2.90626">
        <ele>112</ele>
        <time>2019-09-01T09:26:51Z</time>
      </trkpt>
      <trkpt lat="48.84598" lon="2.90622">
        <ele>113</ele>
        <time>2019-09-01T09:26:57Z</time>
      </trkpt>
      <trkpt lat="48.84616" lon="2.90613">
        <ele>114</ele>
        <time>2019-09-01T09:27:13Z</time>
      </trkpt>
      <trkpt lat="48.84627" lon="2.90602">
        <ele>114</ele>
        <time>2019-09-01T09:27:26Z</time>
      </trkpt>
      <trkpt lat="48.84635" lon="2.90597">
        <ele>115</ele>
        <time>2019-09-01T09:27:34Z</time>
      </trkpt>
      <trkpt lat="48.84654" lon="2.90588">
        <ele>117</ele>
        <time>2019-09-01T09:27:51Z</time>
      </trkpt>
      <trkpt lat="48.84663" lon="2.90575">
        <ele>119</ele>
        <time>2019-09-01T09:28:04Z</time>
      </trkpt>
      <trkpt lat="48.84675" lon="2.90558">
        <ele>122</ele>
        <time>2019-09-01T09:28:19Z</time>
      </trkpt>
      <trkpt lat="48.84681" lon="2.90552">
        <ele>123</ele>
        <time>2019-09-01T09:28:31Z</time>
      </trkpt>
      <trkpt lat="48.84688" lon="2.90547">
        <ele>123</ele>
        <time>2019-09-01T09:28:45Z</time>
      </trkpt>
      <trkpt lat="48.84689" lon="2.90549">
        <ele>123</ele>
        <time>2019-09-01T09:29:07Z</time>
      </trkpt>
      <trkpt lat="48.8469" lon="2.90549">
        <ele>123</ele>
        <time>2019-09-01T09:29:25Z</time>
      </trkpt>
      <trkpt lat="48.84693" lon="2.90544">
        <ele>123</ele>
        <time>2019-09-01T09:29:29Z</time>
      </trkpt>
      <trkpt lat="48.84711" lon="2.90524">
        <ele>124</ele>
        <time>2019-09-01T09:29:43Z</time>
      </trkpt>
      <trkpt lat="48.84726" lon="2.90498">
        <ele>127</ele>
        <time>2019-09-01T09:29:55Z</time>
      </trkpt>
      <trkpt lat="48.8473" lon="2.90493">
        <ele>127</ele>
        <time>2019-09-01T09:29:58Z</time>
      </trkpt>
      <trkpt lat="48.84737" lon="2.90481">
        <ele>128</ele>
        <time>2019-09-01T09:30:04Z</time>
      </trkpt>
      <trkpt lat="48.84746" lon="2.90469">
        <ele>128</ele>
        <time>2019-09-01T09:30:09Z</time>
      </trkpt>
      <trkpt lat="48.84755" lon="2.90453">
        <ele>128</ele>
        <time>2019-09-01T09:30:15Z</time>
      </trkpt>
      <trkpt lat="48.84774" lon="2.9041">
        <ele>129</ele>
        <time>2019-09-01T09:30:28Z</time>
      </trkpt>
      <trkpt lat="48.84776" lon="2.90407">
        <ele>129</ele>
        <time>2019-09-01T09:30:29Z</time>
      </trkpt>
      <trkpt lat="48.84778" lon="2.90395">
        <ele>129</ele>
        <time>2019-09-01T09:30:32Z</time>
      </trkpt>
      <trkpt lat="48.84764" lon="2.90388">
        <ele>129</ele>
        <time>2019-09-01T09:30:38Z</time>
      </trkpt>
      <trkpt lat="48.84732" lon="2.90371">
        <ele>129</ele>
        <time>2019-09-01T09:30:50Z</time>
      </trkpt>
      <trkpt lat="48.84703" lon="2.90354">
        <ele>129</ele>
        <time>2019-09-01T09:31:00Z</time>
      </trkpt>
      <trkpt lat="48.84682" lon="2.90341">
        <ele>130</ele>
        <time>2019-09-01T09:31:08Z</time>
      </trkpt>
      <trkpt lat="48.8468" lon="2.90303">
        <ele>131</ele>
        <time>2019-09-01T09:31:17Z</time>
      </trkpt>
      <trkpt lat="48.84669" lon="2.90259">
        <ele>132</ele>
        <time>2019-09-01T09:31:28Z</time>
      </trkpt>
      <trkpt lat="48.84652" lon="2.9023">
        <ele>133</ele>
        <time>2019-09-01T09:31:37Z</time>
      </trkpt>
      <trkpt lat="48.84627" lon="2.90186">
        <ele>133</ele>
        <time>2019-09-01T09:31:49Z</time>
      </trkpt>
      <trkpt lat="48.84605" lon="2.90142">
        <ele>134</ele>
        <time>2019-09-01T09:31:59Z</time>
      </trkpt>
      <trkpt lat="48.84587" lon="2.90102">
        <ele>134</ele>
        <time>2019-09-01T09:32:08Z</time>
      </trkpt>
      <trkpt lat="48.84576" lon="2.90075">
        <ele>134</ele>
        <time>2019-09-01T09:32:14Z</time>
      </trkpt>
      <trkpt lat="48.84592" lon="2.9005">
        <ele>134</ele>
        <time>2019-09-01T09:32:21Z</time>
      </trkpt>
      <trkpt lat="48.84613" lon="2.90034">
        <ele>134</ele>
        <time>2019-09-01T09:32:27Z</time>
      </trkpt>
      <trkpt lat="48.84627" lon="2.90023">
        <ele>134</ele>
        <time>2019-09-01T09:32:31Z</time>
      </trkpt>
      <trkpt lat="48.84643" lon="2.90014">
        <ele>133</ele>
        <time>2019-09-01T09:32:36Z</time>
      </trkpt>
      <trkpt lat="48.84644" lon="2.89964">
        <ele>133</ele>
        <time>2019-09-01T09:32:45Z</time>
      </trkpt>
      <trkpt lat="48.84642" lon="2.89958">
        <ele>133</ele>
        <time>2019-09-01T09:32:46Z</time>
      </trkpt>
      <trkpt lat="48.84636" lon="2.89926">
        <ele>132</ele>
        <time>2019-09-01T09:32:51Z</time>
      </trkpt>
      <trkpt lat="48.84633" lon="2.899">
        <ele>132</ele>
        <time>2019-09-01T09:32:55Z</time>
      </trkpt>
      <trkpt lat="48.84629" lon="2.89874">
        <ele>132</ele>
        <time>2019-09-01T09:32:59Z</time>
      </trkpt>
      <trkpt lat="48.84644" lon="2.89835">
        <ele>132</ele>
        <time>2019-09-01T09:33:08Z</time>
      </trkpt>
      <trkpt lat="48.84704" lon="2.89815">
        <ele>129</ele>
        <time>2019-09-01T09:33:23Z</time>
      </trkpt>
      <trkpt lat="48.84722" lon="2.89808">
        <ele>128</ele>
        <time>2019-09-01T09:33:27Z</time>
      </trkpt>
      <trkpt lat="48.84737" lon="2.89824">
        <ele>128</ele>
        <time>2019-09-01T09:33:33Z</time>
      </trkpt>
      <trkpt lat="48.84751" lon="2.89825">
        <ele>126</ele>
        <time>2019-09-01T09:33:37Z</time>
      </trkpt>
      <trkpt lat="48.84823" lon="2.89817">
        <ele>121</ele>
        <time>2019-09-01T09:33:47Z</time>
      </trkpt>
      <trkpt lat="48.84915" lon="2.89834">
        <ele>115</ele>
        <time>2019-09-01T09:34:00Z</time>
      </trkpt>
      <trkpt lat="48.84922" lon="2.89802">
        <ele>112</ele>
        <time>2019-09-01T09:34:08Z</time>
      </trkpt>
      <trkpt lat="48.84923" lon="2.89788">
        <ele>112</ele>
        <time>2019-09-01T09:34:11Z</time>
      </trkpt>
      <trkpt lat="48.8492" lon="2.89781">
        <ele>112</ele>
        <time>2019-09-01T09:34:19Z</time>
      </trkpt>
      <trkpt lat="48.84922" lon="2.89769">
        <ele>112</ele>
        <time>2019-09-01T09:34:23Z</time>
      </trkpt>
      <trkpt lat="48.84922" lon="2.89724">
        <ele>111</ele>
        <time>2019-09-01T09:34:33Z</time>
      </trkpt>
      <trkpt lat="48.84924" lon="2.8965">
        <ele>111</ele>
        <time>2019-09-01T09:34:46Z</time>
      </trkpt>
      <trkpt lat="48.84924" lon="2.89641">
        <ele>111</ele>
        <time>2019-09-01T09:34:48Z</time>
      </trkpt>
      <trkpt lat="48.84914" lon="2.89632">
        <ele>113</ele>
        <time>2019-09-01T09:34:52Z</time>
      </trkpt>
      <trkpt lat="48.84875" lon="2.89625">
        <ele>114</ele>
        <time>2019-09-01T09:35:05Z</time>
      </trkpt>
      <trkpt lat="48.84848" lon="2.89622">
        <ele>114</ele>
        <time>2019-09-01T09:35:18Z</time>
      </trkpt>
      <trkpt lat="48.84827" lon="2.89611">
        <ele>117</ele>
        <time>2019-09-01T09:35:29Z</time>
      </trkpt>
      <trkpt lat="48.84832" lon="2.89579">
        <ele>115</ele>
        <time>2019-09-01T09:35:38Z</time>
      </trkpt>
      <trkpt lat="48.84847" lon="2.89508">
        <ele>114</ele>
        <time>2019-09-01T09:35:51Z</time>
      </trkpt>
      <trkpt lat="48.84863" lon="2.89446">
        <ele>115</ele>
        <time>2019-09-01T09:36:02Z</time>
      </trkpt>
      <trkpt lat="48.8488" lon="2.89388">
        <ele>117</ele>
        <time>2019-09-01T09:36:14Z</time>
      </trkpt>
      <trkpt lat="48.84889" lon="2.89355">
        <ele>117</ele>
        <time>2019-09-01T09:36:23Z</time>
      </trkpt>
      <trkpt lat="48.8491" lon="2.89335">
        <ele>116</ele>
        <time>2019-09-01T09:36:30Z</time>
      </trkpt>
      <trkpt lat="48.84967" lon="2.89334">
        <ele>112</ele>
        <time>2019-09-01T09:36:41Z</time>
      </trkpt>
      <trkpt lat="48.84982" lon="2.89333">
        <ele>112</ele>
        <time>2019-09-01T09:36:50Z</time>
      </trkpt>
      <trkpt lat="48.84984" lon="2.8933">
        <ele>112</ele>
        <time>2019-09-01T09:36:59Z</time>
      </trkpt>
      <trkpt lat="48.84975" lon="2.89336">
        <ele>112</ele>
        <time>2019-09-01T09:37:04Z</time>
      </trkpt>
      <trkpt lat="48.84944" lon="2.89335">
        <ele>113</ele>
        <time>2019-09-01T09:37:15Z</time>
      </trkpt>
      <trkpt lat="48.84922" lon="2.89336">
        <ele>114</ele>
        <time>2019-09-01T09:37:23Z</time>
      </trkpt>
      <trkpt lat="48.84925" lon="2.89295">
        <ele>114</ele>
        <time>2019-09-01T09:37:32Z</time>
      </trkpt>
      <trkpt lat="48.84928" lon="2.89262">
        <ele>115</ele>
        <time>2019-09-01T09:37:38Z</time>
      </trkpt>
      <trkpt lat="48.8492" lon="2.89252">
        <ele>116</ele>
        <time>2019-09-01T09:37:43Z</time>
      </trkpt>
      <trkpt lat="48.84906" lon="2.89248">
        <ele>119</ele>
        <time>2019-09-01T09:37:49Z</time>
      </trkpt>
      <trkpt lat="48.84892" lon="2.89244">
        <ele>120</ele>
        <time>2019-09-01T09:37:55Z</time>
      </trkpt>
      <trkpt lat="48.84896" lon="2.89205">
        <ele>121</ele>
        <time>2019-09-01T09:38:05Z</time>
      </trkpt>
      <trkpt lat="48.84912" lon="2.89163">
        <ele>121</ele>
        <time>2019-09-01T09:38:17Z</time>
      </trkpt>
      <trkpt lat="48.84927" lon="2.89123">
        <ele>120</ele>
        <time>2019-09-01T09:38:29Z</time>
      </trkpt>
      <trkpt lat="48.84939" lon="2.89082">
        <ele>122</ele>
        <time>2019-09-01T09:38:41Z</time>
      </trkpt>
      <trkpt lat="48.84946" lon="2.8904">
        <ele>122</ele>
        <time>2019-09-01T09:38:51Z</time>
      </trkpt>
      <trkpt lat="48.84947" lon="2.89034">
        <ele>122</ele>
        <time>2019-09-01T09:38:53Z</time>
      </trkpt>
      <trkpt lat="48.84928" lon="2.89017">
        <ele>123</ele>
        <time>2019-09-01T09:39:03Z</time>
      </trkpt>
      <trkpt lat="48.84924" lon="2.89013">
        <ele>124</ele>
        <time>2019-09-01T09:39:05Z</time>
      </trkpt>
      <trkpt lat="48.84903" lon="2.89001">
        <ele>125</ele>
        <time>2019-09-01T09:39:16Z</time>
      </trkpt>
      <trkpt lat="48.849" lon="2.88991">
        <ele>126</ele>
        <time>2019-09-01T09:39:20Z</time>
      </trkpt>
      <trkpt lat="48.84908" lon="2.88957">
        <ele>127</ele>
        <time>2019-09-01T09:39:31Z</time>
      </trkpt>
      <trkpt lat="48.84911" lon="2.88913">
        <ele>127</ele>
        <time>2019-09-01T09:39:42Z</time>
      </trkpt>
      <trkpt lat="48.84926" lon="2.88871">
        <ele>125</ele>
        <time>2019-09-01T09:39:52Z</time>
      </trkpt>
      <trkpt lat="48.8496" lon="2.88815">
        <ele>126</ele>
        <time>2019-09-01T09:40:04Z</time>
      </trkpt>
      <trkpt lat="48.84976" lon="2.88755">
        <ele>126</ele>
        <time>2019-09-01T09:40:16Z</time>
      </trkpt>
      <trkpt lat="48.84995" lon="2.88694">
        <ele>127</ele>
        <time>2019-09-01T09:40:27Z</time>
      </trkpt>
      <trkpt lat="48.85015" lon="2.88631">
        <ele>126</ele>
        <time>2019-09-01T09:40:39Z</time>
      </trkpt>
      <trkpt lat="48.85019" lon="2.88622">
        <ele>126</ele>
        <time>2019-09-01T09:40:41Z</time>
      </trkpt>
      <trkpt lat="48.85036" lon="2.88582">
        <ele>127</ele>
        <time>2019-09-01T09:40:49Z</time>
      </trkpt>
      <trkpt lat="48.8505" lon="2.88543">
        <ele>127</ele>
        <time>2019-09-01T09:40:57Z</time>
      </trkpt>
      <trkpt lat="48.85075" lon="2.88469">
        <ele>127</ele>
        <time>2019-09-01T09:41:11Z</time>
      </trkpt>
      <trkpt lat="48.85077" lon="2.88458">
        <ele>127</ele>
        <time>2019-09-01T09:41:13Z</time>
      </trkpt>
      <trkpt lat="48.85082" lon="2.88435">
        <ele>127</ele>
        <time>2019-09-01T09:41:17Z</time>
      </trkpt>
      <trkpt lat="48.85085" lon="2.88416">
        <ele>127</ele>
        <time>2019-09-01T09:41:20Z</time>
      </trkpt>
      <trkpt lat="48.8509" lon="2.88389">
        <ele>126</ele>
        <time>2019-09-01T09:41:24Z</time>
      </trkpt>
      <trkpt lat="48.85092" lon="2.88325">
        <ele>127</ele>
        <time>2019-09-01T09:41:33Z</time>
      </trkpt>
      <trkpt lat="48.8509" lon="2.88265">
        <ele>127</ele>
        <time>2019-09-01T09:41:42Z</time>
      </trkpt>
      <trkpt lat="48.85089" lon="2.8824">
        <ele>126</ele>
        <time>2019-09-01T09:41:46Z</time>
      </trkpt>
      <trkpt lat="48.85086" lon="2.88196">
        <ele>126</ele>
        <time>2019-09-01T09:41:53Z</time>
      </trkpt>
      <trkpt lat="48.85087" lon="2.88167">
        <ele>127</ele>
        <time>2019-09-01T09:41:57Z</time>
      </trkpt>
      <trkpt lat="48.85085" lon="2.88142">
        <ele>126</ele>
        <time>2019-09-01T09:42:01Z</time>
      </trkpt>
      <trkpt lat="48.85083" lon="2.88111">
        <ele>130</ele>
        <time>2019-09-01T09:42:06Z</time>
      </trkpt>
      <trkpt lat="48.85079" lon="2.8807">
        <ele>131</ele>
        <time>2019-09-01T09:42:13Z</time>
      </trkpt>
      <trkpt lat="48.85123" lon="2.88061">
        <ele>127</ele>
        <time>2019-09-01T09:42:24Z</time>
      </trkpt>
      <trkpt lat="48.85207" lon="2.88081">
        <ele>121</ele>
        <time>2019-09-01T09:42:37Z</time>
      </trkpt>
      <trkpt lat="48.85275" lon="2.88101">
        <ele>115</ele>
        <time>2019-09-01T09:42:47Z</time>
      </trkpt>
      <trkpt lat="48.85314" lon="2.88068">
        <ele>114</ele>
        <time>2019-09-01T09:42:55Z</time>
      </trkpt>
      <trkpt lat="48.85318" lon="2.88032">
        <ele>115</ele>
        <time>2019-09-01T09:43:00Z</time>
      </trkpt>
      <trkpt lat="48.85319" lon="2.8801">
        <ele>115</ele>
        <time>2019-09-01T09:43:03Z</time>
      </trkpt>
      <trkpt lat="48.85337" lon="2.88008">
        <ele>112</ele>
        <time>2019-09-01T09:43:08Z</time>
      </trkpt>
      <trkpt lat="48.85419" lon="2.88054">
        <ele>103</ele>
        <time>2019-09-01T09:43:21Z</time>
      </trkpt>
      <trkpt lat="48.85509" lon="2.8811">
        <ele>96</ele>
        <time>2019-09-01T09:43:33Z</time>
      </trkpt>
      <trkpt lat="48.85563" lon="2.88149">
        <ele>92</ele>
        <time>2019-09-01T09:43:39Z</time>
      </trkpt>
      <trkpt lat="48.8563" lon="2.88167">
        <ele>84</ele>
        <time>2019-09-01T09:43:49Z</time>
      </trkpt>
      <trkpt lat="48.85626" lon="2.8817">
        <ele>83</ele>
        <time>2019-09-01T09:43:54Z</time>
      </trkpt>
      <trkpt lat="48.85617" lon="2.88194">
        <ele>84</ele>
        <time>2019-09-01T09:44:04Z</time>
      </trkpt>
      <trkpt lat="48.85607" lon="2.88232">
        <ele>85</ele>
        <time>2019-09-01T09:44:15Z</time>
      </trkpt>
      <trkpt lat="48.85601" lon="2.88269">
        <ele>85</ele>
        <time>2019-09-01T09:44:24Z</time>
      </trkpt>
      <trkpt lat="48.85591" lon="2.88315">
        <ele>85</ele>
        <time>2019-09-01T09:44:35Z</time>
      </trkpt>
      <trkpt lat="48.85566" lon="2.88362">
        <ele>90</ele>
        <time>2019-09-01T09:44:48Z</time>
      </trkpt>
      <trkpt lat="48.85542" lon="2.88403">
        <ele>91</ele>
        <time>2019-09-01T09:44:58Z</time>
      </trkpt>
      <trkpt lat="48.8552" lon="2.88479">
        <ele>89</ele>
        <time>2019-09-01T09:45:09Z</time>
      </trkpt>
      <trkpt lat="48.85491" lon="2.8856">
        <ele>90</ele>
        <time>2019-09-01T09:45:24Z</time>
      </trkpt>
      <trkpt lat="48.85479" lon="2.88586">
        <ele>87</ele>
        <time>2019-09-01T09:45:29Z</time>
      </trkpt>
      <trkpt lat="48.85445" lon="2.88624">
        <ele>89</ele>
        <time>2019-09-01T09:45:40Z</time>
      </trkpt>
      <trkpt lat="48.85408" lon="2.88658">
        <ele>93</ele>
        <time>2019-09-01T09:45:52Z</time>
      </trkpt>
      <trkpt lat="48.85395" lon="2.8867">
        <ele>93</ele>
        <time>2019-09-01T09:45:57Z</time>
      </trkpt>
      <trkpt lat="48.85405" lon="2.88673">
        <ele>92</ele>
        <time>2019-09-01T09:46:03Z</time>
      </trkpt>
      <trkpt lat="48.85413" lon="2.88664">
        <ele>92</ele>
        <time>2019-09-01T09:46:05Z</time>
      </trkpt>
      <trkpt lat="48.85422" lon="2.88657">
        <ele>90</ele>
        <time>2019-09-01T09:46:07Z</time>
      </trkpt>
      <trkpt lat="48.85439" lon="2.88651">
        <ele>89</ele>
        <time>2019-09-01T09:46:10Z</time>
      </trkpt>
      <trkpt lat="48.8545" lon="2.88661">
        <ele>88</ele>
        <time>2019-09-01T09:46:14Z</time>
      </trkpt>
      <trkpt lat="48.85442" lon="2.88701">
        <ele>87</ele>
        <time>2019-09-01T09:46:22Z</time>
      </trkpt>
      <trkpt lat="48.85438" lon="2.8872">
        <ele>87</ele>
        <time>2019-09-01T09:46:25Z</time>
      </trkpt>
      <trkpt lat="48.85427" lon="2.88766">
        <ele>87</ele>
        <time>2019-09-01T09:46:34Z</time>
      </trkpt>
      <trkpt lat="48.8543" lon="2.88792">
        <ele>86</ele>
        <time>2019-09-01T09:46:39Z</time>
      </trkpt>
      <trkpt lat="48.85423" lon="2.88838">
        <ele>88</ele>
        <time>2019-09-01T09:46:46Z</time>
      </trkpt>
      <trkpt lat="48.85418" lon="2.88861">
        <ele>87</ele>
        <time>2019-09-01T09:46:49Z</time>
      </trkpt>
      <trkpt lat="48.85413" lon="2.889">
        <ele>90</ele>
        <time>2019-09-01T09:46:55Z</time>
      </trkpt>
      <trkpt lat="48.85408" lon="2.88921">
        <ele>89</ele>
        <time>2019-09-01T09:46:58Z</time>
      </trkpt>
      <trkpt lat="48.854" lon="2.88955">
        <ele>89</ele>
        <time>2019-09-01T09:47:03Z</time>
      </trkpt>
      <trkpt lat="48.85395" lon="2.8898">
        <ele>88</ele>
        <time>2019-09-01T09:47:07Z</time>
      </trkpt>
      <trkpt lat="48.85375" lon="2.89054">
        <ele>86</ele>
        <time>2019-09-01T09:47:19Z</time>
      </trkpt>
      <trkpt lat="48.8536" lon="2.89108">
        <ele>86</ele>
        <time>2019-09-01T09:47:30Z</time>
      </trkpt>
      <trkpt lat="48.85345" lon="2.89146">
        <ele>88</ele>
        <time>2019-09-01T09:47:42Z</time>
      </trkpt>
      <trkpt lat="48.8534" lon="2.89181">
        <ele>89</ele>
        <time>2019-09-01T09:47:52Z</time>
      </trkpt>
      <trkpt lat="48.85335" lon="2.8922">
        <ele>88</ele>
        <time>2019-09-01T09:48:02Z</time>
      </trkpt>
      <trkpt lat="48.8533" lon="2.8925">
        <ele>91</ele>
        <time>2019-09-01T09:48:11Z</time>
      </trkpt>
      <trkpt lat="48.85322" lon="2.89261">
        <ele>93</ele>
        <time>2019-09-01T09:48:17Z</time>
      </trkpt>
      <trkpt lat="48.85321" lon="2.89285">
        <ele>94</ele>
        <time>2019-09-01T09:48:23Z</time>
      </trkpt>
      <trkpt lat="48.85322" lon="2.89301">
        <ele>94</ele>
        <time>2019-09-01T09:48:26Z</time>
      </trkpt>
      <trkpt lat="48.85321" lon="2.89327">
        <ele>93</ele>
        <time>2019-09-01T09:48:30Z</time>
      </trkpt>
      <trkpt lat="48.85317" lon="2.89348">
        <ele>94</ele>
        <time>2019-09-01T09:48:33Z</time>
      </trkpt>
      <trkpt lat="48.85313" lon="2.89375">
        <ele>95</ele>
        <time>2019-09-01T09:48:37Z</time>
      </trkpt>
      <trkpt lat="48.85309" lon="2.89407">
        <ele>94</ele>
        <time>2019-09-01T09:48:42Z</time>
      </trkpt>
      <trkpt lat="48.85294" lon="2.89459">
        <ele>95</ele>
        <time>2019-09-01T09:48:52Z</time>
      </trkpt>
      <trkpt lat="48.85285" lon="2.89495">
        <ele>95</ele>
        <time>2019-09-01T09:49:00Z</time>
      </trkpt>
      <trkpt lat="48.85278" lon="2.89527">
        <ele>93</ele>
        <time>2019-09-01T09:49:06Z</time>
      </trkpt>
      <trkpt lat="48.85248" lon="2.89585">
        <ele>93</ele>
        <time>2019-09-01T09:49:16Z</time>
      </trkpt>
      <trkpt lat="48.85226" lon="2.89606">
        <ele>94</ele>
        <time>2019-09-01T09:49:21Z</time>
      </trkpt>
      <trkpt lat="48.85189" lon="2.8961">
        <ele>95</ele>
        <time>2019-09-01T09:49:32Z</time>
      </trkpt>
      <trkpt lat="48.85173" lon="2.89613">
        <ele>96</ele>
        <time>2019-09-01T09:49:38Z</time>
      </trkpt>
      <trkpt lat="48.85168" lon="2.89622">
        <ele>95</ele>
        <time>2019-09-01T09:49:42Z</time>
      </trkpt>
      <trkpt lat="48.85174" lon="2.89645">
        <ele>95</ele>
        <time>2019-09-01T09:49:47Z</time>
      </trkpt>
      <trkpt lat="48.85174" lon="2.89672">
        <ele>94</ele>
        <time>2019-09-01T09:49:52Z</time>
      </trkpt>
      <trkpt lat="48.85179" lon="2.89686">
        <ele>94</ele>
        <time>2019-09-01T09:49:56Z</time>
      </trkpt>
      <trkpt lat="48.8518" lon="2.89694">
        <ele>93</ele>
        <time>2019-09-01T09:49:58Z</time>
      </trkpt>
      <trkpt lat="48.8519" lon="2.89709">
        <ele>93</ele>
        <time>2019-09-01T09:50:04Z</time>
      </trkpt>
      <trkpt lat="48.85189" lon="2.89749">
        <ele>94</ele>
        <time>2019-09-01T09:50:11Z</time>
      </trkpt>
      <trkpt lat="48.85195" lon="2.89759">
        <ele>96</ele>
        <time>2019-09-01T09:50:15Z</time>
      </trkpt>
      <trkpt lat="48.85238" lon="2.89758">
        <ele>93</ele>
        <time>2019-09-01T09:50:26Z</time>
      </trkpt>
      <trkpt lat="48.85244" lon="2.89763">
        <ele>93</ele>
        <time>2019-09-01T09:50:28Z</time>
      </trkpt>
      <trkpt lat="48.85249" lon="2.89789">
        <ele>95</ele>
        <time>2019-09-01T09:50:35Z</time>
      </trkpt>
      <trkpt lat="48.8525" lon="2.89807">
        <ele>92</ele>
        <time>2019-09-01T09:50:40Z</time>
      </trkpt>
      <trkpt lat="48.8526" lon="2.89846">
        <ele>95</ele>
        <time>2019-09-01T09:50:51Z</time>
      </trkpt>
      <trkpt lat="48.85262" lon="2.8985">
        <ele>95</ele>
        <time>2019-09-01T09:50:52Z</time>
      </trkpt>
      <trkpt lat="48.85273" lon="2.89878">
        <ele>95</ele>
        <time>2019-09-01T09:51:03Z</time>
      </trkpt>
      <trkpt lat="48.85273" lon="2.89878">
        <ele>95</ele>
        <time>2019-09-01T09:51:15Z</time>
      </trkpt>
      <trkpt lat="48.85287" lon="2.89897">
        <ele>95</ele>
        <time>2019-09-01T09:51:21Z</time>
      </trkpt>
      <trkpt lat="48.85288" lon="2.89948">
        <ele>98</ele>
        <time>2019-09-01T09:51:33Z</time>
      </trkpt>
      <trkpt lat="48.85284" lon="2.89962">
        <ele>98</ele>
        <time>2019-09-01T09:51:37Z</time>
      </trkpt>
      <trkpt lat="48.85271" lon="2.89989">
        <ele>100</ele>
        <time>2019-09-01T09:51:48Z</time>
      </trkpt>
      <trkpt lat="48.85267" lon="2.90007">
        <ele>102</ele>
        <time>2019-09-01T09:51:56Z</time>
      </trkpt>
      <trkpt lat="48.85261" lon="2.90016">
        <ele>102</ele>
        <time>2019-09-01T09:52:01Z</time>
      </trkpt>
      <trkpt lat="48.85254" lon="2.90018">
        <ele>102</ele>
        <time>2019-09-01T09:52:06Z</time>
      </trkpt>
      <trkpt lat="48.85245" lon="2.90059">
        <ele>105</ele>
        <time>2019-09-01T09:52:19Z</time>
      </trkpt>
      <trkpt lat="48.85244" lon="2.90062">
        <ele>105</ele>
        <time>2019-09-01T09:52:20Z</time>
      </trkpt>
      <trkpt lat="48.85245" lon="2.90069">
        <ele>104</ele>
        <time>2019-09-01T09:52:22Z</time>
      </trkpt>
      <trkpt lat="48.85253" lon="2.90083">
        <ele>104</ele>
        <time>2019-09-01T09:52:26Z</time>
      </trkpt>
      <trkpt lat="48.85305" lon="2.90141">
        <ele>101</ele>
        <time>2019-09-01T09:52:39Z</time>
      </trkpt>
      <trkpt lat="48.85333" lon="2.90172">
        <ele>101</ele>
        <time>2019-09-01T09:52:45Z</time>
      </trkpt>
      <trkpt lat="48.85386" lon="2.90233">
        <ele>95</ele>
        <time>2019-09-01T09:52:56Z</time>
      </trkpt>
      <trkpt lat="48.85402" lon="2.90271">
        <ele>94</ele>
        <time>2019-09-01T09:53:02Z</time>
      </trkpt>
      <trkpt lat="48.85412" lon="2.90366">
        <ele>94</ele>
        <time>2019-09-01T09:53:12Z</time>
      </trkpt>
      <trkpt lat="48.85418" lon="2.90544">
        <ele>72</ele>
        <time>2019-09-01T09:53:25Z</time>
      </trkpt>
      <trkpt lat="48.85418" lon="2.90566">
        <ele>73</ele>
        <time>2019-09-01T09:53:27Z</time>
      </trkpt>
      <trkpt lat="48.85422" lon="2.90608">
        <ele>70</ele>
        <time>2019-09-01T09:53:32Z</time>
      </trkpt>
      <trkpt lat="48.85421" lon="2.9074">
        <ele>66</ele>
        <time>2019-09-01T09:53:45Z</time>
      </trkpt>
      <trkpt lat="48.85448" lon="2.9088">
        <ele>58</ele>
        <time>2019-09-01T09:53:59Z</time>
      </trkpt>
      <trkpt lat="48.85472" lon="2.9098">
        <ele>56</ele>
        <time>2019-09-01T09:54:10Z</time>
      </trkpt>
      <trkpt lat="48.8548" lon="2.90992">
        <ele>55</ele>
        <time>2019-09-01T09:54:13Z</time>
      </trkpt>
      <trkpt lat="48.85505" lon="2.90995">
        <ele>52</ele>
        <time>2019-09-01T09:54:18Z</time>
      </trkpt>
      <trkpt lat="48.85535" lon="2.90991">
        <ele>51</ele>
        <time>2019-09-01T09:54:25Z</time>
      </trkpt>
      <trkpt lat="48.85558" lon="2.91015">
        <ele>51</ele>
        <time>2019-09-01T09:54:31Z</time>
      </trkpt>
      <trkpt lat="48.85563" lon="2.91031">
        <ele>51</ele>
        <time>2019-09-01T09:54:33Z</time>
      </trkpt>
      <trkpt lat="48.85572" lon="2.91049">
        <ele>52</ele>
        <time>2019-09-01T09:54:36Z</time>
      </trkpt>
      <trkpt lat="48.85583" lon="2.91064">
        <ele>51</ele>
        <time>2019-09-01T09:54:39Z</time>
      </trkpt>
      <trkpt lat="48.85616" lon="2.911">
        <ele>51</ele>
        <time>2019-09-01T09:54:48Z</time>
      </trkpt>
      <trkpt lat="48.85631" lon="2.91139">
        <ele>51</ele>
        <time>2019-09-01T09:54:56Z</time>
      </trkpt>
      <trkpt lat="48.85634" lon="2.91154">
        <ele>51</ele>
        <time>2019-09-01T09:54:58Z</time>
      </trkpt>
      <trkpt lat="48.85653" lon="2.91216">
        <ele>52</ele>
        <time>2019-09-01T09:55:07Z</time>
      </trkpt>
      <trkpt lat="48.85658" lon="2.91229">
        <ele>52</ele>
        <time>2019-09-01T09:55:09Z</time>
      </trkpt>
      <trkpt lat="48.85677" lon="2.91286">
        <ele>53</ele>
        <time>2019-09-01T09:55:20Z</time>
      </trkpt>
      <trkpt lat="48.85687" lon="2.913">
        <ele>52</ele>
        <time>2019-09-01T09:55:23Z</time>
      </trkpt>
      <trkpt lat="48.85723" lon="2.91344">
        <ele>52</ele>
        <time>2019-09-01T09:55:33Z</time>
      </trkpt>
      <trkpt lat="48.85731" lon="2.91351">
        <ele>52</ele>
        <time>2019-09-01T09:55:35Z</time>
      </trkpt>
      <trkpt lat="48.85766" lon="2.9136">
        <ele>52</ele>
        <time>2019-09-01T09:55:43Z</time>
      </trkpt>
      <trkpt lat="48.85774" lon="2.9136">
        <ele>52</ele>
        <time>2019-09-01T09:55:45Z</time>
      </trkpt>
      <trkpt lat="48.85792" lon="2.91362">
        <ele>52</ele>
        <time>2019-09-01T09:55:49Z</time>
      </trkpt>
      <trkpt lat="48.85805" lon="2.91364">
        <ele>52</ele>
        <time>2019-09-01T09:55:52Z</time>
      </trkpt>
      <trkpt lat="48.85821" lon="2.91377">
        <ele>52</ele>
        <time>2019-09-01T09:55:56Z</time>
      </trkpt>
      <trkpt lat="48.85843" lon="2.91399">
        <ele>52</ele>
        <time>2019-09-01T09:56:03Z</time>
      </trkpt>
      <trkpt lat="48.8584" lon="2.91404">
        <ele>52</ele>
        <time>2019-09-01T09:56:08Z</time>
      </trkpt>
      <trkpt lat="48.85831" lon="2.91396">
        <ele>51</ele>
        <time>2019-09-01T09:56:13Z</time>
      </trkpt>
      <trkpt lat="48.85827" lon="2.91397">
        <ele>51</ele>
        <time>2019-09-01T09:56:25Z</time>
      </trkpt>
      <trkpt lat="48.85827" lon="2.91396">
        <ele>51</ele>
        <time>2019-09-01T09:56:30Z</time>
      </trkpt>
      <trkpt lat="48.85822" lon="2.91399">
        <ele>51</ele>
        <time>2019-09-01T09:56:44Z</time>
      </trkpt>
      <trkpt lat="48.85821" lon="2.91398">
        <ele>51</ele>
        <time>2019-09-01T09:57:03Z</time>
      </trkpt>
      <trkpt lat="48.85827" lon="2.91397">
        <ele>51</ele>
        <time>2019-09-01T09:57:17Z</time>
      </trkpt>
      <trkpt lat="48.85832" lon="2.91399">
        <ele>51</ele>
        <time>2019-09-01T09:57:24Z</time>
      </trkpt>
      <trkpt lat="48.85846" lon="2.914">
        <ele>52</ele>
        <time>2019-09-01T09:57:35Z</time>
      </trkpt>
      <trkpt lat="48.85856" lon="2.91398">
        <ele>52</ele>
        <time>2019-09-01T09:57:42Z</time>
      </trkpt>
      <trkpt lat="48.85861" lon="2.91403">
        <ele>52</ele>
        <time>2019-09-01T09:57:46Z</time>
      </trkpt>
      <trkpt lat="48.85869" lon="2.91415">
        <ele>52</ele>
        <time>2019-09-01T09:57:52Z</time>
      </trkpt>
      <trkpt lat="48.85871" lon="2.91414">
        <ele>52</ele>
        <time>2019-09-01T09:57:54Z</time>
      </trkpt>
      <trkpt lat="48.85876" lon="2.91393">
        <ele>53</ele>
        <time>2019-09-01T09:58:06Z</time>
      </trkpt>
      <trkpt lat="48.85876" lon="2.91391">
        <ele>53</ele>
        <time>2019-09-01T09:58:07Z</time>
      </trkpt>
      <trkpt lat="48.85879" lon="2.91387">
        <ele>53</ele>
        <time>2019-09-01T09:58:10Z</time>
      </trkpt>
      <trkpt lat="48.85884" lon="2.91383">
        <ele>53</ele>
        <time>2019-09-01T09:58:15Z</time>
      </trkpt>
      <trkpt lat="48.85885" lon="2.91382">
        <ele>53</ele>
        <time>2019-09-01T09:58:26Z</time>
      </trkpt>
      <trkpt lat="48.85886" lon="2.9138">
        <ele>53</ele>
        <time>2019-09-01T09:58:44Z</time>
      </trkpt>
      <trkpt lat="48.85885" lon="2.9138">
        <ele>53</ele>
        <time>2019-09-01T09:58:58Z</time>
      </trkpt>
      <trkpt lat="48.85885" lon="2.91381">
        <ele>53</ele>
        <time>2019-09-01T09:59:18Z</time>
      </trkpt>
      <trkpt lat="48.85885" lon="2.91382">
        <ele>53</ele>
        <time>2019-09-01T09:59:44Z</time>
      </trkpt>
      <trkpt lat="48.85885" lon="2.91382">
        <ele>53</ele>
        <time>2019-09-01T09:59:46Z</time>
      </trkpt>
    </trkseg>
  </trk>
  <trk>
    <name><![CDATA[Tracé actuel: 08 SEP 2019 07:52]]></name>
    <trkseg>
      <trkpt lat="48.46468" lon="2.60615">
        <ele>80</ele>
        <time>2019-09-08T05:52:26Z</time>
      </trkpt>
      <trkpt lat="48.46467" lon="2.60617">
        <ele>80</ele>
        <time>2019-09-08T05:52:53Z</time>
      </trkpt>
      <trkpt lat="48.46467" lon="2.60617">
        <ele>80</ele>
        <time>2019-09-08T05:53:15Z</time>
      </trkpt>
      <trkpt lat="48.46468" lon="2.60613">
        <ele>80</ele>
        <time>2019-09-08T05:53:32Z</time>
      </trkpt>
      <trkpt lat="48.46467" lon="2.60613">
        <ele>80</ele>
        <time>2019-09-08T05:53:44Z</time>
      </trkpt>
      <trkpt lat="48.46466" lon="2.60613">
        <ele>80</ele>
        <time>2019-09-08T05:53:55Z</time>
      </trkpt>
      <trkpt lat="48.46466" lon="2.60615">
        <ele>80</ele>
        <time>2019-09-08T05:54:09Z</time>
      </trkpt>
      <trkpt lat="48.46467" lon="2.60612">
        <ele>80</ele>
        <time>2019-09-08T05:54:22Z</time>
      </trkpt>
      <trkpt lat="48.46467" lon="2.60611">
        <ele>80</ele>
        <time>2019-09-08T05:54:25Z</time>
      </trkpt>
      <trkpt lat="48.46471" lon="2.60607">
        <ele>80</ele>
        <time>2019-09-08T05:54:30Z</time>
      </trkpt>
      <trkpt lat="48.46477" lon="2.60642">
        <ele>80</ele>
        <time>2019-09-08T05:54:44Z</time>
      </trkpt>
      <trkpt lat="48.46481" lon="2.60688">
        <ele>80</ele>
        <time>2019-09-08T05:54:55Z</time>
      </trkpt>
      <trkpt lat="48.46493" lon="2.60693">
        <ele>80</ele>
        <time>2019-09-08T05:55:01Z</time>
      </trkpt>
      <trkpt lat="48.46504" lon="2.60698">
        <ele>81</ele>
        <time>2019-09-08T05:55:06Z</time>
      </trkpt>
      <trkpt lat="48.46508" lon="2.60703">
        <ele>81</ele>
        <time>2019-09-08T05:55:10Z</time>
      </trkpt>
      <trkpt lat="48.46509" lon="2.60708">
        <ele>81</ele>
        <time>2019-09-08T05:55:12Z</time>
      </trkpt>
      <trkpt lat="48.46531" lon="2.60708">
        <ele>81</ele>
        <time>2019-09-08T05:55:23Z</time>
      </trkpt>
      <trkpt lat="48.4656" lon="2.60704">
        <ele>81</ele>
        <time>2019-09-08T05:55:34Z</time>
      </trkpt>
      <trkpt lat="48.46574" lon="2.60703">
        <ele>82</ele>
        <time>2019-09-08T05:55:46Z</time>
      </trkpt>
      <trkpt lat="48.46578" lon="2.60702">
        <ele>82</ele>
        <time>2019-09-08T05:55:51Z</time>
      </trkpt>
      <trkpt lat="48.46588" lon="2.60724">
        <ele>82</ele>
        <time>2019-09-08T05:55:59Z</time>
      </trkpt>
      <trkpt lat="48.46577" lon="2.60794">
        <ele>82</ele>
        <time>2019-09-08T05:56:11Z</time>
      </trkpt>
      <trkpt lat="48.46584" lon="2.60811">
        <ele>83</ele>
        <time>2019-09-08T05:56:15Z</time>
      </trkpt>
      <trkpt lat="48.46614" lon="2.60854">
        <ele>83</ele>
        <time>2019-09-08T05:56:28Z</time>
      </trkpt>
      <trkpt lat="48.46611" lon="2.60913">
        <ele>82</ele>
        <time>2019-09-08T05:56:37Z</time>
      </trkpt>
      <trkpt lat="48.46626" lon="2.60946">
        <ele>81</ele>
        <time>2019-09-08T05:56:43Z</time>
      </trkpt>
      <trkpt lat="48.46701" lon="2.60993">
        <ele>81</ele>
        <time>2019-09-08T05:57:01Z</time>
      </trkpt>
      <trkpt lat="48.46737" lon="2.61022">
        <ele>80</ele>
        <time>2019-09-08T05:57:12Z</time>
      </trkpt>
      <trkpt lat="48.46753" lon="2.61074">
        <ele>81</ele>
        <time>2019-09-08T05:57:21Z</time>
      </trkpt>
      <trkpt lat="48.46791" lon="2.61167">
        <ele>80</ele>
        <time>2019-09-08T05:57:39Z</time>
      </trkpt>
      <trkpt lat="48.46804" lon="2.61177">
        <ele>80</ele>
        <time>2019-09-08T05:57:43Z</time>
      </trkpt>
      <trkpt lat="48.46824" lon="2.61183">
        <ele>80</ele>
        <time>2019-09-08T05:57:48Z</time>
      </trkpt>
      <trkpt lat="48.46893" lon="2.61211">
        <ele>79</ele>
        <time>2019-09-08T05:58:05Z</time>
      </trkpt>
      <trkpt lat="48.46909" lon="2.61216">
        <ele>79</ele>
        <time>2019-09-08T05:58:09Z</time>
      </trkpt>
      <trkpt lat="48.46918" lon="2.6124">
        <ele>78</ele>
        <time>2019-09-08T05:58:14Z</time>
      </trkpt>
      <trkpt lat="48.46905" lon="2.6131">
        <ele>77</ele>
        <time>2019-09-08T05:58:26Z</time>
      </trkpt>
      <trkpt lat="48.46873" lon="2.61421">
        <ele>80</ele>
        <time>2019-09-08T05:58:45Z</time>
      </trkpt>
      <trkpt lat="48.46854" lon="2.61479">
        <ele>80</ele>
        <time>2019-09-08T05:58:56Z</time>
      </trkpt>
      <trkpt lat="48.46891" lon="2.61512">
        <ele>79</ele>
        <time>2019-09-08T05:59:07Z</time>
      </trkpt>
      <trkpt lat="48.46936" lon="2.61589">
        <ele>78</ele>
        <time>2019-09-08T05:59:23Z</time>
      </trkpt>
      <trkpt lat="48.46976" lon="2.61673">
        <ele>78</ele>
        <time>2019-09-08T05:59:39Z</time>
      </trkpt>
      <trkpt lat="48.47018" lon="2.61758">
        <ele>78</ele>
        <time>2019-09-08T05:59:55Z</time>
      </trkpt>
      <trkpt lat="48.47066" lon="2.61851">
        <ele>79</ele>
        <time>2019-09-08T06:00:13Z</time>
      </trkpt>
      <trkpt lat="48.4711" lon="2.61938">
        <ele>78</ele>
        <time>2019-09-08T06:00:29Z</time>
      </trkpt>
      <trkpt lat="48.47153" lon="2.62039">
        <ele>78</ele>
        <time>2019-09-08T06:00:46Z</time>
      </trkpt>
      <trkpt lat="48.47204" lon="2.62179">
        <ele>78</ele>
        <time>2019-09-08T06:01:08Z</time>
      </trkpt>
      <trkpt lat="48.4722" lon="2.62219">
        <ele>79</ele>
        <time>2019-09-08T06:01:15Z</time>
      </trkpt>
      <trkpt lat="48.47234" lon="2.62254">
        <ele>81</ele>
        <time>2019-09-08T06:01:21Z</time>
      </trkpt>
      <trkpt lat="48.47244" lon="2.62276">
        <ele>81</ele>
        <time>2019-09-08T06:01:25Z</time>
      </trkpt>
      <trkpt lat="48.47276" lon="2.62364">
        <ele>80</ele>
        <time>2019-09-08T06:01:39Z</time>
      </trkpt>
      <trkpt lat="48.4731" lon="2.62453">
        <ele>78</ele>
        <time>2019-09-08T06:01:55Z</time>
      </trkpt>
      <trkpt lat="48.47355" lon="2.62552">
        <ele>78</ele>
        <time>2019-09-08T06:02:14Z</time>
      </trkpt>
      <trkpt lat="48.47407" lon="2.62629">
        <ele>77</ele>
        <time>2019-09-08T06:02:30Z</time>
      </trkpt>
      <trkpt lat="48.47475" lon="2.62711">
        <ele>77</ele>
        <time>2019-09-08T06:02:49Z</time>
      </trkpt>
      <trkpt lat="48.47519" lon="2.62765">
        <ele>78</ele>
        <time>2019-09-08T06:03:02Z</time>
      </trkpt>
      <trkpt lat="48.47514" lon="2.62795">
        <ele>77</ele>
        <time>2019-09-08T06:03:08Z</time>
      </trkpt>
      <trkpt lat="48.47475" lon="2.62893">
        <ele>76</ele>
        <time>2019-09-08T06:03:24Z</time>
      </trkpt>
      <trkpt lat="48.47458" lon="2.62945">
        <ele>76</ele>
        <time>2019-09-08T06:03:32Z</time>
      </trkpt>
      <trkpt lat="48.47414" lon="2.63036">
        <ele>77</ele>
        <time>2019-09-08T06:03:48Z</time>
      </trkpt>
      <trkpt lat="48.47403" lon="2.63062">
        <ele>77</ele>
        <time>2019-09-08T06:03:52Z</time>
      </trkpt>
      <trkpt lat="48.47348" lon="2.63175">
        <ele>77</ele>
        <time>2019-09-08T06:04:10Z</time>
      </trkpt>
      <trkpt lat="48.47301" lon="2.63284">
        <ele>77</ele>
        <time>2019-09-08T06:04:27Z</time>
      </trkpt>
      <trkpt lat="48.4727" lon="2.63385">
        <ele>81</ele>
        <time>2019-09-08T06:04:43Z</time>
      </trkpt>
      <trkpt lat="48.47257" lon="2.63439">
        <ele>85</ele>
        <time>2019-09-08T06:04:54Z</time>
      </trkpt>
      <trkpt lat="48.47256" lon="2.63471">
        <ele>87</ele>
        <time>2019-09-08T06:05:00Z</time>
      </trkpt>
      <trkpt lat="48.47248" lon="2.63527">
        <ele>91</ele>
        <time>2019-09-08T06:05:11Z</time>
      </trkpt>
      <trkpt lat="48.47238" lon="2.63581">
        <ele>93</ele>
        <time>2019-09-08T06:05:22Z</time>
      </trkpt>
      <trkpt lat="48.47226" lon="2.6363">
        <ele>93</ele>
        <time>2019-09-08T06:05:34Z</time>
      </trkpt>
      <trkpt lat="48.47203" lon="2.63687">
        <ele>92</ele>
        <time>2019-09-08T06:05:47Z</time>
      </trkpt>
      <trkpt lat="48.4718" lon="2.63761">
        <ele>91</ele>
        <time>2019-09-08T06:05:59Z</time>
      </trkpt>
      <trkpt lat="48.47167" lon="2.63796">
        <ele>90</ele>
        <time>2019-09-08T06:06:05Z</time>
      </trkpt>
      <trkpt lat="48.47181" lon="2.63856">
        <ele>90</ele>
        <time>2019-09-08T06:06:13Z</time>
      </trkpt>
      <trkpt lat="48.47209" lon="2.63888">
        <ele>91</ele>
        <time>2019-09-08T06:06:23Z</time>
      </trkpt>
      <trkpt lat="48.47216" lon="2.63896">
        <ele>91</ele>
        <time>2019-09-08T06:06:26Z</time>
      </trkpt>
      <trkpt lat="48.4726" lon="2.63931">
        <ele>92</ele>
        <time>2019-09-08T06:06:37Z</time>
      </trkpt>
      <trkpt lat="48.47269" lon="2.63938">
        <ele>92</ele>
        <time>2019-09-08T06:06:39Z</time>
      </trkpt>
      <trkpt lat="48.47299" lon="2.63971">
        <ele>92</ele>
        <time>2019-09-08T06:06:46Z</time>
      </trkpt>
      <trkpt lat="48.47321" lon="2.63993">
        <ele>92</ele>
        <time>2019-09-08T06:06:51Z</time>
      </trkpt>
      <trkpt lat="48.47352" lon="2.64017">
        <ele>91</ele>
        <time>2019-09-08T06:06:58Z</time>
      </trkpt>
      <trkpt lat="48.47361" lon="2.64027">
        <ele>91</ele>
        <time>2019-09-08T06:07:00Z</time>
      </trkpt>
      <trkpt lat="48.47369" lon="2.64099">
        <ele>91</ele>
        <time>2019-09-08T06:07:10Z</time>
      </trkpt>
      <trkpt lat="48.47354" lon="2.64162">
        <ele>91</ele>
        <time>2019-09-08T06:07:21Z</time>
      </trkpt>
      <trkpt lat="48.47332" lon="2.64245">
        <ele>92</ele>
        <time>2019-09-08T06:07:29Z</time>
      </trkpt>
      <trkpt lat="48.47301" lon="2.64279">
        <ele>91</ele>
        <time>2019-09-08T06:07:36Z</time>
      </trkpt>
      <trkpt lat="48.47272" lon="2.64314">
        <ele>90</ele>
        <time>2019-09-08T06:07:44Z</time>
      </trkpt>
      <trkpt lat="48.4726" lon="2.64327">
        <ele>90</ele>
        <time>2019-09-08T06:07:47Z</time>
      </trkpt>
      <trkpt lat="48.47238" lon="2.64353">
        <ele>90</ele>
        <time>2019-09-08T06:07:53Z</time>
      </trkpt>
      <trkpt lat="48.47226" lon="2.64363">
        <ele>90</ele>
        <time>2019-09-08T06:07:57Z</time>
      </trkpt>
      <trkpt lat="48.47183" lon="2.64418">
        <ele>91</ele>
        <time>2019-09-08T06:08:10Z</time>
      </trkpt>
      <trkpt lat="48.47141" lon="2.64475">
        <ele>90</ele>
        <time>2019-09-08T06:08:22Z</time>
      </trkpt>
      <trkpt lat="48.47126" lon="2.64497">
        <ele>89</ele>
        <time>2019-09-08T06:08:26Z</time>
      </trkpt>
      <trkpt lat="48.47087" lon="2.64548">
        <ele>90</ele>
        <time>2019-09-08T06:08:36Z</time>
      </trkpt>
      <trkpt lat="48.47054" lon="2.64598">
        <ele>90</ele>
        <time>2019-09-08T06:08:46Z</time>
      </trkpt>
      <trkpt lat="48.47042" lon="2.64613">
        <ele>90</ele>
        <time>2019-09-08T06:08:49Z</time>
      </trkpt>
      <trkpt lat="48.47031" lon="2.64626">
        <ele>90</ele>
        <time>2019-09-08T06:08:52Z</time>
      </trkpt>
      <trkpt lat="48.46996" lon="2.64673">
        <ele>90</ele>
        <time>2019-09-08T06:09:03Z</time>
      </trkpt>
      <trkpt lat="48.46975" lon="2.64704">
        <ele>88</ele>
        <time>2019-09-08T06:09:09Z</time>
      </trkpt>
      <trkpt lat="48.46926" lon="2.64721">
        <ele>88</ele>
        <time>2019-09-08T06:09:17Z</time>
      </trkpt>
      <trkpt lat="48.46885" lon="2.64694">
        <ele>88</ele>
        <time>2019-09-08T06:09:27Z</time>
      </trkpt>
      <trkpt lat="48.46853" lon="2.6467">
        <ele>88</ele>
        <time>2019-09-08T06:09:35Z</time>
      </trkpt>
      <trkpt lat="48.46829" lon="2.64649">
        <ele>88</ele>
        <time>2019-09-08T06:09:42Z</time>
      </trkpt>
      <trkpt lat="48.46786" lon="2.64604">
        <ele>87</ele>
        <time>2019-09-08T06:09:54Z</time>
      </trkpt>
      <trkpt lat="48.46779" lon="2.64596">
        <ele>87</ele>
        <time>2019-09-08T06:09:56Z</time>
      </trkpt>
      <trkpt lat="48.46734" lon="2.64558">
        <ele>87</ele>
        <time>2019-09-08T06:10:07Z</time>
      </trkpt>
      <trkpt lat="48.46707" lon="2.64541">
        <ele>87</ele>
        <time>2019-09-08T06:10:14Z</time>
      </trkpt>
      <trkpt lat="48.46688" lon="2.64544">
        <ele>87</ele>
        <time>2019-09-08T06:10:21Z</time>
      </trkpt>
      <trkpt lat="48.46658" lon="2.6455">
        <ele>89</ele>
        <time>2019-09-08T06:10:27Z</time>
      </trkpt>
      <trkpt lat="48.46647" lon="2.64589">
        <ele>88</ele>
        <time>2019-09-08T06:10:35Z</time>
      </trkpt>
      <trkpt lat="48.4663" lon="2.64635">
        <ele>89</ele>
        <time>2019-09-08T06:10:42Z</time>
      </trkpt>
      <trkpt lat="48.46625" lon="2.64649">
        <ele>89</ele>
        <time>2019-09-08T06:10:44Z</time>
      </trkpt>
      <trkpt lat="48.46619" lon="2.64674">
        <ele>90</ele>
        <time>2019-09-08T06:10:48Z</time>
      </trkpt>
      <trkpt lat="48.46608" lon="2.64751">
        <ele>92</ele>
        <time>2019-09-08T06:11:01Z</time>
      </trkpt>
      <trkpt lat="48.46606" lon="2.64775">
        <ele>92</ele>
        <time>2019-09-08T06:11:05Z</time>
      </trkpt>
      <trkpt lat="48.46598" lon="2.64837">
        <ele>94</ele>
        <time>2019-09-08T06:11:16Z</time>
      </trkpt>
      <trkpt lat="48.46584" lon="2.64921">
        <ele>93</ele>
        <time>2019-09-08T06:11:30Z</time>
      </trkpt>
      <trkpt lat="48.46578" lon="2.64963">
        <ele>90</ele>
        <time>2019-09-08T06:11:38Z</time>
      </trkpt>
      <trkpt lat="48.46591" lon="2.64986">
        <ele>90</ele>
        <time>2019-09-08T06:11:47Z</time>
      </trkpt>
      <trkpt lat="48.46598" lon="2.64985">
        <ele>90</ele>
        <time>2019-09-08T06:11:50Z</time>
      </trkpt>
      <trkpt lat="48.46633" lon="2.64991">
        <ele>91</ele>
        <time>2019-09-08T06:11:59Z</time>
      </trkpt>
      <trkpt lat="48.4667" lon="2.64995">
        <ele>91</ele>
        <time>2019-09-08T06:12:09Z</time>
      </trkpt>
      <trkpt lat="48.46718" lon="2.64994">
        <ele>91</ele>
        <time>2019-09-08T06:12:21Z</time>
      </trkpt>
      <trkpt lat="48.4674" lon="2.64988">
        <ele>91</ele>
        <time>2019-09-08T06:12:28Z</time>
      </trkpt>
      <trkpt lat="48.46786" lon="2.64997">
        <ele>91</ele>
        <time>2019-09-08T06:12:38Z</time>
      </trkpt>
      <trkpt lat="48.46836" lon="2.65012">
        <ele>91</ele>
        <time>2019-09-08T06:12:48Z</time>
      </trkpt>
      <trkpt lat="48.46896" lon="2.65031">
        <ele>88</ele>
        <time>2019-09-08T06:12:59Z</time>
      </trkpt>
      <trkpt lat="48.46913" lon="2.65033">
        <ele>88</ele>
        <time>2019-09-08T06:13:03Z</time>
      </trkpt>
      <trkpt lat="48.46962" lon="2.65039">
        <ele>87</ele>
        <time>2019-09-08T06:13:14Z</time>
      </trkpt>
      <trkpt lat="48.47004" lon="2.65049">
        <ele>87</ele>
        <time>2019-09-08T06:13:24Z</time>
      </trkpt>
      <trkpt lat="48.47058" lon="2.6505">
        <ele>87</ele>
        <time>2019-09-08T06:13:37Z</time>
      </trkpt>
      <trkpt lat="48.47105" lon="2.65061">
        <ele>88</ele>
        <time>2019-09-08T06:13:48Z</time>
      </trkpt>
      <trkpt lat="48.47141" lon="2.65066">
        <ele>89</ele>
        <time>2019-09-08T06:13:57Z</time>
      </trkpt>
      <trkpt lat="48.47143" lon="2.65066">
        <ele>89</ele>
        <time>2019-09-08T06:13:58Z</time>
      </trkpt>
      <trkpt lat="48.47153" lon="2.65077">
        <ele>88</ele>
        <time>2019-09-08T06:14:04Z</time>
      </trkpt>
      <trkpt lat="48.47151" lon="2.65135">
        <ele>84</ele>
        <time>2019-09-08T06:14:20Z</time>
      </trkpt>
      <trkpt lat="48.47147" lon="2.65209">
        <ele>80</ele>
        <time>2019-09-08T06:14:33Z</time>
      </trkpt>
      <trkpt lat="48.47145" lon="2.65252">
        <ele>80</ele>
        <time>2019-09-08T06:14:44Z</time>
      </trkpt>
      <trkpt lat="48.47143" lon="2.65261">
        <ele>80</ele>
        <time>2019-09-08T06:14:47Z</time>
      </trkpt>
      <trkpt lat="48.47143" lon="2.65272">
        <ele>80</ele>
        <time>2019-09-08T06:14:50Z</time>
      </trkpt>
      <trkpt lat="48.4714" lon="2.65288">
        <ele>80</ele>
        <time>2019-09-08T06:14:53Z</time>
      </trkpt>
      <trkpt lat="48.47136" lon="2.65347">
        <ele>80</ele>
        <time>2019-09-08T06:15:06Z</time>
      </trkpt>
      <trkpt lat="48.47137" lon="2.65374">
        <ele>80</ele>
        <time>2019-09-08T06:15:22Z</time>
      </trkpt>
      <trkpt lat="48.47138" lon="2.65392">
        <ele>81</ele>
        <time>2019-09-08T06:15:40Z</time>
      </trkpt>
      <trkpt lat="48.47138" lon="2.65409">
        <ele>81</ele>
        <time>2019-09-08T06:15:59Z</time>
      </trkpt>
      <trkpt lat="48.47139" lon="2.65413">
        <ele>81</ele>
        <time>2019-09-08T06:16:18Z</time>
      </trkpt>
      <trkpt lat="48.4714" lon="2.65414">
        <ele>81</ele>
        <time>2019-09-08T06:16:32Z</time>
      </trkpt>
      <trkpt lat="48.47144" lon="2.65416">
        <ele>81</ele>
        <time>2019-09-08T06:16:35Z</time>
      </trkpt>
      <trkpt lat="48.47157" lon="2.65431">
        <ele>81</ele>
        <time>2019-09-08T06:16:46Z</time>
      </trkpt>
      <trkpt lat="48.47159" lon="2.65433">
        <ele>81</ele>
        <time>2019-09-08T06:16:48Z</time>
      </trkpt>
      <trkpt lat="48.47169" lon="2.65443">
        <ele>81</ele>
        <time>2019-09-08T06:16:52Z</time>
      </trkpt>
      <trkpt lat="48.47179" lon="2.65454">
        <ele>81</ele>
        <time>2019-09-08T06:16:55Z</time>
      </trkpt>
      <trkpt lat="48.47237" lon="2.65513">
        <ele>81</ele>
        <time>2019-09-08T06:17:10Z</time>
      </trkpt>
      <trkpt lat="48.4726" lon="2.65539">
        <ele>81</ele>
        <time>2019-09-08T06:17:16Z</time>
      </trkpt>
      <trkpt lat="48.47292" lon="2.65575">
        <ele>82</ele>
        <time>2019-09-08T06:17:24Z</time>
      </trkpt>
      <trkpt lat="48.47337" lon="2.65635">
        <ele>85</ele>
        <time>2019-09-08T06:17:38Z</time>
      </trkpt>
      <trkpt lat="48.47341" lon="2.65638">
        <ele>85</ele>
        <time>2019-09-08T06:17:39Z</time>
      </trkpt>
      <trkpt lat="48.47349" lon="2.65668">
        <ele>85</ele>
        <time>2019-09-08T06:17:44Z</time>
      </trkpt>
      <trkpt lat="48.47337" lon="2.65729">
        <ele>86</ele>
        <time>2019-09-08T06:17:56Z</time>
      </trkpt>
      <trkpt lat="48.47334" lon="2.65753">
        <ele>85</ele>
        <time>2019-09-08T06:18:00Z</time>
      </trkpt>
      <trkpt lat="48.47349" lon="2.65786">
        <ele>87</ele>
        <time>2019-09-08T06:18:06Z</time>
      </trkpt>
      <trkpt lat="48.47394" lon="2.65807">
        <ele>87</ele>
        <time>2019-09-08T06:18:14Z</time>
      </trkpt>
      <trkpt lat="48.47422" lon="2.65816">
        <ele>88</ele>
        <time>2019-09-08T06:18:19Z</time>
      </trkpt>
      <trkpt lat="48.47444" lon="2.65818">
        <ele>88</ele>
        <time>2019-09-08T06:18:23Z</time>
      </trkpt>
      <trkpt lat="48.47492" lon="2.6582">
        <ele>88</ele>
        <time>2019-09-08T06:18:32Z</time>
      </trkpt>
      <trkpt lat="48.47508" lon="2.65825">
        <ele>88</ele>
        <time>2019-09-08T06:18:35Z</time>
      </trkpt>
      <trkpt lat="48.47528" lon="2.65807">
        <ele>89</ele>
        <time>2019-09-08T06:18:42Z</time>
      </trkpt>
      <trkpt lat="48.47549" lon="2.65795">
        <ele>89</ele>
        <time>2019-09-08T06:18:47Z</time>
      </trkpt>
      <trkpt lat="48.47566" lon="2.65791">
        <ele>89</ele>
        <time>2019-09-08T06:18:51Z</time>
      </trkpt>
      <trkpt lat="48.4759" lon="2.65817">
        <ele>89</ele>
        <time>2019-09-08T06:19:02Z</time>
      </trkpt>
      <trkpt lat="48.47584" lon="2.65891">
        <ele>88</ele>
        <time>2019-09-08T06:19:13Z</time>
      </trkpt>
      <trkpt lat="48.47573" lon="2.65909">
        <ele>88</ele>
        <time>2019-09-08T06:19:17Z</time>
      </trkpt>
      <trkpt lat="48.47554" lon="2.65908">
        <ele>88</ele>
        <time>2019-09-08T06:19:21Z</time>
      </trkpt>
      <trkpt lat="48.47534" lon="2.65912">
        <ele>88</ele>
        <time>2019-09-08T06:19:26Z</time>
      </trkpt>
      <trkpt lat="48.47508" lon="2.65967">
        <ele>87</ele>
        <time>2019-09-08T06:19:35Z</time>
      </trkpt>
      <trkpt lat="48.47488" lon="2.66002">
        <ele>87</ele>
        <time>2019-09-08T06:19:41Z</time>
      </trkpt>
      <trkpt lat="48.47474" lon="2.66024">
        <ele>88</ele>
        <time>2019-09-08T06:19:45Z</time>
      </trkpt>
      <trkpt lat="48.47465" lon="2.66041">
        <ele>88</ele>
        <time>2019-09-08T06:19:48Z</time>
      </trkpt>
      <trkpt lat="48.47446" lon="2.66071">
        <ele>89</ele>
        <time>2019-09-08T06:19:53Z</time>
      </trkpt>
      <trkpt lat="48.47433" lon="2.66094">
        <ele>90</ele>
        <time>2019-09-08T06:19:57Z</time>
      </trkpt>
      <trkpt lat="48.47411" lon="2.66103">
        <ele>92</ele>
        <time>2019-09-08T06:20:01Z</time>
      </trkpt>
      <trkpt lat="48.47378" lon="2.66103">
        <ele>93</ele>
        <time>2019-09-08T06:20:08Z</time>
      </trkpt>
      <trkpt lat="48.47299" lon="2.661">
        <ele>94</ele>
        <time>2019-09-08T06:20:23Z</time>
      </trkpt>
      <trkpt lat="48.47269" lon="2.66098">
        <ele>92</ele>
        <time>2019-09-08T06:20:28Z</time>
      </trkpt>
      <trkpt lat="48.47234" lon="2.66082">
        <ele>89</ele>
        <time>2019-09-08T06:20:34Z</time>
      </trkpt>
      <trkpt lat="48.47198" lon="2.66051">
        <ele>89</ele>
        <time>2019-09-08T06:20:44Z</time>
      </trkpt>
      <trkpt lat="48.47157" lon="2.65999">
        <ele>87</ele>
        <time>2019-09-08T06:20:55Z</time>
      </trkpt>
      <trkpt lat="48.47137" lon="2.65969">
        <ele>88</ele>
        <time>2019-09-08T06:20:59Z</time>
      </trkpt>
      <trkpt lat="48.47126" lon="2.65953">
        <ele>88</ele>
        <time>2019-09-08T06:21:01Z</time>
      </trkpt>
      <trkpt lat="48.47087" lon="2.65919">
        <ele>91</ele>
        <time>2019-09-08T06:21:10Z</time>
      </trkpt>
      <trkpt lat="48.47046" lon="2.65913">
        <ele>90</ele>
        <time>2019-09-08T06:21:19Z</time>
      </trkpt>
      <trkpt lat="48.47031" lon="2.65907">
        <ele>90</ele>
        <time>2019-09-08T06:21:22Z</time>
      </trkpt>
      <trkpt lat="48.47006" lon="2.65901">
        <ele>91</ele>
        <time>2019-09-08T06:21:27Z</time>
      </trkpt>
      <trkpt lat="48.46989" lon="2.65899">
        <ele>92</ele>
        <time>2019-09-08T06:21:30Z</time>
      </trkpt>
      <trkpt lat="48.46915" lon="2.65882">
        <ele>94</ele>
        <time>2019-09-08T06:21:42Z</time>
      </trkpt>
      <trkpt lat="48.46903" lon="2.6588">
        <ele>94</ele>
        <time>2019-09-08T06:21:44Z</time>
      </trkpt>
      <trkpt lat="48.46883" lon="2.65876">
        <ele>94</ele>
        <time>2019-09-08T06:21:48Z</time>
      </trkpt>
      <trkpt lat="48.46839" lon="2.65871">
        <ele>94</ele>
        <time>2019-09-08T06:21:57Z</time>
      </trkpt>
      <trkpt lat="48.46808" lon="2.65871">
        <ele>95</ele>
        <time>2019-09-08T06:22:04Z</time>
      </trkpt>
      <trkpt lat="48.46788" lon="2.65868">
        <ele>95</ele>
        <time>2019-09-08T06:22:08Z</time>
      </trkpt>
      <trkpt lat="48.46708" lon="2.65859">
        <ele>97</ele>
        <time>2019-09-08T06:22:22Z</time>
      </trkpt>
      <trkpt lat="48.46703" lon="2.65858">
        <ele>97</ele>
        <time>2019-09-08T06:22:23Z</time>
      </trkpt>
      <trkpt lat="48.46681" lon="2.65854">
        <ele>97</ele>
        <time>2019-09-08T06:22:27Z</time>
      </trkpt>
      <trkpt lat="48.46669" lon="2.65852">
        <ele>97</ele>
        <time>2019-09-08T06:22:29Z</time>
      </trkpt>
      <trkpt lat="48.46647" lon="2.65854">
        <ele>98</ele>
        <time>2019-09-08T06:22:34Z</time>
      </trkpt>
      <trkpt lat="48.46638" lon="2.65857">
        <ele>98</ele>
        <time>2019-09-08T06:22:36Z</time>
      </trkpt>
      <trkpt lat="48.46629" lon="2.65861">
        <ele>98</ele>
        <time>2019-09-08T06:22:38Z</time>
      </trkpt>
      <trkpt lat="48.46597" lon="2.65869">
        <ele>98</ele>
        <time>2019-09-08T06:22:44Z</time>
      </trkpt>
      <trkpt lat="48.46581" lon="2.65864">
        <ele>98</ele>
        <time>2019-09-08T06:22:47Z</time>
      </trkpt>
      <trkpt lat="48.46563" lon="2.65867">
        <ele>99</ele>
        <time>2019-09-08T06:22:51Z</time>
      </trkpt>
      <trkpt lat="48.46537" lon="2.65873">
        <ele>99</ele>
        <time>2019-09-08T06:22:56Z</time>
      </trkpt>
      <trkpt lat="48.46514" lon="2.65874">
        <ele>99</ele>
        <time>2019-09-08T06:23:01Z</time>
      </trkpt>
      <trkpt lat="48.46502" lon="2.65871">
        <ele>99</ele>
        <time>2019-09-08T06:23:04Z</time>
      </trkpt>
      <trkpt lat="48.46489" lon="2.65858">
        <ele>100</ele>
        <time>2019-09-08T06:23:08Z</time>
      </trkpt>
      <trkpt lat="48.46489" lon="2.65814">
        <ele>101</ele>
        <time>2019-09-08T06:23:17Z</time>
      </trkpt>
      <trkpt lat="48.465" lon="2.65793">
        <ele>101</ele>
        <time>2019-09-08T06:23:21Z</time>
      </trkpt>
      <trkpt lat="48.46497" lon="2.65749">
        <ele>103</ele>
        <time>2019-09-08T06:23:31Z</time>
      </trkpt>
      <trkpt lat="48.46495" lon="2.65692">
        <ele>102</ele>
        <time>2019-09-08T06:23:42Z</time>
      </trkpt>
      <trkpt lat="48.46503" lon="2.65591">
        <ele>101</ele>
        <time>2019-09-08T06:23:56Z</time>
      </trkpt>
      <trkpt lat="48.46503" lon="2.65534">
        <ele>102</ele>
        <time>2019-09-08T06:24:06Z</time>
      </trkpt>
      <trkpt lat="48.46501" lon="2.6546">
        <ele>102</ele>
        <time>2019-09-08T06:24:17Z</time>
      </trkpt>
      <trkpt lat="48.46499" lon="2.65453">
        <ele>102</ele>
        <time>2019-09-08T06:24:18Z</time>
      </trkpt>
      <trkpt lat="48.46497" lon="2.65367">
        <ele>101</ele>
        <time>2019-09-08T06:24:29Z</time>
      </trkpt>
      <trkpt lat="48.46495" lon="2.65335">
        <ele>101</ele>
        <time>2019-09-08T06:24:33Z</time>
      </trkpt>
      <trkpt lat="48.46486" lon="2.6531">
        <ele>98</ele>
        <time>2019-09-08T06:24:38Z</time>
      </trkpt>
      <trkpt lat="48.46451" lon="2.65278">
        <ele>97</ele>
        <time>2019-09-08T06:24:52Z</time>
      </trkpt>
      <trkpt lat="48.46419" lon="2.6527">
        <ele>96</ele>
        <time>2019-09-08T06:25:03Z</time>
      </trkpt>
      <trkpt lat="48.46412" lon="2.65264">
        <ele>98</ele>
        <time>2019-09-08T06:25:08Z</time>
      </trkpt>
      <trkpt lat="48.46409" lon="2.65264">
        <ele>98</ele>
        <time>2019-09-08T06:25:10Z</time>
      </trkpt>
      <trkpt lat="48.46386" lon="2.65226">
        <ele>97</ele>
        <time>2019-09-08T06:25:24Z</time>
      </trkpt>
      <trkpt lat="48.4637" lon="2.65214">
        <ele>98</ele>
        <time>2019-09-08T06:25:37Z</time>
      </trkpt>
      <trkpt lat="48.46353" lon="2.65197">
        <ele>99</ele>
        <time>2019-09-08T06:25:50Z</time>
      </trkpt>
      <trkpt lat="48.46343" lon="2.65188">
        <ele>99</ele>
        <time>2019-09-08T06:25:56Z</time>
      </trkpt>
      <trkpt lat="48.46322" lon="2.65165">
        <ele>104</ele>
        <time>2019-09-08T06:26:09Z</time>
      </trkpt>
      <trkpt lat="48.46314" lon="2.65156">
        <ele>105</ele>
        <time>2019-09-08T06:26:15Z</time>
      </trkpt>
      <trkpt lat="48.46291" lon="2.65148">
        <ele>106</ele>
        <time>2019-09-08T06:26:25Z</time>
      </trkpt>
      <trkpt lat="48.46284" lon="2.65142">
        <ele>107</ele>
        <time>2019-09-08T06:26:28Z</time>
      </trkpt>
      <trkpt lat="48.46253" lon="2.6512">
        <ele>107</ele>
        <time>2019-09-08T06:26:38Z</time>
      </trkpt>
      <trkpt lat="48.46202" lon="2.65109">
        <ele>107</ele>
        <time>2019-09-08T06:26:49Z</time>
      </trkpt>
      <trkpt lat="48.4615" lon="2.65087">
        <ele>105</ele>
        <time>2019-09-08T06:26:58Z</time>
      </trkpt>
      <trkpt lat="48.46136" lon="2.65086">
        <ele>105</ele>
        <time>2019-09-08T06:27:02Z</time>
      </trkpt>
      <trkpt lat="48.46092" lon="2.65103">
        <ele>104</ele>
        <time>2019-09-08T06:27:16Z</time>
      </trkpt>
      <trkpt lat="48.46063" lon="2.65121">
        <ele>106</ele>
        <time>2019-09-08T06:27:28Z</time>
      </trkpt>
      <trkpt lat="48.46021" lon="2.65132">
        <ele>107</ele>
        <time>2019-09-08T06:27:40Z</time>
      </trkpt>
      <trkpt lat="48.45993" lon="2.65148">
        <ele>112</ele>
        <time>2019-09-08T06:27:53Z</time>
      </trkpt>
      <trkpt lat="48.45961" lon="2.65165">
        <ele>115</ele>
        <time>2019-09-08T06:28:08Z</time>
      </trkpt>
      <trkpt lat="48.45937" lon="2.65173">
        <ele>117</ele>
        <time>2019-09-08T06:28:20Z</time>
      </trkpt>
      <trkpt lat="48.45932" lon="2.65173">
        <ele>117</ele>
        <time>2019-09-08T06:28:23Z</time>
      </trkpt>
      <trkpt lat="48.45905" lon="2.65181">
        <ele>122</ele>
        <time>2019-09-08T06:28:38Z</time>
      </trkpt>
      <trkpt lat="48.459" lon="2.65182">
        <ele>123</ele>
        <time>2019-09-08T06:28:41Z</time>
      </trkpt>
      <trkpt lat="48.45893" lon="2.65185">
        <ele>123</ele>
        <time>2019-09-08T06:28:45Z</time>
      </trkpt>
      <trkpt lat="48.4587" lon="2.65194">
        <ele>125</ele>
        <time>2019-09-08T06:28:59Z</time>
      </trkpt>
      <trkpt lat="48.45845" lon="2.65202">
        <ele>126</ele>
        <time>2019-09-08T06:29:13Z</time>
      </trkpt>
      <trkpt lat="48.45835" lon="2.65204">
        <ele>126</ele>
        <time>2019-09-08T06:29:17Z</time>
      </trkpt>
      <trkpt lat="48.45821" lon="2.6521">
        <ele>130</ele>
        <time>2019-09-08T06:29:23Z</time>
      </trkpt>
      <trkpt lat="48.45801" lon="2.65229">
        <ele>130</ele>
        <time>2019-09-08T06:29:36Z</time>
      </trkpt>
      <trkpt lat="48.45788" lon="2.65255">
        <ele>130</ele>
        <time>2019-09-08T06:29:48Z</time>
      </trkpt>
      <trkpt lat="48.45786" lon="2.65259">
        <ele>130</ele>
        <time>2019-09-08T06:29:51Z</time>
      </trkpt>
      <trkpt lat="48.45779" lon="2.6527">
        <ele>131</ele>
        <time>2019-09-08T06:30:04Z</time>
      </trkpt>
      <trkpt lat="48.4578" lon="2.65274">
        <ele>131</ele>
        <time>2019-09-08T06:30:08Z</time>
      </trkpt>
      <trkpt lat="48.45793" lon="2.65307">
        <ele>131</ele>
        <time>2019-09-08T06:30:21Z</time>
      </trkpt>
      <trkpt lat="48.45806" lon="2.65315">
        <ele>131</ele>
        <time>2019-09-08T06:30:25Z</time>
      </trkpt>
      <trkpt lat="48.45824" lon="2.65319">
        <ele>131</ele>
        <time>2019-09-08T06:30:30Z</time>
      </trkpt>
      <trkpt lat="48.4585" lon="2.65319">
        <ele>129</ele>
        <time>2019-09-08T06:30:37Z</time>
      </trkpt>
      <trkpt lat="48.45858" lon="2.65319">
        <ele>128</ele>
        <time>2019-09-08T06:30:39Z</time>
      </trkpt>
      <trkpt lat="48.45892" lon="2.65319">
        <ele>128</ele>
        <time>2019-09-08T06:30:47Z</time>
      </trkpt>
      <trkpt lat="48.45904" lon="2.65323">
        <ele>128</ele>
        <time>2019-09-08T06:30:50Z</time>
      </trkpt>
      <trkpt lat="48.45934" lon="2.65341">
        <ele>127</ele>
        <time>2019-09-08T06:30:59Z</time>
      </trkpt>
      <trkpt lat="48.45952" lon="2.65367">
        <ele>126</ele>
        <time>2019-09-08T06:31:09Z</time>
      </trkpt>
      <trkpt lat="48.45951" lon="2.65396">
        <ele>127</ele>
        <time>2019-09-08T06:31:16Z</time>
      </trkpt>
      <trkpt lat="48.45937" lon="2.65457">
        <ele>128</ele>
        <time>2019-09-08T06:31:29Z</time>
      </trkpt>
      <trkpt lat="48.45915" lon="2.65514">
        <ele>132</ele>
        <time>2019-09-08T06:31:40Z</time>
      </trkpt>
      <trkpt lat="48.45888" lon="2.65582">
        <ele>131</ele>
        <time>2019-09-08T06:31:52Z</time>
      </trkpt>
      <trkpt lat="48.45864" lon="2.65633">
        <ele>130</ele>
        <time>2019-09-08T06:32:01Z</time>
      </trkpt>
      <trkpt lat="48.45821" lon="2.65709">
        <ele>130</ele>
        <time>2019-09-08T06:32:12Z</time>
      </trkpt>
      <trkpt lat="48.45819" lon="2.65719">
        <ele>130</ele>
        <time>2019-09-08T06:32:13Z</time>
      </trkpt>
      <trkpt lat="48.45754" lon="2.65779">
        <ele>127</ele>
        <time>2019-09-08T06:32:25Z</time>
      </trkpt>
      <trkpt lat="48.45733" lon="2.6579">
        <ele>128</ele>
        <time>2019-09-08T06:32:29Z</time>
      </trkpt>
      <trkpt lat="48.45708" lon="2.65812">
        <ele>129</ele>
        <time>2019-09-08T06:32:34Z</time>
      </trkpt>
      <trkpt lat="48.45696" lon="2.65829">
        <ele>129</ele>
        <time>2019-09-08T06:32:37Z</time>
      </trkpt>
      <trkpt lat="48.45684" lon="2.6585">
        <ele>128</ele>
        <time>2019-09-08T06:32:40Z</time>
      </trkpt>
      <trkpt lat="48.4566" lon="2.65914">
        <ele>132</ele>
        <time>2019-09-08T06:32:51Z</time>
      </trkpt>
      <trkpt lat="48.45652" lon="2.65939">
        <ele>132</ele>
        <time>2019-09-08T06:32:55Z</time>
      </trkpt>
      <trkpt lat="48.45639" lon="2.65987">
        <ele>132</ele>
        <time>2019-09-08T06:33:02Z</time>
      </trkpt>
      <trkpt lat="48.45634" lon="2.66006">
        <ele>131</ele>
        <time>2019-09-08T06:33:05Z</time>
      </trkpt>
      <trkpt lat="48.45627" lon="2.66067">
        <ele>131</ele>
        <time>2019-09-08T06:33:14Z</time>
      </trkpt>
      <trkpt lat="48.45631" lon="2.66142">
        <ele>130</ele>
        <time>2019-09-08T06:33:25Z</time>
      </trkpt>
      <trkpt lat="48.45633" lon="2.66164">
        <ele>130</ele>
        <time>2019-09-08T06:33:28Z</time>
      </trkpt>
      <trkpt lat="48.45642" lon="2.66208">
        <ele>131</ele>
        <time>2019-09-08T06:33:34Z</time>
      </trkpt>
      <trkpt lat="48.45662" lon="2.66286">
        <ele>133</ele>
        <time>2019-09-08T06:33:45Z</time>
      </trkpt>
      <trkpt lat="48.45671" lon="2.66316">
        <ele>128</ele>
        <time>2019-09-08T06:33:49Z</time>
      </trkpt>
      <trkpt lat="48.45678" lon="2.6635">
        <ele>129</ele>
        <time>2019-09-08T06:33:53Z</time>
      </trkpt>
      <trkpt lat="48.45686" lon="2.66426">
        <ele>128</ele>
        <time>2019-09-08T06:34:02Z</time>
      </trkpt>
      <trkpt lat="48.45691" lon="2.66458">
        <ele>127</ele>
        <time>2019-09-08T06:34:06Z</time>
      </trkpt>
      <trkpt lat="48.45694" lon="2.66473">
        <ele>128</ele>
        <time>2019-09-08T06:34:08Z</time>
      </trkpt>
      <trkpt lat="48.45715" lon="2.66537">
        <ele>128</ele>
        <time>2019-09-08T06:34:18Z</time>
      </trkpt>
      <trkpt lat="48.45716" lon="2.66595">
        <ele>128</ele>
        <time>2019-09-08T06:34:28Z</time>
      </trkpt>
      <trkpt lat="48.45697" lon="2.66646">
        <ele>129</ele>
        <time>2019-09-08T06:34:38Z</time>
      </trkpt>
      <trkpt lat="48.45694" lon="2.66652">
        <ele>129</ele>
        <time>2019-09-08T06:34:39Z</time>
      </trkpt>
      <trkpt lat="48.45677" lon="2.66673">
        <ele>128</ele>
        <time>2019-09-08T06:34:45Z</time>
      </trkpt>
      <trkpt lat="48.45656" lon="2.66676">
        <ele>128</ele>
        <time>2019-09-08T06:34:52Z</time>
      </trkpt>
      <trkpt lat="48.45644" lon="2.66666">
        <ele>130</ele>
        <time>2019-09-08T06:35:01Z</time>
      </trkpt>
      <trkpt lat="48.45639" lon="2.66656">
        <ele>130</ele>
        <time>2019-09-08T06:35:06Z</time>
      </trkpt>
      <trkpt lat="48.45608" lon="2.66614">
        <ele>131</ele>
        <time>2019-09-08T06:35:18Z</time>
      </trkpt>
      <trkpt lat="48.45604" lon="2.6661">
        <ele>131</ele>
        <time>2019-09-08T06:35:19Z</time>
      </trkpt>
      <trkpt lat="48.45569" lon="2.66578">
        <ele>133</ele>
        <time>2019-09-08T06:35:28Z</time>
      </trkpt>
      <trkpt lat="48.45532" lon="2.66536">
        <ele>134</ele>
        <time>2019-09-08T06:35:40Z</time>
      </trkpt>
      <trkpt lat="48.45506" lon="2.66491">
        <ele>135</ele>
        <time>2019-09-08T06:35:52Z</time>
      </trkpt>
      <trkpt lat="48.45479" lon="2.66425">
        <ele>135</ele>
        <time>2019-09-08T06:36:05Z</time>
      </trkpt>
      <trkpt lat="48.45447" lon="2.66364">
        <ele>137</ele>
        <time>2019-09-08T06:36:20Z</time>
      </trkpt>
      <trkpt lat="48.45419" lon="2.66297">
        <ele>137</ele>
        <time>2019-09-08T06:36:33Z</time>
      </trkpt>
      <trkpt lat="48.4541" lon="2.66246">
        <ele>136</ele>
        <time>2019-09-08T06:36:42Z</time>
      </trkpt>
      <trkpt lat="48.45392" lon="2.66214">
        <ele>136</ele>
        <time>2019-09-08T06:36:51Z</time>
      </trkpt>
      <trkpt lat="48.45375" lon="2.66219">
        <ele>136</ele>
        <time>2019-09-08T06:36:58Z</time>
      </trkpt>
      <trkpt lat="48.45362" lon="2.66278">
        <ele>136</ele>
        <time>2019-09-08T06:37:11Z</time>
      </trkpt>
      <trkpt lat="48.45358" lon="2.66304">
        <ele>136</ele>
        <time>2019-09-08T06:37:16Z</time>
      </trkpt>
      <trkpt lat="48.45356" lon="2.6635">
        <ele>135</ele>
        <time>2019-09-08T06:37:23Z</time>
      </trkpt>
      <trkpt lat="48.45355" lon="2.66377">
        <ele>135</ele>
        <time>2019-09-08T06:37:27Z</time>
      </trkpt>
      <trkpt lat="48.45362" lon="2.66409">
        <ele>134</ele>
        <time>2019-09-08T06:37:32Z</time>
      </trkpt>
      <trkpt lat="48.45399" lon="2.66487">
        <ele>134</ele>
        <time>2019-09-08T06:37:45Z</time>
      </trkpt>
      <trkpt lat="48.45406" lon="2.66505">
        <ele>134</ele>
        <time>2019-09-08T06:37:48Z</time>
      </trkpt>
      <trkpt lat="48.45407" lon="2.66536">
        <ele>134</ele>
        <time>2019-09-08T06:37:52Z</time>
      </trkpt>
      <trkpt lat="48.45403" lon="2.66558">
        <ele>134</ele>
        <time>2019-09-08T06:37:55Z</time>
      </trkpt>
      <trkpt lat="48.45393" lon="2.66591">
        <ele>135</ele>
        <time>2019-09-08T06:38:00Z</time>
      </trkpt>
      <trkpt lat="48.45394" lon="2.66623">
        <ele>135</ele>
        <time>2019-09-08T06:38:05Z</time>
      </trkpt>
      <trkpt lat="48.454" lon="2.66649">
        <ele>135</ele>
        <time>2019-09-08T06:38:09Z</time>
      </trkpt>
      <trkpt lat="48.45419" lon="2.66688">
        <ele>134</ele>
        <time>2019-09-08T06:38:16Z</time>
      </trkpt>
      <trkpt lat="48.45443" lon="2.66733">
        <ele>133</ele>
        <time>2019-09-08T06:38:23Z</time>
      </trkpt>
      <trkpt lat="48.45454" lon="2.66775">
        <ele>132</ele>
        <time>2019-09-08T06:38:29Z</time>
      </trkpt>
      <trkpt lat="48.45441" lon="2.66817">
        <ele>132</ele>
        <time>2019-09-08T06:38:36Z</time>
      </trkpt>
      <trkpt lat="48.45429" lon="2.66814">
        <ele>133</ele>
        <time>2019-09-08T06:38:39Z</time>
      </trkpt>
      <trkpt lat="48.45394" lon="2.66777">
        <ele>135</ele>
        <time>2019-09-08T06:38:50Z</time>
      </trkpt>
      <trkpt lat="48.45386" lon="2.66772">
        <ele>136</ele>
        <time>2019-09-08T06:38:52Z</time>
      </trkpt>
      <trkpt lat="48.45378" lon="2.66771">
        <ele>136</ele>
        <time>2019-09-08T06:38:54Z</time>
      </trkpt>
      <trkpt lat="48.45363" lon="2.66776">
        <ele>136</ele>
        <time>2019-09-08T06:38:58Z</time>
      </trkpt>
      <trkpt lat="48.4532" lon="2.66815">
        <ele>138</ele>
        <time>2019-09-08T06:39:12Z</time>
      </trkpt>
      <trkpt lat="48.45295" lon="2.6686">
        <ele>138</ele>
        <time>2019-09-08T06:39:22Z</time>
      </trkpt>
      <trkpt lat="48.45294" lon="2.66864">
        <ele>138</ele>
        <time>2019-09-08T06:39:23Z</time>
      </trkpt>
      <trkpt lat="48.4529" lon="2.66882">
        <ele>137</ele>
        <time>2019-09-08T06:39:27Z</time>
      </trkpt>
      <trkpt lat="48.45267" lon="2.6688">
        <ele>138</ele>
        <time>2019-09-08T06:39:36Z</time>
      </trkpt>
      <trkpt lat="48.45264" lon="2.66879">
        <ele>138</ele>
        <time>2019-09-08T06:39:37Z</time>
      </trkpt>
      <trkpt lat="48.45224" lon="2.66851">
        <ele>141</ele>
        <time>2019-09-08T06:39:49Z</time>
      </trkpt>
      <trkpt lat="48.45178" lon="2.66809">
        <ele>142</ele>
        <time>2019-09-08T06:40:02Z</time>
      </trkpt>
      <trkpt lat="48.45134" lon="2.66768">
        <ele>145</ele>
        <time>2019-09-08T06:40:15Z</time>
      </trkpt>
      <trkpt lat="48.45094" lon="2.66727">
        <ele>145</ele>
        <time>2019-09-08T06:40:27Z</time>
      </trkpt>
      <trkpt lat="48.45049" lon="2.66693">
        <ele>147</ele>
        <time>2019-09-08T06:40:39Z</time>
      </trkpt>
      <trkpt lat="48.45021" lon="2.66664">
        <ele>146</ele>
        <time>2019-09-08T06:40:47Z</time>
      </trkpt>
      <trkpt lat="48.45005" lon="2.66648">
        <ele>146</ele>
        <time>2019-09-08T06:40:51Z</time>
      </trkpt>
      <trkpt lat="48.44997" lon="2.66641">
        <ele>148</ele>
        <time>2019-09-08T06:40:53Z</time>
      </trkpt>
      <trkpt lat="48.44989" lon="2.66634">
        <ele>147</ele>
        <time>2019-09-08T06:40:55Z</time>
      </trkpt>
      <trkpt lat="48.44947" lon="2.66594">
        <ele>146</ele>
        <time>2019-09-08T06:41:06Z</time>
      </trkpt>
      <trkpt lat="48.44904" lon="2.66547">
        <ele>145</ele>
        <time>2019-09-08T06:41:19Z</time>
      </trkpt>
      <trkpt lat="48.44865" lon="2.66498">
        <ele>143</ele>
        <time>2019-09-08T06:41:30Z</time>
      </trkpt>
      <trkpt lat="48.44861" lon="2.66493">
        <ele>143</ele>
        <time>2019-09-08T06:41:31Z</time>
      </trkpt>
      <trkpt lat="48.44853" lon="2.66485">
        <ele>143</ele>
        <time>2019-09-08T06:41:33Z</time>
      </trkpt>
      <trkpt lat="48.44844" lon="2.66479">
        <ele>143</ele>
        <time>2019-09-08T06:41:35Z</time>
      </trkpt>
      <trkpt lat="48.44825" lon="2.66466">
        <ele>145</ele>
        <time>2019-09-08T06:41:39Z</time>
      </trkpt>
      <trkpt lat="48.44804" lon="2.66447">
        <ele>145</ele>
        <time>2019-09-08T06:41:44Z</time>
      </trkpt>
      <trkpt lat="48.44792" lon="2.66436">
        <ele>145</ele>
        <time>2019-09-08T06:41:47Z</time>
      </trkpt>
      <trkpt lat="48.44732" lon="2.66389">
        <ele>147</ele>
        <time>2019-09-08T06:42:00Z</time>
      </trkpt>
      <trkpt lat="48.44705" lon="2.66364">
        <ele>146</ele>
        <time>2019-09-08T06:42:07Z</time>
      </trkpt>
      <trkpt lat="48.44658" lon="2.66318">
        <ele>144</ele>
        <time>2019-09-08T06:42:19Z</time>
      </trkpt>
      <trkpt lat="48.44604" lon="2.6626">
        <ele>145</ele>
        <time>2019-09-08T06:42:31Z</time>
      </trkpt>
      <trkpt lat="48.4456" lon="2.6622">
        <ele>144</ele>
        <time>2019-09-08T06:42:41Z</time>
      </trkpt>
      <trkpt lat="48.44544" lon="2.66203">
        <ele>143</ele>
        <time>2019-09-08T06:42:45Z</time>
      </trkpt>
      <trkpt lat="48.44536" lon="2.66194">
        <ele>143</ele>
        <time>2019-09-08T06:42:47Z</time>
      </trkpt>
      <trkpt lat="48.44535" lon="2.66145">
        <ele>141</ele>
        <time>2019-09-08T06:42:54Z</time>
      </trkpt>
      <trkpt lat="48.44569" lon="2.66049">
        <ele>140</ele>
        <time>2019-09-08T06:43:08Z</time>
      </trkpt>
      <trkpt lat="48.44571" lon="2.66042">
        <ele>139</ele>
        <time>2019-09-08T06:43:09Z</time>
      </trkpt>
      <trkpt lat="48.44587" lon="2.66003">
        <ele>139</ele>
        <time>2019-09-08T06:43:15Z</time>
      </trkpt>
      <trkpt lat="48.44607" lon="2.65964">
        <ele>138</ele>
        <time>2019-09-08T06:43:22Z</time>
      </trkpt>
      <trkpt lat="48.44615" lon="2.65946">
        <ele>138</ele>
        <time>2019-09-08T06:43:25Z</time>
      </trkpt>
      <trkpt lat="48.44624" lon="2.65922">
        <ele>138</ele>
        <time>2019-09-08T06:43:29Z</time>
      </trkpt>
      <trkpt lat="48.44657" lon="2.65835">
        <ele>132</ele>
        <time>2019-09-08T06:43:38Z</time>
      </trkpt>
      <trkpt lat="48.44666" lon="2.65794">
        <ele>130</ele>
        <time>2019-09-08T06:43:42Z</time>
      </trkpt>
      <trkpt lat="48.4467" lon="2.65775">
        <ele>129</ele>
        <time>2019-09-08T06:43:44Z</time>
      </trkpt>
      <trkpt lat="48.44675" lon="2.65752">
        <ele>127</ele>
        <time>2019-09-08T06:43:47Z</time>
      </trkpt>
      <trkpt lat="48.44677" lon="2.6573">
        <ele>127</ele>
        <time>2019-09-08T06:43:50Z</time>
      </trkpt>
      <trkpt lat="48.44688" lon="2.65683">
        <ele>126</ele>
        <time>2019-09-08T06:43:56Z</time>
      </trkpt>
      <trkpt lat="48.447" lon="2.65614">
        <ele>126</ele>
        <time>2019-09-08T06:44:04Z</time>
      </trkpt>
      <trkpt lat="48.44714" lon="2.65537">
        <ele>125</ele>
        <time>2019-09-08T06:44:14Z</time>
      </trkpt>
      <trkpt lat="48.44725" lon="2.65482">
        <ele>124</ele>
        <time>2019-09-08T06:44:25Z</time>
      </trkpt>
      <trkpt lat="48.44728" lon="2.65469">
        <ele>124</ele>
        <time>2019-09-08T06:44:30Z</time>
      </trkpt>
      <trkpt lat="48.4472" lon="2.65439">
        <ele>124</ele>
        <time>2019-09-08T06:44:42Z</time>
      </trkpt>
      <trkpt lat="48.447" lon="2.6542">
        <ele>123</ele>
        <time>2019-09-08T06:44:49Z</time>
      </trkpt>
      <trkpt lat="48.44657" lon="2.65379">
        <ele>121</ele>
        <time>2019-09-08T06:45:01Z</time>
      </trkpt>
      <trkpt lat="48.44625" lon="2.65351">
        <ele>121</ele>
        <time>2019-09-08T06:45:13Z</time>
      </trkpt>
      <trkpt lat="48.44599" lon="2.65331">
        <ele>120</ele>
        <time>2019-09-08T06:45:25Z</time>
      </trkpt>
      <trkpt lat="48.4458" lon="2.65316">
        <ele>117</ele>
        <time>2019-09-08T06:45:36Z</time>
      </trkpt>
      <trkpt lat="48.44577" lon="2.65313">
        <ele>116</ele>
        <time>2019-09-08T06:45:46Z</time>
      </trkpt>
      <trkpt lat="48.44577" lon="2.65313">
        <ele>116</ele>
        <time>2019-09-08T06:45:47Z</time>
      </trkpt>
      <trkpt lat="48.44571" lon="2.65314">
        <ele>116</ele>
        <time>2019-09-08T06:45:52Z</time>
      </trkpt>
      <trkpt lat="48.4456" lon="2.65319">
        <ele>116</ele>
        <time>2019-09-08T06:46:04Z</time>
      </trkpt>
      <trkpt lat="48.44552" lon="2.65314">
        <ele>115</ele>
        <time>2019-09-08T06:46:15Z</time>
      </trkpt>
      <trkpt lat="48.44547" lon="2.65311">
        <ele>115</ele>
        <time>2019-09-08T06:46:23Z</time>
      </trkpt>
      <trkpt lat="48.44539" lon="2.65308">
        <ele>115</ele>
        <time>2019-09-08T06:46:26Z</time>
      </trkpt>
      <trkpt lat="48.44532" lon="2.65308">
        <ele>114</ele>
        <time>2019-09-08T06:46:30Z</time>
      </trkpt>
      <trkpt lat="48.44513" lon="2.65312">
        <ele>113</ele>
        <time>2019-09-08T06:46:42Z</time>
      </trkpt>
      <trkpt lat="48.44511" lon="2.65314">
        <ele>113</ele>
        <time>2019-09-08T06:46:44Z</time>
      </trkpt>
      <trkpt lat="48.44499" lon="2.65311">
        <ele>109</ele>
        <time>2019-09-08T06:46:54Z</time>
      </trkpt>
      <trkpt lat="48.44485" lon="2.65297">
        <ele>109</ele>
        <time>2019-09-08T06:47:02Z</time>
      </trkpt>
      <trkpt lat="48.44469" lon="2.65273">
        <ele>108</ele>
        <time>2019-09-08T06:47:12Z</time>
      </trkpt>
      <trkpt lat="48.44444" lon="2.65236">
        <ele>107</ele>
        <time>2019-09-08T06:47:23Z</time>
      </trkpt>
      <trkpt lat="48.44407" lon="2.65204">
        <ele>102</ele>
        <time>2019-09-08T06:47:35Z</time>
      </trkpt>
      <trkpt lat="48.44378" lon="2.65178">
        <ele>101</ele>
        <time>2019-09-08T06:47:46Z</time>
      </trkpt>
      <trkpt lat="48.44339" lon="2.65149">
        <ele>98</ele>
        <time>2019-09-08T06:47:54Z</time>
      </trkpt>
      <trkpt lat="48.44322" lon="2.65167">
        <ele>97</ele>
        <time>2019-09-08T06:48:00Z</time>
      </trkpt>
      <trkpt lat="48.44309" lon="2.65255">
        <ele>98</ele>
        <time>2019-09-08T06:48:16Z</time>
      </trkpt>
      <trkpt lat="48.44291" lon="2.65338">
        <ele>101</ele>
        <time>2019-09-08T06:48:31Z</time>
      </trkpt>
      <trkpt lat="48.44273" lon="2.65405">
        <ele>101</ele>
        <time>2019-09-08T06:48:44Z</time>
      </trkpt>
      <trkpt lat="48.44259" lon="2.65426">
        <ele>102</ele>
        <time>2019-09-08T06:48:48Z</time>
      </trkpt>
      <trkpt lat="48.44246" lon="2.65486">
        <ele>102</ele>
        <time>2019-09-08T06:48:57Z</time>
      </trkpt>
      <trkpt lat="48.44236" lon="2.65532">
        <ele>103</ele>
        <time>2019-09-08T06:49:04Z</time>
      </trkpt>
      <trkpt lat="48.4422" lon="2.65601">
        <ele>105</ele>
        <time>2019-09-08T06:49:16Z</time>
      </trkpt>
      <trkpt lat="48.44209" lon="2.65683">
        <ele>107</ele>
        <time>2019-09-08T06:49:30Z</time>
      </trkpt>
      <trkpt lat="48.44192" lon="2.65767">
        <ele>109</ele>
        <time>2019-09-08T06:49:45Z</time>
      </trkpt>
      <trkpt lat="48.44191" lon="2.65772">
        <ele>109</ele>
        <time>2019-09-08T06:49:46Z</time>
      </trkpt>
      <trkpt lat="48.44178" lon="2.65863">
        <ele>109</ele>
        <time>2019-09-08T06:50:01Z</time>
      </trkpt>
      <trkpt lat="48.44169" lon="2.65927">
        <ele>108</ele>
        <time>2019-09-08T06:50:12Z</time>
      </trkpt>
      <trkpt lat="48.44159" lon="2.65935">
        <ele>109</ele>
        <time>2019-09-08T06:50:16Z</time>
      </trkpt>
      <trkpt lat="48.44123" lon="2.65911">
        <ele>110</ele>
        <time>2019-09-08T06:50:27Z</time>
      </trkpt>
      <trkpt lat="48.44091" lon="2.65868">
        <ele>111</ele>
        <time>2019-09-08T06:50:40Z</time>
      </trkpt>
      <trkpt lat="48.44069" lon="2.65842">
        <ele>115</ele>
        <time>2019-09-08T06:50:50Z</time>
      </trkpt>
      <trkpt lat="48.4404" lon="2.65808">
        <ele>119</ele>
        <time>2019-09-08T06:51:05Z</time>
      </trkpt>
      <trkpt lat="48.44018" lon="2.65779">
        <ele>121</ele>
        <time>2019-09-08T06:51:20Z</time>
      </trkpt>
      <trkpt lat="48.44001" lon="2.65758">
        <ele>123</ele>
        <time>2019-09-08T06:51:33Z</time>
      </trkpt>
      <trkpt lat="48.44" lon="2.65756">
        <ele>124</ele>
        <time>2019-09-08T06:51:34Z</time>
      </trkpt>
      <trkpt lat="48.43992" lon="2.65744">
        <ele>127</ele>
        <time>2019-09-08T06:51:42Z</time>
      </trkpt>
      <trkpt lat="48.43984" lon="2.65736">
        <ele>129</ele>
        <time>2019-09-08T06:51:50Z</time>
      </trkpt>
      <trkpt lat="48.43974" lon="2.65729">
        <ele>130</ele>
        <time>2019-09-08T06:52:02Z</time>
      </trkpt>
      <trkpt lat="48.43963" lon="2.65721">
        <ele>131</ele>
        <time>2019-09-08T06:52:14Z</time>
      </trkpt>
      <trkpt lat="48.43962" lon="2.65721">
        <ele>131</ele>
        <time>2019-09-08T06:52:15Z</time>
      </trkpt>
      <trkpt lat="48.43947" lon="2.65708">
        <ele>132</ele>
        <time>2019-09-08T06:52:29Z</time>
      </trkpt>
      <trkpt lat="48.43945" lon="2.65706">
        <ele>132</ele>
        <time>2019-09-08T06:52:31Z</time>
      </trkpt>
      <trkpt lat="48.43945" lon="2.65712">
        <ele>132</ele>
        <time>2019-09-08T06:52:37Z</time>
      </trkpt>
      <trkpt lat="48.43954" lon="2.65765">
        <ele>130</ele>
        <time>2019-09-08T06:52:48Z</time>
      </trkpt>
      <trkpt lat="48.43958" lon="2.65822">
        <ele>129</ele>
        <time>2019-09-08T06:53:00Z</time>
      </trkpt>
      <trkpt lat="48.43949" lon="2.65884">
        <ele>128</ele>
        <time>2019-09-08T06:53:13Z</time>
      </trkpt>
      <trkpt lat="48.43941" lon="2.65936">
        <ele>126</ele>
        <time>2019-09-08T06:53:24Z</time>
      </trkpt>
      <trkpt lat="48.4392" lon="2.65985">
        <ele>126</ele>
        <time>2019-09-08T06:53:35Z</time>
      </trkpt>
      <trkpt lat="48.43897" lon="2.6598">
        <ele>128</ele>
        <time>2019-09-08T06:53:45Z</time>
      </trkpt>
      <trkpt lat="48.43858" lon="2.65964">
        <ele>129</ele>
        <time>2019-09-08T06:53:59Z</time>
      </trkpt>
      <trkpt lat="48.43817" lon="2.65942">
        <ele>132</ele>
        <time>2019-09-08T06:54:13Z</time>
      </trkpt>
      <trkpt lat="48.43775" lon="2.65913">
        <ele>134</ele>
        <time>2019-09-08T06:54:27Z</time>
      </trkpt>
      <trkpt lat="48.43739" lon="2.65892">
        <ele>135</ele>
        <time>2019-09-08T06:54:40Z</time>
      </trkpt>
      <trkpt lat="48.43705" lon="2.65874">
        <ele>136</ele>
        <time>2019-09-08T06:54:51Z</time>
      </trkpt>
      <trkpt lat="48.43672" lon="2.65854">
        <ele>136</ele>
        <time>2019-09-08T06:55:02Z</time>
      </trkpt>
      <trkpt lat="48.43638" lon="2.65851">
        <ele>137</ele>
        <time>2019-09-08T06:55:14Z</time>
      </trkpt>
      <trkpt lat="48.43631" lon="2.65857">
        <ele>137</ele>
        <time>2019-09-08T06:55:19Z</time>
      </trkpt>
      <trkpt lat="48.43623" lon="2.65862">
        <ele>137</ele>
        <time>2019-09-08T06:55:23Z</time>
      </trkpt>
      <trkpt lat="48.43612" lon="2.65873">
        <ele>137</ele>
        <time>2019-09-08T06:55:29Z</time>
      </trkpt>
      <trkpt lat="48.43625" lon="2.659">
        <ele>137</ele>
        <time>2019-09-08T06:55:39Z</time>
      </trkpt>
      <trkpt lat="48.43634" lon="2.65909">
        <ele>137</ele>
        <time>2019-09-08T06:55:43Z</time>
      </trkpt>
      <trkpt lat="48.43656" lon="2.65929">
        <ele>136</ele>
        <time>2019-09-08T06:55:50Z</time>
      </trkpt>
      <trkpt lat="48.43674" lon="2.65961">
        <ele>135</ele>
        <time>2019-09-08T06:55:58Z</time>
      </trkpt>
      <trkpt lat="48.43668" lon="2.65983">
        <ele>135</ele>
        <time>2019-09-08T06:56:05Z</time>
      </trkpt>
      <trkpt lat="48.43631" lon="2.65998">
        <ele>136</ele>
        <time>2019-09-08T06:56:18Z</time>
      </trkpt>
      <trkpt lat="48.43605" lon="2.66017">
        <ele>137</ele>
        <time>2019-09-08T06:56:29Z</time>
      </trkpt>
      <trkpt lat="48.43569" lon="2.66027">
        <ele>137</ele>
        <time>2019-09-08T06:56:40Z</time>
      </trkpt>
      <trkpt lat="48.43546" lon="2.66032">
        <ele>137</ele>
        <time>2019-09-08T06:56:46Z</time>
      </trkpt>
      <trkpt lat="48.43503" lon="2.66046">
        <ele>137</ele>
        <time>2019-09-08T06:56:57Z</time>
      </trkpt>
      <trkpt lat="48.43476" lon="2.66051">
        <ele>138</ele>
        <time>2019-09-08T06:57:04Z</time>
      </trkpt>
      <trkpt lat="48.43459" lon="2.66054">
        <ele>138</ele>
        <time>2019-09-08T06:57:08Z</time>
      </trkpt>
      <trkpt lat="48.43404" lon="2.66068">
        <ele>140</ele>
        <time>2019-09-08T06:57:20Z</time>
      </trkpt>
      <trkpt lat="48.43354" lon="2.66075">
        <ele>141</ele>
        <time>2019-09-08T06:57:32Z</time>
      </trkpt>
      <trkpt lat="48.43311" lon="2.66087">
        <ele>144</ele>
        <time>2019-09-08T06:57:42Z</time>
      </trkpt>
      <trkpt lat="48.43293" lon="2.6609">
        <ele>145</ele>
        <time>2019-09-08T06:57:45Z</time>
      </trkpt>
      <trkpt lat="48.43263" lon="2.66098">
        <ele>145</ele>
        <time>2019-09-08T06:57:50Z</time>
      </trkpt>
      <trkpt lat="48.43258" lon="2.661">
        <ele>145</ele>
        <time>2019-09-08T06:57:51Z</time>
      </trkpt>
      <trkpt lat="48.43253" lon="2.66102">
        <ele>146</ele>
        <time>2019-09-08T06:57:52Z</time>
      </trkpt>
      <trkpt lat="48.43199" lon="2.66114">
        <ele>147</ele>
        <time>2019-09-08T06:58:04Z</time>
      </trkpt>
      <trkpt lat="48.43154" lon="2.66121">
        <ele>146</ele>
        <time>2019-09-08T06:58:12Z</time>
      </trkpt>
      <trkpt lat="48.43147" lon="2.66122">
        <ele>146</ele>
        <time>2019-09-08T06:58:13Z</time>
      </trkpt>
      <trkpt lat="48.43142" lon="2.66124">
        <ele>146</ele>
        <time>2019-09-08T06:58:14Z</time>
      </trkpt>
      <trkpt lat="48.43137" lon="2.66126">
        <ele>146</ele>
        <time>2019-09-08T06:58:15Z</time>
      </trkpt>
      <trkpt lat="48.43133" lon="2.66129">
        <ele>146</ele>
        <time>2019-09-08T06:58:16Z</time>
      </trkpt>
      <trkpt lat="48.43129" lon="2.66131">
        <ele>145</ele>
        <time>2019-09-08T06:58:17Z</time>
      </trkpt>
      <trkpt lat="48.43124" lon="2.66132">
        <ele>145</ele>
        <time>2019-09-08T06:58:18Z</time>
      </trkpt>
      <trkpt lat="48.43119" lon="2.66132">
        <ele>145</ele>
        <time>2019-09-08T06:58:19Z</time>
      </trkpt>
      <trkpt lat="48.43091" lon="2.6614">
        <ele>144</ele>
        <time>2019-09-08T06:58:26Z</time>
      </trkpt>
      <trkpt lat="48.43085" lon="2.66138">
        <ele>144</ele>
        <time>2019-09-08T06:58:27Z</time>
      </trkpt>
      <trkpt lat="48.43067" lon="2.66105">
        <ele>142</ele>
        <time>2019-09-08T06:58:34Z</time>
      </trkpt>
      <trkpt lat="48.43067" lon="2.66104">
        <ele>142</ele>
        <time>2019-09-08T06:58:38Z</time>
      </trkpt>
      <trkpt lat="48.43059" lon="2.66083">
        <ele>142</ele>
        <time>2019-09-08T06:58:44Z</time>
      </trkpt>
      <trkpt lat="48.43067" lon="2.66059">
        <ele>142</ele>
        <time>2019-09-08T06:58:49Z</time>
      </trkpt>
      <trkpt lat="48.4309" lon="2.66">
        <ele>142</ele>
        <time>2019-09-08T06:59:02Z</time>
      </trkpt>
      <trkpt lat="48.43116" lon="2.65928">
        <ele>141</ele>
        <time>2019-09-08T06:59:14Z</time>
      </trkpt>
      <trkpt lat="48.43118" lon="2.65922">
        <ele>141</ele>
        <time>2019-09-08T06:59:15Z</time>
      </trkpt>
      <trkpt lat="48.4312" lon="2.65917">
        <ele>141</ele>
        <time>2019-09-08T06:59:16Z</time>
      </trkpt>
      <trkpt lat="48.43121" lon="2.65913">
        <ele>139</ele>
        <time>2019-09-08T06:59:17Z</time>
      </trkpt>
      <trkpt lat="48.43115" lon="2.6591">
        <ele>139</ele>
        <time>2019-09-08T06:59:21Z</time>
      </trkpt>
      <trkpt lat="48.43078" lon="2.65887">
        <ele>139</ele>
        <time>2019-09-08T06:59:31Z</time>
      </trkpt>
      <trkpt lat="48.43027" lon="2.65864">
        <ele>138</ele>
        <time>2019-09-08T06:59:42Z</time>
      </trkpt>
      <trkpt lat="48.43" lon="2.65877">
        <ele>138</ele>
        <time>2019-09-08T06:59:50Z</time>
      </trkpt>
      <trkpt lat="48.42973" lon="2.65913">
        <ele>139</ele>
        <time>2019-09-08T07:00:02Z</time>
      </trkpt>
      <trkpt lat="48.4294" lon="2.65935">
        <ele>140</ele>
        <time>2019-09-08T07:00:12Z</time>
      </trkpt>
      <trkpt lat="48.42905" lon="2.65952">
        <ele>140</ele>
        <time>2019-09-08T07:00:22Z</time>
      </trkpt>
      <trkpt lat="48.42865" lon="2.65967">
        <ele>141</ele>
        <time>2019-09-08T07:00:34Z</time>
      </trkpt>
      <trkpt lat="48.42862" lon="2.65966">
        <ele>141</ele>
        <time>2019-09-08T07:00:35Z</time>
      </trkpt>
      <trkpt lat="48.42845" lon="2.65956">
        <ele>142</ele>
        <time>2019-09-08T07:00:47Z</time>
      </trkpt>
      <trkpt lat="48.42808" lon="2.65953">
        <ele>144</ele>
        <time>2019-09-08T07:01:03Z</time>
      </trkpt>
      <trkpt lat="48.42808" lon="2.65949">
        <ele>144</ele>
        <time>2019-09-08T07:01:17Z</time>
      </trkpt>
      <trkpt lat="48.42807" lon="2.65948">
        <ele>144</ele>
        <time>2019-09-08T07:01:33Z</time>
      </trkpt>
      <trkpt lat="48.42803" lon="2.65951">
        <ele>145</ele>
        <time>2019-09-08T07:01:47Z</time>
      </trkpt>
      <trkpt lat="48.428" lon="2.6595">
        <ele>145</ele>
        <time>2019-09-08T07:02:06Z</time>
      </trkpt>
      <trkpt lat="48.42801" lon="2.6595">
        <ele>145</ele>
        <time>2019-09-08T07:02:30Z</time>
      </trkpt>
      <trkpt lat="48.42801" lon="2.65949">
        <ele>145</ele>
        <time>2019-09-08T07:03:14Z</time>
      </trkpt>
      <trkpt lat="48.42801" lon="2.65949">
        <ele>145</ele>
        <time>2019-09-08T07:03:49Z</time>
      </trkpt>
      <trkpt lat="48.42801" lon="2.65949">
        <ele>145</ele>
        <time>2019-09-08T07:04:20Z</time>
      </trkpt>
      <trkpt lat="48.42801" lon="2.65949">
        <ele>145</ele>
        <time>2019-09-08T07:04:50Z</time>
      </trkpt>
      <trkpt lat="48.42801" lon="2.65949">
        <ele>145</ele>
        <time>2019-09-08T07:05:26Z</time>
      </trkpt>
      <trkpt lat="48.42801" lon="2.65949">
        <ele>145</ele>
        <time>2019-09-08T07:06:08Z</time>
      </trkpt>
      <trkpt lat="48.42801" lon="2.65949">
        <ele>145</ele>
        <time>2019-09-08T07:06:44Z</time>
      </trkpt>
      <trkpt lat="48.42802" lon="2.65951">
        <ele>145</ele>
        <time>2019-09-08T07:07:03Z</time>
      </trkpt>
      <trkpt lat="48.42802" lon="2.6595">
        <ele>145</ele>
        <time>2019-09-08T07:07:21Z</time>
      </trkpt>
      <trkpt lat="48.42802" lon="2.65949">
        <ele>145</ele>
        <time>2019-09-08T07:07:38Z</time>
      </trkpt>
      <trkpt lat="48.42807" lon="2.65946">
        <ele>144</ele>
        <time>2019-09-08T07:07:50Z</time>
      </trkpt>
      <trkpt lat="48.42808" lon="2.65941">
        <ele>144</ele>
        <time>2019-09-08T07:07:53Z</time>
      </trkpt>
      <trkpt lat="48.42807" lon="2.65938">
        <ele>144</ele>
        <time>2019-09-08T07:07:55Z</time>
      </trkpt>
      <trkpt lat="48.42803" lon="2.65936">
        <ele>144</ele>
        <time>2019-09-08T07:07:58Z</time>
      </trkpt>
      <trkpt lat="48.42799" lon="2.65904">
        <ele>144</ele>
        <time>2019-09-08T07:08:08Z</time>
      </trkpt>
      <trkpt lat="48.42795" lon="2.65893">
        <ele>144</ele>
        <time>2019-09-08T07:08:11Z</time>
      </trkpt>
      <trkpt lat="48.42792" lon="2.65834">
        <ele>144</ele>
        <time>2019-09-08T07:08:23Z</time>
      </trkpt>
      <trkpt lat="48.42788" lon="2.65772">
        <ele>142</ele>
        <time>2019-09-08T07:08:32Z</time>
      </trkpt>
      <trkpt lat="48.4278" lon="2.65709">
        <ele>142</ele>
        <time>2019-09-08T07:08:43Z</time>
      </trkpt>
      <trkpt lat="48.42759" lon="2.65632">
        <ele>141</ele>
        <time>2019-09-08T07:08:55Z</time>
      </trkpt>
      <trkpt lat="48.42747" lon="2.65574">
        <ele>141</ele>
        <time>2019-09-08T07:09:04Z</time>
      </trkpt>
      <trkpt lat="48.42744" lon="2.65554">
        <ele>141</ele>
        <time>2019-09-08T07:09:08Z</time>
      </trkpt>
      <trkpt lat="48.42737" lon="2.65501">
        <ele>141</ele>
        <time>2019-09-08T07:09:15Z</time>
      </trkpt>
      <trkpt lat="48.42735" lon="2.65483">
        <ele>141</ele>
        <time>2019-09-08T07:09:17Z</time>
      </trkpt>
      <trkpt lat="48.42733" lon="2.65464">
        <ele>141</ele>
        <time>2019-09-08T07:09:19Z</time>
      </trkpt>
      <trkpt lat="48.42728" lon="2.65371">
        <ele>142</ele>
        <time>2019-09-08T07:09:31Z</time>
      </trkpt>
      <trkpt lat="48.42726" lon="2.65331">
        <ele>141</ele>
        <time>2019-09-08T07:09:37Z</time>
      </trkpt>
      <trkpt lat="48.42723" lon="2.65268">
        <ele>140</ele>
        <time>2019-09-08T07:09:47Z</time>
      </trkpt>
      <trkpt lat="48.42727" lon="2.65248">
        <ele>138</ele>
        <time>2019-09-08T07:09:50Z</time>
      </trkpt>
      <trkpt lat="48.42728" lon="2.65221">
        <ele>138</ele>
        <time>2019-09-08T07:09:53Z</time>
      </trkpt>
      <trkpt lat="48.42724" lon="2.65185">
        <ele>137</ele>
        <time>2019-09-08T07:09:56Z</time>
      </trkpt>
      <trkpt lat="48.42702" lon="2.65102">
        <ele>134</ele>
        <time>2019-09-08T07:10:04Z</time>
      </trkpt>
      <trkpt lat="48.42673" lon="2.65049">
        <ele>132</ele>
        <time>2019-09-08T07:10:11Z</time>
      </trkpt>
      <trkpt lat="48.42657" lon="2.65005">
        <ele>132</ele>
        <time>2019-09-08T07:10:16Z</time>
      </trkpt>
      <trkpt lat="48.42649" lon="2.64979">
        <ele>131</ele>
        <time>2019-09-08T07:10:19Z</time>
      </trkpt>
      <trkpt lat="48.4261" lon="2.64879">
        <ele>131</ele>
        <time>2019-09-08T07:10:30Z</time>
      </trkpt>
      <trkpt lat="48.42594" lon="2.64832">
        <ele>131</ele>
        <time>2019-09-08T07:10:35Z</time>
      </trkpt>
      <trkpt lat="48.42583" lon="2.64802">
        <ele>131</ele>
        <time>2019-09-08T07:10:39Z</time>
      </trkpt>
      <trkpt lat="48.42572" lon="2.64739">
        <ele>127</ele>
        <time>2019-09-08T07:10:48Z</time>
      </trkpt>
      <trkpt lat="48.42576" lon="2.64662">
        <ele>126</ele>
        <time>2019-09-08T07:11:01Z</time>
      </trkpt>
      <trkpt lat="48.42581" lon="2.64609">
        <ele>126</ele>
        <time>2019-09-08T07:11:14Z</time>
      </trkpt>
      <trkpt lat="48.42586" lon="2.6456">
        <ele>131</ele>
        <time>2019-09-08T07:11:28Z</time>
      </trkpt>
      <trkpt lat="48.42585" lon="2.64532">
        <ele>132</ele>
        <time>2019-09-08T07:11:38Z</time>
      </trkpt>
      <trkpt lat="48.42588" lon="2.64493">
        <ele>133</ele>
        <time>2019-09-08T07:11:50Z</time>
      </trkpt>
      <trkpt lat="48.42596" lon="2.64431">
        <ele>135</ele>
        <time>2019-09-08T07:12:02Z</time>
      </trkpt>
      <trkpt lat="48.42603" lon="2.6436">
        <ele>138</ele>
        <time>2019-09-08T07:12:14Z</time>
      </trkpt>
      <trkpt lat="48.42621" lon="2.64286">
        <ele>139</ele>
        <time>2019-09-08T07:12:26Z</time>
      </trkpt>
      <trkpt lat="48.42633" lon="2.6421">
        <ele>140</ele>
        <time>2019-09-08T07:12:38Z</time>
      </trkpt>
      <trkpt lat="48.42639" lon="2.64151">
        <ele>140</ele>
        <time>2019-09-08T07:12:47Z</time>
      </trkpt>
      <trkpt lat="48.42642" lon="2.64086">
        <ele>140</ele>
        <time>2019-09-08T07:12:57Z</time>
      </trkpt>
      <trkpt lat="48.42649" lon="2.63996">
        <ele>138</ele>
        <time>2019-09-08T07:13:11Z</time>
      </trkpt>
      <trkpt lat="48.42661" lon="2.63905">
        <ele>139</ele>
        <time>2019-09-08T07:13:25Z</time>
      </trkpt>
      <trkpt lat="48.42673" lon="2.63801">
        <ele>144</ele>
        <time>2019-09-08T07:13:39Z</time>
      </trkpt>
      <trkpt lat="48.42686" lon="2.63721">
        <ele>144</ele>
        <time>2019-09-08T07:13:49Z</time>
      </trkpt>
      <trkpt lat="48.42701" lon="2.63631">
        <ele>144</ele>
        <time>2019-09-08T07:14:01Z</time>
      </trkpt>
      <trkpt lat="48.42707" lon="2.63593">
        <ele>144</ele>
        <time>2019-09-08T07:14:06Z</time>
      </trkpt>
      <trkpt lat="48.42712" lon="2.63564">
        <ele>144</ele>
        <time>2019-09-08T07:14:10Z</time>
      </trkpt>
      <trkpt lat="48.42715" lon="2.63532">
        <ele>144</ele>
        <time>2019-09-08T07:14:15Z</time>
      </trkpt>
      <trkpt lat="48.42723" lon="2.63443">
        <ele>143</ele>
        <time>2019-09-08T07:14:28Z</time>
      </trkpt>
      <trkpt lat="48.42732" lon="2.63366">
        <ele>143</ele>
        <time>2019-09-08T07:14:40Z</time>
      </trkpt>
      <trkpt lat="48.42738" lon="2.63283">
        <ele>142</ele>
        <time>2019-09-08T07:14:52Z</time>
      </trkpt>
      <trkpt lat="48.42745" lon="2.63212">
        <ele>141</ele>
        <time>2019-09-08T07:15:04Z</time>
      </trkpt>
      <trkpt lat="48.42753" lon="2.63136">
        <ele>143</ele>
        <time>2019-09-08T07:15:17Z</time>
      </trkpt>
      <trkpt lat="48.42757" lon="2.63067">
        <ele>142</ele>
        <time>2019-09-08T07:15:29Z</time>
      </trkpt>
      <trkpt lat="48.42758" lon="2.63014">
        <ele>142</ele>
        <time>2019-09-08T07:15:38Z</time>
      </trkpt>
      <trkpt lat="48.42756" lon="2.63002">
        <ele>141</ele>
        <time>2019-09-08T07:15:42Z</time>
      </trkpt>
      <trkpt lat="48.42746" lon="2.63003">
        <ele>141</ele>
        <time>2019-09-08T07:15:45Z</time>
      </trkpt>
      <trkpt lat="48.42713" lon="2.63013">
        <ele>140</ele>
        <time>2019-09-08T07:15:56Z</time>
      </trkpt>
      <trkpt lat="48.42673" lon="2.63023">
        <ele>140</ele>
        <time>2019-09-08T07:16:06Z</time>
      </trkpt>
      <trkpt lat="48.42658" lon="2.63024">
        <ele>138</ele>
        <time>2019-09-08T07:16:10Z</time>
      </trkpt>
      <trkpt lat="48.42636" lon="2.63033">
        <ele>138</ele>
        <time>2019-09-08T07:16:16Z</time>
      </trkpt>
      <trkpt lat="48.42591" lon="2.63032">
        <ele>137</ele>
        <time>2019-09-08T07:16:29Z</time>
      </trkpt>
      <trkpt lat="48.42553" lon="2.63033">
        <ele>134</ele>
        <time>2019-09-08T07:16:39Z</time>
      </trkpt>
      <trkpt lat="48.42424" lon="2.63029">
        <ele>124</ele>
        <time>2019-09-08T07:16:44Z</time>
      </trkpt>
      <trkpt lat="48.4233" lon="2.63052">
        <ele>110</ele>
        <time>2019-09-08T07:16:53Z</time>
      </trkpt>
      <trkpt lat="48.42252" lon="2.63066">
        <ele>108</ele>
        <time>2019-09-08T07:17:03Z</time>
      </trkpt>
      <trkpt lat="48.42238" lon="2.63074">
        <ele>107</ele>
        <time>2019-09-08T07:17:07Z</time>
      </trkpt>
      <trkpt lat="48.42234" lon="2.63111">
        <ele>107</ele>
        <time>2019-09-08T07:17:22Z</time>
      </trkpt>
      <trkpt lat="48.42242" lon="2.63166">
        <ele>106</ele>
        <time>2019-09-08T07:17:33Z</time>
      </trkpt>
      <trkpt lat="48.42249" lon="2.63186">
        <ele>107</ele>
        <time>2019-09-08T07:17:37Z</time>
      </trkpt>
      <trkpt lat="48.42255" lon="2.63225">
        <ele>108</ele>
        <time>2019-09-08T07:17:46Z</time>
      </trkpt>
      <trkpt lat="48.42259" lon="2.63264">
        <ele>109</ele>
        <time>2019-09-08T07:17:57Z</time>
      </trkpt>
      <trkpt lat="48.42273" lon="2.63322">
        <ele>109</ele>
        <time>2019-09-08T07:18:07Z</time>
      </trkpt>
      <trkpt lat="48.42285" lon="2.63395">
        <ele>111</ele>
        <time>2019-09-08T07:18:18Z</time>
      </trkpt>
      <trkpt lat="48.42292" lon="2.63467">
        <ele>113</ele>
        <time>2019-09-08T07:18:29Z</time>
      </trkpt>
      <trkpt lat="48.42308" lon="2.63563">
        <ele>113</ele>
        <time>2019-09-08T07:18:44Z</time>
      </trkpt>
      <trkpt lat="48.42302" lon="2.63621">
        <ele>113</ele>
        <time>2019-09-08T07:18:56Z</time>
      </trkpt>
      <trkpt lat="48.42299" lon="2.63637">
        <ele>113</ele>
        <time>2019-09-08T07:19:06Z</time>
      </trkpt>
      <trkpt lat="48.423" lon="2.63645">
        <ele>113</ele>
        <time>2019-09-08T07:19:10Z</time>
      </trkpt>
      <trkpt lat="48.42299" lon="2.63652">
        <ele>113</ele>
        <time>2019-09-08T07:19:13Z</time>
      </trkpt>
      <trkpt lat="48.42303" lon="2.63701">
        <ele>113</ele>
        <time>2019-09-08T07:19:25Z</time>
      </trkpt>
      <trkpt lat="48.42313" lon="2.63765">
        <ele>113</ele>
        <time>2019-09-08T07:19:36Z</time>
      </trkpt>
      <trkpt lat="48.42321" lon="2.63793">
        <ele>113</ele>
        <time>2019-09-08T07:19:41Z</time>
      </trkpt>
      <trkpt lat="48.42333" lon="2.63858">
        <ele>114</ele>
        <time>2019-09-08T07:19:52Z</time>
      </trkpt>
      <trkpt lat="48.42344" lon="2.63921">
        <ele>115</ele>
        <time>2019-09-08T07:20:03Z</time>
      </trkpt>
      <trkpt lat="48.42355" lon="2.63991">
        <ele>115</ele>
        <time>2019-09-08T07:20:15Z</time>
      </trkpt>
      <trkpt lat="48.42368" lon="2.64049">
        <ele>116</ele>
        <time>2019-09-08T07:20:26Z</time>
      </trkpt>
      <trkpt lat="48.42381" lon="2.64115">
        <ele>116</ele>
        <time>2019-09-08T07:20:37Z</time>
      </trkpt>
      <trkpt lat="48.4238" lon="2.64122">
        <ele>116</ele>
        <time>2019-09-08T07:20:40Z</time>
      </trkpt>
      <trkpt lat="48.42381" lon="2.64142">
        <ele>116</ele>
        <time>2019-09-08T07:20:44Z</time>
      </trkpt>
      <trkpt lat="48.42386" lon="2.64169">
        <ele>117</ele>
        <time>2019-09-08T07:20:53Z</time>
      </trkpt>
      <trkpt lat="48.42401" lon="2.64224">
        <ele>118</ele>
        <time>2019-09-08T07:21:05Z</time>
      </trkpt>
      <trkpt lat="48.42407" lon="2.64285">
        <ele>118</ele>
        <time>2019-09-08T07:21:17Z</time>
      </trkpt>
      <trkpt lat="48.42415" lon="2.64351">
        <ele>118</ele>
        <time>2019-09-08T07:21:28Z</time>
      </trkpt>
      <trkpt lat="48.42416" lon="2.64356">
        <ele>118</ele>
        <time>2019-09-08T07:21:29Z</time>
      </trkpt>
      <trkpt lat="48.42425" lon="2.64395">
        <ele>119</ele>
        <time>2019-09-08T07:21:35Z</time>
      </trkpt>
      <trkpt lat="48.42396" lon="2.64424">
        <ele>121</ele>
        <time>2019-09-08T07:21:46Z</time>
      </trkpt>
      <trkpt lat="48.42358" lon="2.64432">
        <ele>124</ele>
        <time>2019-09-08T07:21:57Z</time>
      </trkpt>
      <trkpt lat="48.4233" lon="2.64443">
        <ele>128</ele>
        <time>2019-09-08T07:22:10Z</time>
      </trkpt>
      <trkpt lat="48.42309" lon="2.64469">
        <ele>130</ele>
        <time>2019-09-08T07:22:22Z</time>
      </trkpt>
      <trkpt lat="48.42301" lon="2.64476">
        <ele>130</ele>
        <time>2019-09-08T07:22:25Z</time>
      </trkpt>
      <trkpt lat="48.42285" lon="2.64517">
        <ele>134</ele>
        <time>2019-09-08T07:22:39Z</time>
      </trkpt>
      <trkpt lat="48.42281" lon="2.64529">
        <ele>135</ele>
        <time>2019-09-08T07:22:45Z</time>
      </trkpt>
      <trkpt lat="48.42256" lon="2.64572">
        <ele>136</ele>
        <time>2019-09-08T07:23:01Z</time>
      </trkpt>
      <trkpt lat="48.4223" lon="2.64615">
        <ele>138</ele>
        <time>2019-09-08T07:23:14Z</time>
      </trkpt>
      <trkpt lat="48.42219" lon="2.64665">
        <ele>139</ele>
        <time>2019-09-08T07:23:25Z</time>
      </trkpt>
      <trkpt lat="48.42202" lon="2.64723">
        <ele>140</ele>
        <time>2019-09-08T07:23:37Z</time>
      </trkpt>
      <trkpt lat="48.4219" lon="2.64798">
        <ele>140</ele>
        <time>2019-09-08T07:23:51Z</time>
      </trkpt>
      <trkpt lat="48.42181" lon="2.64871">
        <ele>140</ele>
        <time>2019-09-08T07:24:04Z</time>
      </trkpt>
      <trkpt lat="48.42172" lon="2.64898">
        <ele>140</ele>
        <time>2019-09-08T07:24:10Z</time>
      </trkpt>
      <trkpt lat="48.42169" lon="2.64898">
        <ele>140</ele>
        <time>2019-09-08T07:24:12Z</time>
      </trkpt>
      <trkpt lat="48.42132" lon="2.64868">
        <ele>140</ele>
        <time>2019-09-08T07:24:23Z</time>
      </trkpt>
      <trkpt lat="48.42119" lon="2.64851">
        <ele>140</ele>
        <time>2019-09-08T07:24:27Z</time>
      </trkpt>
      <trkpt lat="48.42095" lon="2.64795">
        <ele>140</ele>
        <time>2019-09-08T07:24:37Z</time>
      </trkpt>
      <trkpt lat="48.42077" lon="2.64751">
        <ele>140</ele>
        <time>2019-09-08T07:24:48Z</time>
      </trkpt>
      <trkpt lat="48.42066" lon="2.64699">
        <ele>141</ele>
        <time>2019-09-08T07:24:58Z</time>
      </trkpt>
      <trkpt lat="48.42066" lon="2.64621">
        <ele>142</ele>
        <time>2019-09-08T07:25:10Z</time>
      </trkpt>
      <trkpt lat="48.42066" lon="2.64544">
        <ele>142</ele>
        <time>2019-09-08T07:25:20Z</time>
      </trkpt>
      <trkpt lat="48.42063" lon="2.64482">
        <ele>142</ele>
        <time>2019-09-08T07:25:29Z</time>
      </trkpt>
      <trkpt lat="48.4206" lon="2.64441">
        <ele>142</ele>
        <time>2019-09-08T07:25:35Z</time>
      </trkpt>
      <trkpt lat="48.42053" lon="2.64361">
        <ele>141</ele>
        <time>2019-09-08T07:25:46Z</time>
      </trkpt>
      <trkpt lat="48.42048" lon="2.64289">
        <ele>140</ele>
        <time>2019-09-08T07:25:57Z</time>
      </trkpt>
      <trkpt lat="48.42034" lon="2.64223">
        <ele>139</ele>
        <time>2019-09-08T07:26:08Z</time>
      </trkpt>
      <trkpt lat="48.42028" lon="2.64169">
        <ele>138</ele>
        <time>2019-09-08T07:26:15Z</time>
      </trkpt>
      <trkpt lat="48.42027" lon="2.64135">
        <ele>139</ele>
        <time>2019-09-08T07:26:19Z</time>
      </trkpt>
      <trkpt lat="48.42023" lon="2.64007">
        <ele>141</ele>
        <time>2019-09-08T07:26:37Z</time>
      </trkpt>
      <trkpt lat="48.42021" lon="2.63943">
        <ele>140</ele>
        <time>2019-09-08T07:26:46Z</time>
      </trkpt>
      <trkpt lat="48.42021" lon="2.63913">
        <ele>140</ele>
        <time>2019-09-08T07:26:50Z</time>
      </trkpt>
      <trkpt lat="48.4202" lon="2.63872">
        <ele>140</ele>
        <time>2019-09-08T07:26:55Z</time>
      </trkpt>
      <trkpt lat="48.42017" lon="2.63845">
        <ele>141</ele>
        <time>2019-09-08T07:26:59Z</time>
      </trkpt>
      <trkpt lat="48.42013" lon="2.63819">
        <ele>140</ele>
        <time>2019-09-08T07:27:03Z</time>
      </trkpt>
      <trkpt lat="48.41999" lon="2.63742">
        <ele>140</ele>
        <time>2019-09-08T07:27:15Z</time>
      </trkpt>
      <trkpt lat="48.41991" lon="2.63729">
        <ele>140</ele>
        <time>2019-09-08T07:27:18Z</time>
      </trkpt>
      <trkpt lat="48.41957" lon="2.6368">
        <ele>140</ele>
        <time>2019-09-08T07:27:30Z</time>
      </trkpt>
      <trkpt lat="48.41937" lon="2.63651">
        <ele>139</ele>
        <time>2019-09-08T07:27:37Z</time>
      </trkpt>
      <trkpt lat="48.41898" lon="2.63589">
        <ele>140</ele>
        <time>2019-09-08T07:27:51Z</time>
      </trkpt>
      <trkpt lat="48.41855" lon="2.63527">
        <ele>139</ele>
        <time>2019-09-08T07:28:04Z</time>
      </trkpt>
      <trkpt lat="48.41836" lon="2.635">
        <ele>140</ele>
        <time>2019-09-08T07:28:10Z</time>
      </trkpt>
      <trkpt lat="48.41822" lon="2.63483">
        <ele>140</ele>
        <time>2019-09-08T07:28:14Z</time>
      </trkpt>
      <trkpt lat="48.41794" lon="2.63444">
        <ele>140</ele>
        <time>2019-09-08T07:28:22Z</time>
      </trkpt>
      <trkpt lat="48.4175" lon="2.63384">
        <ele>140</ele>
        <time>2019-09-08T07:28:35Z</time>
      </trkpt>
      <trkpt lat="48.41743" lon="2.63374">
        <ele>140</ele>
        <time>2019-09-08T07:28:37Z</time>
      </trkpt>
      <trkpt lat="48.41725" lon="2.63348">
        <ele>139</ele>
        <time>2019-09-08T07:28:42Z</time>
      </trkpt>
      <trkpt lat="48.41718" lon="2.63337">
        <ele>139</ele>
        <time>2019-09-08T07:28:44Z</time>
      </trkpt>
      <trkpt lat="48.41688" lon="2.63295">
        <ele>137</ele>
        <time>2019-09-08T07:28:52Z</time>
      </trkpt>
      <trkpt lat="48.41669" lon="2.63267">
        <ele>138</ele>
        <time>2019-09-08T07:28:57Z</time>
      </trkpt>
      <trkpt lat="48.41644" lon="2.63234">
        <ele>136</ele>
        <time>2019-09-08T07:29:03Z</time>
      </trkpt>
      <trkpt lat="48.41637" lon="2.63222">
        <ele>136</ele>
        <time>2019-09-08T07:29:05Z</time>
      </trkpt>
      <trkpt lat="48.41626" lon="2.63207">
        <ele>135</ele>
        <time>2019-09-08T07:29:08Z</time>
      </trkpt>
      <trkpt lat="48.4163" lon="2.63177">
        <ele>135</ele>
        <time>2019-09-08T07:29:15Z</time>
      </trkpt>
      <trkpt lat="48.41638" lon="2.63171">
        <ele>135</ele>
        <time>2019-09-08T07:29:18Z</time>
      </trkpt>
      <trkpt lat="48.41679" lon="2.63159">
        <ele>136</ele>
        <time>2019-09-08T07:29:30Z</time>
      </trkpt>
      <trkpt lat="48.41725" lon="2.63146">
        <ele>135</ele>
        <time>2019-09-08T07:29:42Z</time>
      </trkpt>
      <trkpt lat="48.41758" lon="2.6314">
        <ele>135</ele>
        <time>2019-09-08T07:29:50Z</time>
      </trkpt>
      <trkpt lat="48.41785" lon="2.63135">
        <ele>135</ele>
        <time>2019-09-08T07:29:56Z</time>
      </trkpt>
      <trkpt lat="48.41808" lon="2.63128">
        <ele>135</ele>
        <time>2019-09-08T07:30:01Z</time>
      </trkpt>
      <trkpt lat="48.41869" lon="2.63112">
        <ele>133</ele>
        <time>2019-09-08T07:30:13Z</time>
      </trkpt>
      <trkpt lat="48.41892" lon="2.63108">
        <ele>132</ele>
        <time>2019-09-08T07:30:17Z</time>
      </trkpt>
      <trkpt lat="48.41979" lon="2.63092">
        <ele>124</ele>
        <time>2019-09-08T07:30:30Z</time>
      </trkpt>
      <trkpt lat="48.42009" lon="2.63087">
        <ele>119</ele>
        <time>2019-09-08T07:30:34Z</time>
      </trkpt>
      <trkpt lat="48.42033" lon="2.63079">
        <ele>115</ele>
        <time>2019-09-08T07:30:39Z</time>
      </trkpt>
      <trkpt lat="48.4204" lon="2.63051">
        <ele>114</ele>
        <time>2019-09-08T07:30:44Z</time>
      </trkpt>
      <trkpt lat="48.42039" lon="2.6301">
        <ele>114</ele>
        <time>2019-09-08T07:30:51Z</time>
      </trkpt>
      <trkpt lat="48.42043" lon="2.62945">
        <ele>110</ele>
        <time>2019-09-08T07:31:00Z</time>
      </trkpt>
      <trkpt lat="48.42031" lon="2.62921">
        <ele>111</ele>
        <time>2019-09-08T07:31:07Z</time>
      </trkpt>
      <trkpt lat="48.42006" lon="2.62899">
        <ele>112</ele>
        <time>2019-09-08T07:31:18Z</time>
      </trkpt>
      <trkpt lat="48.42003" lon="2.62895">
        <ele>112</ele>
        <time>2019-09-08T07:31:20Z</time>
      </trkpt>
      <trkpt lat="48.4199" lon="2.62884">
        <ele>119</ele>
        <time>2019-09-08T07:31:31Z</time>
      </trkpt>
      <trkpt lat="48.41978" lon="2.62878">
        <ele>120</ele>
        <time>2019-09-08T07:31:39Z</time>
      </trkpt>
      <trkpt lat="48.4197" lon="2.62869">
        <ele>121</ele>
        <time>2019-09-08T07:31:45Z</time>
      </trkpt>
      <trkpt lat="48.41968" lon="2.62866">
        <ele>121</ele>
        <time>2019-09-08T07:31:47Z</time>
      </trkpt>
      <trkpt lat="48.41964" lon="2.62865">
        <ele>121</ele>
        <time>2019-09-08T07:31:51Z</time>
      </trkpt>
      <trkpt lat="48.41962" lon="2.62879">
        <ele>121</ele>
        <time>2019-09-08T07:32:05Z</time>
      </trkpt>
      <trkpt lat="48.41957" lon="2.62895">
        <ele>122</ele>
        <time>2019-09-08T07:32:16Z</time>
      </trkpt>
      <trkpt lat="48.41942" lon="2.62912">
        <ele>124</ele>
        <time>2019-09-08T07:32:27Z</time>
      </trkpt>
      <trkpt lat="48.41932" lon="2.62918">
        <ele>127</ele>
        <time>2019-09-08T07:32:36Z</time>
      </trkpt>
      <trkpt lat="48.41905" lon="2.62917">
        <ele>131</ele>
        <time>2019-09-08T07:32:50Z</time>
      </trkpt>
      <trkpt lat="48.41889" lon="2.62899">
        <ele>132</ele>
        <time>2019-09-08T07:33:02Z</time>
      </trkpt>
      <trkpt lat="48.41866" lon="2.62883">
        <ele>134</ele>
        <time>2019-09-08T07:33:14Z</time>
      </trkpt>
      <trkpt lat="48.41837" lon="2.6287">
        <ele>135</ele>
        <time>2019-09-08T07:33:27Z</time>
      </trkpt>
      <trkpt lat="48.41833" lon="2.62868">
        <ele>135</ele>
        <time>2019-09-08T07:33:29Z</time>
      </trkpt>
      <trkpt lat="48.41815" lon="2.62864">
        <ele>137</ele>
        <time>2019-09-08T07:33:37Z</time>
      </trkpt>
      <trkpt lat="48.41781" lon="2.62851">
        <ele>137</ele>
        <time>2019-09-08T07:33:49Z</time>
      </trkpt>
      <trkpt lat="48.41731" lon="2.62826">
        <ele>136</ele>
        <time>2019-09-08T07:34:02Z</time>
      </trkpt>
      <trkpt lat="48.41709" lon="2.62818">
        <ele>135</ele>
        <time>2019-09-08T07:34:07Z</time>
      </trkpt>
      <trkpt lat="48.41693" lon="2.62811">
        <ele>134</ele>
        <time>2019-09-08T07:34:11Z</time>
      </trkpt>
      <trkpt lat="48.41663" lon="2.62801">
        <ele>128</ele>
        <time>2019-09-08T07:34:17Z</time>
      </trkpt>
      <trkpt lat="48.41638" lon="2.6278">
        <ele>127</ele>
        <time>2019-09-08T07:34:21Z</time>
      </trkpt>
      <trkpt lat="48.41621" lon="2.62758">
        <ele>125</ele>
        <time>2019-09-08T07:34:24Z</time>
      </trkpt>
      <trkpt lat="48.41603" lon="2.62729">
        <ele>122</ele>
        <time>2019-09-08T07:34:27Z</time>
      </trkpt>
      <trkpt lat="48.41593" lon="2.62707">
        <ele>122</ele>
        <time>2019-09-08T07:34:29Z</time>
      </trkpt>
      <trkpt lat="48.41586" lon="2.62669">
        <ele>118</ele>
        <time>2019-09-08T07:34:32Z</time>
      </trkpt>
      <trkpt lat="48.41589" lon="2.6264">
        <ele>116</ele>
        <time>2019-09-08T07:34:34Z</time>
      </trkpt>
      <trkpt lat="48.41596" lon="2.62616">
        <ele>115</ele>
        <time>2019-09-08T07:34:36Z</time>
      </trkpt>
      <trkpt lat="48.41594" lon="2.62573">
        <ele>109</ele>
        <time>2019-09-08T07:34:40Z</time>
      </trkpt>
      <trkpt lat="48.41581" lon="2.62533">
        <ele>108</ele>
        <time>2019-09-08T07:34:44Z</time>
      </trkpt>
      <trkpt lat="48.41577" lon="2.62516">
        <ele>107</ele>
        <time>2019-09-08T07:34:46Z</time>
      </trkpt>
      <trkpt lat="48.41559" lon="2.62489">
        <ele>107</ele>
        <time>2019-09-08T07:34:52Z</time>
      </trkpt>
      <trkpt lat="48.41531" lon="2.62462">
        <ele>109</ele>
        <time>2019-09-08T07:35:05Z</time>
      </trkpt>
      <trkpt lat="48.41511" lon="2.6244">
        <ele>110</ele>
        <time>2019-09-08T07:35:15Z</time>
      </trkpt>
      <trkpt lat="48.41494" lon="2.62423">
        <ele>114</ele>
        <time>2019-09-08T07:35:24Z</time>
      </trkpt>
      <trkpt lat="48.41476" lon="2.62406">
        <ele>117</ele>
        <time>2019-09-08T07:35:38Z</time>
      </trkpt>
      <trkpt lat="48.41462" lon="2.62393">
        <ele>119</ele>
        <time>2019-09-08T07:35:49Z</time>
      </trkpt>
      <trkpt lat="48.41459" lon="2.6239">
        <ele>119</ele>
        <time>2019-09-08T07:35:51Z</time>
      </trkpt>
      <trkpt lat="48.4145" lon="2.6238">
        <ele>120</ele>
        <time>2019-09-08T07:35:57Z</time>
      </trkpt>
      <trkpt lat="48.41432" lon="2.62362">
        <ele>122</ele>
        <time>2019-09-08T07:36:11Z</time>
      </trkpt>
      <trkpt lat="48.41417" lon="2.62345">
        <ele>124</ele>
        <time>2019-09-08T07:36:23Z</time>
      </trkpt>
      <trkpt lat="48.41415" lon="2.62342">
        <ele>127</ele>
        <time>2019-09-08T07:36:25Z</time>
      </trkpt>
      <trkpt lat="48.414" lon="2.62325">
        <ele>127</ele>
        <time>2019-09-08T07:36:37Z</time>
      </trkpt>
      <trkpt lat="48.41385" lon="2.62315">
        <ele>128</ele>
        <time>2019-09-08T07:36:46Z</time>
      </trkpt>
      <trkpt lat="48.41376" lon="2.62305">
        <ele>128</ele>
        <time>2019-09-08T07:36:51Z</time>
      </trkpt>
      <trkpt lat="48.41358" lon="2.62291">
        <ele>129</ele>
        <time>2019-09-08T07:37:00Z</time>
      </trkpt>
      <trkpt lat="48.41354" lon="2.62286">
        <ele>129</ele>
        <time>2019-09-08T07:37:02Z</time>
      </trkpt>
      <trkpt lat="48.4135" lon="2.62297">
        <ele>129</ele>
        <time>2019-09-08T07:37:11Z</time>
      </trkpt>
      <trkpt lat="48.41351" lon="2.62299">
        <ele>129</ele>
        <time>2019-09-08T07:37:13Z</time>
      </trkpt>
      <trkpt lat="48.4135" lon="2.62331">
        <ele>130</ele>
        <time>2019-09-08T07:37:22Z</time>
      </trkpt>
      <trkpt lat="48.41344" lon="2.62383">
        <ele>130</ele>
        <time>2019-09-08T07:37:33Z</time>
      </trkpt>
      <trkpt lat="48.41335" lon="2.62442">
        <ele>130</ele>
        <time>2019-09-08T07:37:43Z</time>
      </trkpt>
      <trkpt lat="48.41325" lon="2.62502">
        <ele>131</ele>
        <time>2019-09-08T07:37:54Z</time>
      </trkpt>
      <trkpt lat="48.41312" lon="2.62582">
        <ele>131</ele>
        <time>2019-09-08T07:38:06Z</time>
      </trkpt>
      <trkpt lat="48.41298" lon="2.62657">
        <ele>132</ele>
        <time>2019-09-08T07:38:17Z</time>
      </trkpt>
      <trkpt lat="48.41297" lon="2.62663">
        <ele>132</ele>
        <time>2019-09-08T07:38:18Z</time>
      </trkpt>
      <trkpt lat="48.41272" lon="2.62717">
        <ele>133</ele>
        <time>2019-09-08T07:38:28Z</time>
      </trkpt>
      <trkpt lat="48.41244" lon="2.62758">
        <ele>134</ele>
        <time>2019-09-08T07:38:38Z</time>
      </trkpt>
      <trkpt lat="48.41211" lon="2.62813">
        <ele>134</ele>
        <time>2019-09-08T07:38:52Z</time>
      </trkpt>
      <trkpt lat="48.41182" lon="2.62856">
        <ele>135</ele>
        <time>2019-09-08T07:39:03Z</time>
      </trkpt>
      <trkpt lat="48.41158" lon="2.62896">
        <ele>135</ele>
        <time>2019-09-08T07:39:13Z</time>
      </trkpt>
      <trkpt lat="48.41122" lon="2.62949">
        <ele>136</ele>
        <time>2019-09-08T07:39:26Z</time>
      </trkpt>
      <trkpt lat="48.41087" lon="2.62999">
        <ele>138</ele>
        <time>2019-09-08T07:39:38Z</time>
      </trkpt>
      <trkpt lat="48.41063" lon="2.63041">
        <ele>138</ele>
        <time>2019-09-08T07:39:49Z</time>
      </trkpt>
      <trkpt lat="48.4103" lon="2.63087">
        <ele>139</ele>
        <time>2019-09-08T07:39:59Z</time>
      </trkpt>
      <trkpt lat="48.41006" lon="2.63125">
        <ele>139</ele>
        <time>2019-09-08T07:40:08Z</time>
      </trkpt>
      <trkpt lat="48.40999" lon="2.63128">
        <ele>137</ele>
        <time>2019-09-08T07:40:11Z</time>
      </trkpt>
      <trkpt lat="48.40956" lon="2.6317">
        <ele>137</ele>
        <time>2019-09-08T07:40:22Z</time>
      </trkpt>
      <trkpt lat="48.40907" lon="2.63213">
        <ele>134</ele>
        <time>2019-09-08T07:40:35Z</time>
      </trkpt>
      <trkpt lat="48.4088" lon="2.63237">
        <ele>134</ele>
        <time>2019-09-08T07:40:43Z</time>
      </trkpt>
      <trkpt lat="48.40867" lon="2.63273">
        <ele>135</ele>
        <time>2019-09-08T07:40:50Z</time>
      </trkpt>
      <trkpt lat="48.40873" lon="2.6333">
        <ele>136</ele>
        <time>2019-09-08T07:41:00Z</time>
      </trkpt>
      <trkpt lat="48.40881" lon="2.63358">
        <ele>137</ele>
        <time>2019-09-08T07:41:06Z</time>
      </trkpt>
      <trkpt lat="48.40883" lon="2.63378">
        <ele>138</ele>
        <time>2019-09-08T07:41:09Z</time>
      </trkpt>
      <trkpt lat="48.40887" lon="2.63408">
        <ele>138</ele>
        <time>2019-09-08T07:41:13Z</time>
      </trkpt>
      <trkpt lat="48.40889" lon="2.63422">
        <ele>139</ele>
        <time>2019-09-08T07:41:15Z</time>
      </trkpt>
      <trkpt lat="48.40912" lon="2.63473">
        <ele>139</ele>
        <time>2019-09-08T07:41:27Z</time>
      </trkpt>
      <trkpt lat="48.40919" lon="2.63486">
        <ele>139</ele>
        <time>2019-09-08T07:41:30Z</time>
      </trkpt>
      <trkpt lat="48.40923" lon="2.63507">
        <ele>139</ele>
        <time>2019-09-08T07:41:34Z</time>
      </trkpt>
      <trkpt lat="48.40911" lon="2.63586">
        <ele>141</ele>
        <time>2019-09-08T07:41:46Z</time>
      </trkpt>
      <trkpt lat="48.409" lon="2.63649">
        <ele>140</ele>
        <time>2019-09-08T07:41:57Z</time>
      </trkpt>
      <trkpt lat="48.4089" lon="2.63711">
        <ele>139</ele>
        <time>2019-09-08T07:42:07Z</time>
      </trkpt>
      <trkpt lat="48.40882" lon="2.63806">
        <ele>139</ele>
        <time>2019-09-08T07:42:20Z</time>
      </trkpt>
      <trkpt lat="48.40875" lon="2.63859">
        <ele>139</ele>
        <time>2019-09-08T07:42:28Z</time>
      </trkpt>
      <trkpt lat="48.40862" lon="2.63929">
        <ele>139</ele>
        <time>2019-09-08T07:42:39Z</time>
      </trkpt>
      <trkpt lat="48.4086" lon="2.63934">
        <ele>139</ele>
        <time>2019-09-08T07:42:40Z</time>
      </trkpt>
      <trkpt lat="48.40852" lon="2.63953">
        <ele>139</ele>
        <time>2019-09-08T07:42:45Z</time>
      </trkpt>
      <trkpt lat="48.40843" lon="2.63966">
        <ele>139</ele>
        <time>2019-09-08T07:42:48Z</time>
      </trkpt>
      <trkpt lat="48.40843" lon="2.64027">
        <ele>139</ele>
        <time>2019-09-08T07:42:56Z</time>
      </trkpt>
      <trkpt lat="48.40842" lon="2.6404">
        <ele>139</ele>
        <time>2019-09-08T07:42:58Z</time>
      </trkpt>
      <trkpt lat="48.40842" lon="2.64054">
        <ele>139</ele>
        <time>2019-09-08T07:43:00Z</time>
      </trkpt>
      <trkpt lat="48.40837" lon="2.641">
        <ele>138</ele>
        <time>2019-09-08T07:43:07Z</time>
      </trkpt>
      <trkpt lat="48.40825" lon="2.64165">
        <ele>136</ele>
        <time>2019-09-08T07:43:17Z</time>
      </trkpt>
      <trkpt lat="48.40822" lon="2.64181">
        <ele>136</ele>
        <time>2019-09-08T07:43:19Z</time>
      </trkpt>
      <trkpt lat="48.40809" lon="2.64248">
        <ele>137</ele>
        <time>2019-09-08T07:43:28Z</time>
      </trkpt>
      <trkpt lat="48.40799" lon="2.64302">
        <ele>137</ele>
        <time>2019-09-08T07:43:35Z</time>
      </trkpt>
      <trkpt lat="48.40792" lon="2.64338">
        <ele>137</ele>
        <time>2019-09-08T07:43:40Z</time>
      </trkpt>
      <trkpt lat="48.40787" lon="2.64393">
        <ele>136</ele>
        <time>2019-09-08T07:43:48Z</time>
      </trkpt>
      <trkpt lat="48.40768" lon="2.64507">
        <ele>134</ele>
        <time>2019-09-08T07:44:01Z</time>
      </trkpt>
      <trkpt lat="48.40752" lon="2.64629">
        <ele>131</ele>
        <time>2019-09-08T07:44:11Z</time>
      </trkpt>
      <trkpt lat="48.40743" lon="2.64695">
        <ele>126</ele>
        <time>2019-09-08T07:44:17Z</time>
      </trkpt>
      <trkpt lat="48.4074" lon="2.64726">
        <ele>126</ele>
        <time>2019-09-08T07:44:20Z</time>
      </trkpt>
      <trkpt lat="48.4073" lon="2.64802">
        <ele>123</ele>
        <time>2019-09-08T07:44:27Z</time>
      </trkpt>
      <trkpt lat="48.40724" lon="2.64862">
        <ele>121</ele>
        <time>2019-09-08T07:44:33Z</time>
      </trkpt>
      <trkpt lat="48.40724" lon="2.6488">
        <ele>121</ele>
        <time>2019-09-08T07:44:35Z</time>
      </trkpt>
      <trkpt lat="48.4072" lon="2.64923">
        <ele>121</ele>
        <time>2019-09-08T07:44:40Z</time>
      </trkpt>
      <trkpt lat="48.40704" lon="2.65042">
        <ele>117</ele>
        <time>2019-09-08T07:44:51Z</time>
      </trkpt>
      <trkpt lat="48.40689" lon="2.65146">
        <ele>117</ele>
        <time>2019-09-08T07:45:02Z</time>
      </trkpt>
      <trkpt lat="48.40686" lon="2.65164">
        <ele>117</ele>
        <time>2019-09-08T07:45:04Z</time>
      </trkpt>
      <trkpt lat="48.4068" lon="2.65232">
        <ele>121</ele>
        <time>2019-09-08T07:45:15Z</time>
      </trkpt>
      <trkpt lat="48.40677" lon="2.65275">
        <ele>122</ele>
        <time>2019-09-08T07:45:25Z</time>
      </trkpt>
      <trkpt lat="48.40673" lon="2.65291">
        <ele>122</ele>
        <time>2019-09-08T07:45:30Z</time>
      </trkpt>
      <trkpt lat="48.40668" lon="2.65345">
        <ele>121</ele>
        <time>2019-09-08T07:45:39Z</time>
      </trkpt>
      <trkpt lat="48.40667" lon="2.65401">
        <ele>121</ele>
        <time>2019-09-08T07:45:49Z</time>
      </trkpt>
      <trkpt lat="48.40669" lon="2.6544">
        <ele>122</ele>
        <time>2019-09-08T07:45:57Z</time>
      </trkpt>
      <trkpt lat="48.4067" lon="2.65505">
        <ele>121</ele>
        <time>2019-09-08T07:46:10Z</time>
      </trkpt>
      <trkpt lat="48.40668" lon="2.65533">
        <ele>122</ele>
        <time>2019-09-08T07:46:14Z</time>
      </trkpt>
      <trkpt lat="48.40665" lon="2.65571">
        <ele>117</ele>
        <time>2019-09-08T07:46:18Z</time>
      </trkpt>
      <trkpt lat="48.4064" lon="2.65671">
        <ele>110</ele>
        <time>2019-09-08T07:46:26Z</time>
      </trkpt>
      <trkpt lat="48.40621" lon="2.65732">
        <ele>108</ele>
        <time>2019-09-08T07:46:31Z</time>
      </trkpt>
      <trkpt lat="48.40614" lon="2.65778">
        <ele>106</ele>
        <time>2019-09-08T07:46:36Z</time>
      </trkpt>
      <trkpt lat="48.40604" lon="2.65808">
        <ele>106</ele>
        <time>2019-09-08T07:46:40Z</time>
      </trkpt>
      <trkpt lat="48.40591" lon="2.65869">
        <ele>105</ele>
        <time>2019-09-08T07:46:51Z</time>
      </trkpt>
      <trkpt lat="48.40589" lon="2.65883">
        <ele>105</ele>
        <time>2019-09-08T07:46:53Z</time>
      </trkpt>
      <trkpt lat="48.40588" lon="2.65896">
        <ele>105</ele>
        <time>2019-09-08T07:46:55Z</time>
      </trkpt>
      <trkpt lat="48.40578" lon="2.65935">
        <ele>103</ele>
        <time>2019-09-08T07:47:01Z</time>
      </trkpt>
      <trkpt lat="48.40572" lon="2.65962">
        <ele>103</ele>
        <time>2019-09-08T07:47:05Z</time>
      </trkpt>
      <trkpt lat="48.40583" lon="2.66035">
        <ele>104</ele>
        <time>2019-09-08T07:47:18Z</time>
      </trkpt>
      <trkpt lat="48.4061" lon="2.66043">
        <ele>107</ele>
        <time>2019-09-08T07:47:28Z</time>
      </trkpt>
      <trkpt lat="48.40621" lon="2.66042">
        <ele>107</ele>
        <time>2019-09-08T07:47:33Z</time>
      </trkpt>
      <trkpt lat="48.40629" lon="2.66041">
        <ele>108</ele>
        <time>2019-09-08T07:47:38Z</time>
      </trkpt>
      <trkpt lat="48.40638" lon="2.66038">
        <ele>108</ele>
        <time>2019-09-08T07:47:44Z</time>
      </trkpt>
      <trkpt lat="48.40647" lon="2.66035">
        <ele>108</ele>
        <time>2019-09-08T07:47:50Z</time>
      </trkpt>
      <trkpt lat="48.40653" lon="2.66034">
        <ele>108</ele>
        <time>2019-09-08T07:47:54Z</time>
      </trkpt>
      <trkpt lat="48.40666" lon="2.66031">
        <ele>109</ele>
        <time>2019-09-08T07:48:03Z</time>
      </trkpt>
      <trkpt lat="48.40679" lon="2.66042">
        <ele>117</ele>
        <time>2019-09-08T07:48:15Z</time>
      </trkpt>
      <trkpt lat="48.40681" lon="2.66046">
        <ele>117</ele>
        <time>2019-09-08T07:48:18Z</time>
      </trkpt>
      <trkpt lat="48.40692" lon="2.66062">
        <ele>117</ele>
        <time>2019-09-08T07:48:32Z</time>
      </trkpt>
      <trkpt lat="48.40698" lon="2.66073">
        <ele>118</ele>
        <time>2019-09-08T07:48:44Z</time>
      </trkpt>
      <trkpt lat="48.40702" lon="2.66079">
        <ele>118</ele>
        <time>2019-09-08T07:48:49Z</time>
      </trkpt>
      <trkpt lat="48.40706" lon="2.66101">
        <ele>119</ele>
        <time>2019-09-08T07:48:58Z</time>
      </trkpt>
      <trkpt lat="48.40706" lon="2.66104">
        <ele>119</ele>
        <time>2019-09-08T07:49:00Z</time>
      </trkpt>
      <trkpt lat="48.40709" lon="2.66112">
        <ele>119</ele>
        <time>2019-09-08T07:49:04Z</time>
      </trkpt>
      <trkpt lat="48.40713" lon="2.66122">
        <ele>120</ele>
        <time>2019-09-08T07:49:10Z</time>
      </trkpt>
      <trkpt lat="48.40721" lon="2.66149">
        <ele>121</ele>
        <time>2019-09-08T07:49:25Z</time>
      </trkpt>
      <trkpt lat="48.40725" lon="2.66168">
        <ele>122</ele>
        <time>2019-09-08T07:49:33Z</time>
      </trkpt>
      <trkpt lat="48.40729" lon="2.66178">
        <ele>122</ele>
        <time>2019-09-08T07:49:37Z</time>
      </trkpt>
      <trkpt lat="48.40735" lon="2.66207">
        <ele>122</ele>
        <time>2019-09-08T07:49:51Z</time>
      </trkpt>
      <trkpt lat="48.40741" lon="2.66242">
        <ele>125</ele>
        <time>2019-09-08T07:50:04Z</time>
      </trkpt>
      <trkpt lat="48.40743" lon="2.66248">
        <ele>126</ele>
        <time>2019-09-08T07:50:07Z</time>
      </trkpt>
      <trkpt lat="48.40732" lon="2.66283">
        <ele>123</ele>
        <time>2019-09-08T07:50:13Z</time>
      </trkpt>
      <trkpt lat="48.4073" lon="2.66291">
        <ele>123</ele>
        <time>2019-09-08T07:50:14Z</time>
      </trkpt>
      <trkpt lat="48.40727" lon="2.66299">
        <ele>123</ele>
        <time>2019-09-08T07:50:15Z</time>
      </trkpt>
      <trkpt lat="48.40685" lon="2.66395">
        <ele>120</ele>
        <time>2019-09-08T07:50:25Z</time>
      </trkpt>
      <trkpt lat="48.40666" lon="2.66436">
        <ele>112</ele>
        <time>2019-09-08T07:50:29Z</time>
      </trkpt>
      <trkpt lat="48.40646" lon="2.66471">
        <ele>111</ele>
        <time>2019-09-08T07:50:33Z</time>
      </trkpt>
      <trkpt lat="48.40617" lon="2.66537">
        <ele>108</ele>
        <time>2019-09-08T07:50:40Z</time>
      </trkpt>
      <trkpt lat="48.40611" lon="2.66549">
        <ele>108</ele>
        <time>2019-09-08T07:50:41Z</time>
      </trkpt>
      <trkpt lat="48.40551" lon="2.66673">
        <ele>99</ele>
        <time>2019-09-08T07:50:51Z</time>
      </trkpt>
      <trkpt lat="48.40501" lon="2.66783">
        <ele>97</ele>
        <time>2019-09-08T07:51:02Z</time>
      </trkpt>
      <trkpt lat="48.40498" lon="2.66787">
        <ele>95</ele>
        <time>2019-09-08T07:51:03Z</time>
      </trkpt>
      <trkpt lat="48.40484" lon="2.66786">
        <ele>95</ele>
        <time>2019-09-08T07:51:14Z</time>
      </trkpt>
      <trkpt lat="48.40479" lon="2.66799">
        <ele>95</ele>
        <time>2019-09-08T07:51:20Z</time>
      </trkpt>
      <trkpt lat="48.40462" lon="2.66798">
        <ele>95</ele>
        <time>2019-09-08T07:51:27Z</time>
      </trkpt>
      <trkpt lat="48.40421" lon="2.66796">
        <ele>95</ele>
        <time>2019-09-08T07:51:39Z</time>
      </trkpt>
      <trkpt lat="48.40372" lon="2.6679">
        <ele>93</ele>
        <time>2019-09-08T07:51:51Z</time>
      </trkpt>
      <trkpt lat="48.40368" lon="2.66789">
        <ele>93</ele>
        <time>2019-09-08T07:51:52Z</time>
      </trkpt>
      <trkpt lat="48.40307" lon="2.6678">
        <ele>90</ele>
        <time>2019-09-08T07:52:04Z</time>
      </trkpt>
      <trkpt lat="48.40285" lon="2.66777">
        <ele>90</ele>
        <time>2019-09-08T07:52:08Z</time>
      </trkpt>
      <trkpt lat="48.40265" lon="2.66773">
        <ele>90</ele>
        <time>2019-09-08T07:52:12Z</time>
      </trkpt>
      <trkpt lat="48.40245" lon="2.6677">
        <ele>89</ele>
        <time>2019-09-08T07:52:16Z</time>
      </trkpt>
      <trkpt lat="48.40183" lon="2.66758">
        <ele>88</ele>
        <time>2019-09-08T07:52:29Z</time>
      </trkpt>
      <trkpt lat="48.40178" lon="2.66758">
        <ele>88</ele>
        <time>2019-09-08T07:52:30Z</time>
      </trkpt>
      <trkpt lat="48.40169" lon="2.66757">
        <ele>88</ele>
        <time>2019-09-08T07:52:32Z</time>
      </trkpt>
      <trkpt lat="48.40145" lon="2.66756">
        <ele>88</ele>
        <time>2019-09-08T07:52:37Z</time>
      </trkpt>
      <trkpt lat="48.40116" lon="2.66751">
        <ele>88</ele>
        <time>2019-09-08T07:52:43Z</time>
      </trkpt>
      <trkpt lat="48.40107" lon="2.66749">
        <ele>89</ele>
        <time>2019-09-08T07:52:45Z</time>
      </trkpt>
      <trkpt lat="48.40058" lon="2.66746">
        <ele>89</ele>
        <time>2019-09-08T07:52:55Z</time>
      </trkpt>
      <trkpt lat="48.4001" lon="2.66745">
        <ele>88</ele>
        <time>2019-09-08T07:53:08Z</time>
      </trkpt>
      <trkpt lat="48.39994" lon="2.66777">
        <ele>91</ele>
        <time>2019-09-08T07:53:17Z</time>
      </trkpt>
      <trkpt lat="48.39978" lon="2.66811">
        <ele>91</ele>
        <time>2019-09-08T07:53:25Z</time>
      </trkpt>
      <trkpt lat="48.39971" lon="2.6682">
        <ele>91</ele>
        <time>2019-09-08T07:53:29Z</time>
      </trkpt>
      <trkpt lat="48.39943" lon="2.66878">
        <ele>91</ele>
        <time>2019-09-08T07:53:42Z</time>
      </trkpt>
      <trkpt lat="48.39935" lon="2.66887">
        <ele>91</ele>
        <time>2019-09-08T07:53:44Z</time>
      </trkpt>
      <trkpt lat="48.39917" lon="2.66956">
        <ele>89</ele>
        <time>2019-09-08T07:53:57Z</time>
      </trkpt>
      <trkpt lat="48.39906" lon="2.66966">
        <ele>95</ele>
        <time>2019-09-08T07:54:01Z</time>
      </trkpt>
      <trkpt lat="48.39901" lon="2.6697">
        <ele>95</ele>
        <time>2019-09-08T07:54:03Z</time>
      </trkpt>
      <trkpt lat="48.39891" lon="2.66984">
        <ele>96</ele>
        <time>2019-09-08T07:54:10Z</time>
      </trkpt>
      <trkpt lat="48.39885" lon="2.67008">
        <ele>95</ele>
        <time>2019-09-08T07:54:18Z</time>
      </trkpt>
      <trkpt lat="48.3988" lon="2.67023">
        <ele>95</ele>
        <time>2019-09-08T07:54:22Z</time>
      </trkpt>
      <trkpt lat="48.39879" lon="2.67031">
        <ele>95</ele>
        <time>2019-09-08T07:54:24Z</time>
      </trkpt>
      <trkpt lat="48.3988" lon="2.67053">
        <ele>95</ele>
        <time>2019-09-08T07:54:29Z</time>
      </trkpt>
      <trkpt lat="48.3988" lon="2.67074">
        <ele>95</ele>
        <time>2019-09-08T07:54:32Z</time>
      </trkpt>
      <trkpt lat="48.39876" lon="2.67117">
        <ele>91</ele>
        <time>2019-09-08T07:54:37Z</time>
      </trkpt>
      <trkpt lat="48.3985" lon="2.6718">
        <ele>89</ele>
        <time>2019-09-08T07:54:46Z</time>
      </trkpt>
      <trkpt lat="48.3984" lon="2.67206">
        <ele>89</ele>
        <time>2019-09-08T07:54:50Z</time>
      </trkpt>
      <trkpt lat="48.39834" lon="2.67224">
        <ele>89</ele>
        <time>2019-09-08T07:54:53Z</time>
      </trkpt>
      <trkpt lat="48.39808" lon="2.67271">
        <ele>92</ele>
        <time>2019-09-08T07:55:02Z</time>
      </trkpt>
      <trkpt lat="48.398" lon="2.67281">
        <ele>92</ele>
        <time>2019-09-08T07:55:04Z</time>
      </trkpt>
      <trkpt lat="48.39793" lon="2.67291">
        <ele>92</ele>
        <time>2019-09-08T07:55:06Z</time>
      </trkpt>
      <trkpt lat="48.3978" lon="2.67305">
        <ele>92</ele>
        <time>2019-09-08T07:55:09Z</time>
      </trkpt>
      <trkpt lat="48.39762" lon="2.67321">
        <ele>93</ele>
        <time>2019-09-08T07:55:13Z</time>
      </trkpt>
      <trkpt lat="48.3973" lon="2.67358">
        <ele>93</ele>
        <time>2019-09-08T07:55:24Z</time>
      </trkpt>
      <trkpt lat="48.39709" lon="2.67379">
        <ele>94</ele>
        <time>2019-09-08T07:55:34Z</time>
      </trkpt>
      <trkpt lat="48.39694" lon="2.67384">
        <ele>94</ele>
        <time>2019-09-08T07:55:39Z</time>
      </trkpt>
      <trkpt lat="48.39684" lon="2.67385">
        <ele>94</ele>
        <time>2019-09-08T07:55:48Z</time>
      </trkpt>
      <trkpt lat="48.39663" lon="2.67381">
        <ele>97</ele>
        <time>2019-09-08T07:56:00Z</time>
      </trkpt>
      <trkpt lat="48.39638" lon="2.67374">
        <ele>98</ele>
        <time>2019-09-08T07:56:12Z</time>
      </trkpt>
      <trkpt lat="48.39613" lon="2.67358">
        <ele>98</ele>
        <time>2019-09-08T07:56:23Z</time>
      </trkpt>
      <trkpt lat="48.39606" lon="2.67346">
        <ele>98</ele>
        <time>2019-09-08T07:56:26Z</time>
      </trkpt>
      <trkpt lat="48.39588" lon="2.67308">
        <ele>98</ele>
        <time>2019-09-08T07:56:32Z</time>
      </trkpt>
      <trkpt lat="48.39582" lon="2.67295">
        <ele>95</ele>
        <time>2019-09-08T07:56:34Z</time>
      </trkpt>
      <trkpt lat="48.39567" lon="2.67268">
        <ele>95</ele>
        <time>2019-09-08T07:56:39Z</time>
      </trkpt>
      <trkpt lat="48.39535" lon="2.67193">
        <ele>94</ele>
        <time>2019-09-08T07:56:50Z</time>
      </trkpt>
      <trkpt lat="48.39497" lon="2.67093">
        <ele>89</ele>
        <time>2019-09-08T07:57:00Z</time>
      </trkpt>
      <trkpt lat="48.39461" lon="2.67005">
        <ele>87</ele>
        <time>2019-09-08T07:57:10Z</time>
      </trkpt>
      <trkpt lat="48.39433" lon="2.66938">
        <ele>87</ele>
        <time>2019-09-08T07:57:20Z</time>
      </trkpt>
      <trkpt lat="48.39427" lon="2.66924">
        <ele>87</ele>
        <time>2019-09-08T07:57:22Z</time>
      </trkpt>
      <trkpt lat="48.39408" lon="2.66906">
        <ele>87</ele>
        <time>2019-09-08T07:57:26Z</time>
      </trkpt>
      <trkpt lat="48.39365" lon="2.66881">
        <ele>88</ele>
        <time>2019-09-08T07:57:35Z</time>
      </trkpt>
      <trkpt lat="48.3935" lon="2.66873">
        <ele>88</ele>
        <time>2019-09-08T07:57:38Z</time>
      </trkpt>
      <trkpt lat="48.39341" lon="2.66867">
        <ele>88</ele>
        <time>2019-09-08T07:57:40Z</time>
      </trkpt>
      <trkpt lat="48.39313" lon="2.66853">
        <ele>87</ele>
        <time>2019-09-08T07:57:46Z</time>
      </trkpt>
      <trkpt lat="48.39297" lon="2.66846">
        <ele>87</ele>
        <time>2019-09-08T07:57:50Z</time>
      </trkpt>
      <trkpt lat="48.39275" lon="2.66834">
        <ele>87</ele>
        <time>2019-09-08T07:57:57Z</time>
      </trkpt>
      <trkpt lat="48.39257" lon="2.66825">
        <ele>87</ele>
        <time>2019-09-08T07:58:02Z</time>
      </trkpt>
      <trkpt lat="48.39227" lon="2.66798">
        <ele>86</ele>
        <time>2019-09-08T07:58:12Z</time>
      </trkpt>
      <trkpt lat="48.39229" lon="2.66749">
        <ele>88</ele>
        <time>2019-09-08T07:58:23Z</time>
      </trkpt>
      <trkpt lat="48.39234" lon="2.66682">
        <ele>88</ele>
        <time>2019-09-08T07:58:35Z</time>
      </trkpt>
      <trkpt lat="48.39237" lon="2.66658">
        <ele>89</ele>
        <time>2019-09-08T07:58:39Z</time>
      </trkpt>
      <trkpt lat="48.39242" lon="2.66616">
        <ele>89</ele>
        <time>2019-09-08T07:58:46Z</time>
      </trkpt>
      <trkpt lat="48.39245" lon="2.66585">
        <ele>90</ele>
        <time>2019-09-08T07:58:51Z</time>
      </trkpt>
      <trkpt lat="48.39252" lon="2.66538">
        <ele>89</ele>
        <time>2019-09-08T07:58:57Z</time>
      </trkpt>
      <trkpt lat="48.39255" lon="2.66505">
        <ele>88</ele>
        <time>2019-09-08T07:59:01Z</time>
      </trkpt>
      <trkpt lat="48.39265" lon="2.66397">
        <ele>88</ele>
        <time>2019-09-08T07:59:15Z</time>
      </trkpt>
      <trkpt lat="48.39266" lon="2.6639">
        <ele>88</ele>
        <time>2019-09-08T07:59:16Z</time>
      </trkpt>
      <trkpt lat="48.39273" lon="2.66329">
        <ele>89</ele>
        <time>2019-09-08T07:59:24Z</time>
      </trkpt>
      <trkpt lat="48.39277" lon="2.66296">
        <ele>90</ele>
        <time>2019-09-08T07:59:29Z</time>
      </trkpt>
      <trkpt lat="48.39283" lon="2.66223">
        <ele>90</ele>
        <time>2019-09-08T07:59:41Z</time>
      </trkpt>
      <trkpt lat="48.39285" lon="2.66194">
        <ele>90</ele>
        <time>2019-09-08T07:59:45Z</time>
      </trkpt>
      <trkpt lat="48.39287" lon="2.6616">
        <ele>91</ele>
        <time>2019-09-08T07:59:50Z</time>
      </trkpt>
      <trkpt lat="48.39302" lon="2.66128">
        <ele>91</ele>
        <time>2019-09-08T07:59:54Z</time>
      </trkpt>
      <trkpt lat="48.39312" lon="2.66119">
        <ele>92</ele>
        <time>2019-09-08T07:59:56Z</time>
      </trkpt>
      <trkpt lat="48.3934" lon="2.66102">
        <ele>92</ele>
        <time>2019-09-08T08:00:02Z</time>
      </trkpt>
      <trkpt lat="48.39368" lon="2.66102">
        <ele>92</ele>
        <time>2019-09-08T08:00:09Z</time>
      </trkpt>
      <trkpt lat="48.39376" lon="2.66096">
        <ele>91</ele>
        <time>2019-09-08T08:00:13Z</time>
      </trkpt>
      <trkpt lat="48.39384" lon="2.66086">
        <ele>91</ele>
        <time>2019-09-08T08:00:17Z</time>
      </trkpt>
      <trkpt lat="48.39425" lon="2.66079">
        <ele>91</ele>
        <time>2019-09-08T08:00:32Z</time>
      </trkpt>
      <trkpt lat="48.39467" lon="2.6604">
        <ele>91</ele>
        <time>2019-09-08T08:00:45Z</time>
      </trkpt>
      <trkpt lat="48.39502" lon="2.65998">
        <ele>92</ele>
        <time>2019-09-08T08:00:58Z</time>
      </trkpt>
      <trkpt lat="48.3953" lon="2.6597">
        <ele>92</ele>
        <time>2019-09-08T08:01:11Z</time>
      </trkpt>
      <trkpt lat="48.39558" lon="2.6595">
        <ele>92</ele>
        <time>2019-09-08T08:01:23Z</time>
      </trkpt>
      <trkpt lat="48.39592" lon="2.65931">
        <ele>92</ele>
        <time>2019-09-08T08:01:33Z</time>
      </trkpt>
      <trkpt lat="48.39625" lon="2.65923">
        <ele>93</ele>
        <time>2019-09-08T08:01:43Z</time>
      </trkpt>
      <trkpt lat="48.39645" lon="2.65969">
        <ele>93</ele>
        <time>2019-09-08T08:01:54Z</time>
      </trkpt>
      <trkpt lat="48.39664" lon="2.66024">
        <ele>94</ele>
        <time>2019-09-08T08:02:06Z</time>
      </trkpt>
      <trkpt lat="48.39671" lon="2.66047">
        <ele>97</ele>
        <time>2019-09-08T08:02:13Z</time>
      </trkpt>
      <trkpt lat="48.3969" lon="2.66078">
        <ele>97</ele>
        <time>2019-09-08T08:02:28Z</time>
      </trkpt>
      <trkpt lat="48.39709" lon="2.66097">
        <ele>100</ele>
        <time>2019-09-08T08:02:41Z</time>
      </trkpt>
      <trkpt lat="48.39712" lon="2.66101">
        <ele>100</ele>
        <time>2019-09-08T08:02:43Z</time>
      </trkpt>
      <trkpt lat="48.39734" lon="2.6612">
        <ele>101</ele>
        <time>2019-09-08T08:02:58Z</time>
      </trkpt>
      <trkpt lat="48.39749" lon="2.66129">
        <ele>101</ele>
        <time>2019-09-08T08:03:09Z</time>
      </trkpt>
      <trkpt lat="48.39753" lon="2.66131">
        <ele>106</ele>
        <time>2019-09-08T08:03:11Z</time>
      </trkpt>
      <trkpt lat="48.39765" lon="2.66136">
        <ele>106</ele>
        <time>2019-09-08T08:03:21Z</time>
      </trkpt>
      <trkpt lat="48.39782" lon="2.66141">
        <ele>107</ele>
        <time>2019-09-08T08:03:35Z</time>
      </trkpt>
      <trkpt lat="48.39797" lon="2.66141">
        <ele>108</ele>
        <time>2019-09-08T08:03:48Z</time>
      </trkpt>
      <trkpt lat="48.39806" lon="2.6614">
        <ele>109</ele>
        <time>2019-09-08T08:03:56Z</time>
      </trkpt>
      <trkpt lat="48.39824" lon="2.66144">
        <ele>110</ele>
        <time>2019-09-08T08:04:11Z</time>
      </trkpt>
      <trkpt lat="48.39837" lon="2.66144">
        <ele>113</ele>
        <time>2019-09-08T08:04:23Z</time>
      </trkpt>
      <trkpt lat="48.39861" lon="2.66145">
        <ele>113</ele>
        <time>2019-09-08T08:04:36Z</time>
      </trkpt>
      <trkpt lat="48.39875" lon="2.6615">
        <ele>113</ele>
        <time>2019-09-08T08:04:39Z</time>
      </trkpt>
      <trkpt lat="48.39916" lon="2.66146">
        <ele>113</ele>
        <time>2019-09-08T08:04:45Z</time>
      </trkpt>
      <trkpt lat="48.39952" lon="2.66138">
        <ele>109</ele>
        <time>2019-09-08T08:04:50Z</time>
      </trkpt>
      <trkpt lat="48.40027" lon="2.66167">
        <ele>99</ele>
        <time>2019-09-08T08:04:59Z</time>
      </trkpt>
      <trkpt lat="48.40058" lon="2.66184">
        <ele>97</ele>
        <time>2019-09-08T08:05:06Z</time>
      </trkpt>
      <trkpt lat="48.40063" lon="2.66172">
        <ele>97</ele>
        <time>2019-09-08T08:05:11Z</time>
      </trkpt>
      <trkpt lat="48.40074" lon="2.66122">
        <ele>99</ele>
        <time>2019-09-08T08:05:25Z</time>
      </trkpt>
      <trkpt lat="48.40083" lon="2.66079">
        <ele>98</ele>
        <time>2019-09-08T08:05:35Z</time>
      </trkpt>
      <trkpt lat="48.40094" lon="2.6602">
        <ele>97</ele>
        <time>2019-09-08T08:05:47Z</time>
      </trkpt>
      <trkpt lat="48.40106" lon="2.65957">
        <ele>99</ele>
        <time>2019-09-08T08:05:59Z</time>
      </trkpt>
      <trkpt lat="48.40108" lon="2.65913">
        <ele>102</ele>
        <time>2019-09-08T08:06:08Z</time>
      </trkpt>
      <trkpt lat="48.40114" lon="2.65856">
        <ele>102</ele>
        <time>2019-09-08T08:06:18Z</time>
      </trkpt>
      <trkpt lat="48.40118" lon="2.65794">
        <ele>102</ele>
        <time>2019-09-08T08:06:29Z</time>
      </trkpt>
      <trkpt lat="48.40119" lon="2.65722">
        <ele>102</ele>
        <time>2019-09-08T08:06:42Z</time>
      </trkpt>
      <trkpt lat="48.40124" lon="2.65673">
        <ele>101</ele>
        <time>2019-09-08T08:06:51Z</time>
      </trkpt>
      <trkpt lat="48.40129" lon="2.65612">
        <ele>100</ele>
        <time>2019-09-08T08:07:02Z</time>
      </trkpt>
      <trkpt lat="48.40132" lon="2.65554">
        <ele>101</ele>
        <time>2019-09-08T08:07:14Z</time>
      </trkpt>
      <trkpt lat="48.40139" lon="2.65501">
        <ele>100</ele>
        <time>2019-09-08T08:07:23Z</time>
      </trkpt>
      <trkpt lat="48.40155" lon="2.65426">
        <ele>102</ele>
        <time>2019-09-08T08:07:36Z</time>
      </trkpt>
      <trkpt lat="48.40162" lon="2.65378">
        <ele>106</ele>
        <time>2019-09-08T08:07:47Z</time>
      </trkpt>
      <trkpt lat="48.40166" lon="2.65344">
        <ele>104</ele>
        <time>2019-09-08T08:07:57Z</time>
      </trkpt>
      <trkpt lat="48.40167" lon="2.65339">
        <ele>103</ele>
        <time>2019-09-08T08:07:59Z</time>
      </trkpt>
      <trkpt lat="48.40172" lon="2.65295">
        <ele>104</ele>
        <time>2019-09-08T08:08:11Z</time>
      </trkpt>
      <trkpt lat="48.40178" lon="2.65247">
        <ele>104</ele>
        <time>2019-09-08T08:08:23Z</time>
      </trkpt>
      <trkpt lat="48.40179" lon="2.65242">
        <ele>104</ele>
        <time>2019-09-08T08:08:24Z</time>
      </trkpt>
      <trkpt lat="48.40185" lon="2.65202">
        <ele>104</ele>
        <time>2019-09-08T08:08:35Z</time>
      </trkpt>
      <trkpt lat="48.40194" lon="2.65146">
        <ele>106</ele>
        <time>2019-09-08T08:08:48Z</time>
      </trkpt>
      <trkpt lat="48.40201" lon="2.65097">
        <ele>107</ele>
        <time>2019-09-08T08:09:00Z</time>
      </trkpt>
      <trkpt lat="48.40207" lon="2.65049">
        <ele>109</ele>
        <time>2019-09-08T08:09:11Z</time>
      </trkpt>
      <trkpt lat="48.40215" lon="2.64994">
        <ele>112</ele>
        <time>2019-09-08T08:09:22Z</time>
      </trkpt>
      <trkpt lat="48.4022" lon="2.64944">
        <ele>113</ele>
        <time>2019-09-08T08:09:33Z</time>
      </trkpt>
      <trkpt lat="48.40223" lon="2.64922">
        <ele>113</ele>
        <time>2019-09-08T08:09:37Z</time>
      </trkpt>
      <trkpt lat="48.40226" lon="2.64896">
        <ele>116</ele>
        <time>2019-09-08T08:09:43Z</time>
      </trkpt>
      <trkpt lat="48.40236" lon="2.6484">
        <ele>115</ele>
        <time>2019-09-08T08:09:57Z</time>
      </trkpt>
      <trkpt lat="48.40237" lon="2.64824">
        <ele>117</ele>
        <time>2019-09-08T08:10:01Z</time>
      </trkpt>
      <trkpt lat="48.4024" lon="2.64804">
        <ele>118</ele>
        <time>2019-09-08T08:10:06Z</time>
      </trkpt>
      <trkpt lat="48.40249" lon="2.64753">
        <ele>115</ele>
        <time>2019-09-08T08:10:19Z</time>
      </trkpt>
      <trkpt lat="48.40255" lon="2.64709">
        <ele>119</ele>
        <time>2019-09-08T08:10:30Z</time>
      </trkpt>
      <trkpt lat="48.40261" lon="2.64665">
        <ele>120</ele>
        <time>2019-09-08T08:10:41Z</time>
      </trkpt>
      <trkpt lat="48.40269" lon="2.64613">
        <ele>121</ele>
        <time>2019-09-08T08:10:55Z</time>
      </trkpt>
      <trkpt lat="48.40277" lon="2.64566">
        <ele>122</ele>
        <time>2019-09-08T08:11:06Z</time>
      </trkpt>
      <trkpt lat="48.40283" lon="2.64522">
        <ele>122</ele>
        <time>2019-09-08T08:11:17Z</time>
      </trkpt>
      <trkpt lat="48.40284" lon="2.64514">
        <ele>122</ele>
        <time>2019-09-08T08:11:20Z</time>
      </trkpt>
      <trkpt lat="48.40289" lon="2.64486">
        <ele>124</ele>
        <time>2019-09-08T08:11:30Z</time>
      </trkpt>
      <trkpt lat="48.40293" lon="2.64454">
        <ele>124</ele>
        <time>2019-09-08T08:11:39Z</time>
      </trkpt>
      <trkpt lat="48.40299" lon="2.64408">
        <ele>126</ele>
        <time>2019-09-08T08:11:51Z</time>
      </trkpt>
      <trkpt lat="48.40306" lon="2.64367">
        <ele>126</ele>
        <time>2019-09-08T08:12:03Z</time>
      </trkpt>
      <trkpt lat="48.40308" lon="2.64352">
        <ele>126</ele>
        <time>2019-09-08T08:12:07Z</time>
      </trkpt>
      <trkpt lat="48.40316" lon="2.64302">
        <ele>129</ele>
        <time>2019-09-08T08:12:18Z</time>
      </trkpt>
      <trkpt lat="48.40321" lon="2.64255">
        <ele>129</ele>
        <time>2019-09-08T08:12:32Z</time>
      </trkpt>
      <trkpt lat="48.40322" lon="2.64252">
        <ele>129</ele>
        <time>2019-09-08T08:12:33Z</time>
      </trkpt>
      <trkpt lat="48.40325" lon="2.64244">
        <ele>129</ele>
        <time>2019-09-08T08:12:35Z</time>
      </trkpt>
      <trkpt lat="48.40328" lon="2.64215">
        <ele>131</ele>
        <time>2019-09-08T08:12:45Z</time>
      </trkpt>
      <trkpt lat="48.40329" lon="2.64201">
        <ele>131</ele>
        <time>2019-09-08T08:12:50Z</time>
      </trkpt>
      <trkpt lat="48.40335" lon="2.64154">
        <ele>130</ele>
        <time>2019-09-08T08:13:05Z</time>
      </trkpt>
      <trkpt lat="48.40335" lon="2.6414">
        <ele>130</ele>
        <time>2019-09-08T08:13:11Z</time>
      </trkpt>
      <trkpt lat="48.40338" lon="2.6412">
        <ele>131</ele>
        <time>2019-09-08T08:13:19Z</time>
      </trkpt>
      <trkpt lat="48.40345" lon="2.64085">
        <ele>131</ele>
        <time>2019-09-08T08:13:31Z</time>
      </trkpt>
      <trkpt lat="48.4035" lon="2.64054">
        <ele>133</ele>
        <time>2019-09-08T08:13:44Z</time>
      </trkpt>
      <trkpt lat="48.40359" lon="2.64022">
        <ele>133</ele>
        <time>2019-09-08T08:14:00Z</time>
      </trkpt>
      <trkpt lat="48.40363" lon="2.64005">
        <ele>134</ele>
        <time>2019-09-08T08:14:09Z</time>
      </trkpt>
      <trkpt lat="48.40366" lon="2.63995">
        <ele>136</ele>
        <time>2019-09-08T08:14:16Z</time>
      </trkpt>
      <trkpt lat="48.40371" lon="2.63971">
        <ele>136</ele>
        <time>2019-09-08T08:14:30Z</time>
      </trkpt>
      <trkpt lat="48.40377" lon="2.63947">
        <ele>136</ele>
        <time>2019-09-08T08:14:43Z</time>
      </trkpt>
      <trkpt lat="48.40377" lon="2.63944">
        <ele>136</ele>
        <time>2019-09-08T08:14:45Z</time>
      </trkpt>
      <trkpt lat="48.40385" lon="2.63915">
        <ele>138</ele>
        <time>2019-09-08T08:14:58Z</time>
      </trkpt>
      <trkpt lat="48.40386" lon="2.63913">
        <ele>137</ele>
        <time>2019-09-08T08:15:00Z</time>
      </trkpt>
      <trkpt lat="48.40385" lon="2.63909">
        <ele>138</ele>
        <time>2019-09-08T08:15:02Z</time>
      </trkpt>
      <trkpt lat="48.40379" lon="2.63883">
        <ele>138</ele>
        <time>2019-09-08T08:15:15Z</time>
      </trkpt>
      <trkpt lat="48.40384" lon="2.63869">
        <ele>138</ele>
        <time>2019-09-08T08:15:28Z</time>
      </trkpt>
      <trkpt lat="48.40387" lon="2.63864">
        <ele>138</ele>
        <time>2019-09-08T08:15:40Z</time>
      </trkpt>
      <trkpt lat="48.40386" lon="2.63862">
        <ele>138</ele>
        <time>2019-09-08T08:15:54Z</time>
      </trkpt>
      <trkpt lat="48.40387" lon="2.63857">
        <ele>138</ele>
        <time>2019-09-08T08:16:16Z</time>
      </trkpt>
      <trkpt lat="48.40388" lon="2.63855">
        <ele>138</ele>
        <time>2019-09-08T08:16:37Z</time>
      </trkpt>
      <trkpt lat="48.4039" lon="2.63853">
        <ele>138</ele>
        <time>2019-09-08T08:16:54Z</time>
      </trkpt>
      <trkpt lat="48.40391" lon="2.6385">
        <ele>138</ele>
        <time>2019-09-08T08:17:21Z</time>
      </trkpt>
      <trkpt lat="48.40392" lon="2.63852">
        <ele>138</ele>
        <time>2019-09-08T08:17:35Z</time>
      </trkpt>
      <trkpt lat="48.40394" lon="2.63854">
        <ele>138</ele>
        <time>2019-09-08T08:17:59Z</time>
      </trkpt>
      <trkpt lat="48.40394" lon="2.63855">
        <ele>138</ele>
        <time>2019-09-08T08:18:19Z</time>
      </trkpt>
      <trkpt lat="48.40395" lon="2.63855">
        <ele>137</ele>
        <time>2019-09-08T08:18:31Z</time>
      </trkpt>
      <trkpt lat="48.40395" lon="2.63855">
        <ele>137</ele>
        <time>2019-09-08T08:18:50Z</time>
      </trkpt>
      <trkpt lat="48.40397" lon="2.63857">
        <ele>137</ele>
        <time>2019-09-08T08:19:17Z</time>
      </trkpt>
      <trkpt lat="48.40398" lon="2.63855">
        <ele>137</ele>
        <time>2019-09-08T08:19:40Z</time>
      </trkpt>
      <trkpt lat="48.40398" lon="2.63853">
        <ele>137</ele>
        <time>2019-09-08T08:20:06Z</time>
      </trkpt>
      <trkpt lat="48.40399" lon="2.63852">
        <ele>137</ele>
        <time>2019-09-08T08:20:29Z</time>
      </trkpt>
      <trkpt lat="48.40399" lon="2.63854">
        <ele>137</ele>
        <time>2019-09-08T08:20:44Z</time>
      </trkpt>
      <trkpt lat="48.40396" lon="2.63853">
        <ele>137</ele>
        <time>2019-09-08T08:20:57Z</time>
      </trkpt>
      <trkpt lat="48.40393" lon="2.63851">
        <ele>138</ele>
        <time>2019-09-08T08:21:09Z</time>
      </trkpt>
      <trkpt lat="48.40385" lon="2.63846">
        <ele>138</ele>
        <time>2019-09-08T08:21:22Z</time>
      </trkpt>
      <trkpt lat="48.40382" lon="2.63843">
        <ele>138</ele>
        <time>2019-09-08T08:21:48Z</time>
      </trkpt>
      <trkpt lat="48.40382" lon="2.63845">
        <ele>138</ele>
        <time>2019-09-08T08:22:06Z</time>
      </trkpt>
      <trkpt lat="48.4038" lon="2.63844">
        <ele>138</ele>
        <time>2019-09-08T08:22:34Z</time>
      </trkpt>
      <trkpt lat="48.40381" lon="2.63845">
        <ele>138</ele>
        <time>2019-09-08T08:22:55Z</time>
      </trkpt>
      <trkpt lat="48.40381" lon="2.63844">
        <ele>138</ele>
        <time>2019-09-08T08:23:14Z</time>
      </trkpt>
      <trkpt lat="48.40383" lon="2.63844">
        <ele>138</ele>
        <time>2019-09-08T08:23:35Z</time>
      </trkpt>
      <trkpt lat="48.40383" lon="2.63845">
        <ele>138</ele>
        <time>2019-09-08T08:23:36Z</time>
      </trkpt>
      <trkpt lat="48.40382" lon="2.6385">
        <ele>138</ele>
        <time>2019-09-08T08:23:49Z</time>
      </trkpt>
      <trkpt lat="48.4038" lon="2.6385">
        <ele>138</ele>
        <time>2019-09-08T08:24:09Z</time>
      </trkpt>
      <trkpt lat="48.4038" lon="2.63849">
        <ele>138</ele>
        <time>2019-09-08T08:24:29Z</time>
      </trkpt>
      <trkpt lat="48.40383" lon="2.63847">
        <ele>138</ele>
        <time>2019-09-08T08:24:41Z</time>
      </trkpt>
      <trkpt lat="48.40392" lon="2.6385">
        <ele>138</ele>
        <time>2019-09-08T08:24:48Z</time>
      </trkpt>
      <trkpt lat="48.40397" lon="2.63851">
        <ele>137</ele>
        <time>2019-09-08T08:24:52Z</time>
      </trkpt>
      <trkpt lat="48.40402" lon="2.63846">
        <ele>137</ele>
        <time>2019-09-08T08:24:58Z</time>
      </trkpt>
      <trkpt lat="48.4041" lon="2.63843">
        <ele>137</ele>
        <time>2019-09-08T08:25:03Z</time>
      </trkpt>
      <trkpt lat="48.40413" lon="2.63841">
        <ele>137</ele>
        <time>2019-09-08T08:25:05Z</time>
      </trkpt>
      <trkpt lat="48.40413" lon="2.63827">
        <ele>137</ele>
        <time>2019-09-08T08:25:10Z</time>
      </trkpt>
      <trkpt lat="48.40414" lon="2.63809">
        <ele>138</ele>
        <time>2019-09-08T08:25:17Z</time>
      </trkpt>
      <trkpt lat="48.40418" lon="2.63775">
        <ele>137</ele>
        <time>2019-09-08T08:25:26Z</time>
      </trkpt>
      <trkpt lat="48.40418" lon="2.63756">
        <ele>138</ele>
        <time>2019-09-08T08:25:30Z</time>
      </trkpt>
      <trkpt lat="48.40423" lon="2.63719">
        <ele>138</ele>
        <time>2019-09-08T08:25:37Z</time>
      </trkpt>
      <trkpt lat="48.40427" lon="2.63676">
        <ele>139</ele>
        <time>2019-09-08T08:25:45Z</time>
      </trkpt>
      <trkpt lat="48.40435" lon="2.63616">
        <ele>139</ele>
        <time>2019-09-08T08:25:56Z</time>
      </trkpt>
      <trkpt lat="48.40441" lon="2.63566">
        <ele>138</ele>
        <time>2019-09-08T08:26:06Z</time>
      </trkpt>
      <trkpt lat="48.40444" lon="2.6353">
        <ele>138</ele>
        <time>2019-09-08T08:26:12Z</time>
      </trkpt>
      <trkpt lat="48.40445" lon="2.63516">
        <ele>137</ele>
        <time>2019-09-08T08:26:14Z</time>
      </trkpt>
      <trkpt lat="48.40454" lon="2.63445">
        <ele>135</ele>
        <time>2019-09-08T08:26:25Z</time>
      </trkpt>
      <trkpt lat="48.40457" lon="2.63426">
        <ele>135</ele>
        <time>2019-09-08T08:26:28Z</time>
      </trkpt>
      <trkpt lat="48.40468" lon="2.63347">
        <ele>134</ele>
        <time>2019-09-08T08:26:41Z</time>
      </trkpt>
      <trkpt lat="48.40471" lon="2.63324">
        <ele>134</ele>
        <time>2019-09-08T08:26:45Z</time>
      </trkpt>
      <trkpt lat="48.40476" lon="2.63301">
        <ele>134</ele>
        <time>2019-09-08T08:26:49Z</time>
      </trkpt>
      <trkpt lat="48.40483" lon="2.63231">
        <ele>134</ele>
        <time>2019-09-08T08:27:00Z</time>
      </trkpt>
      <trkpt lat="48.40482" lon="2.63213">
        <ele>134</ele>
        <time>2019-09-08T08:27:03Z</time>
      </trkpt>
      <trkpt lat="48.40481" lon="2.63205">
        <ele>134</ele>
        <time>2019-09-08T08:27:07Z</time>
      </trkpt>
      <trkpt lat="48.40465" lon="2.632">
        <ele>134</ele>
        <time>2019-09-08T08:27:17Z</time>
      </trkpt>
      <trkpt lat="48.40458" lon="2.63183">
        <ele>134</ele>
        <time>2019-09-08T08:27:23Z</time>
      </trkpt>
      <trkpt lat="48.40449" lon="2.63129">
        <ele>135</ele>
        <time>2019-09-08T08:27:32Z</time>
      </trkpt>
      <trkpt lat="48.40446" lon="2.63109">
        <ele>135</ele>
        <time>2019-09-08T08:27:35Z</time>
      </trkpt>
      <trkpt lat="48.4044" lon="2.63057">
        <ele>136</ele>
        <time>2019-09-08T08:27:43Z</time>
      </trkpt>
      <trkpt lat="48.40421" lon="2.63024">
        <ele>138</ele>
        <time>2019-09-08T08:27:49Z</time>
      </trkpt>
      <trkpt lat="48.40402" lon="2.6299">
        <ele>140</ele>
        <time>2019-09-08T08:27:56Z</time>
      </trkpt>
      <trkpt lat="48.40383" lon="2.62977">
        <ele>140</ele>
        <time>2019-09-08T08:28:01Z</time>
      </trkpt>
      <trkpt lat="48.40343" lon="2.6294">
        <ele>140</ele>
        <time>2019-09-08T08:28:13Z</time>
      </trkpt>
      <trkpt lat="48.40308" lon="2.62908">
        <ele>142</ele>
        <time>2019-09-08T08:28:23Z</time>
      </trkpt>
      <trkpt lat="48.40291" lon="2.62901">
        <ele>142</ele>
        <time>2019-09-08T08:28:28Z</time>
      </trkpt>
      <trkpt lat="48.40281" lon="2.62874">
        <ele>142</ele>
        <time>2019-09-08T08:28:34Z</time>
      </trkpt>
      <trkpt lat="48.40291" lon="2.62807">
        <ele>142</ele>
        <time>2019-09-08T08:28:47Z</time>
      </trkpt>
      <trkpt lat="48.40296" lon="2.62778">
        <ele>142</ele>
        <time>2019-09-08T08:28:55Z</time>
      </trkpt>
      <trkpt lat="48.403" lon="2.62737">
        <ele>141</ele>
        <time>2019-09-08T08:29:01Z</time>
      </trkpt>
      <trkpt lat="48.40317" lon="2.62672">
        <ele>140</ele>
        <time>2019-09-08T08:29:12Z</time>
      </trkpt>
      <trkpt lat="48.40329" lon="2.62622">
        <ele>140</ele>
        <time>2019-09-08T08:29:22Z</time>
      </trkpt>
      <trkpt lat="48.40341" lon="2.62564">
        <ele>138</ele>
        <time>2019-09-08T08:29:32Z</time>
      </trkpt>
      <trkpt lat="48.40354" lon="2.62499">
        <ele>139</ele>
        <time>2019-09-08T08:29:44Z</time>
      </trkpt>
      <trkpt lat="48.40367" lon="2.62433">
        <ele>139</ele>
        <time>2019-09-08T08:29:56Z</time>
      </trkpt>
      <trkpt lat="48.40381" lon="2.62361">
        <ele>139</ele>
        <time>2019-09-08T08:30:08Z</time>
      </trkpt>
      <trkpt lat="48.40385" lon="2.62341">
        <ele>139</ele>
        <time>2019-09-08T08:30:11Z</time>
      </trkpt>
      <trkpt lat="48.40393" lon="2.62292">
        <ele>139</ele>
        <time>2019-09-08T08:30:18Z</time>
      </trkpt>
      <trkpt lat="48.40415" lon="2.62197">
        <ele>140</ele>
        <time>2019-09-08T08:30:32Z</time>
      </trkpt>
      <trkpt lat="48.40429" lon="2.62137">
        <ele>138</ele>
        <time>2019-09-08T08:30:42Z</time>
      </trkpt>
      <trkpt lat="48.40442" lon="2.62074">
        <ele>139</ele>
        <time>2019-09-08T08:30:53Z</time>
      </trkpt>
      <trkpt lat="48.40443" lon="2.62068">
        <ele>139</ele>
        <time>2019-09-08T08:30:54Z</time>
      </trkpt>
      <trkpt lat="48.40445" lon="2.62005">
        <ele>139</ele>
        <time>2019-09-08T08:31:02Z</time>
      </trkpt>
      <trkpt lat="48.40447" lon="2.61922">
        <ele>139</ele>
        <time>2019-09-08T08:31:13Z</time>
      </trkpt>
      <trkpt lat="48.40448" lon="2.61879">
        <ele>138</ele>
        <time>2019-09-08T08:31:19Z</time>
      </trkpt>
      <trkpt lat="48.40443" lon="2.61797">
        <ele>138</ele>
        <time>2019-09-08T08:31:31Z</time>
      </trkpt>
      <trkpt lat="48.40443" lon="2.61783">
        <ele>138</ele>
        <time>2019-09-08T08:31:33Z</time>
      </trkpt>
      <trkpt lat="48.40442" lon="2.61747">
        <ele>138</ele>
        <time>2019-09-08T08:31:38Z</time>
      </trkpt>
      <trkpt lat="48.4044" lon="2.61716">
        <ele>138</ele>
        <time>2019-09-08T08:31:42Z</time>
      </trkpt>
      <trkpt lat="48.40438" lon="2.61649">
        <ele>137</ele>
        <time>2019-09-08T08:31:51Z</time>
      </trkpt>
      <trkpt lat="48.40435" lon="2.61573">
        <ele>135</ele>
        <time>2019-09-08T08:32:01Z</time>
      </trkpt>
      <trkpt lat="48.40434" lon="2.61552">
        <ele>135</ele>
        <time>2019-09-08T08:32:04Z</time>
      </trkpt>
      <trkpt lat="48.40432" lon="2.6153">
        <ele>135</ele>
        <time>2019-09-08T08:32:07Z</time>
      </trkpt>
      <trkpt lat="48.40432" lon="2.61515">
        <ele>135</ele>
        <time>2019-09-08T08:32:09Z</time>
      </trkpt>
      <trkpt lat="48.40425" lon="2.61435">
        <ele>136</ele>
        <time>2019-09-08T08:32:21Z</time>
      </trkpt>
      <trkpt lat="48.40423" lon="2.61409">
        <ele>136</ele>
        <time>2019-09-08T08:32:26Z</time>
      </trkpt>
      <trkpt lat="48.40418" lon="2.61375">
        <ele>135</ele>
        <time>2019-09-08T08:32:31Z</time>
      </trkpt>
      <trkpt lat="48.40416" lon="2.61359">
        <ele>135</ele>
        <time>2019-09-08T08:32:33Z</time>
      </trkpt>
      <trkpt lat="48.40412" lon="2.61329">
        <ele>134</ele>
        <time>2019-09-08T08:32:37Z</time>
      </trkpt>
      <trkpt lat="48.40411" lon="2.61306">
        <ele>134</ele>
        <time>2019-09-08T08:32:41Z</time>
      </trkpt>
      <trkpt lat="48.40409" lon="2.61292">
        <ele>133</ele>
        <time>2019-09-08T08:32:43Z</time>
      </trkpt>
      <trkpt lat="48.40408" lon="2.61271">
        <ele>133</ele>
        <time>2019-09-08T08:32:46Z</time>
      </trkpt>
      <trkpt lat="48.40406" lon="2.61256">
        <ele>133</ele>
        <time>2019-09-08T08:32:48Z</time>
      </trkpt>
      <trkpt lat="48.40405" lon="2.61231">
        <ele>133</ele>
        <time>2019-09-08T08:32:51Z</time>
      </trkpt>
      <trkpt lat="48.40404" lon="2.61203">
        <ele>133</ele>
        <time>2019-09-08T08:32:55Z</time>
      </trkpt>
      <trkpt lat="48.40402" lon="2.61168">
        <ele>133</ele>
        <time>2019-09-08T08:33:00Z</time>
      </trkpt>
      <trkpt lat="48.40399" lon="2.61141">
        <ele>133</ele>
        <time>2019-09-08T08:33:04Z</time>
      </trkpt>
      <trkpt lat="48.40398" lon="2.61127">
        <ele>133</ele>
        <time>2019-09-08T08:33:06Z</time>
      </trkpt>
      <trkpt lat="48.40399" lon="2.61112">
        <ele>133</ele>
        <time>2019-09-08T08:33:08Z</time>
      </trkpt>
      <trkpt lat="48.40395" lon="2.61024">
        <ele>131</ele>
        <time>2019-09-08T08:33:20Z</time>
      </trkpt>
      <trkpt lat="48.40394" lon="2.61004">
        <ele>131</ele>
        <time>2019-09-08T08:33:23Z</time>
      </trkpt>
      <trkpt lat="48.4039" lon="2.60945">
        <ele>130</ele>
        <time>2019-09-08T08:33:32Z</time>
      </trkpt>
      <trkpt lat="48.40388" lon="2.60913">
        <ele>130</ele>
        <time>2019-09-08T08:33:38Z</time>
      </trkpt>
      <trkpt lat="48.40384" lon="2.60894">
        <ele>130</ele>
        <time>2019-09-08T08:33:41Z</time>
      </trkpt>
      <trkpt lat="48.40381" lon="2.60882">
        <ele>130</ele>
        <time>2019-09-08T08:33:43Z</time>
      </trkpt>
      <trkpt lat="48.40378" lon="2.60849">
        <ele>130</ele>
        <time>2019-09-08T08:33:48Z</time>
      </trkpt>
      <trkpt lat="48.40373" lon="2.60823">
        <ele>130</ele>
        <time>2019-09-08T08:33:52Z</time>
      </trkpt>
      <trkpt lat="48.40371" lon="2.60804">
        <ele>130</ele>
        <time>2019-09-08T08:33:55Z</time>
      </trkpt>
      <trkpt lat="48.40367" lon="2.60776">
        <ele>131</ele>
        <time>2019-09-08T08:33:59Z</time>
      </trkpt>
      <trkpt lat="48.40366" lon="2.60751">
        <ele>131</ele>
        <time>2019-09-08T08:34:03Z</time>
      </trkpt>
      <trkpt lat="48.40347" lon="2.60698">
        <ele>131</ele>
        <time>2019-09-08T08:34:13Z</time>
      </trkpt>
      <trkpt lat="48.40333" lon="2.60666">
        <ele>131</ele>
        <time>2019-09-08T08:34:20Z</time>
      </trkpt>
      <trkpt lat="48.40314" lon="2.6063">
        <ele>131</ele>
        <time>2019-09-08T08:34:27Z</time>
      </trkpt>
      <trkpt lat="48.40304" lon="2.6059">
        <ele>131</ele>
        <time>2019-09-08T08:34:35Z</time>
      </trkpt>
      <trkpt lat="48.40312" lon="2.60541">
        <ele>131</ele>
        <time>2019-09-08T08:34:45Z</time>
      </trkpt>
      <trkpt lat="48.40321" lon="2.60483">
        <ele>130</ele>
        <time>2019-09-08T08:34:57Z</time>
      </trkpt>
      <trkpt lat="48.40324" lon="2.60459">
        <ele>130</ele>
        <time>2019-09-08T08:35:01Z</time>
      </trkpt>
      <trkpt lat="48.4033" lon="2.60429">
        <ele>130</ele>
        <time>2019-09-08T08:35:05Z</time>
      </trkpt>
      <trkpt lat="48.4034" lon="2.60391">
        <ele>129</ele>
        <time>2019-09-08T08:35:11Z</time>
      </trkpt>
      <trkpt lat="48.40346" lon="2.60359">
        <ele>129</ele>
        <time>2019-09-08T08:35:17Z</time>
      </trkpt>
      <trkpt lat="48.40354" lon="2.60296">
        <ele>130</ele>
        <time>2019-09-08T08:35:28Z</time>
      </trkpt>
      <trkpt lat="48.40357" lon="2.60249">
        <ele>130</ele>
        <time>2019-09-08T08:35:37Z</time>
      </trkpt>
      <trkpt lat="48.40362" lon="2.60203">
        <ele>130</ele>
        <time>2019-09-08T08:35:46Z</time>
      </trkpt>
      <trkpt lat="48.40364" lon="2.60175">
        <ele>130</ele>
        <time>2019-09-08T08:35:51Z</time>
      </trkpt>
      <trkpt lat="48.40358" lon="2.60122">
        <ele>130</ele>
        <time>2019-09-08T08:36:00Z</time>
      </trkpt>
      <trkpt lat="48.40355" lon="2.60108">
        <ele>130</ele>
        <time>2019-09-08T08:36:02Z</time>
      </trkpt>
      <trkpt lat="48.40358" lon="2.6004">
        <ele>129</ele>
        <time>2019-09-08T08:36:11Z</time>
      </trkpt>
      <trkpt lat="48.40359" lon="2.60018">
        <ele>129</ele>
        <time>2019-09-08T08:36:14Z</time>
      </trkpt>
      <trkpt lat="48.40359" lon="2.5998">
        <ele>128</ele>
        <time>2019-09-08T08:36:19Z</time>
      </trkpt>
      <trkpt lat="48.40365" lon="2.59905">
        <ele>127</ele>
        <time>2019-09-08T08:36:30Z</time>
      </trkpt>
      <trkpt lat="48.40374" lon="2.59841">
        <ele>126</ele>
        <time>2019-09-08T08:36:39Z</time>
      </trkpt>
      <trkpt lat="48.40378" lon="2.5982">
        <ele>125</ele>
        <time>2019-09-08T08:36:42Z</time>
      </trkpt>
      <trkpt lat="48.40388" lon="2.59799">
        <ele>125</ele>
        <time>2019-09-08T08:36:44Z</time>
      </trkpt>
      <trkpt lat="48.40407" lon="2.5977">
        <ele>124</ele>
        <time>2019-09-08T08:36:47Z</time>
      </trkpt>
      <trkpt lat="48.40429" lon="2.59714">
        <ele>122</ele>
        <time>2019-09-08T08:36:54Z</time>
      </trkpt>
      <trkpt lat="48.40434" lon="2.59692">
        <ele>122</ele>
        <time>2019-09-08T08:36:57Z</time>
      </trkpt>
      <trkpt lat="48.40441" lon="2.59659">
        <ele>120</ele>
        <time>2019-09-08T08:37:02Z</time>
      </trkpt>
      <trkpt lat="48.40461" lon="2.59624">
        <ele>119</ele>
        <time>2019-09-08T08:37:08Z</time>
      </trkpt>
      <trkpt lat="48.40477" lon="2.59576">
        <ele>116</ele>
        <time>2019-09-08T08:37:14Z</time>
      </trkpt>
      <trkpt lat="48.40482" lon="2.59559">
        <ele>115</ele>
        <time>2019-09-08T08:37:16Z</time>
      </trkpt>
      <trkpt lat="48.40486" lon="2.59543">
        <ele>115</ele>
        <time>2019-09-08T08:37:18Z</time>
      </trkpt>
      <trkpt lat="48.4049" lon="2.59525">
        <ele>113</ele>
        <time>2019-09-08T08:37:20Z</time>
      </trkpt>
      <trkpt lat="48.40494" lon="2.59481">
        <ele>110</ele>
        <time>2019-09-08T08:37:25Z</time>
      </trkpt>
      <trkpt lat="48.40492" lon="2.59444">
        <ele>110</ele>
        <time>2019-09-08T08:37:29Z</time>
      </trkpt>
      <trkpt lat="48.40488" lon="2.59409">
        <ele>107</ele>
        <time>2019-09-08T08:37:33Z</time>
      </trkpt>
      <trkpt lat="48.40484" lon="2.59359">
        <ele>107</ele>
        <time>2019-09-08T08:37:39Z</time>
      </trkpt>
      <trkpt lat="48.40475" lon="2.59274">
        <ele>104</ele>
        <time>2019-09-08T08:37:50Z</time>
      </trkpt>
      <trkpt lat="48.40473" lon="2.59266">
        <ele>104</ele>
        <time>2019-09-08T08:37:51Z</time>
      </trkpt>
      <trkpt lat="48.40469" lon="2.59235">
        <ele>102</ele>
        <time>2019-09-08T08:37:55Z</time>
      </trkpt>
      <trkpt lat="48.40464" lon="2.59201">
        <ele>102</ele>
        <time>2019-09-08T08:38:00Z</time>
      </trkpt>
      <trkpt lat="48.40462" lon="2.59174">
        <ele>102</ele>
        <time>2019-09-08T08:38:04Z</time>
      </trkpt>
      <trkpt lat="48.40463" lon="2.59114">
        <ele>99</ele>
        <time>2019-09-08T08:38:14Z</time>
      </trkpt>
      <trkpt lat="48.40466" lon="2.59041">
        <ele>97</ele>
        <time>2019-09-08T08:38:26Z</time>
      </trkpt>
      <trkpt lat="48.40467" lon="2.59027">
        <ele>96</ele>
        <time>2019-09-08T08:38:28Z</time>
      </trkpt>
      <trkpt lat="48.40472" lon="2.5897">
        <ele>95</ele>
        <time>2019-09-08T08:38:38Z</time>
      </trkpt>
      <trkpt lat="48.40486" lon="2.58952">
        <ele>95</ele>
        <time>2019-09-08T08:38:42Z</time>
      </trkpt>
      <trkpt lat="48.40517" lon="2.58947">
        <ele>99</ele>
        <time>2019-09-08T08:38:56Z</time>
      </trkpt>
      <trkpt lat="48.40533" lon="2.58967">
        <ele>100</ele>
        <time>2019-09-08T08:39:07Z</time>
      </trkpt>
      <trkpt lat="48.40537" lon="2.58976">
        <ele>101</ele>
        <time>2019-09-08T08:39:11Z</time>
      </trkpt>
      <trkpt lat="48.4056" lon="2.58996">
        <ele>103</ele>
        <time>2019-09-08T08:39:25Z</time>
      </trkpt>
      <trkpt lat="48.40566" lon="2.58997">
        <ele>103</ele>
        <time>2019-09-08T08:39:28Z</time>
      </trkpt>
      <trkpt lat="48.40572" lon="2.58995">
        <ele>104</ele>
        <time>2019-09-08T08:39:32Z</time>
      </trkpt>
      <trkpt lat="48.40593" lon="2.58993">
        <ele>109</ele>
        <time>2019-09-08T08:39:47Z</time>
      </trkpt>
      <trkpt lat="48.40608" lon="2.59001">
        <ele>111</ele>
        <time>2019-09-08T08:39:57Z</time>
      </trkpt>
      <trkpt lat="48.40622" lon="2.59023">
        <ele>113</ele>
        <time>2019-09-08T08:40:13Z</time>
      </trkpt>
      <trkpt lat="48.40623" lon="2.59029">
        <ele>113</ele>
        <time>2019-09-08T08:40:17Z</time>
      </trkpt>
      <trkpt lat="48.40628" lon="2.59053">
        <ele>114</ele>
        <time>2019-09-08T08:40:30Z</time>
      </trkpt>
      <trkpt lat="48.40632" lon="2.59068">
        <ele>114</ele>
        <time>2019-09-08T08:40:36Z</time>
      </trkpt>
      <trkpt lat="48.40633" lon="2.59077">
        <ele>114</ele>
        <time>2019-09-08T08:40:39Z</time>
      </trkpt>
      <trkpt lat="48.40636" lon="2.59098">
        <ele>116</ele>
        <time>2019-09-08T08:40:44Z</time>
      </trkpt>
      <trkpt lat="48.40631" lon="2.59131">
        <ele>116</ele>
        <time>2019-09-08T08:41:00Z</time>
      </trkpt>
      <trkpt lat="48.40629" lon="2.59134">
        <ele>116</ele>
        <time>2019-09-08T08:41:02Z</time>
      </trkpt>
      <trkpt lat="48.40624" lon="2.59157">
        <ele>116</ele>
        <time>2019-09-08T08:41:15Z</time>
      </trkpt>
      <trkpt lat="48.40625" lon="2.59175">
        <ele>119</ele>
        <time>2019-09-08T08:41:28Z</time>
      </trkpt>
      <trkpt lat="48.40629" lon="2.59181">
        <ele>119</ele>
        <time>2019-09-08T08:41:36Z</time>
      </trkpt>
      <trkpt lat="48.40635" lon="2.59187">
        <ele>119</ele>
        <time>2019-09-08T08:41:42Z</time>
      </trkpt>
      <trkpt lat="48.40653" lon="2.5919">
        <ele>120</ele>
        <time>2019-09-08T08:41:56Z</time>
      </trkpt>
      <trkpt lat="48.4067" lon="2.59209">
        <ele>120</ele>
        <time>2019-09-08T08:42:06Z</time>
      </trkpt>
      <trkpt lat="48.40679" lon="2.59204">
        <ele>120</ele>
        <time>2019-09-08T08:42:09Z</time>
      </trkpt>
      <trkpt lat="48.40693" lon="2.5919">
        <ele>120</ele>
        <time>2019-09-08T08:42:12Z</time>
      </trkpt>
      <trkpt lat="48.40714" lon="2.59211">
        <ele>119</ele>
        <time>2019-09-08T08:42:17Z</time>
      </trkpt>
      <trkpt lat="48.40714" lon="2.59239">
        <ele>119</ele>
        <time>2019-09-08T08:42:20Z</time>
      </trkpt>
      <trkpt lat="48.40749" lon="2.59283">
        <ele>116</ele>
        <time>2019-09-08T08:42:26Z</time>
      </trkpt>
      <trkpt lat="48.40786" lon="2.59283">
        <ele>108</ele>
        <time>2019-09-08T08:42:30Z</time>
      </trkpt>
      <trkpt lat="48.40879" lon="2.59224">
        <ele>98</ele>
        <time>2019-09-08T08:42:39Z</time>
      </trkpt>
      <trkpt lat="48.40899" lon="2.59207">
        <ele>96</ele>
        <time>2019-09-08T08:42:41Z</time>
      </trkpt>
      <trkpt lat="48.4096" lon="2.59183">
        <ele>88</ele>
        <time>2019-09-08T08:42:48Z</time>
      </trkpt>
      <trkpt lat="48.40981" lon="2.59197">
        <ele>88</ele>
        <time>2019-09-08T08:42:55Z</time>
      </trkpt>
      <trkpt lat="48.40982" lon="2.59224">
        <ele>87</ele>
        <time>2019-09-08T08:43:02Z</time>
      </trkpt>
      <trkpt lat="48.40983" lon="2.59266">
        <ele>86</ele>
        <time>2019-09-08T08:43:14Z</time>
      </trkpt>
      <trkpt lat="48.40983" lon="2.59327">
        <ele>85</ele>
        <time>2019-09-08T08:43:26Z</time>
      </trkpt>
      <trkpt lat="48.40978" lon="2.59403">
        <ele>84</ele>
        <time>2019-09-08T08:43:39Z</time>
      </trkpt>
      <trkpt lat="48.40976" lon="2.59446">
        <ele>84</ele>
        <time>2019-09-08T08:43:45Z</time>
      </trkpt>
      <trkpt lat="48.40968" lon="2.5949">
        <ele>85</ele>
        <time>2019-09-08T08:43:52Z</time>
      </trkpt>
      <trkpt lat="48.40964" lon="2.59564">
        <ele>84</ele>
        <time>2019-09-08T08:44:04Z</time>
      </trkpt>
      <trkpt lat="48.40994" lon="2.59624">
        <ele>84</ele>
        <time>2019-09-08T08:44:18Z</time>
      </trkpt>
      <trkpt lat="48.4104" lon="2.59707">
        <ele>83</ele>
        <time>2019-09-08T08:44:34Z</time>
      </trkpt>
      <trkpt lat="48.41066" lon="2.59754">
        <ele>84</ele>
        <time>2019-09-08T08:44:44Z</time>
      </trkpt>
      <trkpt lat="48.41093" lon="2.59807">
        <ele>84</ele>
        <time>2019-09-08T08:44:54Z</time>
      </trkpt>
      <trkpt lat="48.41132" lon="2.59877">
        <ele>84</ele>
        <time>2019-09-08T08:45:08Z</time>
      </trkpt>
      <trkpt lat="48.41162" lon="2.59929">
        <ele>85</ele>
        <time>2019-09-08T08:45:18Z</time>
      </trkpt>
      <trkpt lat="48.41192" lon="2.59988">
        <ele>84</ele>
        <time>2019-09-08T08:45:30Z</time>
      </trkpt>
      <trkpt lat="48.4122" lon="2.60034">
        <ele>83</ele>
        <time>2019-09-08T08:45:42Z</time>
      </trkpt>
      <trkpt lat="48.41248" lon="2.60086">
        <ele>81</ele>
        <time>2019-09-08T08:45:53Z</time>
      </trkpt>
      <trkpt lat="48.41282" lon="2.6015">
        <ele>82</ele>
        <time>2019-09-08T08:46:07Z</time>
      </trkpt>
      <trkpt lat="48.41309" lon="2.60199">
        <ele>82</ele>
        <time>2019-09-08T08:46:19Z</time>
      </trkpt>
      <trkpt lat="48.41344" lon="2.60262">
        <ele>81</ele>
        <time>2019-09-08T08:46:32Z</time>
      </trkpt>
      <trkpt lat="48.41378" lon="2.60324">
        <ele>82</ele>
        <time>2019-09-08T08:46:46Z</time>
      </trkpt>
      <trkpt lat="48.41408" lon="2.60374">
        <ele>83</ele>
        <time>2019-09-08T08:46:59Z</time>
      </trkpt>
      <trkpt lat="48.41437" lon="2.60429">
        <ele>83</ele>
        <time>2019-09-08T08:47:11Z</time>
      </trkpt>
      <trkpt lat="48.41458" lon="2.60468">
        <ele>83</ele>
        <time>2019-09-08T08:47:20Z</time>
      </trkpt>
      <trkpt lat="48.41491" lon="2.60528">
        <ele>84</ele>
        <time>2019-09-08T08:47:34Z</time>
      </trkpt>
      <trkpt lat="48.41522" lon="2.60584">
        <ele>84</ele>
        <time>2019-09-08T08:47:48Z</time>
      </trkpt>
      <trkpt lat="48.41549" lon="2.60631">
        <ele>85</ele>
        <time>2019-09-08T08:47:59Z</time>
      </trkpt>
      <trkpt lat="48.41576" lon="2.6068">
        <ele>87</ele>
        <time>2019-09-08T08:48:10Z</time>
      </trkpt>
      <trkpt lat="48.41606" lon="2.60734">
        <ele>87</ele>
        <time>2019-09-08T08:48:24Z</time>
      </trkpt>
      <trkpt lat="48.41616" lon="2.60757">
        <ele>89</ele>
        <time>2019-09-08T08:48:37Z</time>
      </trkpt>
      <trkpt lat="48.41617" lon="2.60759">
        <ele>89</ele>
        <time>2019-09-08T08:48:51Z</time>
      </trkpt>
      <trkpt lat="48.41619" lon="2.6076">
        <ele>89</ele>
        <time>2019-09-08T08:49:18Z</time>
      </trkpt>
      <trkpt lat="48.41619" lon="2.60761">
        <ele>89</ele>
        <time>2019-09-08T08:49:45Z</time>
      </trkpt>
      <trkpt lat="48.41619" lon="2.60762">
        <ele>89</ele>
        <time>2019-09-08T08:49:50Z</time>
      </trkpt>
      <trkpt lat="48.41623" lon="2.60793">
        <ele>89</ele>
        <time>2019-09-08T08:49:59Z</time>
      </trkpt>
      <trkpt lat="48.41624" lon="2.6081">
        <ele>89</ele>
        <time>2019-09-08T08:50:03Z</time>
      </trkpt>
      <trkpt lat="48.4163" lon="2.60872">
        <ele>92</ele>
        <time>2019-09-08T08:50:18Z</time>
      </trkpt>
      <trkpt lat="48.4163" lon="2.60874">
        <ele>92</ele>
        <time>2019-09-08T08:50:19Z</time>
      </trkpt>
      <trkpt lat="48.41632" lon="2.6088">
        <ele>92</ele>
        <time>2019-09-08T08:50:21Z</time>
      </trkpt>
      <trkpt lat="48.41636" lon="2.60924">
        <ele>94</ele>
        <time>2019-09-08T08:50:34Z</time>
      </trkpt>
      <trkpt lat="48.41647" lon="2.60978">
        <ele>95</ele>
        <time>2019-09-08T08:50:47Z</time>
      </trkpt>
      <trkpt lat="48.41654" lon="2.61025">
        <ele>100</ele>
        <time>2019-09-08T08:51:01Z</time>
      </trkpt>
      <trkpt lat="48.4166" lon="2.61057">
        <ele>101</ele>
        <time>2019-09-08T08:51:16Z</time>
      </trkpt>
      <trkpt lat="48.41665" lon="2.61084">
        <ele>102</ele>
        <time>2019-09-08T08:51:28Z</time>
      </trkpt>
      <trkpt lat="48.41666" lon="2.61121">
        <ele>107</ele>
        <time>2019-09-08T08:51:41Z</time>
      </trkpt>
      <trkpt lat="48.41665" lon="2.61169">
        <ele>106</ele>
        <time>2019-09-08T08:51:53Z</time>
      </trkpt>
      <trkpt lat="48.41666" lon="2.61229">
        <ele>109</ele>
        <time>2019-09-08T08:52:04Z</time>
      </trkpt>
      <trkpt lat="48.41662" lon="2.61298">
        <ele>109</ele>
        <time>2019-09-08T08:52:16Z</time>
      </trkpt>
      <trkpt lat="48.41658" lon="2.61365">
        <ele>107</ele>
        <time>2019-09-08T08:52:27Z</time>
      </trkpt>
      <trkpt lat="48.41656" lon="2.61423">
        <ele>104</ele>
        <time>2019-09-08T08:52:37Z</time>
      </trkpt>
      <trkpt lat="48.41647" lon="2.61504">
        <ele>104</ele>
        <time>2019-09-08T08:52:51Z</time>
      </trkpt>
      <trkpt lat="48.41643" lon="2.61575">
        <ele>105</ele>
        <time>2019-09-08T08:53:05Z</time>
      </trkpt>
      <trkpt lat="48.41642" lon="2.61583">
        <ele>105</ele>
        <time>2019-09-08T08:53:07Z</time>
      </trkpt>
      <trkpt lat="48.41641" lon="2.61616">
        <ele>106</ele>
        <time>2019-09-08T08:53:17Z</time>
      </trkpt>
      <trkpt lat="48.41642" lon="2.61626">
        <ele>106</ele>
        <time>2019-09-08T08:53:20Z</time>
      </trkpt>
      <trkpt lat="48.41633" lon="2.61697">
        <ele>107</ele>
        <time>2019-09-08T08:53:34Z</time>
      </trkpt>
      <trkpt lat="48.4163" lon="2.61743">
        <ele>108</ele>
        <time>2019-09-08T08:53:43Z</time>
      </trkpt>
      <trkpt lat="48.41628" lon="2.61795">
        <ele>108</ele>
        <time>2019-09-08T08:53:54Z</time>
      </trkpt>
      <trkpt lat="48.41622" lon="2.61832">
        <ele>108</ele>
        <time>2019-09-08T08:54:05Z</time>
      </trkpt>
      <trkpt lat="48.41622" lon="2.61835">
        <ele>109</ele>
        <time>2019-09-08T08:54:06Z</time>
      </trkpt>
      <trkpt lat="48.41618" lon="2.6189">
        <ele>111</ele>
        <time>2019-09-08T08:54:21Z</time>
      </trkpt>
      <trkpt lat="48.41617" lon="2.61892">
        <ele>111</ele>
        <time>2019-09-08T08:54:22Z</time>
      </trkpt>
      <trkpt lat="48.41609" lon="2.61927">
        <ele>112</ele>
        <time>2019-09-08T08:54:34Z</time>
      </trkpt>
      <trkpt lat="48.41606" lon="2.61934">
        <ele>112</ele>
        <time>2019-09-08T08:54:37Z</time>
      </trkpt>
      <trkpt lat="48.41615" lon="2.61945">
        <ele>111</ele>
        <time>2019-09-08T08:54:43Z</time>
      </trkpt>
      <trkpt lat="48.41681" lon="2.62019">
        <ele>105</ele>
        <time>2019-09-08T08:54:57Z</time>
      </trkpt>
      <trkpt lat="48.41715" lon="2.62056">
        <ele>103</ele>
        <time>2019-09-08T08:55:07Z</time>
      </trkpt>
      <trkpt lat="48.41716" lon="2.62057">
        <ele>103</ele>
        <time>2019-09-08T08:55:08Z</time>
      </trkpt>
      <trkpt lat="48.41718" lon="2.6206">
        <ele>103</ele>
        <time>2019-09-08T08:55:11Z</time>
      </trkpt>
      <trkpt lat="48.4174" lon="2.62082">
        <ele>102</ele>
        <time>2019-09-08T08:55:20Z</time>
      </trkpt>
      <trkpt lat="48.41755" lon="2.62099">
        <ele>100</ele>
        <time>2019-09-08T08:55:26Z</time>
      </trkpt>
      <trkpt lat="48.41791" lon="2.6213">
        <ele>100</ele>
        <time>2019-09-08T08:55:38Z</time>
      </trkpt>
      <trkpt lat="48.4182" lon="2.62157">
        <ele>99</ele>
        <time>2019-09-08T08:55:46Z</time>
      </trkpt>
      <trkpt lat="48.41874" lon="2.62209">
        <ele>97</ele>
        <time>2019-09-08T08:55:59Z</time>
      </trkpt>
      <trkpt lat="48.41891" lon="2.62226">
        <ele>97</ele>
        <time>2019-09-08T08:56:03Z</time>
      </trkpt>
      <trkpt lat="48.41902" lon="2.62236">
        <ele>97</ele>
        <time>2019-09-08T08:56:06Z</time>
      </trkpt>
      <trkpt lat="48.41959" lon="2.62285">
        <ele>99</ele>
        <time>2019-09-08T08:56:21Z</time>
      </trkpt>
      <trkpt lat="48.41986" lon="2.62305">
        <ele>99</ele>
        <time>2019-09-08T08:56:28Z</time>
      </trkpt>
      <trkpt lat="48.4204" lon="2.62356">
        <ele>101</ele>
        <time>2019-09-08T08:56:43Z</time>
      </trkpt>
      <trkpt lat="48.42078" lon="2.62385">
        <ele>101</ele>
        <time>2019-09-08T08:56:54Z</time>
      </trkpt>
      <trkpt lat="48.42092" lon="2.62385">
        <ele>101</ele>
        <time>2019-09-08T08:56:59Z</time>
      </trkpt>
      <trkpt lat="48.42112" lon="2.62367">
        <ele>102</ele>
        <time>2019-09-08T08:57:11Z</time>
      </trkpt>
      <trkpt lat="48.42113" lon="2.62367">
        <ele>102</ele>
        <time>2019-09-08T08:57:12Z</time>
      </trkpt>
      <trkpt lat="48.42136" lon="2.62351">
        <ele>102</ele>
        <time>2019-09-08T08:57:23Z</time>
      </trkpt>
      <trkpt lat="48.42146" lon="2.62337">
        <ele>102</ele>
        <time>2019-09-08T08:57:28Z</time>
      </trkpt>
      <trkpt lat="48.42169" lon="2.62304">
        <ele>102</ele>
        <time>2019-09-08T08:57:39Z</time>
      </trkpt>
      <trkpt lat="48.42201" lon="2.62262">
        <ele>101</ele>
        <time>2019-09-08T08:57:52Z</time>
      </trkpt>
      <trkpt lat="48.42223" lon="2.62226">
        <ele>98</ele>
        <time>2019-09-08T08:58:02Z</time>
      </trkpt>
      <trkpt lat="48.42249" lon="2.62183">
        <ele>97</ele>
        <time>2019-09-08T08:58:13Z</time>
      </trkpt>
      <trkpt lat="48.42279" lon="2.62139">
        <ele>100</ele>
        <time>2019-09-08T08:58:26Z</time>
      </trkpt>
      <trkpt lat="48.42303" lon="2.62105">
        <ele>101</ele>
        <time>2019-09-08T08:58:37Z</time>
      </trkpt>
      <trkpt lat="48.42313" lon="2.62088">
        <ele>101</ele>
        <time>2019-09-08T08:58:41Z</time>
      </trkpt>
      <trkpt lat="48.42351" lon="2.62054">
        <ele>103</ele>
        <time>2019-09-08T08:58:54Z</time>
      </trkpt>
      <trkpt lat="48.42377" lon="2.62057">
        <ele>103</ele>
        <time>2019-09-08T08:59:06Z</time>
      </trkpt>
      <trkpt lat="48.4241" lon="2.62069">
        <ele>103</ele>
        <time>2019-09-08T08:59:19Z</time>
      </trkpt>
      <trkpt lat="48.42444" lon="2.62076">
        <ele>105</ele>
        <time>2019-09-08T08:59:34Z</time>
      </trkpt>
      <trkpt lat="48.42474" lon="2.62085">
        <ele>107</ele>
        <time>2019-09-08T08:59:47Z</time>
      </trkpt>
      <trkpt lat="48.425" lon="2.62092">
        <ele>111</ele>
        <time>2019-09-08T09:00:01Z</time>
      </trkpt>
      <trkpt lat="48.42522" lon="2.62104">
        <ele>113</ele>
        <time>2019-09-08T09:00:13Z</time>
      </trkpt>
      <trkpt lat="48.42528" lon="2.62106">
        <ele>113</ele>
        <time>2019-09-08T09:00:17Z</time>
      </trkpt>
      <trkpt lat="48.42548" lon="2.62112">
        <ele>115</ele>
        <time>2019-09-08T09:00:30Z</time>
      </trkpt>
      <trkpt lat="48.42566" lon="2.62113">
        <ele>116</ele>
        <time>2019-09-08T09:00:45Z</time>
      </trkpt>
      <trkpt lat="48.42586" lon="2.62117">
        <ele>122</ele>
        <time>2019-09-08T09:00:59Z</time>
      </trkpt>
      <trkpt lat="48.42598" lon="2.62124">
        <ele>123</ele>
        <time>2019-09-08T09:01:08Z</time>
      </trkpt>
      <trkpt lat="48.4261" lon="2.62123">
        <ele>123</ele>
        <time>2019-09-08T09:01:17Z</time>
      </trkpt>
      <trkpt lat="48.42624" lon="2.62127">
        <ele>124</ele>
        <time>2019-09-08T09:01:28Z</time>
      </trkpt>
      <trkpt lat="48.4264" lon="2.62122">
        <ele>125</ele>
        <time>2019-09-08T09:01:41Z</time>
      </trkpt>
      <trkpt lat="48.42641" lon="2.62122">
        <ele>125</ele>
        <time>2019-09-08T09:01:42Z</time>
      </trkpt>
      <trkpt lat="48.42658" lon="2.6212">
        <ele>126</ele>
        <time>2019-09-08T09:01:57Z</time>
      </trkpt>
      <trkpt lat="48.42674" lon="2.62125">
        <ele>132</ele>
        <time>2019-09-08T09:02:11Z</time>
      </trkpt>
      <trkpt lat="48.42689" lon="2.62133">
        <ele>132</ele>
        <time>2019-09-08T09:02:25Z</time>
      </trkpt>
      <trkpt lat="48.42712" lon="2.62149">
        <ele>133</ele>
        <time>2019-09-08T09:02:39Z</time>
      </trkpt>
      <trkpt lat="48.42734" lon="2.62158">
        <ele>134</ele>
        <time>2019-09-08T09:02:54Z</time>
      </trkpt>
      <trkpt lat="48.42761" lon="2.62156">
        <ele>137</ele>
        <time>2019-09-08T09:03:08Z</time>
      </trkpt>
      <trkpt lat="48.42775" lon="2.62148">
        <ele>137</ele>
        <time>2019-09-08T09:03:20Z</time>
      </trkpt>
      <trkpt lat="48.42777" lon="2.6215">
        <ele>137</ele>
        <time>2019-09-08T09:03:45Z</time>
      </trkpt>
      <trkpt lat="48.42785" lon="2.62143">
        <ele>137</ele>
        <time>2019-09-08T09:03:59Z</time>
      </trkpt>
      <trkpt lat="48.42796" lon="2.62137">
        <ele>137</ele>
        <time>2019-09-08T09:04:10Z</time>
      </trkpt>
      <trkpt lat="48.42814" lon="2.62118">
        <ele>138</ele>
        <time>2019-09-08T09:04:23Z</time>
      </trkpt>
      <trkpt lat="48.42849" lon="2.62083">
        <ele>139</ele>
        <time>2019-09-08T09:04:37Z</time>
      </trkpt>
      <trkpt lat="48.42896" lon="2.6203">
        <ele>139</ele>
        <time>2019-09-08T09:04:48Z</time>
      </trkpt>
      <trkpt lat="48.42933" lon="2.62054">
        <ele>138</ele>
        <time>2019-09-08T09:04:59Z</time>
      </trkpt>
      <trkpt lat="48.42978" lon="2.6209">
        <ele>138</ele>
        <time>2019-09-08T09:05:10Z</time>
      </trkpt>
      <trkpt lat="48.43026" lon="2.62136">
        <ele>136</ele>
        <time>2019-09-08T09:05:24Z</time>
      </trkpt>
      <trkpt lat="48.43068" lon="2.6218">
        <ele>138</ele>
        <time>2019-09-08T09:05:36Z</time>
      </trkpt>
      <trkpt lat="48.43117" lon="2.62228">
        <ele>138</ele>
        <time>2019-09-08T09:05:49Z</time>
      </trkpt>
      <trkpt lat="48.43141" lon="2.62249">
        <ele>137</ele>
        <time>2019-09-08T09:05:55Z</time>
      </trkpt>
      <trkpt lat="48.43172" lon="2.62265">
        <ele>135</ele>
        <time>2019-09-08T09:06:04Z</time>
      </trkpt>
      <trkpt lat="48.432" lon="2.62325">
        <ele>135</ele>
        <time>2019-09-08T09:06:10Z</time>
      </trkpt>
      <trkpt lat="48.43213" lon="2.62343">
        <ele>134</ele>
        <time>2019-09-08T09:06:12Z</time>
      </trkpt>
      <trkpt lat="48.43333" lon="2.62418">
        <ele>117</ele>
        <time>2019-09-08T09:06:19Z</time>
      </trkpt>
      <trkpt lat="48.43341" lon="2.62414">
        <ele>116</ele>
        <time>2019-09-08T09:06:20Z</time>
      </trkpt>
      <trkpt lat="48.43379" lon="2.62396">
        <ele>112</ele>
        <time>2019-09-08T09:06:24Z</time>
      </trkpt>
      <trkpt lat="48.43453" lon="2.62415">
        <ele>103</ele>
        <time>2019-09-08T09:06:31Z</time>
      </trkpt>
      <trkpt lat="48.43555" lon="2.62419">
        <ele>99</ele>
        <time>2019-09-08T09:06:42Z</time>
      </trkpt>
      <trkpt lat="48.43654" lon="2.62399">
        <ele>98</ele>
        <time>2019-09-08T09:06:55Z</time>
      </trkpt>
      <trkpt lat="48.43709" lon="2.62393">
        <ele>97</ele>
        <time>2019-09-08T09:07:04Z</time>
      </trkpt>
      <trkpt lat="48.438" lon="2.62393">
        <ele>96</ele>
        <time>2019-09-08T09:07:19Z</time>
      </trkpt>
      <trkpt lat="48.43806" lon="2.62394">
        <ele>96</ele>
        <time>2019-09-08T09:07:20Z</time>
      </trkpt>
      <trkpt lat="48.43882" lon="2.62403">
        <ele>96</ele>
        <time>2019-09-08T09:07:33Z</time>
      </trkpt>
      <trkpt lat="48.43924" lon="2.6241">
        <ele>96</ele>
        <time>2019-09-08T09:07:40Z</time>
      </trkpt>
      <trkpt lat="48.43966" lon="2.62413">
        <ele>96</ele>
        <time>2019-09-08T09:07:48Z</time>
      </trkpt>
      <trkpt lat="48.44023" lon="2.62421">
        <ele>95</ele>
        <time>2019-09-08T09:07:59Z</time>
      </trkpt>
      <trkpt lat="48.44072" lon="2.62424">
        <ele>93</ele>
        <time>2019-09-08T09:08:08Z</time>
      </trkpt>
      <trkpt lat="48.4409" lon="2.62434">
        <ele>92</ele>
        <time>2019-09-08T09:08:12Z</time>
      </trkpt>
      <trkpt lat="48.44115" lon="2.62489">
        <ele>92</ele>
        <time>2019-09-08T09:08:23Z</time>
      </trkpt>
      <trkpt lat="48.44132" lon="2.62536">
        <ele>92</ele>
        <time>2019-09-08T09:08:34Z</time>
      </trkpt>
      <trkpt lat="48.44152" lon="2.62595">
        <ele>91</ele>
        <time>2019-09-08T09:08:46Z</time>
      </trkpt>
      <trkpt lat="48.44172" lon="2.62654">
        <ele>89</ele>
        <time>2019-09-08T09:08:57Z</time>
      </trkpt>
      <trkpt lat="48.44192" lon="2.62717">
        <ele>88</ele>
        <time>2019-09-08T09:09:09Z</time>
      </trkpt>
      <trkpt lat="48.44208" lon="2.62774">
        <ele>88</ele>
        <time>2019-09-08T09:09:20Z</time>
      </trkpt>
      <trkpt lat="48.4422" lon="2.62828">
        <ele>88</ele>
        <time>2019-09-08T09:09:31Z</time>
      </trkpt>
      <trkpt lat="48.44236" lon="2.62884">
        <ele>91</ele>
        <time>2019-09-08T09:09:42Z</time>
      </trkpt>
      <trkpt lat="48.44277" lon="2.62961">
        <ele>90</ele>
        <time>2019-09-08T09:09:55Z</time>
      </trkpt>
      <trkpt lat="48.44318" lon="2.6302">
        <ele>91</ele>
        <time>2019-09-08T09:10:08Z</time>
      </trkpt>
      <trkpt lat="48.44345" lon="2.63089">
        <ele>91</ele>
        <time>2019-09-08T09:10:20Z</time>
      </trkpt>
      <trkpt lat="48.44368" lon="2.63149">
        <ele>91</ele>
        <time>2019-09-08T09:10:33Z</time>
      </trkpt>
      <trkpt lat="48.44384" lon="2.632">
        <ele>91</ele>
        <time>2019-09-08T09:10:46Z</time>
      </trkpt>
      <trkpt lat="48.44399" lon="2.6326">
        <ele>91</ele>
        <time>2019-09-08T09:10:58Z</time>
      </trkpt>
      <trkpt lat="48.44408" lon="2.63303">
        <ele>92</ele>
        <time>2019-09-08T09:11:07Z</time>
      </trkpt>
      <trkpt lat="48.44417" lon="2.63351">
        <ele>90</ele>
        <time>2019-09-08T09:11:18Z</time>
      </trkpt>
      <trkpt lat="48.44436" lon="2.63423">
        <ele>91</ele>
        <time>2019-09-08T09:11:31Z</time>
      </trkpt>
      <trkpt lat="48.44459" lon="2.63484">
        <ele>91</ele>
        <time>2019-09-08T09:11:43Z</time>
      </trkpt>
      <trkpt lat="48.44483" lon="2.63559">
        <ele>91</ele>
        <time>2019-09-08T09:12:00Z</time>
      </trkpt>
      <trkpt lat="48.44514" lon="2.63636">
        <ele>89</ele>
        <time>2019-09-08T09:12:14Z</time>
      </trkpt>
      <trkpt lat="48.4453" lon="2.63678">
        <ele>90</ele>
        <time>2019-09-08T09:12:23Z</time>
      </trkpt>
      <trkpt lat="48.4452" lon="2.63718">
        <ele>90</ele>
        <time>2019-09-08T09:12:32Z</time>
      </trkpt>
      <trkpt lat="48.4452" lon="2.63727">
        <ele>90</ele>
        <time>2019-09-08T09:12:35Z</time>
      </trkpt>
      <trkpt lat="48.44529" lon="2.63719">
        <ele>90</ele>
        <time>2019-09-08T09:12:38Z</time>
      </trkpt>
      <trkpt lat="48.44535" lon="2.63717">
        <ele>90</ele>
        <time>2019-09-08T09:12:39Z</time>
      </trkpt>
      <trkpt lat="48.44546" lon="2.6372">
        <ele>90</ele>
        <time>2019-09-08T09:12:41Z</time>
      </trkpt>
      <trkpt lat="48.44566" lon="2.63734">
        <ele>89</ele>
        <time>2019-09-08T09:12:45Z</time>
      </trkpt>
      <trkpt lat="48.44585" lon="2.63745">
        <ele>88</ele>
        <time>2019-09-08T09:12:53Z</time>
      </trkpt>
      <trkpt lat="48.44598" lon="2.63763">
        <ele>90</ele>
        <time>2019-09-08T09:12:59Z</time>
      </trkpt>
      <trkpt lat="48.44604" lon="2.63766">
        <ele>91</ele>
        <time>2019-09-08T09:13:01Z</time>
      </trkpt>
      <trkpt lat="48.4461" lon="2.6381">
        <ele>92</ele>
        <time>2019-09-08T09:13:12Z</time>
      </trkpt>
      <trkpt lat="48.44611" lon="2.63871">
        <ele>94</ele>
        <time>2019-09-08T09:13:24Z</time>
      </trkpt>
      <trkpt lat="48.44603" lon="2.63928">
        <ele>95</ele>
        <time>2019-09-08T09:13:36Z</time>
      </trkpt>
      <trkpt lat="48.44591" lon="2.6398">
        <ele>96</ele>
        <time>2019-09-08T09:13:48Z</time>
      </trkpt>
      <trkpt lat="48.44577" lon="2.64044">
        <ele>97</ele>
        <time>2019-09-08T09:14:01Z</time>
      </trkpt>
      <trkpt lat="48.44564" lon="2.64098">
        <ele>98</ele>
        <time>2019-09-08T09:14:13Z</time>
      </trkpt>
      <trkpt lat="48.44553" lon="2.64153">
        <ele>98</ele>
        <time>2019-09-08T09:14:24Z</time>
      </trkpt>
      <trkpt lat="48.44548" lon="2.64207">
        <ele>99</ele>
        <time>2019-09-08T09:14:35Z</time>
      </trkpt>
      <trkpt lat="48.44545" lon="2.64266">
        <ele>100</ele>
        <time>2019-09-08T09:14:46Z</time>
      </trkpt>
      <trkpt lat="48.44547" lon="2.64329">
        <ele>100</ele>
        <time>2019-09-08T09:14:59Z</time>
      </trkpt>
      <trkpt lat="48.44548" lon="2.64351">
        <ele>100</ele>
        <time>2019-09-08T09:15:04Z</time>
      </trkpt>
      <trkpt lat="48.44554" lon="2.6436">
        <ele>100</ele>
        <time>2019-09-08T09:15:09Z</time>
      </trkpt>
      <trkpt lat="48.44577" lon="2.6437">
        <ele>100</ele>
        <time>2019-09-08T09:15:20Z</time>
      </trkpt>
      <trkpt lat="48.4459" lon="2.6437">
        <ele>103</ele>
        <time>2019-09-08T09:15:28Z</time>
      </trkpt>
      <trkpt lat="48.44603" lon="2.6436">
        <ele>103</ele>
        <time>2019-09-08T09:15:36Z</time>
      </trkpt>
      <trkpt lat="48.44609" lon="2.64359">
        <ele>103</ele>
        <time>2019-09-08T09:15:49Z</time>
      </trkpt>
      <trkpt lat="48.44613" lon="2.64358">
        <ele>104</ele>
        <time>2019-09-08T09:16:08Z</time>
      </trkpt>
      <trkpt lat="48.4462" lon="2.64362">
        <ele>104</ele>
        <time>2019-09-08T09:16:12Z</time>
      </trkpt>
      <trkpt lat="48.44637" lon="2.64367">
        <ele>104</ele>
        <time>2019-09-08T09:16:18Z</time>
      </trkpt>
      <trkpt lat="48.44647" lon="2.64379">
        <ele>104</ele>
        <time>2019-09-08T09:16:24Z</time>
      </trkpt>
      <trkpt lat="48.44648" lon="2.64398">
        <ele>104</ele>
        <time>2019-09-08T09:16:31Z</time>
      </trkpt>
      <trkpt lat="48.44646" lon="2.64421">
        <ele>105</ele>
        <time>2019-09-08T09:16:36Z</time>
      </trkpt>
      <trkpt lat="48.44646" lon="2.64432">
        <ele>105</ele>
        <time>2019-09-08T09:16:39Z</time>
      </trkpt>
      <trkpt lat="48.44647" lon="2.6444">
        <ele>105</ele>
        <time>2019-09-08T09:16:43Z</time>
      </trkpt>
      <trkpt lat="48.44674" lon="2.64456">
        <ele>109</ele>
        <time>2019-09-08T09:16:56Z</time>
      </trkpt>
      <trkpt lat="48.44698" lon="2.64465">
        <ele>110</ele>
        <time>2019-09-08T09:17:08Z</time>
      </trkpt>
      <trkpt lat="48.44714" lon="2.64474">
        <ele>110</ele>
        <time>2019-09-08T09:17:19Z</time>
      </trkpt>
      <trkpt lat="48.44731" lon="2.64485">
        <ele>111</ele>
        <time>2019-09-08T09:17:29Z</time>
      </trkpt>
      <trkpt lat="48.44747" lon="2.64497">
        <ele>113</ele>
        <time>2019-09-08T09:17:39Z</time>
      </trkpt>
      <trkpt lat="48.44769" lon="2.64513">
        <ele>118</ele>
        <time>2019-09-08T09:17:52Z</time>
      </trkpt>
      <trkpt lat="48.44792" lon="2.64514">
        <ele>120</ele>
        <time>2019-09-08T09:18:05Z</time>
      </trkpt>
      <trkpt lat="48.44803" lon="2.64519">
        <ele>121</ele>
        <time>2019-09-08T09:18:14Z</time>
      </trkpt>
      <trkpt lat="48.4481" lon="2.64543">
        <ele>121</ele>
        <time>2019-09-08T09:18:29Z</time>
      </trkpt>
      <trkpt lat="48.44816" lon="2.64558">
        <ele>122</ele>
        <time>2019-09-08T09:18:39Z</time>
      </trkpt>
      <trkpt lat="48.44836" lon="2.64557">
        <ele>128</ele>
        <time>2019-09-08T09:18:53Z</time>
      </trkpt>
      <trkpt lat="48.44847" lon="2.64547">
        <ele>128</ele>
        <time>2019-09-08T09:19:05Z</time>
      </trkpt>
      <trkpt lat="48.44856" lon="2.64536">
        <ele>129</ele>
        <time>2019-09-08T09:19:18Z</time>
      </trkpt>
      <trkpt lat="48.44857" lon="2.64535">
        <ele>129</ele>
        <time>2019-09-08T09:19:19Z</time>
      </trkpt>
      <trkpt lat="48.44863" lon="2.64527">
        <ele>129</ele>
        <time>2019-09-08T09:19:25Z</time>
      </trkpt>
      <trkpt lat="48.44872" lon="2.64517">
        <ele>130</ele>
        <time>2019-09-08T09:19:31Z</time>
      </trkpt>
      <trkpt lat="48.44877" lon="2.64515">
        <ele>130</ele>
        <time>2019-09-08T09:19:34Z</time>
      </trkpt>
      <trkpt lat="48.44882" lon="2.64516">
        <ele>131</ele>
        <time>2019-09-08T09:19:39Z</time>
      </trkpt>
      <trkpt lat="48.44892" lon="2.6454">
        <ele>131</ele>
        <time>2019-09-08T09:19:56Z</time>
      </trkpt>
      <trkpt lat="48.44895" lon="2.64555">
        <ele>131</ele>
        <time>2019-09-08T09:20:03Z</time>
      </trkpt>
      <trkpt lat="48.44905" lon="2.64591">
        <ele>134</ele>
        <time>2019-09-08T09:20:19Z</time>
      </trkpt>
      <trkpt lat="48.44917" lon="2.64618">
        <ele>139</ele>
        <time>2019-09-08T09:20:30Z</time>
      </trkpt>
      <trkpt lat="48.44934" lon="2.64638">
        <ele>141</ele>
        <time>2019-09-08T09:20:44Z</time>
      </trkpt>
      <trkpt lat="48.44945" lon="2.6466">
        <ele>141</ele>
        <time>2019-09-08T09:20:58Z</time>
      </trkpt>
      <trkpt lat="48.44945" lon="2.64663">
        <ele>141</ele>
        <time>2019-09-08T09:21:00Z</time>
      </trkpt>
      <trkpt lat="48.44947" lon="2.64671">
        <ele>143</ele>
        <time>2019-09-08T09:21:04Z</time>
      </trkpt>
      <trkpt lat="48.44949" lon="2.64673">
        <ele>143</ele>
        <time>2019-09-08T09:21:06Z</time>
      </trkpt>
      <trkpt lat="48.44951" lon="2.64672">
        <ele>143</ele>
        <time>2019-09-08T09:21:10Z</time>
      </trkpt>
      <trkpt lat="48.44949" lon="2.64637">
        <ele>141</ele>
        <time>2019-09-08T09:21:23Z</time>
      </trkpt>
      <trkpt lat="48.44955" lon="2.64565">
        <ele>140</ele>
        <time>2019-09-08T09:21:37Z</time>
      </trkpt>
      <trkpt lat="48.44952" lon="2.64517">
        <ele>140</ele>
        <time>2019-09-08T09:21:48Z</time>
      </trkpt>
      <trkpt lat="48.44951" lon="2.64452">
        <ele>142</ele>
        <time>2019-09-08T09:22:01Z</time>
      </trkpt>
      <trkpt lat="48.44948" lon="2.64408">
        <ele>142</ele>
        <time>2019-09-08T09:22:09Z</time>
      </trkpt>
      <trkpt lat="48.44929" lon="2.64347">
        <ele>141</ele>
        <time>2019-09-08T09:22:20Z</time>
      </trkpt>
      <trkpt lat="48.44932" lon="2.64317">
        <ele>141</ele>
        <time>2019-09-08T09:22:25Z</time>
      </trkpt>
      <trkpt lat="48.44948" lon="2.64286">
        <ele>141</ele>
        <time>2019-09-08T09:22:31Z</time>
      </trkpt>
      <trkpt lat="48.44957" lon="2.64271">
        <ele>142</ele>
        <time>2019-09-08T09:22:34Z</time>
      </trkpt>
      <trkpt lat="48.44986" lon="2.6422">
        <ele>141</ele>
        <time>2019-09-08T09:22:45Z</time>
      </trkpt>
      <trkpt lat="48.45013" lon="2.64178">
        <ele>142</ele>
        <time>2019-09-08T09:22:55Z</time>
      </trkpt>
      <trkpt lat="48.4502" lon="2.64169">
        <ele>142</ele>
        <time>2019-09-08T09:22:57Z</time>
      </trkpt>
      <trkpt lat="48.45052" lon="2.64128">
        <ele>140</ele>
        <time>2019-09-08T09:23:05Z</time>
      </trkpt>
      <trkpt lat="48.45079" lon="2.64086">
        <ele>139</ele>
        <time>2019-09-08T09:23:13Z</time>
      </trkpt>
      <trkpt lat="48.45084" lon="2.64071">
        <ele>139</ele>
        <time>2019-09-08T09:23:15Z</time>
      </trkpt>
      <trkpt lat="48.45101" lon="2.64016">
        <ele>138</ele>
        <time>2019-09-08T09:23:23Z</time>
      </trkpt>
      <trkpt lat="48.451" lon="2.64">
        <ele>138</ele>
        <time>2019-09-08T09:23:27Z</time>
      </trkpt>
      <trkpt lat="48.45085" lon="2.63951">
        <ele>137</ele>
        <time>2019-09-08T09:23:38Z</time>
      </trkpt>
      <trkpt lat="48.45082" lon="2.63894">
        <ele>131</ele>
        <time>2019-09-08T09:23:48Z</time>
      </trkpt>
      <trkpt lat="48.45083" lon="2.63862">
        <ele>131</ele>
        <time>2019-09-08T09:23:53Z</time>
      </trkpt>
      <trkpt lat="48.45082" lon="2.63829">
        <ele>135</ele>
        <time>2019-09-08T09:23:58Z</time>
      </trkpt>
      <trkpt lat="48.45091" lon="2.63748">
        <ele>135</ele>
        <time>2019-09-08T09:24:11Z</time>
      </trkpt>
      <trkpt lat="48.45096" lon="2.63731">
        <ele>136</ele>
        <time>2019-09-08T09:24:14Z</time>
      </trkpt>
      <trkpt lat="48.45106" lon="2.63714">
        <ele>136</ele>
        <time>2019-09-08T09:24:17Z</time>
      </trkpt>
      <trkpt lat="48.45122" lon="2.63672">
        <ele>136</ele>
        <time>2019-09-08T09:24:24Z</time>
      </trkpt>
      <trkpt lat="48.45136" lon="2.63651">
        <ele>134</ele>
        <time>2019-09-08T09:24:28Z</time>
      </trkpt>
      <trkpt lat="48.45175" lon="2.63614">
        <ele>136</ele>
        <time>2019-09-08T09:24:39Z</time>
      </trkpt>
      <trkpt lat="48.4518" lon="2.63568">
        <ele>133</ele>
        <time>2019-09-08T09:24:47Z</time>
      </trkpt>
      <trkpt lat="48.45192" lon="2.63567">
        <ele>132</ele>
        <time>2019-09-08T09:24:50Z</time>
      </trkpt>
      <trkpt lat="48.45214" lon="2.63572">
        <ele>131</ele>
        <time>2019-09-08T09:24:55Z</time>
      </trkpt>
      <trkpt lat="48.45238" lon="2.63559">
        <ele>131</ele>
        <time>2019-09-08T09:25:00Z</time>
      </trkpt>
      <trkpt lat="48.45246" lon="2.63545">
        <ele>130</ele>
        <time>2019-09-08T09:25:02Z</time>
      </trkpt>
      <trkpt lat="48.4526" lon="2.63524">
        <ele>126</ele>
        <time>2019-09-08T09:25:05Z</time>
      </trkpt>
      <trkpt lat="48.45271" lon="2.63506">
        <ele>126</ele>
        <time>2019-09-08T09:25:07Z</time>
      </trkpt>
      <trkpt lat="48.45367" lon="2.6337">
        <ele>109</ele>
        <time>2019-09-08T09:25:19Z</time>
      </trkpt>
      <trkpt lat="48.45408" lon="2.63312">
        <ele>103</ele>
        <time>2019-09-08T09:25:26Z</time>
      </trkpt>
      <trkpt lat="48.45466" lon="2.63232">
        <ele>98</ele>
        <time>2019-09-08T09:25:36Z</time>
      </trkpt>
      <trkpt lat="48.45524" lon="2.63154">
        <ele>95</ele>
        <time>2019-09-08T09:25:48Z</time>
      </trkpt>
      <trkpt lat="48.45543" lon="2.63124">
        <ele>94</ele>
        <time>2019-09-08T09:25:53Z</time>
      </trkpt>
      <trkpt lat="48.4556" lon="2.63102">
        <ele>94</ele>
        <time>2019-09-08T09:25:57Z</time>
      </trkpt>
      <trkpt lat="48.45577" lon="2.63076">
        <ele>93</ele>
        <time>2019-09-08T09:26:01Z</time>
      </trkpt>
      <trkpt lat="48.45589" lon="2.63058">
        <ele>92</ele>
        <time>2019-09-08T09:26:04Z</time>
      </trkpt>
      <trkpt lat="48.45601" lon="2.63043">
        <ele>92</ele>
        <time>2019-09-08T09:26:07Z</time>
      </trkpt>
      <trkpt lat="48.45615" lon="2.63035">
        <ele>91</ele>
        <time>2019-09-08T09:26:11Z</time>
      </trkpt>
      <trkpt lat="48.45653" lon="2.63073">
        <ele>92</ele>
        <time>2019-09-08T09:26:26Z</time>
      </trkpt>
      <trkpt lat="48.45693" lon="2.63119">
        <ele>92</ele>
        <time>2019-09-08T09:26:40Z</time>
      </trkpt>
      <trkpt lat="48.45736" lon="2.63141">
        <ele>92</ele>
        <time>2019-09-08T09:26:51Z</time>
      </trkpt>
      <trkpt lat="48.45746" lon="2.63147">
        <ele>92</ele>
        <time>2019-09-08T09:26:53Z</time>
      </trkpt>
      <trkpt lat="48.45774" lon="2.6314">
        <ele>92</ele>
        <time>2019-09-08T09:26:59Z</time>
      </trkpt>
      <trkpt lat="48.45803" lon="2.63132">
        <ele>92</ele>
        <time>2019-09-08T09:27:05Z</time>
      </trkpt>
      <trkpt lat="48.45821" lon="2.6313">
        <ele>92</ele>
        <time>2019-09-08T09:27:09Z</time>
      </trkpt>
      <trkpt lat="48.45873" lon="2.63119">
        <ele>93</ele>
        <time>2019-09-08T09:27:21Z</time>
      </trkpt>
      <trkpt lat="48.45912" lon="2.63115">
        <ele>93</ele>
        <time>2019-09-08T09:27:30Z</time>
      </trkpt>
      <trkpt lat="48.45922" lon="2.63134">
        <ele>93</ele>
        <time>2019-09-08T09:27:35Z</time>
      </trkpt>
      <trkpt lat="48.45924" lon="2.63175">
        <ele>93</ele>
        <time>2019-09-08T09:27:46Z</time>
      </trkpt>
      <trkpt lat="48.45929" lon="2.63229">
        <ele>93</ele>
        <time>2019-09-08T09:27:58Z</time>
      </trkpt>
      <trkpt lat="48.45938" lon="2.63309">
        <ele>93</ele>
        <time>2019-09-08T09:28:12Z</time>
      </trkpt>
      <trkpt lat="48.4595" lon="2.63381">
        <ele>93</ele>
        <time>2019-09-08T09:28:23Z</time>
      </trkpt>
      <trkpt lat="48.45958" lon="2.63432">
        <ele>93</ele>
        <time>2019-09-08T09:28:35Z</time>
      </trkpt>
      <trkpt lat="48.45974" lon="2.63446">
        <ele>93</ele>
        <time>2019-09-08T09:28:39Z</time>
      </trkpt>
      <trkpt lat="48.46018" lon="2.63434">
        <ele>94</ele>
        <time>2019-09-08T09:28:51Z</time>
      </trkpt>
      <trkpt lat="48.46054" lon="2.63409">
        <ele>94</ele>
        <time>2019-09-08T09:29:02Z</time>
      </trkpt>
      <trkpt lat="48.46087" lon="2.63377">
        <ele>96</ele>
        <time>2019-09-08T09:29:13Z</time>
      </trkpt>
      <trkpt lat="48.46134" lon="2.63341">
        <ele>95</ele>
        <time>2019-09-08T09:29:25Z</time>
      </trkpt>
      <trkpt lat="48.46178" lon="2.6331">
        <ele>93</ele>
        <time>2019-09-08T09:29:36Z</time>
      </trkpt>
      <trkpt lat="48.46204" lon="2.63303">
        <ele>92</ele>
        <time>2019-09-08T09:29:45Z</time>
      </trkpt>
      <trkpt lat="48.46245" lon="2.63301">
        <ele>92</ele>
        <time>2019-09-08T09:29:56Z</time>
      </trkpt>
      <trkpt lat="48.46301" lon="2.63303">
        <ele>89</ele>
        <time>2019-09-08T09:30:09Z</time>
      </trkpt>
      <trkpt lat="48.4633" lon="2.63303">
        <ele>89</ele>
        <time>2019-09-08T09:30:17Z</time>
      </trkpt>
      <trkpt lat="48.46336" lon="2.63297">
        <ele>86</ele>
        <time>2019-09-08T09:30:21Z</time>
      </trkpt>
      <trkpt lat="48.46336" lon="2.63233">
        <ele>85</ele>
        <time>2019-09-08T09:30:34Z</time>
      </trkpt>
      <trkpt lat="48.4634" lon="2.63157">
        <ele>85</ele>
        <time>2019-09-08T09:30:46Z</time>
      </trkpt>
      <trkpt lat="48.46341" lon="2.63136">
        <ele>84</ele>
        <time>2019-09-08T09:30:49Z</time>
      </trkpt>
      <trkpt lat="48.46345" lon="2.63115">
        <ele>84</ele>
        <time>2019-09-08T09:30:52Z</time>
      </trkpt>
      <trkpt lat="48.46354" lon="2.6304">
        <ele>82</ele>
        <time>2019-09-08T09:31:02Z</time>
      </trkpt>
      <trkpt lat="48.46366" lon="2.62935">
        <ele>82</ele>
        <time>2019-09-08T09:31:18Z</time>
      </trkpt>
      <trkpt lat="48.46378" lon="2.62827">
        <ele>81</ele>
        <time>2019-09-08T09:31:35Z</time>
      </trkpt>
      <trkpt lat="48.46389" lon="2.62742">
        <ele>81</ele>
        <time>2019-09-08T09:31:49Z</time>
      </trkpt>
      <trkpt lat="48.46404" lon="2.62651">
        <ele>81</ele>
        <time>2019-09-08T09:32:04Z</time>
      </trkpt>
      <trkpt lat="48.46416" lon="2.6257">
        <ele>81</ele>
        <time>2019-09-08T09:32:17Z</time>
      </trkpt>
      <trkpt lat="48.46417" lon="2.62557">
        <ele>82</ele>
        <time>2019-09-08T09:32:19Z</time>
      </trkpt>
      <trkpt lat="48.46418" lon="2.6247">
        <ele>83</ele>
        <time>2019-09-08T09:32:33Z</time>
      </trkpt>
      <trkpt lat="48.46418" lon="2.62457">
        <ele>83</ele>
        <time>2019-09-08T09:32:35Z</time>
      </trkpt>
      <trkpt lat="48.46418" lon="2.62438">
        <ele>83</ele>
        <time>2019-09-08T09:32:38Z</time>
      </trkpt>
      <trkpt lat="48.46421" lon="2.62343">
        <ele>83</ele>
        <time>2019-09-08T09:32:51Z</time>
      </trkpt>
      <trkpt lat="48.46423" lon="2.62311">
        <ele>83</ele>
        <time>2019-09-08T09:32:55Z</time>
      </trkpt>
      <trkpt lat="48.46428" lon="2.62206">
        <ele>82</ele>
        <time>2019-09-08T09:33:09Z</time>
      </trkpt>
      <trkpt lat="48.46428" lon="2.62199">
        <ele>82</ele>
        <time>2019-09-08T09:33:10Z</time>
      </trkpt>
      <trkpt lat="48.46428" lon="2.62186">
        <ele>82</ele>
        <time>2019-09-08T09:33:12Z</time>
      </trkpt>
      <trkpt lat="48.46428" lon="2.62127">
        <ele>81</ele>
        <time>2019-09-08T09:33:22Z</time>
      </trkpt>
      <trkpt lat="48.46432" lon="2.62008">
        <ele>79</ele>
        <time>2019-09-08T09:33:38Z</time>
      </trkpt>
      <trkpt lat="48.4644" lon="2.61889">
        <ele>79</ele>
        <time>2019-09-08T09:33:55Z</time>
      </trkpt>
      <trkpt lat="48.46456" lon="2.61763">
        <ele>81</ele>
        <time>2019-09-08T09:34:14Z</time>
      </trkpt>
      <trkpt lat="48.46468" lon="2.61661">
        <ele>81</ele>
        <time>2019-09-08T09:34:30Z</time>
      </trkpt>
      <trkpt lat="48.46488" lon="2.6157">
        <ele>81</ele>
        <time>2019-09-08T09:34:45Z</time>
      </trkpt>
      <trkpt lat="48.46491" lon="2.61558">
        <ele>81</ele>
        <time>2019-09-08T09:34:47Z</time>
      </trkpt>
      <trkpt lat="48.46498" lon="2.61541">
        <ele>81</ele>
        <time>2019-09-08T09:34:50Z</time>
      </trkpt>
      <trkpt lat="48.46503" lon="2.6153">
        <ele>81</ele>
        <time>2019-09-08T09:34:52Z</time>
      </trkpt>
      <trkpt lat="48.46546" lon="2.61449">
        <ele>79</ele>
        <time>2019-09-08T09:35:09Z</time>
      </trkpt>
      <trkpt lat="48.46573" lon="2.61393">
        <ele>79</ele>
        <time>2019-09-08T09:35:20Z</time>
      </trkpt>
      <trkpt lat="48.46578" lon="2.61369">
        <ele>79</ele>
        <time>2019-09-08T09:35:24Z</time>
      </trkpt>
      <trkpt lat="48.4658" lon="2.61356">
        <ele>80</ele>
        <time>2019-09-08T09:35:26Z</time>
      </trkpt>
      <trkpt lat="48.46581" lon="2.61336">
        <ele>80</ele>
        <time>2019-09-08T09:35:29Z</time>
      </trkpt>
      <trkpt lat="48.4658" lon="2.61293">
        <ele>80</ele>
        <time>2019-09-08T09:35:36Z</time>
      </trkpt>
      <trkpt lat="48.46561" lon="2.612">
        <ele>80</ele>
        <time>2019-09-08T09:35:51Z</time>
      </trkpt>
      <trkpt lat="48.46552" lon="2.61177">
        <ele>80</ele>
        <time>2019-09-08T09:35:55Z</time>
      </trkpt>
      <trkpt lat="48.46546" lon="2.61168">
        <ele>80</ele>
        <time>2019-09-08T09:35:57Z</time>
      </trkpt>
      <trkpt lat="48.46528" lon="2.61146">
        <ele>80</ele>
        <time>2019-09-08T09:36:02Z</time>
      </trkpt>
      <trkpt lat="48.46519" lon="2.61132">
        <ele>80</ele>
        <time>2019-09-08T09:36:05Z</time>
      </trkpt>
      <trkpt lat="48.46507" lon="2.61106">
        <ele>79</ele>
        <time>2019-09-08T09:36:10Z</time>
      </trkpt>
      <trkpt lat="48.46501" lon="2.61082">
        <ele>79</ele>
        <time>2019-09-08T09:36:14Z</time>
      </trkpt>
      <trkpt lat="48.46497" lon="2.6107">
        <ele>79</ele>
        <time>2019-09-08T09:36:16Z</time>
      </trkpt>
      <trkpt lat="48.46488" lon="2.61033">
        <ele>79</ele>
        <time>2019-09-08T09:36:22Z</time>
      </trkpt>
      <trkpt lat="48.4649" lon="2.6099">
        <ele>79</ele>
        <time>2019-09-08T09:36:31Z</time>
      </trkpt>
      <trkpt lat="48.46521" lon="2.60907">
        <ele>81</ele>
        <time>2019-09-08T09:36:47Z</time>
      </trkpt>
      <trkpt lat="48.46547" lon="2.60856">
        <ele>81</ele>
        <time>2019-09-08T09:36:59Z</time>
      </trkpt>
      <trkpt lat="48.46572" lon="2.60792">
        <ele>82</ele>
        <time>2019-09-08T09:37:13Z</time>
      </trkpt>
      <trkpt lat="48.46589" lon="2.60736">
        <ele>82</ele>
        <time>2019-09-08T09:37:25Z</time>
      </trkpt>
      <trkpt lat="48.46593" lon="2.60726">
        <ele>82</ele>
        <time>2019-09-08T09:37:36Z</time>
      </trkpt>
      <trkpt lat="48.46592" lon="2.60725">
        <ele>82</ele>
        <time>2019-09-08T09:37:44Z</time>
      </trkpt>
      <trkpt lat="48.46584" lon="2.60716">
        <ele>82</ele>
        <time>2019-09-08T09:37:54Z</time>
      </trkpt>
      <trkpt lat="48.4658" lon="2.60711">
        <ele>82</ele>
        <time>2019-09-08T09:37:58Z</time>
      </trkpt>
      <trkpt lat="48.46536" lon="2.60717">
        <ele>81</ele>
        <time>2019-09-08T09:38:09Z</time>
      </trkpt>
      <trkpt lat="48.46523" lon="2.60721">
        <ele>81</ele>
        <time>2019-09-08T09:38:12Z</time>
      </trkpt>
      <trkpt lat="48.46502" lon="2.607">
        <ele>81</ele>
        <time>2019-09-08T09:38:20Z</time>
      </trkpt>
      <trkpt lat="48.46498" lon="2.60699">
        <ele>80</ele>
        <time>2019-09-08T09:38:21Z</time>
      </trkpt>
      <trkpt lat="48.46482" lon="2.60696">
        <ele>80</ele>
        <time>2019-09-08T09:38:26Z</time>
      </trkpt>
      <trkpt lat="48.46457" lon="2.60656">
        <ele>80</ele>
        <time>2019-09-08T09:38:38Z</time>
      </trkpt>
      <trkpt lat="48.46451" lon="2.60623">
        <ele>80</ele>
        <time>2019-09-08T09:38:45Z</time>
      </trkpt>
      <trkpt lat="48.46443" lon="2.60601">
        <ele>79</ele>
        <time>2019-09-08T09:38:53Z</time>
      </trkpt>
      <trkpt lat="48.4643" lon="2.60587">
        <ele>79</ele>
        <time>2019-09-08T09:39:01Z</time>
      </trkpt>
      <trkpt lat="48.46429" lon="2.60583">
        <ele>79</ele>
        <time>2019-09-08T09:39:02Z</time>
      </trkpt>
      <trkpt lat="48.46423" lon="2.60513">
        <ele>79</ele>
        <time>2019-09-08T09:39:17Z</time>
      </trkpt>
      <trkpt lat="48.46423" lon="2.60502">
        <ele>79</ele>
        <time>2019-09-08T09:39:20Z</time>
      </trkpt>
      <trkpt lat="48.46427" lon="2.60484">
        <ele>79</ele>
        <time>2019-09-08T09:39:30Z</time>
      </trkpt>
      <trkpt lat="48.46422" lon="2.60471">
        <ele>79</ele>
        <time>2019-09-08T09:39:41Z</time>
      </trkpt>
      <trkpt lat="48.46421" lon="2.60469">
        <ele>79</ele>
        <time>2019-09-08T09:39:51Z</time>
      </trkpt>
      <trkpt lat="48.46422" lon="2.60468">
        <ele>79</ele>
        <time>2019-09-08T09:40:01Z</time>
      </trkpt>
      <trkpt lat="48.46427" lon="2.60473">
        <ele>79</ele>
        <time>2019-09-08T09:40:06Z</time>
      </trkpt>
      <trkpt lat="48.46432" lon="2.60479">
        <ele>79</ele>
        <time>2019-09-08T09:40:13Z</time>
      </trkpt>
      <trkpt lat="48.46435" lon="2.60485">
        <ele>79</ele>
        <time>2019-09-08T09:40:23Z</time>
      </trkpt>
      <trkpt lat="48.46435" lon="2.60487">
        <ele>79</ele>
        <time>2019-09-08T09:40:36Z</time>
      </trkpt>
      <trkpt lat="48.46435" lon="2.60487">
        <ele>79</ele>
        <time>2019-09-08T09:40:53Z</time>
      </trkpt>
      <trkpt lat="48.46435" lon="2.60488">
        <ele>79</ele>
        <time>2019-09-08T09:41:09Z</time>
      </trkpt>
      <trkpt lat="48.46436" lon="2.60491">
        <ele>79</ele>
        <time>2019-09-08T09:41:23Z</time>
      </trkpt>
      <trkpt lat="48.46436" lon="2.60492">
        <ele>79</ele>
        <time>2019-09-08T09:41:39Z</time>
      </trkpt>
      <trkpt lat="48.46435" lon="2.60493">
        <ele>79</ele>
        <time>2019-09-08T09:41:57Z</time>
      </trkpt>
      <trkpt lat="48.46433" lon="2.60493">
        <ele>79</ele>
        <time>2019-09-08T09:42:20Z</time>
      </trkpt>
      <trkpt lat="48.46433" lon="2.60494">
        <ele>79</ele>
        <time>2019-09-08T09:42:39Z</time>
      </trkpt>
      <trkpt lat="48.46433" lon="2.60492">
        <ele>79</ele>
        <time>2019-09-08T09:42:56Z</time>
      </trkpt>
      <trkpt lat="48.46434" lon="2.60488">
        <ele>79</ele>
        <time>2019-09-08T09:43:11Z</time>
      </trkpt>
      <trkpt lat="48.46435" lon="2.60487">
        <ele>79</ele>
        <time>2019-09-08T09:43:29Z</time>
      </trkpt>
      <trkpt lat="48.46435" lon="2.60487">
        <ele>79</ele>
        <time>2019-09-08T09:43:46Z</time>
      </trkpt>
      <trkpt lat="48.46436" lon="2.60486">
        <ele>79</ele>
        <time>2019-09-08T09:44:03Z</time>
      </trkpt>
      <trkpt lat="48.46436" lon="2.60485">
        <ele>79</ele>
        <time>2019-09-08T09:44:25Z</time>
      </trkpt>
      <trkpt lat="48.46436" lon="2.60485">
        <ele>79</ele>
        <time>2019-09-08T09:44:40Z</time>
      </trkpt>
      <trkpt lat="48.46436" lon="2.60484">
        <ele>79</ele>
        <time>2019-09-08T09:45:03Z</time>
      </trkpt>
      <trkpt lat="48.46436" lon="2.60483">
        <ele>79</ele>
        <time>2019-09-08T09:45:23Z</time>
      </trkpt>
      <trkpt lat="48.46437" lon="2.60483">
        <ele>79</ele>
        <time>2019-09-08T09:45:39Z</time>
      </trkpt>
      <trkpt lat="48.46437" lon="2.60482">
        <ele>79</ele>
        <time>2019-09-08T09:45:53Z</time>
      </trkpt>
      <trkpt lat="48.46437" lon="2.60481">
        <ele>79</ele>
        <time>2019-09-08T09:46:12Z</time>
      </trkpt>
      <trkpt lat="48.46437" lon="2.60481">
        <ele>79</ele>
        <time>2019-09-08T09:46:30Z</time>
      </trkpt>
      <trkpt lat="48.46437" lon="2.60481">
        <ele>79</ele>
        <time>2019-09-08T09:46:50Z</time>
      </trkpt>
      <trkpt lat="48.46437" lon="2.60481">
        <ele>79</ele>
        <time>2019-09-08T09:47:02Z</time>
      </trkpt>
      <trkpt lat="48.46437" lon="2.6048">
        <ele>79</ele>
        <time>2019-09-08T09:47:26Z</time>
      </trkpt>
      <trkpt lat="48.46437" lon="2.6048">
        <ele>79</ele>
        <time>2019-09-08T09:47:45Z</time>
      </trkpt>
      <trkpt lat="48.46438" lon="2.60489">
        <ele>79</ele>
        <time>2019-09-08T09:47:57Z</time>
      </trkpt>
      <trkpt lat="48.46436" lon="2.6049">
        <ele>79</ele>
        <time>2019-09-08T09:48:13Z</time>
      </trkpt>
      <trkpt lat="48.46433" lon="2.60487">
        <ele>79</ele>
        <time>2019-09-08T09:48:18Z</time>
      </trkpt>
      <trkpt lat="48.46427" lon="2.60476">
        <ele>79</ele>
        <time>2019-09-08T09:48:33Z</time>
      </trkpt>
      <trkpt lat="48.46428" lon="2.60476">
        <ele>79</ele>
        <time>2019-09-08T09:48:36Z</time>
      </trkpt>
      <trkpt lat="48.46433" lon="2.60478">
        <ele>79</ele>
        <time>2019-09-08T09:48:48Z</time>
      </trkpt>
      <trkpt lat="48.46434" lon="2.60485">
        <ele>79</ele>
        <time>2019-09-08T09:49:00Z</time>
      </trkpt>
      <trkpt lat="48.46433" lon="2.60495">
        <ele>79</ele>
        <time>2019-09-08T09:49:08Z</time>
      </trkpt>
      <trkpt lat="48.46433" lon="2.60521">
        <ele>79</ele>
        <time>2019-09-08T09:49:21Z</time>
      </trkpt>
      <trkpt lat="48.46433" lon="2.60552">
        <ele>79</ele>
        <time>2019-09-08T09:49:33Z</time>
      </trkpt>
      <trkpt lat="48.46436" lon="2.60583">
        <ele>79</ele>
        <time>2019-09-08T09:49:43Z</time>
      </trkpt>
      <trkpt lat="48.46446" lon="2.6059">
        <ele>79</ele>
        <time>2019-09-08T09:49:51Z</time>
      </trkpt>
      <trkpt lat="48.46454" lon="2.60601">
        <ele>80</ele>
        <time>2019-09-08T09:49:59Z</time>
      </trkpt>
      <trkpt lat="48.46464" lon="2.60607">
        <ele>80</ele>
        <time>2019-09-08T09:50:05Z</time>
      </trkpt>
      <trkpt lat="48.46464" lon="2.60618">
        <ele>80</ele>
        <time>2019-09-08T09:50:12Z</time>
      </trkpt>
      <trkpt lat="48.46468" lon="2.60626">
        <ele>80</ele>
        <time>2019-09-08T09:50:24Z</time>
      </trkpt>
      <trkpt lat="48.46471" lon="2.60629">
        <ele>80</ele>
        <time>2019-09-08T09:50:38Z</time>
      </trkpt>
      <trkpt lat="48.4647" lon="2.6063">
        <ele>80</ele>
        <time>2019-09-08T09:50:54Z</time>
      </trkpt>
      <trkpt lat="48.46469" lon="2.6063">
        <ele>80</ele>
        <time>2019-09-08T09:51:07Z</time>
      </trkpt>
      <trkpt lat="48.46469" lon="2.60631">
        <ele>80</ele>
        <time>2019-09-08T09:51:23Z</time>
      </trkpt>
      <trkpt lat="48.46469" lon="2.60632">
        <ele>80</ele>
        <time>2019-09-08T09:51:38Z</time>
      </trkpt>
      <trkpt lat="48.4647" lon="2.60632">
        <ele>80</ele>
        <time>2019-09-08T09:52:06Z</time>
      </trkpt>
      <trkpt lat="48.46471" lon="2.60633">
        <ele>80</ele>
        <time>2019-09-08T09:52:34Z</time>
      </trkpt>
      <trkpt lat="48.46472" lon="2.60633">
        <ele>80</ele>
        <time>2019-09-08T09:53:02Z</time>
      </trkpt>
      <trkpt lat="48.46473" lon="2.60634">
        <ele>80</ele>
        <time>2019-09-08T09:53:32Z</time>
      </trkpt>
      <trkpt lat="48.46474" lon="2.60633">
        <ele>80</ele>
        <time>2019-09-08T09:54:02Z</time>
      </trkpt>
      <trkpt lat="48.46473" lon="2.60634">
        <ele>80</ele>
        <time>2019-09-08T09:54:34Z</time>
      </trkpt>
      <trkpt lat="48.46474" lon="2.60634">
        <ele>80</ele>
        <time>2019-09-08T09:55:03Z</time>
      </trkpt>
      <trkpt lat="48.46475" lon="2.60635">
        <ele>80</ele>
        <time>2019-09-08T09:55:34Z</time>
      </trkpt>
      <trkpt lat="48.46474" lon="2.60634">
        <ele>80</ele>
        <time>2019-09-08T09:55:58Z</time>
      </trkpt>
    </trkseg>
  </trk>
</gpx>